<?xml version="1.0" encoding="UTF-8" standalone="no" ?>
<gpx xmlns="http://www.topografix.com/GPX/1/1" xmlns:xsi="http://www.w3.org/2001/XMLSchema-instance" xsi:schemaLocation="http://www.topografix.com/GPX/1/1 http://www.topografix.com/GPX/1/1/gpx.xsd" version="1.1" creator="VisuGPX - https://www.visugpx.com">
  <metadata>
    <name>Tournefeuille VTT</name>
  </metadata>
  <trk>
    <name><![CDATA[Tournefeuille VTT_1]]></name>
    <trkseg>
      <trkpt lat="43.5868" lon="1.32214">
        <ele>184.8</ele>
        <time>2025-12-19T08:11:56Z</time>
      </trkpt>
      <trkpt lat="43.5868" lon="1.32214">
        <ele>183.8</ele>
        <time>2025-12-19T08:11:57Z</time>
      </trkpt>
      <trkpt lat="43.58677" lon="1.32202">
        <ele>184</ele>
        <time>2025-12-19T08:12:15Z</time>
      </trkpt>
      <trkpt lat="43.58677" lon="1.32199">
        <ele>184</ele>
        <time>2025-12-19T08:12:16Z</time>
      </trkpt>
      <trkpt lat="43.58678" lon="1.32195">
        <ele>184</ele>
        <time>2025-12-19T08:12:17Z</time>
      </trkpt>
      <trkpt lat="43.58679" lon="1.32191">
        <ele>184</ele>
        <time>2025-12-19T08:12:18Z</time>
      </trkpt>
      <trkpt lat="43.5868" lon="1.32187">
        <ele>184</ele>
        <time>2025-12-19T08:12:19Z</time>
      </trkpt>
      <trkpt lat="43.5868" lon="1.32182">
        <ele>184</ele>
        <time>2025-12-19T08:12:20Z</time>
      </trkpt>
      <trkpt lat="43.5868" lon="1.32178">
        <ele>184</ele>
        <time>2025-12-19T08:12:21Z</time>
      </trkpt>
      <trkpt lat="43.58681" lon="1.32173">
        <ele>184.2</ele>
        <time>2025-12-19T08:12:22Z</time>
      </trkpt>
      <trkpt lat="43.58682" lon="1.32167">
        <ele>184</ele>
        <time>2025-12-19T08:12:23Z</time>
      </trkpt>
      <trkpt lat="43.58682" lon="1.32161">
        <ele>184.2</ele>
        <time>2025-12-19T08:12:24Z</time>
      </trkpt>
      <trkpt lat="43.58683" lon="1.32155">
        <ele>184.2</ele>
        <time>2025-12-19T08:12:25Z</time>
      </trkpt>
      <trkpt lat="43.58683" lon="1.32148">
        <ele>184.2</ele>
        <time>2025-12-19T08:12:26Z</time>
      </trkpt>
      <trkpt lat="43.58684" lon="1.32142">
        <ele>184.2</ele>
        <time>2025-12-19T08:12:27Z</time>
      </trkpt>
      <trkpt lat="43.58684" lon="1.32136">
        <ele>184.2</ele>
        <time>2025-12-19T08:12:28Z</time>
      </trkpt>
      <trkpt lat="43.58685" lon="1.32129">
        <ele>184.2</ele>
        <time>2025-12-19T08:12:29Z</time>
      </trkpt>
      <trkpt lat="43.58686" lon="1.32122">
        <ele>184</ele>
        <time>2025-12-19T08:12:30Z</time>
      </trkpt>
      <trkpt lat="43.58686" lon="1.32116">
        <ele>184</ele>
        <time>2025-12-19T08:12:31Z</time>
      </trkpt>
      <trkpt lat="43.58686" lon="1.32109">
        <ele>184</ele>
        <time>2025-12-19T08:12:32Z</time>
      </trkpt>
      <trkpt lat="43.58686" lon="1.32102">
        <ele>184</ele>
        <time>2025-12-19T08:12:33Z</time>
      </trkpt>
      <trkpt lat="43.58687" lon="1.32095">
        <ele>183.8</ele>
        <time>2025-12-19T08:12:34Z</time>
      </trkpt>
      <trkpt lat="43.58687" lon="1.32087">
        <ele>183.8</ele>
        <time>2025-12-19T08:12:35Z</time>
      </trkpt>
      <trkpt lat="43.58687" lon="1.3208">
        <ele>183.6</ele>
        <time>2025-12-19T08:12:36Z</time>
      </trkpt>
      <trkpt lat="43.58688" lon="1.32072">
        <ele>183.6</ele>
        <time>2025-12-19T08:12:37Z</time>
      </trkpt>
      <trkpt lat="43.58688" lon="1.32065">
        <ele>183.4</ele>
        <time>2025-12-19T08:12:38Z</time>
      </trkpt>
      <trkpt lat="43.58688" lon="1.32057">
        <ele>183.4</ele>
        <time>2025-12-19T08:12:39Z</time>
      </trkpt>
      <trkpt lat="43.58688" lon="1.32049">
        <ele>183.2</ele>
        <time>2025-12-19T08:12:40Z</time>
      </trkpt>
      <trkpt lat="43.58688" lon="1.32041">
        <ele>183.2</ele>
        <time>2025-12-19T08:12:41Z</time>
      </trkpt>
      <trkpt lat="43.58688" lon="1.32034">
        <ele>183.2</ele>
        <time>2025-12-19T08:12:42Z</time>
      </trkpt>
      <trkpt lat="43.58687" lon="1.32026">
        <ele>183.2</ele>
        <time>2025-12-19T08:12:43Z</time>
      </trkpt>
      <trkpt lat="43.58687" lon="1.3202">
        <ele>183.2</ele>
        <time>2025-12-19T08:12:44Z</time>
      </trkpt>
      <trkpt lat="43.58686" lon="1.32013">
        <ele>183.2</ele>
        <time>2025-12-19T08:12:45Z</time>
      </trkpt>
      <trkpt lat="43.58685" lon="1.32006">
        <ele>183.2</ele>
        <time>2025-12-19T08:12:46Z</time>
      </trkpt>
      <trkpt lat="43.58684" lon="1.31999">
        <ele>183.4</ele>
        <time>2025-12-19T08:12:47Z</time>
      </trkpt>
      <trkpt lat="43.58683" lon="1.31992">
        <ele>183.4</ele>
        <time>2025-12-19T08:12:48Z</time>
      </trkpt>
      <trkpt lat="43.58681" lon="1.31986">
        <ele>183.4</ele>
        <time>2025-12-19T08:12:49Z</time>
      </trkpt>
      <trkpt lat="43.58678" lon="1.31982">
        <ele>183.4</ele>
        <time>2025-12-19T08:12:50Z</time>
      </trkpt>
      <trkpt lat="43.58675" lon="1.31977">
        <ele>183.8</ele>
        <time>2025-12-19T08:12:51Z</time>
      </trkpt>
      <trkpt lat="43.58673" lon="1.31972">
        <ele>183.8</ele>
        <time>2025-12-19T08:12:52Z</time>
      </trkpt>
      <trkpt lat="43.5867" lon="1.31968">
        <ele>184</ele>
        <time>2025-12-19T08:12:53Z</time>
      </trkpt>
      <trkpt lat="43.58667" lon="1.31965">
        <ele>184.2</ele>
        <time>2025-12-19T08:12:54Z</time>
      </trkpt>
      <trkpt lat="43.58665" lon="1.31961">
        <ele>184.4</ele>
        <time>2025-12-19T08:12:55Z</time>
      </trkpt>
      <trkpt lat="43.58665" lon="1.31956">
        <ele>184.4</ele>
        <time>2025-12-19T08:12:56Z</time>
      </trkpt>
      <trkpt lat="43.58666" lon="1.31952">
        <ele>184.6</ele>
        <time>2025-12-19T08:12:57Z</time>
      </trkpt>
      <trkpt lat="43.58668" lon="1.31948">
        <ele>184.6</ele>
        <time>2025-12-19T08:12:58Z</time>
      </trkpt>
      <trkpt lat="43.5867" lon="1.31945">
        <ele>184.6</ele>
        <time>2025-12-19T08:12:59Z</time>
      </trkpt>
      <trkpt lat="43.58672" lon="1.31943">
        <ele>184.6</ele>
        <time>2025-12-19T08:13:00Z</time>
      </trkpt>
      <trkpt lat="43.58673" lon="1.31942">
        <ele>184.8</ele>
        <time>2025-12-19T08:13:01Z</time>
      </trkpt>
      <trkpt lat="43.58674" lon="1.31942">
        <ele>184.6</ele>
        <time>2025-12-19T08:13:02Z</time>
      </trkpt>
      <trkpt lat="43.58676" lon="1.31942">
        <ele>184.8</ele>
        <time>2025-12-19T08:13:03Z</time>
      </trkpt>
      <trkpt lat="43.58678" lon="1.3194">
        <ele>184.8</ele>
        <time>2025-12-19T08:13:04Z</time>
      </trkpt>
      <trkpt lat="43.5868" lon="1.31937">
        <ele>184.8</ele>
        <time>2025-12-19T08:13:05Z</time>
      </trkpt>
      <trkpt lat="43.5868" lon="1.31932">
        <ele>184.8</ele>
        <time>2025-12-19T08:13:06Z</time>
      </trkpt>
      <trkpt lat="43.58679" lon="1.31927">
        <ele>184.8</ele>
        <time>2025-12-19T08:13:07Z</time>
      </trkpt>
      <trkpt lat="43.58678" lon="1.31922">
        <ele>184.6</ele>
        <time>2025-12-19T08:13:08Z</time>
      </trkpt>
      <trkpt lat="43.58677" lon="1.31916">
        <ele>184.6</ele>
        <time>2025-12-19T08:13:09Z</time>
      </trkpt>
      <trkpt lat="43.58676" lon="1.3191">
        <ele>184.6</ele>
        <time>2025-12-19T08:13:10Z</time>
      </trkpt>
      <trkpt lat="43.58675" lon="1.31904">
        <ele>184.6</ele>
        <time>2025-12-19T08:13:11Z</time>
      </trkpt>
      <trkpt lat="43.58674" lon="1.31898">
        <ele>184.6</ele>
        <time>2025-12-19T08:13:12Z</time>
      </trkpt>
      <trkpt lat="43.58672" lon="1.31891">
        <ele>184.6</ele>
        <time>2025-12-19T08:13:13Z</time>
      </trkpt>
      <trkpt lat="43.58671" lon="1.31885">
        <ele>184.6</ele>
        <time>2025-12-19T08:13:14Z</time>
      </trkpt>
      <trkpt lat="43.58671" lon="1.31879">
        <ele>184.6</ele>
        <time>2025-12-19T08:13:15Z</time>
      </trkpt>
      <trkpt lat="43.58671" lon="1.31872">
        <ele>184.8</ele>
        <time>2025-12-19T08:13:16Z</time>
      </trkpt>
      <trkpt lat="43.58672" lon="1.31868">
        <ele>184.8</ele>
        <time>2025-12-19T08:13:17Z</time>
      </trkpt>
      <trkpt lat="43.58673" lon="1.31863">
        <ele>184.8</ele>
        <time>2025-12-19T08:13:18Z</time>
      </trkpt>
      <trkpt lat="43.58673" lon="1.31857">
        <ele>185</ele>
        <time>2025-12-19T08:13:19Z</time>
      </trkpt>
      <trkpt lat="43.58671" lon="1.31853">
        <ele>185</ele>
        <time>2025-12-19T08:13:20Z</time>
      </trkpt>
      <trkpt lat="43.58669" lon="1.31849">
        <ele>185</ele>
        <time>2025-12-19T08:13:21Z</time>
      </trkpt>
      <trkpt lat="43.58666" lon="1.31844">
        <ele>185</ele>
        <time>2025-12-19T08:13:22Z</time>
      </trkpt>
      <trkpt lat="43.58665" lon="1.31839">
        <ele>185.2</ele>
        <time>2025-12-19T08:13:23Z</time>
      </trkpt>
      <trkpt lat="43.58663" lon="1.31833">
        <ele>185.2</ele>
        <time>2025-12-19T08:13:24Z</time>
      </trkpt>
      <trkpt lat="43.58662" lon="1.31827">
        <ele>185.4</ele>
        <time>2025-12-19T08:13:25Z</time>
      </trkpt>
      <trkpt lat="43.5866" lon="1.3182">
        <ele>185.4</ele>
        <time>2025-12-19T08:13:26Z</time>
      </trkpt>
      <trkpt lat="43.58659" lon="1.31813">
        <ele>185.4</ele>
        <time>2025-12-19T08:13:27Z</time>
      </trkpt>
      <trkpt lat="43.58658" lon="1.31807">
        <ele>185.4</ele>
        <time>2025-12-19T08:13:28Z</time>
      </trkpt>
      <trkpt lat="43.58657" lon="1.318">
        <ele>185.4</ele>
        <time>2025-12-19T08:13:29Z</time>
      </trkpt>
      <trkpt lat="43.58656" lon="1.31793">
        <ele>185.4</ele>
        <time>2025-12-19T08:13:30Z</time>
      </trkpt>
      <trkpt lat="43.58655" lon="1.31786">
        <ele>185.4</ele>
        <time>2025-12-19T08:13:31Z</time>
      </trkpt>
      <trkpt lat="43.58653" lon="1.3178">
        <ele>185.4</ele>
        <time>2025-12-19T08:13:32Z</time>
      </trkpt>
      <trkpt lat="43.58652" lon="1.31773">
        <ele>185.6</ele>
        <time>2025-12-19T08:13:33Z</time>
      </trkpt>
      <trkpt lat="43.58651" lon="1.31766">
        <ele>185.6</ele>
        <time>2025-12-19T08:13:34Z</time>
      </trkpt>
      <trkpt lat="43.5865" lon="1.31759">
        <ele>185.6</ele>
        <time>2025-12-19T08:13:35Z</time>
      </trkpt>
      <trkpt lat="43.58649" lon="1.31753">
        <ele>185.6</ele>
        <time>2025-12-19T08:13:36Z</time>
      </trkpt>
      <trkpt lat="43.58648" lon="1.31746">
        <ele>185.6</ele>
        <time>2025-12-19T08:13:37Z</time>
      </trkpt>
      <trkpt lat="43.58647" lon="1.31739">
        <ele>185.8</ele>
        <time>2025-12-19T08:13:38Z</time>
      </trkpt>
      <trkpt lat="43.58648" lon="1.31732">
        <ele>185.8</ele>
        <time>2025-12-19T08:13:39Z</time>
      </trkpt>
      <trkpt lat="43.58649" lon="1.31726">
        <ele>186</ele>
        <time>2025-12-19T08:13:40Z</time>
      </trkpt>
      <trkpt lat="43.58651" lon="1.3172">
        <ele>186</ele>
        <time>2025-12-19T08:13:41Z</time>
      </trkpt>
      <trkpt lat="43.58653" lon="1.31714">
        <ele>186</ele>
        <time>2025-12-19T08:13:42Z</time>
      </trkpt>
      <trkpt lat="43.58654" lon="1.31708">
        <ele>186.2</ele>
        <time>2025-12-19T08:13:43Z</time>
      </trkpt>
      <trkpt lat="43.58655" lon="1.31702">
        <ele>186.2</ele>
        <time>2025-12-19T08:13:44Z</time>
      </trkpt>
      <trkpt lat="43.58656" lon="1.31697">
        <ele>186.2</ele>
        <time>2025-12-19T08:13:45Z</time>
      </trkpt>
      <trkpt lat="43.58656" lon="1.31693">
        <ele>186.2</ele>
        <time>2025-12-19T08:13:46Z</time>
      </trkpt>
      <trkpt lat="43.58655" lon="1.31688">
        <ele>186.4</ele>
        <time>2025-12-19T08:13:47Z</time>
      </trkpt>
      <trkpt lat="43.58653" lon="1.31686">
        <ele>186.4</ele>
        <time>2025-12-19T08:13:48Z</time>
      </trkpt>
      <trkpt lat="43.58649" lon="1.31685">
        <ele>186.4</ele>
        <time>2025-12-19T08:13:49Z</time>
      </trkpt>
      <trkpt lat="43.58646" lon="1.31687">
        <ele>186.4</ele>
        <time>2025-12-19T08:13:50Z</time>
      </trkpt>
      <trkpt lat="43.58643" lon="1.31687">
        <ele>186.4</ele>
        <time>2025-12-19T08:13:51Z</time>
      </trkpt>
      <trkpt lat="43.58642" lon="1.31685">
        <ele>186.4</ele>
        <time>2025-12-19T08:13:52Z</time>
      </trkpt>
      <trkpt lat="43.58641" lon="1.31681">
        <ele>186.4</ele>
        <time>2025-12-19T08:13:53Z</time>
      </trkpt>
      <trkpt lat="43.5864" lon="1.31676">
        <ele>186.4</ele>
        <time>2025-12-19T08:13:54Z</time>
      </trkpt>
      <trkpt lat="43.58639" lon="1.3167">
        <ele>186.2</ele>
        <time>2025-12-19T08:13:55Z</time>
      </trkpt>
      <trkpt lat="43.58638" lon="1.31664">
        <ele>186.2</ele>
        <time>2025-12-19T08:13:56Z</time>
      </trkpt>
      <trkpt lat="43.58638" lon="1.31658">
        <ele>186</ele>
        <time>2025-12-19T08:13:57Z</time>
      </trkpt>
      <trkpt lat="43.58637" lon="1.31651">
        <ele>186</ele>
        <time>2025-12-19T08:13:58Z</time>
      </trkpt>
      <trkpt lat="43.58637" lon="1.31645">
        <ele>186</ele>
        <time>2025-12-19T08:13:59Z</time>
      </trkpt>
      <trkpt lat="43.58636" lon="1.31638">
        <ele>186</ele>
        <time>2025-12-19T08:14:00Z</time>
      </trkpt>
      <trkpt lat="43.58635" lon="1.31631">
        <ele>186</ele>
        <time>2025-12-19T08:14:01Z</time>
      </trkpt>
      <trkpt lat="43.58635" lon="1.31624">
        <ele>186</ele>
        <time>2025-12-19T08:14:02Z</time>
      </trkpt>
      <trkpt lat="43.58634" lon="1.31617">
        <ele>186</ele>
        <time>2025-12-19T08:14:03Z</time>
      </trkpt>
      <trkpt lat="43.58634" lon="1.3161">
        <ele>186</ele>
        <time>2025-12-19T08:14:04Z</time>
      </trkpt>
      <trkpt lat="43.58633" lon="1.31602">
        <ele>186</ele>
        <time>2025-12-19T08:14:05Z</time>
      </trkpt>
      <trkpt lat="43.58633" lon="1.31595">
        <ele>186</ele>
        <time>2025-12-19T08:14:06Z</time>
      </trkpt>
      <trkpt lat="43.58632" lon="1.31588">
        <ele>186.2</ele>
        <time>2025-12-19T08:14:07Z</time>
      </trkpt>
      <trkpt lat="43.58632" lon="1.3158">
        <ele>186.2</ele>
        <time>2025-12-19T08:14:08Z</time>
      </trkpt>
      <trkpt lat="43.58631" lon="1.31573">
        <ele>186.2</ele>
        <time>2025-12-19T08:14:09Z</time>
      </trkpt>
      <trkpt lat="43.5863" lon="1.31566">
        <ele>186.2</ele>
        <time>2025-12-19T08:14:10Z</time>
      </trkpt>
      <trkpt lat="43.58629" lon="1.31559">
        <ele>186.2</ele>
        <time>2025-12-19T08:14:11Z</time>
      </trkpt>
      <trkpt lat="43.58628" lon="1.31551">
        <ele>186.2</ele>
        <time>2025-12-19T08:14:12Z</time>
      </trkpt>
      <trkpt lat="43.58627" lon="1.31543">
        <ele>186.2</ele>
        <time>2025-12-19T08:14:13Z</time>
      </trkpt>
      <trkpt lat="43.58626" lon="1.31536">
        <ele>186.2</ele>
        <time>2025-12-19T08:14:14Z</time>
      </trkpt>
      <trkpt lat="43.58625" lon="1.31528">
        <ele>186.2</ele>
        <time>2025-12-19T08:14:15Z</time>
      </trkpt>
      <trkpt lat="43.58625" lon="1.31521">
        <ele>186.2</ele>
        <time>2025-12-19T08:14:16Z</time>
      </trkpt>
      <trkpt lat="43.58624" lon="1.31513">
        <ele>186.2</ele>
        <time>2025-12-19T08:14:17Z</time>
      </trkpt>
      <trkpt lat="43.58624" lon="1.31506">
        <ele>186.2</ele>
        <time>2025-12-19T08:14:18Z</time>
      </trkpt>
      <trkpt lat="43.58623" lon="1.31498">
        <ele>186.4</ele>
        <time>2025-12-19T08:14:19Z</time>
      </trkpt>
      <trkpt lat="43.58623" lon="1.3149">
        <ele>186.4</ele>
        <time>2025-12-19T08:14:20Z</time>
      </trkpt>
      <trkpt lat="43.58622" lon="1.31483">
        <ele>186.4</ele>
        <time>2025-12-19T08:14:21Z</time>
      </trkpt>
      <trkpt lat="43.58621" lon="1.31475">
        <ele>186.6</ele>
        <time>2025-12-19T08:14:22Z</time>
      </trkpt>
      <trkpt lat="43.5862" lon="1.31467">
        <ele>186.6</ele>
        <time>2025-12-19T08:14:23Z</time>
      </trkpt>
      <trkpt lat="43.58619" lon="1.3146">
        <ele>186.4</ele>
        <time>2025-12-19T08:14:24Z</time>
      </trkpt>
      <trkpt lat="43.58619" lon="1.31452">
        <ele>186.6</ele>
        <time>2025-12-19T08:14:25Z</time>
      </trkpt>
      <trkpt lat="43.58618" lon="1.31446">
        <ele>186.6</ele>
        <time>2025-12-19T08:14:26Z</time>
      </trkpt>
      <trkpt lat="43.58617" lon="1.31438">
        <ele>186.6</ele>
        <time>2025-12-19T08:14:27Z</time>
      </trkpt>
      <trkpt lat="43.58616" lon="1.3143">
        <ele>186.6</ele>
        <time>2025-12-19T08:14:28Z</time>
      </trkpt>
      <trkpt lat="43.58615" lon="1.31422">
        <ele>186.6</ele>
        <time>2025-12-19T08:14:29Z</time>
      </trkpt>
      <trkpt lat="43.58615" lon="1.31415">
        <ele>186.6</ele>
        <time>2025-12-19T08:14:30Z</time>
      </trkpt>
      <trkpt lat="43.58614" lon="1.31407">
        <ele>186.6</ele>
        <time>2025-12-19T08:14:31Z</time>
      </trkpt>
      <trkpt lat="43.58612" lon="1.314">
        <ele>186.6</ele>
        <time>2025-12-19T08:14:32Z</time>
      </trkpt>
      <trkpt lat="43.58611" lon="1.31392">
        <ele>186.8</ele>
        <time>2025-12-19T08:14:33Z</time>
      </trkpt>
      <trkpt lat="43.5861" lon="1.31384">
        <ele>186.8</ele>
        <time>2025-12-19T08:14:34Z</time>
      </trkpt>
      <trkpt lat="43.58609" lon="1.31376">
        <ele>186.8</ele>
        <time>2025-12-19T08:14:35Z</time>
      </trkpt>
      <trkpt lat="43.58609" lon="1.31369">
        <ele>186.8</ele>
        <time>2025-12-19T08:14:36Z</time>
      </trkpt>
      <trkpt lat="43.58608" lon="1.3136">
        <ele>186.8</ele>
        <time>2025-12-19T08:14:37Z</time>
      </trkpt>
      <trkpt lat="43.58608" lon="1.31352">
        <ele>186.8</ele>
        <time>2025-12-19T08:14:38Z</time>
      </trkpt>
      <trkpt lat="43.58607" lon="1.31344">
        <ele>186.8</ele>
        <time>2025-12-19T08:14:39Z</time>
      </trkpt>
      <trkpt lat="43.58607" lon="1.31337">
        <ele>186.8</ele>
        <time>2025-12-19T08:14:40Z</time>
      </trkpt>
      <trkpt lat="43.58607" lon="1.31329">
        <ele>186.8</ele>
        <time>2025-12-19T08:14:41Z</time>
      </trkpt>
      <trkpt lat="43.58607" lon="1.31321">
        <ele>186.8</ele>
        <time>2025-12-19T08:14:42Z</time>
      </trkpt>
      <trkpt lat="43.58607" lon="1.31312">
        <ele>186.8</ele>
        <time>2025-12-19T08:14:43Z</time>
      </trkpt>
      <trkpt lat="43.58608" lon="1.31305">
        <ele>186.8</ele>
        <time>2025-12-19T08:14:44Z</time>
      </trkpt>
      <trkpt lat="43.58608" lon="1.31297">
        <ele>186.8</ele>
        <time>2025-12-19T08:14:45Z</time>
      </trkpt>
      <trkpt lat="43.58608" lon="1.31289">
        <ele>186.8</ele>
        <time>2025-12-19T08:14:46Z</time>
      </trkpt>
      <trkpt lat="43.58608" lon="1.31282">
        <ele>186.6</ele>
        <time>2025-12-19T08:14:47Z</time>
      </trkpt>
      <trkpt lat="43.58608" lon="1.31274">
        <ele>186.6</ele>
        <time>2025-12-19T08:14:48Z</time>
      </trkpt>
      <trkpt lat="43.58607" lon="1.31266">
        <ele>186.6</ele>
        <time>2025-12-19T08:14:49Z</time>
      </trkpt>
      <trkpt lat="43.58607" lon="1.31258">
        <ele>186.6</ele>
        <time>2025-12-19T08:14:50Z</time>
      </trkpt>
      <trkpt lat="43.58605" lon="1.3125">
        <ele>186.6</ele>
        <time>2025-12-19T08:14:51Z</time>
      </trkpt>
      <trkpt lat="43.58603" lon="1.31242">
        <ele>186.4</ele>
        <time>2025-12-19T08:14:52Z</time>
      </trkpt>
      <trkpt lat="43.58601" lon="1.31234">
        <ele>186.4</ele>
        <time>2025-12-19T08:14:53Z</time>
      </trkpt>
      <trkpt lat="43.58599" lon="1.31226">
        <ele>186.2</ele>
        <time>2025-12-19T08:14:54Z</time>
      </trkpt>
      <trkpt lat="43.58597" lon="1.31218">
        <ele>186.2</ele>
        <time>2025-12-19T08:14:55Z</time>
      </trkpt>
      <trkpt lat="43.58594" lon="1.31211">
        <ele>186</ele>
        <time>2025-12-19T08:14:56Z</time>
      </trkpt>
      <trkpt lat="43.5859" lon="1.31204">
        <ele>186</ele>
        <time>2025-12-19T08:14:57Z</time>
      </trkpt>
      <trkpt lat="43.58587" lon="1.31197">
        <ele>186</ele>
        <time>2025-12-19T08:14:58Z</time>
      </trkpt>
      <trkpt lat="43.58584" lon="1.31191">
        <ele>185.8</ele>
        <time>2025-12-19T08:14:59Z</time>
      </trkpt>
      <trkpt lat="43.58581" lon="1.31185">
        <ele>185.8</ele>
        <time>2025-12-19T08:15:00Z</time>
      </trkpt>
      <trkpt lat="43.58577" lon="1.31179">
        <ele>185.8</ele>
        <time>2025-12-19T08:15:01Z</time>
      </trkpt>
      <trkpt lat="43.58574" lon="1.31173">
        <ele>185.8</ele>
        <time>2025-12-19T08:15:02Z</time>
      </trkpt>
      <trkpt lat="43.58572" lon="1.31168">
        <ele>185.8</ele>
        <time>2025-12-19T08:15:03Z</time>
      </trkpt>
      <trkpt lat="43.5857" lon="1.31164">
        <ele>185.8</ele>
        <time>2025-12-19T08:15:04Z</time>
      </trkpt>
      <trkpt lat="43.58568" lon="1.31161">
        <ele>185.8</ele>
        <time>2025-12-19T08:15:05Z</time>
      </trkpt>
      <trkpt lat="43.58567" lon="1.31159">
        <ele>186</ele>
        <time>2025-12-19T08:15:06Z</time>
      </trkpt>
      <trkpt lat="43.58567" lon="1.31157">
        <ele>186</ele>
        <time>2025-12-19T08:15:07Z</time>
      </trkpt>
      <trkpt lat="43.58566" lon="1.31156">
        <ele>186.2</ele>
        <time>2025-12-19T08:15:08Z</time>
      </trkpt>
      <trkpt lat="43.58564" lon="1.31156">
        <ele>186.2</ele>
        <time>2025-12-19T08:15:09Z</time>
      </trkpt>
      <trkpt lat="43.58562" lon="1.31157">
        <ele>186.2</ele>
        <time>2025-12-19T08:15:10Z</time>
      </trkpt>
      <trkpt lat="43.58559" lon="1.3116">
        <ele>186.2</ele>
        <time>2025-12-19T08:15:11Z</time>
      </trkpt>
      <trkpt lat="43.58555" lon="1.3116">
        <ele>186.2</ele>
        <time>2025-12-19T08:15:12Z</time>
      </trkpt>
      <trkpt lat="43.58552" lon="1.31158">
        <ele>186.2</ele>
        <time>2025-12-19T08:15:13Z</time>
      </trkpt>
      <trkpt lat="43.58549" lon="1.31153">
        <ele>186</ele>
        <time>2025-12-19T08:15:14Z</time>
      </trkpt>
      <trkpt lat="43.58547" lon="1.31148">
        <ele>186</ele>
        <time>2025-12-19T08:15:15Z</time>
      </trkpt>
      <trkpt lat="43.58545" lon="1.31143">
        <ele>186</ele>
        <time>2025-12-19T08:15:16Z</time>
      </trkpt>
      <trkpt lat="43.58542" lon="1.31136">
        <ele>185.8</ele>
        <time>2025-12-19T08:15:17Z</time>
      </trkpt>
      <trkpt lat="43.58539" lon="1.3113">
        <ele>185.8</ele>
        <time>2025-12-19T08:15:18Z</time>
      </trkpt>
      <trkpt lat="43.58537" lon="1.31124">
        <ele>185.8</ele>
        <time>2025-12-19T08:15:19Z</time>
      </trkpt>
      <trkpt lat="43.58534" lon="1.31118">
        <ele>185.8</ele>
        <time>2025-12-19T08:15:20Z</time>
      </trkpt>
      <trkpt lat="43.58532" lon="1.31112">
        <ele>186</ele>
        <time>2025-12-19T08:15:21Z</time>
      </trkpt>
      <trkpt lat="43.58529" lon="1.31106">
        <ele>186</ele>
        <time>2025-12-19T08:15:22Z</time>
      </trkpt>
      <trkpt lat="43.58526" lon="1.311">
        <ele>186.2</ele>
        <time>2025-12-19T08:15:23Z</time>
      </trkpt>
      <trkpt lat="43.58523" lon="1.31094">
        <ele>186.4</ele>
        <time>2025-12-19T08:15:24Z</time>
      </trkpt>
      <trkpt lat="43.5852" lon="1.31088">
        <ele>186.6</ele>
        <time>2025-12-19T08:15:25Z</time>
      </trkpt>
      <trkpt lat="43.58517" lon="1.31082">
        <ele>186.6</ele>
        <time>2025-12-19T08:15:26Z</time>
      </trkpt>
      <trkpt lat="43.58515" lon="1.31076">
        <ele>186.6</ele>
        <time>2025-12-19T08:15:27Z</time>
      </trkpt>
      <trkpt lat="43.58512" lon="1.3107">
        <ele>186.8</ele>
        <time>2025-12-19T08:15:28Z</time>
      </trkpt>
      <trkpt lat="43.58509" lon="1.31064">
        <ele>186.6</ele>
        <time>2025-12-19T08:15:29Z</time>
      </trkpt>
      <trkpt lat="43.58506" lon="1.31057">
        <ele>186.6</ele>
        <time>2025-12-19T08:15:30Z</time>
      </trkpt>
      <trkpt lat="43.58503" lon="1.31051">
        <ele>186.6</ele>
        <time>2025-12-19T08:15:31Z</time>
      </trkpt>
      <trkpt lat="43.585" lon="1.31044">
        <ele>186.6</ele>
        <time>2025-12-19T08:15:32Z</time>
      </trkpt>
      <trkpt lat="43.58496" lon="1.31038">
        <ele>186.8</ele>
        <time>2025-12-19T08:15:33Z</time>
      </trkpt>
      <trkpt lat="43.58493" lon="1.31032">
        <ele>186.8</ele>
        <time>2025-12-19T08:15:34Z</time>
      </trkpt>
      <trkpt lat="43.5849" lon="1.31025">
        <ele>186.8</ele>
        <time>2025-12-19T08:15:35Z</time>
      </trkpt>
      <trkpt lat="43.58487" lon="1.31019">
        <ele>187</ele>
        <time>2025-12-19T08:15:36Z</time>
      </trkpt>
      <trkpt lat="43.58484" lon="1.31013">
        <ele>187</ele>
        <time>2025-12-19T08:15:37Z</time>
      </trkpt>
      <trkpt lat="43.5848" lon="1.31006">
        <ele>187.2</ele>
        <time>2025-12-19T08:15:38Z</time>
      </trkpt>
      <trkpt lat="43.58477" lon="1.31">
        <ele>187.2</ele>
        <time>2025-12-19T08:15:39Z</time>
      </trkpt>
      <trkpt lat="43.58473" lon="1.30994">
        <ele>187.2</ele>
        <time>2025-12-19T08:15:40Z</time>
      </trkpt>
      <trkpt lat="43.5847" lon="1.30988">
        <ele>187.2</ele>
        <time>2025-12-19T08:15:41Z</time>
      </trkpt>
      <trkpt lat="43.58466" lon="1.30982">
        <ele>187.4</ele>
        <time>2025-12-19T08:15:42Z</time>
      </trkpt>
      <trkpt lat="43.58463" lon="1.30976">
        <ele>187.4</ele>
        <time>2025-12-19T08:15:43Z</time>
      </trkpt>
      <trkpt lat="43.58459" lon="1.30969">
        <ele>187.4</ele>
        <time>2025-12-19T08:15:44Z</time>
      </trkpt>
      <trkpt lat="43.58456" lon="1.30963">
        <ele>187.4</ele>
        <time>2025-12-19T08:15:45Z</time>
      </trkpt>
      <trkpt lat="43.58452" lon="1.30957">
        <ele>187.4</ele>
        <time>2025-12-19T08:15:46Z</time>
      </trkpt>
      <trkpt lat="43.58448" lon="1.3095">
        <ele>187.4</ele>
        <time>2025-12-19T08:15:47Z</time>
      </trkpt>
      <trkpt lat="43.58444" lon="1.30944">
        <ele>187.6</ele>
        <time>2025-12-19T08:15:48Z</time>
      </trkpt>
      <trkpt lat="43.5844" lon="1.30937">
        <ele>187.6</ele>
        <time>2025-12-19T08:15:49Z</time>
      </trkpt>
      <trkpt lat="43.58437" lon="1.30931">
        <ele>187.6</ele>
        <time>2025-12-19T08:15:50Z</time>
      </trkpt>
      <trkpt lat="43.58433" lon="1.30924">
        <ele>187.6</ele>
        <time>2025-12-19T08:15:51Z</time>
      </trkpt>
      <trkpt lat="43.58429" lon="1.30918">
        <ele>187.6</ele>
        <time>2025-12-19T08:15:52Z</time>
      </trkpt>
      <trkpt lat="43.58425" lon="1.30911">
        <ele>187.6</ele>
        <time>2025-12-19T08:15:53Z</time>
      </trkpt>
      <trkpt lat="43.58421" lon="1.30904">
        <ele>187.6</ele>
        <time>2025-12-19T08:15:54Z</time>
      </trkpt>
      <trkpt lat="43.58417" lon="1.30897">
        <ele>187.6</ele>
        <time>2025-12-19T08:15:55Z</time>
      </trkpt>
      <trkpt lat="43.58413" lon="1.30891">
        <ele>187.6</ele>
        <time>2025-12-19T08:15:56Z</time>
      </trkpt>
      <trkpt lat="43.5841" lon="1.30884">
        <ele>187.6</ele>
        <time>2025-12-19T08:15:57Z</time>
      </trkpt>
      <trkpt lat="43.58406" lon="1.30877">
        <ele>187.6</ele>
        <time>2025-12-19T08:15:58Z</time>
      </trkpt>
      <trkpt lat="43.58402" lon="1.3087">
        <ele>187.6</ele>
        <time>2025-12-19T08:15:59Z</time>
      </trkpt>
      <trkpt lat="43.58398" lon="1.30863">
        <ele>187.4</ele>
        <time>2025-12-19T08:16:00Z</time>
      </trkpt>
      <trkpt lat="43.58394" lon="1.30857">
        <ele>187.4</ele>
        <time>2025-12-19T08:16:01Z</time>
      </trkpt>
      <trkpt lat="43.58391" lon="1.3085">
        <ele>187.4</ele>
        <time>2025-12-19T08:16:02Z</time>
      </trkpt>
      <trkpt lat="43.58387" lon="1.30843">
        <ele>187.4</ele>
        <time>2025-12-19T08:16:03Z</time>
      </trkpt>
      <trkpt lat="43.58383" lon="1.30836">
        <ele>187.6</ele>
        <time>2025-12-19T08:16:04Z</time>
      </trkpt>
      <trkpt lat="43.5838" lon="1.30829">
        <ele>187.4</ele>
        <time>2025-12-19T08:16:05Z</time>
      </trkpt>
      <trkpt lat="43.58376" lon="1.30822">
        <ele>187.6</ele>
        <time>2025-12-19T08:16:06Z</time>
      </trkpt>
      <trkpt lat="43.58372" lon="1.30815">
        <ele>187.6</ele>
        <time>2025-12-19T08:16:07Z</time>
      </trkpt>
      <trkpt lat="43.58369" lon="1.30808">
        <ele>187.6</ele>
        <time>2025-12-19T08:16:08Z</time>
      </trkpt>
      <trkpt lat="43.58366" lon="1.30801">
        <ele>187.4</ele>
        <time>2025-12-19T08:16:09Z</time>
      </trkpt>
      <trkpt lat="43.58362" lon="1.30793">
        <ele>187.6</ele>
        <time>2025-12-19T08:16:10Z</time>
      </trkpt>
      <trkpt lat="43.58359" lon="1.30786">
        <ele>187.6</ele>
        <time>2025-12-19T08:16:11Z</time>
      </trkpt>
      <trkpt lat="43.58357" lon="1.30779">
        <ele>187.6</ele>
        <time>2025-12-19T08:16:12Z</time>
      </trkpt>
      <trkpt lat="43.58354" lon="1.30772">
        <ele>187.6</ele>
        <time>2025-12-19T08:16:13Z</time>
      </trkpt>
      <trkpt lat="43.58351" lon="1.30765">
        <ele>187.6</ele>
        <time>2025-12-19T08:16:14Z</time>
      </trkpt>
      <trkpt lat="43.58349" lon="1.30758">
        <ele>187.8</ele>
        <time>2025-12-19T08:16:15Z</time>
      </trkpt>
      <trkpt lat="43.58347" lon="1.30752">
        <ele>187.8</ele>
        <time>2025-12-19T08:16:16Z</time>
      </trkpt>
      <trkpt lat="43.58345" lon="1.30747">
        <ele>187.8</ele>
        <time>2025-12-19T08:16:17Z</time>
      </trkpt>
      <trkpt lat="43.58342" lon="1.3074">
        <ele>187.8</ele>
        <time>2025-12-19T08:16:18Z</time>
      </trkpt>
      <trkpt lat="43.5834" lon="1.30734">
        <ele>187.8</ele>
        <time>2025-12-19T08:16:19Z</time>
      </trkpt>
      <trkpt lat="43.58337" lon="1.30728">
        <ele>187.8</ele>
        <time>2025-12-19T08:16:20Z</time>
      </trkpt>
      <trkpt lat="43.58335" lon="1.30721">
        <ele>187.8</ele>
        <time>2025-12-19T08:16:21Z</time>
      </trkpt>
      <trkpt lat="43.58332" lon="1.30714">
        <ele>187.8</ele>
        <time>2025-12-19T08:16:22Z</time>
      </trkpt>
      <trkpt lat="43.58329" lon="1.30707">
        <ele>187.8</ele>
        <time>2025-12-19T08:16:23Z</time>
      </trkpt>
      <trkpt lat="43.58327" lon="1.30699">
        <ele>187.8</ele>
        <time>2025-12-19T08:16:24Z</time>
      </trkpt>
      <trkpt lat="43.58324" lon="1.30692">
        <ele>187.8</ele>
        <time>2025-12-19T08:16:25Z</time>
      </trkpt>
      <trkpt lat="43.58322" lon="1.30685">
        <ele>187.8</ele>
        <time>2025-12-19T08:16:26Z</time>
      </trkpt>
      <trkpt lat="43.5832" lon="1.30677">
        <ele>187.8</ele>
        <time>2025-12-19T08:16:27Z</time>
      </trkpt>
      <trkpt lat="43.58318" lon="1.3067">
        <ele>187.8</ele>
        <time>2025-12-19T08:16:28Z</time>
      </trkpt>
      <trkpt lat="43.58315" lon="1.30662">
        <ele>187.8</ele>
        <time>2025-12-19T08:16:29Z</time>
      </trkpt>
      <trkpt lat="43.58312" lon="1.30655">
        <ele>187.8</ele>
        <time>2025-12-19T08:16:30Z</time>
      </trkpt>
      <trkpt lat="43.58309" lon="1.30648">
        <ele>187.6</ele>
        <time>2025-12-19T08:16:31Z</time>
      </trkpt>
      <trkpt lat="43.58306" lon="1.3064">
        <ele>187.6</ele>
        <time>2025-12-19T08:16:32Z</time>
      </trkpt>
      <trkpt lat="43.58304" lon="1.30633">
        <ele>187.6</ele>
        <time>2025-12-19T08:16:33Z</time>
      </trkpt>
      <trkpt lat="43.58301" lon="1.30625">
        <ele>187.6</ele>
        <time>2025-12-19T08:16:34Z</time>
      </trkpt>
      <trkpt lat="43.58298" lon="1.30618">
        <ele>187.6</ele>
        <time>2025-12-19T08:16:35Z</time>
      </trkpt>
      <trkpt lat="43.58295" lon="1.30611">
        <ele>187.6</ele>
        <time>2025-12-19T08:16:36Z</time>
      </trkpt>
      <trkpt lat="43.58292" lon="1.30604">
        <ele>187.8</ele>
        <time>2025-12-19T08:16:37Z</time>
      </trkpt>
      <trkpt lat="43.58289" lon="1.30597">
        <ele>187.8</ele>
        <time>2025-12-19T08:16:38Z</time>
      </trkpt>
      <trkpt lat="43.58285" lon="1.3059">
        <ele>187.8</ele>
        <time>2025-12-19T08:16:39Z</time>
      </trkpt>
      <trkpt lat="43.58281" lon="1.30584">
        <ele>187.8</ele>
        <time>2025-12-19T08:16:40Z</time>
      </trkpt>
      <trkpt lat="43.58278" lon="1.30577">
        <ele>187.8</ele>
        <time>2025-12-19T08:16:41Z</time>
      </trkpt>
      <trkpt lat="43.58274" lon="1.3057">
        <ele>187.8</ele>
        <time>2025-12-19T08:16:42Z</time>
      </trkpt>
      <trkpt lat="43.58271" lon="1.30564">
        <ele>187.8</ele>
        <time>2025-12-19T08:16:43Z</time>
      </trkpt>
      <trkpt lat="43.58267" lon="1.30557">
        <ele>187.8</ele>
        <time>2025-12-19T08:16:44Z</time>
      </trkpt>
      <trkpt lat="43.58263" lon="1.30549">
        <ele>188</ele>
        <time>2025-12-19T08:16:45Z</time>
      </trkpt>
      <trkpt lat="43.5826" lon="1.30542">
        <ele>188</ele>
        <time>2025-12-19T08:16:46Z</time>
      </trkpt>
      <trkpt lat="43.58257" lon="1.30536">
        <ele>188</ele>
        <time>2025-12-19T08:16:47Z</time>
      </trkpt>
      <trkpt lat="43.58253" lon="1.30529">
        <ele>188</ele>
        <time>2025-12-19T08:16:48Z</time>
      </trkpt>
      <trkpt lat="43.5825" lon="1.30522">
        <ele>188</ele>
        <time>2025-12-19T08:16:49Z</time>
      </trkpt>
      <trkpt lat="43.58246" lon="1.30516">
        <ele>188</ele>
        <time>2025-12-19T08:16:50Z</time>
      </trkpt>
      <trkpt lat="43.58242" lon="1.3051">
        <ele>188</ele>
        <time>2025-12-19T08:16:51Z</time>
      </trkpt>
      <trkpt lat="43.58238" lon="1.30503">
        <ele>188</ele>
        <time>2025-12-19T08:16:52Z</time>
      </trkpt>
      <trkpt lat="43.58235" lon="1.30496">
        <ele>188</ele>
        <time>2025-12-19T08:16:53Z</time>
      </trkpt>
      <trkpt lat="43.58231" lon="1.30489">
        <ele>187.8</ele>
        <time>2025-12-19T08:16:54Z</time>
      </trkpt>
      <trkpt lat="43.58227" lon="1.30483">
        <ele>188</ele>
        <time>2025-12-19T08:16:55Z</time>
      </trkpt>
      <trkpt lat="43.58224" lon="1.30476">
        <ele>188</ele>
        <time>2025-12-19T08:16:56Z</time>
      </trkpt>
      <trkpt lat="43.5822" lon="1.30469">
        <ele>188</ele>
        <time>2025-12-19T08:16:57Z</time>
      </trkpt>
      <trkpt lat="43.58217" lon="1.30463">
        <ele>188</ele>
        <time>2025-12-19T08:16:58Z</time>
      </trkpt>
      <trkpt lat="43.58213" lon="1.30456">
        <ele>188.2</ele>
        <time>2025-12-19T08:16:59Z</time>
      </trkpt>
      <trkpt lat="43.5821" lon="1.30449">
        <ele>188.2</ele>
        <time>2025-12-19T08:17:00Z</time>
      </trkpt>
      <trkpt lat="43.58206" lon="1.30442">
        <ele>188</ele>
        <time>2025-12-19T08:17:01Z</time>
      </trkpt>
      <trkpt lat="43.58202" lon="1.30436">
        <ele>188</ele>
        <time>2025-12-19T08:17:02Z</time>
      </trkpt>
      <trkpt lat="43.58198" lon="1.30429">
        <ele>188</ele>
        <time>2025-12-19T08:17:03Z</time>
      </trkpt>
      <trkpt lat="43.58195" lon="1.30422">
        <ele>187.8</ele>
        <time>2025-12-19T08:17:04Z</time>
      </trkpt>
      <trkpt lat="43.58191" lon="1.30415">
        <ele>187.8</ele>
        <time>2025-12-19T08:17:05Z</time>
      </trkpt>
      <trkpt lat="43.58188" lon="1.30408">
        <ele>187.8</ele>
        <time>2025-12-19T08:17:06Z</time>
      </trkpt>
      <trkpt lat="43.58184" lon="1.30401">
        <ele>188</ele>
        <time>2025-12-19T08:17:07Z</time>
      </trkpt>
      <trkpt lat="43.58181" lon="1.30393">
        <ele>188</ele>
        <time>2025-12-19T08:17:08Z</time>
      </trkpt>
      <trkpt lat="43.58178" lon="1.30386">
        <ele>188</ele>
        <time>2025-12-19T08:17:09Z</time>
      </trkpt>
      <trkpt lat="43.58175" lon="1.30379">
        <ele>188</ele>
        <time>2025-12-19T08:17:10Z</time>
      </trkpt>
      <trkpt lat="43.58172" lon="1.30371">
        <ele>188</ele>
        <time>2025-12-19T08:17:11Z</time>
      </trkpt>
      <trkpt lat="43.5817" lon="1.30364">
        <ele>188</ele>
        <time>2025-12-19T08:17:12Z</time>
      </trkpt>
      <trkpt lat="43.58168" lon="1.30356">
        <ele>188</ele>
        <time>2025-12-19T08:17:13Z</time>
      </trkpt>
      <trkpt lat="43.58166" lon="1.30348">
        <ele>188</ele>
        <time>2025-12-19T08:17:14Z</time>
      </trkpt>
      <trkpt lat="43.58164" lon="1.3034">
        <ele>188</ele>
        <time>2025-12-19T08:17:15Z</time>
      </trkpt>
      <trkpt lat="43.58162" lon="1.30332">
        <ele>188</ele>
        <time>2025-12-19T08:17:16Z</time>
      </trkpt>
      <trkpt lat="43.58161" lon="1.30323">
        <ele>188</ele>
        <time>2025-12-19T08:17:17Z</time>
      </trkpt>
      <trkpt lat="43.5816" lon="1.30316">
        <ele>188</ele>
        <time>2025-12-19T08:17:18Z</time>
      </trkpt>
      <trkpt lat="43.58158" lon="1.30309">
        <ele>188</ele>
        <time>2025-12-19T08:17:19Z</time>
      </trkpt>
      <trkpt lat="43.58155" lon="1.30303">
        <ele>188</ele>
        <time>2025-12-19T08:17:20Z</time>
      </trkpt>
      <trkpt lat="43.58152" lon="1.30297">
        <ele>188.2</ele>
        <time>2025-12-19T08:17:21Z</time>
      </trkpt>
      <trkpt lat="43.58149" lon="1.3029">
        <ele>188.2</ele>
        <time>2025-12-19T08:17:22Z</time>
      </trkpt>
      <trkpt lat="43.58146" lon="1.30285">
        <ele>188.2</ele>
        <time>2025-12-19T08:17:23Z</time>
      </trkpt>
      <trkpt lat="43.58144" lon="1.30278">
        <ele>188.4</ele>
        <time>2025-12-19T08:17:24Z</time>
      </trkpt>
      <trkpt lat="43.58141" lon="1.30272">
        <ele>188.4</ele>
        <time>2025-12-19T08:17:25Z</time>
      </trkpt>
      <trkpt lat="43.58138" lon="1.30265">
        <ele>188.4</ele>
        <time>2025-12-19T08:17:26Z</time>
      </trkpt>
      <trkpt lat="43.58135" lon="1.30261">
        <ele>188.4</ele>
        <time>2025-12-19T08:17:27Z</time>
      </trkpt>
      <trkpt lat="43.5813" lon="1.30259">
        <ele>188.4</ele>
        <time>2025-12-19T08:17:28Z</time>
      </trkpt>
      <trkpt lat="43.58127" lon="1.30258">
        <ele>188.4</ele>
        <time>2025-12-19T08:17:29Z</time>
      </trkpt>
      <trkpt lat="43.58124" lon="1.30255">
        <ele>188.6</ele>
        <time>2025-12-19T08:17:30Z</time>
      </trkpt>
      <trkpt lat="43.58124" lon="1.3025">
        <ele>188.8</ele>
        <time>2025-12-19T08:17:31Z</time>
      </trkpt>
      <trkpt lat="43.58126" lon="1.30247">
        <ele>188.8</ele>
        <time>2025-12-19T08:17:32Z</time>
      </trkpt>
      <trkpt lat="43.58128" lon="1.30243">
        <ele>188.8</ele>
        <time>2025-12-19T08:17:33Z</time>
      </trkpt>
      <trkpt lat="43.58129" lon="1.30238">
        <ele>188.8</ele>
        <time>2025-12-19T08:17:34Z</time>
      </trkpt>
      <trkpt lat="43.5813" lon="1.30233">
        <ele>188.8</ele>
        <time>2025-12-19T08:17:35Z</time>
      </trkpt>
      <trkpt lat="43.58129" lon="1.30226">
        <ele>188.8</ele>
        <time>2025-12-19T08:17:36Z</time>
      </trkpt>
      <trkpt lat="43.58127" lon="1.30219">
        <ele>188.8</ele>
        <time>2025-12-19T08:17:37Z</time>
      </trkpt>
      <trkpt lat="43.58126" lon="1.30213">
        <ele>188.8</ele>
        <time>2025-12-19T08:17:38Z</time>
      </trkpt>
      <trkpt lat="43.58125" lon="1.30206">
        <ele>188.8</ele>
        <time>2025-12-19T08:17:39Z</time>
      </trkpt>
      <trkpt lat="43.58125" lon="1.30199">
        <ele>188.8</ele>
        <time>2025-12-19T08:17:40Z</time>
      </trkpt>
      <trkpt lat="43.58125" lon="1.30191">
        <ele>188.6</ele>
        <time>2025-12-19T08:17:41Z</time>
      </trkpt>
      <trkpt lat="43.58125" lon="1.30184">
        <ele>188.6</ele>
        <time>2025-12-19T08:17:42Z</time>
      </trkpt>
      <trkpt lat="43.58124" lon="1.30177">
        <ele>188.8</ele>
        <time>2025-12-19T08:17:43Z</time>
      </trkpt>
      <trkpt lat="43.58123" lon="1.3017">
        <ele>188.8</ele>
        <time>2025-12-19T08:17:44Z</time>
      </trkpt>
      <trkpt lat="43.58123" lon="1.30162">
        <ele>188.8</ele>
        <time>2025-12-19T08:17:45Z</time>
      </trkpt>
      <trkpt lat="43.58122" lon="1.30155">
        <ele>188.8</ele>
        <time>2025-12-19T08:17:46Z</time>
      </trkpt>
      <trkpt lat="43.58122" lon="1.30147">
        <ele>188.8</ele>
        <time>2025-12-19T08:17:47Z</time>
      </trkpt>
      <trkpt lat="43.58121" lon="1.3014">
        <ele>188.8</ele>
        <time>2025-12-19T08:17:48Z</time>
      </trkpt>
      <trkpt lat="43.58121" lon="1.30132">
        <ele>188.8</ele>
        <time>2025-12-19T08:17:49Z</time>
      </trkpt>
      <trkpt lat="43.58122" lon="1.30124">
        <ele>188.8</ele>
        <time>2025-12-19T08:17:50Z</time>
      </trkpt>
      <trkpt lat="43.58122" lon="1.30117">
        <ele>188.8</ele>
        <time>2025-12-19T08:17:51Z</time>
      </trkpt>
      <trkpt lat="43.58123" lon="1.30109">
        <ele>188.8</ele>
        <time>2025-12-19T08:17:52Z</time>
      </trkpt>
      <trkpt lat="43.58124" lon="1.30101">
        <ele>188.8</ele>
        <time>2025-12-19T08:17:53Z</time>
      </trkpt>
      <trkpt lat="43.58125" lon="1.30093">
        <ele>188.8</ele>
        <time>2025-12-19T08:17:54Z</time>
      </trkpt>
      <trkpt lat="43.58126" lon="1.30085">
        <ele>188.8</ele>
        <time>2025-12-19T08:17:55Z</time>
      </trkpt>
      <trkpt lat="43.58127" lon="1.30078">
        <ele>188.8</ele>
        <time>2025-12-19T08:17:56Z</time>
      </trkpt>
      <trkpt lat="43.58127" lon="1.3007">
        <ele>188.8</ele>
        <time>2025-12-19T08:17:57Z</time>
      </trkpt>
      <trkpt lat="43.58128" lon="1.30062">
        <ele>188.6</ele>
        <time>2025-12-19T08:17:58Z</time>
      </trkpt>
      <trkpt lat="43.58129" lon="1.30054">
        <ele>188.6</ele>
        <time>2025-12-19T08:17:59Z</time>
      </trkpt>
      <trkpt lat="43.5813" lon="1.30046">
        <ele>188.6</ele>
        <time>2025-12-19T08:18:00Z</time>
      </trkpt>
      <trkpt lat="43.58131" lon="1.30038">
        <ele>188.6</ele>
        <time>2025-12-19T08:18:01Z</time>
      </trkpt>
      <trkpt lat="43.58132" lon="1.3003">
        <ele>188.6</ele>
        <time>2025-12-19T08:18:02Z</time>
      </trkpt>
      <trkpt lat="43.58133" lon="1.30022">
        <ele>188.4</ele>
        <time>2025-12-19T08:18:03Z</time>
      </trkpt>
      <trkpt lat="43.58133" lon="1.30014">
        <ele>188.4</ele>
        <time>2025-12-19T08:18:04Z</time>
      </trkpt>
      <trkpt lat="43.58134" lon="1.30006">
        <ele>188.4</ele>
        <time>2025-12-19T08:18:05Z</time>
      </trkpt>
      <trkpt lat="43.58134" lon="1.29998">
        <ele>188.4</ele>
        <time>2025-12-19T08:18:06Z</time>
      </trkpt>
      <trkpt lat="43.58134" lon="1.2999">
        <ele>188.4</ele>
        <time>2025-12-19T08:18:07Z</time>
      </trkpt>
      <trkpt lat="43.58135" lon="1.29982">
        <ele>188.4</ele>
        <time>2025-12-19T08:18:08Z</time>
      </trkpt>
      <trkpt lat="43.58135" lon="1.29974">
        <ele>188.6</ele>
        <time>2025-12-19T08:18:09Z</time>
      </trkpt>
      <trkpt lat="43.58136" lon="1.29967">
        <ele>188.6</ele>
        <time>2025-12-19T08:18:10Z</time>
      </trkpt>
      <trkpt lat="43.58136" lon="1.29959">
        <ele>188.6</ele>
        <time>2025-12-19T08:18:11Z</time>
      </trkpt>
      <trkpt lat="43.58136" lon="1.29953">
        <ele>188.6</ele>
        <time>2025-12-19T08:18:12Z</time>
      </trkpt>
      <trkpt lat="43.58137" lon="1.29945">
        <ele>188.6</ele>
        <time>2025-12-19T08:18:13Z</time>
      </trkpt>
      <trkpt lat="43.58137" lon="1.29938">
        <ele>188.6</ele>
        <time>2025-12-19T08:18:14Z</time>
      </trkpt>
      <trkpt lat="43.58137" lon="1.2993">
        <ele>188.6</ele>
        <time>2025-12-19T08:18:15Z</time>
      </trkpt>
      <trkpt lat="43.58137" lon="1.29923">
        <ele>188.6</ele>
        <time>2025-12-19T08:18:16Z</time>
      </trkpt>
      <trkpt lat="43.58138" lon="1.29915">
        <ele>188.4</ele>
        <time>2025-12-19T08:18:17Z</time>
      </trkpt>
      <trkpt lat="43.58138" lon="1.29907">
        <ele>188.4</ele>
        <time>2025-12-19T08:18:18Z</time>
      </trkpt>
      <trkpt lat="43.58139" lon="1.29899">
        <ele>188.2</ele>
        <time>2025-12-19T08:18:19Z</time>
      </trkpt>
      <trkpt lat="43.58139" lon="1.2989">
        <ele>188.2</ele>
        <time>2025-12-19T08:18:20Z</time>
      </trkpt>
      <trkpt lat="43.5814" lon="1.29882">
        <ele>188.2</ele>
        <time>2025-12-19T08:18:21Z</time>
      </trkpt>
      <trkpt lat="43.5814" lon="1.29873">
        <ele>188</ele>
        <time>2025-12-19T08:18:22Z</time>
      </trkpt>
      <trkpt lat="43.5814" lon="1.29864">
        <ele>188</ele>
        <time>2025-12-19T08:18:23Z</time>
      </trkpt>
      <trkpt lat="43.5814" lon="1.29857">
        <ele>188</ele>
        <time>2025-12-19T08:18:24Z</time>
      </trkpt>
      <trkpt lat="43.58141" lon="1.29849">
        <ele>187.8</ele>
        <time>2025-12-19T08:18:25Z</time>
      </trkpt>
      <trkpt lat="43.58141" lon="1.29841">
        <ele>187.8</ele>
        <time>2025-12-19T08:18:26Z</time>
      </trkpt>
      <trkpt lat="43.58141" lon="1.29833">
        <ele>187.8</ele>
        <time>2025-12-19T08:18:27Z</time>
      </trkpt>
      <trkpt lat="43.58141" lon="1.29825">
        <ele>187.8</ele>
        <time>2025-12-19T08:18:28Z</time>
      </trkpt>
      <trkpt lat="43.58141" lon="1.29817">
        <ele>187.6</ele>
        <time>2025-12-19T08:18:29Z</time>
      </trkpt>
      <trkpt lat="43.58141" lon="1.29809">
        <ele>187.8</ele>
        <time>2025-12-19T08:18:30Z</time>
      </trkpt>
      <trkpt lat="43.58141" lon="1.29801">
        <ele>187.8</ele>
        <time>2025-12-19T08:18:31Z</time>
      </trkpt>
      <trkpt lat="43.58141" lon="1.29793">
        <ele>187.8</ele>
        <time>2025-12-19T08:18:32Z</time>
      </trkpt>
      <trkpt lat="43.58141" lon="1.29785">
        <ele>187.8</ele>
        <time>2025-12-19T08:18:33Z</time>
      </trkpt>
      <trkpt lat="43.58141" lon="1.29778">
        <ele>187.8</ele>
        <time>2025-12-19T08:18:34Z</time>
      </trkpt>
      <trkpt lat="43.5814" lon="1.29771">
        <ele>187.8</ele>
        <time>2025-12-19T08:18:35Z</time>
      </trkpt>
      <trkpt lat="43.58139" lon="1.29764">
        <ele>187.8</ele>
        <time>2025-12-19T08:18:36Z</time>
      </trkpt>
      <trkpt lat="43.58139" lon="1.29756">
        <ele>187.8</ele>
        <time>2025-12-19T08:18:37Z</time>
      </trkpt>
      <trkpt lat="43.58139" lon="1.29748">
        <ele>187.8</ele>
        <time>2025-12-19T08:18:38Z</time>
      </trkpt>
      <trkpt lat="43.5814" lon="1.2974">
        <ele>187.8</ele>
        <time>2025-12-19T08:18:39Z</time>
      </trkpt>
      <trkpt lat="43.5814" lon="1.29733">
        <ele>187.8</ele>
        <time>2025-12-19T08:18:40Z</time>
      </trkpt>
      <trkpt lat="43.58142" lon="1.29726">
        <ele>187.8</ele>
        <time>2025-12-19T08:18:41Z</time>
      </trkpt>
      <trkpt lat="43.58144" lon="1.29718">
        <ele>187.8</ele>
        <time>2025-12-19T08:18:42Z</time>
      </trkpt>
      <trkpt lat="43.58145" lon="1.29711">
        <ele>187.8</ele>
        <time>2025-12-19T08:18:43Z</time>
      </trkpt>
      <trkpt lat="43.58146" lon="1.29704">
        <ele>187.8</ele>
        <time>2025-12-19T08:18:44Z</time>
      </trkpt>
      <trkpt lat="43.58147" lon="1.29697">
        <ele>187.8</ele>
        <time>2025-12-19T08:18:45Z</time>
      </trkpt>
      <trkpt lat="43.58149" lon="1.2969">
        <ele>187.8</ele>
        <time>2025-12-19T08:18:46Z</time>
      </trkpt>
      <trkpt lat="43.5815" lon="1.29683">
        <ele>187.8</ele>
        <time>2025-12-19T08:18:47Z</time>
      </trkpt>
      <trkpt lat="43.58151" lon="1.29675">
        <ele>187.8</ele>
        <time>2025-12-19T08:18:48Z</time>
      </trkpt>
      <trkpt lat="43.58151" lon="1.29667">
        <ele>187.8</ele>
        <time>2025-12-19T08:18:49Z</time>
      </trkpt>
      <trkpt lat="43.58152" lon="1.29659">
        <ele>187.8</ele>
        <time>2025-12-19T08:18:50Z</time>
      </trkpt>
      <trkpt lat="43.58153" lon="1.29651">
        <ele>187.8</ele>
        <time>2025-12-19T08:18:51Z</time>
      </trkpt>
      <trkpt lat="43.58153" lon="1.29642">
        <ele>187.8</ele>
        <time>2025-12-19T08:18:52Z</time>
      </trkpt>
      <trkpt lat="43.58154" lon="1.29635">
        <ele>187.8</ele>
        <time>2025-12-19T08:18:53Z</time>
      </trkpt>
      <trkpt lat="43.58154" lon="1.29626">
        <ele>187.8</ele>
        <time>2025-12-19T08:18:54Z</time>
      </trkpt>
      <trkpt lat="43.58154" lon="1.29619">
        <ele>187.8</ele>
        <time>2025-12-19T08:18:55Z</time>
      </trkpt>
      <trkpt lat="43.58154" lon="1.29611">
        <ele>187.8</ele>
        <time>2025-12-19T08:18:56Z</time>
      </trkpt>
      <trkpt lat="43.58155" lon="1.29603">
        <ele>187.8</ele>
        <time>2025-12-19T08:18:57Z</time>
      </trkpt>
      <trkpt lat="43.58155" lon="1.29595">
        <ele>187.8</ele>
        <time>2025-12-19T08:18:58Z</time>
      </trkpt>
      <trkpt lat="43.58156" lon="1.29587">
        <ele>187.8</ele>
        <time>2025-12-19T08:18:59Z</time>
      </trkpt>
      <trkpt lat="43.58156" lon="1.29579">
        <ele>187.8</ele>
        <time>2025-12-19T08:19:00Z</time>
      </trkpt>
      <trkpt lat="43.58156" lon="1.29571">
        <ele>187.8</ele>
        <time>2025-12-19T08:19:01Z</time>
      </trkpt>
      <trkpt lat="43.58156" lon="1.29563">
        <ele>187.8</ele>
        <time>2025-12-19T08:19:02Z</time>
      </trkpt>
      <trkpt lat="43.58157" lon="1.29555">
        <ele>187.8</ele>
        <time>2025-12-19T08:19:03Z</time>
      </trkpt>
      <trkpt lat="43.58157" lon="1.29547">
        <ele>187.8</ele>
        <time>2025-12-19T08:19:04Z</time>
      </trkpt>
      <trkpt lat="43.58157" lon="1.29539">
        <ele>187.6</ele>
        <time>2025-12-19T08:19:05Z</time>
      </trkpt>
      <trkpt lat="43.58157" lon="1.29531">
        <ele>187.8</ele>
        <time>2025-12-19T08:19:06Z</time>
      </trkpt>
      <trkpt lat="43.58157" lon="1.29523">
        <ele>187.8</ele>
        <time>2025-12-19T08:19:07Z</time>
      </trkpt>
      <trkpt lat="43.58158" lon="1.29515">
        <ele>187.8</ele>
        <time>2025-12-19T08:19:08Z</time>
      </trkpt>
      <trkpt lat="43.58157" lon="1.29507">
        <ele>187.8</ele>
        <time>2025-12-19T08:19:09Z</time>
      </trkpt>
      <trkpt lat="43.58157" lon="1.29499">
        <ele>187.8</ele>
        <time>2025-12-19T08:19:10Z</time>
      </trkpt>
      <trkpt lat="43.58157" lon="1.29491">
        <ele>187.6</ele>
        <time>2025-12-19T08:19:11Z</time>
      </trkpt>
      <trkpt lat="43.58157" lon="1.29483">
        <ele>187.8</ele>
        <time>2025-12-19T08:19:12Z</time>
      </trkpt>
      <trkpt lat="43.58157" lon="1.29475">
        <ele>187.8</ele>
        <time>2025-12-19T08:19:13Z</time>
      </trkpt>
      <trkpt lat="43.58157" lon="1.29467">
        <ele>187.8</ele>
        <time>2025-12-19T08:19:14Z</time>
      </trkpt>
      <trkpt lat="43.58156" lon="1.2946">
        <ele>188</ele>
        <time>2025-12-19T08:19:15Z</time>
      </trkpt>
      <trkpt lat="43.58156" lon="1.29452">
        <ele>188</ele>
        <time>2025-12-19T08:19:16Z</time>
      </trkpt>
      <trkpt lat="43.58155" lon="1.29445">
        <ele>188</ele>
        <time>2025-12-19T08:19:17Z</time>
      </trkpt>
      <trkpt lat="43.58154" lon="1.29437">
        <ele>188</ele>
        <time>2025-12-19T08:19:18Z</time>
      </trkpt>
      <trkpt lat="43.58153" lon="1.29429">
        <ele>188</ele>
        <time>2025-12-19T08:19:19Z</time>
      </trkpt>
      <trkpt lat="43.58152" lon="1.29421">
        <ele>188.2</ele>
        <time>2025-12-19T08:19:20Z</time>
      </trkpt>
      <trkpt lat="43.58152" lon="1.29413">
        <ele>188.2</ele>
        <time>2025-12-19T08:19:21Z</time>
      </trkpt>
      <trkpt lat="43.58151" lon="1.29406">
        <ele>188.2</ele>
        <time>2025-12-19T08:19:22Z</time>
      </trkpt>
      <trkpt lat="43.5815" lon="1.29398">
        <ele>188.2</ele>
        <time>2025-12-19T08:19:23Z</time>
      </trkpt>
      <trkpt lat="43.58148" lon="1.2939">
        <ele>188.2</ele>
        <time>2025-12-19T08:19:24Z</time>
      </trkpt>
      <trkpt lat="43.58147" lon="1.29381">
        <ele>188.2</ele>
        <time>2025-12-19T08:19:25Z</time>
      </trkpt>
      <trkpt lat="43.58145" lon="1.29373">
        <ele>188.2</ele>
        <time>2025-12-19T08:19:26Z</time>
      </trkpt>
      <trkpt lat="43.58144" lon="1.29364">
        <ele>188.2</ele>
        <time>2025-12-19T08:19:27Z</time>
      </trkpt>
      <trkpt lat="43.58143" lon="1.29356">
        <ele>188</ele>
        <time>2025-12-19T08:19:28Z</time>
      </trkpt>
      <trkpt lat="43.58142" lon="1.29348">
        <ele>188</ele>
        <time>2025-12-19T08:19:29Z</time>
      </trkpt>
      <trkpt lat="43.58141" lon="1.2934">
        <ele>188</ele>
        <time>2025-12-19T08:19:30Z</time>
      </trkpt>
      <trkpt lat="43.58139" lon="1.29332">
        <ele>188</ele>
        <time>2025-12-19T08:19:31Z</time>
      </trkpt>
      <trkpt lat="43.58138" lon="1.29323">
        <ele>188</ele>
        <time>2025-12-19T08:19:32Z</time>
      </trkpt>
      <trkpt lat="43.58136" lon="1.29315">
        <ele>188</ele>
        <time>2025-12-19T08:19:33Z</time>
      </trkpt>
      <trkpt lat="43.58135" lon="1.29307">
        <ele>188.2</ele>
        <time>2025-12-19T08:19:34Z</time>
      </trkpt>
      <trkpt lat="43.58133" lon="1.29299">
        <ele>188</ele>
        <time>2025-12-19T08:19:35Z</time>
      </trkpt>
      <trkpt lat="43.58132" lon="1.29291">
        <ele>188</ele>
        <time>2025-12-19T08:19:36Z</time>
      </trkpt>
      <trkpt lat="43.5813" lon="1.29284">
        <ele>188.2</ele>
        <time>2025-12-19T08:19:37Z</time>
      </trkpt>
      <trkpt lat="43.58128" lon="1.29276">
        <ele>188.2</ele>
        <time>2025-12-19T08:19:38Z</time>
      </trkpt>
      <trkpt lat="43.58126" lon="1.29268">
        <ele>188.2</ele>
        <time>2025-12-19T08:19:39Z</time>
      </trkpt>
      <trkpt lat="43.58124" lon="1.29261">
        <ele>188.2</ele>
        <time>2025-12-19T08:19:40Z</time>
      </trkpt>
      <trkpt lat="43.58122" lon="1.29253">
        <ele>188.2</ele>
        <time>2025-12-19T08:19:41Z</time>
      </trkpt>
      <trkpt lat="43.58121" lon="1.29245">
        <ele>188.2</ele>
        <time>2025-12-19T08:19:42Z</time>
      </trkpt>
      <trkpt lat="43.5812" lon="1.29238">
        <ele>188.4</ele>
        <time>2025-12-19T08:19:43Z</time>
      </trkpt>
      <trkpt lat="43.58118" lon="1.2923">
        <ele>188.4</ele>
        <time>2025-12-19T08:19:44Z</time>
      </trkpt>
      <trkpt lat="43.58118" lon="1.29222">
        <ele>188.4</ele>
        <time>2025-12-19T08:19:45Z</time>
      </trkpt>
      <trkpt lat="43.58117" lon="1.29215">
        <ele>188.4</ele>
        <time>2025-12-19T08:19:46Z</time>
      </trkpt>
      <trkpt lat="43.58116" lon="1.29207">
        <ele>188.4</ele>
        <time>2025-12-19T08:19:47Z</time>
      </trkpt>
      <trkpt lat="43.58115" lon="1.292">
        <ele>188.4</ele>
        <time>2025-12-19T08:19:48Z</time>
      </trkpt>
      <trkpt lat="43.58113" lon="1.29192">
        <ele>188.4</ele>
        <time>2025-12-19T08:19:49Z</time>
      </trkpt>
      <trkpt lat="43.58112" lon="1.29184">
        <ele>188.4</ele>
        <time>2025-12-19T08:19:50Z</time>
      </trkpt>
      <trkpt lat="43.5811" lon="1.29176">
        <ele>188.4</ele>
        <time>2025-12-19T08:19:51Z</time>
      </trkpt>
      <trkpt lat="43.58108" lon="1.29168">
        <ele>188.4</ele>
        <time>2025-12-19T08:19:52Z</time>
      </trkpt>
      <trkpt lat="43.58107" lon="1.29161">
        <ele>188.4</ele>
        <time>2025-12-19T08:19:53Z</time>
      </trkpt>
      <trkpt lat="43.58105" lon="1.29154">
        <ele>188.4</ele>
        <time>2025-12-19T08:19:54Z</time>
      </trkpt>
      <trkpt lat="43.58103" lon="1.29147">
        <ele>188.4</ele>
        <time>2025-12-19T08:19:55Z</time>
      </trkpt>
      <trkpt lat="43.58101" lon="1.2914">
        <ele>188.4</ele>
        <time>2025-12-19T08:19:56Z</time>
      </trkpt>
      <trkpt lat="43.581" lon="1.29134">
        <ele>188.4</ele>
        <time>2025-12-19T08:19:57Z</time>
      </trkpt>
      <trkpt lat="43.58098" lon="1.29126">
        <ele>188.4</ele>
        <time>2025-12-19T08:19:58Z</time>
      </trkpt>
      <trkpt lat="43.58098" lon="1.29118">
        <ele>188.4</ele>
        <time>2025-12-19T08:19:59Z</time>
      </trkpt>
      <trkpt lat="43.58097" lon="1.29111">
        <ele>188.4</ele>
        <time>2025-12-19T08:20:00Z</time>
      </trkpt>
      <trkpt lat="43.58096" lon="1.29103">
        <ele>188.4</ele>
        <time>2025-12-19T08:20:01Z</time>
      </trkpt>
      <trkpt lat="43.58096" lon="1.29096">
        <ele>188.4</ele>
        <time>2025-12-19T08:20:02Z</time>
      </trkpt>
      <trkpt lat="43.58095" lon="1.29088">
        <ele>188.4</ele>
        <time>2025-12-19T08:20:03Z</time>
      </trkpt>
      <trkpt lat="43.58094" lon="1.2908">
        <ele>188.4</ele>
        <time>2025-12-19T08:20:04Z</time>
      </trkpt>
      <trkpt lat="43.58093" lon="1.29072">
        <ele>188.4</ele>
        <time>2025-12-19T08:20:05Z</time>
      </trkpt>
      <trkpt lat="43.58092" lon="1.29064">
        <ele>188.4</ele>
        <time>2025-12-19T08:20:06Z</time>
      </trkpt>
      <trkpt lat="43.58091" lon="1.29056">
        <ele>188.4</ele>
        <time>2025-12-19T08:20:07Z</time>
      </trkpt>
      <trkpt lat="43.58091" lon="1.29048">
        <ele>188.4</ele>
        <time>2025-12-19T08:20:08Z</time>
      </trkpt>
      <trkpt lat="43.5809" lon="1.29041">
        <ele>188.4</ele>
        <time>2025-12-19T08:20:09Z</time>
      </trkpt>
      <trkpt lat="43.5809" lon="1.29033">
        <ele>188.4</ele>
        <time>2025-12-19T08:20:10Z</time>
      </trkpt>
      <trkpt lat="43.58089" lon="1.29027">
        <ele>188.4</ele>
        <time>2025-12-19T08:20:11Z</time>
      </trkpt>
      <trkpt lat="43.58089" lon="1.29022">
        <ele>188.4</ele>
        <time>2025-12-19T08:20:12Z</time>
      </trkpt>
      <trkpt lat="43.58089" lon="1.29019">
        <ele>188.6</ele>
        <time>2025-12-19T08:20:13Z</time>
      </trkpt>
      <trkpt lat="43.58089" lon="1.29016">
        <ele>188.6</ele>
        <time>2025-12-19T08:20:14Z</time>
      </trkpt>
      <trkpt lat="43.58089" lon="1.29014">
        <ele>188.8</ele>
        <time>2025-12-19T08:20:15Z</time>
      </trkpt>
      <trkpt lat="43.5809" lon="1.29012">
        <ele>189</ele>
        <time>2025-12-19T08:20:16Z</time>
      </trkpt>
      <trkpt lat="43.5809" lon="1.29008">
        <ele>189</ele>
        <time>2025-12-19T08:20:17Z</time>
      </trkpt>
      <trkpt lat="43.58089" lon="1.29005">
        <ele>189.2</ele>
        <time>2025-12-19T08:20:18Z</time>
      </trkpt>
      <trkpt lat="43.58088" lon="1.29001">
        <ele>189.2</ele>
        <time>2025-12-19T08:20:19Z</time>
      </trkpt>
      <trkpt lat="43.58087" lon="1.28996">
        <ele>189</ele>
        <time>2025-12-19T08:20:20Z</time>
      </trkpt>
      <trkpt lat="43.58086" lon="1.2899">
        <ele>189</ele>
        <time>2025-12-19T08:20:21Z</time>
      </trkpt>
      <trkpt lat="43.58085" lon="1.28984">
        <ele>189</ele>
        <time>2025-12-19T08:20:22Z</time>
      </trkpt>
      <trkpt lat="43.58084" lon="1.28977">
        <ele>189</ele>
        <time>2025-12-19T08:20:23Z</time>
      </trkpt>
      <trkpt lat="43.58084" lon="1.2897">
        <ele>188.8</ele>
        <time>2025-12-19T08:20:24Z</time>
      </trkpt>
      <trkpt lat="43.58083" lon="1.28963">
        <ele>188.8</ele>
        <time>2025-12-19T08:20:25Z</time>
      </trkpt>
      <trkpt lat="43.58082" lon="1.28956">
        <ele>188.8</ele>
        <time>2025-12-19T08:20:26Z</time>
      </trkpt>
      <trkpt lat="43.58081" lon="1.28949">
        <ele>188.8</ele>
        <time>2025-12-19T08:20:27Z</time>
      </trkpt>
      <trkpt lat="43.58081" lon="1.28942">
        <ele>188.8</ele>
        <time>2025-12-19T08:20:28Z</time>
      </trkpt>
      <trkpt lat="43.5808" lon="1.28935">
        <ele>188.8</ele>
        <time>2025-12-19T08:20:29Z</time>
      </trkpt>
      <trkpt lat="43.58079" lon="1.28928">
        <ele>188.8</ele>
        <time>2025-12-19T08:20:30Z</time>
      </trkpt>
      <trkpt lat="43.58078" lon="1.28921">
        <ele>188.8</ele>
        <time>2025-12-19T08:20:31Z</time>
      </trkpt>
      <trkpt lat="43.58077" lon="1.28913">
        <ele>188.8</ele>
        <time>2025-12-19T08:20:32Z</time>
      </trkpt>
      <trkpt lat="43.58076" lon="1.28906">
        <ele>189</ele>
        <time>2025-12-19T08:20:33Z</time>
      </trkpt>
      <trkpt lat="43.58076" lon="1.28898">
        <ele>189</ele>
        <time>2025-12-19T08:20:34Z</time>
      </trkpt>
      <trkpt lat="43.58075" lon="1.2889">
        <ele>189</ele>
        <time>2025-12-19T08:20:35Z</time>
      </trkpt>
      <trkpt lat="43.58074" lon="1.28882">
        <ele>189</ele>
        <time>2025-12-19T08:20:36Z</time>
      </trkpt>
      <trkpt lat="43.58073" lon="1.28874">
        <ele>189</ele>
        <time>2025-12-19T08:20:37Z</time>
      </trkpt>
      <trkpt lat="43.58072" lon="1.28866">
        <ele>189</ele>
        <time>2025-12-19T08:20:38Z</time>
      </trkpt>
      <trkpt lat="43.58071" lon="1.28859">
        <ele>189</ele>
        <time>2025-12-19T08:20:39Z</time>
      </trkpt>
      <trkpt lat="43.5807" lon="1.2885">
        <ele>189</ele>
        <time>2025-12-19T08:20:40Z</time>
      </trkpt>
      <trkpt lat="43.58069" lon="1.28843">
        <ele>189</ele>
        <time>2025-12-19T08:20:41Z</time>
      </trkpt>
      <trkpt lat="43.58068" lon="1.28834">
        <ele>188.8</ele>
        <time>2025-12-19T08:20:42Z</time>
      </trkpt>
      <trkpt lat="43.58068" lon="1.28826">
        <ele>188.8</ele>
        <time>2025-12-19T08:20:43Z</time>
      </trkpt>
      <trkpt lat="43.58066" lon="1.28818">
        <ele>188.8</ele>
        <time>2025-12-19T08:20:44Z</time>
      </trkpt>
      <trkpt lat="43.58065" lon="1.2881">
        <ele>188.8</ele>
        <time>2025-12-19T08:20:45Z</time>
      </trkpt>
      <trkpt lat="43.58064" lon="1.28802">
        <ele>188.8</ele>
        <time>2025-12-19T08:20:46Z</time>
      </trkpt>
      <trkpt lat="43.58062" lon="1.28795">
        <ele>189</ele>
        <time>2025-12-19T08:20:47Z</time>
      </trkpt>
      <trkpt lat="43.58061" lon="1.28787">
        <ele>189</ele>
        <time>2025-12-19T08:20:48Z</time>
      </trkpt>
      <trkpt lat="43.58058" lon="1.28779">
        <ele>189</ele>
        <time>2025-12-19T08:20:49Z</time>
      </trkpt>
      <trkpt lat="43.58056" lon="1.28772">
        <ele>189</ele>
        <time>2025-12-19T08:20:50Z</time>
      </trkpt>
      <trkpt lat="43.58054" lon="1.28764">
        <ele>189</ele>
        <time>2025-12-19T08:20:51Z</time>
      </trkpt>
      <trkpt lat="43.58052" lon="1.28757">
        <ele>189</ele>
        <time>2025-12-19T08:20:52Z</time>
      </trkpt>
      <trkpt lat="43.58049" lon="1.2875">
        <ele>189.2</ele>
        <time>2025-12-19T08:20:53Z</time>
      </trkpt>
      <trkpt lat="43.58046" lon="1.28742">
        <ele>189.2</ele>
        <time>2025-12-19T08:20:54Z</time>
      </trkpt>
      <trkpt lat="43.58043" lon="1.28736">
        <ele>189.4</ele>
        <time>2025-12-19T08:20:55Z</time>
      </trkpt>
      <trkpt lat="43.58039" lon="1.28729">
        <ele>189.4</ele>
        <time>2025-12-19T08:20:56Z</time>
      </trkpt>
      <trkpt lat="43.58036" lon="1.28722">
        <ele>189.4</ele>
        <time>2025-12-19T08:20:57Z</time>
      </trkpt>
      <trkpt lat="43.58033" lon="1.28716">
        <ele>189.6</ele>
        <time>2025-12-19T08:20:58Z</time>
      </trkpt>
      <trkpt lat="43.5803" lon="1.28709">
        <ele>189.6</ele>
        <time>2025-12-19T08:20:59Z</time>
      </trkpt>
      <trkpt lat="43.58027" lon="1.28702">
        <ele>189.6</ele>
        <time>2025-12-19T08:21:00Z</time>
      </trkpt>
      <trkpt lat="43.58023" lon="1.28695">
        <ele>189.6</ele>
        <time>2025-12-19T08:21:01Z</time>
      </trkpt>
      <trkpt lat="43.5802" lon="1.28687">
        <ele>189.6</ele>
        <time>2025-12-19T08:21:02Z</time>
      </trkpt>
      <trkpt lat="43.58016" lon="1.2868">
        <ele>189.6</ele>
        <time>2025-12-19T08:21:03Z</time>
      </trkpt>
      <trkpt lat="43.58013" lon="1.28674">
        <ele>189.4</ele>
        <time>2025-12-19T08:21:04Z</time>
      </trkpt>
      <trkpt lat="43.58009" lon="1.28667">
        <ele>189.4</ele>
        <time>2025-12-19T08:21:05Z</time>
      </trkpt>
      <trkpt lat="43.58005" lon="1.2866">
        <ele>189.4</ele>
        <time>2025-12-19T08:21:06Z</time>
      </trkpt>
      <trkpt lat="43.58001" lon="1.28653">
        <ele>189.6</ele>
        <time>2025-12-19T08:21:07Z</time>
      </trkpt>
      <trkpt lat="43.57997" lon="1.28647">
        <ele>189.6</ele>
        <time>2025-12-19T08:21:08Z</time>
      </trkpt>
      <trkpt lat="43.57993" lon="1.2864">
        <ele>189.6</ele>
        <time>2025-12-19T08:21:09Z</time>
      </trkpt>
      <trkpt lat="43.57989" lon="1.28634">
        <ele>189.6</ele>
        <time>2025-12-19T08:21:10Z</time>
      </trkpt>
      <trkpt lat="43.57985" lon="1.28627">
        <ele>189.6</ele>
        <time>2025-12-19T08:21:11Z</time>
      </trkpt>
      <trkpt lat="43.57982" lon="1.2862">
        <ele>189.6</ele>
        <time>2025-12-19T08:21:12Z</time>
      </trkpt>
      <trkpt lat="43.57978" lon="1.28614">
        <ele>189.6</ele>
        <time>2025-12-19T08:21:13Z</time>
      </trkpt>
      <trkpt lat="43.57974" lon="1.28607">
        <ele>189.6</ele>
        <time>2025-12-19T08:21:14Z</time>
      </trkpt>
      <trkpt lat="43.57971" lon="1.28601">
        <ele>189.8</ele>
        <time>2025-12-19T08:21:15Z</time>
      </trkpt>
      <trkpt lat="43.57967" lon="1.28595">
        <ele>189.8</ele>
        <time>2025-12-19T08:21:16Z</time>
      </trkpt>
      <trkpt lat="43.57963" lon="1.28589">
        <ele>189.8</ele>
        <time>2025-12-19T08:21:17Z</time>
      </trkpt>
      <trkpt lat="43.57959" lon="1.28583">
        <ele>189.8</ele>
        <time>2025-12-19T08:21:18Z</time>
      </trkpt>
      <trkpt lat="43.57956" lon="1.28577">
        <ele>189.8</ele>
        <time>2025-12-19T08:21:19Z</time>
      </trkpt>
      <trkpt lat="43.57952" lon="1.28571">
        <ele>189.8</ele>
        <time>2025-12-19T08:21:20Z</time>
      </trkpt>
      <trkpt lat="43.57949" lon="1.28565">
        <ele>189.8</ele>
        <time>2025-12-19T08:21:21Z</time>
      </trkpt>
      <trkpt lat="43.57946" lon="1.2856">
        <ele>189.8</ele>
        <time>2025-12-19T08:21:22Z</time>
      </trkpt>
      <trkpt lat="43.57942" lon="1.28555">
        <ele>189.8</ele>
        <time>2025-12-19T08:21:23Z</time>
      </trkpt>
      <trkpt lat="43.57939" lon="1.2855">
        <ele>189.8</ele>
        <time>2025-12-19T08:21:24Z</time>
      </trkpt>
      <trkpt lat="43.57937" lon="1.28545">
        <ele>189.8</ele>
        <time>2025-12-19T08:21:25Z</time>
      </trkpt>
      <trkpt lat="43.57935" lon="1.28541">
        <ele>189.8</ele>
        <time>2025-12-19T08:21:26Z</time>
      </trkpt>
      <trkpt lat="43.57934" lon="1.28538">
        <ele>190</ele>
        <time>2025-12-19T08:21:27Z</time>
      </trkpt>
      <trkpt lat="43.57933" lon="1.28535">
        <ele>190.2</ele>
        <time>2025-12-19T08:21:28Z</time>
      </trkpt>
      <trkpt lat="43.57932" lon="1.2853">
        <ele>190.2</ele>
        <time>2025-12-19T08:21:29Z</time>
      </trkpt>
      <trkpt lat="43.5793" lon="1.28526">
        <ele>190.4</ele>
        <time>2025-12-19T08:21:30Z</time>
      </trkpt>
      <trkpt lat="43.57929" lon="1.28521">
        <ele>190.4</ele>
        <time>2025-12-19T08:21:31Z</time>
      </trkpt>
      <trkpt lat="43.57927" lon="1.28515">
        <ele>190.4</ele>
        <time>2025-12-19T08:21:32Z</time>
      </trkpt>
      <trkpt lat="43.57926" lon="1.28509">
        <ele>190.4</ele>
        <time>2025-12-19T08:21:33Z</time>
      </trkpt>
      <trkpt lat="43.57925" lon="1.28502">
        <ele>190.2</ele>
        <time>2025-12-19T08:21:34Z</time>
      </trkpt>
      <trkpt lat="43.57924" lon="1.28495">
        <ele>190.2</ele>
        <time>2025-12-19T08:21:35Z</time>
      </trkpt>
      <trkpt lat="43.57923" lon="1.28488">
        <ele>190</ele>
        <time>2025-12-19T08:21:36Z</time>
      </trkpt>
      <trkpt lat="43.57922" lon="1.2848">
        <ele>190</ele>
        <time>2025-12-19T08:21:37Z</time>
      </trkpt>
      <trkpt lat="43.57921" lon="1.28473">
        <ele>189.8</ele>
        <time>2025-12-19T08:21:38Z</time>
      </trkpt>
      <trkpt lat="43.5792" lon="1.28465">
        <ele>189.8</ele>
        <time>2025-12-19T08:21:39Z</time>
      </trkpt>
      <trkpt lat="43.57919" lon="1.28458">
        <ele>189.8</ele>
        <time>2025-12-19T08:21:40Z</time>
      </trkpt>
      <trkpt lat="43.57918" lon="1.28451">
        <ele>189.8</ele>
        <time>2025-12-19T08:21:41Z</time>
      </trkpt>
      <trkpt lat="43.57917" lon="1.28443">
        <ele>189.8</ele>
        <time>2025-12-19T08:21:42Z</time>
      </trkpt>
      <trkpt lat="43.57916" lon="1.28435">
        <ele>189.8</ele>
        <time>2025-12-19T08:21:43Z</time>
      </trkpt>
      <trkpt lat="43.57915" lon="1.28427">
        <ele>189.8</ele>
        <time>2025-12-19T08:21:44Z</time>
      </trkpt>
      <trkpt lat="43.57914" lon="1.28419">
        <ele>189.8</ele>
        <time>2025-12-19T08:21:45Z</time>
      </trkpt>
      <trkpt lat="43.57913" lon="1.28411">
        <ele>189.8</ele>
        <time>2025-12-19T08:21:46Z</time>
      </trkpt>
      <trkpt lat="43.57912" lon="1.28403">
        <ele>190</ele>
        <time>2025-12-19T08:21:47Z</time>
      </trkpt>
      <trkpt lat="43.57911" lon="1.28396">
        <ele>190</ele>
        <time>2025-12-19T08:21:48Z</time>
      </trkpt>
      <trkpt lat="43.5791" lon="1.28388">
        <ele>190</ele>
        <time>2025-12-19T08:21:49Z</time>
      </trkpt>
      <trkpt lat="43.57909" lon="1.2838">
        <ele>190</ele>
        <time>2025-12-19T08:21:50Z</time>
      </trkpt>
      <trkpt lat="43.57908" lon="1.28372">
        <ele>190</ele>
        <time>2025-12-19T08:21:51Z</time>
      </trkpt>
      <trkpt lat="43.57907" lon="1.28363">
        <ele>190</ele>
        <time>2025-12-19T08:21:52Z</time>
      </trkpt>
      <trkpt lat="43.57906" lon="1.28356">
        <ele>190</ele>
        <time>2025-12-19T08:21:53Z</time>
      </trkpt>
      <trkpt lat="43.57905" lon="1.28348">
        <ele>190</ele>
        <time>2025-12-19T08:21:54Z</time>
      </trkpt>
      <trkpt lat="43.57903" lon="1.2834">
        <ele>190</ele>
        <time>2025-12-19T08:21:55Z</time>
      </trkpt>
      <trkpt lat="43.57903" lon="1.28332">
        <ele>190</ele>
        <time>2025-12-19T08:21:56Z</time>
      </trkpt>
      <trkpt lat="43.57901" lon="1.28324">
        <ele>190</ele>
        <time>2025-12-19T08:21:57Z</time>
      </trkpt>
      <trkpt lat="43.579" lon="1.28315">
        <ele>190</ele>
        <time>2025-12-19T08:21:58Z</time>
      </trkpt>
      <trkpt lat="43.57899" lon="1.28307">
        <ele>190</ele>
        <time>2025-12-19T08:21:59Z</time>
      </trkpt>
      <trkpt lat="43.57898" lon="1.28299">
        <ele>189.8</ele>
        <time>2025-12-19T08:22:00Z</time>
      </trkpt>
      <trkpt lat="43.57897" lon="1.28291">
        <ele>189.8</ele>
        <time>2025-12-19T08:22:01Z</time>
      </trkpt>
      <trkpt lat="43.57896" lon="1.28283">
        <ele>189.8</ele>
        <time>2025-12-19T08:22:02Z</time>
      </trkpt>
      <trkpt lat="43.57895" lon="1.28275">
        <ele>189.8</ele>
        <time>2025-12-19T08:22:03Z</time>
      </trkpt>
      <trkpt lat="43.57894" lon="1.28267">
        <ele>189.6</ele>
        <time>2025-12-19T08:22:04Z</time>
      </trkpt>
      <trkpt lat="43.57893" lon="1.28259">
        <ele>189.8</ele>
        <time>2025-12-19T08:22:05Z</time>
      </trkpt>
      <trkpt lat="43.57892" lon="1.28251">
        <ele>189.8</ele>
        <time>2025-12-19T08:22:06Z</time>
      </trkpt>
      <trkpt lat="43.5789" lon="1.28243">
        <ele>189.8</ele>
        <time>2025-12-19T08:22:07Z</time>
      </trkpt>
      <trkpt lat="43.57889" lon="1.28235">
        <ele>190</ele>
        <time>2025-12-19T08:22:08Z</time>
      </trkpt>
      <trkpt lat="43.57888" lon="1.28226">
        <ele>190</ele>
        <time>2025-12-19T08:22:09Z</time>
      </trkpt>
      <trkpt lat="43.57888" lon="1.28218">
        <ele>190</ele>
        <time>2025-12-19T08:22:10Z</time>
      </trkpt>
      <trkpt lat="43.57887" lon="1.28209">
        <ele>190</ele>
        <time>2025-12-19T08:22:11Z</time>
      </trkpt>
      <trkpt lat="43.57886" lon="1.28201">
        <ele>189.8</ele>
        <time>2025-12-19T08:22:12Z</time>
      </trkpt>
      <trkpt lat="43.57885" lon="1.28193">
        <ele>190</ele>
        <time>2025-12-19T08:22:13Z</time>
      </trkpt>
      <trkpt lat="43.57884" lon="1.28185">
        <ele>189.8</ele>
        <time>2025-12-19T08:22:14Z</time>
      </trkpt>
      <trkpt lat="43.57883" lon="1.28177">
        <ele>190</ele>
        <time>2025-12-19T08:22:15Z</time>
      </trkpt>
      <trkpt lat="43.57882" lon="1.28168">
        <ele>190</ele>
        <time>2025-12-19T08:22:16Z</time>
      </trkpt>
      <trkpt lat="43.5788" lon="1.2816">
        <ele>190</ele>
        <time>2025-12-19T08:22:17Z</time>
      </trkpt>
      <trkpt lat="43.57879" lon="1.28152">
        <ele>190</ele>
        <time>2025-12-19T08:22:18Z</time>
      </trkpt>
      <trkpt lat="43.57878" lon="1.28144">
        <ele>190</ele>
        <time>2025-12-19T08:22:19Z</time>
      </trkpt>
      <trkpt lat="43.57878" lon="1.28136">
        <ele>190</ele>
        <time>2025-12-19T08:22:20Z</time>
      </trkpt>
      <trkpt lat="43.57877" lon="1.28127">
        <ele>190</ele>
        <time>2025-12-19T08:22:21Z</time>
      </trkpt>
      <trkpt lat="43.57875" lon="1.28118">
        <ele>190</ele>
        <time>2025-12-19T08:22:22Z</time>
      </trkpt>
      <trkpt lat="43.57874" lon="1.2811">
        <ele>190</ele>
        <time>2025-12-19T08:22:23Z</time>
      </trkpt>
      <trkpt lat="43.57873" lon="1.28101">
        <ele>190</ele>
        <time>2025-12-19T08:22:24Z</time>
      </trkpt>
      <trkpt lat="43.57872" lon="1.28093">
        <ele>189.8</ele>
        <time>2025-12-19T08:22:25Z</time>
      </trkpt>
      <trkpt lat="43.57871" lon="1.28084">
        <ele>190</ele>
        <time>2025-12-19T08:22:26Z</time>
      </trkpt>
      <trkpt lat="43.5787" lon="1.28077">
        <ele>190</ele>
        <time>2025-12-19T08:22:27Z</time>
      </trkpt>
      <trkpt lat="43.57869" lon="1.28069">
        <ele>189.8</ele>
        <time>2025-12-19T08:22:28Z</time>
      </trkpt>
      <trkpt lat="43.57868" lon="1.28061">
        <ele>189.8</ele>
        <time>2025-12-19T08:22:29Z</time>
      </trkpt>
      <trkpt lat="43.57867" lon="1.28052">
        <ele>189.8</ele>
        <time>2025-12-19T08:22:30Z</time>
      </trkpt>
      <trkpt lat="43.57867" lon="1.28044">
        <ele>189.8</ele>
        <time>2025-12-19T08:22:31Z</time>
      </trkpt>
      <trkpt lat="43.57868" lon="1.28035">
        <ele>189.8</ele>
        <time>2025-12-19T08:22:32Z</time>
      </trkpt>
      <trkpt lat="43.57869" lon="1.28027">
        <ele>189.8</ele>
        <time>2025-12-19T08:22:33Z</time>
      </trkpt>
      <trkpt lat="43.57871" lon="1.2802">
        <ele>189.8</ele>
        <time>2025-12-19T08:22:34Z</time>
      </trkpt>
      <trkpt lat="43.57873" lon="1.28012">
        <ele>189.8</ele>
        <time>2025-12-19T08:22:35Z</time>
      </trkpt>
      <trkpt lat="43.57875" lon="1.28004">
        <ele>189.8</ele>
        <time>2025-12-19T08:22:36Z</time>
      </trkpt>
      <trkpt lat="43.57878" lon="1.27996">
        <ele>189.8</ele>
        <time>2025-12-19T08:22:37Z</time>
      </trkpt>
      <trkpt lat="43.5788" lon="1.27988">
        <ele>189.8</ele>
        <time>2025-12-19T08:22:38Z</time>
      </trkpt>
      <trkpt lat="43.57882" lon="1.2798">
        <ele>189.6</ele>
        <time>2025-12-19T08:22:39Z</time>
      </trkpt>
      <trkpt lat="43.57883" lon="1.27972">
        <ele>189.6</ele>
        <time>2025-12-19T08:22:40Z</time>
      </trkpt>
      <trkpt lat="43.57885" lon="1.27964">
        <ele>189.6</ele>
        <time>2025-12-19T08:22:41Z</time>
      </trkpt>
      <trkpt lat="43.57886" lon="1.27956">
        <ele>189.8</ele>
        <time>2025-12-19T08:22:42Z</time>
      </trkpt>
      <trkpt lat="43.57888" lon="1.27948">
        <ele>190</ele>
        <time>2025-12-19T08:22:43Z</time>
      </trkpt>
      <trkpt lat="43.57889" lon="1.2794">
        <ele>190</ele>
        <time>2025-12-19T08:22:44Z</time>
      </trkpt>
      <trkpt lat="43.5789" lon="1.27932">
        <ele>190</ele>
        <time>2025-12-19T08:22:45Z</time>
      </trkpt>
      <trkpt lat="43.57892" lon="1.27925">
        <ele>190</ele>
        <time>2025-12-19T08:22:46Z</time>
      </trkpt>
      <trkpt lat="43.57893" lon="1.27916">
        <ele>190</ele>
        <time>2025-12-19T08:22:47Z</time>
      </trkpt>
      <trkpt lat="43.57894" lon="1.27908">
        <ele>190</ele>
        <time>2025-12-19T08:22:48Z</time>
      </trkpt>
      <trkpt lat="43.57896" lon="1.279">
        <ele>190</ele>
        <time>2025-12-19T08:22:49Z</time>
      </trkpt>
      <trkpt lat="43.57897" lon="1.27892">
        <ele>190</ele>
        <time>2025-12-19T08:22:50Z</time>
      </trkpt>
      <trkpt lat="43.57898" lon="1.27885">
        <ele>190</ele>
        <time>2025-12-19T08:22:51Z</time>
      </trkpt>
      <trkpt lat="43.57899" lon="1.27877">
        <ele>190</ele>
        <time>2025-12-19T08:22:52Z</time>
      </trkpt>
      <trkpt lat="43.57901" lon="1.27868">
        <ele>190</ele>
        <time>2025-12-19T08:22:53Z</time>
      </trkpt>
      <trkpt lat="43.57902" lon="1.2786">
        <ele>190</ele>
        <time>2025-12-19T08:22:54Z</time>
      </trkpt>
      <trkpt lat="43.57903" lon="1.27851">
        <ele>190</ele>
        <time>2025-12-19T08:22:55Z</time>
      </trkpt>
      <trkpt lat="43.57904" lon="1.27843">
        <ele>190</ele>
        <time>2025-12-19T08:22:56Z</time>
      </trkpt>
      <trkpt lat="43.57906" lon="1.27834">
        <ele>190.2</ele>
        <time>2025-12-19T08:22:57Z</time>
      </trkpt>
      <trkpt lat="43.57907" lon="1.27825">
        <ele>190.2</ele>
        <time>2025-12-19T08:22:58Z</time>
      </trkpt>
      <trkpt lat="43.57908" lon="1.27817">
        <ele>190.2</ele>
        <time>2025-12-19T08:22:59Z</time>
      </trkpt>
      <trkpt lat="43.5791" lon="1.27808">
        <ele>190.2</ele>
        <time>2025-12-19T08:23:00Z</time>
      </trkpt>
      <trkpt lat="43.5791" lon="1.278">
        <ele>190.2</ele>
        <time>2025-12-19T08:23:01Z</time>
      </trkpt>
      <trkpt lat="43.57911" lon="1.27792">
        <ele>190.2</ele>
        <time>2025-12-19T08:23:02Z</time>
      </trkpt>
      <trkpt lat="43.57913" lon="1.27784">
        <ele>190.2</ele>
        <time>2025-12-19T08:23:03Z</time>
      </trkpt>
      <trkpt lat="43.57914" lon="1.27776">
        <ele>190.2</ele>
        <time>2025-12-19T08:23:04Z</time>
      </trkpt>
      <trkpt lat="43.57916" lon="1.27768">
        <ele>190.2</ele>
        <time>2025-12-19T08:23:05Z</time>
      </trkpt>
      <trkpt lat="43.57917" lon="1.27759">
        <ele>190.2</ele>
        <time>2025-12-19T08:23:06Z</time>
      </trkpt>
      <trkpt lat="43.57918" lon="1.27751">
        <ele>190.2</ele>
        <time>2025-12-19T08:23:07Z</time>
      </trkpt>
      <trkpt lat="43.57919" lon="1.27742">
        <ele>190.2</ele>
        <time>2025-12-19T08:23:08Z</time>
      </trkpt>
      <trkpt lat="43.57921" lon="1.27734">
        <ele>190.2</ele>
        <time>2025-12-19T08:23:09Z</time>
      </trkpt>
      <trkpt lat="43.57922" lon="1.27725">
        <ele>190.2</ele>
        <time>2025-12-19T08:23:10Z</time>
      </trkpt>
      <trkpt lat="43.57923" lon="1.27717">
        <ele>190</ele>
        <time>2025-12-19T08:23:11Z</time>
      </trkpt>
      <trkpt lat="43.57925" lon="1.27708">
        <ele>190</ele>
        <time>2025-12-19T08:23:12Z</time>
      </trkpt>
      <trkpt lat="43.57926" lon="1.27699">
        <ele>190</ele>
        <time>2025-12-19T08:23:13Z</time>
      </trkpt>
      <trkpt lat="43.57927" lon="1.27691">
        <ele>190</ele>
        <time>2025-12-19T08:23:14Z</time>
      </trkpt>
      <trkpt lat="43.57929" lon="1.27682">
        <ele>190</ele>
        <time>2025-12-19T08:23:15Z</time>
      </trkpt>
      <trkpt lat="43.5793" lon="1.27674">
        <ele>190</ele>
        <time>2025-12-19T08:23:16Z</time>
      </trkpt>
      <trkpt lat="43.57932" lon="1.27666">
        <ele>190</ele>
        <time>2025-12-19T08:23:17Z</time>
      </trkpt>
      <trkpt lat="43.57934" lon="1.27657">
        <ele>190</ele>
        <time>2025-12-19T08:23:18Z</time>
      </trkpt>
      <trkpt lat="43.57935" lon="1.27649">
        <ele>190.2</ele>
        <time>2025-12-19T08:23:19Z</time>
      </trkpt>
      <trkpt lat="43.57937" lon="1.2764">
        <ele>190</ele>
        <time>2025-12-19T08:23:20Z</time>
      </trkpt>
      <trkpt lat="43.57939" lon="1.27632">
        <ele>190</ele>
        <time>2025-12-19T08:23:21Z</time>
      </trkpt>
      <trkpt lat="43.5794" lon="1.27624">
        <ele>190</ele>
        <time>2025-12-19T08:23:22Z</time>
      </trkpt>
      <trkpt lat="43.57942" lon="1.27616">
        <ele>190</ele>
        <time>2025-12-19T08:23:23Z</time>
      </trkpt>
      <trkpt lat="43.57943" lon="1.27608">
        <ele>190</ele>
        <time>2025-12-19T08:23:24Z</time>
      </trkpt>
      <trkpt lat="43.57945" lon="1.276">
        <ele>190</ele>
        <time>2025-12-19T08:23:25Z</time>
      </trkpt>
      <trkpt lat="43.57946" lon="1.27591">
        <ele>190</ele>
        <time>2025-12-19T08:23:26Z</time>
      </trkpt>
      <trkpt lat="43.57948" lon="1.27583">
        <ele>190</ele>
        <time>2025-12-19T08:23:27Z</time>
      </trkpt>
      <trkpt lat="43.57949" lon="1.27574">
        <ele>189.8</ele>
        <time>2025-12-19T08:23:28Z</time>
      </trkpt>
      <trkpt lat="43.5795" lon="1.27565">
        <ele>189.8</ele>
        <time>2025-12-19T08:23:29Z</time>
      </trkpt>
      <trkpt lat="43.57951" lon="1.27556">
        <ele>189.6</ele>
        <time>2025-12-19T08:23:30Z</time>
      </trkpt>
      <trkpt lat="43.57953" lon="1.27548">
        <ele>189.6</ele>
        <time>2025-12-19T08:23:31Z</time>
      </trkpt>
      <trkpt lat="43.57954" lon="1.2754">
        <ele>189.6</ele>
        <time>2025-12-19T08:23:32Z</time>
      </trkpt>
      <trkpt lat="43.57955" lon="1.27532">
        <ele>189.8</ele>
        <time>2025-12-19T08:23:33Z</time>
      </trkpt>
      <trkpt lat="43.57956" lon="1.27525">
        <ele>189.8</ele>
        <time>2025-12-19T08:23:34Z</time>
      </trkpt>
      <trkpt lat="43.57957" lon="1.27517">
        <ele>189.8</ele>
        <time>2025-12-19T08:23:35Z</time>
      </trkpt>
      <trkpt lat="43.57958" lon="1.27509">
        <ele>189.8</ele>
        <time>2025-12-19T08:23:36Z</time>
      </trkpt>
      <trkpt lat="43.57959" lon="1.275">
        <ele>189.8</ele>
        <time>2025-12-19T08:23:37Z</time>
      </trkpt>
      <trkpt lat="43.57961" lon="1.27492">
        <ele>189.8</ele>
        <time>2025-12-19T08:23:38Z</time>
      </trkpt>
      <trkpt lat="43.57962" lon="1.27484">
        <ele>189.8</ele>
        <time>2025-12-19T08:23:39Z</time>
      </trkpt>
      <trkpt lat="43.57963" lon="1.27475">
        <ele>189.8</ele>
        <time>2025-12-19T08:23:40Z</time>
      </trkpt>
      <trkpt lat="43.57964" lon="1.27467">
        <ele>189.8</ele>
        <time>2025-12-19T08:23:41Z</time>
      </trkpt>
      <trkpt lat="43.57966" lon="1.27459">
        <ele>189.8</ele>
        <time>2025-12-19T08:23:42Z</time>
      </trkpt>
      <trkpt lat="43.57966" lon="1.27451">
        <ele>189.8</ele>
        <time>2025-12-19T08:23:43Z</time>
      </trkpt>
      <trkpt lat="43.57968" lon="1.27443">
        <ele>189.8</ele>
        <time>2025-12-19T08:23:44Z</time>
      </trkpt>
      <trkpt lat="43.57969" lon="1.27435">
        <ele>190</ele>
        <time>2025-12-19T08:23:45Z</time>
      </trkpt>
      <trkpt lat="43.5797" lon="1.27427">
        <ele>190</ele>
        <time>2025-12-19T08:23:46Z</time>
      </trkpt>
      <trkpt lat="43.57971" lon="1.27419">
        <ele>189.8</ele>
        <time>2025-12-19T08:23:47Z</time>
      </trkpt>
      <trkpt lat="43.57972" lon="1.2741">
        <ele>189.8</ele>
        <time>2025-12-19T08:23:48Z</time>
      </trkpt>
      <trkpt lat="43.57973" lon="1.27402">
        <ele>190</ele>
        <time>2025-12-19T08:23:49Z</time>
      </trkpt>
      <trkpt lat="43.57974" lon="1.27393">
        <ele>189.8</ele>
        <time>2025-12-19T08:23:50Z</time>
      </trkpt>
      <trkpt lat="43.57975" lon="1.27385">
        <ele>190</ele>
        <time>2025-12-19T08:23:51Z</time>
      </trkpt>
      <trkpt lat="43.57976" lon="1.27377">
        <ele>190</ele>
        <time>2025-12-19T08:23:52Z</time>
      </trkpt>
      <trkpt lat="43.57977" lon="1.27369">
        <ele>190.2</ele>
        <time>2025-12-19T08:23:53Z</time>
      </trkpt>
      <trkpt lat="43.57978" lon="1.27362">
        <ele>190.2</ele>
        <time>2025-12-19T08:23:54Z</time>
      </trkpt>
      <trkpt lat="43.57979" lon="1.27354">
        <ele>190.2</ele>
        <time>2025-12-19T08:23:55Z</time>
      </trkpt>
      <trkpt lat="43.5798" lon="1.27346">
        <ele>190.4</ele>
        <time>2025-12-19T08:23:56Z</time>
      </trkpt>
      <trkpt lat="43.57982" lon="1.27339">
        <ele>190.4</ele>
        <time>2025-12-19T08:23:57Z</time>
      </trkpt>
      <trkpt lat="43.57982" lon="1.27333">
        <ele>190.4</ele>
        <time>2025-12-19T08:23:58Z</time>
      </trkpt>
      <trkpt lat="43.57983" lon="1.27326">
        <ele>190.4</ele>
        <time>2025-12-19T08:23:59Z</time>
      </trkpt>
      <trkpt lat="43.57983" lon="1.27321">
        <ele>190.4</ele>
        <time>2025-12-19T08:24:00Z</time>
      </trkpt>
      <trkpt lat="43.57984" lon="1.27317">
        <ele>190.6</ele>
        <time>2025-12-19T08:24:01Z</time>
      </trkpt>
      <trkpt lat="43.57985" lon="1.27313">
        <ele>190.6</ele>
        <time>2025-12-19T08:24:02Z</time>
      </trkpt>
      <trkpt lat="43.57985" lon="1.27312">
        <ele>190.8</ele>
        <time>2025-12-19T08:24:03Z</time>
      </trkpt>
      <trkpt lat="43.57985" lon="1.27311">
        <ele>190.8</ele>
        <time>2025-12-19T08:24:04Z</time>
      </trkpt>
      <trkpt lat="43.57984" lon="1.27311">
        <ele>191</ele>
        <time>2025-12-19T08:24:05Z</time>
      </trkpt>
      <trkpt lat="43.57984" lon="1.27308">
        <ele>191.2</ele>
        <time>2025-12-19T08:24:08Z</time>
      </trkpt>
      <trkpt lat="43.57983" lon="1.27304">
        <ele>191.2</ele>
        <time>2025-12-19T08:24:09Z</time>
      </trkpt>
      <trkpt lat="43.57979" lon="1.27301">
        <ele>191</ele>
        <time>2025-12-19T08:24:10Z</time>
      </trkpt>
      <trkpt lat="43.57975" lon="1.27299">
        <ele>191</ele>
        <time>2025-12-19T08:24:11Z</time>
      </trkpt>
      <trkpt lat="43.57971" lon="1.27298">
        <ele>191</ele>
        <time>2025-12-19T08:24:12Z</time>
      </trkpt>
      <trkpt lat="43.57966" lon="1.27296">
        <ele>190.8</ele>
        <time>2025-12-19T08:24:13Z</time>
      </trkpt>
      <trkpt lat="43.57962" lon="1.27295">
        <ele>190.8</ele>
        <time>2025-12-19T08:24:14Z</time>
      </trkpt>
      <trkpt lat="43.57957" lon="1.27293">
        <ele>190.8</ele>
        <time>2025-12-19T08:24:15Z</time>
      </trkpt>
      <trkpt lat="43.57952" lon="1.27292">
        <ele>190.6</ele>
        <time>2025-12-19T08:24:16Z</time>
      </trkpt>
      <trkpt lat="43.57947" lon="1.27291">
        <ele>190.6</ele>
        <time>2025-12-19T08:24:17Z</time>
      </trkpt>
      <trkpt lat="43.57942" lon="1.27291">
        <ele>190.6</ele>
        <time>2025-12-19T08:24:18Z</time>
      </trkpt>
      <trkpt lat="43.57937" lon="1.27289">
        <ele>190.6</ele>
        <time>2025-12-19T08:24:19Z</time>
      </trkpt>
      <trkpt lat="43.57932" lon="1.27288">
        <ele>190.6</ele>
        <time>2025-12-19T08:24:20Z</time>
      </trkpt>
      <trkpt lat="43.57926" lon="1.27287">
        <ele>190.6</ele>
        <time>2025-12-19T08:24:21Z</time>
      </trkpt>
      <trkpt lat="43.5792" lon="1.27286">
        <ele>190.6</ele>
        <time>2025-12-19T08:24:22Z</time>
      </trkpt>
      <trkpt lat="43.57915" lon="1.27285">
        <ele>190.6</ele>
        <time>2025-12-19T08:24:23Z</time>
      </trkpt>
      <trkpt lat="43.5791" lon="1.27284">
        <ele>190.8</ele>
        <time>2025-12-19T08:24:24Z</time>
      </trkpt>
      <trkpt lat="43.57904" lon="1.27283">
        <ele>190.8</ele>
        <time>2025-12-19T08:24:25Z</time>
      </trkpt>
      <trkpt lat="43.57898" lon="1.27282">
        <ele>190.8</ele>
        <time>2025-12-19T08:24:26Z</time>
      </trkpt>
      <trkpt lat="43.57893" lon="1.2728">
        <ele>191</ele>
        <time>2025-12-19T08:24:27Z</time>
      </trkpt>
      <trkpt lat="43.57887" lon="1.27279">
        <ele>191</ele>
        <time>2025-12-19T08:24:28Z</time>
      </trkpt>
      <trkpt lat="43.57882" lon="1.27278">
        <ele>191</ele>
        <time>2025-12-19T08:24:29Z</time>
      </trkpt>
      <trkpt lat="43.57877" lon="1.27277">
        <ele>191</ele>
        <time>2025-12-19T08:24:30Z</time>
      </trkpt>
      <trkpt lat="43.57871" lon="1.27275">
        <ele>191</ele>
        <time>2025-12-19T08:24:31Z</time>
      </trkpt>
      <trkpt lat="43.57866" lon="1.27275">
        <ele>191</ele>
        <time>2025-12-19T08:24:32Z</time>
      </trkpt>
      <trkpt lat="43.57861" lon="1.27273">
        <ele>191.2</ele>
        <time>2025-12-19T08:24:33Z</time>
      </trkpt>
      <trkpt lat="43.57856" lon="1.27272">
        <ele>191.2</ele>
        <time>2025-12-19T08:24:34Z</time>
      </trkpt>
      <trkpt lat="43.5785" lon="1.27271">
        <ele>191.2</ele>
        <time>2025-12-19T08:24:35Z</time>
      </trkpt>
      <trkpt lat="43.57845" lon="1.27271">
        <ele>191.2</ele>
        <time>2025-12-19T08:24:36Z</time>
      </trkpt>
      <trkpt lat="43.5784" lon="1.2727">
        <ele>191.2</ele>
        <time>2025-12-19T08:24:37Z</time>
      </trkpt>
      <trkpt lat="43.57835" lon="1.27269">
        <ele>191.2</ele>
        <time>2025-12-19T08:24:38Z</time>
      </trkpt>
      <trkpt lat="43.57829" lon="1.27268">
        <ele>191.2</ele>
        <time>2025-12-19T08:24:39Z</time>
      </trkpt>
      <trkpt lat="43.57823" lon="1.27267">
        <ele>191.2</ele>
        <time>2025-12-19T08:24:40Z</time>
      </trkpt>
      <trkpt lat="43.57817" lon="1.27266">
        <ele>191.2</ele>
        <time>2025-12-19T08:24:41Z</time>
      </trkpt>
      <trkpt lat="43.57812" lon="1.27265">
        <ele>191.2</ele>
        <time>2025-12-19T08:24:42Z</time>
      </trkpt>
      <trkpt lat="43.57806" lon="1.27264">
        <ele>191.2</ele>
        <time>2025-12-19T08:24:43Z</time>
      </trkpt>
      <trkpt lat="43.578" lon="1.27263">
        <ele>191.2</ele>
        <time>2025-12-19T08:24:44Z</time>
      </trkpt>
      <trkpt lat="43.57794" lon="1.27262">
        <ele>191.2</ele>
        <time>2025-12-19T08:24:45Z</time>
      </trkpt>
      <trkpt lat="43.57788" lon="1.2726">
        <ele>191.2</ele>
        <time>2025-12-19T08:24:46Z</time>
      </trkpt>
      <trkpt lat="43.57783" lon="1.27259">
        <ele>191</ele>
        <time>2025-12-19T08:24:47Z</time>
      </trkpt>
      <trkpt lat="43.57778" lon="1.27258">
        <ele>191.2</ele>
        <time>2025-12-19T08:24:48Z</time>
      </trkpt>
      <trkpt lat="43.57773" lon="1.27257">
        <ele>191.2</ele>
        <time>2025-12-19T08:24:49Z</time>
      </trkpt>
      <trkpt lat="43.57768" lon="1.27257">
        <ele>191.2</ele>
        <time>2025-12-19T08:24:50Z</time>
      </trkpt>
      <trkpt lat="43.57764" lon="1.27254">
        <ele>191.2</ele>
        <time>2025-12-19T08:24:51Z</time>
      </trkpt>
      <trkpt lat="43.5776" lon="1.2725">
        <ele>191.2</ele>
        <time>2025-12-19T08:24:52Z</time>
      </trkpt>
      <trkpt lat="43.57756" lon="1.27245">
        <ele>191</ele>
        <time>2025-12-19T08:24:53Z</time>
      </trkpt>
      <trkpt lat="43.57752" lon="1.27241">
        <ele>191</ele>
        <time>2025-12-19T08:24:54Z</time>
      </trkpt>
      <trkpt lat="43.57748" lon="1.27235">
        <ele>191</ele>
        <time>2025-12-19T08:24:55Z</time>
      </trkpt>
      <trkpt lat="43.57745" lon="1.27228">
        <ele>190.8</ele>
        <time>2025-12-19T08:24:56Z</time>
      </trkpt>
      <trkpt lat="43.57743" lon="1.2722">
        <ele>190.6</ele>
        <time>2025-12-19T08:24:57Z</time>
      </trkpt>
      <trkpt lat="43.57741" lon="1.27212">
        <ele>190.4</ele>
        <time>2025-12-19T08:24:58Z</time>
      </trkpt>
      <trkpt lat="43.57739" lon="1.27203">
        <ele>190</ele>
        <time>2025-12-19T08:24:59Z</time>
      </trkpt>
      <trkpt lat="43.57736" lon="1.27194">
        <ele>189.6</ele>
        <time>2025-12-19T08:25:00Z</time>
      </trkpt>
      <trkpt lat="43.57732" lon="1.27185">
        <ele>189.2</ele>
        <time>2025-12-19T08:25:01Z</time>
      </trkpt>
      <trkpt lat="43.57726" lon="1.27177">
        <ele>188.4</ele>
        <time>2025-12-19T08:25:02Z</time>
      </trkpt>
      <trkpt lat="43.57719" lon="1.27169">
        <ele>187.6</ele>
        <time>2025-12-19T08:25:03Z</time>
      </trkpt>
      <trkpt lat="43.57712" lon="1.27161">
        <ele>186.8</ele>
        <time>2025-12-19T08:25:04Z</time>
      </trkpt>
      <trkpt lat="43.57704" lon="1.27152">
        <ele>186</ele>
        <time>2025-12-19T08:25:05Z</time>
      </trkpt>
      <trkpt lat="43.57695" lon="1.27144">
        <ele>185</ele>
        <time>2025-12-19T08:25:06Z</time>
      </trkpt>
      <trkpt lat="43.57686" lon="1.27136">
        <ele>183.8</ele>
        <time>2025-12-19T08:25:07Z</time>
      </trkpt>
      <trkpt lat="43.57677" lon="1.27128">
        <ele>182.8</ele>
        <time>2025-12-19T08:25:08Z</time>
      </trkpt>
      <trkpt lat="43.57668" lon="1.27119">
        <ele>181.8</ele>
        <time>2025-12-19T08:25:09Z</time>
      </trkpt>
      <trkpt lat="43.57658" lon="1.27112">
        <ele>180.6</ele>
        <time>2025-12-19T08:25:10Z</time>
      </trkpt>
      <trkpt lat="43.57649" lon="1.27104">
        <ele>179.8</ele>
        <time>2025-12-19T08:25:11Z</time>
      </trkpt>
      <trkpt lat="43.5764" lon="1.27096">
        <ele>178.6</ele>
        <time>2025-12-19T08:25:12Z</time>
      </trkpt>
      <trkpt lat="43.57631" lon="1.27089">
        <ele>177.8</ele>
        <time>2025-12-19T08:25:13Z</time>
      </trkpt>
      <trkpt lat="43.57624" lon="1.2708">
        <ele>177</ele>
        <time>2025-12-19T08:25:14Z</time>
      </trkpt>
      <trkpt lat="43.57618" lon="1.27069">
        <ele>176.8</ele>
        <time>2025-12-19T08:25:15Z</time>
      </trkpt>
      <trkpt lat="43.57615" lon="1.27057">
        <ele>175.6</ele>
        <time>2025-12-19T08:25:16Z</time>
      </trkpt>
      <trkpt lat="43.57615" lon="1.27043">
        <ele>174.6</ele>
        <time>2025-12-19T08:25:17Z</time>
      </trkpt>
      <trkpt lat="43.57616" lon="1.27029">
        <ele>174</ele>
        <time>2025-12-19T08:25:18Z</time>
      </trkpt>
      <trkpt lat="43.57619" lon="1.27016">
        <ele>173.2</ele>
        <time>2025-12-19T08:25:19Z</time>
      </trkpt>
      <trkpt lat="43.57624" lon="1.27004">
        <ele>172.6</ele>
        <time>2025-12-19T08:25:20Z</time>
      </trkpt>
      <trkpt lat="43.57629" lon="1.26992">
        <ele>172</ele>
        <time>2025-12-19T08:25:21Z</time>
      </trkpt>
      <trkpt lat="43.57634" lon="1.26981">
        <ele>171.4</ele>
        <time>2025-12-19T08:25:22Z</time>
      </trkpt>
      <trkpt lat="43.57639" lon="1.26969">
        <ele>171</ele>
        <time>2025-12-19T08:25:23Z</time>
      </trkpt>
      <trkpt lat="43.57645" lon="1.26958">
        <ele>170.4</ele>
        <time>2025-12-19T08:25:24Z</time>
      </trkpt>
      <trkpt lat="43.5765" lon="1.26947">
        <ele>170.2</ele>
        <time>2025-12-19T08:25:25Z</time>
      </trkpt>
      <trkpt lat="43.57655" lon="1.26936">
        <ele>170</ele>
        <time>2025-12-19T08:25:26Z</time>
      </trkpt>
      <trkpt lat="43.5766" lon="1.26927">
        <ele>169.8</ele>
        <time>2025-12-19T08:25:27Z</time>
      </trkpt>
      <trkpt lat="43.57663" lon="1.26919">
        <ele>169.6</ele>
        <time>2025-12-19T08:25:28Z</time>
      </trkpt>
      <trkpt lat="43.57666" lon="1.26911">
        <ele>169.6</ele>
        <time>2025-12-19T08:25:29Z</time>
      </trkpt>
      <trkpt lat="43.57668" lon="1.26904">
        <ele>169.4</ele>
        <time>2025-12-19T08:25:30Z</time>
      </trkpt>
      <trkpt lat="43.5767" lon="1.26898">
        <ele>169.6</ele>
        <time>2025-12-19T08:25:31Z</time>
      </trkpt>
      <trkpt lat="43.57672" lon="1.26893">
        <ele>169.6</ele>
        <time>2025-12-19T08:25:32Z</time>
      </trkpt>
      <trkpt lat="43.57675" lon="1.26888">
        <ele>169.8</ele>
        <time>2025-12-19T08:25:33Z</time>
      </trkpt>
      <trkpt lat="43.57677" lon="1.26884">
        <ele>169.8</ele>
        <time>2025-12-19T08:25:34Z</time>
      </trkpt>
      <trkpt lat="43.57678" lon="1.26879">
        <ele>169.8</ele>
        <time>2025-12-19T08:25:35Z</time>
      </trkpt>
      <trkpt lat="43.57677" lon="1.26873">
        <ele>169.8</ele>
        <time>2025-12-19T08:25:36Z</time>
      </trkpt>
      <trkpt lat="43.57676" lon="1.26868">
        <ele>169.8</ele>
        <time>2025-12-19T08:25:37Z</time>
      </trkpt>
      <trkpt lat="43.57673" lon="1.26862">
        <ele>169.8</ele>
        <time>2025-12-19T08:25:38Z</time>
      </trkpt>
      <trkpt lat="43.5767" lon="1.26855">
        <ele>169.8</ele>
        <time>2025-12-19T08:25:39Z</time>
      </trkpt>
      <trkpt lat="43.57668" lon="1.26848">
        <ele>169.6</ele>
        <time>2025-12-19T08:25:40Z</time>
      </trkpt>
      <trkpt lat="43.57667" lon="1.26839">
        <ele>169.6</ele>
        <time>2025-12-19T08:25:41Z</time>
      </trkpt>
      <trkpt lat="43.57669" lon="1.26832">
        <ele>169.4</ele>
        <time>2025-12-19T08:25:42Z</time>
      </trkpt>
      <trkpt lat="43.57671" lon="1.26825">
        <ele>169.2</ele>
        <time>2025-12-19T08:25:43Z</time>
      </trkpt>
      <trkpt lat="43.57673" lon="1.26817">
        <ele>169.2</ele>
        <time>2025-12-19T08:25:44Z</time>
      </trkpt>
      <trkpt lat="43.57674" lon="1.2681">
        <ele>169.2</ele>
        <time>2025-12-19T08:25:45Z</time>
      </trkpt>
      <trkpt lat="43.57675" lon="1.26802">
        <ele>169.2</ele>
        <time>2025-12-19T08:25:46Z</time>
      </trkpt>
      <trkpt lat="43.57676" lon="1.26794">
        <ele>169.2</ele>
        <time>2025-12-19T08:25:47Z</time>
      </trkpt>
      <trkpt lat="43.57676" lon="1.26786">
        <ele>169.2</ele>
        <time>2025-12-19T08:25:48Z</time>
      </trkpt>
      <trkpt lat="43.57676" lon="1.26779">
        <ele>169.4</ele>
        <time>2025-12-19T08:25:49Z</time>
      </trkpt>
      <trkpt lat="43.57676" lon="1.26771">
        <ele>169.4</ele>
        <time>2025-12-19T08:25:50Z</time>
      </trkpt>
      <trkpt lat="43.57676" lon="1.26764">
        <ele>169.4</ele>
        <time>2025-12-19T08:25:51Z</time>
      </trkpt>
      <trkpt lat="43.57675" lon="1.26756">
        <ele>169.4</ele>
        <time>2025-12-19T08:25:52Z</time>
      </trkpt>
      <trkpt lat="43.57675" lon="1.26748">
        <ele>169.4</ele>
        <time>2025-12-19T08:25:53Z</time>
      </trkpt>
      <trkpt lat="43.57674" lon="1.26741">
        <ele>169.4</ele>
        <time>2025-12-19T08:25:54Z</time>
      </trkpt>
      <trkpt lat="43.57673" lon="1.26733">
        <ele>169.4</ele>
        <time>2025-12-19T08:25:55Z</time>
      </trkpt>
      <trkpt lat="43.57672" lon="1.26725">
        <ele>169.6</ele>
        <time>2025-12-19T08:25:56Z</time>
      </trkpt>
      <trkpt lat="43.57672" lon="1.26718">
        <ele>169.6</ele>
        <time>2025-12-19T08:25:57Z</time>
      </trkpt>
      <trkpt lat="43.57671" lon="1.2671">
        <ele>169.6</ele>
        <time>2025-12-19T08:25:58Z</time>
      </trkpt>
      <trkpt lat="43.5767" lon="1.26702">
        <ele>169.8</ele>
        <time>2025-12-19T08:25:59Z</time>
      </trkpt>
      <trkpt lat="43.5767" lon="1.26694">
        <ele>170</ele>
        <time>2025-12-19T08:26:00Z</time>
      </trkpt>
      <trkpt lat="43.57669" lon="1.26687">
        <ele>170</ele>
        <time>2025-12-19T08:26:01Z</time>
      </trkpt>
      <trkpt lat="43.57669" lon="1.2668">
        <ele>170.2</ele>
        <time>2025-12-19T08:26:02Z</time>
      </trkpt>
      <trkpt lat="43.57668" lon="1.26672">
        <ele>170.4</ele>
        <time>2025-12-19T08:26:03Z</time>
      </trkpt>
      <trkpt lat="43.57668" lon="1.26664">
        <ele>170.4</ele>
        <time>2025-12-19T08:26:04Z</time>
      </trkpt>
      <trkpt lat="43.57667" lon="1.26656">
        <ele>170.6</ele>
        <time>2025-12-19T08:26:05Z</time>
      </trkpt>
      <trkpt lat="43.57667" lon="1.2665">
        <ele>170.8</ele>
        <time>2025-12-19T08:26:06Z</time>
      </trkpt>
      <trkpt lat="43.57667" lon="1.26643">
        <ele>171</ele>
        <time>2025-12-19T08:26:07Z</time>
      </trkpt>
      <trkpt lat="43.57667" lon="1.26635">
        <ele>171</ele>
        <time>2025-12-19T08:26:08Z</time>
      </trkpt>
      <trkpt lat="43.57666" lon="1.26628">
        <ele>171.2</ele>
        <time>2025-12-19T08:26:09Z</time>
      </trkpt>
      <trkpt lat="43.57666" lon="1.26621">
        <ele>171.2</ele>
        <time>2025-12-19T08:26:10Z</time>
      </trkpt>
      <trkpt lat="43.57666" lon="1.26613">
        <ele>171.4</ele>
        <time>2025-12-19T08:26:11Z</time>
      </trkpt>
      <trkpt lat="43.57666" lon="1.26607">
        <ele>171.6</ele>
        <time>2025-12-19T08:26:12Z</time>
      </trkpt>
      <trkpt lat="43.57666" lon="1.26599">
        <ele>171.6</ele>
        <time>2025-12-19T08:26:13Z</time>
      </trkpt>
      <trkpt lat="43.57666" lon="1.26592">
        <ele>171.8</ele>
        <time>2025-12-19T08:26:14Z</time>
      </trkpt>
      <trkpt lat="43.57665" lon="1.26585">
        <ele>172.2</ele>
        <time>2025-12-19T08:26:15Z</time>
      </trkpt>
      <trkpt lat="43.57665" lon="1.26578">
        <ele>172.2</ele>
        <time>2025-12-19T08:26:16Z</time>
      </trkpt>
      <trkpt lat="43.57665" lon="1.26571">
        <ele>172.4</ele>
        <time>2025-12-19T08:26:17Z</time>
      </trkpt>
      <trkpt lat="43.57665" lon="1.26564">
        <ele>172.8</ele>
        <time>2025-12-19T08:26:18Z</time>
      </trkpt>
      <trkpt lat="43.57665" lon="1.26557">
        <ele>172.8</ele>
        <time>2025-12-19T08:26:19Z</time>
      </trkpt>
      <trkpt lat="43.57664" lon="1.26551">
        <ele>173.2</ele>
        <time>2025-12-19T08:26:20Z</time>
      </trkpt>
      <trkpt lat="43.57664" lon="1.26543">
        <ele>173.2</ele>
        <time>2025-12-19T08:26:21Z</time>
      </trkpt>
      <trkpt lat="43.57665" lon="1.26536">
        <ele>173.2</ele>
        <time>2025-12-19T08:26:22Z</time>
      </trkpt>
      <trkpt lat="43.57665" lon="1.26529">
        <ele>173.2</ele>
        <time>2025-12-19T08:26:23Z</time>
      </trkpt>
      <trkpt lat="43.57664" lon="1.26521">
        <ele>173.4</ele>
        <time>2025-12-19T08:26:24Z</time>
      </trkpt>
      <trkpt lat="43.57664" lon="1.26514">
        <ele>173.4</ele>
        <time>2025-12-19T08:26:25Z</time>
      </trkpt>
      <trkpt lat="43.57663" lon="1.26507">
        <ele>173.6</ele>
        <time>2025-12-19T08:26:26Z</time>
      </trkpt>
      <trkpt lat="43.57663" lon="1.265">
        <ele>173.6</ele>
        <time>2025-12-19T08:26:27Z</time>
      </trkpt>
      <trkpt lat="43.57663" lon="1.26492">
        <ele>173.8</ele>
        <time>2025-12-19T08:26:28Z</time>
      </trkpt>
      <trkpt lat="43.57663" lon="1.26485">
        <ele>174</ele>
        <time>2025-12-19T08:26:29Z</time>
      </trkpt>
      <trkpt lat="43.57663" lon="1.26478">
        <ele>174</ele>
        <time>2025-12-19T08:26:30Z</time>
      </trkpt>
      <trkpt lat="43.57662" lon="1.26472">
        <ele>174.2</ele>
        <time>2025-12-19T08:26:31Z</time>
      </trkpt>
      <trkpt lat="43.57663" lon="1.26465">
        <ele>174.2</ele>
        <time>2025-12-19T08:26:32Z</time>
      </trkpt>
      <trkpt lat="43.57662" lon="1.26459">
        <ele>174.4</ele>
        <time>2025-12-19T08:26:33Z</time>
      </trkpt>
      <trkpt lat="43.57662" lon="1.26452">
        <ele>174.4</ele>
        <time>2025-12-19T08:26:34Z</time>
      </trkpt>
      <trkpt lat="43.57662" lon="1.26444">
        <ele>174.4</ele>
        <time>2025-12-19T08:26:35Z</time>
      </trkpt>
      <trkpt lat="43.57662" lon="1.26438">
        <ele>174.6</ele>
        <time>2025-12-19T08:26:36Z</time>
      </trkpt>
      <trkpt lat="43.57662" lon="1.26431">
        <ele>174.6</ele>
        <time>2025-12-19T08:26:37Z</time>
      </trkpt>
      <trkpt lat="43.57662" lon="1.26424">
        <ele>174.8</ele>
        <time>2025-12-19T08:26:38Z</time>
      </trkpt>
      <trkpt lat="43.57662" lon="1.26417">
        <ele>175</ele>
        <time>2025-12-19T08:26:39Z</time>
      </trkpt>
      <trkpt lat="43.57661" lon="1.26411">
        <ele>175.2</ele>
        <time>2025-12-19T08:26:40Z</time>
      </trkpt>
      <trkpt lat="43.57661" lon="1.26404">
        <ele>175.4</ele>
        <time>2025-12-19T08:26:41Z</time>
      </trkpt>
      <trkpt lat="43.57661" lon="1.26397">
        <ele>175.6</ele>
        <time>2025-12-19T08:26:42Z</time>
      </trkpt>
      <trkpt lat="43.57661" lon="1.2639">
        <ele>175.6</ele>
        <time>2025-12-19T08:26:43Z</time>
      </trkpt>
      <trkpt lat="43.57661" lon="1.26383">
        <ele>176</ele>
        <time>2025-12-19T08:26:44Z</time>
      </trkpt>
      <trkpt lat="43.5766" lon="1.26376">
        <ele>176</ele>
        <time>2025-12-19T08:26:45Z</time>
      </trkpt>
      <trkpt lat="43.5766" lon="1.26369">
        <ele>176</ele>
        <time>2025-12-19T08:26:46Z</time>
      </trkpt>
      <trkpt lat="43.5766" lon="1.26362">
        <ele>176.2</ele>
        <time>2025-12-19T08:26:47Z</time>
      </trkpt>
      <trkpt lat="43.5766" lon="1.26355">
        <ele>176.4</ele>
        <time>2025-12-19T08:26:48Z</time>
      </trkpt>
      <trkpt lat="43.57659" lon="1.26348">
        <ele>176.4</ele>
        <time>2025-12-19T08:26:49Z</time>
      </trkpt>
      <trkpt lat="43.57659" lon="1.2634">
        <ele>176.6</ele>
        <time>2025-12-19T08:26:50Z</time>
      </trkpt>
      <trkpt lat="43.57659" lon="1.26333">
        <ele>176.8</ele>
        <time>2025-12-19T08:26:51Z</time>
      </trkpt>
      <trkpt lat="43.57659" lon="1.26326">
        <ele>176.8</ele>
        <time>2025-12-19T08:26:52Z</time>
      </trkpt>
      <trkpt lat="43.57658" lon="1.26318">
        <ele>176.8</ele>
        <time>2025-12-19T08:26:53Z</time>
      </trkpt>
      <trkpt lat="43.57658" lon="1.26311">
        <ele>176.8</ele>
        <time>2025-12-19T08:26:54Z</time>
      </trkpt>
      <trkpt lat="43.57658" lon="1.26304">
        <ele>176.6</ele>
        <time>2025-12-19T08:26:55Z</time>
      </trkpt>
      <trkpt lat="43.57658" lon="1.26296">
        <ele>176.6</ele>
        <time>2025-12-19T08:26:56Z</time>
      </trkpt>
      <trkpt lat="43.57658" lon="1.26288">
        <ele>176.8</ele>
        <time>2025-12-19T08:26:57Z</time>
      </trkpt>
      <trkpt lat="43.57658" lon="1.26281">
        <ele>176.8</ele>
        <time>2025-12-19T08:26:58Z</time>
      </trkpt>
      <trkpt lat="43.57658" lon="1.26273">
        <ele>176.8</ele>
        <time>2025-12-19T08:26:59Z</time>
      </trkpt>
      <trkpt lat="43.57658" lon="1.26265">
        <ele>177</ele>
        <time>2025-12-19T08:27:00Z</time>
      </trkpt>
      <trkpt lat="43.57658" lon="1.26257">
        <ele>177</ele>
        <time>2025-12-19T08:27:01Z</time>
      </trkpt>
      <trkpt lat="43.57658" lon="1.26249">
        <ele>177.2</ele>
        <time>2025-12-19T08:27:02Z</time>
      </trkpt>
      <trkpt lat="43.57657" lon="1.26241">
        <ele>177.2</ele>
        <time>2025-12-19T08:27:03Z</time>
      </trkpt>
      <trkpt lat="43.57657" lon="1.26233">
        <ele>177.4</ele>
        <time>2025-12-19T08:27:04Z</time>
      </trkpt>
      <trkpt lat="43.57657" lon="1.26225">
        <ele>177.4</ele>
        <time>2025-12-19T08:27:05Z</time>
      </trkpt>
      <trkpt lat="43.57657" lon="1.26217">
        <ele>177.4</ele>
        <time>2025-12-19T08:27:06Z</time>
      </trkpt>
      <trkpt lat="43.57657" lon="1.26209">
        <ele>177.4</ele>
        <time>2025-12-19T08:27:07Z</time>
      </trkpt>
      <trkpt lat="43.57657" lon="1.26201">
        <ele>177.4</ele>
        <time>2025-12-19T08:27:08Z</time>
      </trkpt>
      <trkpt lat="43.57656" lon="1.26194">
        <ele>177.2</ele>
        <time>2025-12-19T08:27:09Z</time>
      </trkpt>
      <trkpt lat="43.57656" lon="1.26186">
        <ele>177.2</ele>
        <time>2025-12-19T08:27:10Z</time>
      </trkpt>
      <trkpt lat="43.57656" lon="1.26178">
        <ele>177.2</ele>
        <time>2025-12-19T08:27:11Z</time>
      </trkpt>
      <trkpt lat="43.57656" lon="1.2617">
        <ele>177.4</ele>
        <time>2025-12-19T08:27:12Z</time>
      </trkpt>
      <trkpt lat="43.57656" lon="1.26162">
        <ele>177.4</ele>
        <time>2025-12-19T08:27:13Z</time>
      </trkpt>
      <trkpt lat="43.57655" lon="1.26154">
        <ele>177.4</ele>
        <time>2025-12-19T08:27:14Z</time>
      </trkpt>
      <trkpt lat="43.57655" lon="1.26147">
        <ele>177.4</ele>
        <time>2025-12-19T08:27:15Z</time>
      </trkpt>
      <trkpt lat="43.57655" lon="1.26139">
        <ele>177.4</ele>
        <time>2025-12-19T08:27:16Z</time>
      </trkpt>
      <trkpt lat="43.57655" lon="1.26132">
        <ele>177.4</ele>
        <time>2025-12-19T08:27:17Z</time>
      </trkpt>
      <trkpt lat="43.57655" lon="1.26125">
        <ele>177.4</ele>
        <time>2025-12-19T08:27:18Z</time>
      </trkpt>
      <trkpt lat="43.57654" lon="1.26118">
        <ele>177.4</ele>
        <time>2025-12-19T08:27:19Z</time>
      </trkpt>
      <trkpt lat="43.57654" lon="1.26111">
        <ele>177.6</ele>
        <time>2025-12-19T08:27:20Z</time>
      </trkpt>
      <trkpt lat="43.57653" lon="1.26103">
        <ele>177.8</ele>
        <time>2025-12-19T08:27:21Z</time>
      </trkpt>
      <trkpt lat="43.57653" lon="1.26095">
        <ele>177.8</ele>
        <time>2025-12-19T08:27:22Z</time>
      </trkpt>
      <trkpt lat="43.57653" lon="1.26088">
        <ele>178</ele>
        <time>2025-12-19T08:27:23Z</time>
      </trkpt>
      <trkpt lat="43.57653" lon="1.2608">
        <ele>178</ele>
        <time>2025-12-19T08:27:24Z</time>
      </trkpt>
      <trkpt lat="43.57653" lon="1.26073">
        <ele>178</ele>
        <time>2025-12-19T08:27:25Z</time>
      </trkpt>
      <trkpt lat="43.57653" lon="1.26066">
        <ele>178</ele>
        <time>2025-12-19T08:27:26Z</time>
      </trkpt>
      <trkpt lat="43.57654" lon="1.26058">
        <ele>178.2</ele>
        <time>2025-12-19T08:27:27Z</time>
      </trkpt>
      <trkpt lat="43.57654" lon="1.26051">
        <ele>178.2</ele>
        <time>2025-12-19T08:27:28Z</time>
      </trkpt>
      <trkpt lat="43.57653" lon="1.26044">
        <ele>178.2</ele>
        <time>2025-12-19T08:27:29Z</time>
      </trkpt>
      <trkpt lat="43.57653" lon="1.26036">
        <ele>178.2</ele>
        <time>2025-12-19T08:27:30Z</time>
      </trkpt>
      <trkpt lat="43.57653" lon="1.26029">
        <ele>178.4</ele>
        <time>2025-12-19T08:27:31Z</time>
      </trkpt>
      <trkpt lat="43.57654" lon="1.26021">
        <ele>178.2</ele>
        <time>2025-12-19T08:27:32Z</time>
      </trkpt>
      <trkpt lat="43.57654" lon="1.26014">
        <ele>178.4</ele>
        <time>2025-12-19T08:27:33Z</time>
      </trkpt>
      <trkpt lat="43.57653" lon="1.26007">
        <ele>178.6</ele>
        <time>2025-12-19T08:27:34Z</time>
      </trkpt>
      <trkpt lat="43.57653" lon="1.26">
        <ele>178.8</ele>
        <time>2025-12-19T08:27:35Z</time>
      </trkpt>
      <trkpt lat="43.57653" lon="1.25993">
        <ele>178.8</ele>
        <time>2025-12-19T08:27:36Z</time>
      </trkpt>
      <trkpt lat="43.57653" lon="1.25986">
        <ele>179</ele>
        <time>2025-12-19T08:27:37Z</time>
      </trkpt>
      <trkpt lat="43.57653" lon="1.25978">
        <ele>179</ele>
        <time>2025-12-19T08:27:38Z</time>
      </trkpt>
      <trkpt lat="43.57653" lon="1.25971">
        <ele>179</ele>
        <time>2025-12-19T08:27:39Z</time>
      </trkpt>
      <trkpt lat="43.57653" lon="1.25964">
        <ele>179</ele>
        <time>2025-12-19T08:27:40Z</time>
      </trkpt>
      <trkpt lat="43.57652" lon="1.25956">
        <ele>179.2</ele>
        <time>2025-12-19T08:27:41Z</time>
      </trkpt>
      <trkpt lat="43.57652" lon="1.25949">
        <ele>179.4</ele>
        <time>2025-12-19T08:27:42Z</time>
      </trkpt>
      <trkpt lat="43.57652" lon="1.25942">
        <ele>179.4</ele>
        <time>2025-12-19T08:27:43Z</time>
      </trkpt>
      <trkpt lat="43.57652" lon="1.25935">
        <ele>179.8</ele>
        <time>2025-12-19T08:27:44Z</time>
      </trkpt>
      <trkpt lat="43.57652" lon="1.25929">
        <ele>180</ele>
        <time>2025-12-19T08:27:45Z</time>
      </trkpt>
      <trkpt lat="43.57652" lon="1.25922">
        <ele>180.2</ele>
        <time>2025-12-19T08:27:46Z</time>
      </trkpt>
      <trkpt lat="43.57652" lon="1.25917">
        <ele>180.4</ele>
        <time>2025-12-19T08:27:47Z</time>
      </trkpt>
      <trkpt lat="43.57652" lon="1.25911">
        <ele>180.6</ele>
        <time>2025-12-19T08:27:48Z</time>
      </trkpt>
      <trkpt lat="43.57651" lon="1.25905">
        <ele>180.6</ele>
        <time>2025-12-19T08:27:49Z</time>
      </trkpt>
      <trkpt lat="43.57651" lon="1.25899">
        <ele>180.8</ele>
        <time>2025-12-19T08:27:50Z</time>
      </trkpt>
      <trkpt lat="43.5765" lon="1.25893">
        <ele>181</ele>
        <time>2025-12-19T08:27:51Z</time>
      </trkpt>
      <trkpt lat="43.5765" lon="1.25887">
        <ele>181.4</ele>
        <time>2025-12-19T08:27:52Z</time>
      </trkpt>
      <trkpt lat="43.57649" lon="1.25881">
        <ele>181.6</ele>
        <time>2025-12-19T08:27:53Z</time>
      </trkpt>
      <trkpt lat="43.57648" lon="1.25876">
        <ele>182</ele>
        <time>2025-12-19T08:27:54Z</time>
      </trkpt>
      <trkpt lat="43.57647" lon="1.2587">
        <ele>182.2</ele>
        <time>2025-12-19T08:27:55Z</time>
      </trkpt>
      <trkpt lat="43.57646" lon="1.25865">
        <ele>182.4</ele>
        <time>2025-12-19T08:27:56Z</time>
      </trkpt>
      <trkpt lat="43.57644" lon="1.2586">
        <ele>182.6</ele>
        <time>2025-12-19T08:27:57Z</time>
      </trkpt>
      <trkpt lat="43.57643" lon="1.25855">
        <ele>182.8</ele>
        <time>2025-12-19T08:27:58Z</time>
      </trkpt>
      <trkpt lat="43.57642" lon="1.25849">
        <ele>183.2</ele>
        <time>2025-12-19T08:27:59Z</time>
      </trkpt>
      <trkpt lat="43.5764" lon="1.25844">
        <ele>183.4</ele>
        <time>2025-12-19T08:28:00Z</time>
      </trkpt>
      <trkpt lat="43.57639" lon="1.25839">
        <ele>183.6</ele>
        <time>2025-12-19T08:28:01Z</time>
      </trkpt>
      <trkpt lat="43.57637" lon="1.25835">
        <ele>184</ele>
        <time>2025-12-19T08:28:02Z</time>
      </trkpt>
      <trkpt lat="43.57636" lon="1.25829">
        <ele>184.2</ele>
        <time>2025-12-19T08:28:03Z</time>
      </trkpt>
      <trkpt lat="43.57635" lon="1.25825">
        <ele>184.6</ele>
        <time>2025-12-19T08:28:04Z</time>
      </trkpt>
      <trkpt lat="43.57634" lon="1.25819">
        <ele>185</ele>
        <time>2025-12-19T08:28:05Z</time>
      </trkpt>
      <trkpt lat="43.57632" lon="1.25814">
        <ele>185.2</ele>
        <time>2025-12-19T08:28:06Z</time>
      </trkpt>
      <trkpt lat="43.57631" lon="1.25809">
        <ele>185.6</ele>
        <time>2025-12-19T08:28:07Z</time>
      </trkpt>
      <trkpt lat="43.5763" lon="1.25805">
        <ele>185.8</ele>
        <time>2025-12-19T08:28:08Z</time>
      </trkpt>
      <trkpt lat="43.57629" lon="1.258">
        <ele>186.2</ele>
        <time>2025-12-19T08:28:09Z</time>
      </trkpt>
      <trkpt lat="43.57629" lon="1.25795">
        <ele>186.6</ele>
        <time>2025-12-19T08:28:10Z</time>
      </trkpt>
      <trkpt lat="43.57628" lon="1.2579">
        <ele>187</ele>
        <time>2025-12-19T08:28:11Z</time>
      </trkpt>
      <trkpt lat="43.57627" lon="1.25784">
        <ele>187.2</ele>
        <time>2025-12-19T08:28:12Z</time>
      </trkpt>
      <trkpt lat="43.57626" lon="1.25779">
        <ele>187.4</ele>
        <time>2025-12-19T08:28:13Z</time>
      </trkpt>
      <trkpt lat="43.57626" lon="1.25773">
        <ele>187.6</ele>
        <time>2025-12-19T08:28:14Z</time>
      </trkpt>
      <trkpt lat="43.57625" lon="1.25768">
        <ele>188</ele>
        <time>2025-12-19T08:28:15Z</time>
      </trkpt>
      <trkpt lat="43.57625" lon="1.25763">
        <ele>188.2</ele>
        <time>2025-12-19T08:28:16Z</time>
      </trkpt>
      <trkpt lat="43.57624" lon="1.25757">
        <ele>188.6</ele>
        <time>2025-12-19T08:28:17Z</time>
      </trkpt>
      <trkpt lat="43.57623" lon="1.25753">
        <ele>188.8</ele>
        <time>2025-12-19T08:28:18Z</time>
      </trkpt>
      <trkpt lat="43.57622" lon="1.25748">
        <ele>188.8</ele>
        <time>2025-12-19T08:28:19Z</time>
      </trkpt>
      <trkpt lat="43.57621" lon="1.25742">
        <ele>189</ele>
        <time>2025-12-19T08:28:20Z</time>
      </trkpt>
      <trkpt lat="43.57621" lon="1.25738">
        <ele>189.2</ele>
        <time>2025-12-19T08:28:21Z</time>
      </trkpt>
      <trkpt lat="43.5762" lon="1.25733">
        <ele>189.4</ele>
        <time>2025-12-19T08:28:22Z</time>
      </trkpt>
      <trkpt lat="43.57619" lon="1.25727">
        <ele>189.6</ele>
        <time>2025-12-19T08:28:23Z</time>
      </trkpt>
      <trkpt lat="43.57618" lon="1.25722">
        <ele>189.6</ele>
        <time>2025-12-19T08:28:24Z</time>
      </trkpt>
      <trkpt lat="43.57617" lon="1.25716">
        <ele>189.8</ele>
        <time>2025-12-19T08:28:25Z</time>
      </trkpt>
      <trkpt lat="43.57617" lon="1.2571">
        <ele>190</ele>
        <time>2025-12-19T08:28:26Z</time>
      </trkpt>
      <trkpt lat="43.57617" lon="1.25704">
        <ele>190</ele>
        <time>2025-12-19T08:28:27Z</time>
      </trkpt>
      <trkpt lat="43.57617" lon="1.25698">
        <ele>190</ele>
        <time>2025-12-19T08:28:28Z</time>
      </trkpt>
      <trkpt lat="43.57615" lon="1.25692">
        <ele>190.2</ele>
        <time>2025-12-19T08:28:29Z</time>
      </trkpt>
      <trkpt lat="43.57612" lon="1.25688">
        <ele>190.2</ele>
        <time>2025-12-19T08:28:30Z</time>
      </trkpt>
      <trkpt lat="43.57608" lon="1.25686">
        <ele>190.2</ele>
        <time>2025-12-19T08:28:31Z</time>
      </trkpt>
      <trkpt lat="43.57604" lon="1.25686">
        <ele>190.4</ele>
        <time>2025-12-19T08:28:32Z</time>
      </trkpt>
      <trkpt lat="43.576" lon="1.25685">
        <ele>190.4</ele>
        <time>2025-12-19T08:28:33Z</time>
      </trkpt>
      <trkpt lat="43.57596" lon="1.25683">
        <ele>190.4</ele>
        <time>2025-12-19T08:28:34Z</time>
      </trkpt>
      <trkpt lat="43.57592" lon="1.25679">
        <ele>190.6</ele>
        <time>2025-12-19T08:28:35Z</time>
      </trkpt>
      <trkpt lat="43.57589" lon="1.25675">
        <ele>190.6</ele>
        <time>2025-12-19T08:28:36Z</time>
      </trkpt>
      <trkpt lat="43.57586" lon="1.2567">
        <ele>190.6</ele>
        <time>2025-12-19T08:28:37Z</time>
      </trkpt>
      <trkpt lat="43.57583" lon="1.25665">
        <ele>190.6</ele>
        <time>2025-12-19T08:28:38Z</time>
      </trkpt>
      <trkpt lat="43.5758" lon="1.2566">
        <ele>190.6</ele>
        <time>2025-12-19T08:28:39Z</time>
      </trkpt>
      <trkpt lat="43.57577" lon="1.25655">
        <ele>190.6</ele>
        <time>2025-12-19T08:28:40Z</time>
      </trkpt>
      <trkpt lat="43.57574" lon="1.25649">
        <ele>190.8</ele>
        <time>2025-12-19T08:28:41Z</time>
      </trkpt>
      <trkpt lat="43.57571" lon="1.25644">
        <ele>190.8</ele>
        <time>2025-12-19T08:28:42Z</time>
      </trkpt>
      <trkpt lat="43.57568" lon="1.25639">
        <ele>190.8</ele>
        <time>2025-12-19T08:28:43Z</time>
      </trkpt>
      <trkpt lat="43.57565" lon="1.25634">
        <ele>190.8</ele>
        <time>2025-12-19T08:28:44Z</time>
      </trkpt>
      <trkpt lat="43.57561" lon="1.25629">
        <ele>191</ele>
        <time>2025-12-19T08:28:45Z</time>
      </trkpt>
      <trkpt lat="43.57558" lon="1.25623">
        <ele>191</ele>
        <time>2025-12-19T08:28:46Z</time>
      </trkpt>
      <trkpt lat="43.57555" lon="1.25618">
        <ele>191.2</ele>
        <time>2025-12-19T08:28:47Z</time>
      </trkpt>
      <trkpt lat="43.57551" lon="1.25612">
        <ele>191.2</ele>
        <time>2025-12-19T08:28:48Z</time>
      </trkpt>
      <trkpt lat="43.57548" lon="1.25607">
        <ele>191.2</ele>
        <time>2025-12-19T08:28:49Z</time>
      </trkpt>
      <trkpt lat="43.57545" lon="1.25601">
        <ele>191.4</ele>
        <time>2025-12-19T08:28:50Z</time>
      </trkpt>
      <trkpt lat="43.57542" lon="1.25595">
        <ele>191.4</ele>
        <time>2025-12-19T08:28:51Z</time>
      </trkpt>
      <trkpt lat="43.57539" lon="1.25589">
        <ele>191.4</ele>
        <time>2025-12-19T08:28:52Z</time>
      </trkpt>
      <trkpt lat="43.57535" lon="1.25584">
        <ele>191.4</ele>
        <time>2025-12-19T08:28:53Z</time>
      </trkpt>
      <trkpt lat="43.57532" lon="1.25578">
        <ele>191.4</ele>
        <time>2025-12-19T08:28:54Z</time>
      </trkpt>
      <trkpt lat="43.57529" lon="1.25572">
        <ele>191.4</ele>
        <time>2025-12-19T08:28:55Z</time>
      </trkpt>
      <trkpt lat="43.57525" lon="1.25566">
        <ele>191.4</ele>
        <time>2025-12-19T08:28:56Z</time>
      </trkpt>
      <trkpt lat="43.57522" lon="1.2556">
        <ele>191.4</ele>
        <time>2025-12-19T08:28:57Z</time>
      </trkpt>
      <trkpt lat="43.57518" lon="1.25554">
        <ele>191.6</ele>
        <time>2025-12-19T08:28:58Z</time>
      </trkpt>
      <trkpt lat="43.57515" lon="1.25547">
        <ele>191.4</ele>
        <time>2025-12-19T08:28:59Z</time>
      </trkpt>
      <trkpt lat="43.57512" lon="1.25541">
        <ele>191.4</ele>
        <time>2025-12-19T08:29:00Z</time>
      </trkpt>
      <trkpt lat="43.57509" lon="1.25534">
        <ele>191.4</ele>
        <time>2025-12-19T08:29:01Z</time>
      </trkpt>
      <trkpt lat="43.57506" lon="1.25527">
        <ele>191.4</ele>
        <time>2025-12-19T08:29:02Z</time>
      </trkpt>
      <trkpt lat="43.57502" lon="1.25521">
        <ele>191.4</ele>
        <time>2025-12-19T08:29:03Z</time>
      </trkpt>
      <trkpt lat="43.57498" lon="1.25514">
        <ele>191.4</ele>
        <time>2025-12-19T08:29:04Z</time>
      </trkpt>
      <trkpt lat="43.57495" lon="1.25508">
        <ele>191.2</ele>
        <time>2025-12-19T08:29:05Z</time>
      </trkpt>
      <trkpt lat="43.57492" lon="1.25501">
        <ele>191.2</ele>
        <time>2025-12-19T08:29:06Z</time>
      </trkpt>
      <trkpt lat="43.57488" lon="1.25494">
        <ele>191.2</ele>
        <time>2025-12-19T08:29:07Z</time>
      </trkpt>
      <trkpt lat="43.57485" lon="1.25487">
        <ele>191.2</ele>
        <time>2025-12-19T08:29:08Z</time>
      </trkpt>
      <trkpt lat="43.57482" lon="1.2548">
        <ele>191.2</ele>
        <time>2025-12-19T08:29:09Z</time>
      </trkpt>
      <trkpt lat="43.57478" lon="1.25474">
        <ele>191.2</ele>
        <time>2025-12-19T08:29:10Z</time>
      </trkpt>
      <trkpt lat="43.57475" lon="1.25467">
        <ele>191.2</ele>
        <time>2025-12-19T08:29:11Z</time>
      </trkpt>
      <trkpt lat="43.57471" lon="1.25461">
        <ele>191.2</ele>
        <time>2025-12-19T08:29:12Z</time>
      </trkpt>
      <trkpt lat="43.57468" lon="1.25454">
        <ele>191.2</ele>
        <time>2025-12-19T08:29:13Z</time>
      </trkpt>
      <trkpt lat="43.57465" lon="1.25447">
        <ele>191.2</ele>
        <time>2025-12-19T08:29:14Z</time>
      </trkpt>
      <trkpt lat="43.57462" lon="1.2544">
        <ele>191.2</ele>
        <time>2025-12-19T08:29:15Z</time>
      </trkpt>
      <trkpt lat="43.57459" lon="1.25434">
        <ele>191.2</ele>
        <time>2025-12-19T08:29:16Z</time>
      </trkpt>
      <trkpt lat="43.57455" lon="1.25427">
        <ele>191.2</ele>
        <time>2025-12-19T08:29:17Z</time>
      </trkpt>
      <trkpt lat="43.57452" lon="1.25421">
        <ele>191.2</ele>
        <time>2025-12-19T08:29:18Z</time>
      </trkpt>
      <trkpt lat="43.57449" lon="1.25414">
        <ele>191.2</ele>
        <time>2025-12-19T08:29:19Z</time>
      </trkpt>
      <trkpt lat="43.57446" lon="1.25408">
        <ele>191.2</ele>
        <time>2025-12-19T08:29:20Z</time>
      </trkpt>
      <trkpt lat="43.57443" lon="1.25401">
        <ele>191.2</ele>
        <time>2025-12-19T08:29:21Z</time>
      </trkpt>
      <trkpt lat="43.5744" lon="1.25395">
        <ele>191.2</ele>
        <time>2025-12-19T08:29:22Z</time>
      </trkpt>
      <trkpt lat="43.57436" lon="1.25388">
        <ele>191.2</ele>
        <time>2025-12-19T08:29:23Z</time>
      </trkpt>
      <trkpt lat="43.57433" lon="1.25382">
        <ele>191.4</ele>
        <time>2025-12-19T08:29:24Z</time>
      </trkpt>
      <trkpt lat="43.5743" lon="1.25376">
        <ele>191.4</ele>
        <time>2025-12-19T08:29:25Z</time>
      </trkpt>
      <trkpt lat="43.57427" lon="1.25369">
        <ele>191.4</ele>
        <time>2025-12-19T08:29:26Z</time>
      </trkpt>
      <trkpt lat="43.57424" lon="1.25363">
        <ele>191.4</ele>
        <time>2025-12-19T08:29:27Z</time>
      </trkpt>
      <trkpt lat="43.5742" lon="1.25356">
        <ele>191.4</ele>
        <time>2025-12-19T08:29:28Z</time>
      </trkpt>
      <trkpt lat="43.57417" lon="1.2535">
        <ele>191.4</ele>
        <time>2025-12-19T08:29:29Z</time>
      </trkpt>
      <trkpt lat="43.57414" lon="1.25344">
        <ele>191.4</ele>
        <time>2025-12-19T08:29:30Z</time>
      </trkpt>
      <trkpt lat="43.57411" lon="1.25337">
        <ele>191.6</ele>
        <time>2025-12-19T08:29:31Z</time>
      </trkpt>
      <trkpt lat="43.57408" lon="1.2533">
        <ele>191.6</ele>
        <time>2025-12-19T08:29:32Z</time>
      </trkpt>
      <trkpt lat="43.57404" lon="1.25323">
        <ele>191.6</ele>
        <time>2025-12-19T08:29:33Z</time>
      </trkpt>
      <trkpt lat="43.57401" lon="1.25317">
        <ele>191.4</ele>
        <time>2025-12-19T08:29:34Z</time>
      </trkpt>
      <trkpt lat="43.57397" lon="1.2531">
        <ele>191.4</ele>
        <time>2025-12-19T08:29:35Z</time>
      </trkpt>
      <trkpt lat="43.57394" lon="1.25303">
        <ele>191.4</ele>
        <time>2025-12-19T08:29:36Z</time>
      </trkpt>
      <trkpt lat="43.57391" lon="1.25296">
        <ele>191.4</ele>
        <time>2025-12-19T08:29:37Z</time>
      </trkpt>
      <trkpt lat="43.57387" lon="1.25289">
        <ele>191.4</ele>
        <time>2025-12-19T08:29:38Z</time>
      </trkpt>
      <trkpt lat="43.57384" lon="1.25281">
        <ele>191.4</ele>
        <time>2025-12-19T08:29:39Z</time>
      </trkpt>
      <trkpt lat="43.5738" lon="1.25274">
        <ele>191.4</ele>
        <time>2025-12-19T08:29:40Z</time>
      </trkpt>
      <trkpt lat="43.57376" lon="1.25267">
        <ele>191.2</ele>
        <time>2025-12-19T08:29:41Z</time>
      </trkpt>
      <trkpt lat="43.57372" lon="1.2526">
        <ele>191.2</ele>
        <time>2025-12-19T08:29:42Z</time>
      </trkpt>
      <trkpt lat="43.57369" lon="1.25253">
        <ele>191.2</ele>
        <time>2025-12-19T08:29:43Z</time>
      </trkpt>
      <trkpt lat="43.57365" lon="1.25245">
        <ele>191.2</ele>
        <time>2025-12-19T08:29:44Z</time>
      </trkpt>
      <trkpt lat="43.57361" lon="1.25238">
        <ele>191</ele>
        <time>2025-12-19T08:29:45Z</time>
      </trkpt>
      <trkpt lat="43.57358" lon="1.2523">
        <ele>191</ele>
        <time>2025-12-19T08:29:46Z</time>
      </trkpt>
      <trkpt lat="43.57354" lon="1.25223">
        <ele>191</ele>
        <time>2025-12-19T08:29:47Z</time>
      </trkpt>
      <trkpt lat="43.57351" lon="1.25215">
        <ele>191</ele>
        <time>2025-12-19T08:29:48Z</time>
      </trkpt>
      <trkpt lat="43.57348" lon="1.25207">
        <ele>191</ele>
        <time>2025-12-19T08:29:49Z</time>
      </trkpt>
      <trkpt lat="43.57345" lon="1.252">
        <ele>190.8</ele>
        <time>2025-12-19T08:29:50Z</time>
      </trkpt>
      <trkpt lat="43.57343" lon="1.25192">
        <ele>190.8</ele>
        <time>2025-12-19T08:29:51Z</time>
      </trkpt>
      <trkpt lat="43.57341" lon="1.25184">
        <ele>190.8</ele>
        <time>2025-12-19T08:29:52Z</time>
      </trkpt>
      <trkpt lat="43.57339" lon="1.25175">
        <ele>190.8</ele>
        <time>2025-12-19T08:29:53Z</time>
      </trkpt>
      <trkpt lat="43.57337" lon="1.25167">
        <ele>190.8</ele>
        <time>2025-12-19T08:29:54Z</time>
      </trkpt>
      <trkpt lat="43.57335" lon="1.25159">
        <ele>190.8</ele>
        <time>2025-12-19T08:29:55Z</time>
      </trkpt>
      <trkpt lat="43.57333" lon="1.25151">
        <ele>190.8</ele>
        <time>2025-12-19T08:29:56Z</time>
      </trkpt>
      <trkpt lat="43.57331" lon="1.25143">
        <ele>190.8</ele>
        <time>2025-12-19T08:29:57Z</time>
      </trkpt>
      <trkpt lat="43.57329" lon="1.25134">
        <ele>190.8</ele>
        <time>2025-12-19T08:29:58Z</time>
      </trkpt>
      <trkpt lat="43.57327" lon="1.25126">
        <ele>190.8</ele>
        <time>2025-12-19T08:29:59Z</time>
      </trkpt>
      <trkpt lat="43.57326" lon="1.25118">
        <ele>191</ele>
        <time>2025-12-19T08:30:00Z</time>
      </trkpt>
      <trkpt lat="43.57324" lon="1.2511">
        <ele>191</ele>
        <time>2025-12-19T08:30:01Z</time>
      </trkpt>
      <trkpt lat="43.57322" lon="1.25102">
        <ele>191</ele>
        <time>2025-12-19T08:30:02Z</time>
      </trkpt>
      <trkpt lat="43.57319" lon="1.25093">
        <ele>191</ele>
        <time>2025-12-19T08:30:03Z</time>
      </trkpt>
      <trkpt lat="43.57316" lon="1.25086">
        <ele>191</ele>
        <time>2025-12-19T08:30:04Z</time>
      </trkpt>
      <trkpt lat="43.57313" lon="1.25078">
        <ele>191</ele>
        <time>2025-12-19T08:30:05Z</time>
      </trkpt>
      <trkpt lat="43.5731" lon="1.25071">
        <ele>191</ele>
        <time>2025-12-19T08:30:06Z</time>
      </trkpt>
      <trkpt lat="43.57306" lon="1.25065">
        <ele>191.2</ele>
        <time>2025-12-19T08:30:07Z</time>
      </trkpt>
      <trkpt lat="43.57302" lon="1.25059">
        <ele>191.2</ele>
        <time>2025-12-19T08:30:08Z</time>
      </trkpt>
      <trkpt lat="43.57298" lon="1.25053">
        <ele>191.2</ele>
        <time>2025-12-19T08:30:09Z</time>
      </trkpt>
      <trkpt lat="43.57293" lon="1.25047">
        <ele>191.2</ele>
        <time>2025-12-19T08:30:10Z</time>
      </trkpt>
      <trkpt lat="43.57289" lon="1.25042">
        <ele>191.2</ele>
        <time>2025-12-19T08:30:11Z</time>
      </trkpt>
      <trkpt lat="43.57284" lon="1.25037">
        <ele>191.2</ele>
        <time>2025-12-19T08:30:12Z</time>
      </trkpt>
      <trkpt lat="43.57279" lon="1.25032">
        <ele>191.2</ele>
        <time>2025-12-19T08:30:13Z</time>
      </trkpt>
      <trkpt lat="43.57273" lon="1.25028">
        <ele>191.4</ele>
        <time>2025-12-19T08:30:14Z</time>
      </trkpt>
      <trkpt lat="43.57268" lon="1.25023">
        <ele>191.4</ele>
        <time>2025-12-19T08:30:15Z</time>
      </trkpt>
      <trkpt lat="43.57263" lon="1.25019">
        <ele>191.4</ele>
        <time>2025-12-19T08:30:16Z</time>
      </trkpt>
      <trkpt lat="43.57257" lon="1.25015">
        <ele>191.6</ele>
        <time>2025-12-19T08:30:17Z</time>
      </trkpt>
      <trkpt lat="43.57252" lon="1.25011">
        <ele>191.6</ele>
        <time>2025-12-19T08:30:18Z</time>
      </trkpt>
      <trkpt lat="43.57247" lon="1.25007">
        <ele>191.6</ele>
        <time>2025-12-19T08:30:19Z</time>
      </trkpt>
      <trkpt lat="43.57242" lon="1.25002">
        <ele>191.6</ele>
        <time>2025-12-19T08:30:20Z</time>
      </trkpt>
      <trkpt lat="43.57237" lon="1.24998">
        <ele>191.8</ele>
        <time>2025-12-19T08:30:21Z</time>
      </trkpt>
      <trkpt lat="43.57231" lon="1.24994">
        <ele>191.8</ele>
        <time>2025-12-19T08:30:22Z</time>
      </trkpt>
      <trkpt lat="43.57226" lon="1.24989">
        <ele>191.8</ele>
        <time>2025-12-19T08:30:23Z</time>
      </trkpt>
      <trkpt lat="43.57221" lon="1.24984">
        <ele>191.8</ele>
        <time>2025-12-19T08:30:24Z</time>
      </trkpt>
      <trkpt lat="43.57216" lon="1.24979">
        <ele>191.8</ele>
        <time>2025-12-19T08:30:25Z</time>
      </trkpt>
      <trkpt lat="43.57211" lon="1.24973">
        <ele>192</ele>
        <time>2025-12-19T08:30:26Z</time>
      </trkpt>
      <trkpt lat="43.57207" lon="1.24967">
        <ele>192</ele>
        <time>2025-12-19T08:30:27Z</time>
      </trkpt>
      <trkpt lat="43.57203" lon="1.24961">
        <ele>192</ele>
        <time>2025-12-19T08:30:28Z</time>
      </trkpt>
      <trkpt lat="43.57199" lon="1.24954">
        <ele>192</ele>
        <time>2025-12-19T08:30:29Z</time>
      </trkpt>
      <trkpt lat="43.57195" lon="1.24947">
        <ele>192.2</ele>
        <time>2025-12-19T08:30:30Z</time>
      </trkpt>
      <trkpt lat="43.57191" lon="1.2494">
        <ele>192.2</ele>
        <time>2025-12-19T08:30:31Z</time>
      </trkpt>
      <trkpt lat="43.57187" lon="1.24934">
        <ele>192.4</ele>
        <time>2025-12-19T08:30:32Z</time>
      </trkpt>
      <trkpt lat="43.57184" lon="1.24927">
        <ele>192.4</ele>
        <time>2025-12-19T08:30:33Z</time>
      </trkpt>
      <trkpt lat="43.5718" lon="1.24921">
        <ele>192.4</ele>
        <time>2025-12-19T08:30:34Z</time>
      </trkpt>
      <trkpt lat="43.57176" lon="1.24914">
        <ele>192.4</ele>
        <time>2025-12-19T08:30:35Z</time>
      </trkpt>
      <trkpt lat="43.57172" lon="1.24907">
        <ele>192.4</ele>
        <time>2025-12-19T08:30:36Z</time>
      </trkpt>
      <trkpt lat="43.57169" lon="1.24901">
        <ele>192.6</ele>
        <time>2025-12-19T08:30:37Z</time>
      </trkpt>
      <trkpt lat="43.57165" lon="1.24894">
        <ele>192.6</ele>
        <time>2025-12-19T08:30:38Z</time>
      </trkpt>
      <trkpt lat="43.57161" lon="1.24888">
        <ele>192.6</ele>
        <time>2025-12-19T08:30:39Z</time>
      </trkpt>
      <trkpt lat="43.57157" lon="1.24881">
        <ele>192.6</ele>
        <time>2025-12-19T08:30:40Z</time>
      </trkpt>
      <trkpt lat="43.57154" lon="1.24874">
        <ele>192.6</ele>
        <time>2025-12-19T08:30:41Z</time>
      </trkpt>
      <trkpt lat="43.5715" lon="1.24867">
        <ele>192.6</ele>
        <time>2025-12-19T08:30:42Z</time>
      </trkpt>
      <trkpt lat="43.57146" lon="1.2486">
        <ele>192.6</ele>
        <time>2025-12-19T08:30:43Z</time>
      </trkpt>
      <trkpt lat="43.57142" lon="1.24853">
        <ele>192.8</ele>
        <time>2025-12-19T08:30:44Z</time>
      </trkpt>
      <trkpt lat="43.57138" lon="1.24846">
        <ele>192.8</ele>
        <time>2025-12-19T08:30:45Z</time>
      </trkpt>
      <trkpt lat="43.57135" lon="1.24839">
        <ele>192.8</ele>
        <time>2025-12-19T08:30:46Z</time>
      </trkpt>
      <trkpt lat="43.57131" lon="1.24833">
        <ele>192.6</ele>
        <time>2025-12-19T08:30:47Z</time>
      </trkpt>
      <trkpt lat="43.57127" lon="1.24826">
        <ele>192.8</ele>
        <time>2025-12-19T08:30:48Z</time>
      </trkpt>
      <trkpt lat="43.57123" lon="1.2482">
        <ele>192.6</ele>
        <time>2025-12-19T08:30:49Z</time>
      </trkpt>
      <trkpt lat="43.57119" lon="1.24814">
        <ele>192.6</ele>
        <time>2025-12-19T08:30:50Z</time>
      </trkpt>
      <trkpt lat="43.57115" lon="1.24808">
        <ele>192.6</ele>
        <time>2025-12-19T08:30:51Z</time>
      </trkpt>
      <trkpt lat="43.5711" lon="1.24803">
        <ele>192.6</ele>
        <time>2025-12-19T08:30:52Z</time>
      </trkpt>
      <trkpt lat="43.57106" lon="1.24797">
        <ele>192.6</ele>
        <time>2025-12-19T08:30:53Z</time>
      </trkpt>
      <trkpt lat="43.57102" lon="1.24791">
        <ele>192.6</ele>
        <time>2025-12-19T08:30:54Z</time>
      </trkpt>
      <trkpt lat="43.57098" lon="1.24785">
        <ele>192.6</ele>
        <time>2025-12-19T08:30:55Z</time>
      </trkpt>
      <trkpt lat="43.57093" lon="1.24779">
        <ele>192.6</ele>
        <time>2025-12-19T08:30:56Z</time>
      </trkpt>
      <trkpt lat="43.57089" lon="1.24773">
        <ele>192.6</ele>
        <time>2025-12-19T08:30:57Z</time>
      </trkpt>
      <trkpt lat="43.57085" lon="1.24767">
        <ele>192.6</ele>
        <time>2025-12-19T08:30:58Z</time>
      </trkpt>
      <trkpt lat="43.5708" lon="1.24761">
        <ele>192.6</ele>
        <time>2025-12-19T08:30:59Z</time>
      </trkpt>
      <trkpt lat="43.57076" lon="1.24755">
        <ele>192.6</ele>
        <time>2025-12-19T08:31:00Z</time>
      </trkpt>
      <trkpt lat="43.57072" lon="1.24749">
        <ele>192.6</ele>
        <time>2025-12-19T08:31:01Z</time>
      </trkpt>
      <trkpt lat="43.57068" lon="1.24743">
        <ele>192.6</ele>
        <time>2025-12-19T08:31:02Z</time>
      </trkpt>
      <trkpt lat="43.57064" lon="1.24737">
        <ele>192.6</ele>
        <time>2025-12-19T08:31:03Z</time>
      </trkpt>
      <trkpt lat="43.57059" lon="1.24731">
        <ele>192.8</ele>
        <time>2025-12-19T08:31:04Z</time>
      </trkpt>
      <trkpt lat="43.57055" lon="1.24725">
        <ele>192.8</ele>
        <time>2025-12-19T08:31:05Z</time>
      </trkpt>
      <trkpt lat="43.57051" lon="1.24719">
        <ele>192.8</ele>
        <time>2025-12-19T08:31:06Z</time>
      </trkpt>
      <trkpt lat="43.57047" lon="1.24713">
        <ele>192.8</ele>
        <time>2025-12-19T08:31:07Z</time>
      </trkpt>
      <trkpt lat="43.57044" lon="1.24706">
        <ele>193</ele>
        <time>2025-12-19T08:31:08Z</time>
      </trkpt>
      <trkpt lat="43.5704" lon="1.247">
        <ele>193</ele>
        <time>2025-12-19T08:31:09Z</time>
      </trkpt>
      <trkpt lat="43.57037" lon="1.24693">
        <ele>193</ele>
        <time>2025-12-19T08:31:10Z</time>
      </trkpt>
      <trkpt lat="43.57035" lon="1.24686">
        <ele>193.2</ele>
        <time>2025-12-19T08:31:11Z</time>
      </trkpt>
      <trkpt lat="43.57033" lon="1.24678">
        <ele>193.2</ele>
        <time>2025-12-19T08:31:12Z</time>
      </trkpt>
      <trkpt lat="43.57031" lon="1.24671">
        <ele>193.4</ele>
        <time>2025-12-19T08:31:13Z</time>
      </trkpt>
      <trkpt lat="43.57029" lon="1.24664">
        <ele>193.4</ele>
        <time>2025-12-19T08:31:14Z</time>
      </trkpt>
      <trkpt lat="43.57027" lon="1.24656">
        <ele>193.6</ele>
        <time>2025-12-19T08:31:15Z</time>
      </trkpt>
      <trkpt lat="43.57026" lon="1.24648">
        <ele>193.6</ele>
        <time>2025-12-19T08:31:16Z</time>
      </trkpt>
      <trkpt lat="43.57024" lon="1.2464">
        <ele>193.6</ele>
        <time>2025-12-19T08:31:17Z</time>
      </trkpt>
      <trkpt lat="43.57023" lon="1.24632">
        <ele>193.8</ele>
        <time>2025-12-19T08:31:18Z</time>
      </trkpt>
      <trkpt lat="43.57021" lon="1.24624">
        <ele>193.8</ele>
        <time>2025-12-19T08:31:19Z</time>
      </trkpt>
      <trkpt lat="43.5702" lon="1.24616">
        <ele>193.8</ele>
        <time>2025-12-19T08:31:20Z</time>
      </trkpt>
      <trkpt lat="43.57018" lon="1.24607">
        <ele>193.8</ele>
        <time>2025-12-19T08:31:21Z</time>
      </trkpt>
      <trkpt lat="43.57018" lon="1.24599">
        <ele>193.8</ele>
        <time>2025-12-19T08:31:22Z</time>
      </trkpt>
      <trkpt lat="43.57017" lon="1.24591">
        <ele>193.6</ele>
        <time>2025-12-19T08:31:23Z</time>
      </trkpt>
      <trkpt lat="43.57019" lon="1.24583">
        <ele>193.6</ele>
        <time>2025-12-19T08:31:24Z</time>
      </trkpt>
      <trkpt lat="43.57022" lon="1.24576">
        <ele>193.6</ele>
        <time>2025-12-19T08:31:25Z</time>
      </trkpt>
      <trkpt lat="43.57024" lon="1.24568">
        <ele>193.6</ele>
        <time>2025-12-19T08:31:26Z</time>
      </trkpt>
      <trkpt lat="43.57026" lon="1.24559">
        <ele>193.6</ele>
        <time>2025-12-19T08:31:27Z</time>
      </trkpt>
      <trkpt lat="43.57027" lon="1.24551">
        <ele>193.6</ele>
        <time>2025-12-19T08:31:28Z</time>
      </trkpt>
      <trkpt lat="43.57026" lon="1.24542">
        <ele>193.6</ele>
        <time>2025-12-19T08:31:29Z</time>
      </trkpt>
      <trkpt lat="43.57023" lon="1.24535">
        <ele>193.6</ele>
        <time>2025-12-19T08:31:30Z</time>
      </trkpt>
      <trkpt lat="43.57019" lon="1.24529">
        <ele>193.6</ele>
        <time>2025-12-19T08:31:31Z</time>
      </trkpt>
      <trkpt lat="43.57014" lon="1.24524">
        <ele>193.6</ele>
        <time>2025-12-19T08:31:32Z</time>
      </trkpt>
      <trkpt lat="43.57008" lon="1.24519">
        <ele>193.4</ele>
        <time>2025-12-19T08:31:33Z</time>
      </trkpt>
      <trkpt lat="43.57003" lon="1.24514">
        <ele>193.4</ele>
        <time>2025-12-19T08:31:34Z</time>
      </trkpt>
      <trkpt lat="43.56998" lon="1.24508">
        <ele>193.2</ele>
        <time>2025-12-19T08:31:35Z</time>
      </trkpt>
      <trkpt lat="43.56994" lon="1.24501">
        <ele>193.2</ele>
        <time>2025-12-19T08:31:36Z</time>
      </trkpt>
      <trkpt lat="43.56991" lon="1.24492">
        <ele>193</ele>
        <time>2025-12-19T08:31:37Z</time>
      </trkpt>
      <trkpt lat="43.56988" lon="1.24485">
        <ele>193</ele>
        <time>2025-12-19T08:31:38Z</time>
      </trkpt>
      <trkpt lat="43.56986" lon="1.24477">
        <ele>193</ele>
        <time>2025-12-19T08:31:39Z</time>
      </trkpt>
      <trkpt lat="43.56983" lon="1.24469">
        <ele>192.8</ele>
        <time>2025-12-19T08:31:40Z</time>
      </trkpt>
      <trkpt lat="43.56981" lon="1.24461">
        <ele>193</ele>
        <time>2025-12-19T08:31:41Z</time>
      </trkpt>
      <trkpt lat="43.56979" lon="1.24454">
        <ele>193</ele>
        <time>2025-12-19T08:31:42Z</time>
      </trkpt>
      <trkpt lat="43.56976" lon="1.24446">
        <ele>193.2</ele>
        <time>2025-12-19T08:31:43Z</time>
      </trkpt>
      <trkpt lat="43.56974" lon="1.24439">
        <ele>193.2</ele>
        <time>2025-12-19T08:31:44Z</time>
      </trkpt>
      <trkpt lat="43.56971" lon="1.24431">
        <ele>193.2</ele>
        <time>2025-12-19T08:31:45Z</time>
      </trkpt>
      <trkpt lat="43.56968" lon="1.24424">
        <ele>193.2</ele>
        <time>2025-12-19T08:31:46Z</time>
      </trkpt>
      <trkpt lat="43.56966" lon="1.24416">
        <ele>193.2</ele>
        <time>2025-12-19T08:31:47Z</time>
      </trkpt>
      <trkpt lat="43.56963" lon="1.24409">
        <ele>193.2</ele>
        <time>2025-12-19T08:31:48Z</time>
      </trkpt>
      <trkpt lat="43.56961" lon="1.24401">
        <ele>193.2</ele>
        <time>2025-12-19T08:31:49Z</time>
      </trkpt>
      <trkpt lat="43.56959" lon="1.24394">
        <ele>193.2</ele>
        <time>2025-12-19T08:31:50Z</time>
      </trkpt>
      <trkpt lat="43.56956" lon="1.24386">
        <ele>193.2</ele>
        <time>2025-12-19T08:31:51Z</time>
      </trkpt>
      <trkpt lat="43.56954" lon="1.24378">
        <ele>193.4</ele>
        <time>2025-12-19T08:31:52Z</time>
      </trkpt>
      <trkpt lat="43.56951" lon="1.24371">
        <ele>193.4</ele>
        <time>2025-12-19T08:31:53Z</time>
      </trkpt>
      <trkpt lat="43.56948" lon="1.24364">
        <ele>193.6</ele>
        <time>2025-12-19T08:31:54Z</time>
      </trkpt>
      <trkpt lat="43.56946" lon="1.24356">
        <ele>193.6</ele>
        <time>2025-12-19T08:31:55Z</time>
      </trkpt>
      <trkpt lat="43.56943" lon="1.24349">
        <ele>193.6</ele>
        <time>2025-12-19T08:31:56Z</time>
      </trkpt>
      <trkpt lat="43.56941" lon="1.24341">
        <ele>193.6</ele>
        <time>2025-12-19T08:31:57Z</time>
      </trkpt>
      <trkpt lat="43.56939" lon="1.24334">
        <ele>193.6</ele>
        <time>2025-12-19T08:31:58Z</time>
      </trkpt>
      <trkpt lat="43.56937" lon="1.24326">
        <ele>193.6</ele>
        <time>2025-12-19T08:31:59Z</time>
      </trkpt>
      <trkpt lat="43.56935" lon="1.24318">
        <ele>193.6</ele>
        <time>2025-12-19T08:32:00Z</time>
      </trkpt>
      <trkpt lat="43.56933" lon="1.2431">
        <ele>193.6</ele>
        <time>2025-12-19T08:32:01Z</time>
      </trkpt>
      <trkpt lat="43.56932" lon="1.24302">
        <ele>193.6</ele>
        <time>2025-12-19T08:32:02Z</time>
      </trkpt>
      <trkpt lat="43.5693" lon="1.24293">
        <ele>193.6</ele>
        <time>2025-12-19T08:32:03Z</time>
      </trkpt>
      <trkpt lat="43.56929" lon="1.24285">
        <ele>193.6</ele>
        <time>2025-12-19T08:32:04Z</time>
      </trkpt>
      <trkpt lat="43.56928" lon="1.24277">
        <ele>193.6</ele>
        <time>2025-12-19T08:32:05Z</time>
      </trkpt>
      <trkpt lat="43.56927" lon="1.24268">
        <ele>193.6</ele>
        <time>2025-12-19T08:32:06Z</time>
      </trkpt>
      <trkpt lat="43.56926" lon="1.24259">
        <ele>193.6</ele>
        <time>2025-12-19T08:32:07Z</time>
      </trkpt>
      <trkpt lat="43.56926" lon="1.2425">
        <ele>193.6</ele>
        <time>2025-12-19T08:32:08Z</time>
      </trkpt>
      <trkpt lat="43.56925" lon="1.24241">
        <ele>193.6</ele>
        <time>2025-12-19T08:32:09Z</time>
      </trkpt>
      <trkpt lat="43.56925" lon="1.24233">
        <ele>193.6</ele>
        <time>2025-12-19T08:32:10Z</time>
      </trkpt>
      <trkpt lat="43.56925" lon="1.24224">
        <ele>193.6</ele>
        <time>2025-12-19T08:32:11Z</time>
      </trkpt>
      <trkpt lat="43.56925" lon="1.24215">
        <ele>193.6</ele>
        <time>2025-12-19T08:32:12Z</time>
      </trkpt>
      <trkpt lat="43.56925" lon="1.24206">
        <ele>193.6</ele>
        <time>2025-12-19T08:32:13Z</time>
      </trkpt>
      <trkpt lat="43.56926" lon="1.24198">
        <ele>193.6</ele>
        <time>2025-12-19T08:32:14Z</time>
      </trkpt>
      <trkpt lat="43.56926" lon="1.24189">
        <ele>193.6</ele>
        <time>2025-12-19T08:32:15Z</time>
      </trkpt>
      <trkpt lat="43.56927" lon="1.24181">
        <ele>193.6</ele>
        <time>2025-12-19T08:32:16Z</time>
      </trkpt>
      <trkpt lat="43.56928" lon="1.24173">
        <ele>193.6</ele>
        <time>2025-12-19T08:32:17Z</time>
      </trkpt>
      <trkpt lat="43.56928" lon="1.24164">
        <ele>193.6</ele>
        <time>2025-12-19T08:32:18Z</time>
      </trkpt>
      <trkpt lat="43.56929" lon="1.24156">
        <ele>193.6</ele>
        <time>2025-12-19T08:32:19Z</time>
      </trkpt>
      <trkpt lat="43.56929" lon="1.24147">
        <ele>193.8</ele>
        <time>2025-12-19T08:32:20Z</time>
      </trkpt>
      <trkpt lat="43.5693" lon="1.24139">
        <ele>193.8</ele>
        <time>2025-12-19T08:32:21Z</time>
      </trkpt>
      <trkpt lat="43.5693" lon="1.2413">
        <ele>193.8</ele>
        <time>2025-12-19T08:32:22Z</time>
      </trkpt>
      <trkpt lat="43.56931" lon="1.24121">
        <ele>193.8</ele>
        <time>2025-12-19T08:32:23Z</time>
      </trkpt>
      <trkpt lat="43.56931" lon="1.24113">
        <ele>193.8</ele>
        <time>2025-12-19T08:32:24Z</time>
      </trkpt>
      <trkpt lat="43.56932" lon="1.24104">
        <ele>193.6</ele>
        <time>2025-12-19T08:32:25Z</time>
      </trkpt>
      <trkpt lat="43.56932" lon="1.24095">
        <ele>193.6</ele>
        <time>2025-12-19T08:32:26Z</time>
      </trkpt>
      <trkpt lat="43.56933" lon="1.24086">
        <ele>193.6</ele>
        <time>2025-12-19T08:32:27Z</time>
      </trkpt>
      <trkpt lat="43.56934" lon="1.24077">
        <ele>193.6</ele>
        <time>2025-12-19T08:32:28Z</time>
      </trkpt>
      <trkpt lat="43.56934" lon="1.24069">
        <ele>193.6</ele>
        <time>2025-12-19T08:32:29Z</time>
      </trkpt>
      <trkpt lat="43.56935" lon="1.2406">
        <ele>193.6</ele>
        <time>2025-12-19T08:32:30Z</time>
      </trkpt>
      <trkpt lat="43.56935" lon="1.24052">
        <ele>193.6</ele>
        <time>2025-12-19T08:32:31Z</time>
      </trkpt>
      <trkpt lat="43.56936" lon="1.24043">
        <ele>193.6</ele>
        <time>2025-12-19T08:32:32Z</time>
      </trkpt>
      <trkpt lat="43.56936" lon="1.24035">
        <ele>193.6</ele>
        <time>2025-12-19T08:32:33Z</time>
      </trkpt>
      <trkpt lat="43.56937" lon="1.24027">
        <ele>193.6</ele>
        <time>2025-12-19T08:32:34Z</time>
      </trkpt>
      <trkpt lat="43.56938" lon="1.24019">
        <ele>193.8</ele>
        <time>2025-12-19T08:32:35Z</time>
      </trkpt>
      <trkpt lat="43.56939" lon="1.2401">
        <ele>193.8</ele>
        <time>2025-12-19T08:32:36Z</time>
      </trkpt>
      <trkpt lat="43.56939" lon="1.24001">
        <ele>193.8</ele>
        <time>2025-12-19T08:32:37Z</time>
      </trkpt>
      <trkpt lat="43.56941" lon="1.23993">
        <ele>193.8</ele>
        <time>2025-12-19T08:32:38Z</time>
      </trkpt>
      <trkpt lat="43.56941" lon="1.23984">
        <ele>193.8</ele>
        <time>2025-12-19T08:32:39Z</time>
      </trkpt>
      <trkpt lat="43.56943" lon="1.23975">
        <ele>193.8</ele>
        <time>2025-12-19T08:32:40Z</time>
      </trkpt>
      <trkpt lat="43.56944" lon="1.23966">
        <ele>193.8</ele>
        <time>2025-12-19T08:32:41Z</time>
      </trkpt>
      <trkpt lat="43.56945" lon="1.23957">
        <ele>193.8</ele>
        <time>2025-12-19T08:32:42Z</time>
      </trkpt>
      <trkpt lat="43.56947" lon="1.23949">
        <ele>193.6</ele>
        <time>2025-12-19T08:32:43Z</time>
      </trkpt>
      <trkpt lat="43.56948" lon="1.2394">
        <ele>193.6</ele>
        <time>2025-12-19T08:32:44Z</time>
      </trkpt>
      <trkpt lat="43.5695" lon="1.23932">
        <ele>193.6</ele>
        <time>2025-12-19T08:32:45Z</time>
      </trkpt>
      <trkpt lat="43.56952" lon="1.23924">
        <ele>193.6</ele>
        <time>2025-12-19T08:32:46Z</time>
      </trkpt>
      <trkpt lat="43.56954" lon="1.23915">
        <ele>193.4</ele>
        <time>2025-12-19T08:32:47Z</time>
      </trkpt>
      <trkpt lat="43.56956" lon="1.23907">
        <ele>193.4</ele>
        <time>2025-12-19T08:32:48Z</time>
      </trkpt>
      <trkpt lat="43.56958" lon="1.23898">
        <ele>193.4</ele>
        <time>2025-12-19T08:32:49Z</time>
      </trkpt>
      <trkpt lat="43.5696" lon="1.2389">
        <ele>193.4</ele>
        <time>2025-12-19T08:32:50Z</time>
      </trkpt>
      <trkpt lat="43.56962" lon="1.23882">
        <ele>193.4</ele>
        <time>2025-12-19T08:32:51Z</time>
      </trkpt>
      <trkpt lat="43.56964" lon="1.23873">
        <ele>193.4</ele>
        <time>2025-12-19T08:32:52Z</time>
      </trkpt>
      <trkpt lat="43.56966" lon="1.23865">
        <ele>193.6</ele>
        <time>2025-12-19T08:32:53Z</time>
      </trkpt>
      <trkpt lat="43.56968" lon="1.23857">
        <ele>193.6</ele>
        <time>2025-12-19T08:32:54Z</time>
      </trkpt>
      <trkpt lat="43.5697" lon="1.23849">
        <ele>193.6</ele>
        <time>2025-12-19T08:32:55Z</time>
      </trkpt>
      <trkpt lat="43.56972" lon="1.2384">
        <ele>193.6</ele>
        <time>2025-12-19T08:32:56Z</time>
      </trkpt>
      <trkpt lat="43.56974" lon="1.23832">
        <ele>193.6</ele>
        <time>2025-12-19T08:32:57Z</time>
      </trkpt>
      <trkpt lat="43.56976" lon="1.23824">
        <ele>193.6</ele>
        <time>2025-12-19T08:32:58Z</time>
      </trkpt>
      <trkpt lat="43.56978" lon="1.23816">
        <ele>193.6</ele>
        <time>2025-12-19T08:32:59Z</time>
      </trkpt>
      <trkpt lat="43.5698" lon="1.23808">
        <ele>193.6</ele>
        <time>2025-12-19T08:33:00Z</time>
      </trkpt>
      <trkpt lat="43.56981" lon="1.23799">
        <ele>193.6</ele>
        <time>2025-12-19T08:33:01Z</time>
      </trkpt>
      <trkpt lat="43.56982" lon="1.23791">
        <ele>193.6</ele>
        <time>2025-12-19T08:33:02Z</time>
      </trkpt>
      <trkpt lat="43.56983" lon="1.23782">
        <ele>193.6</ele>
        <time>2025-12-19T08:33:03Z</time>
      </trkpt>
      <trkpt lat="43.56983" lon="1.23774">
        <ele>193.4</ele>
        <time>2025-12-19T08:33:04Z</time>
      </trkpt>
      <trkpt lat="43.56983" lon="1.23765">
        <ele>193.4</ele>
        <time>2025-12-19T08:33:05Z</time>
      </trkpt>
      <trkpt lat="43.56983" lon="1.23756">
        <ele>193.2</ele>
        <time>2025-12-19T08:33:06Z</time>
      </trkpt>
      <trkpt lat="43.56982" lon="1.23748">
        <ele>193.2</ele>
        <time>2025-12-19T08:33:07Z</time>
      </trkpt>
      <trkpt lat="43.56981" lon="1.23739">
        <ele>193</ele>
        <time>2025-12-19T08:33:08Z</time>
      </trkpt>
      <trkpt lat="43.5698" lon="1.23731">
        <ele>193</ele>
        <time>2025-12-19T08:33:09Z</time>
      </trkpt>
      <trkpt lat="43.56978" lon="1.23723">
        <ele>193</ele>
        <time>2025-12-19T08:33:10Z</time>
      </trkpt>
      <trkpt lat="43.56977" lon="1.23715">
        <ele>193</ele>
        <time>2025-12-19T08:33:11Z</time>
      </trkpt>
      <trkpt lat="43.56975" lon="1.23706">
        <ele>193</ele>
        <time>2025-12-19T08:33:12Z</time>
      </trkpt>
      <trkpt lat="43.56974" lon="1.23698">
        <ele>193</ele>
        <time>2025-12-19T08:33:13Z</time>
      </trkpt>
      <trkpt lat="43.56972" lon="1.2369">
        <ele>193</ele>
        <time>2025-12-19T08:33:14Z</time>
      </trkpt>
      <trkpt lat="43.56971" lon="1.23682">
        <ele>193.2</ele>
        <time>2025-12-19T08:33:15Z</time>
      </trkpt>
      <trkpt lat="43.56969" lon="1.23674">
        <ele>193.2</ele>
        <time>2025-12-19T08:33:16Z</time>
      </trkpt>
      <trkpt lat="43.56968" lon="1.23667">
        <ele>193.2</ele>
        <time>2025-12-19T08:33:17Z</time>
      </trkpt>
      <trkpt lat="43.56966" lon="1.23659">
        <ele>193.4</ele>
        <time>2025-12-19T08:33:18Z</time>
      </trkpt>
      <trkpt lat="43.56965" lon="1.23652">
        <ele>193.4</ele>
        <time>2025-12-19T08:33:19Z</time>
      </trkpt>
      <trkpt lat="43.56963" lon="1.23644">
        <ele>193.4</ele>
        <time>2025-12-19T08:33:20Z</time>
      </trkpt>
      <trkpt lat="43.56962" lon="1.23637">
        <ele>193.6</ele>
        <time>2025-12-19T08:33:21Z</time>
      </trkpt>
      <trkpt lat="43.56961" lon="1.23629">
        <ele>193.6</ele>
        <time>2025-12-19T08:33:22Z</time>
      </trkpt>
      <trkpt lat="43.5696" lon="1.23622">
        <ele>193.8</ele>
        <time>2025-12-19T08:33:23Z</time>
      </trkpt>
      <trkpt lat="43.56958" lon="1.23615">
        <ele>194</ele>
        <time>2025-12-19T08:33:24Z</time>
      </trkpt>
      <trkpt lat="43.56957" lon="1.23607">
        <ele>194</ele>
        <time>2025-12-19T08:33:25Z</time>
      </trkpt>
      <trkpt lat="43.56956" lon="1.236">
        <ele>194.2</ele>
        <time>2025-12-19T08:33:26Z</time>
      </trkpt>
      <trkpt lat="43.56955" lon="1.23593">
        <ele>194.2</ele>
        <time>2025-12-19T08:33:27Z</time>
      </trkpt>
      <trkpt lat="43.56953" lon="1.23586">
        <ele>194.2</ele>
        <time>2025-12-19T08:33:28Z</time>
      </trkpt>
      <trkpt lat="43.56951" lon="1.23579">
        <ele>194.4</ele>
        <time>2025-12-19T08:33:29Z</time>
      </trkpt>
      <trkpt lat="43.5695" lon="1.23571">
        <ele>194.4</ele>
        <time>2025-12-19T08:33:30Z</time>
      </trkpt>
      <trkpt lat="43.56949" lon="1.23564">
        <ele>194.6</ele>
        <time>2025-12-19T08:33:31Z</time>
      </trkpt>
      <trkpt lat="43.56948" lon="1.23557">
        <ele>194.6</ele>
        <time>2025-12-19T08:33:32Z</time>
      </trkpt>
      <trkpt lat="43.56946" lon="1.23549">
        <ele>194.8</ele>
        <time>2025-12-19T08:33:33Z</time>
      </trkpt>
      <trkpt lat="43.56945" lon="1.23541">
        <ele>194.8</ele>
        <time>2025-12-19T08:33:34Z</time>
      </trkpt>
      <trkpt lat="43.56944" lon="1.23534">
        <ele>194.8</ele>
        <time>2025-12-19T08:33:35Z</time>
      </trkpt>
      <trkpt lat="43.56942" lon="1.23526">
        <ele>195</ele>
        <time>2025-12-19T08:33:36Z</time>
      </trkpt>
      <trkpt lat="43.56941" lon="1.23519">
        <ele>195</ele>
        <time>2025-12-19T08:33:37Z</time>
      </trkpt>
      <trkpt lat="43.5694" lon="1.23511">
        <ele>195</ele>
        <time>2025-12-19T08:33:38Z</time>
      </trkpt>
      <trkpt lat="43.56938" lon="1.23504">
        <ele>195</ele>
        <time>2025-12-19T08:33:39Z</time>
      </trkpt>
      <trkpt lat="43.56937" lon="1.23496">
        <ele>195</ele>
        <time>2025-12-19T08:33:40Z</time>
      </trkpt>
      <trkpt lat="43.56936" lon="1.23489">
        <ele>195.2</ele>
        <time>2025-12-19T08:33:41Z</time>
      </trkpt>
      <trkpt lat="43.56935" lon="1.23481">
        <ele>195.2</ele>
        <time>2025-12-19T08:33:42Z</time>
      </trkpt>
      <trkpt lat="43.56934" lon="1.23473">
        <ele>195.4</ele>
        <time>2025-12-19T08:33:43Z</time>
      </trkpt>
      <trkpt lat="43.56933" lon="1.23466">
        <ele>195.4</ele>
        <time>2025-12-19T08:33:44Z</time>
      </trkpt>
      <trkpt lat="43.56932" lon="1.23458">
        <ele>195.6</ele>
        <time>2025-12-19T08:33:45Z</time>
      </trkpt>
      <trkpt lat="43.56931" lon="1.2345">
        <ele>195.6</ele>
        <time>2025-12-19T08:33:46Z</time>
      </trkpt>
      <trkpt lat="43.5693" lon="1.23443">
        <ele>195.8</ele>
        <time>2025-12-19T08:33:47Z</time>
      </trkpt>
      <trkpt lat="43.56929" lon="1.23435">
        <ele>195.8</ele>
        <time>2025-12-19T08:33:48Z</time>
      </trkpt>
      <trkpt lat="43.56929" lon="1.23427">
        <ele>196</ele>
        <time>2025-12-19T08:33:49Z</time>
      </trkpt>
      <trkpt lat="43.56928" lon="1.2342">
        <ele>196.2</ele>
        <time>2025-12-19T08:33:50Z</time>
      </trkpt>
      <trkpt lat="43.56927" lon="1.23412">
        <ele>196.2</ele>
        <time>2025-12-19T08:33:51Z</time>
      </trkpt>
      <trkpt lat="43.56927" lon="1.23405">
        <ele>196.4</ele>
        <time>2025-12-19T08:33:52Z</time>
      </trkpt>
      <trkpt lat="43.56926" lon="1.23397">
        <ele>196.6</ele>
        <time>2025-12-19T08:33:53Z</time>
      </trkpt>
      <trkpt lat="43.56926" lon="1.2339">
        <ele>196.6</ele>
        <time>2025-12-19T08:33:54Z</time>
      </trkpt>
      <trkpt lat="43.56925" lon="1.23382">
        <ele>196.8</ele>
        <time>2025-12-19T08:33:55Z</time>
      </trkpt>
      <trkpt lat="43.56925" lon="1.23375">
        <ele>197</ele>
        <time>2025-12-19T08:33:56Z</time>
      </trkpt>
      <trkpt lat="43.56924" lon="1.23367">
        <ele>197</ele>
        <time>2025-12-19T08:33:57Z</time>
      </trkpt>
      <trkpt lat="43.56924" lon="1.2336">
        <ele>197.2</ele>
        <time>2025-12-19T08:33:58Z</time>
      </trkpt>
      <trkpt lat="43.56924" lon="1.23353">
        <ele>197.2</ele>
        <time>2025-12-19T08:33:59Z</time>
      </trkpt>
      <trkpt lat="43.56924" lon="1.23346">
        <ele>197.4</ele>
        <time>2025-12-19T08:34:00Z</time>
      </trkpt>
      <trkpt lat="43.56923" lon="1.2334">
        <ele>197.4</ele>
        <time>2025-12-19T08:34:01Z</time>
      </trkpt>
      <trkpt lat="43.56922" lon="1.23333">
        <ele>197.6</ele>
        <time>2025-12-19T08:34:02Z</time>
      </trkpt>
      <trkpt lat="43.56919" lon="1.23328">
        <ele>197.6</ele>
        <time>2025-12-19T08:34:03Z</time>
      </trkpt>
      <trkpt lat="43.56915" lon="1.23324">
        <ele>197.8</ele>
        <time>2025-12-19T08:34:04Z</time>
      </trkpt>
      <trkpt lat="43.5691" lon="1.23323">
        <ele>197.8</ele>
        <time>2025-12-19T08:34:05Z</time>
      </trkpt>
      <trkpt lat="43.56905" lon="1.23323">
        <ele>197.8</ele>
        <time>2025-12-19T08:34:06Z</time>
      </trkpt>
      <trkpt lat="43.569" lon="1.23324">
        <ele>197.8</ele>
        <time>2025-12-19T08:34:07Z</time>
      </trkpt>
      <trkpt lat="43.56895" lon="1.23325">
        <ele>198</ele>
        <time>2025-12-19T08:34:08Z</time>
      </trkpt>
      <trkpt lat="43.56889" lon="1.23327">
        <ele>198</ele>
        <time>2025-12-19T08:34:09Z</time>
      </trkpt>
      <trkpt lat="43.56884" lon="1.23328">
        <ele>197.8</ele>
        <time>2025-12-19T08:34:10Z</time>
      </trkpt>
      <trkpt lat="43.56878" lon="1.23329">
        <ele>198</ele>
        <time>2025-12-19T08:34:11Z</time>
      </trkpt>
      <trkpt lat="43.56872" lon="1.2333">
        <ele>198</ele>
        <time>2025-12-19T08:34:12Z</time>
      </trkpt>
      <trkpt lat="43.56866" lon="1.23331">
        <ele>198</ele>
        <time>2025-12-19T08:34:13Z</time>
      </trkpt>
      <trkpt lat="43.56861" lon="1.23333">
        <ele>197.8</ele>
        <time>2025-12-19T08:34:14Z</time>
      </trkpt>
      <trkpt lat="43.56855" lon="1.23334">
        <ele>197.8</ele>
        <time>2025-12-19T08:34:15Z</time>
      </trkpt>
      <trkpt lat="43.56849" lon="1.23335">
        <ele>197.8</ele>
        <time>2025-12-19T08:34:16Z</time>
      </trkpt>
      <trkpt lat="43.56842" lon="1.23336">
        <ele>197.6</ele>
        <time>2025-12-19T08:34:17Z</time>
      </trkpt>
      <trkpt lat="43.56836" lon="1.23337">
        <ele>197.6</ele>
        <time>2025-12-19T08:34:18Z</time>
      </trkpt>
      <trkpt lat="43.5683" lon="1.23339">
        <ele>197.2</ele>
        <time>2025-12-19T08:34:19Z</time>
      </trkpt>
      <trkpt lat="43.56823" lon="1.23341">
        <ele>197</ele>
        <time>2025-12-19T08:34:20Z</time>
      </trkpt>
      <trkpt lat="43.56817" lon="1.23343">
        <ele>196.8</ele>
        <time>2025-12-19T08:34:21Z</time>
      </trkpt>
      <trkpt lat="43.5681" lon="1.23344">
        <ele>196.6</ele>
        <time>2025-12-19T08:34:22Z</time>
      </trkpt>
      <trkpt lat="43.56804" lon="1.23344">
        <ele>196.4</ele>
        <time>2025-12-19T08:34:23Z</time>
      </trkpt>
      <trkpt lat="43.56798" lon="1.23344">
        <ele>196.2</ele>
        <time>2025-12-19T08:34:24Z</time>
      </trkpt>
      <trkpt lat="43.56792" lon="1.23345">
        <ele>196.2</ele>
        <time>2025-12-19T08:34:25Z</time>
      </trkpt>
      <trkpt lat="43.56786" lon="1.23345">
        <ele>196</ele>
        <time>2025-12-19T08:34:26Z</time>
      </trkpt>
      <trkpt lat="43.5678" lon="1.23346">
        <ele>196</ele>
        <time>2025-12-19T08:34:27Z</time>
      </trkpt>
      <trkpt lat="43.56774" lon="1.23347">
        <ele>195.8</ele>
        <time>2025-12-19T08:34:28Z</time>
      </trkpt>
      <trkpt lat="43.56768" lon="1.23347">
        <ele>195.8</ele>
        <time>2025-12-19T08:34:29Z</time>
      </trkpt>
      <trkpt lat="43.56762" lon="1.23347">
        <ele>195.8</ele>
        <time>2025-12-19T08:34:30Z</time>
      </trkpt>
      <trkpt lat="43.56756" lon="1.23348">
        <ele>195.8</ele>
        <time>2025-12-19T08:34:31Z</time>
      </trkpt>
      <trkpt lat="43.56751" lon="1.23348">
        <ele>195.8</ele>
        <time>2025-12-19T08:34:32Z</time>
      </trkpt>
      <trkpt lat="43.56745" lon="1.23348">
        <ele>196</ele>
        <time>2025-12-19T08:34:33Z</time>
      </trkpt>
      <trkpt lat="43.5674" lon="1.23349">
        <ele>196</ele>
        <time>2025-12-19T08:34:34Z</time>
      </trkpt>
      <trkpt lat="43.56734" lon="1.23349">
        <ele>196</ele>
        <time>2025-12-19T08:34:35Z</time>
      </trkpt>
      <trkpt lat="43.56728" lon="1.23349">
        <ele>196.2</ele>
        <time>2025-12-19T08:34:36Z</time>
      </trkpt>
      <trkpt lat="43.56722" lon="1.23349">
        <ele>196.2</ele>
        <time>2025-12-19T08:34:37Z</time>
      </trkpt>
      <trkpt lat="43.56715" lon="1.23349">
        <ele>196</ele>
        <time>2025-12-19T08:34:38Z</time>
      </trkpt>
      <trkpt lat="43.56709" lon="1.2335">
        <ele>195.8</ele>
        <time>2025-12-19T08:34:39Z</time>
      </trkpt>
      <trkpt lat="43.56702" lon="1.2335">
        <ele>195.8</ele>
        <time>2025-12-19T08:34:40Z</time>
      </trkpt>
      <trkpt lat="43.56695" lon="1.2335">
        <ele>195.6</ele>
        <time>2025-12-19T08:34:41Z</time>
      </trkpt>
      <trkpt lat="43.56688" lon="1.2335">
        <ele>195.2</ele>
        <time>2025-12-19T08:34:42Z</time>
      </trkpt>
      <trkpt lat="43.56681" lon="1.2335">
        <ele>194.8</ele>
        <time>2025-12-19T08:34:43Z</time>
      </trkpt>
      <trkpt lat="43.56673" lon="1.2335">
        <ele>194.4</ele>
        <time>2025-12-19T08:34:44Z</time>
      </trkpt>
      <trkpt lat="43.56665" lon="1.2335">
        <ele>193.8</ele>
        <time>2025-12-19T08:34:45Z</time>
      </trkpt>
      <trkpt lat="43.56656" lon="1.2335">
        <ele>193</ele>
        <time>2025-12-19T08:34:46Z</time>
      </trkpt>
      <trkpt lat="43.56647" lon="1.2335">
        <ele>192.4</ele>
        <time>2025-12-19T08:34:47Z</time>
      </trkpt>
      <trkpt lat="43.56637" lon="1.23351">
        <ele>191.2</ele>
        <time>2025-12-19T08:34:48Z</time>
      </trkpt>
      <trkpt lat="43.56627" lon="1.23352">
        <ele>190</ele>
        <time>2025-12-19T08:34:49Z</time>
      </trkpt>
      <trkpt lat="43.56615" lon="1.23353">
        <ele>188.6</ele>
        <time>2025-12-19T08:34:50Z</time>
      </trkpt>
      <trkpt lat="43.56603" lon="1.23355">
        <ele>186.8</ele>
        <time>2025-12-19T08:34:51Z</time>
      </trkpt>
      <trkpt lat="43.56591" lon="1.23357">
        <ele>186</ele>
        <time>2025-12-19T08:34:52Z</time>
      </trkpt>
      <trkpt lat="43.56579" lon="1.23358">
        <ele>184.6</ele>
        <time>2025-12-19T08:34:53Z</time>
      </trkpt>
      <trkpt lat="43.56567" lon="1.23358">
        <ele>183.4</ele>
        <time>2025-12-19T08:34:54Z</time>
      </trkpt>
      <trkpt lat="43.56554" lon="1.23358">
        <ele>182.4</ele>
        <time>2025-12-19T08:34:55Z</time>
      </trkpt>
      <trkpt lat="43.56543" lon="1.23358">
        <ele>181.4</ele>
        <time>2025-12-19T08:34:56Z</time>
      </trkpt>
      <trkpt lat="43.56531" lon="1.23357">
        <ele>180.8</ele>
        <time>2025-12-19T08:34:57Z</time>
      </trkpt>
      <trkpt lat="43.5652" lon="1.23355">
        <ele>180.4</ele>
        <time>2025-12-19T08:34:58Z</time>
      </trkpt>
      <trkpt lat="43.5651" lon="1.23354">
        <ele>180.2</ele>
        <time>2025-12-19T08:34:59Z</time>
      </trkpt>
      <trkpt lat="43.565" lon="1.23352">
        <ele>180</ele>
        <time>2025-12-19T08:35:00Z</time>
      </trkpt>
      <trkpt lat="43.56491" lon="1.2335">
        <ele>180</ele>
        <time>2025-12-19T08:35:01Z</time>
      </trkpt>
      <trkpt lat="43.56482" lon="1.23348">
        <ele>180</ele>
        <time>2025-12-19T08:35:02Z</time>
      </trkpt>
      <trkpt lat="43.56473" lon="1.23346">
        <ele>180</ele>
        <time>2025-12-19T08:35:03Z</time>
      </trkpt>
      <trkpt lat="43.56465" lon="1.23343">
        <ele>180</ele>
        <time>2025-12-19T08:35:04Z</time>
      </trkpt>
      <trkpt lat="43.56457" lon="1.23341">
        <ele>180</ele>
        <time>2025-12-19T08:35:05Z</time>
      </trkpt>
      <trkpt lat="43.56449" lon="1.23339">
        <ele>180.2</ele>
        <time>2025-12-19T08:35:06Z</time>
      </trkpt>
      <trkpt lat="43.56442" lon="1.23337">
        <ele>180.2</ele>
        <time>2025-12-19T08:35:07Z</time>
      </trkpt>
      <trkpt lat="43.56435" lon="1.23335">
        <ele>180.4</ele>
        <time>2025-12-19T08:35:08Z</time>
      </trkpt>
      <trkpt lat="43.56428" lon="1.23333">
        <ele>180.6</ele>
        <time>2025-12-19T08:35:09Z</time>
      </trkpt>
      <trkpt lat="43.56422" lon="1.2333">
        <ele>180.6</ele>
        <time>2025-12-19T08:35:10Z</time>
      </trkpt>
      <trkpt lat="43.56415" lon="1.23329">
        <ele>181</ele>
        <time>2025-12-19T08:35:11Z</time>
      </trkpt>
      <trkpt lat="43.56409" lon="1.23327">
        <ele>181</ele>
        <time>2025-12-19T08:35:12Z</time>
      </trkpt>
      <trkpt lat="43.56403" lon="1.23326">
        <ele>181.2</ele>
        <time>2025-12-19T08:35:13Z</time>
      </trkpt>
      <trkpt lat="43.56397" lon="1.23324">
        <ele>181.4</ele>
        <time>2025-12-19T08:35:14Z</time>
      </trkpt>
      <trkpt lat="43.56392" lon="1.23322">
        <ele>181.6</ele>
        <time>2025-12-19T08:35:15Z</time>
      </trkpt>
      <trkpt lat="43.56386" lon="1.2332">
        <ele>181.8</ele>
        <time>2025-12-19T08:35:16Z</time>
      </trkpt>
      <trkpt lat="43.5638" lon="1.2332">
        <ele>181.8</ele>
        <time>2025-12-19T08:35:17Z</time>
      </trkpt>
      <trkpt lat="43.56374" lon="1.2332">
        <ele>182</ele>
        <time>2025-12-19T08:35:18Z</time>
      </trkpt>
      <trkpt lat="43.56368" lon="1.23321">
        <ele>181.8</ele>
        <time>2025-12-19T08:35:19Z</time>
      </trkpt>
      <trkpt lat="43.56361" lon="1.23322">
        <ele>181.8</ele>
        <time>2025-12-19T08:35:20Z</time>
      </trkpt>
      <trkpt lat="43.56355" lon="1.23324">
        <ele>181.8</ele>
        <time>2025-12-19T08:35:21Z</time>
      </trkpt>
      <trkpt lat="43.56348" lon="1.23325">
        <ele>181.8</ele>
        <time>2025-12-19T08:35:22Z</time>
      </trkpt>
      <trkpt lat="43.56342" lon="1.23326">
        <ele>181.6</ele>
        <time>2025-12-19T08:35:23Z</time>
      </trkpt>
      <trkpt lat="43.56336" lon="1.23326">
        <ele>181.6</ele>
        <time>2025-12-19T08:35:24Z</time>
      </trkpt>
      <trkpt lat="43.5633" lon="1.23327">
        <ele>181.6</ele>
        <time>2025-12-19T08:35:25Z</time>
      </trkpt>
      <trkpt lat="43.56323" lon="1.23327">
        <ele>181.4</ele>
        <time>2025-12-19T08:35:26Z</time>
      </trkpt>
      <trkpt lat="43.56317" lon="1.23326">
        <ele>181.4</ele>
        <time>2025-12-19T08:35:27Z</time>
      </trkpt>
      <trkpt lat="43.5631" lon="1.23325">
        <ele>181.4</ele>
        <time>2025-12-19T08:35:28Z</time>
      </trkpt>
      <trkpt lat="43.56304" lon="1.23324">
        <ele>181.4</ele>
        <time>2025-12-19T08:35:29Z</time>
      </trkpt>
      <trkpt lat="43.56298" lon="1.23322">
        <ele>181.4</ele>
        <time>2025-12-19T08:35:30Z</time>
      </trkpt>
      <trkpt lat="43.56293" lon="1.2332">
        <ele>181.6</ele>
        <time>2025-12-19T08:35:31Z</time>
      </trkpt>
      <trkpt lat="43.56287" lon="1.23318">
        <ele>181.6</ele>
        <time>2025-12-19T08:35:32Z</time>
      </trkpt>
      <trkpt lat="43.56282" lon="1.23316">
        <ele>181.8</ele>
        <time>2025-12-19T08:35:33Z</time>
      </trkpt>
      <trkpt lat="43.56277" lon="1.23314">
        <ele>182</ele>
        <time>2025-12-19T08:35:34Z</time>
      </trkpt>
      <trkpt lat="43.56273" lon="1.23312">
        <ele>182.4</ele>
        <time>2025-12-19T08:35:35Z</time>
      </trkpt>
      <trkpt lat="43.56268" lon="1.2331">
        <ele>182.6</ele>
        <time>2025-12-19T08:35:36Z</time>
      </trkpt>
      <trkpt lat="43.56263" lon="1.23308">
        <ele>183</ele>
        <time>2025-12-19T08:35:37Z</time>
      </trkpt>
      <trkpt lat="43.56259" lon="1.23307">
        <ele>183.2</ele>
        <time>2025-12-19T08:35:38Z</time>
      </trkpt>
      <trkpt lat="43.56255" lon="1.23306">
        <ele>183.6</ele>
        <time>2025-12-19T08:35:39Z</time>
      </trkpt>
      <trkpt lat="43.56252" lon="1.23305">
        <ele>183.8</ele>
        <time>2025-12-19T08:35:40Z</time>
      </trkpt>
      <trkpt lat="43.56247" lon="1.23304">
        <ele>184.2</ele>
        <time>2025-12-19T08:35:41Z</time>
      </trkpt>
      <trkpt lat="43.56243" lon="1.23303">
        <ele>184.4</ele>
        <time>2025-12-19T08:35:42Z</time>
      </trkpt>
      <trkpt lat="43.56239" lon="1.23302">
        <ele>184.8</ele>
        <time>2025-12-19T08:35:43Z</time>
      </trkpt>
      <trkpt lat="43.56236" lon="1.23301">
        <ele>185</ele>
        <time>2025-12-19T08:35:44Z</time>
      </trkpt>
      <trkpt lat="43.56233" lon="1.233">
        <ele>185.2</ele>
        <time>2025-12-19T08:35:45Z</time>
      </trkpt>
      <trkpt lat="43.56229" lon="1.23299">
        <ele>185.6</ele>
        <time>2025-12-19T08:35:46Z</time>
      </trkpt>
      <trkpt lat="43.56226" lon="1.23298">
        <ele>185.8</ele>
        <time>2025-12-19T08:35:47Z</time>
      </trkpt>
      <trkpt lat="43.56222" lon="1.23297">
        <ele>186.2</ele>
        <time>2025-12-19T08:35:48Z</time>
      </trkpt>
      <trkpt lat="43.56219" lon="1.23296">
        <ele>186.6</ele>
        <time>2025-12-19T08:35:49Z</time>
      </trkpt>
      <trkpt lat="43.56215" lon="1.23295">
        <ele>186.8</ele>
        <time>2025-12-19T08:35:50Z</time>
      </trkpt>
      <trkpt lat="43.56211" lon="1.23295">
        <ele>187.2</ele>
        <time>2025-12-19T08:35:51Z</time>
      </trkpt>
      <trkpt lat="43.56208" lon="1.23294">
        <ele>187.6</ele>
        <time>2025-12-19T08:35:52Z</time>
      </trkpt>
      <trkpt lat="43.56205" lon="1.23292">
        <ele>188</ele>
        <time>2025-12-19T08:35:53Z</time>
      </trkpt>
      <trkpt lat="43.56202" lon="1.23291">
        <ele>188.4</ele>
        <time>2025-12-19T08:35:54Z</time>
      </trkpt>
      <trkpt lat="43.56199" lon="1.2329">
        <ele>188.8</ele>
        <time>2025-12-19T08:35:55Z</time>
      </trkpt>
      <trkpt lat="43.56196" lon="1.23289">
        <ele>189.2</ele>
        <time>2025-12-19T08:35:56Z</time>
      </trkpt>
      <trkpt lat="43.56193" lon="1.23287">
        <ele>189.6</ele>
        <time>2025-12-19T08:35:57Z</time>
      </trkpt>
      <trkpt lat="43.5619" lon="1.23285">
        <ele>190</ele>
        <time>2025-12-19T08:35:58Z</time>
      </trkpt>
      <trkpt lat="43.56187" lon="1.23283">
        <ele>190.4</ele>
        <time>2025-12-19T08:35:59Z</time>
      </trkpt>
      <trkpt lat="43.56184" lon="1.23281">
        <ele>190.6</ele>
        <time>2025-12-19T08:36:00Z</time>
      </trkpt>
      <trkpt lat="43.56181" lon="1.23279">
        <ele>191</ele>
        <time>2025-12-19T08:36:01Z</time>
      </trkpt>
      <trkpt lat="43.56179" lon="1.23277">
        <ele>191.4</ele>
        <time>2025-12-19T08:36:02Z</time>
      </trkpt>
      <trkpt lat="43.56176" lon="1.23276">
        <ele>191.8</ele>
        <time>2025-12-19T08:36:03Z</time>
      </trkpt>
      <trkpt lat="43.56174" lon="1.23274">
        <ele>192.2</ele>
        <time>2025-12-19T08:36:04Z</time>
      </trkpt>
      <trkpt lat="43.56171" lon="1.23271">
        <ele>192.6</ele>
        <time>2025-12-19T08:36:05Z</time>
      </trkpt>
      <trkpt lat="43.56169" lon="1.23268">
        <ele>192.8</ele>
        <time>2025-12-19T08:36:06Z</time>
      </trkpt>
      <trkpt lat="43.56167" lon="1.23266">
        <ele>193.2</ele>
        <time>2025-12-19T08:36:07Z</time>
      </trkpt>
      <trkpt lat="43.56165" lon="1.23263">
        <ele>193.6</ele>
        <time>2025-12-19T08:36:08Z</time>
      </trkpt>
      <trkpt lat="43.56162" lon="1.2326">
        <ele>193.8</ele>
        <time>2025-12-19T08:36:09Z</time>
      </trkpt>
      <trkpt lat="43.5616" lon="1.23257">
        <ele>194.2</ele>
        <time>2025-12-19T08:36:10Z</time>
      </trkpt>
      <trkpt lat="43.56157" lon="1.23254">
        <ele>194.4</ele>
        <time>2025-12-19T08:36:11Z</time>
      </trkpt>
      <trkpt lat="43.56155" lon="1.23251">
        <ele>194.8</ele>
        <time>2025-12-19T08:36:12Z</time>
      </trkpt>
      <trkpt lat="43.56153" lon="1.23249">
        <ele>195.2</ele>
        <time>2025-12-19T08:36:13Z</time>
      </trkpt>
      <trkpt lat="43.5615" lon="1.23247">
        <ele>195.4</ele>
        <time>2025-12-19T08:36:14Z</time>
      </trkpt>
      <trkpt lat="43.56147" lon="1.23244">
        <ele>195.8</ele>
        <time>2025-12-19T08:36:15Z</time>
      </trkpt>
      <trkpt lat="43.56145" lon="1.23241">
        <ele>196</ele>
        <time>2025-12-19T08:36:16Z</time>
      </trkpt>
      <trkpt lat="43.56142" lon="1.23237">
        <ele>196.2</ele>
        <time>2025-12-19T08:36:17Z</time>
      </trkpt>
      <trkpt lat="43.5614" lon="1.23234">
        <ele>196.4</ele>
        <time>2025-12-19T08:36:18Z</time>
      </trkpt>
      <trkpt lat="43.56137" lon="1.23231">
        <ele>196.6</ele>
        <time>2025-12-19T08:36:19Z</time>
      </trkpt>
      <trkpt lat="43.56134" lon="1.23228">
        <ele>196.8</ele>
        <time>2025-12-19T08:36:20Z</time>
      </trkpt>
      <trkpt lat="43.56132" lon="1.23225">
        <ele>197</ele>
        <time>2025-12-19T08:36:21Z</time>
      </trkpt>
      <trkpt lat="43.56129" lon="1.23222">
        <ele>197.2</ele>
        <time>2025-12-19T08:36:22Z</time>
      </trkpt>
      <trkpt lat="43.56127" lon="1.23219">
        <ele>197.4</ele>
        <time>2025-12-19T08:36:23Z</time>
      </trkpt>
      <trkpt lat="43.56125" lon="1.23215">
        <ele>197.6</ele>
        <time>2025-12-19T08:36:24Z</time>
      </trkpt>
      <trkpt lat="43.56122" lon="1.23212">
        <ele>197.8</ele>
        <time>2025-12-19T08:36:25Z</time>
      </trkpt>
      <trkpt lat="43.5612" lon="1.23209">
        <ele>198</ele>
        <time>2025-12-19T08:36:26Z</time>
      </trkpt>
      <trkpt lat="43.56117" lon="1.23206">
        <ele>198.2</ele>
        <time>2025-12-19T08:36:27Z</time>
      </trkpt>
      <trkpt lat="43.56114" lon="1.23203">
        <ele>198.4</ele>
        <time>2025-12-19T08:36:28Z</time>
      </trkpt>
      <trkpt lat="43.56112" lon="1.232">
        <ele>198.6</ele>
        <time>2025-12-19T08:36:29Z</time>
      </trkpt>
      <trkpt lat="43.56109" lon="1.23197">
        <ele>198.8</ele>
        <time>2025-12-19T08:36:30Z</time>
      </trkpt>
      <trkpt lat="43.56106" lon="1.23193">
        <ele>198.8</ele>
        <time>2025-12-19T08:36:31Z</time>
      </trkpt>
      <trkpt lat="43.56103" lon="1.2319">
        <ele>198.8</ele>
        <time>2025-12-19T08:36:32Z</time>
      </trkpt>
      <trkpt lat="43.56101" lon="1.23186">
        <ele>199</ele>
        <time>2025-12-19T08:36:33Z</time>
      </trkpt>
      <trkpt lat="43.56098" lon="1.23183">
        <ele>199</ele>
        <time>2025-12-19T08:36:34Z</time>
      </trkpt>
      <trkpt lat="43.56095" lon="1.23178">
        <ele>199</ele>
        <time>2025-12-19T08:36:35Z</time>
      </trkpt>
      <trkpt lat="43.56093" lon="1.23173">
        <ele>199.2</ele>
        <time>2025-12-19T08:36:36Z</time>
      </trkpt>
      <trkpt lat="43.56093" lon="1.23167">
        <ele>199.2</ele>
        <time>2025-12-19T08:36:37Z</time>
      </trkpt>
      <trkpt lat="43.56094" lon="1.2316">
        <ele>199.2</ele>
        <time>2025-12-19T08:36:38Z</time>
      </trkpt>
      <trkpt lat="43.56095" lon="1.23154">
        <ele>199.4</ele>
        <time>2025-12-19T08:36:39Z</time>
      </trkpt>
      <trkpt lat="43.56097" lon="1.23149">
        <ele>199.4</ele>
        <time>2025-12-19T08:36:40Z</time>
      </trkpt>
      <trkpt lat="43.56099" lon="1.23144">
        <ele>199.4</ele>
        <time>2025-12-19T08:36:41Z</time>
      </trkpt>
      <trkpt lat="43.56101" lon="1.23138">
        <ele>199.4</ele>
        <time>2025-12-19T08:36:42Z</time>
      </trkpt>
      <trkpt lat="43.56104" lon="1.23133">
        <ele>199.4</ele>
        <time>2025-12-19T08:36:43Z</time>
      </trkpt>
      <trkpt lat="43.56107" lon="1.23127">
        <ele>199.4</ele>
        <time>2025-12-19T08:36:44Z</time>
      </trkpt>
      <trkpt lat="43.56109" lon="1.23121">
        <ele>199.4</ele>
        <time>2025-12-19T08:36:45Z</time>
      </trkpt>
      <trkpt lat="43.56112" lon="1.23114">
        <ele>199.2</ele>
        <time>2025-12-19T08:36:46Z</time>
      </trkpt>
      <trkpt lat="43.56115" lon="1.23108">
        <ele>199.2</ele>
        <time>2025-12-19T08:36:47Z</time>
      </trkpt>
      <trkpt lat="43.56118" lon="1.23102">
        <ele>199.2</ele>
        <time>2025-12-19T08:36:48Z</time>
      </trkpt>
      <trkpt lat="43.56121" lon="1.23096">
        <ele>199.2</ele>
        <time>2025-12-19T08:36:49Z</time>
      </trkpt>
      <trkpt lat="43.56124" lon="1.23089">
        <ele>199.2</ele>
        <time>2025-12-19T08:36:50Z</time>
      </trkpt>
      <trkpt lat="43.56127" lon="1.23083">
        <ele>199.2</ele>
        <time>2025-12-19T08:36:51Z</time>
      </trkpt>
      <trkpt lat="43.5613" lon="1.23076">
        <ele>199.2</ele>
        <time>2025-12-19T08:36:52Z</time>
      </trkpt>
      <trkpt lat="43.56133" lon="1.2307">
        <ele>199</ele>
        <time>2025-12-19T08:36:53Z</time>
      </trkpt>
      <trkpt lat="43.56135" lon="1.23063">
        <ele>199</ele>
        <time>2025-12-19T08:36:54Z</time>
      </trkpt>
      <trkpt lat="43.56138" lon="1.23056">
        <ele>199</ele>
        <time>2025-12-19T08:36:55Z</time>
      </trkpt>
      <trkpt lat="43.56141" lon="1.23049">
        <ele>199</ele>
        <time>2025-12-19T08:36:56Z</time>
      </trkpt>
      <trkpt lat="43.56143" lon="1.23042">
        <ele>199</ele>
        <time>2025-12-19T08:36:57Z</time>
      </trkpt>
      <trkpt lat="43.56146" lon="1.23034">
        <ele>199</ele>
        <time>2025-12-19T08:36:58Z</time>
      </trkpt>
      <trkpt lat="43.56148" lon="1.23027">
        <ele>199</ele>
        <time>2025-12-19T08:36:59Z</time>
      </trkpt>
      <trkpt lat="43.5615" lon="1.23019">
        <ele>198.8</ele>
        <time>2025-12-19T08:37:00Z</time>
      </trkpt>
      <trkpt lat="43.56152" lon="1.23012">
        <ele>198.8</ele>
        <time>2025-12-19T08:37:01Z</time>
      </trkpt>
      <trkpt lat="43.56154" lon="1.23005">
        <ele>198.8</ele>
        <time>2025-12-19T08:37:02Z</time>
      </trkpt>
      <trkpt lat="43.56156" lon="1.22997">
        <ele>198.6</ele>
        <time>2025-12-19T08:37:03Z</time>
      </trkpt>
      <trkpt lat="43.56157" lon="1.2299">
        <ele>198.6</ele>
        <time>2025-12-19T08:37:04Z</time>
      </trkpt>
      <trkpt lat="43.56159" lon="1.22982">
        <ele>198.6</ele>
        <time>2025-12-19T08:37:05Z</time>
      </trkpt>
      <trkpt lat="43.5616" lon="1.22974">
        <ele>198.6</ele>
        <time>2025-12-19T08:37:06Z</time>
      </trkpt>
      <trkpt lat="43.56162" lon="1.22966">
        <ele>198.6</ele>
        <time>2025-12-19T08:37:07Z</time>
      </trkpt>
      <trkpt lat="43.56163" lon="1.22957">
        <ele>198.6</ele>
        <time>2025-12-19T08:37:08Z</time>
      </trkpt>
      <trkpt lat="43.56164" lon="1.22949">
        <ele>198.6</ele>
        <time>2025-12-19T08:37:09Z</time>
      </trkpt>
      <trkpt lat="43.56166" lon="1.22942">
        <ele>198.4</ele>
        <time>2025-12-19T08:37:10Z</time>
      </trkpt>
      <trkpt lat="43.56167" lon="1.22934">
        <ele>198.4</ele>
        <time>2025-12-19T08:37:11Z</time>
      </trkpt>
      <trkpt lat="43.56169" lon="1.22927">
        <ele>198.4</ele>
        <time>2025-12-19T08:37:12Z</time>
      </trkpt>
      <trkpt lat="43.56171" lon="1.22919">
        <ele>198.4</ele>
        <time>2025-12-19T08:37:13Z</time>
      </trkpt>
      <trkpt lat="43.56172" lon="1.22911">
        <ele>198.2</ele>
        <time>2025-12-19T08:37:14Z</time>
      </trkpt>
      <trkpt lat="43.56174" lon="1.22903">
        <ele>198.2</ele>
        <time>2025-12-19T08:37:15Z</time>
      </trkpt>
      <trkpt lat="43.56175" lon="1.22894">
        <ele>198.2</ele>
        <time>2025-12-19T08:37:16Z</time>
      </trkpt>
      <trkpt lat="43.56176" lon="1.22886">
        <ele>198</ele>
        <time>2025-12-19T08:37:17Z</time>
      </trkpt>
      <trkpt lat="43.56177" lon="1.22878">
        <ele>198</ele>
        <time>2025-12-19T08:37:18Z</time>
      </trkpt>
      <trkpt lat="43.56179" lon="1.22869">
        <ele>198</ele>
        <time>2025-12-19T08:37:19Z</time>
      </trkpt>
      <trkpt lat="43.5618" lon="1.22861">
        <ele>198</ele>
        <time>2025-12-19T08:37:20Z</time>
      </trkpt>
      <trkpt lat="43.56181" lon="1.22852">
        <ele>198</ele>
        <time>2025-12-19T08:37:21Z</time>
      </trkpt>
      <trkpt lat="43.56182" lon="1.22844">
        <ele>198</ele>
        <time>2025-12-19T08:37:22Z</time>
      </trkpt>
      <trkpt lat="43.56184" lon="1.22836">
        <ele>198</ele>
        <time>2025-12-19T08:37:23Z</time>
      </trkpt>
      <trkpt lat="43.56185" lon="1.22828">
        <ele>198.2</ele>
        <time>2025-12-19T08:37:24Z</time>
      </trkpt>
      <trkpt lat="43.56186" lon="1.22819">
        <ele>198</ele>
        <time>2025-12-19T08:37:25Z</time>
      </trkpt>
      <trkpt lat="43.56187" lon="1.22811">
        <ele>198.2</ele>
        <time>2025-12-19T08:37:26Z</time>
      </trkpt>
      <trkpt lat="43.56189" lon="1.22803">
        <ele>198.2</ele>
        <time>2025-12-19T08:37:27Z</time>
      </trkpt>
      <trkpt lat="43.56191" lon="1.22795">
        <ele>198.2</ele>
        <time>2025-12-19T08:37:28Z</time>
      </trkpt>
      <trkpt lat="43.56192" lon="1.22788">
        <ele>198.2</ele>
        <time>2025-12-19T08:37:29Z</time>
      </trkpt>
      <trkpt lat="43.56193" lon="1.2278">
        <ele>198.4</ele>
        <time>2025-12-19T08:37:30Z</time>
      </trkpt>
      <trkpt lat="43.56194" lon="1.22773">
        <ele>198.4</ele>
        <time>2025-12-19T08:37:31Z</time>
      </trkpt>
      <trkpt lat="43.56195" lon="1.22765">
        <ele>198.4</ele>
        <time>2025-12-19T08:37:32Z</time>
      </trkpt>
      <trkpt lat="43.56197" lon="1.22757">
        <ele>198.4</ele>
        <time>2025-12-19T08:37:33Z</time>
      </trkpt>
      <trkpt lat="43.56198" lon="1.2275">
        <ele>198.6</ele>
        <time>2025-12-19T08:37:34Z</time>
      </trkpt>
      <trkpt lat="43.56199" lon="1.22742">
        <ele>198.6</ele>
        <time>2025-12-19T08:37:35Z</time>
      </trkpt>
      <trkpt lat="43.562" lon="1.22735">
        <ele>198.6</ele>
        <time>2025-12-19T08:37:36Z</time>
      </trkpt>
      <trkpt lat="43.56201" lon="1.22728">
        <ele>198.6</ele>
        <time>2025-12-19T08:37:37Z</time>
      </trkpt>
      <trkpt lat="43.56202" lon="1.22721">
        <ele>198.6</ele>
        <time>2025-12-19T08:37:38Z</time>
      </trkpt>
      <trkpt lat="43.56203" lon="1.22715">
        <ele>198.8</ele>
        <time>2025-12-19T08:37:39Z</time>
      </trkpt>
      <trkpt lat="43.56204" lon="1.22709">
        <ele>198.8</ele>
        <time>2025-12-19T08:37:40Z</time>
      </trkpt>
      <trkpt lat="43.56205" lon="1.22703">
        <ele>198.8</ele>
        <time>2025-12-19T08:37:41Z</time>
      </trkpt>
      <trkpt lat="43.56205" lon="1.22696">
        <ele>199</ele>
        <time>2025-12-19T08:37:42Z</time>
      </trkpt>
      <trkpt lat="43.56205" lon="1.22689">
        <ele>199</ele>
        <time>2025-12-19T08:37:43Z</time>
      </trkpt>
      <trkpt lat="43.56206" lon="1.22682">
        <ele>198.8</ele>
        <time>2025-12-19T08:37:44Z</time>
      </trkpt>
      <trkpt lat="43.56207" lon="1.22675">
        <ele>199</ele>
        <time>2025-12-19T08:37:45Z</time>
      </trkpt>
      <trkpt lat="43.56208" lon="1.22667">
        <ele>198.8</ele>
        <time>2025-12-19T08:37:46Z</time>
      </trkpt>
      <trkpt lat="43.5621" lon="1.2266">
        <ele>198.8</ele>
        <time>2025-12-19T08:37:47Z</time>
      </trkpt>
      <trkpt lat="43.56212" lon="1.22652">
        <ele>198.6</ele>
        <time>2025-12-19T08:37:48Z</time>
      </trkpt>
      <trkpt lat="43.56213" lon="1.22645">
        <ele>198.8</ele>
        <time>2025-12-19T08:37:49Z</time>
      </trkpt>
      <trkpt lat="43.56215" lon="1.22636">
        <ele>198.6</ele>
        <time>2025-12-19T08:37:50Z</time>
      </trkpt>
      <trkpt lat="43.56216" lon="1.22628">
        <ele>198.6</ele>
        <time>2025-12-19T08:37:51Z</time>
      </trkpt>
      <trkpt lat="43.56217" lon="1.22619">
        <ele>198.6</ele>
        <time>2025-12-19T08:37:52Z</time>
      </trkpt>
      <trkpt lat="43.56218" lon="1.22611">
        <ele>198.6</ele>
        <time>2025-12-19T08:37:53Z</time>
      </trkpt>
      <trkpt lat="43.56219" lon="1.22602">
        <ele>198.6</ele>
        <time>2025-12-19T08:37:54Z</time>
      </trkpt>
      <trkpt lat="43.5622" lon="1.22594">
        <ele>198.6</ele>
        <time>2025-12-19T08:37:55Z</time>
      </trkpt>
      <trkpt lat="43.56222" lon="1.22586">
        <ele>198.6</ele>
        <time>2025-12-19T08:37:56Z</time>
      </trkpt>
      <trkpt lat="43.56223" lon="1.22578">
        <ele>198.4</ele>
        <time>2025-12-19T08:37:57Z</time>
      </trkpt>
      <trkpt lat="43.56224" lon="1.22569">
        <ele>198.4</ele>
        <time>2025-12-19T08:37:58Z</time>
      </trkpt>
      <trkpt lat="43.56225" lon="1.22561">
        <ele>198.4</ele>
        <time>2025-12-19T08:37:59Z</time>
      </trkpt>
      <trkpt lat="43.56226" lon="1.22552">
        <ele>198.2</ele>
        <time>2025-12-19T08:38:00Z</time>
      </trkpt>
      <trkpt lat="43.56227" lon="1.22543">
        <ele>198.2</ele>
        <time>2025-12-19T08:38:01Z</time>
      </trkpt>
      <trkpt lat="43.56229" lon="1.22534">
        <ele>198.2</ele>
        <time>2025-12-19T08:38:02Z</time>
      </trkpt>
      <trkpt lat="43.5623" lon="1.22526">
        <ele>198.2</ele>
        <time>2025-12-19T08:38:03Z</time>
      </trkpt>
      <trkpt lat="43.56231" lon="1.22517">
        <ele>198.2</ele>
        <time>2025-12-19T08:38:04Z</time>
      </trkpt>
      <trkpt lat="43.56233" lon="1.22509">
        <ele>198.2</ele>
        <time>2025-12-19T08:38:05Z</time>
      </trkpt>
      <trkpt lat="43.56234" lon="1.225">
        <ele>198.2</ele>
        <time>2025-12-19T08:38:06Z</time>
      </trkpt>
      <trkpt lat="43.56236" lon="1.22492">
        <ele>198.2</ele>
        <time>2025-12-19T08:38:07Z</time>
      </trkpt>
      <trkpt lat="43.56237" lon="1.22483">
        <ele>198.4</ele>
        <time>2025-12-19T08:38:08Z</time>
      </trkpt>
      <trkpt lat="43.56238" lon="1.22475">
        <ele>198.2</ele>
        <time>2025-12-19T08:38:09Z</time>
      </trkpt>
      <trkpt lat="43.56239" lon="1.22467">
        <ele>198.2</ele>
        <time>2025-12-19T08:38:10Z</time>
      </trkpt>
      <trkpt lat="43.5624" lon="1.2246">
        <ele>198.2</ele>
        <time>2025-12-19T08:38:11Z</time>
      </trkpt>
      <trkpt lat="43.56241" lon="1.22453">
        <ele>198.4</ele>
        <time>2025-12-19T08:38:12Z</time>
      </trkpt>
      <trkpt lat="43.56242" lon="1.22447">
        <ele>198.4</ele>
        <time>2025-12-19T08:38:13Z</time>
      </trkpt>
      <trkpt lat="43.56243" lon="1.2244">
        <ele>198.4</ele>
        <time>2025-12-19T08:38:14Z</time>
      </trkpt>
      <trkpt lat="43.56244" lon="1.22433">
        <ele>198.4</ele>
        <time>2025-12-19T08:38:15Z</time>
      </trkpt>
      <trkpt lat="43.56245" lon="1.22426">
        <ele>198.6</ele>
        <time>2025-12-19T08:38:16Z</time>
      </trkpt>
      <trkpt lat="43.56246" lon="1.22419">
        <ele>198.6</ele>
        <time>2025-12-19T08:38:17Z</time>
      </trkpt>
      <trkpt lat="43.56247" lon="1.22412">
        <ele>198.6</ele>
        <time>2025-12-19T08:38:18Z</time>
      </trkpt>
      <trkpt lat="43.56248" lon="1.22405">
        <ele>198.6</ele>
        <time>2025-12-19T08:38:19Z</time>
      </trkpt>
      <trkpt lat="43.56248" lon="1.22397">
        <ele>198.6</ele>
        <time>2025-12-19T08:38:20Z</time>
      </trkpt>
      <trkpt lat="43.56249" lon="1.2239">
        <ele>198.6</ele>
        <time>2025-12-19T08:38:21Z</time>
      </trkpt>
      <trkpt lat="43.5625" lon="1.22382">
        <ele>198.6</ele>
        <time>2025-12-19T08:38:22Z</time>
      </trkpt>
      <trkpt lat="43.56251" lon="1.22374">
        <ele>198.6</ele>
        <time>2025-12-19T08:38:23Z</time>
      </trkpt>
      <trkpt lat="43.56252" lon="1.22366">
        <ele>198.6</ele>
        <time>2025-12-19T08:38:24Z</time>
      </trkpt>
      <trkpt lat="43.56253" lon="1.22358">
        <ele>198.6</ele>
        <time>2025-12-19T08:38:25Z</time>
      </trkpt>
      <trkpt lat="43.56255" lon="1.22349">
        <ele>198.6</ele>
        <time>2025-12-19T08:38:26Z</time>
      </trkpt>
      <trkpt lat="43.56256" lon="1.2234">
        <ele>198.6</ele>
        <time>2025-12-19T08:38:27Z</time>
      </trkpt>
      <trkpt lat="43.56257" lon="1.22331">
        <ele>198.6</ele>
        <time>2025-12-19T08:38:28Z</time>
      </trkpt>
      <trkpt lat="43.56258" lon="1.22322">
        <ele>198.4</ele>
        <time>2025-12-19T08:38:29Z</time>
      </trkpt>
      <trkpt lat="43.56259" lon="1.22313">
        <ele>198.4</ele>
        <time>2025-12-19T08:38:30Z</time>
      </trkpt>
      <trkpt lat="43.56261" lon="1.22304">
        <ele>198.2</ele>
        <time>2025-12-19T08:38:31Z</time>
      </trkpt>
      <trkpt lat="43.56262" lon="1.22295">
        <ele>198.2</ele>
        <time>2025-12-19T08:38:32Z</time>
      </trkpt>
      <trkpt lat="43.56263" lon="1.22285">
        <ele>198</ele>
        <time>2025-12-19T08:38:33Z</time>
      </trkpt>
      <trkpt lat="43.56264" lon="1.22276">
        <ele>198</ele>
        <time>2025-12-19T08:38:34Z</time>
      </trkpt>
      <trkpt lat="43.56265" lon="1.22267">
        <ele>198</ele>
        <time>2025-12-19T08:38:35Z</time>
      </trkpt>
      <trkpt lat="43.56265" lon="1.22259">
        <ele>198</ele>
        <time>2025-12-19T08:38:36Z</time>
      </trkpt>
      <trkpt lat="43.56266" lon="1.2225">
        <ele>197.8</ele>
        <time>2025-12-19T08:38:37Z</time>
      </trkpt>
      <trkpt lat="43.56267" lon="1.22243">
        <ele>197.8</ele>
        <time>2025-12-19T08:38:38Z</time>
      </trkpt>
      <trkpt lat="43.56268" lon="1.22235">
        <ele>197.8</ele>
        <time>2025-12-19T08:38:39Z</time>
      </trkpt>
      <trkpt lat="43.56268" lon="1.22228">
        <ele>197.6</ele>
        <time>2025-12-19T08:38:40Z</time>
      </trkpt>
      <trkpt lat="43.56269" lon="1.2222">
        <ele>197.8</ele>
        <time>2025-12-19T08:38:41Z</time>
      </trkpt>
      <trkpt lat="43.5627" lon="1.22212">
        <ele>197.6</ele>
        <time>2025-12-19T08:38:42Z</time>
      </trkpt>
      <trkpt lat="43.5627" lon="1.22204">
        <ele>197.6</ele>
        <time>2025-12-19T08:38:43Z</time>
      </trkpt>
      <trkpt lat="43.56271" lon="1.22195">
        <ele>197.6</ele>
        <time>2025-12-19T08:38:44Z</time>
      </trkpt>
      <trkpt lat="43.56272" lon="1.22188">
        <ele>197.4</ele>
        <time>2025-12-19T08:38:45Z</time>
      </trkpt>
      <trkpt lat="43.56272" lon="1.2218">
        <ele>197.2</ele>
        <time>2025-12-19T08:38:46Z</time>
      </trkpt>
      <trkpt lat="43.56273" lon="1.22172">
        <ele>197.2</ele>
        <time>2025-12-19T08:38:47Z</time>
      </trkpt>
      <trkpt lat="43.56273" lon="1.22163">
        <ele>197</ele>
        <time>2025-12-19T08:38:48Z</time>
      </trkpt>
      <trkpt lat="43.56274" lon="1.22155">
        <ele>196.8</ele>
        <time>2025-12-19T08:38:49Z</time>
      </trkpt>
      <trkpt lat="43.56275" lon="1.22148">
        <ele>196.8</ele>
        <time>2025-12-19T08:38:50Z</time>
      </trkpt>
      <trkpt lat="43.56276" lon="1.2214">
        <ele>196.6</ele>
        <time>2025-12-19T08:38:51Z</time>
      </trkpt>
      <trkpt lat="43.56277" lon="1.22132">
        <ele>196.4</ele>
        <time>2025-12-19T08:38:52Z</time>
      </trkpt>
      <trkpt lat="43.56278" lon="1.22124">
        <ele>196.4</ele>
        <time>2025-12-19T08:38:53Z</time>
      </trkpt>
      <trkpt lat="43.56278" lon="1.22116">
        <ele>196.4</ele>
        <time>2025-12-19T08:38:54Z</time>
      </trkpt>
      <trkpt lat="43.56279" lon="1.22108">
        <ele>196.2</ele>
        <time>2025-12-19T08:38:55Z</time>
      </trkpt>
      <trkpt lat="43.56279" lon="1.221">
        <ele>196.2</ele>
        <time>2025-12-19T08:38:56Z</time>
      </trkpt>
      <trkpt lat="43.56279" lon="1.22092">
        <ele>196.2</ele>
        <time>2025-12-19T08:38:57Z</time>
      </trkpt>
      <trkpt lat="43.5628" lon="1.22084">
        <ele>196</ele>
        <time>2025-12-19T08:38:58Z</time>
      </trkpt>
      <trkpt lat="43.56281" lon="1.22076">
        <ele>195.8</ele>
        <time>2025-12-19T08:38:59Z</time>
      </trkpt>
      <trkpt lat="43.56281" lon="1.22068">
        <ele>195.6</ele>
        <time>2025-12-19T08:39:00Z</time>
      </trkpt>
      <trkpt lat="43.56282" lon="1.2206">
        <ele>195.2</ele>
        <time>2025-12-19T08:39:01Z</time>
      </trkpt>
      <trkpt lat="43.56282" lon="1.22051">
        <ele>195</ele>
        <time>2025-12-19T08:39:02Z</time>
      </trkpt>
      <trkpt lat="43.56282" lon="1.22041">
        <ele>194.4</ele>
        <time>2025-12-19T08:39:03Z</time>
      </trkpt>
      <trkpt lat="43.56282" lon="1.22031">
        <ele>194</ele>
        <time>2025-12-19T08:39:04Z</time>
      </trkpt>
      <trkpt lat="43.56282" lon="1.2202">
        <ele>193.4</ele>
        <time>2025-12-19T08:39:05Z</time>
      </trkpt>
      <trkpt lat="43.56282" lon="1.22009">
        <ele>192.6</ele>
        <time>2025-12-19T08:39:06Z</time>
      </trkpt>
      <trkpt lat="43.56282" lon="1.21998">
        <ele>192</ele>
        <time>2025-12-19T08:39:07Z</time>
      </trkpt>
      <trkpt lat="43.56281" lon="1.21986">
        <ele>191.4</ele>
        <time>2025-12-19T08:39:08Z</time>
      </trkpt>
      <trkpt lat="43.56281" lon="1.21975">
        <ele>191</ele>
        <time>2025-12-19T08:39:09Z</time>
      </trkpt>
      <trkpt lat="43.56279" lon="1.21963">
        <ele>190.4</ele>
        <time>2025-12-19T08:39:10Z</time>
      </trkpt>
      <trkpt lat="43.56278" lon="1.21953">
        <ele>190.2</ele>
        <time>2025-12-19T08:39:11Z</time>
      </trkpt>
      <trkpt lat="43.56276" lon="1.21942">
        <ele>189.8</ele>
        <time>2025-12-19T08:39:12Z</time>
      </trkpt>
      <trkpt lat="43.56273" lon="1.21932">
        <ele>189.6</ele>
        <time>2025-12-19T08:39:13Z</time>
      </trkpt>
      <trkpt lat="43.5627" lon="1.21923">
        <ele>189.6</ele>
        <time>2025-12-19T08:39:14Z</time>
      </trkpt>
      <trkpt lat="43.56267" lon="1.21914">
        <ele>189.6</ele>
        <time>2025-12-19T08:39:15Z</time>
      </trkpt>
      <trkpt lat="43.56265" lon="1.21904">
        <ele>189.6</ele>
        <time>2025-12-19T08:39:16Z</time>
      </trkpt>
      <trkpt lat="43.56262" lon="1.21896">
        <ele>189.4</ele>
        <time>2025-12-19T08:39:17Z</time>
      </trkpt>
      <trkpt lat="43.56259" lon="1.21887">
        <ele>189.4</ele>
        <time>2025-12-19T08:39:18Z</time>
      </trkpt>
      <trkpt lat="43.56256" lon="1.21879">
        <ele>189.6</ele>
        <time>2025-12-19T08:39:19Z</time>
      </trkpt>
      <trkpt lat="43.56253" lon="1.21871">
        <ele>189.6</ele>
        <time>2025-12-19T08:39:20Z</time>
      </trkpt>
      <trkpt lat="43.56251" lon="1.21864">
        <ele>189.6</ele>
        <time>2025-12-19T08:39:21Z</time>
      </trkpt>
      <trkpt lat="43.56248" lon="1.21856">
        <ele>189.8</ele>
        <time>2025-12-19T08:39:22Z</time>
      </trkpt>
      <trkpt lat="43.56245" lon="1.21849">
        <ele>189.8</ele>
        <time>2025-12-19T08:39:23Z</time>
      </trkpt>
      <trkpt lat="43.56243" lon="1.21842">
        <ele>190</ele>
        <time>2025-12-19T08:39:24Z</time>
      </trkpt>
      <trkpt lat="43.56242" lon="1.21835">
        <ele>190</ele>
        <time>2025-12-19T08:39:25Z</time>
      </trkpt>
      <trkpt lat="43.56243" lon="1.21827">
        <ele>190</ele>
        <time>2025-12-19T08:39:26Z</time>
      </trkpt>
      <trkpt lat="43.56246" lon="1.21821">
        <ele>190</ele>
        <time>2025-12-19T08:39:27Z</time>
      </trkpt>
      <trkpt lat="43.5625" lon="1.21815">
        <ele>189.8</ele>
        <time>2025-12-19T08:39:28Z</time>
      </trkpt>
      <trkpt lat="43.56256" lon="1.2181">
        <ele>189.4</ele>
        <time>2025-12-19T08:39:29Z</time>
      </trkpt>
      <trkpt lat="43.56262" lon="1.21805">
        <ele>189</ele>
        <time>2025-12-19T08:39:30Z</time>
      </trkpt>
      <trkpt lat="43.56269" lon="1.21799">
        <ele>188.4</ele>
        <time>2025-12-19T08:39:31Z</time>
      </trkpt>
      <trkpt lat="43.56276" lon="1.21794">
        <ele>187.8</ele>
        <time>2025-12-19T08:39:32Z</time>
      </trkpt>
      <trkpt lat="43.56283" lon="1.21788">
        <ele>187.2</ele>
        <time>2025-12-19T08:39:33Z</time>
      </trkpt>
      <trkpt lat="43.5629" lon="1.21783">
        <ele>186.6</ele>
        <time>2025-12-19T08:39:34Z</time>
      </trkpt>
      <trkpt lat="43.56297" lon="1.21777">
        <ele>186.2</ele>
        <time>2025-12-19T08:39:35Z</time>
      </trkpt>
      <trkpt lat="43.56304" lon="1.21772">
        <ele>185.8</ele>
        <time>2025-12-19T08:39:36Z</time>
      </trkpt>
      <trkpt lat="43.5631" lon="1.21769">
        <ele>185.6</ele>
        <time>2025-12-19T08:39:37Z</time>
      </trkpt>
      <trkpt lat="43.56317" lon="1.21769">
        <ele>185.6</ele>
        <time>2025-12-19T08:39:38Z</time>
      </trkpt>
      <trkpt lat="43.56323" lon="1.2177">
        <ele>185.6</ele>
        <time>2025-12-19T08:39:39Z</time>
      </trkpt>
      <trkpt lat="43.56328" lon="1.21772">
        <ele>185.8</ele>
        <time>2025-12-19T08:39:40Z</time>
      </trkpt>
      <trkpt lat="43.56334" lon="1.21774">
        <ele>186</ele>
        <time>2025-12-19T08:39:41Z</time>
      </trkpt>
      <trkpt lat="43.5634" lon="1.21776">
        <ele>186</ele>
        <time>2025-12-19T08:39:42Z</time>
      </trkpt>
      <trkpt lat="43.56345" lon="1.21776">
        <ele>186.2</ele>
        <time>2025-12-19T08:39:43Z</time>
      </trkpt>
      <trkpt lat="43.56351" lon="1.21776">
        <ele>186.2</ele>
        <time>2025-12-19T08:39:44Z</time>
      </trkpt>
      <trkpt lat="43.56357" lon="1.21774">
        <ele>186.2</ele>
        <time>2025-12-19T08:39:45Z</time>
      </trkpt>
      <trkpt lat="43.56363" lon="1.21769">
        <ele>186</ele>
        <time>2025-12-19T08:39:46Z</time>
      </trkpt>
      <trkpt lat="43.56368" lon="1.21763">
        <ele>186</ele>
        <time>2025-12-19T08:39:47Z</time>
      </trkpt>
      <trkpt lat="43.56372" lon="1.21756">
        <ele>185.8</ele>
        <time>2025-12-19T08:39:48Z</time>
      </trkpt>
      <trkpt lat="43.56373" lon="1.21748">
        <ele>185.6</ele>
        <time>2025-12-19T08:39:49Z</time>
      </trkpt>
      <trkpt lat="43.56375" lon="1.21741">
        <ele>185.6</ele>
        <time>2025-12-19T08:39:50Z</time>
      </trkpt>
      <trkpt lat="43.56377" lon="1.21734">
        <ele>185.8</ele>
        <time>2025-12-19T08:39:51Z</time>
      </trkpt>
      <trkpt lat="43.56378" lon="1.21727">
        <ele>186</ele>
        <time>2025-12-19T08:39:52Z</time>
      </trkpt>
      <trkpt lat="43.5638" lon="1.21719">
        <ele>186.2</ele>
        <time>2025-12-19T08:39:53Z</time>
      </trkpt>
      <trkpt lat="43.56381" lon="1.21712">
        <ele>186.6</ele>
        <time>2025-12-19T08:39:54Z</time>
      </trkpt>
      <trkpt lat="43.56382" lon="1.21705">
        <ele>187</ele>
        <time>2025-12-19T08:39:55Z</time>
      </trkpt>
      <trkpt lat="43.56383" lon="1.21699">
        <ele>187.4</ele>
        <time>2025-12-19T08:39:56Z</time>
      </trkpt>
      <trkpt lat="43.56384" lon="1.21693">
        <ele>187.8</ele>
        <time>2025-12-19T08:39:57Z</time>
      </trkpt>
      <trkpt lat="43.56385" lon="1.21688">
        <ele>188.4</ele>
        <time>2025-12-19T08:39:58Z</time>
      </trkpt>
      <trkpt lat="43.56385" lon="1.21683">
        <ele>188.8</ele>
        <time>2025-12-19T08:39:59Z</time>
      </trkpt>
      <trkpt lat="43.56386" lon="1.21678">
        <ele>189.4</ele>
        <time>2025-12-19T08:40:00Z</time>
      </trkpt>
      <trkpt lat="43.56386" lon="1.21673">
        <ele>189.8</ele>
        <time>2025-12-19T08:40:01Z</time>
      </trkpt>
      <trkpt lat="43.56387" lon="1.21668">
        <ele>190.4</ele>
        <time>2025-12-19T08:40:02Z</time>
      </trkpt>
      <trkpt lat="43.56387" lon="1.21664">
        <ele>190.8</ele>
        <time>2025-12-19T08:40:03Z</time>
      </trkpt>
      <trkpt lat="43.56387" lon="1.21659">
        <ele>191.2</ele>
        <time>2025-12-19T08:40:04Z</time>
      </trkpt>
      <trkpt lat="43.56387" lon="1.21654">
        <ele>191.6</ele>
        <time>2025-12-19T08:40:05Z</time>
      </trkpt>
      <trkpt lat="43.56388" lon="1.21649">
        <ele>192</ele>
        <time>2025-12-19T08:40:06Z</time>
      </trkpt>
      <trkpt lat="43.56388" lon="1.21644">
        <ele>192.4</ele>
        <time>2025-12-19T08:40:07Z</time>
      </trkpt>
      <trkpt lat="43.56389" lon="1.2164">
        <ele>192.8</ele>
        <time>2025-12-19T08:40:08Z</time>
      </trkpt>
      <trkpt lat="43.56389" lon="1.21635">
        <ele>193.2</ele>
        <time>2025-12-19T08:40:09Z</time>
      </trkpt>
      <trkpt lat="43.5639" lon="1.2163">
        <ele>193.6</ele>
        <time>2025-12-19T08:40:10Z</time>
      </trkpt>
      <trkpt lat="43.5639" lon="1.21626">
        <ele>194</ele>
        <time>2025-12-19T08:40:11Z</time>
      </trkpt>
      <trkpt lat="43.56391" lon="1.21622">
        <ele>194.2</ele>
        <time>2025-12-19T08:40:12Z</time>
      </trkpt>
      <trkpt lat="43.56391" lon="1.21618">
        <ele>194.6</ele>
        <time>2025-12-19T08:40:13Z</time>
      </trkpt>
      <trkpt lat="43.56392" lon="1.21614">
        <ele>195</ele>
        <time>2025-12-19T08:40:14Z</time>
      </trkpt>
      <trkpt lat="43.56392" lon="1.2161">
        <ele>195.4</ele>
        <time>2025-12-19T08:40:15Z</time>
      </trkpt>
      <trkpt lat="43.56392" lon="1.21606">
        <ele>195.8</ele>
        <time>2025-12-19T08:40:16Z</time>
      </trkpt>
      <trkpt lat="43.56392" lon="1.21602">
        <ele>196.2</ele>
        <time>2025-12-19T08:40:17Z</time>
      </trkpt>
      <trkpt lat="43.56392" lon="1.21598">
        <ele>196.4</ele>
        <time>2025-12-19T08:40:18Z</time>
      </trkpt>
      <trkpt lat="43.56391" lon="1.21594">
        <ele>196.8</ele>
        <time>2025-12-19T08:40:19Z</time>
      </trkpt>
      <trkpt lat="43.56391" lon="1.2159">
        <ele>197.2</ele>
        <time>2025-12-19T08:40:20Z</time>
      </trkpt>
      <trkpt lat="43.5639" lon="1.21586">
        <ele>197.4</ele>
        <time>2025-12-19T08:40:21Z</time>
      </trkpt>
      <trkpt lat="43.5639" lon="1.21582">
        <ele>197.6</ele>
        <time>2025-12-19T08:40:22Z</time>
      </trkpt>
      <trkpt lat="43.56389" lon="1.21578">
        <ele>198</ele>
        <time>2025-12-19T08:40:23Z</time>
      </trkpt>
      <trkpt lat="43.56388" lon="1.21574">
        <ele>198.2</ele>
        <time>2025-12-19T08:40:24Z</time>
      </trkpt>
      <trkpt lat="43.56387" lon="1.2157">
        <ele>198.6</ele>
        <time>2025-12-19T08:40:25Z</time>
      </trkpt>
      <trkpt lat="43.56386" lon="1.21565">
        <ele>198.8</ele>
        <time>2025-12-19T08:40:26Z</time>
      </trkpt>
      <trkpt lat="43.56385" lon="1.21561">
        <ele>199</ele>
        <time>2025-12-19T08:40:27Z</time>
      </trkpt>
      <trkpt lat="43.56383" lon="1.21557">
        <ele>199.2</ele>
        <time>2025-12-19T08:40:28Z</time>
      </trkpt>
      <trkpt lat="43.56382" lon="1.21553">
        <ele>199.4</ele>
        <time>2025-12-19T08:40:29Z</time>
      </trkpt>
      <trkpt lat="43.56382" lon="1.21548">
        <ele>199.8</ele>
        <time>2025-12-19T08:40:30Z</time>
      </trkpt>
      <trkpt lat="43.56382" lon="1.21543">
        <ele>200</ele>
        <time>2025-12-19T08:40:31Z</time>
      </trkpt>
      <trkpt lat="43.56383" lon="1.21537">
        <ele>200.2</ele>
        <time>2025-12-19T08:40:32Z</time>
      </trkpt>
      <trkpt lat="43.56383" lon="1.21532">
        <ele>200.4</ele>
        <time>2025-12-19T08:40:33Z</time>
      </trkpt>
      <trkpt lat="43.56383" lon="1.21527">
        <ele>200.6</ele>
        <time>2025-12-19T08:40:34Z</time>
      </trkpt>
      <trkpt lat="43.56384" lon="1.21522">
        <ele>200.6</ele>
        <time>2025-12-19T08:40:35Z</time>
      </trkpt>
      <trkpt lat="43.56384" lon="1.21517">
        <ele>200.8</ele>
        <time>2025-12-19T08:40:36Z</time>
      </trkpt>
      <trkpt lat="43.56384" lon="1.21511">
        <ele>201</ele>
        <time>2025-12-19T08:40:37Z</time>
      </trkpt>
      <trkpt lat="43.56385" lon="1.21506">
        <ele>201.2</ele>
        <time>2025-12-19T08:40:38Z</time>
      </trkpt>
      <trkpt lat="43.56385" lon="1.21501">
        <ele>201.4</ele>
        <time>2025-12-19T08:40:39Z</time>
      </trkpt>
      <trkpt lat="43.56384" lon="1.21495">
        <ele>201.4</ele>
        <time>2025-12-19T08:40:40Z</time>
      </trkpt>
      <trkpt lat="43.56385" lon="1.2149">
        <ele>201.6</ele>
        <time>2025-12-19T08:40:41Z</time>
      </trkpt>
      <trkpt lat="43.56385" lon="1.21485">
        <ele>201.6</ele>
        <time>2025-12-19T08:40:42Z</time>
      </trkpt>
      <trkpt lat="43.56385" lon="1.2148">
        <ele>201.8</ele>
        <time>2025-12-19T08:40:43Z</time>
      </trkpt>
      <trkpt lat="43.56384" lon="1.21476">
        <ele>201.8</ele>
        <time>2025-12-19T08:40:44Z</time>
      </trkpt>
      <trkpt lat="43.56383" lon="1.21472">
        <ele>201.8</ele>
        <time>2025-12-19T08:40:45Z</time>
      </trkpt>
      <trkpt lat="43.5638" lon="1.21469">
        <ele>202</ele>
        <time>2025-12-19T08:40:46Z</time>
      </trkpt>
      <trkpt lat="43.56376" lon="1.21467">
        <ele>202</ele>
        <time>2025-12-19T08:40:47Z</time>
      </trkpt>
      <trkpt lat="43.56372" lon="1.21465">
        <ele>201.8</ele>
        <time>2025-12-19T08:40:48Z</time>
      </trkpt>
      <trkpt lat="43.56367" lon="1.21463">
        <ele>201.8</ele>
        <time>2025-12-19T08:40:49Z</time>
      </trkpt>
      <trkpt lat="43.56363" lon="1.21461">
        <ele>201.8</ele>
        <time>2025-12-19T08:40:50Z</time>
      </trkpt>
      <trkpt lat="43.56359" lon="1.21458">
        <ele>201.6</ele>
        <time>2025-12-19T08:40:51Z</time>
      </trkpt>
      <trkpt lat="43.56355" lon="1.21454">
        <ele>201.6</ele>
        <time>2025-12-19T08:40:52Z</time>
      </trkpt>
      <trkpt lat="43.56351" lon="1.2145">
        <ele>201.4</ele>
        <time>2025-12-19T08:40:53Z</time>
      </trkpt>
      <trkpt lat="43.56347" lon="1.21445">
        <ele>201.4</ele>
        <time>2025-12-19T08:40:54Z</time>
      </trkpt>
      <trkpt lat="43.56343" lon="1.21441">
        <ele>201.2</ele>
        <time>2025-12-19T08:40:55Z</time>
      </trkpt>
      <trkpt lat="43.5634" lon="1.21435">
        <ele>201.2</ele>
        <time>2025-12-19T08:40:56Z</time>
      </trkpt>
      <trkpt lat="43.56336" lon="1.2143">
        <ele>201.2</ele>
        <time>2025-12-19T08:40:57Z</time>
      </trkpt>
      <trkpt lat="43.56332" lon="1.21425">
        <ele>201.2</ele>
        <time>2025-12-19T08:40:58Z</time>
      </trkpt>
      <trkpt lat="43.56329" lon="1.21419">
        <ele>201.2</ele>
        <time>2025-12-19T08:40:59Z</time>
      </trkpt>
      <trkpt lat="43.56325" lon="1.21414">
        <ele>201</ele>
        <time>2025-12-19T08:41:00Z</time>
      </trkpt>
      <trkpt lat="43.56322" lon="1.21409">
        <ele>201</ele>
        <time>2025-12-19T08:41:01Z</time>
      </trkpt>
      <trkpt lat="43.56318" lon="1.21404">
        <ele>201</ele>
        <time>2025-12-19T08:41:02Z</time>
      </trkpt>
      <trkpt lat="43.56314" lon="1.21399">
        <ele>201</ele>
        <time>2025-12-19T08:41:03Z</time>
      </trkpt>
      <trkpt lat="43.5631" lon="1.21394">
        <ele>201</ele>
        <time>2025-12-19T08:41:04Z</time>
      </trkpt>
      <trkpt lat="43.56306" lon="1.21389">
        <ele>201</ele>
        <time>2025-12-19T08:41:05Z</time>
      </trkpt>
      <trkpt lat="43.56302" lon="1.21384">
        <ele>201</ele>
        <time>2025-12-19T08:41:06Z</time>
      </trkpt>
      <trkpt lat="43.56298" lon="1.2138">
        <ele>201</ele>
        <time>2025-12-19T08:41:07Z</time>
      </trkpt>
      <trkpt lat="43.56293" lon="1.21374">
        <ele>201</ele>
        <time>2025-12-19T08:41:08Z</time>
      </trkpt>
      <trkpt lat="43.56289" lon="1.2137">
        <ele>201</ele>
        <time>2025-12-19T08:41:09Z</time>
      </trkpt>
      <trkpt lat="43.56284" lon="1.21365">
        <ele>201</ele>
        <time>2025-12-19T08:41:10Z</time>
      </trkpt>
      <trkpt lat="43.5628" lon="1.2136">
        <ele>200.8</ele>
        <time>2025-12-19T08:41:11Z</time>
      </trkpt>
      <trkpt lat="43.56275" lon="1.21355">
        <ele>200.8</ele>
        <time>2025-12-19T08:41:12Z</time>
      </trkpt>
      <trkpt lat="43.5627" lon="1.21351">
        <ele>200.8</ele>
        <time>2025-12-19T08:41:13Z</time>
      </trkpt>
      <trkpt lat="43.56264" lon="1.21346">
        <ele>200.8</ele>
        <time>2025-12-19T08:41:14Z</time>
      </trkpt>
      <trkpt lat="43.5626" lon="1.21341">
        <ele>200.6</ele>
        <time>2025-12-19T08:41:15Z</time>
      </trkpt>
      <trkpt lat="43.56254" lon="1.21336">
        <ele>200.6</ele>
        <time>2025-12-19T08:41:16Z</time>
      </trkpt>
      <trkpt lat="43.56249" lon="1.21332">
        <ele>200.4</ele>
        <time>2025-12-19T08:41:17Z</time>
      </trkpt>
      <trkpt lat="43.56244" lon="1.21327">
        <ele>200.2</ele>
        <time>2025-12-19T08:41:18Z</time>
      </trkpt>
      <trkpt lat="43.56239" lon="1.21323">
        <ele>200.2</ele>
        <time>2025-12-19T08:41:19Z</time>
      </trkpt>
      <trkpt lat="43.56234" lon="1.21319">
        <ele>200</ele>
        <time>2025-12-19T08:41:20Z</time>
      </trkpt>
      <trkpt lat="43.56229" lon="1.21314">
        <ele>200</ele>
        <time>2025-12-19T08:41:21Z</time>
      </trkpt>
      <trkpt lat="43.56224" lon="1.2131">
        <ele>199.8</ele>
        <time>2025-12-19T08:41:22Z</time>
      </trkpt>
      <trkpt lat="43.56219" lon="1.21306">
        <ele>200</ele>
        <time>2025-12-19T08:41:23Z</time>
      </trkpt>
      <trkpt lat="43.56214" lon="1.21302">
        <ele>200</ele>
        <time>2025-12-19T08:41:24Z</time>
      </trkpt>
      <trkpt lat="43.56209" lon="1.21299">
        <ele>200</ele>
        <time>2025-12-19T08:41:25Z</time>
      </trkpt>
      <trkpt lat="43.56204" lon="1.21295">
        <ele>200</ele>
        <time>2025-12-19T08:41:26Z</time>
      </trkpt>
      <trkpt lat="43.56199" lon="1.21292">
        <ele>200.2</ele>
        <time>2025-12-19T08:41:27Z</time>
      </trkpt>
      <trkpt lat="43.56193" lon="1.21289">
        <ele>200</ele>
        <time>2025-12-19T08:41:28Z</time>
      </trkpt>
      <trkpt lat="43.56187" lon="1.21285">
        <ele>200</ele>
        <time>2025-12-19T08:41:29Z</time>
      </trkpt>
      <trkpt lat="43.56181" lon="1.21282">
        <ele>200</ele>
        <time>2025-12-19T08:41:30Z</time>
      </trkpt>
      <trkpt lat="43.56175" lon="1.21278">
        <ele>199.8</ele>
        <time>2025-12-19T08:41:31Z</time>
      </trkpt>
      <trkpt lat="43.56169" lon="1.21274">
        <ele>199.8</ele>
        <time>2025-12-19T08:41:32Z</time>
      </trkpt>
      <trkpt lat="43.56163" lon="1.21271">
        <ele>199.6</ele>
        <time>2025-12-19T08:41:33Z</time>
      </trkpt>
      <trkpt lat="43.56157" lon="1.21269">
        <ele>199.6</ele>
        <time>2025-12-19T08:41:34Z</time>
      </trkpt>
      <trkpt lat="43.56151" lon="1.21267">
        <ele>199.4</ele>
        <time>2025-12-19T08:41:35Z</time>
      </trkpt>
      <trkpt lat="43.56145" lon="1.21266">
        <ele>199.4</ele>
        <time>2025-12-19T08:41:36Z</time>
      </trkpt>
      <trkpt lat="43.56138" lon="1.21266">
        <ele>199.2</ele>
        <time>2025-12-19T08:41:37Z</time>
      </trkpt>
      <trkpt lat="43.56132" lon="1.21267">
        <ele>199.2</ele>
        <time>2025-12-19T08:41:38Z</time>
      </trkpt>
      <trkpt lat="43.56127" lon="1.21269">
        <ele>199.2</ele>
        <time>2025-12-19T08:41:39Z</time>
      </trkpt>
      <trkpt lat="43.56121" lon="1.21273">
        <ele>199</ele>
        <time>2025-12-19T08:41:40Z</time>
      </trkpt>
      <trkpt lat="43.56117" lon="1.21278">
        <ele>198.8</ele>
        <time>2025-12-19T08:41:41Z</time>
      </trkpt>
      <trkpt lat="43.56112" lon="1.21285">
        <ele>198.6</ele>
        <time>2025-12-19T08:41:42Z</time>
      </trkpt>
      <trkpt lat="43.56107" lon="1.21292">
        <ele>198.2</ele>
        <time>2025-12-19T08:41:43Z</time>
      </trkpt>
      <trkpt lat="43.56102" lon="1.21301">
        <ele>197.6</ele>
        <time>2025-12-19T08:41:44Z</time>
      </trkpt>
      <trkpt lat="43.56096" lon="1.2131">
        <ele>197</ele>
        <time>2025-12-19T08:41:45Z</time>
      </trkpt>
      <trkpt lat="43.5609" lon="1.2132">
        <ele>196.2</ele>
        <time>2025-12-19T08:41:46Z</time>
      </trkpt>
      <trkpt lat="43.56084" lon="1.2133">
        <ele>195.2</ele>
        <time>2025-12-19T08:41:47Z</time>
      </trkpt>
      <trkpt lat="43.56077" lon="1.2134">
        <ele>194</ele>
        <time>2025-12-19T08:41:48Z</time>
      </trkpt>
      <trkpt lat="43.5607" lon="1.21352">
        <ele>193</ele>
        <time>2025-12-19T08:41:49Z</time>
      </trkpt>
      <trkpt lat="43.56063" lon="1.21363">
        <ele>192</ele>
        <time>2025-12-19T08:41:50Z</time>
      </trkpt>
      <trkpt lat="43.56056" lon="1.21375">
        <ele>191.2</ele>
        <time>2025-12-19T08:41:51Z</time>
      </trkpt>
      <trkpt lat="43.56049" lon="1.21387">
        <ele>190.2</ele>
        <time>2025-12-19T08:41:52Z</time>
      </trkpt>
      <trkpt lat="43.56042" lon="1.21398">
        <ele>189.4</ele>
        <time>2025-12-19T08:41:53Z</time>
      </trkpt>
      <trkpt lat="43.56034" lon="1.21408">
        <ele>188.8</ele>
        <time>2025-12-19T08:41:54Z</time>
      </trkpt>
      <trkpt lat="43.56026" lon="1.21415">
        <ele>188.2</ele>
        <time>2025-12-19T08:41:55Z</time>
      </trkpt>
      <trkpt lat="43.56016" lon="1.2142">
        <ele>187.8</ele>
        <time>2025-12-19T08:41:56Z</time>
      </trkpt>
      <trkpt lat="43.56007" lon="1.21421">
        <ele>187.8</ele>
        <time>2025-12-19T08:41:57Z</time>
      </trkpt>
      <trkpt lat="43.55997" lon="1.2142">
        <ele>187.6</ele>
        <time>2025-12-19T08:41:58Z</time>
      </trkpt>
      <trkpt lat="43.55988" lon="1.21416">
        <ele>187.2</ele>
        <time>2025-12-19T08:41:59Z</time>
      </trkpt>
      <trkpt lat="43.5598" lon="1.2141">
        <ele>187</ele>
        <time>2025-12-19T08:42:00Z</time>
      </trkpt>
      <trkpt lat="43.55973" lon="1.21404">
        <ele>187</ele>
        <time>2025-12-19T08:42:01Z</time>
      </trkpt>
      <trkpt lat="43.55967" lon="1.21397">
        <ele>186.8</ele>
        <time>2025-12-19T08:42:02Z</time>
      </trkpt>
      <trkpt lat="43.55961" lon="1.2139">
        <ele>186.6</ele>
        <time>2025-12-19T08:42:03Z</time>
      </trkpt>
      <trkpt lat="43.55955" lon="1.21383">
        <ele>186.6</ele>
        <time>2025-12-19T08:42:04Z</time>
      </trkpt>
      <trkpt lat="43.55949" lon="1.21376">
        <ele>186.6</ele>
        <time>2025-12-19T08:42:05Z</time>
      </trkpt>
      <trkpt lat="43.55944" lon="1.21369">
        <ele>186.8</ele>
        <time>2025-12-19T08:42:06Z</time>
      </trkpt>
      <trkpt lat="43.55939" lon="1.21362">
        <ele>186.6</ele>
        <time>2025-12-19T08:42:07Z</time>
      </trkpt>
      <trkpt lat="43.55933" lon="1.21356">
        <ele>186.8</ele>
        <time>2025-12-19T08:42:08Z</time>
      </trkpt>
      <trkpt lat="43.55929" lon="1.21348">
        <ele>187</ele>
        <time>2025-12-19T08:42:09Z</time>
      </trkpt>
      <trkpt lat="43.55925" lon="1.21341">
        <ele>187.2</ele>
        <time>2025-12-19T08:42:10Z</time>
      </trkpt>
      <trkpt lat="43.55921" lon="1.21334">
        <ele>187.4</ele>
        <time>2025-12-19T08:42:11Z</time>
      </trkpt>
      <trkpt lat="43.55917" lon="1.21326">
        <ele>187.6</ele>
        <time>2025-12-19T08:42:12Z</time>
      </trkpt>
      <trkpt lat="43.55913" lon="1.2132">
        <ele>187.8</ele>
        <time>2025-12-19T08:42:13Z</time>
      </trkpt>
      <trkpt lat="43.55909" lon="1.21313">
        <ele>188</ele>
        <time>2025-12-19T08:42:14Z</time>
      </trkpt>
      <trkpt lat="43.55906" lon="1.21307">
        <ele>188.2</ele>
        <time>2025-12-19T08:42:15Z</time>
      </trkpt>
      <trkpt lat="43.55902" lon="1.213">
        <ele>188.4</ele>
        <time>2025-12-19T08:42:16Z</time>
      </trkpt>
      <trkpt lat="43.55899" lon="1.21295">
        <ele>188.6</ele>
        <time>2025-12-19T08:42:17Z</time>
      </trkpt>
      <trkpt lat="43.55896" lon="1.21289">
        <ele>189</ele>
        <time>2025-12-19T08:42:18Z</time>
      </trkpt>
      <trkpt lat="43.55893" lon="1.21283">
        <ele>189.4</ele>
        <time>2025-12-19T08:42:19Z</time>
      </trkpt>
      <trkpt lat="43.5589" lon="1.21278">
        <ele>189.8</ele>
        <time>2025-12-19T08:42:20Z</time>
      </trkpt>
      <trkpt lat="43.55887" lon="1.21273">
        <ele>190</ele>
        <time>2025-12-19T08:42:21Z</time>
      </trkpt>
      <trkpt lat="43.55884" lon="1.21268">
        <ele>190.4</ele>
        <time>2025-12-19T08:42:22Z</time>
      </trkpt>
      <trkpt lat="43.55881" lon="1.21263">
        <ele>190.8</ele>
        <time>2025-12-19T08:42:23Z</time>
      </trkpt>
      <trkpt lat="43.55877" lon="1.21258">
        <ele>191.2</ele>
        <time>2025-12-19T08:42:24Z</time>
      </trkpt>
      <trkpt lat="43.55874" lon="1.21252">
        <ele>191.6</ele>
        <time>2025-12-19T08:42:25Z</time>
      </trkpt>
      <trkpt lat="43.55871" lon="1.21247">
        <ele>191.8</ele>
        <time>2025-12-19T08:42:26Z</time>
      </trkpt>
      <trkpt lat="43.55868" lon="1.21242">
        <ele>192.2</ele>
        <time>2025-12-19T08:42:27Z</time>
      </trkpt>
      <trkpt lat="43.55865" lon="1.21237">
        <ele>192.6</ele>
        <time>2025-12-19T08:42:28Z</time>
      </trkpt>
      <trkpt lat="43.55863" lon="1.21232">
        <ele>192.8</ele>
        <time>2025-12-19T08:42:29Z</time>
      </trkpt>
      <trkpt lat="43.5586" lon="1.21227">
        <ele>193.2</ele>
        <time>2025-12-19T08:42:30Z</time>
      </trkpt>
      <trkpt lat="43.55857" lon="1.21222">
        <ele>193.6</ele>
        <time>2025-12-19T08:42:31Z</time>
      </trkpt>
      <trkpt lat="43.55855" lon="1.21218">
        <ele>194</ele>
        <time>2025-12-19T08:42:32Z</time>
      </trkpt>
      <trkpt lat="43.55851" lon="1.21213">
        <ele>194.4</ele>
        <time>2025-12-19T08:42:33Z</time>
      </trkpt>
      <trkpt lat="43.55849" lon="1.21208">
        <ele>194.8</ele>
        <time>2025-12-19T08:42:34Z</time>
      </trkpt>
      <trkpt lat="43.55846" lon="1.21204">
        <ele>195.2</ele>
        <time>2025-12-19T08:42:35Z</time>
      </trkpt>
      <trkpt lat="43.55844" lon="1.21199">
        <ele>195.4</ele>
        <time>2025-12-19T08:42:36Z</time>
      </trkpt>
      <trkpt lat="43.55842" lon="1.21195">
        <ele>195.8</ele>
        <time>2025-12-19T08:42:37Z</time>
      </trkpt>
      <trkpt lat="43.55839" lon="1.21191">
        <ele>196.2</ele>
        <time>2025-12-19T08:42:38Z</time>
      </trkpt>
      <trkpt lat="43.55837" lon="1.21186">
        <ele>196.4</ele>
        <time>2025-12-19T08:42:39Z</time>
      </trkpt>
      <trkpt lat="43.55834" lon="1.21182">
        <ele>196.6</ele>
        <time>2025-12-19T08:42:40Z</time>
      </trkpt>
      <trkpt lat="43.55832" lon="1.21176">
        <ele>196.8</ele>
        <time>2025-12-19T08:42:41Z</time>
      </trkpt>
      <trkpt lat="43.5583" lon="1.21172">
        <ele>197</ele>
        <time>2025-12-19T08:42:42Z</time>
      </trkpt>
      <trkpt lat="43.55827" lon="1.21166">
        <ele>197.2</ele>
        <time>2025-12-19T08:42:43Z</time>
      </trkpt>
      <trkpt lat="43.55825" lon="1.21162">
        <ele>197.4</ele>
        <time>2025-12-19T08:42:44Z</time>
      </trkpt>
      <trkpt lat="43.55822" lon="1.21157">
        <ele>197.6</ele>
        <time>2025-12-19T08:42:45Z</time>
      </trkpt>
      <trkpt lat="43.55819" lon="1.21152">
        <ele>197.8</ele>
        <time>2025-12-19T08:42:46Z</time>
      </trkpt>
      <trkpt lat="43.55816" lon="1.21147">
        <ele>197.8</ele>
        <time>2025-12-19T08:42:47Z</time>
      </trkpt>
      <trkpt lat="43.55813" lon="1.21142">
        <ele>198</ele>
        <time>2025-12-19T08:42:48Z</time>
      </trkpt>
      <trkpt lat="43.5581" lon="1.21137">
        <ele>198.2</ele>
        <time>2025-12-19T08:42:49Z</time>
      </trkpt>
      <trkpt lat="43.55807" lon="1.21132">
        <ele>198.2</ele>
        <time>2025-12-19T08:42:50Z</time>
      </trkpt>
      <trkpt lat="43.55804" lon="1.21127">
        <ele>198.2</ele>
        <time>2025-12-19T08:42:51Z</time>
      </trkpt>
      <trkpt lat="43.558" lon="1.21121">
        <ele>198</ele>
        <time>2025-12-19T08:42:52Z</time>
      </trkpt>
      <trkpt lat="43.55797" lon="1.21115">
        <ele>198</ele>
        <time>2025-12-19T08:42:53Z</time>
      </trkpt>
      <trkpt lat="43.55793" lon="1.21109">
        <ele>198</ele>
        <time>2025-12-19T08:42:54Z</time>
      </trkpt>
      <trkpt lat="43.5579" lon="1.21104">
        <ele>198</ele>
        <time>2025-12-19T08:42:55Z</time>
      </trkpt>
      <trkpt lat="43.55787" lon="1.21098">
        <ele>198</ele>
        <time>2025-12-19T08:42:56Z</time>
      </trkpt>
      <trkpt lat="43.55783" lon="1.21092">
        <ele>198</ele>
        <time>2025-12-19T08:42:57Z</time>
      </trkpt>
      <trkpt lat="43.5578" lon="1.21087">
        <ele>198.2</ele>
        <time>2025-12-19T08:42:58Z</time>
      </trkpt>
      <trkpt lat="43.55776" lon="1.21081">
        <ele>198.2</ele>
        <time>2025-12-19T08:42:59Z</time>
      </trkpt>
      <trkpt lat="43.55772" lon="1.21077">
        <ele>198.4</ele>
        <time>2025-12-19T08:43:00Z</time>
      </trkpt>
      <trkpt lat="43.55769" lon="1.21072">
        <ele>198.6</ele>
        <time>2025-12-19T08:43:01Z</time>
      </trkpt>
      <trkpt lat="43.55765" lon="1.21067">
        <ele>198.6</ele>
        <time>2025-12-19T08:43:02Z</time>
      </trkpt>
      <trkpt lat="43.55762" lon="1.21062">
        <ele>198.8</ele>
        <time>2025-12-19T08:43:03Z</time>
      </trkpt>
      <trkpt lat="43.55758" lon="1.21057">
        <ele>199</ele>
        <time>2025-12-19T08:43:04Z</time>
      </trkpt>
      <trkpt lat="43.55755" lon="1.21053">
        <ele>199</ele>
        <time>2025-12-19T08:43:05Z</time>
      </trkpt>
      <trkpt lat="43.55751" lon="1.21049">
        <ele>199.2</ele>
        <time>2025-12-19T08:43:06Z</time>
      </trkpt>
      <trkpt lat="43.55748" lon="1.21044">
        <ele>199.2</ele>
        <time>2025-12-19T08:43:07Z</time>
      </trkpt>
      <trkpt lat="43.55745" lon="1.21039">
        <ele>199.4</ele>
        <time>2025-12-19T08:43:08Z</time>
      </trkpt>
      <trkpt lat="43.55741" lon="1.21034">
        <ele>199.6</ele>
        <time>2025-12-19T08:43:09Z</time>
      </trkpt>
      <trkpt lat="43.55738" lon="1.21029">
        <ele>199.6</ele>
        <time>2025-12-19T08:43:10Z</time>
      </trkpt>
      <trkpt lat="43.55734" lon="1.21024">
        <ele>199.8</ele>
        <time>2025-12-19T08:43:11Z</time>
      </trkpt>
      <trkpt lat="43.55731" lon="1.21018">
        <ele>199.8</ele>
        <time>2025-12-19T08:43:12Z</time>
      </trkpt>
      <trkpt lat="43.55727" lon="1.21012">
        <ele>199.8</ele>
        <time>2025-12-19T08:43:13Z</time>
      </trkpt>
      <trkpt lat="43.55724" lon="1.21006">
        <ele>199.8</ele>
        <time>2025-12-19T08:43:14Z</time>
      </trkpt>
      <trkpt lat="43.55722" lon="1.20999">
        <ele>199.8</ele>
        <time>2025-12-19T08:43:15Z</time>
      </trkpt>
      <trkpt lat="43.5572" lon="1.20993">
        <ele>199.8</ele>
        <time>2025-12-19T08:43:16Z</time>
      </trkpt>
      <trkpt lat="43.55718" lon="1.20987">
        <ele>199.8</ele>
        <time>2025-12-19T08:43:17Z</time>
      </trkpt>
      <trkpt lat="43.55716" lon="1.2098">
        <ele>199.8</ele>
        <time>2025-12-19T08:43:18Z</time>
      </trkpt>
      <trkpt lat="43.55714" lon="1.20974">
        <ele>200</ele>
        <time>2025-12-19T08:43:19Z</time>
      </trkpt>
      <trkpt lat="43.55712" lon="1.20966">
        <ele>200</ele>
        <time>2025-12-19T08:43:20Z</time>
      </trkpt>
      <trkpt lat="43.5571" lon="1.20959">
        <ele>200.2</ele>
        <time>2025-12-19T08:43:21Z</time>
      </trkpt>
      <trkpt lat="43.55708" lon="1.20952">
        <ele>200.2</ele>
        <time>2025-12-19T08:43:22Z</time>
      </trkpt>
      <trkpt lat="43.55706" lon="1.20945">
        <ele>200.2</ele>
        <time>2025-12-19T08:43:23Z</time>
      </trkpt>
      <trkpt lat="43.55704" lon="1.20939">
        <ele>200.4</ele>
        <time>2025-12-19T08:43:24Z</time>
      </trkpt>
      <trkpt lat="43.55702" lon="1.20931">
        <ele>200.4</ele>
        <time>2025-12-19T08:43:25Z</time>
      </trkpt>
      <trkpt lat="43.55699" lon="1.20924">
        <ele>200.4</ele>
        <time>2025-12-19T08:43:26Z</time>
      </trkpt>
      <trkpt lat="43.55697" lon="1.20917">
        <ele>200.6</ele>
        <time>2025-12-19T08:43:27Z</time>
      </trkpt>
      <trkpt lat="43.55695" lon="1.20911">
        <ele>200.6</ele>
        <time>2025-12-19T08:43:28Z</time>
      </trkpt>
      <trkpt lat="43.55693" lon="1.20904">
        <ele>200.6</ele>
        <time>2025-12-19T08:43:29Z</time>
      </trkpt>
      <trkpt lat="43.55691" lon="1.20897">
        <ele>200.8</ele>
        <time>2025-12-19T08:43:30Z</time>
      </trkpt>
      <trkpt lat="43.55689" lon="1.2089">
        <ele>200.8</ele>
        <time>2025-12-19T08:43:31Z</time>
      </trkpt>
      <trkpt lat="43.55687" lon="1.20883">
        <ele>200.8</ele>
        <time>2025-12-19T08:43:32Z</time>
      </trkpt>
      <trkpt lat="43.55685" lon="1.20877">
        <ele>201</ele>
        <time>2025-12-19T08:43:33Z</time>
      </trkpt>
      <trkpt lat="43.55682" lon="1.2087">
        <ele>201</ele>
        <time>2025-12-19T08:43:34Z</time>
      </trkpt>
      <trkpt lat="43.55679" lon="1.20863">
        <ele>201.2</ele>
        <time>2025-12-19T08:43:35Z</time>
      </trkpt>
      <trkpt lat="43.55676" lon="1.20857">
        <ele>201.2</ele>
        <time>2025-12-19T08:43:36Z</time>
      </trkpt>
      <trkpt lat="43.55673" lon="1.2085">
        <ele>201.2</ele>
        <time>2025-12-19T08:43:37Z</time>
      </trkpt>
      <trkpt lat="43.5567" lon="1.20844">
        <ele>201.4</ele>
        <time>2025-12-19T08:43:38Z</time>
      </trkpt>
      <trkpt lat="43.55667" lon="1.20837">
        <ele>201.4</ele>
        <time>2025-12-19T08:43:39Z</time>
      </trkpt>
      <trkpt lat="43.55664" lon="1.20831">
        <ele>201.4</ele>
        <time>2025-12-19T08:43:40Z</time>
      </trkpt>
      <trkpt lat="43.55661" lon="1.20825">
        <ele>201.6</ele>
        <time>2025-12-19T08:43:41Z</time>
      </trkpt>
      <trkpt lat="43.55658" lon="1.20819">
        <ele>201.6</ele>
        <time>2025-12-19T08:43:42Z</time>
      </trkpt>
      <trkpt lat="43.55656" lon="1.20812">
        <ele>201.6</ele>
        <time>2025-12-19T08:43:43Z</time>
      </trkpt>
      <trkpt lat="43.55653" lon="1.20805">
        <ele>201.6</ele>
        <time>2025-12-19T08:43:44Z</time>
      </trkpt>
      <trkpt lat="43.55649" lon="1.20799">
        <ele>201.6</ele>
        <time>2025-12-19T08:43:45Z</time>
      </trkpt>
      <trkpt lat="43.55646" lon="1.20792">
        <ele>201.6</ele>
        <time>2025-12-19T08:43:46Z</time>
      </trkpt>
      <trkpt lat="43.55643" lon="1.20786">
        <ele>201.6</ele>
        <time>2025-12-19T08:43:47Z</time>
      </trkpt>
      <trkpt lat="43.5564" lon="1.20779">
        <ele>201.6</ele>
        <time>2025-12-19T08:43:48Z</time>
      </trkpt>
      <trkpt lat="43.55636" lon="1.20773">
        <ele>201.6</ele>
        <time>2025-12-19T08:43:49Z</time>
      </trkpt>
      <trkpt lat="43.55633" lon="1.20767">
        <ele>201.6</ele>
        <time>2025-12-19T08:43:50Z</time>
      </trkpt>
      <trkpt lat="43.55629" lon="1.2076">
        <ele>201.6</ele>
        <time>2025-12-19T08:43:51Z</time>
      </trkpt>
      <trkpt lat="43.55625" lon="1.20754">
        <ele>201.8</ele>
        <time>2025-12-19T08:43:52Z</time>
      </trkpt>
      <trkpt lat="43.55621" lon="1.20748">
        <ele>201.8</ele>
        <time>2025-12-19T08:43:53Z</time>
      </trkpt>
      <trkpt lat="43.55618" lon="1.20741">
        <ele>201.8</ele>
        <time>2025-12-19T08:43:54Z</time>
      </trkpt>
      <trkpt lat="43.55614" lon="1.20735">
        <ele>202</ele>
        <time>2025-12-19T08:43:55Z</time>
      </trkpt>
      <trkpt lat="43.5561" lon="1.20729">
        <ele>202</ele>
        <time>2025-12-19T08:43:56Z</time>
      </trkpt>
      <trkpt lat="43.55606" lon="1.20723">
        <ele>202</ele>
        <time>2025-12-19T08:43:57Z</time>
      </trkpt>
      <trkpt lat="43.55603" lon="1.20717">
        <ele>202</ele>
        <time>2025-12-19T08:43:58Z</time>
      </trkpt>
      <trkpt lat="43.55598" lon="1.20711">
        <ele>202</ele>
        <time>2025-12-19T08:43:59Z</time>
      </trkpt>
      <trkpt lat="43.55594" lon="1.20705">
        <ele>201.8</ele>
        <time>2025-12-19T08:44:00Z</time>
      </trkpt>
      <trkpt lat="43.5559" lon="1.20699">
        <ele>201.8</ele>
        <time>2025-12-19T08:44:01Z</time>
      </trkpt>
      <trkpt lat="43.55585" lon="1.20692">
        <ele>201.6</ele>
        <time>2025-12-19T08:44:02Z</time>
      </trkpt>
      <trkpt lat="43.5558" lon="1.20686">
        <ele>201.6</ele>
        <time>2025-12-19T08:44:03Z</time>
      </trkpt>
      <trkpt lat="43.55575" lon="1.20681">
        <ele>201.4</ele>
        <time>2025-12-19T08:44:04Z</time>
      </trkpt>
      <trkpt lat="43.55569" lon="1.20676">
        <ele>201.4</ele>
        <time>2025-12-19T08:44:05Z</time>
      </trkpt>
      <trkpt lat="43.55564" lon="1.20671">
        <ele>201.4</ele>
        <time>2025-12-19T08:44:06Z</time>
      </trkpt>
      <trkpt lat="43.55558" lon="1.20666">
        <ele>201.4</ele>
        <time>2025-12-19T08:44:07Z</time>
      </trkpt>
      <trkpt lat="43.55553" lon="1.20661">
        <ele>201.4</ele>
        <time>2025-12-19T08:44:08Z</time>
      </trkpt>
      <trkpt lat="43.55547" lon="1.20657">
        <ele>201.4</ele>
        <time>2025-12-19T08:44:09Z</time>
      </trkpt>
      <trkpt lat="43.55542" lon="1.20652">
        <ele>201.4</ele>
        <time>2025-12-19T08:44:10Z</time>
      </trkpt>
      <trkpt lat="43.55536" lon="1.20648">
        <ele>201.2</ele>
        <time>2025-12-19T08:44:11Z</time>
      </trkpt>
      <trkpt lat="43.55531" lon="1.20642">
        <ele>201.2</ele>
        <time>2025-12-19T08:44:12Z</time>
      </trkpt>
      <trkpt lat="43.55526" lon="1.20637">
        <ele>201.2</ele>
        <time>2025-12-19T08:44:13Z</time>
      </trkpt>
      <trkpt lat="43.55521" lon="1.20632">
        <ele>201</ele>
        <time>2025-12-19T08:44:14Z</time>
      </trkpt>
      <trkpt lat="43.55515" lon="1.20626">
        <ele>201</ele>
        <time>2025-12-19T08:44:15Z</time>
      </trkpt>
      <trkpt lat="43.5551" lon="1.20619">
        <ele>201</ele>
        <time>2025-12-19T08:44:16Z</time>
      </trkpt>
      <trkpt lat="43.55506" lon="1.20613">
        <ele>201</ele>
        <time>2025-12-19T08:44:17Z</time>
      </trkpt>
      <trkpt lat="43.55501" lon="1.20605">
        <ele>200.8</ele>
        <time>2025-12-19T08:44:18Z</time>
      </trkpt>
      <trkpt lat="43.55497" lon="1.20598">
        <ele>200.8</ele>
        <time>2025-12-19T08:44:19Z</time>
      </trkpt>
      <trkpt lat="43.55493" lon="1.20591">
        <ele>200.8</ele>
        <time>2025-12-19T08:44:20Z</time>
      </trkpt>
      <trkpt lat="43.55489" lon="1.20583">
        <ele>200.6</ele>
        <time>2025-12-19T08:44:21Z</time>
      </trkpt>
      <trkpt lat="43.55485" lon="1.20576">
        <ele>200.4</ele>
        <time>2025-12-19T08:44:22Z</time>
      </trkpt>
      <trkpt lat="43.55481" lon="1.20568">
        <ele>200.4</ele>
        <time>2025-12-19T08:44:23Z</time>
      </trkpt>
      <trkpt lat="43.55477" lon="1.20561">
        <ele>200.4</ele>
        <time>2025-12-19T08:44:24Z</time>
      </trkpt>
      <trkpt lat="43.55474" lon="1.20554">
        <ele>200.4</ele>
        <time>2025-12-19T08:44:25Z</time>
      </trkpt>
      <trkpt lat="43.55471" lon="1.20547">
        <ele>200.4</ele>
        <time>2025-12-19T08:44:26Z</time>
      </trkpt>
      <trkpt lat="43.55467" lon="1.2054">
        <ele>200.4</ele>
        <time>2025-12-19T08:44:27Z</time>
      </trkpt>
      <trkpt lat="43.55464" lon="1.20533">
        <ele>200.6</ele>
        <time>2025-12-19T08:44:28Z</time>
      </trkpt>
      <trkpt lat="43.5546" lon="1.20527">
        <ele>200.6</ele>
        <time>2025-12-19T08:44:29Z</time>
      </trkpt>
      <trkpt lat="43.55457" lon="1.2052">
        <ele>200.8</ele>
        <time>2025-12-19T08:44:30Z</time>
      </trkpt>
      <trkpt lat="43.55453" lon="1.20513">
        <ele>201</ele>
        <time>2025-12-19T08:44:31Z</time>
      </trkpt>
      <trkpt lat="43.5545" lon="1.20506">
        <ele>201.2</ele>
        <time>2025-12-19T08:44:32Z</time>
      </trkpt>
      <trkpt lat="43.55447" lon="1.20499">
        <ele>201.4</ele>
        <time>2025-12-19T08:44:33Z</time>
      </trkpt>
      <trkpt lat="43.55443" lon="1.20493">
        <ele>201.4</ele>
        <time>2025-12-19T08:44:34Z</time>
      </trkpt>
      <trkpt lat="43.5544" lon="1.20486">
        <ele>201.4</ele>
        <time>2025-12-19T08:44:35Z</time>
      </trkpt>
      <trkpt lat="43.55437" lon="1.20478">
        <ele>201.6</ele>
        <time>2025-12-19T08:44:36Z</time>
      </trkpt>
      <trkpt lat="43.55434" lon="1.2047">
        <ele>201.4</ele>
        <time>2025-12-19T08:44:37Z</time>
      </trkpt>
      <trkpt lat="43.55431" lon="1.20462">
        <ele>201.4</ele>
        <time>2025-12-19T08:44:38Z</time>
      </trkpt>
      <trkpt lat="43.55429" lon="1.20454">
        <ele>201.6</ele>
        <time>2025-12-19T08:44:39Z</time>
      </trkpt>
      <trkpt lat="43.55426" lon="1.20446">
        <ele>201.6</ele>
        <time>2025-12-19T08:44:40Z</time>
      </trkpt>
      <trkpt lat="43.55424" lon="1.20438">
        <ele>201.6</ele>
        <time>2025-12-19T08:44:41Z</time>
      </trkpt>
      <trkpt lat="43.55422" lon="1.2043">
        <ele>201.6</ele>
        <time>2025-12-19T08:44:42Z</time>
      </trkpt>
      <trkpt lat="43.5542" lon="1.20421">
        <ele>201.6</ele>
        <time>2025-12-19T08:44:43Z</time>
      </trkpt>
      <trkpt lat="43.55418" lon="1.20413">
        <ele>201.6</ele>
        <time>2025-12-19T08:44:44Z</time>
      </trkpt>
      <trkpt lat="43.55417" lon="1.20404">
        <ele>201.6</ele>
        <time>2025-12-19T08:44:45Z</time>
      </trkpt>
      <trkpt lat="43.55415" lon="1.20395">
        <ele>201.6</ele>
        <time>2025-12-19T08:44:46Z</time>
      </trkpt>
      <trkpt lat="43.55414" lon="1.20386">
        <ele>201.8</ele>
        <time>2025-12-19T08:44:47Z</time>
      </trkpt>
      <trkpt lat="43.55412" lon="1.20378">
        <ele>201.8</ele>
        <time>2025-12-19T08:44:48Z</time>
      </trkpt>
      <trkpt lat="43.55411" lon="1.20369">
        <ele>201.8</ele>
        <time>2025-12-19T08:44:49Z</time>
      </trkpt>
      <trkpt lat="43.55409" lon="1.2036">
        <ele>201.8</ele>
        <time>2025-12-19T08:44:50Z</time>
      </trkpt>
      <trkpt lat="43.55408" lon="1.20351">
        <ele>202</ele>
        <time>2025-12-19T08:44:51Z</time>
      </trkpt>
      <trkpt lat="43.55406" lon="1.20342">
        <ele>202</ele>
        <time>2025-12-19T08:44:52Z</time>
      </trkpt>
      <trkpt lat="43.55404" lon="1.20334">
        <ele>202</ele>
        <time>2025-12-19T08:44:53Z</time>
      </trkpt>
      <trkpt lat="43.55403" lon="1.20325">
        <ele>202</ele>
        <time>2025-12-19T08:44:54Z</time>
      </trkpt>
      <trkpt lat="43.55401" lon="1.20316">
        <ele>202</ele>
        <time>2025-12-19T08:44:55Z</time>
      </trkpt>
      <trkpt lat="43.55399" lon="1.20307">
        <ele>202</ele>
        <time>2025-12-19T08:44:56Z</time>
      </trkpt>
      <trkpt lat="43.55397" lon="1.20298">
        <ele>202</ele>
        <time>2025-12-19T08:44:57Z</time>
      </trkpt>
      <trkpt lat="43.55396" lon="1.2029">
        <ele>202</ele>
        <time>2025-12-19T08:44:58Z</time>
      </trkpt>
      <trkpt lat="43.55394" lon="1.20281">
        <ele>202.2</ele>
        <time>2025-12-19T08:44:59Z</time>
      </trkpt>
      <trkpt lat="43.55392" lon="1.20272">
        <ele>202.2</ele>
        <time>2025-12-19T08:45:00Z</time>
      </trkpt>
      <trkpt lat="43.55391" lon="1.20263">
        <ele>202.2</ele>
        <time>2025-12-19T08:45:01Z</time>
      </trkpt>
      <trkpt lat="43.55388" lon="1.20254">
        <ele>202.2</ele>
        <time>2025-12-19T08:45:02Z</time>
      </trkpt>
      <trkpt lat="43.55386" lon="1.20245">
        <ele>202.2</ele>
        <time>2025-12-19T08:45:03Z</time>
      </trkpt>
      <trkpt lat="43.55385" lon="1.20236">
        <ele>202</ele>
        <time>2025-12-19T08:45:04Z</time>
      </trkpt>
      <trkpt lat="43.55383" lon="1.20228">
        <ele>202</ele>
        <time>2025-12-19T08:45:05Z</time>
      </trkpt>
      <trkpt lat="43.55381" lon="1.20219">
        <ele>202</ele>
        <time>2025-12-19T08:45:06Z</time>
      </trkpt>
      <trkpt lat="43.55379" lon="1.2021">
        <ele>201.8</ele>
        <time>2025-12-19T08:45:07Z</time>
      </trkpt>
      <trkpt lat="43.55377" lon="1.20201">
        <ele>201.8</ele>
        <time>2025-12-19T08:45:08Z</time>
      </trkpt>
      <trkpt lat="43.55375" lon="1.20192">
        <ele>201.8</ele>
        <time>2025-12-19T08:45:09Z</time>
      </trkpt>
      <trkpt lat="43.55374" lon="1.20183">
        <ele>201.8</ele>
        <time>2025-12-19T08:45:10Z</time>
      </trkpt>
      <trkpt lat="43.55372" lon="1.20174">
        <ele>202</ele>
        <time>2025-12-19T08:45:11Z</time>
      </trkpt>
      <trkpt lat="43.55371" lon="1.20165">
        <ele>202</ele>
        <time>2025-12-19T08:45:12Z</time>
      </trkpt>
      <trkpt lat="43.5537" lon="1.20156">
        <ele>202</ele>
        <time>2025-12-19T08:45:13Z</time>
      </trkpt>
      <trkpt lat="43.55368" lon="1.20147">
        <ele>202</ele>
        <time>2025-12-19T08:45:14Z</time>
      </trkpt>
      <trkpt lat="43.55367" lon="1.20138">
        <ele>202</ele>
        <time>2025-12-19T08:45:15Z</time>
      </trkpt>
      <trkpt lat="43.55366" lon="1.2013">
        <ele>202</ele>
        <time>2025-12-19T08:45:16Z</time>
      </trkpt>
      <trkpt lat="43.55365" lon="1.20121">
        <ele>202</ele>
        <time>2025-12-19T08:45:17Z</time>
      </trkpt>
      <trkpt lat="43.55364" lon="1.20111">
        <ele>202</ele>
        <time>2025-12-19T08:45:18Z</time>
      </trkpt>
      <trkpt lat="43.55363" lon="1.20102">
        <ele>202</ele>
        <time>2025-12-19T08:45:19Z</time>
      </trkpt>
      <trkpt lat="43.55362" lon="1.20093">
        <ele>202</ele>
        <time>2025-12-19T08:45:20Z</time>
      </trkpt>
      <trkpt lat="43.55361" lon="1.20084">
        <ele>202</ele>
        <time>2025-12-19T08:45:21Z</time>
      </trkpt>
      <trkpt lat="43.55359" lon="1.20075">
        <ele>202</ele>
        <time>2025-12-19T08:45:22Z</time>
      </trkpt>
      <trkpt lat="43.55358" lon="1.20067">
        <ele>201.8</ele>
        <time>2025-12-19T08:45:23Z</time>
      </trkpt>
      <trkpt lat="43.55356" lon="1.20058">
        <ele>202</ele>
        <time>2025-12-19T08:45:24Z</time>
      </trkpt>
      <trkpt lat="43.55355" lon="1.20049">
        <ele>202</ele>
        <time>2025-12-19T08:45:25Z</time>
      </trkpt>
      <trkpt lat="43.55354" lon="1.2004">
        <ele>202</ele>
        <time>2025-12-19T08:45:26Z</time>
      </trkpt>
      <trkpt lat="43.55352" lon="1.20031">
        <ele>202</ele>
        <time>2025-12-19T08:45:27Z</time>
      </trkpt>
      <trkpt lat="43.55351" lon="1.20023">
        <ele>202</ele>
        <time>2025-12-19T08:45:28Z</time>
      </trkpt>
      <trkpt lat="43.5535" lon="1.20014">
        <ele>202</ele>
        <time>2025-12-19T08:45:29Z</time>
      </trkpt>
      <trkpt lat="43.55349" lon="1.20004">
        <ele>202</ele>
        <time>2025-12-19T08:45:30Z</time>
      </trkpt>
      <trkpt lat="43.55348" lon="1.19995">
        <ele>202</ele>
        <time>2025-12-19T08:45:31Z</time>
      </trkpt>
      <trkpt lat="43.55347" lon="1.19986">
        <ele>202</ele>
        <time>2025-12-19T08:45:32Z</time>
      </trkpt>
      <trkpt lat="43.55346" lon="1.19977">
        <ele>202.2</ele>
        <time>2025-12-19T08:45:33Z</time>
      </trkpt>
      <trkpt lat="43.55346" lon="1.19968">
        <ele>202.2</ele>
        <time>2025-12-19T08:45:34Z</time>
      </trkpt>
      <trkpt lat="43.55346" lon="1.19959">
        <ele>202.2</ele>
        <time>2025-12-19T08:45:35Z</time>
      </trkpt>
      <trkpt lat="43.55345" lon="1.1995">
        <ele>202.2</ele>
        <time>2025-12-19T08:45:36Z</time>
      </trkpt>
      <trkpt lat="43.55345" lon="1.19941">
        <ele>202.2</ele>
        <time>2025-12-19T08:45:37Z</time>
      </trkpt>
      <trkpt lat="43.55345" lon="1.19932">
        <ele>202.2</ele>
        <time>2025-12-19T08:45:38Z</time>
      </trkpt>
      <trkpt lat="43.55345" lon="1.19923">
        <ele>202.2</ele>
        <time>2025-12-19T08:45:39Z</time>
      </trkpt>
      <trkpt lat="43.55345" lon="1.19914">
        <ele>202.2</ele>
        <time>2025-12-19T08:45:40Z</time>
      </trkpt>
      <trkpt lat="43.55345" lon="1.19905">
        <ele>202.4</ele>
        <time>2025-12-19T08:45:41Z</time>
      </trkpt>
      <trkpt lat="43.55345" lon="1.19896">
        <ele>202.2</ele>
        <time>2025-12-19T08:45:42Z</time>
      </trkpt>
      <trkpt lat="43.55345" lon="1.19887">
        <ele>202.2</ele>
        <time>2025-12-19T08:45:43Z</time>
      </trkpt>
      <trkpt lat="43.55344" lon="1.19879">
        <ele>202.2</ele>
        <time>2025-12-19T08:45:44Z</time>
      </trkpt>
      <trkpt lat="43.55344" lon="1.1987">
        <ele>202.2</ele>
        <time>2025-12-19T08:45:45Z</time>
      </trkpt>
      <trkpt lat="43.55343" lon="1.19861">
        <ele>202.2</ele>
        <time>2025-12-19T08:45:46Z</time>
      </trkpt>
      <trkpt lat="43.55343" lon="1.19852">
        <ele>202.2</ele>
        <time>2025-12-19T08:45:47Z</time>
      </trkpt>
      <trkpt lat="43.55343" lon="1.19843">
        <ele>202.2</ele>
        <time>2025-12-19T08:45:48Z</time>
      </trkpt>
      <trkpt lat="43.55343" lon="1.19834">
        <ele>202.2</ele>
        <time>2025-12-19T08:45:49Z</time>
      </trkpt>
      <trkpt lat="43.55343" lon="1.19825">
        <ele>202.2</ele>
        <time>2025-12-19T08:45:50Z</time>
      </trkpt>
      <trkpt lat="43.55343" lon="1.19815">
        <ele>202.2</ele>
        <time>2025-12-19T08:45:51Z</time>
      </trkpt>
      <trkpt lat="43.55343" lon="1.19806">
        <ele>202.2</ele>
        <time>2025-12-19T08:45:52Z</time>
      </trkpt>
      <trkpt lat="43.55342" lon="1.19798">
        <ele>202.2</ele>
        <time>2025-12-19T08:45:53Z</time>
      </trkpt>
      <trkpt lat="43.55342" lon="1.19789">
        <ele>202.2</ele>
        <time>2025-12-19T08:45:54Z</time>
      </trkpt>
      <trkpt lat="43.55342" lon="1.1978">
        <ele>202.2</ele>
        <time>2025-12-19T08:45:55Z</time>
      </trkpt>
      <trkpt lat="43.55342" lon="1.19771">
        <ele>202.2</ele>
        <time>2025-12-19T08:45:56Z</time>
      </trkpt>
      <trkpt lat="43.55342" lon="1.19762">
        <ele>202.2</ele>
        <time>2025-12-19T08:45:57Z</time>
      </trkpt>
      <trkpt lat="43.55342" lon="1.19753">
        <ele>202.2</ele>
        <time>2025-12-19T08:45:58Z</time>
      </trkpt>
      <trkpt lat="43.55342" lon="1.19745">
        <ele>202.2</ele>
        <time>2025-12-19T08:45:59Z</time>
      </trkpt>
      <trkpt lat="43.55342" lon="1.19736">
        <ele>202.4</ele>
        <time>2025-12-19T08:46:00Z</time>
      </trkpt>
      <trkpt lat="43.55341" lon="1.19728">
        <ele>202.4</ele>
        <time>2025-12-19T08:46:01Z</time>
      </trkpt>
      <trkpt lat="43.55341" lon="1.1972">
        <ele>202.4</ele>
        <time>2025-12-19T08:46:02Z</time>
      </trkpt>
      <trkpt lat="43.55341" lon="1.19712">
        <ele>202.4</ele>
        <time>2025-12-19T08:46:03Z</time>
      </trkpt>
      <trkpt lat="43.55341" lon="1.19703">
        <ele>202.4</ele>
        <time>2025-12-19T08:46:04Z</time>
      </trkpt>
      <trkpt lat="43.55341" lon="1.19695">
        <ele>202.4</ele>
        <time>2025-12-19T08:46:05Z</time>
      </trkpt>
      <trkpt lat="43.5534" lon="1.19687">
        <ele>202.4</ele>
        <time>2025-12-19T08:46:06Z</time>
      </trkpt>
      <trkpt lat="43.5534" lon="1.19678">
        <ele>202.4</ele>
        <time>2025-12-19T08:46:07Z</time>
      </trkpt>
      <trkpt lat="43.55339" lon="1.19669">
        <ele>202.2</ele>
        <time>2025-12-19T08:46:08Z</time>
      </trkpt>
      <trkpt lat="43.55338" lon="1.19659">
        <ele>201.8</ele>
        <time>2025-12-19T08:46:09Z</time>
      </trkpt>
      <trkpt lat="43.55337" lon="1.19649">
        <ele>201.6</ele>
        <time>2025-12-19T08:46:10Z</time>
      </trkpt>
      <trkpt lat="43.55336" lon="1.19639">
        <ele>201.2</ele>
        <time>2025-12-19T08:46:11Z</time>
      </trkpt>
      <trkpt lat="43.55334" lon="1.19629">
        <ele>200.6</ele>
        <time>2025-12-19T08:46:12Z</time>
      </trkpt>
      <trkpt lat="43.55332" lon="1.1962">
        <ele>200.2</ele>
        <time>2025-12-19T08:46:13Z</time>
      </trkpt>
      <trkpt lat="43.55328" lon="1.1961">
        <ele>199.6</ele>
        <time>2025-12-19T08:46:14Z</time>
      </trkpt>
      <trkpt lat="43.55322" lon="1.19601">
        <ele>199</ele>
        <time>2025-12-19T08:46:15Z</time>
      </trkpt>
      <trkpt lat="43.55314" lon="1.19594">
        <ele>198.2</ele>
        <time>2025-12-19T08:46:16Z</time>
      </trkpt>
      <trkpt lat="43.55306" lon="1.19587">
        <ele>197.4</ele>
        <time>2025-12-19T08:46:17Z</time>
      </trkpt>
      <trkpt lat="43.55298" lon="1.19579">
        <ele>196.4</ele>
        <time>2025-12-19T08:46:18Z</time>
      </trkpt>
      <trkpt lat="43.55291" lon="1.19571">
        <ele>195.4</ele>
        <time>2025-12-19T08:46:19Z</time>
      </trkpt>
      <trkpt lat="43.55285" lon="1.19561">
        <ele>194.8</ele>
        <time>2025-12-19T08:46:20Z</time>
      </trkpt>
      <trkpt lat="43.55279" lon="1.19551">
        <ele>194.2</ele>
        <time>2025-12-19T08:46:21Z</time>
      </trkpt>
      <trkpt lat="43.55274" lon="1.19541">
        <ele>194</ele>
        <time>2025-12-19T08:46:22Z</time>
      </trkpt>
      <trkpt lat="43.5527" lon="1.19531">
        <ele>193.8</ele>
        <time>2025-12-19T08:46:23Z</time>
      </trkpt>
      <trkpt lat="43.55268" lon="1.1952">
        <ele>193.6</ele>
        <time>2025-12-19T08:46:24Z</time>
      </trkpt>
      <trkpt lat="43.55266" lon="1.1951">
        <ele>193.6</ele>
        <time>2025-12-19T08:46:25Z</time>
      </trkpt>
      <trkpt lat="43.55265" lon="1.19499">
        <ele>194</ele>
        <time>2025-12-19T08:46:26Z</time>
      </trkpt>
      <trkpt lat="43.55265" lon="1.19489">
        <ele>194</ele>
        <time>2025-12-19T08:46:27Z</time>
      </trkpt>
      <trkpt lat="43.55265" lon="1.1948">
        <ele>194.2</ele>
        <time>2025-12-19T08:46:28Z</time>
      </trkpt>
      <trkpt lat="43.55266" lon="1.19471">
        <ele>194.4</ele>
        <time>2025-12-19T08:46:29Z</time>
      </trkpt>
      <trkpt lat="43.55267" lon="1.19463">
        <ele>194.4</ele>
        <time>2025-12-19T08:46:30Z</time>
      </trkpt>
      <trkpt lat="43.55267" lon="1.19455">
        <ele>194.6</ele>
        <time>2025-12-19T08:46:31Z</time>
      </trkpt>
      <trkpt lat="43.55268" lon="1.19447">
        <ele>194.6</ele>
        <time>2025-12-19T08:46:32Z</time>
      </trkpt>
      <trkpt lat="43.55269" lon="1.19438">
        <ele>194.8</ele>
        <time>2025-12-19T08:46:33Z</time>
      </trkpt>
      <trkpt lat="43.5527" lon="1.1943">
        <ele>194.8</ele>
        <time>2025-12-19T08:46:34Z</time>
      </trkpt>
      <trkpt lat="43.5527" lon="1.19421">
        <ele>194.8</ele>
        <time>2025-12-19T08:46:35Z</time>
      </trkpt>
      <trkpt lat="43.55271" lon="1.19412">
        <ele>194.8</ele>
        <time>2025-12-19T08:46:36Z</time>
      </trkpt>
      <trkpt lat="43.55271" lon="1.19403">
        <ele>194.6</ele>
        <time>2025-12-19T08:46:37Z</time>
      </trkpt>
      <trkpt lat="43.55271" lon="1.19394">
        <ele>194.6</ele>
        <time>2025-12-19T08:46:38Z</time>
      </trkpt>
      <trkpt lat="43.55271" lon="1.19385">
        <ele>194.8</ele>
        <time>2025-12-19T08:46:39Z</time>
      </trkpt>
      <trkpt lat="43.55272" lon="1.19378">
        <ele>194.8</ele>
        <time>2025-12-19T08:46:40Z</time>
      </trkpt>
      <trkpt lat="43.55272" lon="1.1937">
        <ele>195</ele>
        <time>2025-12-19T08:46:41Z</time>
      </trkpt>
      <trkpt lat="43.55272" lon="1.19362">
        <ele>195.2</ele>
        <time>2025-12-19T08:46:42Z</time>
      </trkpt>
      <trkpt lat="43.55272" lon="1.19355">
        <ele>195.4</ele>
        <time>2025-12-19T08:46:43Z</time>
      </trkpt>
      <trkpt lat="43.55272" lon="1.19348">
        <ele>195.6</ele>
        <time>2025-12-19T08:46:44Z</time>
      </trkpt>
      <trkpt lat="43.55272" lon="1.19341">
        <ele>196</ele>
        <time>2025-12-19T08:46:45Z</time>
      </trkpt>
      <trkpt lat="43.55272" lon="1.19335">
        <ele>196.2</ele>
        <time>2025-12-19T08:46:46Z</time>
      </trkpt>
      <trkpt lat="43.55272" lon="1.19328">
        <ele>196.6</ele>
        <time>2025-12-19T08:46:47Z</time>
      </trkpt>
      <trkpt lat="43.55272" lon="1.19321">
        <ele>196.8</ele>
        <time>2025-12-19T08:46:48Z</time>
      </trkpt>
      <trkpt lat="43.55273" lon="1.19315">
        <ele>197.2</ele>
        <time>2025-12-19T08:46:49Z</time>
      </trkpt>
      <trkpt lat="43.55273" lon="1.19308">
        <ele>197.6</ele>
        <time>2025-12-19T08:46:50Z</time>
      </trkpt>
      <trkpt lat="43.55273" lon="1.19302">
        <ele>197.8</ele>
        <time>2025-12-19T08:46:51Z</time>
      </trkpt>
      <trkpt lat="43.55273" lon="1.19296">
        <ele>198.2</ele>
        <time>2025-12-19T08:46:52Z</time>
      </trkpt>
      <trkpt lat="43.55273" lon="1.19289">
        <ele>198.4</ele>
        <time>2025-12-19T08:46:53Z</time>
      </trkpt>
      <trkpt lat="43.55273" lon="1.19283">
        <ele>198.8</ele>
        <time>2025-12-19T08:46:54Z</time>
      </trkpt>
      <trkpt lat="43.55273" lon="1.19278">
        <ele>199</ele>
        <time>2025-12-19T08:46:55Z</time>
      </trkpt>
      <trkpt lat="43.55272" lon="1.19272">
        <ele>199.4</ele>
        <time>2025-12-19T08:46:56Z</time>
      </trkpt>
      <trkpt lat="43.55272" lon="1.19267">
        <ele>199.6</ele>
        <time>2025-12-19T08:46:57Z</time>
      </trkpt>
      <trkpt lat="43.55272" lon="1.19261">
        <ele>200</ele>
        <time>2025-12-19T08:46:58Z</time>
      </trkpt>
      <trkpt lat="43.55273" lon="1.19256">
        <ele>200.2</ele>
        <time>2025-12-19T08:46:59Z</time>
      </trkpt>
      <trkpt lat="43.55276" lon="1.19251">
        <ele>200.6</ele>
        <time>2025-12-19T08:47:00Z</time>
      </trkpt>
      <trkpt lat="43.55279" lon="1.19248">
        <ele>200.8</ele>
        <time>2025-12-19T08:47:01Z</time>
      </trkpt>
      <trkpt lat="43.55281" lon="1.19242">
        <ele>201</ele>
        <time>2025-12-19T08:47:02Z</time>
      </trkpt>
      <trkpt lat="43.55282" lon="1.19237">
        <ele>201.2</ele>
        <time>2025-12-19T08:47:03Z</time>
      </trkpt>
      <trkpt lat="43.55282" lon="1.19232">
        <ele>201.2</ele>
        <time>2025-12-19T08:47:04Z</time>
      </trkpt>
      <trkpt lat="43.55282" lon="1.19226">
        <ele>201.4</ele>
        <time>2025-12-19T08:47:05Z</time>
      </trkpt>
      <trkpt lat="43.55283" lon="1.1922">
        <ele>201.6</ele>
        <time>2025-12-19T08:47:06Z</time>
      </trkpt>
      <trkpt lat="43.55283" lon="1.19214">
        <ele>201.6</ele>
        <time>2025-12-19T08:47:07Z</time>
      </trkpt>
      <trkpt lat="43.55282" lon="1.19209">
        <ele>201.8</ele>
        <time>2025-12-19T08:47:08Z</time>
      </trkpt>
      <trkpt lat="43.55281" lon="1.19203">
        <ele>202</ele>
        <time>2025-12-19T08:47:09Z</time>
      </trkpt>
      <trkpt lat="43.5528" lon="1.19199">
        <ele>202</ele>
        <time>2025-12-19T08:47:10Z</time>
      </trkpt>
      <trkpt lat="43.55278" lon="1.19195">
        <ele>202.2</ele>
        <time>2025-12-19T08:47:11Z</time>
      </trkpt>
      <trkpt lat="43.55275" lon="1.19191">
        <ele>202.2</ele>
        <time>2025-12-19T08:47:12Z</time>
      </trkpt>
      <trkpt lat="43.55273" lon="1.19187">
        <ele>202.2</ele>
        <time>2025-12-19T08:47:13Z</time>
      </trkpt>
      <trkpt lat="43.55271" lon="1.19182">
        <ele>202.2</ele>
        <time>2025-12-19T08:47:14Z</time>
      </trkpt>
      <trkpt lat="43.5527" lon="1.19177">
        <ele>202.2</ele>
        <time>2025-12-19T08:47:15Z</time>
      </trkpt>
      <trkpt lat="43.5527" lon="1.19171">
        <ele>202</ele>
        <time>2025-12-19T08:47:16Z</time>
      </trkpt>
      <trkpt lat="43.55269" lon="1.19166">
        <ele>202</ele>
        <time>2025-12-19T08:47:17Z</time>
      </trkpt>
      <trkpt lat="43.55269" lon="1.19162">
        <ele>202</ele>
        <time>2025-12-19T08:47:18Z</time>
      </trkpt>
      <trkpt lat="43.55269" lon="1.19158">
        <ele>202</ele>
        <time>2025-12-19T08:47:19Z</time>
      </trkpt>
      <trkpt lat="43.55269" lon="1.19154">
        <ele>202</ele>
        <time>2025-12-19T08:47:20Z</time>
      </trkpt>
      <trkpt lat="43.5527" lon="1.19152">
        <ele>202</ele>
        <time>2025-12-19T08:47:21Z</time>
      </trkpt>
      <trkpt lat="43.5527" lon="1.19149">
        <ele>202</ele>
        <time>2025-12-19T08:47:22Z</time>
      </trkpt>
      <trkpt lat="43.5527" lon="1.19148">
        <ele>202</ele>
        <time>2025-12-19T08:47:23Z</time>
      </trkpt>
      <trkpt lat="43.5527" lon="1.19146">
        <ele>202</ele>
        <time>2025-12-19T08:47:24Z</time>
      </trkpt>
      <trkpt lat="43.5527" lon="1.19144">
        <ele>202</ele>
        <time>2025-12-19T08:47:25Z</time>
      </trkpt>
      <trkpt lat="43.5527" lon="1.19143">
        <ele>202</ele>
        <time>2025-12-19T08:47:26Z</time>
      </trkpt>
      <trkpt lat="43.5527" lon="1.19142">
        <ele>202</ele>
        <time>2025-12-19T08:47:27Z</time>
      </trkpt>
      <trkpt lat="43.5527" lon="1.19142">
        <ele>202</ele>
        <time>2025-12-19T08:47:28Z</time>
      </trkpt>
      <trkpt lat="43.55269" lon="1.19139">
        <ele>202</ele>
        <time>2025-12-19T08:48:03Z</time>
      </trkpt>
      <trkpt lat="43.55268" lon="1.19136">
        <ele>202</ele>
        <time>2025-12-19T08:48:04Z</time>
      </trkpt>
      <trkpt lat="43.55265" lon="1.19133">
        <ele>202</ele>
        <time>2025-12-19T08:48:05Z</time>
      </trkpt>
      <trkpt lat="43.55262" lon="1.1913">
        <ele>201.8</ele>
        <time>2025-12-19T08:48:06Z</time>
      </trkpt>
      <trkpt lat="43.55258" lon="1.19128">
        <ele>201.8</ele>
        <time>2025-12-19T08:48:07Z</time>
      </trkpt>
      <trkpt lat="43.55253" lon="1.19127">
        <ele>201.6</ele>
        <time>2025-12-19T08:48:08Z</time>
      </trkpt>
      <trkpt lat="43.55248" lon="1.19126">
        <ele>201.4</ele>
        <time>2025-12-19T08:48:09Z</time>
      </trkpt>
      <trkpt lat="43.55242" lon="1.19125">
        <ele>201.2</ele>
        <time>2025-12-19T08:48:10Z</time>
      </trkpt>
      <trkpt lat="43.55236" lon="1.19124">
        <ele>201</ele>
        <time>2025-12-19T08:48:11Z</time>
      </trkpt>
      <trkpt lat="43.5523" lon="1.19124">
        <ele>200.4</ele>
        <time>2025-12-19T08:48:12Z</time>
      </trkpt>
      <trkpt lat="43.55223" lon="1.19123">
        <ele>200.2</ele>
        <time>2025-12-19T08:48:13Z</time>
      </trkpt>
      <trkpt lat="43.55217" lon="1.19122">
        <ele>199.8</ele>
        <time>2025-12-19T08:48:14Z</time>
      </trkpt>
      <trkpt lat="43.5521" lon="1.19122">
        <ele>199.4</ele>
        <time>2025-12-19T08:48:15Z</time>
      </trkpt>
      <trkpt lat="43.55203" lon="1.19121">
        <ele>199.2</ele>
        <time>2025-12-19T08:48:16Z</time>
      </trkpt>
      <trkpt lat="43.55195" lon="1.19121">
        <ele>198.8</ele>
        <time>2025-12-19T08:48:17Z</time>
      </trkpt>
      <trkpt lat="43.55188" lon="1.19122">
        <ele>198.4</ele>
        <time>2025-12-19T08:48:18Z</time>
      </trkpt>
      <trkpt lat="43.55181" lon="1.19121">
        <ele>198</ele>
        <time>2025-12-19T08:48:19Z</time>
      </trkpt>
      <trkpt lat="43.55173" lon="1.1912">
        <ele>197.8</ele>
        <time>2025-12-19T08:48:20Z</time>
      </trkpt>
      <trkpt lat="43.55166" lon="1.19121">
        <ele>197.6</ele>
        <time>2025-12-19T08:48:21Z</time>
      </trkpt>
      <trkpt lat="43.55159" lon="1.1912">
        <ele>197.6</ele>
        <time>2025-12-19T08:48:22Z</time>
      </trkpt>
      <trkpt lat="43.55153" lon="1.1912">
        <ele>197.4</ele>
        <time>2025-12-19T08:48:23Z</time>
      </trkpt>
      <trkpt lat="43.55146" lon="1.19119">
        <ele>197.2</ele>
        <time>2025-12-19T08:48:24Z</time>
      </trkpt>
      <trkpt lat="43.5514" lon="1.19119">
        <ele>197.2</ele>
        <time>2025-12-19T08:48:25Z</time>
      </trkpt>
      <trkpt lat="43.55134" lon="1.19119">
        <ele>197.2</ele>
        <time>2025-12-19T08:48:26Z</time>
      </trkpt>
      <trkpt lat="43.55128" lon="1.19119">
        <ele>197.2</ele>
        <time>2025-12-19T08:48:27Z</time>
      </trkpt>
      <trkpt lat="43.55121" lon="1.1912">
        <ele>197.2</ele>
        <time>2025-12-19T08:48:28Z</time>
      </trkpt>
      <trkpt lat="43.55116" lon="1.19122">
        <ele>197.2</ele>
        <time>2025-12-19T08:48:29Z</time>
      </trkpt>
      <trkpt lat="43.5511" lon="1.19125">
        <ele>197.4</ele>
        <time>2025-12-19T08:48:30Z</time>
      </trkpt>
      <trkpt lat="43.55105" lon="1.1913">
        <ele>197.2</ele>
        <time>2025-12-19T08:48:31Z</time>
      </trkpt>
      <trkpt lat="43.551" lon="1.19133">
        <ele>197.4</ele>
        <time>2025-12-19T08:48:32Z</time>
      </trkpt>
      <trkpt lat="43.55096" lon="1.19138">
        <ele>197.4</ele>
        <time>2025-12-19T08:48:33Z</time>
      </trkpt>
      <trkpt lat="43.55091" lon="1.19143">
        <ele>197.8</ele>
        <time>2025-12-19T08:48:34Z</time>
      </trkpt>
      <trkpt lat="43.55087" lon="1.19148">
        <ele>198</ele>
        <time>2025-12-19T08:48:35Z</time>
      </trkpt>
      <trkpt lat="43.55084" lon="1.19153">
        <ele>198.2</ele>
        <time>2025-12-19T08:48:36Z</time>
      </trkpt>
      <trkpt lat="43.5508" lon="1.19159">
        <ele>198.4</ele>
        <time>2025-12-19T08:48:37Z</time>
      </trkpt>
      <trkpt lat="43.55077" lon="1.19164">
        <ele>198.6</ele>
        <time>2025-12-19T08:48:38Z</time>
      </trkpt>
      <trkpt lat="43.55073" lon="1.19169">
        <ele>199</ele>
        <time>2025-12-19T08:48:39Z</time>
      </trkpt>
      <trkpt lat="43.5507" lon="1.19174">
        <ele>199</ele>
        <time>2025-12-19T08:48:40Z</time>
      </trkpt>
      <trkpt lat="43.55066" lon="1.19179">
        <ele>199.4</ele>
        <time>2025-12-19T08:48:41Z</time>
      </trkpt>
      <trkpt lat="43.55062" lon="1.19183">
        <ele>199.6</ele>
        <time>2025-12-19T08:48:42Z</time>
      </trkpt>
      <trkpt lat="43.55058" lon="1.19188">
        <ele>199.8</ele>
        <time>2025-12-19T08:48:43Z</time>
      </trkpt>
      <trkpt lat="43.55055" lon="1.19193">
        <ele>200</ele>
        <time>2025-12-19T08:48:44Z</time>
      </trkpt>
      <trkpt lat="43.55052" lon="1.19198">
        <ele>200.4</ele>
        <time>2025-12-19T08:48:45Z</time>
      </trkpt>
      <trkpt lat="43.55048" lon="1.19202">
        <ele>200.6</ele>
        <time>2025-12-19T08:48:46Z</time>
      </trkpt>
      <trkpt lat="43.55045" lon="1.19206">
        <ele>200.8</ele>
        <time>2025-12-19T08:48:47Z</time>
      </trkpt>
      <trkpt lat="43.55041" lon="1.19211">
        <ele>201</ele>
        <time>2025-12-19T08:48:48Z</time>
      </trkpt>
      <trkpt lat="43.55037" lon="1.19214">
        <ele>201.4</ele>
        <time>2025-12-19T08:48:49Z</time>
      </trkpt>
      <trkpt lat="43.55032" lon="1.19218">
        <ele>201.6</ele>
        <time>2025-12-19T08:48:50Z</time>
      </trkpt>
      <trkpt lat="43.55028" lon="1.19221">
        <ele>201.6</ele>
        <time>2025-12-19T08:48:51Z</time>
      </trkpt>
      <trkpt lat="43.55023" lon="1.19224">
        <ele>201.8</ele>
        <time>2025-12-19T08:48:52Z</time>
      </trkpt>
      <trkpt lat="43.55018" lon="1.19226">
        <ele>202</ele>
        <time>2025-12-19T08:48:53Z</time>
      </trkpt>
      <trkpt lat="43.55013" lon="1.19229">
        <ele>202.2</ele>
        <time>2025-12-19T08:48:54Z</time>
      </trkpt>
      <trkpt lat="43.55008" lon="1.19231">
        <ele>202.4</ele>
        <time>2025-12-19T08:48:55Z</time>
      </trkpt>
      <trkpt lat="43.55003" lon="1.19233">
        <ele>202.6</ele>
        <time>2025-12-19T08:48:56Z</time>
      </trkpt>
      <trkpt lat="43.54999" lon="1.19235">
        <ele>202.8</ele>
        <time>2025-12-19T08:48:57Z</time>
      </trkpt>
      <trkpt lat="43.54994" lon="1.19237">
        <ele>202.8</ele>
        <time>2025-12-19T08:48:58Z</time>
      </trkpt>
      <trkpt lat="43.54989" lon="1.19239">
        <ele>203</ele>
        <time>2025-12-19T08:48:59Z</time>
      </trkpt>
      <trkpt lat="43.54985" lon="1.19241">
        <ele>203.2</ele>
        <time>2025-12-19T08:49:00Z</time>
      </trkpt>
      <trkpt lat="43.5498" lon="1.19242">
        <ele>203.2</ele>
        <time>2025-12-19T08:49:01Z</time>
      </trkpt>
      <trkpt lat="43.54975" lon="1.19244">
        <ele>203.2</ele>
        <time>2025-12-19T08:49:02Z</time>
      </trkpt>
      <trkpt lat="43.54969" lon="1.19246">
        <ele>203.4</ele>
        <time>2025-12-19T08:49:03Z</time>
      </trkpt>
      <trkpt lat="43.54964" lon="1.19248">
        <ele>203.4</ele>
        <time>2025-12-19T08:49:04Z</time>
      </trkpt>
      <trkpt lat="43.54959" lon="1.19248">
        <ele>203.4</ele>
        <time>2025-12-19T08:49:05Z</time>
      </trkpt>
      <trkpt lat="43.54953" lon="1.19249">
        <ele>203.6</ele>
        <time>2025-12-19T08:49:06Z</time>
      </trkpt>
      <trkpt lat="43.54947" lon="1.1925">
        <ele>203.6</ele>
        <time>2025-12-19T08:49:07Z</time>
      </trkpt>
      <trkpt lat="43.54941" lon="1.1925">
        <ele>203.6</ele>
        <time>2025-12-19T08:49:08Z</time>
      </trkpt>
      <trkpt lat="43.54936" lon="1.1925">
        <ele>203.6</ele>
        <time>2025-12-19T08:49:09Z</time>
      </trkpt>
      <trkpt lat="43.5493" lon="1.1925">
        <ele>203.6</ele>
        <time>2025-12-19T08:49:10Z</time>
      </trkpt>
      <trkpt lat="43.54924" lon="1.19249">
        <ele>203.8</ele>
        <time>2025-12-19T08:49:11Z</time>
      </trkpt>
      <trkpt lat="43.54918" lon="1.19248">
        <ele>203.8</ele>
        <time>2025-12-19T08:49:12Z</time>
      </trkpt>
      <trkpt lat="43.54913" lon="1.19246">
        <ele>203.8</ele>
        <time>2025-12-19T08:49:13Z</time>
      </trkpt>
      <trkpt lat="43.54907" lon="1.19245">
        <ele>203.8</ele>
        <time>2025-12-19T08:49:14Z</time>
      </trkpt>
      <trkpt lat="43.54901" lon="1.19243">
        <ele>203.8</ele>
        <time>2025-12-19T08:49:15Z</time>
      </trkpt>
      <trkpt lat="43.54895" lon="1.1924">
        <ele>203.8</ele>
        <time>2025-12-19T08:49:16Z</time>
      </trkpt>
      <trkpt lat="43.5489" lon="1.19238">
        <ele>203.6</ele>
        <time>2025-12-19T08:49:17Z</time>
      </trkpt>
      <trkpt lat="43.54884" lon="1.19235">
        <ele>203.6</ele>
        <time>2025-12-19T08:49:18Z</time>
      </trkpt>
      <trkpt lat="43.54878" lon="1.19232">
        <ele>203.8</ele>
        <time>2025-12-19T08:49:19Z</time>
      </trkpt>
      <trkpt lat="43.54873" lon="1.19229">
        <ele>203.8</ele>
        <time>2025-12-19T08:49:20Z</time>
      </trkpt>
      <trkpt lat="43.54868" lon="1.19226">
        <ele>203.8</ele>
        <time>2025-12-19T08:49:21Z</time>
      </trkpt>
      <trkpt lat="43.54862" lon="1.19223">
        <ele>203.8</ele>
        <time>2025-12-19T08:49:22Z</time>
      </trkpt>
      <trkpt lat="43.54857" lon="1.1922">
        <ele>203.8</ele>
        <time>2025-12-19T08:49:23Z</time>
      </trkpt>
      <trkpt lat="43.54852" lon="1.19217">
        <ele>204</ele>
        <time>2025-12-19T08:49:24Z</time>
      </trkpt>
      <trkpt lat="43.54846" lon="1.19214">
        <ele>204</ele>
        <time>2025-12-19T08:49:25Z</time>
      </trkpt>
      <trkpt lat="43.54841" lon="1.19211">
        <ele>204</ele>
        <time>2025-12-19T08:49:26Z</time>
      </trkpt>
      <trkpt lat="43.54836" lon="1.19208">
        <ele>204</ele>
        <time>2025-12-19T08:49:27Z</time>
      </trkpt>
      <trkpt lat="43.5483" lon="1.19205">
        <ele>204</ele>
        <time>2025-12-19T08:49:28Z</time>
      </trkpt>
      <trkpt lat="43.54825" lon="1.19202">
        <ele>204.2</ele>
        <time>2025-12-19T08:49:29Z</time>
      </trkpt>
      <trkpt lat="43.54819" lon="1.19199">
        <ele>204.2</ele>
        <time>2025-12-19T08:49:30Z</time>
      </trkpt>
      <trkpt lat="43.54814" lon="1.19196">
        <ele>204.4</ele>
        <time>2025-12-19T08:49:31Z</time>
      </trkpt>
      <trkpt lat="43.54808" lon="1.19193">
        <ele>204.4</ele>
        <time>2025-12-19T08:49:32Z</time>
      </trkpt>
      <trkpt lat="43.54803" lon="1.1919">
        <ele>204.4</ele>
        <time>2025-12-19T08:49:33Z</time>
      </trkpt>
      <trkpt lat="43.54797" lon="1.19187">
        <ele>204.4</ele>
        <time>2025-12-19T08:49:34Z</time>
      </trkpt>
      <trkpt lat="43.54791" lon="1.19184">
        <ele>204.4</ele>
        <time>2025-12-19T08:49:35Z</time>
      </trkpt>
      <trkpt lat="43.54786" lon="1.19182">
        <ele>204.2</ele>
        <time>2025-12-19T08:49:36Z</time>
      </trkpt>
      <trkpt lat="43.5478" lon="1.19179">
        <ele>204.2</ele>
        <time>2025-12-19T08:49:37Z</time>
      </trkpt>
      <trkpt lat="43.54774" lon="1.19176">
        <ele>204.2</ele>
        <time>2025-12-19T08:49:38Z</time>
      </trkpt>
      <trkpt lat="43.54769" lon="1.19174">
        <ele>204.2</ele>
        <time>2025-12-19T08:49:39Z</time>
      </trkpt>
      <trkpt lat="43.54763" lon="1.19171">
        <ele>204.2</ele>
        <time>2025-12-19T08:49:40Z</time>
      </trkpt>
      <trkpt lat="43.54757" lon="1.19169">
        <ele>204.2</ele>
        <time>2025-12-19T08:49:41Z</time>
      </trkpt>
      <trkpt lat="43.54752" lon="1.19167">
        <ele>204.2</ele>
        <time>2025-12-19T08:49:42Z</time>
      </trkpt>
      <trkpt lat="43.54746" lon="1.19164">
        <ele>204.2</ele>
        <time>2025-12-19T08:49:43Z</time>
      </trkpt>
      <trkpt lat="43.54741" lon="1.19161">
        <ele>204.2</ele>
        <time>2025-12-19T08:49:44Z</time>
      </trkpt>
      <trkpt lat="43.54737" lon="1.19156">
        <ele>204.4</ele>
        <time>2025-12-19T08:49:45Z</time>
      </trkpt>
      <trkpt lat="43.54733" lon="1.19151">
        <ele>204.4</ele>
        <time>2025-12-19T08:49:46Z</time>
      </trkpt>
      <trkpt lat="43.54728" lon="1.19145">
        <ele>204.4</ele>
        <time>2025-12-19T08:49:47Z</time>
      </trkpt>
      <trkpt lat="43.54723" lon="1.19141">
        <ele>204.4</ele>
        <time>2025-12-19T08:49:48Z</time>
      </trkpt>
      <trkpt lat="43.54717" lon="1.19139">
        <ele>204.4</ele>
        <time>2025-12-19T08:49:49Z</time>
      </trkpt>
      <trkpt lat="43.54711" lon="1.19139">
        <ele>204.4</ele>
        <time>2025-12-19T08:49:50Z</time>
      </trkpt>
      <trkpt lat="43.54706" lon="1.19141">
        <ele>204.2</ele>
        <time>2025-12-19T08:49:51Z</time>
      </trkpt>
      <trkpt lat="43.54699" lon="1.19142">
        <ele>204.2</ele>
        <time>2025-12-19T08:49:52Z</time>
      </trkpt>
      <trkpt lat="43.54692" lon="1.19142">
        <ele>204.2</ele>
        <time>2025-12-19T08:49:53Z</time>
      </trkpt>
      <trkpt lat="43.54686" lon="1.19141">
        <ele>204.2</ele>
        <time>2025-12-19T08:49:54Z</time>
      </trkpt>
      <trkpt lat="43.5468" lon="1.1914">
        <ele>204.2</ele>
        <time>2025-12-19T08:49:55Z</time>
      </trkpt>
      <trkpt lat="43.54674" lon="1.19139">
        <ele>204</ele>
        <time>2025-12-19T08:49:56Z</time>
      </trkpt>
      <trkpt lat="43.54667" lon="1.19138">
        <ele>204</ele>
        <time>2025-12-19T08:49:57Z</time>
      </trkpt>
      <trkpt lat="43.54661" lon="1.19137">
        <ele>204</ele>
        <time>2025-12-19T08:49:58Z</time>
      </trkpt>
      <trkpt lat="43.54655" lon="1.19137">
        <ele>203.8</ele>
        <time>2025-12-19T08:49:59Z</time>
      </trkpt>
      <trkpt lat="43.54649" lon="1.19135">
        <ele>203.8</ele>
        <time>2025-12-19T08:50:00Z</time>
      </trkpt>
      <trkpt lat="43.54642" lon="1.19134">
        <ele>203.8</ele>
        <time>2025-12-19T08:50:01Z</time>
      </trkpt>
      <trkpt lat="43.54636" lon="1.19133">
        <ele>203.8</ele>
        <time>2025-12-19T08:50:02Z</time>
      </trkpt>
      <trkpt lat="43.5463" lon="1.19133">
        <ele>204</ele>
        <time>2025-12-19T08:50:03Z</time>
      </trkpt>
      <trkpt lat="43.54623" lon="1.19132">
        <ele>204</ele>
        <time>2025-12-19T08:50:04Z</time>
      </trkpt>
      <trkpt lat="43.54617" lon="1.19132">
        <ele>204</ele>
        <time>2025-12-19T08:50:05Z</time>
      </trkpt>
      <trkpt lat="43.5461" lon="1.19131">
        <ele>204</ele>
        <time>2025-12-19T08:50:06Z</time>
      </trkpt>
      <trkpt lat="43.54604" lon="1.19131">
        <ele>204</ele>
        <time>2025-12-19T08:50:07Z</time>
      </trkpt>
      <trkpt lat="43.54597" lon="1.1913">
        <ele>204.2</ele>
        <time>2025-12-19T08:50:08Z</time>
      </trkpt>
      <trkpt lat="43.5459" lon="1.1913">
        <ele>204.2</ele>
        <time>2025-12-19T08:50:09Z</time>
      </trkpt>
      <trkpt lat="43.54584" lon="1.19129">
        <ele>204.2</ele>
        <time>2025-12-19T08:50:10Z</time>
      </trkpt>
      <trkpt lat="43.54577" lon="1.19128">
        <ele>204.4</ele>
        <time>2025-12-19T08:50:11Z</time>
      </trkpt>
      <trkpt lat="43.54571" lon="1.19128">
        <ele>204.4</ele>
        <time>2025-12-19T08:50:12Z</time>
      </trkpt>
      <trkpt lat="43.54565" lon="1.19128">
        <ele>204.4</ele>
        <time>2025-12-19T08:50:13Z</time>
      </trkpt>
      <trkpt lat="43.54559" lon="1.19127">
        <ele>204.4</ele>
        <time>2025-12-19T08:50:14Z</time>
      </trkpt>
      <trkpt lat="43.54553" lon="1.19126">
        <ele>204.6</ele>
        <time>2025-12-19T08:50:15Z</time>
      </trkpt>
      <trkpt lat="43.54547" lon="1.19125">
        <ele>204.6</ele>
        <time>2025-12-19T08:50:16Z</time>
      </trkpt>
      <trkpt lat="43.54541" lon="1.19123">
        <ele>204.6</ele>
        <time>2025-12-19T08:50:17Z</time>
      </trkpt>
      <trkpt lat="43.54537" lon="1.19121">
        <ele>204.8</ele>
        <time>2025-12-19T08:50:18Z</time>
      </trkpt>
      <trkpt lat="43.54534" lon="1.19118">
        <ele>204.8</ele>
        <time>2025-12-19T08:50:19Z</time>
      </trkpt>
      <trkpt lat="43.54532" lon="1.19115">
        <ele>205</ele>
        <time>2025-12-19T08:50:20Z</time>
      </trkpt>
      <trkpt lat="43.54532" lon="1.19113">
        <ele>205.2</ele>
        <time>2025-12-19T08:50:21Z</time>
      </trkpt>
      <trkpt lat="43.54531" lon="1.19111">
        <ele>205.4</ele>
        <time>2025-12-19T08:50:22Z</time>
      </trkpt>
      <trkpt lat="43.5453" lon="1.1911">
        <ele>205.6</ele>
        <time>2025-12-19T08:50:23Z</time>
      </trkpt>
      <trkpt lat="43.5453" lon="1.19108">
        <ele>205.8</ele>
        <time>2025-12-19T08:50:24Z</time>
      </trkpt>
      <trkpt lat="43.54529" lon="1.19106">
        <ele>205.8</ele>
        <time>2025-12-19T08:50:25Z</time>
      </trkpt>
      <trkpt lat="43.54528" lon="1.19101">
        <ele>205.8</ele>
        <time>2025-12-19T08:50:26Z</time>
      </trkpt>
      <trkpt lat="43.54526" lon="1.19096">
        <ele>205.8</ele>
        <time>2025-12-19T08:50:27Z</time>
      </trkpt>
      <trkpt lat="43.54524" lon="1.19091">
        <ele>205.8</ele>
        <time>2025-12-19T08:50:28Z</time>
      </trkpt>
      <trkpt lat="43.54521" lon="1.19087">
        <ele>205.8</ele>
        <time>2025-12-19T08:50:29Z</time>
      </trkpt>
      <trkpt lat="43.54518" lon="1.19082">
        <ele>205.8</ele>
        <time>2025-12-19T08:50:30Z</time>
      </trkpt>
      <trkpt lat="43.54514" lon="1.19077">
        <ele>205.8</ele>
        <time>2025-12-19T08:50:31Z</time>
      </trkpt>
      <trkpt lat="43.54511" lon="1.19071">
        <ele>205.6</ele>
        <time>2025-12-19T08:50:32Z</time>
      </trkpt>
      <trkpt lat="43.5451" lon="1.19064">
        <ele>205.6</ele>
        <time>2025-12-19T08:50:33Z</time>
      </trkpt>
      <trkpt lat="43.5451" lon="1.19056">
        <ele>205.4</ele>
        <time>2025-12-19T08:50:34Z</time>
      </trkpt>
      <trkpt lat="43.54511" lon="1.19049">
        <ele>205.4</ele>
        <time>2025-12-19T08:50:35Z</time>
      </trkpt>
      <trkpt lat="43.54512" lon="1.19041">
        <ele>205.2</ele>
        <time>2025-12-19T08:50:36Z</time>
      </trkpt>
      <trkpt lat="43.54513" lon="1.19032">
        <ele>205</ele>
        <time>2025-12-19T08:50:37Z</time>
      </trkpt>
      <trkpt lat="43.54515" lon="1.19024">
        <ele>205</ele>
        <time>2025-12-19T08:50:38Z</time>
      </trkpt>
      <trkpt lat="43.54517" lon="1.19015">
        <ele>204.8</ele>
        <time>2025-12-19T08:50:39Z</time>
      </trkpt>
      <trkpt lat="43.54519" lon="1.19007">
        <ele>204.8</ele>
        <time>2025-12-19T08:50:40Z</time>
      </trkpt>
      <trkpt lat="43.54521" lon="1.18998">
        <ele>204.8</ele>
        <time>2025-12-19T08:50:41Z</time>
      </trkpt>
      <trkpt lat="43.54522" lon="1.18989">
        <ele>204.8</ele>
        <time>2025-12-19T08:50:42Z</time>
      </trkpt>
      <trkpt lat="43.54524" lon="1.1898">
        <ele>204.8</ele>
        <time>2025-12-19T08:50:43Z</time>
      </trkpt>
      <trkpt lat="43.54526" lon="1.18972">
        <ele>204.8</ele>
        <time>2025-12-19T08:50:44Z</time>
      </trkpt>
      <trkpt lat="43.54528" lon="1.18963">
        <ele>204.8</ele>
        <time>2025-12-19T08:50:45Z</time>
      </trkpt>
      <trkpt lat="43.5453" lon="1.18953">
        <ele>204.8</ele>
        <time>2025-12-19T08:50:46Z</time>
      </trkpt>
      <trkpt lat="43.54532" lon="1.18944">
        <ele>204.8</ele>
        <time>2025-12-19T08:50:47Z</time>
      </trkpt>
      <trkpt lat="43.54534" lon="1.18935">
        <ele>204.8</ele>
        <time>2025-12-19T08:50:48Z</time>
      </trkpt>
      <trkpt lat="43.54536" lon="1.18927">
        <ele>204.8</ele>
        <time>2025-12-19T08:50:49Z</time>
      </trkpt>
      <trkpt lat="43.54537" lon="1.18918">
        <ele>204.8</ele>
        <time>2025-12-19T08:50:50Z</time>
      </trkpt>
      <trkpt lat="43.5454" lon="1.18909">
        <ele>204.8</ele>
        <time>2025-12-19T08:50:51Z</time>
      </trkpt>
      <trkpt lat="43.54542" lon="1.189">
        <ele>204.8</ele>
        <time>2025-12-19T08:50:52Z</time>
      </trkpt>
      <trkpt lat="43.54544" lon="1.18891">
        <ele>204.6</ele>
        <time>2025-12-19T08:50:53Z</time>
      </trkpt>
      <trkpt lat="43.54546" lon="1.18882">
        <ele>204.6</ele>
        <time>2025-12-19T08:50:54Z</time>
      </trkpt>
      <trkpt lat="43.54548" lon="1.18873">
        <ele>204.6</ele>
        <time>2025-12-19T08:50:55Z</time>
      </trkpt>
      <trkpt lat="43.5455" lon="1.18863">
        <ele>204.6</ele>
        <time>2025-12-19T08:50:56Z</time>
      </trkpt>
      <trkpt lat="43.54552" lon="1.18854">
        <ele>204.6</ele>
        <time>2025-12-19T08:50:57Z</time>
      </trkpt>
      <trkpt lat="43.54554" lon="1.18845">
        <ele>204.6</ele>
        <time>2025-12-19T08:50:58Z</time>
      </trkpt>
      <trkpt lat="43.54556" lon="1.18836">
        <ele>204.6</ele>
        <time>2025-12-19T08:50:59Z</time>
      </trkpt>
      <trkpt lat="43.54558" lon="1.18827">
        <ele>204.8</ele>
        <time>2025-12-19T08:51:00Z</time>
      </trkpt>
      <trkpt lat="43.54561" lon="1.18818">
        <ele>204.8</ele>
        <time>2025-12-19T08:51:01Z</time>
      </trkpt>
      <trkpt lat="43.54563" lon="1.18808">
        <ele>204.8</ele>
        <time>2025-12-19T08:51:02Z</time>
      </trkpt>
      <trkpt lat="43.54565" lon="1.18798">
        <ele>205</ele>
        <time>2025-12-19T08:51:03Z</time>
      </trkpt>
      <trkpt lat="43.54567" lon="1.18789">
        <ele>205</ele>
        <time>2025-12-19T08:51:04Z</time>
      </trkpt>
      <trkpt lat="43.54569" lon="1.18779">
        <ele>205</ele>
        <time>2025-12-19T08:51:05Z</time>
      </trkpt>
      <trkpt lat="43.54571" lon="1.18769">
        <ele>205</ele>
        <time>2025-12-19T08:51:06Z</time>
      </trkpt>
      <trkpt lat="43.54573" lon="1.1876">
        <ele>204.8</ele>
        <time>2025-12-19T08:51:07Z</time>
      </trkpt>
      <trkpt lat="43.54576" lon="1.18751">
        <ele>204.8</ele>
        <time>2025-12-19T08:51:08Z</time>
      </trkpt>
      <trkpt lat="43.54578" lon="1.18742">
        <ele>204.8</ele>
        <time>2025-12-19T08:51:09Z</time>
      </trkpt>
      <trkpt lat="43.5458" lon="1.18732">
        <ele>204.6</ele>
        <time>2025-12-19T08:51:10Z</time>
      </trkpt>
      <trkpt lat="43.54582" lon="1.18723">
        <ele>204.6</ele>
        <time>2025-12-19T08:51:11Z</time>
      </trkpt>
      <trkpt lat="43.54585" lon="1.18713">
        <ele>204.6</ele>
        <time>2025-12-19T08:51:12Z</time>
      </trkpt>
      <trkpt lat="43.54586" lon="1.18704">
        <ele>204.8</ele>
        <time>2025-12-19T08:51:13Z</time>
      </trkpt>
      <trkpt lat="43.54588" lon="1.18694">
        <ele>204.6</ele>
        <time>2025-12-19T08:51:14Z</time>
      </trkpt>
      <trkpt lat="43.5459" lon="1.18684">
        <ele>204.6</ele>
        <time>2025-12-19T08:51:15Z</time>
      </trkpt>
      <trkpt lat="43.54591" lon="1.18674">
        <ele>204.6</ele>
        <time>2025-12-19T08:51:16Z</time>
      </trkpt>
      <trkpt lat="43.54592" lon="1.18664">
        <ele>204.6</ele>
        <time>2025-12-19T08:51:17Z</time>
      </trkpt>
      <trkpt lat="43.54592" lon="1.18655">
        <ele>204.6</ele>
        <time>2025-12-19T08:51:18Z</time>
      </trkpt>
      <trkpt lat="43.54593" lon="1.18645">
        <ele>204.4</ele>
        <time>2025-12-19T08:51:19Z</time>
      </trkpt>
      <trkpt lat="43.54594" lon="1.18635">
        <ele>204.4</ele>
        <time>2025-12-19T08:51:20Z</time>
      </trkpt>
      <trkpt lat="43.54594" lon="1.18625">
        <ele>204.4</ele>
        <time>2025-12-19T08:51:21Z</time>
      </trkpt>
      <trkpt lat="43.54595" lon="1.18616">
        <ele>204.4</ele>
        <time>2025-12-19T08:51:22Z</time>
      </trkpt>
      <trkpt lat="43.54596" lon="1.18607">
        <ele>204.4</ele>
        <time>2025-12-19T08:51:23Z</time>
      </trkpt>
      <trkpt lat="43.54596" lon="1.18598">
        <ele>204.6</ele>
        <time>2025-12-19T08:51:24Z</time>
      </trkpt>
      <trkpt lat="43.54597" lon="1.18589">
        <ele>204.6</ele>
        <time>2025-12-19T08:51:25Z</time>
      </trkpt>
      <trkpt lat="43.54598" lon="1.18579">
        <ele>204.6</ele>
        <time>2025-12-19T08:51:26Z</time>
      </trkpt>
      <trkpt lat="43.54598" lon="1.1857">
        <ele>204.4</ele>
        <time>2025-12-19T08:51:27Z</time>
      </trkpt>
      <trkpt lat="43.54599" lon="1.1856">
        <ele>204.4</ele>
        <time>2025-12-19T08:51:28Z</time>
      </trkpt>
      <trkpt lat="43.54599" lon="1.18551">
        <ele>204.4</ele>
        <time>2025-12-19T08:51:29Z</time>
      </trkpt>
      <trkpt lat="43.546" lon="1.18541">
        <ele>204.4</ele>
        <time>2025-12-19T08:51:30Z</time>
      </trkpt>
      <trkpt lat="43.546" lon="1.18532">
        <ele>204.4</ele>
        <time>2025-12-19T08:51:31Z</time>
      </trkpt>
      <trkpt lat="43.546" lon="1.18523">
        <ele>204.4</ele>
        <time>2025-12-19T08:51:32Z</time>
      </trkpt>
      <trkpt lat="43.54601" lon="1.18513">
        <ele>204.4</ele>
        <time>2025-12-19T08:51:33Z</time>
      </trkpt>
      <trkpt lat="43.54601" lon="1.18503">
        <ele>204.6</ele>
        <time>2025-12-19T08:51:34Z</time>
      </trkpt>
      <trkpt lat="43.54602" lon="1.18494">
        <ele>204.6</ele>
        <time>2025-12-19T08:51:35Z</time>
      </trkpt>
      <trkpt lat="43.54602" lon="1.18484">
        <ele>204.6</ele>
        <time>2025-12-19T08:51:36Z</time>
      </trkpt>
      <trkpt lat="43.54603" lon="1.18475">
        <ele>204.6</ele>
        <time>2025-12-19T08:51:37Z</time>
      </trkpt>
      <trkpt lat="43.54603" lon="1.18465">
        <ele>204.6</ele>
        <time>2025-12-19T08:51:38Z</time>
      </trkpt>
      <trkpt lat="43.54604" lon="1.18456">
        <ele>204.8</ele>
        <time>2025-12-19T08:51:39Z</time>
      </trkpt>
      <trkpt lat="43.54605" lon="1.18447">
        <ele>204.8</ele>
        <time>2025-12-19T08:51:40Z</time>
      </trkpt>
      <trkpt lat="43.54605" lon="1.18438">
        <ele>204.8</ele>
        <time>2025-12-19T08:51:41Z</time>
      </trkpt>
      <trkpt lat="43.54606" lon="1.18428">
        <ele>204.8</ele>
        <time>2025-12-19T08:51:42Z</time>
      </trkpt>
      <trkpt lat="43.54607" lon="1.18419">
        <ele>204.8</ele>
        <time>2025-12-19T08:51:43Z</time>
      </trkpt>
      <trkpt lat="43.54607" lon="1.18409">
        <ele>204.8</ele>
        <time>2025-12-19T08:51:44Z</time>
      </trkpt>
      <trkpt lat="43.54608" lon="1.184">
        <ele>204.8</ele>
        <time>2025-12-19T08:51:45Z</time>
      </trkpt>
      <trkpt lat="43.54609" lon="1.18391">
        <ele>205</ele>
        <time>2025-12-19T08:51:46Z</time>
      </trkpt>
      <trkpt lat="43.5461" lon="1.18381">
        <ele>205</ele>
        <time>2025-12-19T08:51:47Z</time>
      </trkpt>
      <trkpt lat="43.54612" lon="1.18372">
        <ele>205</ele>
        <time>2025-12-19T08:51:48Z</time>
      </trkpt>
      <trkpt lat="43.54613" lon="1.18363">
        <ele>205.2</ele>
        <time>2025-12-19T08:51:49Z</time>
      </trkpt>
      <trkpt lat="43.54615" lon="1.18354">
        <ele>205.2</ele>
        <time>2025-12-19T08:51:50Z</time>
      </trkpt>
      <trkpt lat="43.54616" lon="1.18346">
        <ele>205.2</ele>
        <time>2025-12-19T08:51:51Z</time>
      </trkpt>
      <trkpt lat="43.54618" lon="1.18337">
        <ele>205.6</ele>
        <time>2025-12-19T08:51:52Z</time>
      </trkpt>
      <trkpt lat="43.5462" lon="1.18328">
        <ele>205.8</ele>
        <time>2025-12-19T08:51:53Z</time>
      </trkpt>
      <trkpt lat="43.54622" lon="1.18318">
        <ele>205.8</ele>
        <time>2025-12-19T08:51:54Z</time>
      </trkpt>
      <trkpt lat="43.54625" lon="1.1831">
        <ele>206</ele>
        <time>2025-12-19T08:51:55Z</time>
      </trkpt>
      <trkpt lat="43.54627" lon="1.18301">
        <ele>206</ele>
        <time>2025-12-19T08:51:56Z</time>
      </trkpt>
      <trkpt lat="43.5463" lon="1.18292">
        <ele>205.6</ele>
        <time>2025-12-19T08:51:57Z</time>
      </trkpt>
      <trkpt lat="43.54633" lon="1.18284">
        <ele>205.6</ele>
        <time>2025-12-19T08:51:58Z</time>
      </trkpt>
      <trkpt lat="43.54636" lon="1.18275">
        <ele>205.4</ele>
        <time>2025-12-19T08:51:59Z</time>
      </trkpt>
      <trkpt lat="43.54638" lon="1.18266">
        <ele>205.4</ele>
        <time>2025-12-19T08:52:00Z</time>
      </trkpt>
      <trkpt lat="43.54641" lon="1.18257">
        <ele>205.4</ele>
        <time>2025-12-19T08:52:01Z</time>
      </trkpt>
      <trkpt lat="43.54644" lon="1.18248">
        <ele>205.4</ele>
        <time>2025-12-19T08:52:02Z</time>
      </trkpt>
      <trkpt lat="43.54647" lon="1.1824">
        <ele>205.4</ele>
        <time>2025-12-19T08:52:03Z</time>
      </trkpt>
      <trkpt lat="43.5465" lon="1.18232">
        <ele>205.4</ele>
        <time>2025-12-19T08:52:04Z</time>
      </trkpt>
      <trkpt lat="43.54652" lon="1.18223">
        <ele>205.4</ele>
        <time>2025-12-19T08:52:05Z</time>
      </trkpt>
      <trkpt lat="43.54655" lon="1.18214">
        <ele>205.4</ele>
        <time>2025-12-19T08:52:06Z</time>
      </trkpt>
      <trkpt lat="43.54659" lon="1.18206">
        <ele>205.4</ele>
        <time>2025-12-19T08:52:07Z</time>
      </trkpt>
      <trkpt lat="43.54662" lon="1.18198">
        <ele>205.4</ele>
        <time>2025-12-19T08:52:08Z</time>
      </trkpt>
      <trkpt lat="43.54666" lon="1.18189">
        <ele>205.4</ele>
        <time>2025-12-19T08:52:09Z</time>
      </trkpt>
      <trkpt lat="43.54668" lon="1.18181">
        <ele>205.4</ele>
        <time>2025-12-19T08:52:10Z</time>
      </trkpt>
      <trkpt lat="43.54671" lon="1.18172">
        <ele>205.4</ele>
        <time>2025-12-19T08:52:11Z</time>
      </trkpt>
      <trkpt lat="43.54675" lon="1.18164">
        <ele>205.4</ele>
        <time>2025-12-19T08:52:12Z</time>
      </trkpt>
      <trkpt lat="43.54678" lon="1.18155">
        <ele>205.4</ele>
        <time>2025-12-19T08:52:13Z</time>
      </trkpt>
      <trkpt lat="43.54681" lon="1.18146">
        <ele>205.4</ele>
        <time>2025-12-19T08:52:14Z</time>
      </trkpt>
      <trkpt lat="43.54685" lon="1.18138">
        <ele>205.4</ele>
        <time>2025-12-19T08:52:15Z</time>
      </trkpt>
      <trkpt lat="43.54688" lon="1.18129">
        <ele>205.2</ele>
        <time>2025-12-19T08:52:16Z</time>
      </trkpt>
      <trkpt lat="43.54691" lon="1.1812">
        <ele>205.2</ele>
        <time>2025-12-19T08:52:17Z</time>
      </trkpt>
      <trkpt lat="43.54694" lon="1.18111">
        <ele>205.2</ele>
        <time>2025-12-19T08:52:18Z</time>
      </trkpt>
      <trkpt lat="43.54697" lon="1.18103">
        <ele>205.2</ele>
        <time>2025-12-19T08:52:19Z</time>
      </trkpt>
      <trkpt lat="43.547" lon="1.18094">
        <ele>205.2</ele>
        <time>2025-12-19T08:52:20Z</time>
      </trkpt>
      <trkpt lat="43.54703" lon="1.18086">
        <ele>205.2</ele>
        <time>2025-12-19T08:52:21Z</time>
      </trkpt>
      <trkpt lat="43.54706" lon="1.18077">
        <ele>205.2</ele>
        <time>2025-12-19T08:52:22Z</time>
      </trkpt>
      <trkpt lat="43.54709" lon="1.18069">
        <ele>205.2</ele>
        <time>2025-12-19T08:52:23Z</time>
      </trkpt>
      <trkpt lat="43.54712" lon="1.1806">
        <ele>205.2</ele>
        <time>2025-12-19T08:52:24Z</time>
      </trkpt>
      <trkpt lat="43.54714" lon="1.18052">
        <ele>205.2</ele>
        <time>2025-12-19T08:52:25Z</time>
      </trkpt>
      <trkpt lat="43.54717" lon="1.18044">
        <ele>205.2</ele>
        <time>2025-12-19T08:52:26Z</time>
      </trkpt>
      <trkpt lat="43.54719" lon="1.18035">
        <ele>205.2</ele>
        <time>2025-12-19T08:52:27Z</time>
      </trkpt>
      <trkpt lat="43.54721" lon="1.18027">
        <ele>205.4</ele>
        <time>2025-12-19T08:52:28Z</time>
      </trkpt>
      <trkpt lat="43.54723" lon="1.18018">
        <ele>205.4</ele>
        <time>2025-12-19T08:52:29Z</time>
      </trkpt>
      <trkpt lat="43.54725" lon="1.1801">
        <ele>205.4</ele>
        <time>2025-12-19T08:52:30Z</time>
      </trkpt>
      <trkpt lat="43.54726" lon="1.18001">
        <ele>205.6</ele>
        <time>2025-12-19T08:52:31Z</time>
      </trkpt>
      <trkpt lat="43.54727" lon="1.17992">
        <ele>205.6</ele>
        <time>2025-12-19T08:52:32Z</time>
      </trkpt>
      <trkpt lat="43.54729" lon="1.17983">
        <ele>205.6</ele>
        <time>2025-12-19T08:52:33Z</time>
      </trkpt>
      <trkpt lat="43.54729" lon="1.17975">
        <ele>205.6</ele>
        <time>2025-12-19T08:52:34Z</time>
      </trkpt>
      <trkpt lat="43.5473" lon="1.17966">
        <ele>205.6</ele>
        <time>2025-12-19T08:52:35Z</time>
      </trkpt>
      <trkpt lat="43.5473" lon="1.17957">
        <ele>205.6</ele>
        <time>2025-12-19T08:52:36Z</time>
      </trkpt>
      <trkpt lat="43.54731" lon="1.17948">
        <ele>205.6</ele>
        <time>2025-12-19T08:52:37Z</time>
      </trkpt>
      <trkpt lat="43.54731" lon="1.17938">
        <ele>205.6</ele>
        <time>2025-12-19T08:52:38Z</time>
      </trkpt>
      <trkpt lat="43.54732" lon="1.17929">
        <ele>205.6</ele>
        <time>2025-12-19T08:52:39Z</time>
      </trkpt>
      <trkpt lat="43.54732" lon="1.1792">
        <ele>205.6</ele>
        <time>2025-12-19T08:52:40Z</time>
      </trkpt>
      <trkpt lat="43.54732" lon="1.17911">
        <ele>205.6</ele>
        <time>2025-12-19T08:52:41Z</time>
      </trkpt>
      <trkpt lat="43.54732" lon="1.17902">
        <ele>205.8</ele>
        <time>2025-12-19T08:52:42Z</time>
      </trkpt>
      <trkpt lat="43.54731" lon="1.17893">
        <ele>205.8</ele>
        <time>2025-12-19T08:52:43Z</time>
      </trkpt>
      <trkpt lat="43.54731" lon="1.17884">
        <ele>205.8</ele>
        <time>2025-12-19T08:52:44Z</time>
      </trkpt>
      <trkpt lat="43.54731" lon="1.17875">
        <ele>206</ele>
        <time>2025-12-19T08:52:45Z</time>
      </trkpt>
      <trkpt lat="43.5473" lon="1.17866">
        <ele>206</ele>
        <time>2025-12-19T08:52:46Z</time>
      </trkpt>
      <trkpt lat="43.54729" lon="1.17857">
        <ele>206</ele>
        <time>2025-12-19T08:52:47Z</time>
      </trkpt>
      <trkpt lat="43.54729" lon="1.17848">
        <ele>206.2</ele>
        <time>2025-12-19T08:52:48Z</time>
      </trkpt>
      <trkpt lat="43.54728" lon="1.1784">
        <ele>206.2</ele>
        <time>2025-12-19T08:52:49Z</time>
      </trkpt>
      <trkpt lat="43.54727" lon="1.17831">
        <ele>206.2</ele>
        <time>2025-12-19T08:52:50Z</time>
      </trkpt>
      <trkpt lat="43.54726" lon="1.17821">
        <ele>206.2</ele>
        <time>2025-12-19T08:52:51Z</time>
      </trkpt>
      <trkpt lat="43.54725" lon="1.17813">
        <ele>206.2</ele>
        <time>2025-12-19T08:52:52Z</time>
      </trkpt>
      <trkpt lat="43.54723" lon="1.17804">
        <ele>206.2</ele>
        <time>2025-12-19T08:52:53Z</time>
      </trkpt>
      <trkpt lat="43.54722" lon="1.17795">
        <ele>206.4</ele>
        <time>2025-12-19T08:52:54Z</time>
      </trkpt>
      <trkpt lat="43.54721" lon="1.17787">
        <ele>206.4</ele>
        <time>2025-12-19T08:52:55Z</time>
      </trkpt>
      <trkpt lat="43.54719" lon="1.17778">
        <ele>206.4</ele>
        <time>2025-12-19T08:52:56Z</time>
      </trkpt>
      <trkpt lat="43.54718" lon="1.17769">
        <ele>206.4</ele>
        <time>2025-12-19T08:52:57Z</time>
      </trkpt>
      <trkpt lat="43.54717" lon="1.1776">
        <ele>206.4</ele>
        <time>2025-12-19T08:52:58Z</time>
      </trkpt>
      <trkpt lat="43.54716" lon="1.17751">
        <ele>206.4</ele>
        <time>2025-12-19T08:52:59Z</time>
      </trkpt>
      <trkpt lat="43.54715" lon="1.17742">
        <ele>206.4</ele>
        <time>2025-12-19T08:53:00Z</time>
      </trkpt>
      <trkpt lat="43.54713" lon="1.17732">
        <ele>206.4</ele>
        <time>2025-12-19T08:53:01Z</time>
      </trkpt>
      <trkpt lat="43.54712" lon="1.17724">
        <ele>206.4</ele>
        <time>2025-12-19T08:53:02Z</time>
      </trkpt>
      <trkpt lat="43.54711" lon="1.17715">
        <ele>206.4</ele>
        <time>2025-12-19T08:53:03Z</time>
      </trkpt>
      <trkpt lat="43.5471" lon="1.17706">
        <ele>206.4</ele>
        <time>2025-12-19T08:53:04Z</time>
      </trkpt>
      <trkpt lat="43.54709" lon="1.17697">
        <ele>206.4</ele>
        <time>2025-12-19T08:53:05Z</time>
      </trkpt>
      <trkpt lat="43.54707" lon="1.17688">
        <ele>206.4</ele>
        <time>2025-12-19T08:53:06Z</time>
      </trkpt>
      <trkpt lat="43.54706" lon="1.17679">
        <ele>206.4</ele>
        <time>2025-12-19T08:53:07Z</time>
      </trkpt>
      <trkpt lat="43.54705" lon="1.1767">
        <ele>206.4</ele>
        <time>2025-12-19T08:53:08Z</time>
      </trkpt>
      <trkpt lat="43.54704" lon="1.17661">
        <ele>206.4</ele>
        <time>2025-12-19T08:53:09Z</time>
      </trkpt>
      <trkpt lat="43.54702" lon="1.17652">
        <ele>206.6</ele>
        <time>2025-12-19T08:53:10Z</time>
      </trkpt>
      <trkpt lat="43.54701" lon="1.17643">
        <ele>206.6</ele>
        <time>2025-12-19T08:53:11Z</time>
      </trkpt>
      <trkpt lat="43.547" lon="1.17635">
        <ele>206.6</ele>
        <time>2025-12-19T08:53:12Z</time>
      </trkpt>
      <trkpt lat="43.54699" lon="1.17626">
        <ele>206.6</ele>
        <time>2025-12-19T08:53:13Z</time>
      </trkpt>
      <trkpt lat="43.54697" lon="1.17617">
        <ele>206.6</ele>
        <time>2025-12-19T08:53:14Z</time>
      </trkpt>
      <trkpt lat="43.54696" lon="1.17608">
        <ele>206.8</ele>
        <time>2025-12-19T08:53:15Z</time>
      </trkpt>
      <trkpt lat="43.54695" lon="1.17599">
        <ele>206.8</ele>
        <time>2025-12-19T08:53:16Z</time>
      </trkpt>
      <trkpt lat="43.54694" lon="1.1759">
        <ele>206.8</ele>
        <time>2025-12-19T08:53:17Z</time>
      </trkpt>
      <trkpt lat="43.54693" lon="1.17581">
        <ele>206.8</ele>
        <time>2025-12-19T08:53:18Z</time>
      </trkpt>
      <trkpt lat="43.54691" lon="1.17572">
        <ele>206.6</ele>
        <time>2025-12-19T08:53:19Z</time>
      </trkpt>
      <trkpt lat="43.5469" lon="1.17563">
        <ele>206.6</ele>
        <time>2025-12-19T08:53:20Z</time>
      </trkpt>
      <trkpt lat="43.54689" lon="1.17554">
        <ele>206.6</ele>
        <time>2025-12-19T08:53:21Z</time>
      </trkpt>
      <trkpt lat="43.54687" lon="1.17544">
        <ele>206.6</ele>
        <time>2025-12-19T08:53:22Z</time>
      </trkpt>
      <trkpt lat="43.54686" lon="1.17534">
        <ele>206.6</ele>
        <time>2025-12-19T08:53:23Z</time>
      </trkpt>
      <trkpt lat="43.54685" lon="1.17525">
        <ele>206.6</ele>
        <time>2025-12-19T08:53:24Z</time>
      </trkpt>
      <trkpt lat="43.54684" lon="1.17516">
        <ele>206.6</ele>
        <time>2025-12-19T08:53:25Z</time>
      </trkpt>
      <trkpt lat="43.54683" lon="1.17506">
        <ele>206.6</ele>
        <time>2025-12-19T08:53:26Z</time>
      </trkpt>
      <trkpt lat="43.54682" lon="1.17497">
        <ele>206.8</ele>
        <time>2025-12-19T08:53:27Z</time>
      </trkpt>
      <trkpt lat="43.54681" lon="1.17488">
        <ele>206.8</ele>
        <time>2025-12-19T08:53:28Z</time>
      </trkpt>
      <trkpt lat="43.5468" lon="1.17479">
        <ele>206.8</ele>
        <time>2025-12-19T08:53:29Z</time>
      </trkpt>
      <trkpt lat="43.54679" lon="1.1747">
        <ele>206.8</ele>
        <time>2025-12-19T08:53:30Z</time>
      </trkpt>
      <trkpt lat="43.54678" lon="1.17461">
        <ele>206.6</ele>
        <time>2025-12-19T08:53:31Z</time>
      </trkpt>
      <trkpt lat="43.54678" lon="1.17452">
        <ele>206.8</ele>
        <time>2025-12-19T08:53:32Z</time>
      </trkpt>
      <trkpt lat="43.54677" lon="1.17442">
        <ele>206.8</ele>
        <time>2025-12-19T08:53:33Z</time>
      </trkpt>
      <trkpt lat="43.54676" lon="1.17434">
        <ele>206.8</ele>
        <time>2025-12-19T08:53:34Z</time>
      </trkpt>
      <trkpt lat="43.54676" lon="1.17425">
        <ele>207</ele>
        <time>2025-12-19T08:53:35Z</time>
      </trkpt>
      <trkpt lat="43.54675" lon="1.17416">
        <ele>207</ele>
        <time>2025-12-19T08:53:36Z</time>
      </trkpt>
      <trkpt lat="43.54675" lon="1.17408">
        <ele>207</ele>
        <time>2025-12-19T08:53:37Z</time>
      </trkpt>
      <trkpt lat="43.54674" lon="1.17399">
        <ele>207</ele>
        <time>2025-12-19T08:53:38Z</time>
      </trkpt>
      <trkpt lat="43.54673" lon="1.1739">
        <ele>207</ele>
        <time>2025-12-19T08:53:39Z</time>
      </trkpt>
      <trkpt lat="43.54673" lon="1.17382">
        <ele>207.2</ele>
        <time>2025-12-19T08:53:40Z</time>
      </trkpt>
      <trkpt lat="43.54672" lon="1.17373">
        <ele>207.2</ele>
        <time>2025-12-19T08:53:41Z</time>
      </trkpt>
      <trkpt lat="43.54671" lon="1.17364">
        <ele>207.2</ele>
        <time>2025-12-19T08:53:42Z</time>
      </trkpt>
      <trkpt lat="43.54671" lon="1.17356">
        <ele>207.4</ele>
        <time>2025-12-19T08:53:43Z</time>
      </trkpt>
      <trkpt lat="43.5467" lon="1.17347">
        <ele>207.4</ele>
        <time>2025-12-19T08:53:44Z</time>
      </trkpt>
      <trkpt lat="43.54669" lon="1.17338">
        <ele>207.2</ele>
        <time>2025-12-19T08:53:45Z</time>
      </trkpt>
      <trkpt lat="43.54669" lon="1.17329">
        <ele>207.4</ele>
        <time>2025-12-19T08:53:46Z</time>
      </trkpt>
      <trkpt lat="43.54668" lon="1.17321">
        <ele>207.4</ele>
        <time>2025-12-19T08:53:47Z</time>
      </trkpt>
      <trkpt lat="43.54667" lon="1.17312">
        <ele>207.2</ele>
        <time>2025-12-19T08:53:48Z</time>
      </trkpt>
      <trkpt lat="43.54667" lon="1.17303">
        <ele>207.2</ele>
        <time>2025-12-19T08:53:49Z</time>
      </trkpt>
      <trkpt lat="43.54666" lon="1.17294">
        <ele>207.4</ele>
        <time>2025-12-19T08:53:50Z</time>
      </trkpt>
      <trkpt lat="43.54665" lon="1.17285">
        <ele>207.4</ele>
        <time>2025-12-19T08:53:51Z</time>
      </trkpt>
      <trkpt lat="43.54664" lon="1.17276">
        <ele>207.4</ele>
        <time>2025-12-19T08:53:52Z</time>
      </trkpt>
      <trkpt lat="43.54664" lon="1.17267">
        <ele>207.4</ele>
        <time>2025-12-19T08:53:53Z</time>
      </trkpt>
      <trkpt lat="43.54663" lon="1.17258">
        <ele>207.6</ele>
        <time>2025-12-19T08:53:54Z</time>
      </trkpt>
      <trkpt lat="43.54662" lon="1.17249">
        <ele>207.6</ele>
        <time>2025-12-19T08:53:55Z</time>
      </trkpt>
      <trkpt lat="43.54661" lon="1.17241">
        <ele>207.6</ele>
        <time>2025-12-19T08:53:56Z</time>
      </trkpt>
      <trkpt lat="43.5466" lon="1.17232">
        <ele>207.4</ele>
        <time>2025-12-19T08:53:57Z</time>
      </trkpt>
      <trkpt lat="43.54659" lon="1.17222">
        <ele>207.4</ele>
        <time>2025-12-19T08:53:58Z</time>
      </trkpt>
      <trkpt lat="43.54658" lon="1.17213">
        <ele>207.6</ele>
        <time>2025-12-19T08:53:59Z</time>
      </trkpt>
      <trkpt lat="43.54657" lon="1.17204">
        <ele>207.6</ele>
        <time>2025-12-19T08:54:00Z</time>
      </trkpt>
      <trkpt lat="43.54656" lon="1.17195">
        <ele>207.4</ele>
        <time>2025-12-19T08:54:01Z</time>
      </trkpt>
      <trkpt lat="43.54655" lon="1.17186">
        <ele>207.4</ele>
        <time>2025-12-19T08:54:02Z</time>
      </trkpt>
      <trkpt lat="43.54653" lon="1.17177">
        <ele>207.6</ele>
        <time>2025-12-19T08:54:03Z</time>
      </trkpt>
      <trkpt lat="43.54652" lon="1.17168">
        <ele>207.4</ele>
        <time>2025-12-19T08:54:04Z</time>
      </trkpt>
      <trkpt lat="43.54651" lon="1.17159">
        <ele>207.4</ele>
        <time>2025-12-19T08:54:05Z</time>
      </trkpt>
      <trkpt lat="43.54649" lon="1.1715">
        <ele>207.6</ele>
        <time>2025-12-19T08:54:06Z</time>
      </trkpt>
      <trkpt lat="43.54648" lon="1.17142">
        <ele>207.6</ele>
        <time>2025-12-19T08:54:07Z</time>
      </trkpt>
      <trkpt lat="43.54646" lon="1.17133">
        <ele>207.4</ele>
        <time>2025-12-19T08:54:08Z</time>
      </trkpt>
      <trkpt lat="43.54645" lon="1.17124">
        <ele>207.6</ele>
        <time>2025-12-19T08:54:09Z</time>
      </trkpt>
      <trkpt lat="43.54644" lon="1.17115">
        <ele>207.6</ele>
        <time>2025-12-19T08:54:10Z</time>
      </trkpt>
      <trkpt lat="43.54643" lon="1.17106">
        <ele>207.6</ele>
        <time>2025-12-19T08:54:11Z</time>
      </trkpt>
      <trkpt lat="43.54642" lon="1.17097">
        <ele>207.8</ele>
        <time>2025-12-19T08:54:12Z</time>
      </trkpt>
      <trkpt lat="43.5464" lon="1.17088">
        <ele>207.8</ele>
        <time>2025-12-19T08:54:13Z</time>
      </trkpt>
      <trkpt lat="43.54639" lon="1.17079">
        <ele>207.8</ele>
        <time>2025-12-19T08:54:14Z</time>
      </trkpt>
      <trkpt lat="43.54638" lon="1.1707">
        <ele>207.8</ele>
        <time>2025-12-19T08:54:15Z</time>
      </trkpt>
      <trkpt lat="43.54636" lon="1.17061">
        <ele>207.8</ele>
        <time>2025-12-19T08:54:16Z</time>
      </trkpt>
      <trkpt lat="43.54635" lon="1.17053">
        <ele>207.8</ele>
        <time>2025-12-19T08:54:17Z</time>
      </trkpt>
      <trkpt lat="43.54634" lon="1.17044">
        <ele>207.8</ele>
        <time>2025-12-19T08:54:18Z</time>
      </trkpt>
      <trkpt lat="43.54633" lon="1.17036">
        <ele>208</ele>
        <time>2025-12-19T08:54:19Z</time>
      </trkpt>
      <trkpt lat="43.54631" lon="1.17028">
        <ele>208</ele>
        <time>2025-12-19T08:54:20Z</time>
      </trkpt>
      <trkpt lat="43.5463" lon="1.17019">
        <ele>208</ele>
        <time>2025-12-19T08:54:21Z</time>
      </trkpt>
      <trkpt lat="43.54629" lon="1.17011">
        <ele>208.2</ele>
        <time>2025-12-19T08:54:22Z</time>
      </trkpt>
      <trkpt lat="43.54628" lon="1.17002">
        <ele>208.2</ele>
        <time>2025-12-19T08:54:23Z</time>
      </trkpt>
      <trkpt lat="43.54626" lon="1.16993">
        <ele>208</ele>
        <time>2025-12-19T08:54:24Z</time>
      </trkpt>
      <trkpt lat="43.54625" lon="1.16985">
        <ele>208.2</ele>
        <time>2025-12-19T08:54:25Z</time>
      </trkpt>
      <trkpt lat="43.54623" lon="1.16977">
        <ele>208.2</ele>
        <time>2025-12-19T08:54:26Z</time>
      </trkpt>
      <trkpt lat="43.54622" lon="1.16969">
        <ele>208.2</ele>
        <time>2025-12-19T08:54:27Z</time>
      </trkpt>
      <trkpt lat="43.54621" lon="1.16961">
        <ele>208.2</ele>
        <time>2025-12-19T08:54:28Z</time>
      </trkpt>
      <trkpt lat="43.54619" lon="1.16952">
        <ele>208.2</ele>
        <time>2025-12-19T08:54:29Z</time>
      </trkpt>
      <trkpt lat="43.54618" lon="1.16943">
        <ele>208.2</ele>
        <time>2025-12-19T08:54:30Z</time>
      </trkpt>
      <trkpt lat="43.54617" lon="1.16934">
        <ele>208.2</ele>
        <time>2025-12-19T08:54:31Z</time>
      </trkpt>
      <trkpt lat="43.54615" lon="1.16926">
        <ele>208.2</ele>
        <time>2025-12-19T08:54:32Z</time>
      </trkpt>
      <trkpt lat="43.54614" lon="1.16917">
        <ele>208.2</ele>
        <time>2025-12-19T08:54:33Z</time>
      </trkpt>
      <trkpt lat="43.54612" lon="1.16908">
        <ele>208.2</ele>
        <time>2025-12-19T08:54:34Z</time>
      </trkpt>
      <trkpt lat="43.54611" lon="1.169">
        <ele>208.2</ele>
        <time>2025-12-19T08:54:35Z</time>
      </trkpt>
      <trkpt lat="43.5461" lon="1.16891">
        <ele>208.2</ele>
        <time>2025-12-19T08:54:36Z</time>
      </trkpt>
      <trkpt lat="43.54609" lon="1.16882">
        <ele>208.2</ele>
        <time>2025-12-19T08:54:37Z</time>
      </trkpt>
      <trkpt lat="43.54607" lon="1.16873">
        <ele>208.2</ele>
        <time>2025-12-19T08:54:38Z</time>
      </trkpt>
      <trkpt lat="43.54606" lon="1.16865">
        <ele>208.4</ele>
        <time>2025-12-19T08:54:39Z</time>
      </trkpt>
      <trkpt lat="43.54605" lon="1.16856">
        <ele>208.4</ele>
        <time>2025-12-19T08:54:40Z</time>
      </trkpt>
      <trkpt lat="43.54603" lon="1.16847">
        <ele>208.4</ele>
        <time>2025-12-19T08:54:41Z</time>
      </trkpt>
      <trkpt lat="43.54602" lon="1.16839">
        <ele>208.4</ele>
        <time>2025-12-19T08:54:42Z</time>
      </trkpt>
      <trkpt lat="43.546" lon="1.16831">
        <ele>208.4</ele>
        <time>2025-12-19T08:54:43Z</time>
      </trkpt>
      <trkpt lat="43.54599" lon="1.16822">
        <ele>208.6</ele>
        <time>2025-12-19T08:54:44Z</time>
      </trkpt>
      <trkpt lat="43.54598" lon="1.16813">
        <ele>208.6</ele>
        <time>2025-12-19T08:54:45Z</time>
      </trkpt>
      <trkpt lat="43.54597" lon="1.16805">
        <ele>208.6</ele>
        <time>2025-12-19T08:54:46Z</time>
      </trkpt>
      <trkpt lat="43.54596" lon="1.16796">
        <ele>208.6</ele>
        <time>2025-12-19T08:54:47Z</time>
      </trkpt>
      <trkpt lat="43.54595" lon="1.16787">
        <ele>208.6</ele>
        <time>2025-12-19T08:54:48Z</time>
      </trkpt>
      <trkpt lat="43.54595" lon="1.16779">
        <ele>208.6</ele>
        <time>2025-12-19T08:54:49Z</time>
      </trkpt>
      <trkpt lat="43.54594" lon="1.1677">
        <ele>208.6</ele>
        <time>2025-12-19T08:54:50Z</time>
      </trkpt>
      <trkpt lat="43.54594" lon="1.16761">
        <ele>208.6</ele>
        <time>2025-12-19T08:54:51Z</time>
      </trkpt>
      <trkpt lat="43.54594" lon="1.16752">
        <ele>208.6</ele>
        <time>2025-12-19T08:54:52Z</time>
      </trkpt>
      <trkpt lat="43.54594" lon="1.16743">
        <ele>208.6</ele>
        <time>2025-12-19T08:54:53Z</time>
      </trkpt>
      <trkpt lat="43.54595" lon="1.16734">
        <ele>208.6</ele>
        <time>2025-12-19T08:54:54Z</time>
      </trkpt>
      <trkpt lat="43.54595" lon="1.16725">
        <ele>208.8</ele>
        <time>2025-12-19T08:54:55Z</time>
      </trkpt>
      <trkpt lat="43.54595" lon="1.16715">
        <ele>208.8</ele>
        <time>2025-12-19T08:54:56Z</time>
      </trkpt>
      <trkpt lat="43.54595" lon="1.16706">
        <ele>208.8</ele>
        <time>2025-12-19T08:54:57Z</time>
      </trkpt>
      <trkpt lat="43.54596" lon="1.16697">
        <ele>209</ele>
        <time>2025-12-19T08:54:58Z</time>
      </trkpt>
      <trkpt lat="43.54596" lon="1.16688">
        <ele>209</ele>
        <time>2025-12-19T08:54:59Z</time>
      </trkpt>
      <trkpt lat="43.54597" lon="1.16679">
        <ele>209</ele>
        <time>2025-12-19T08:55:00Z</time>
      </trkpt>
      <trkpt lat="43.54598" lon="1.1667">
        <ele>209.2</ele>
        <time>2025-12-19T08:55:01Z</time>
      </trkpt>
      <trkpt lat="43.54599" lon="1.16661">
        <ele>209.2</ele>
        <time>2025-12-19T08:55:02Z</time>
      </trkpt>
      <trkpt lat="43.546" lon="1.16652">
        <ele>209.2</ele>
        <time>2025-12-19T08:55:03Z</time>
      </trkpt>
      <trkpt lat="43.54601" lon="1.16643">
        <ele>209.2</ele>
        <time>2025-12-19T08:55:04Z</time>
      </trkpt>
      <trkpt lat="43.54602" lon="1.16634">
        <ele>209.2</ele>
        <time>2025-12-19T08:55:05Z</time>
      </trkpt>
      <trkpt lat="43.54603" lon="1.16626">
        <ele>209.2</ele>
        <time>2025-12-19T08:55:06Z</time>
      </trkpt>
      <trkpt lat="43.54604" lon="1.16617">
        <ele>209.2</ele>
        <time>2025-12-19T08:55:07Z</time>
      </trkpt>
      <trkpt lat="43.54605" lon="1.16608">
        <ele>209.2</ele>
        <time>2025-12-19T08:55:08Z</time>
      </trkpt>
      <trkpt lat="43.54605" lon="1.16599">
        <ele>209.6</ele>
        <time>2025-12-19T08:55:09Z</time>
      </trkpt>
      <trkpt lat="43.54607" lon="1.1659">
        <ele>209.6</ele>
        <time>2025-12-19T08:55:10Z</time>
      </trkpt>
      <trkpt lat="43.54608" lon="1.16581">
        <ele>209.6</ele>
        <time>2025-12-19T08:55:11Z</time>
      </trkpt>
      <trkpt lat="43.54608" lon="1.16572">
        <ele>209.6</ele>
        <time>2025-12-19T08:55:12Z</time>
      </trkpt>
      <trkpt lat="43.54609" lon="1.16563">
        <ele>209.6</ele>
        <time>2025-12-19T08:55:13Z</time>
      </trkpt>
      <trkpt lat="43.5461" lon="1.16555">
        <ele>209.6</ele>
        <time>2025-12-19T08:55:14Z</time>
      </trkpt>
      <trkpt lat="43.54611" lon="1.16546">
        <ele>209.6</ele>
        <time>2025-12-19T08:55:15Z</time>
      </trkpt>
      <trkpt lat="43.54613" lon="1.16537">
        <ele>209.8</ele>
        <time>2025-12-19T08:55:16Z</time>
      </trkpt>
      <trkpt lat="43.54613" lon="1.16528">
        <ele>209.8</ele>
        <time>2025-12-19T08:55:17Z</time>
      </trkpt>
      <trkpt lat="43.54614" lon="1.16519">
        <ele>210</ele>
        <time>2025-12-19T08:55:18Z</time>
      </trkpt>
      <trkpt lat="43.54615" lon="1.1651">
        <ele>210</ele>
        <time>2025-12-19T08:55:19Z</time>
      </trkpt>
      <trkpt lat="43.54616" lon="1.16501">
        <ele>210</ele>
        <time>2025-12-19T08:55:20Z</time>
      </trkpt>
      <trkpt lat="43.54618" lon="1.16492">
        <ele>210</ele>
        <time>2025-12-19T08:55:21Z</time>
      </trkpt>
      <trkpt lat="43.54619" lon="1.16484">
        <ele>210</ele>
        <time>2025-12-19T08:55:22Z</time>
      </trkpt>
      <trkpt lat="43.5462" lon="1.16475">
        <ele>210.2</ele>
        <time>2025-12-19T08:55:23Z</time>
      </trkpt>
      <trkpt lat="43.54621" lon="1.16466">
        <ele>210.2</ele>
        <time>2025-12-19T08:55:24Z</time>
      </trkpt>
      <trkpt lat="43.54622" lon="1.16458">
        <ele>210.2</ele>
        <time>2025-12-19T08:55:25Z</time>
      </trkpt>
      <trkpt lat="43.54623" lon="1.16449">
        <ele>210.2</ele>
        <time>2025-12-19T08:55:26Z</time>
      </trkpt>
      <trkpt lat="43.54623" lon="1.16441">
        <ele>210.2</ele>
        <time>2025-12-19T08:55:27Z</time>
      </trkpt>
      <trkpt lat="43.54624" lon="1.16432">
        <ele>210.2</ele>
        <time>2025-12-19T08:55:28Z</time>
      </trkpt>
      <trkpt lat="43.54625" lon="1.16424">
        <ele>210.4</ele>
        <time>2025-12-19T08:55:29Z</time>
      </trkpt>
      <trkpt lat="43.54626" lon="1.16415">
        <ele>210.4</ele>
        <time>2025-12-19T08:55:30Z</time>
      </trkpt>
      <trkpt lat="43.54627" lon="1.16406">
        <ele>210.4</ele>
        <time>2025-12-19T08:55:31Z</time>
      </trkpt>
      <trkpt lat="43.54627" lon="1.16397">
        <ele>210.4</ele>
        <time>2025-12-19T08:55:32Z</time>
      </trkpt>
      <trkpt lat="43.54627" lon="1.16389">
        <ele>210.4</ele>
        <time>2025-12-19T08:55:33Z</time>
      </trkpt>
      <trkpt lat="43.54627" lon="1.1638">
        <ele>210.4</ele>
        <time>2025-12-19T08:55:34Z</time>
      </trkpt>
      <trkpt lat="43.54627" lon="1.16372">
        <ele>210.4</ele>
        <time>2025-12-19T08:55:35Z</time>
      </trkpt>
      <trkpt lat="43.54626" lon="1.16363">
        <ele>210.4</ele>
        <time>2025-12-19T08:55:36Z</time>
      </trkpt>
      <trkpt lat="43.54626" lon="1.16354">
        <ele>210.4</ele>
        <time>2025-12-19T08:55:37Z</time>
      </trkpt>
      <trkpt lat="43.54625" lon="1.16345">
        <ele>210.6</ele>
        <time>2025-12-19T08:55:38Z</time>
      </trkpt>
      <trkpt lat="43.54625" lon="1.16337">
        <ele>210.6</ele>
        <time>2025-12-19T08:55:39Z</time>
      </trkpt>
      <trkpt lat="43.54624" lon="1.16328">
        <ele>210.6</ele>
        <time>2025-12-19T08:55:40Z</time>
      </trkpt>
      <trkpt lat="43.54624" lon="1.16319">
        <ele>210.6</ele>
        <time>2025-12-19T08:55:41Z</time>
      </trkpt>
      <trkpt lat="43.54623" lon="1.16311">
        <ele>210.8</ele>
        <time>2025-12-19T08:55:42Z</time>
      </trkpt>
      <trkpt lat="43.54622" lon="1.16302">
        <ele>210.8</ele>
        <time>2025-12-19T08:55:43Z</time>
      </trkpt>
      <trkpt lat="43.54622" lon="1.16293">
        <ele>210.8</ele>
        <time>2025-12-19T08:55:44Z</time>
      </trkpt>
      <trkpt lat="43.54621" lon="1.16285">
        <ele>210.8</ele>
        <time>2025-12-19T08:55:45Z</time>
      </trkpt>
      <trkpt lat="43.5462" lon="1.16276">
        <ele>211</ele>
        <time>2025-12-19T08:55:46Z</time>
      </trkpt>
      <trkpt lat="43.5462" lon="1.16268">
        <ele>211</ele>
        <time>2025-12-19T08:55:47Z</time>
      </trkpt>
      <trkpt lat="43.54619" lon="1.16259">
        <ele>211</ele>
        <time>2025-12-19T08:55:48Z</time>
      </trkpt>
      <trkpt lat="43.54619" lon="1.16251">
        <ele>211.2</ele>
        <time>2025-12-19T08:55:49Z</time>
      </trkpt>
      <trkpt lat="43.54618" lon="1.16242">
        <ele>211.2</ele>
        <time>2025-12-19T08:55:50Z</time>
      </trkpt>
      <trkpt lat="43.54617" lon="1.16233">
        <ele>211.2</ele>
        <time>2025-12-19T08:55:51Z</time>
      </trkpt>
      <trkpt lat="43.54616" lon="1.16224">
        <ele>211.2</ele>
        <time>2025-12-19T08:55:52Z</time>
      </trkpt>
      <trkpt lat="43.54616" lon="1.16216">
        <ele>211.2</ele>
        <time>2025-12-19T08:55:53Z</time>
      </trkpt>
      <trkpt lat="43.54615" lon="1.16208">
        <ele>211.2</ele>
        <time>2025-12-19T08:55:54Z</time>
      </trkpt>
      <trkpt lat="43.54614" lon="1.16199">
        <ele>211.4</ele>
        <time>2025-12-19T08:55:55Z</time>
      </trkpt>
      <trkpt lat="43.54614" lon="1.1619">
        <ele>211.4</ele>
        <time>2025-12-19T08:55:56Z</time>
      </trkpt>
      <trkpt lat="43.54613" lon="1.16182">
        <ele>211.4</ele>
        <time>2025-12-19T08:55:57Z</time>
      </trkpt>
      <trkpt lat="43.54613" lon="1.16173">
        <ele>211.4</ele>
        <time>2025-12-19T08:55:58Z</time>
      </trkpt>
      <trkpt lat="43.54612" lon="1.16165">
        <ele>211.6</ele>
        <time>2025-12-19T08:55:59Z</time>
      </trkpt>
      <trkpt lat="43.54611" lon="1.16156">
        <ele>211.6</ele>
        <time>2025-12-19T08:56:00Z</time>
      </trkpt>
      <trkpt lat="43.54611" lon="1.16147">
        <ele>211.6</ele>
        <time>2025-12-19T08:56:01Z</time>
      </trkpt>
      <trkpt lat="43.5461" lon="1.16138">
        <ele>211.8</ele>
        <time>2025-12-19T08:56:02Z</time>
      </trkpt>
      <trkpt lat="43.54609" lon="1.1613">
        <ele>211.8</ele>
        <time>2025-12-19T08:56:03Z</time>
      </trkpt>
      <trkpt lat="43.54609" lon="1.16121">
        <ele>211.8</ele>
        <time>2025-12-19T08:56:04Z</time>
      </trkpt>
      <trkpt lat="43.54608" lon="1.16113">
        <ele>212</ele>
        <time>2025-12-19T08:56:05Z</time>
      </trkpt>
      <trkpt lat="43.54608" lon="1.16103">
        <ele>212</ele>
        <time>2025-12-19T08:56:06Z</time>
      </trkpt>
      <trkpt lat="43.54607" lon="1.16095">
        <ele>212.2</ele>
        <time>2025-12-19T08:56:07Z</time>
      </trkpt>
      <trkpt lat="43.54606" lon="1.16086">
        <ele>212.4</ele>
        <time>2025-12-19T08:56:08Z</time>
      </trkpt>
      <trkpt lat="43.54606" lon="1.16078">
        <ele>212.4</ele>
        <time>2025-12-19T08:56:09Z</time>
      </trkpt>
      <trkpt lat="43.54605" lon="1.16069">
        <ele>212.4</ele>
        <time>2025-12-19T08:56:10Z</time>
      </trkpt>
      <trkpt lat="43.54604" lon="1.16061">
        <ele>212.4</ele>
        <time>2025-12-19T08:56:11Z</time>
      </trkpt>
      <trkpt lat="43.54604" lon="1.16052">
        <ele>212.6</ele>
        <time>2025-12-19T08:56:12Z</time>
      </trkpt>
      <trkpt lat="43.54603" lon="1.16044">
        <ele>212.6</ele>
        <time>2025-12-19T08:56:13Z</time>
      </trkpt>
      <trkpt lat="43.54603" lon="1.16036">
        <ele>212.8</ele>
        <time>2025-12-19T08:56:14Z</time>
      </trkpt>
      <trkpt lat="43.54602" lon="1.16027">
        <ele>212.8</ele>
        <time>2025-12-19T08:56:15Z</time>
      </trkpt>
      <trkpt lat="43.54602" lon="1.16019">
        <ele>212.8</ele>
        <time>2025-12-19T08:56:16Z</time>
      </trkpt>
      <trkpt lat="43.54601" lon="1.1601">
        <ele>213</ele>
        <time>2025-12-19T08:56:17Z</time>
      </trkpt>
      <trkpt lat="43.54601" lon="1.16001">
        <ele>213</ele>
        <time>2025-12-19T08:56:18Z</time>
      </trkpt>
      <trkpt lat="43.546" lon="1.15993">
        <ele>213</ele>
        <time>2025-12-19T08:56:19Z</time>
      </trkpt>
      <trkpt lat="43.54599" lon="1.15984">
        <ele>213.2</ele>
        <time>2025-12-19T08:56:20Z</time>
      </trkpt>
      <trkpt lat="43.54599" lon="1.15976">
        <ele>213.2</ele>
        <time>2025-12-19T08:56:21Z</time>
      </trkpt>
      <trkpt lat="43.54598" lon="1.15967">
        <ele>213.2</ele>
        <time>2025-12-19T08:56:22Z</time>
      </trkpt>
      <trkpt lat="43.54597" lon="1.15958">
        <ele>213.4</ele>
        <time>2025-12-19T08:56:23Z</time>
      </trkpt>
      <trkpt lat="43.54596" lon="1.1595">
        <ele>213.4</ele>
        <time>2025-12-19T08:56:24Z</time>
      </trkpt>
      <trkpt lat="43.54596" lon="1.15941">
        <ele>213.6</ele>
        <time>2025-12-19T08:56:25Z</time>
      </trkpt>
      <trkpt lat="43.54596" lon="1.15933">
        <ele>213.6</ele>
        <time>2025-12-19T08:56:26Z</time>
      </trkpt>
      <trkpt lat="43.54595" lon="1.15925">
        <ele>213.8</ele>
        <time>2025-12-19T08:56:27Z</time>
      </trkpt>
      <trkpt lat="43.54595" lon="1.15917">
        <ele>213.8</ele>
        <time>2025-12-19T08:56:28Z</time>
      </trkpt>
      <trkpt lat="43.54594" lon="1.15908">
        <ele>214</ele>
        <time>2025-12-19T08:56:29Z</time>
      </trkpt>
      <trkpt lat="43.54594" lon="1.159">
        <ele>214</ele>
        <time>2025-12-19T08:56:30Z</time>
      </trkpt>
      <trkpt lat="43.54593" lon="1.15892">
        <ele>214.2</ele>
        <time>2025-12-19T08:56:31Z</time>
      </trkpt>
      <trkpt lat="43.54592" lon="1.15883">
        <ele>214.4</ele>
        <time>2025-12-19T08:56:32Z</time>
      </trkpt>
      <trkpt lat="43.54592" lon="1.15875">
        <ele>214.6</ele>
        <time>2025-12-19T08:56:33Z</time>
      </trkpt>
      <trkpt lat="43.54591" lon="1.15867">
        <ele>214.8</ele>
        <time>2025-12-19T08:56:34Z</time>
      </trkpt>
      <trkpt lat="43.54591" lon="1.15858">
        <ele>214.8</ele>
        <time>2025-12-19T08:56:35Z</time>
      </trkpt>
      <trkpt lat="43.5459" lon="1.1585">
        <ele>215</ele>
        <time>2025-12-19T08:56:36Z</time>
      </trkpt>
      <trkpt lat="43.5459" lon="1.15842">
        <ele>215</ele>
        <time>2025-12-19T08:56:37Z</time>
      </trkpt>
      <trkpt lat="43.54589" lon="1.15834">
        <ele>215.2</ele>
        <time>2025-12-19T08:56:38Z</time>
      </trkpt>
      <trkpt lat="43.54588" lon="1.15826">
        <ele>215.4</ele>
        <time>2025-12-19T08:56:39Z</time>
      </trkpt>
      <trkpt lat="43.54588" lon="1.15818">
        <ele>215.4</ele>
        <time>2025-12-19T08:56:40Z</time>
      </trkpt>
      <trkpt lat="43.54588" lon="1.1581">
        <ele>215.6</ele>
        <time>2025-12-19T08:56:41Z</time>
      </trkpt>
      <trkpt lat="43.54587" lon="1.15802">
        <ele>215.6</ele>
        <time>2025-12-19T08:56:42Z</time>
      </trkpt>
      <trkpt lat="43.54586" lon="1.15794">
        <ele>215.8</ele>
        <time>2025-12-19T08:56:43Z</time>
      </trkpt>
      <trkpt lat="43.54586" lon="1.15786">
        <ele>216</ele>
        <time>2025-12-19T08:56:44Z</time>
      </trkpt>
      <trkpt lat="43.54586" lon="1.15779">
        <ele>216.2</ele>
        <time>2025-12-19T08:56:45Z</time>
      </trkpt>
      <trkpt lat="43.54585" lon="1.15771">
        <ele>216.4</ele>
        <time>2025-12-19T08:56:46Z</time>
      </trkpt>
      <trkpt lat="43.54585" lon="1.15763">
        <ele>216.4</ele>
        <time>2025-12-19T08:56:47Z</time>
      </trkpt>
      <trkpt lat="43.54585" lon="1.15756">
        <ele>216.6</ele>
        <time>2025-12-19T08:56:48Z</time>
      </trkpt>
      <trkpt lat="43.54585" lon="1.15749">
        <ele>216.8</ele>
        <time>2025-12-19T08:56:49Z</time>
      </trkpt>
      <trkpt lat="43.54584" lon="1.15742">
        <ele>216.8</ele>
        <time>2025-12-19T08:56:50Z</time>
      </trkpt>
      <trkpt lat="43.54584" lon="1.15734">
        <ele>217</ele>
        <time>2025-12-19T08:56:51Z</time>
      </trkpt>
      <trkpt lat="43.54584" lon="1.15727">
        <ele>217.2</ele>
        <time>2025-12-19T08:56:52Z</time>
      </trkpt>
      <trkpt lat="43.54584" lon="1.1572">
        <ele>217.4</ele>
        <time>2025-12-19T08:56:53Z</time>
      </trkpt>
      <trkpt lat="43.54584" lon="1.15713">
        <ele>217.6</ele>
        <time>2025-12-19T08:56:54Z</time>
      </trkpt>
      <trkpt lat="43.54584" lon="1.15705">
        <ele>217.8</ele>
        <time>2025-12-19T08:56:55Z</time>
      </trkpt>
      <trkpt lat="43.54584" lon="1.15698">
        <ele>218</ele>
        <time>2025-12-19T08:56:56Z</time>
      </trkpt>
      <trkpt lat="43.54585" lon="1.15691">
        <ele>218.2</ele>
        <time>2025-12-19T08:56:57Z</time>
      </trkpt>
      <trkpt lat="43.54586" lon="1.15685">
        <ele>218.2</ele>
        <time>2025-12-19T08:56:58Z</time>
      </trkpt>
      <trkpt lat="43.5459" lon="1.15679">
        <ele>218.4</ele>
        <time>2025-12-19T08:56:59Z</time>
      </trkpt>
      <trkpt lat="43.54594" lon="1.15675">
        <ele>218.6</ele>
        <time>2025-12-19T08:57:00Z</time>
      </trkpt>
      <trkpt lat="43.54599" lon="1.15671">
        <ele>218.6</ele>
        <time>2025-12-19T08:57:01Z</time>
      </trkpt>
      <trkpt lat="43.54604" lon="1.15668">
        <ele>218.6</ele>
        <time>2025-12-19T08:57:02Z</time>
      </trkpt>
      <trkpt lat="43.54608" lon="1.15663">
        <ele>218.4</ele>
        <time>2025-12-19T08:57:03Z</time>
      </trkpt>
      <trkpt lat="43.5461" lon="1.15655">
        <ele>218.2</ele>
        <time>2025-12-19T08:57:04Z</time>
      </trkpt>
      <trkpt lat="43.54611" lon="1.15648">
        <ele>218.2</ele>
        <time>2025-12-19T08:57:05Z</time>
      </trkpt>
      <trkpt lat="43.54611" lon="1.1564">
        <ele>218.4</ele>
        <time>2025-12-19T08:57:06Z</time>
      </trkpt>
      <trkpt lat="43.5461" lon="1.15633">
        <ele>218.4</ele>
        <time>2025-12-19T08:57:07Z</time>
      </trkpt>
      <trkpt lat="43.5461" lon="1.15626">
        <ele>218.6</ele>
        <time>2025-12-19T08:57:08Z</time>
      </trkpt>
      <trkpt lat="43.54609" lon="1.15618">
        <ele>218.8</ele>
        <time>2025-12-19T08:57:09Z</time>
      </trkpt>
      <trkpt lat="43.54607" lon="1.15612">
        <ele>219.2</ele>
        <time>2025-12-19T08:57:10Z</time>
      </trkpt>
      <trkpt lat="43.54604" lon="1.15607">
        <ele>219.4</ele>
        <time>2025-12-19T08:57:11Z</time>
      </trkpt>
      <trkpt lat="43.546" lon="1.15603">
        <ele>219.6</ele>
        <time>2025-12-19T08:57:12Z</time>
      </trkpt>
      <trkpt lat="43.54596" lon="1.15599">
        <ele>219.6</ele>
        <time>2025-12-19T08:57:13Z</time>
      </trkpt>
      <trkpt lat="43.54593" lon="1.15594">
        <ele>219.8</ele>
        <time>2025-12-19T08:57:14Z</time>
      </trkpt>
      <trkpt lat="43.54591" lon="1.15588">
        <ele>220</ele>
        <time>2025-12-19T08:57:15Z</time>
      </trkpt>
      <trkpt lat="43.5459" lon="1.15582">
        <ele>220.2</ele>
        <time>2025-12-19T08:57:16Z</time>
      </trkpt>
      <trkpt lat="43.54591" lon="1.15575">
        <ele>220.4</ele>
        <time>2025-12-19T08:57:17Z</time>
      </trkpt>
      <trkpt lat="43.54591" lon="1.15568">
        <ele>220.6</ele>
        <time>2025-12-19T08:57:18Z</time>
      </trkpt>
      <trkpt lat="43.54591" lon="1.15562">
        <ele>220.6</ele>
        <time>2025-12-19T08:57:19Z</time>
      </trkpt>
      <trkpt lat="43.54592" lon="1.15555">
        <ele>220.8</ele>
        <time>2025-12-19T08:57:20Z</time>
      </trkpt>
      <trkpt lat="43.54592" lon="1.15548">
        <ele>221</ele>
        <time>2025-12-19T08:57:21Z</time>
      </trkpt>
      <trkpt lat="43.54592" lon="1.15542">
        <ele>221.2</ele>
        <time>2025-12-19T08:57:22Z</time>
      </trkpt>
      <trkpt lat="43.54593" lon="1.15536">
        <ele>221.4</ele>
        <time>2025-12-19T08:57:23Z</time>
      </trkpt>
      <trkpt lat="43.54594" lon="1.1553">
        <ele>221.6</ele>
        <time>2025-12-19T08:57:24Z</time>
      </trkpt>
      <trkpt lat="43.54594" lon="1.15523">
        <ele>221.8</ele>
        <time>2025-12-19T08:57:25Z</time>
      </trkpt>
      <trkpt lat="43.54595" lon="1.15517">
        <ele>222</ele>
        <time>2025-12-19T08:57:26Z</time>
      </trkpt>
      <trkpt lat="43.54595" lon="1.1551">
        <ele>222.2</ele>
        <time>2025-12-19T08:57:27Z</time>
      </trkpt>
      <trkpt lat="43.54595" lon="1.15504">
        <ele>222.4</ele>
        <time>2025-12-19T08:57:28Z</time>
      </trkpt>
      <trkpt lat="43.54596" lon="1.15497">
        <ele>222.6</ele>
        <time>2025-12-19T08:57:29Z</time>
      </trkpt>
      <trkpt lat="43.54596" lon="1.1549">
        <ele>222.8</ele>
        <time>2025-12-19T08:57:30Z</time>
      </trkpt>
      <trkpt lat="43.54596" lon="1.15484">
        <ele>223</ele>
        <time>2025-12-19T08:57:31Z</time>
      </trkpt>
      <trkpt lat="43.54596" lon="1.15478">
        <ele>223</ele>
        <time>2025-12-19T08:57:32Z</time>
      </trkpt>
      <trkpt lat="43.54597" lon="1.15472">
        <ele>223.2</ele>
        <time>2025-12-19T08:57:33Z</time>
      </trkpt>
      <trkpt lat="43.54597" lon="1.15465">
        <ele>223.4</ele>
        <time>2025-12-19T08:57:34Z</time>
      </trkpt>
      <trkpt lat="43.54597" lon="1.15458">
        <ele>223.6</ele>
        <time>2025-12-19T08:57:35Z</time>
      </trkpt>
      <trkpt lat="43.54597" lon="1.15451">
        <ele>223.6</ele>
        <time>2025-12-19T08:57:36Z</time>
      </trkpt>
      <trkpt lat="43.54597" lon="1.15444">
        <ele>223.8</ele>
        <time>2025-12-19T08:57:37Z</time>
      </trkpt>
      <trkpt lat="43.54597" lon="1.15436">
        <ele>223.8</ele>
        <time>2025-12-19T08:57:38Z</time>
      </trkpt>
      <trkpt lat="43.54597" lon="1.15428">
        <ele>223.8</ele>
        <time>2025-12-19T08:57:39Z</time>
      </trkpt>
      <trkpt lat="43.54596" lon="1.15421">
        <ele>224</ele>
        <time>2025-12-19T08:57:40Z</time>
      </trkpt>
      <trkpt lat="43.54596" lon="1.15413">
        <ele>223.8</ele>
        <time>2025-12-19T08:57:41Z</time>
      </trkpt>
      <trkpt lat="43.54595" lon="1.15404">
        <ele>223.8</ele>
        <time>2025-12-19T08:57:42Z</time>
      </trkpt>
      <trkpt lat="43.54594" lon="1.15396">
        <ele>223.8</ele>
        <time>2025-12-19T08:57:43Z</time>
      </trkpt>
      <trkpt lat="43.54594" lon="1.15387">
        <ele>223.8</ele>
        <time>2025-12-19T08:57:44Z</time>
      </trkpt>
      <trkpt lat="43.54593" lon="1.15378">
        <ele>223.6</ele>
        <time>2025-12-19T08:57:45Z</time>
      </trkpt>
      <trkpt lat="43.54593" lon="1.15369">
        <ele>223.4</ele>
        <time>2025-12-19T08:57:46Z</time>
      </trkpt>
      <trkpt lat="43.54592" lon="1.15361">
        <ele>223.4</ele>
        <time>2025-12-19T08:57:47Z</time>
      </trkpt>
      <trkpt lat="43.54591" lon="1.15352">
        <ele>223.2</ele>
        <time>2025-12-19T08:57:48Z</time>
      </trkpt>
      <trkpt lat="43.54591" lon="1.15344">
        <ele>222.8</ele>
        <time>2025-12-19T08:57:49Z</time>
      </trkpt>
      <trkpt lat="43.5459" lon="1.15335">
        <ele>222.6</ele>
        <time>2025-12-19T08:57:50Z</time>
      </trkpt>
      <trkpt lat="43.5459" lon="1.15326">
        <ele>222.4</ele>
        <time>2025-12-19T08:57:51Z</time>
      </trkpt>
      <trkpt lat="43.54589" lon="1.15317">
        <ele>222</ele>
        <time>2025-12-19T08:57:52Z</time>
      </trkpt>
      <trkpt lat="43.54588" lon="1.15308">
        <ele>221.8</ele>
        <time>2025-12-19T08:57:53Z</time>
      </trkpt>
      <trkpt lat="43.54587" lon="1.15299">
        <ele>221.6</ele>
        <time>2025-12-19T08:57:54Z</time>
      </trkpt>
      <trkpt lat="43.54587" lon="1.15289">
        <ele>221.4</ele>
        <time>2025-12-19T08:57:55Z</time>
      </trkpt>
      <trkpt lat="43.54586" lon="1.1528">
        <ele>221</ele>
        <time>2025-12-19T08:57:56Z</time>
      </trkpt>
      <trkpt lat="43.54585" lon="1.1527">
        <ele>220.8</ele>
        <time>2025-12-19T08:57:57Z</time>
      </trkpt>
      <trkpt lat="43.54585" lon="1.1526">
        <ele>220.6</ele>
        <time>2025-12-19T08:57:58Z</time>
      </trkpt>
      <trkpt lat="43.54584" lon="1.15251">
        <ele>220.4</ele>
        <time>2025-12-19T08:57:59Z</time>
      </trkpt>
      <trkpt lat="43.54584" lon="1.15241">
        <ele>220.2</ele>
        <time>2025-12-19T08:58:00Z</time>
      </trkpt>
      <trkpt lat="43.54583" lon="1.15232">
        <ele>220</ele>
        <time>2025-12-19T08:58:01Z</time>
      </trkpt>
      <trkpt lat="43.54582" lon="1.15223">
        <ele>219.8</ele>
        <time>2025-12-19T08:58:02Z</time>
      </trkpt>
      <trkpt lat="43.54581" lon="1.15213">
        <ele>219.6</ele>
        <time>2025-12-19T08:58:03Z</time>
      </trkpt>
      <trkpt lat="43.54581" lon="1.15204">
        <ele>219.4</ele>
        <time>2025-12-19T08:58:04Z</time>
      </trkpt>
      <trkpt lat="43.5458" lon="1.15194">
        <ele>219.2</ele>
        <time>2025-12-19T08:58:05Z</time>
      </trkpt>
      <trkpt lat="43.54579" lon="1.15184">
        <ele>219</ele>
        <time>2025-12-19T08:58:06Z</time>
      </trkpt>
      <trkpt lat="43.54579" lon="1.15175">
        <ele>218.8</ele>
        <time>2025-12-19T08:58:07Z</time>
      </trkpt>
      <trkpt lat="43.54579" lon="1.15166">
        <ele>218.6</ele>
        <time>2025-12-19T08:58:08Z</time>
      </trkpt>
      <trkpt lat="43.54578" lon="1.15157">
        <ele>218.6</ele>
        <time>2025-12-19T08:58:09Z</time>
      </trkpt>
      <trkpt lat="43.54578" lon="1.15148">
        <ele>218.4</ele>
        <time>2025-12-19T08:58:10Z</time>
      </trkpt>
      <trkpt lat="43.54577" lon="1.15139">
        <ele>218.2</ele>
        <time>2025-12-19T08:58:11Z</time>
      </trkpt>
      <trkpt lat="43.54577" lon="1.1513">
        <ele>218.2</ele>
        <time>2025-12-19T08:58:12Z</time>
      </trkpt>
      <trkpt lat="43.54577" lon="1.15121">
        <ele>218.2</ele>
        <time>2025-12-19T08:58:13Z</time>
      </trkpt>
      <trkpt lat="43.54579" lon="1.15113">
        <ele>218.2</ele>
        <time>2025-12-19T08:58:14Z</time>
      </trkpt>
      <trkpt lat="43.54581" lon="1.15105">
        <ele>218.2</ele>
        <time>2025-12-19T08:58:15Z</time>
      </trkpt>
      <trkpt lat="43.54584" lon="1.15097">
        <ele>218.4</ele>
        <time>2025-12-19T08:58:16Z</time>
      </trkpt>
      <trkpt lat="43.54586" lon="1.1509">
        <ele>218.6</ele>
        <time>2025-12-19T08:58:17Z</time>
      </trkpt>
      <trkpt lat="43.54588" lon="1.15082">
        <ele>218.6</ele>
        <time>2025-12-19T08:58:18Z</time>
      </trkpt>
      <trkpt lat="43.5459" lon="1.15074">
        <ele>218.6</ele>
        <time>2025-12-19T08:58:19Z</time>
      </trkpt>
      <trkpt lat="43.54591" lon="1.15065">
        <ele>218.6</ele>
        <time>2025-12-19T08:58:20Z</time>
      </trkpt>
      <trkpt lat="43.54593" lon="1.15055">
        <ele>218.4</ele>
        <time>2025-12-19T08:58:21Z</time>
      </trkpt>
      <trkpt lat="43.54594" lon="1.15045">
        <ele>218.2</ele>
        <time>2025-12-19T08:58:22Z</time>
      </trkpt>
      <trkpt lat="43.54596" lon="1.15036">
        <ele>218.2</ele>
        <time>2025-12-19T08:58:23Z</time>
      </trkpt>
      <trkpt lat="43.54598" lon="1.15027">
        <ele>218</ele>
        <time>2025-12-19T08:58:24Z</time>
      </trkpt>
      <trkpt lat="43.54599" lon="1.15019">
        <ele>218</ele>
        <time>2025-12-19T08:58:25Z</time>
      </trkpt>
      <trkpt lat="43.54601" lon="1.15011">
        <ele>218</ele>
        <time>2025-12-19T08:58:26Z</time>
      </trkpt>
      <trkpt lat="43.54602" lon="1.15003">
        <ele>217.8</ele>
        <time>2025-12-19T08:58:27Z</time>
      </trkpt>
      <trkpt lat="43.54604" lon="1.14995">
        <ele>217.8</ele>
        <time>2025-12-19T08:58:28Z</time>
      </trkpt>
      <trkpt lat="43.54606" lon="1.14987">
        <ele>217.8</ele>
        <time>2025-12-19T08:58:29Z</time>
      </trkpt>
      <trkpt lat="43.54609" lon="1.14979">
        <ele>217.8</ele>
        <time>2025-12-19T08:58:30Z</time>
      </trkpt>
      <trkpt lat="43.54612" lon="1.14971">
        <ele>217.8</ele>
        <time>2025-12-19T08:58:31Z</time>
      </trkpt>
      <trkpt lat="43.54615" lon="1.14964">
        <ele>217.6</ele>
        <time>2025-12-19T08:58:32Z</time>
      </trkpt>
      <trkpt lat="43.54618" lon="1.14956">
        <ele>217.6</ele>
        <time>2025-12-19T08:58:33Z</time>
      </trkpt>
      <trkpt lat="43.54621" lon="1.14948">
        <ele>217.6</ele>
        <time>2025-12-19T08:58:34Z</time>
      </trkpt>
      <trkpt lat="43.54624" lon="1.1494">
        <ele>217.4</ele>
        <time>2025-12-19T08:58:35Z</time>
      </trkpt>
      <trkpt lat="43.54628" lon="1.14933">
        <ele>217.6</ele>
        <time>2025-12-19T08:58:36Z</time>
      </trkpt>
      <trkpt lat="43.5463" lon="1.14925">
        <ele>217.6</ele>
        <time>2025-12-19T08:58:37Z</time>
      </trkpt>
      <trkpt lat="43.54633" lon="1.14918">
        <ele>217.6</ele>
        <time>2025-12-19T08:58:38Z</time>
      </trkpt>
      <trkpt lat="43.54636" lon="1.14911">
        <ele>217.6</ele>
        <time>2025-12-19T08:58:39Z</time>
      </trkpt>
      <trkpt lat="43.54639" lon="1.14904">
        <ele>217.8</ele>
        <time>2025-12-19T08:58:40Z</time>
      </trkpt>
      <trkpt lat="43.54642" lon="1.14897">
        <ele>217.8</ele>
        <time>2025-12-19T08:58:41Z</time>
      </trkpt>
      <trkpt lat="43.54646" lon="1.14891">
        <ele>217.8</ele>
        <time>2025-12-19T08:58:42Z</time>
      </trkpt>
      <trkpt lat="43.54649" lon="1.14885">
        <ele>218</ele>
        <time>2025-12-19T08:58:43Z</time>
      </trkpt>
      <trkpt lat="43.54652" lon="1.14878">
        <ele>218.2</ele>
        <time>2025-12-19T08:58:44Z</time>
      </trkpt>
      <trkpt lat="43.54655" lon="1.14872">
        <ele>218.4</ele>
        <time>2025-12-19T08:58:45Z</time>
      </trkpt>
      <trkpt lat="43.54659" lon="1.14866">
        <ele>218.6</ele>
        <time>2025-12-19T08:58:46Z</time>
      </trkpt>
      <trkpt lat="43.54662" lon="1.1486">
        <ele>218.6</ele>
        <time>2025-12-19T08:58:47Z</time>
      </trkpt>
      <trkpt lat="43.54666" lon="1.14855">
        <ele>219</ele>
        <time>2025-12-19T08:58:48Z</time>
      </trkpt>
      <trkpt lat="43.54669" lon="1.14849">
        <ele>219</ele>
        <time>2025-12-19T08:58:49Z</time>
      </trkpt>
      <trkpt lat="43.54673" lon="1.14844">
        <ele>219.2</ele>
        <time>2025-12-19T08:58:50Z</time>
      </trkpt>
      <trkpt lat="43.54676" lon="1.14838">
        <ele>219.2</ele>
        <time>2025-12-19T08:58:51Z</time>
      </trkpt>
      <trkpt lat="43.54679" lon="1.14832">
        <ele>219.4</ele>
        <time>2025-12-19T08:58:52Z</time>
      </trkpt>
      <trkpt lat="43.54682" lon="1.14825">
        <ele>219.4</ele>
        <time>2025-12-19T08:58:53Z</time>
      </trkpt>
      <trkpt lat="43.54685" lon="1.14818">
        <ele>219.4</ele>
        <time>2025-12-19T08:58:54Z</time>
      </trkpt>
      <trkpt lat="43.54687" lon="1.1481">
        <ele>219.4</ele>
        <time>2025-12-19T08:58:55Z</time>
      </trkpt>
      <trkpt lat="43.54687" lon="1.14802">
        <ele>219.4</ele>
        <time>2025-12-19T08:58:56Z</time>
      </trkpt>
      <trkpt lat="43.54687" lon="1.14793">
        <ele>219.4</ele>
        <time>2025-12-19T08:58:57Z</time>
      </trkpt>
      <trkpt lat="43.54687" lon="1.14784">
        <ele>219.4</ele>
        <time>2025-12-19T08:58:58Z</time>
      </trkpt>
      <trkpt lat="43.54686" lon="1.14776">
        <ele>219.4</ele>
        <time>2025-12-19T08:58:59Z</time>
      </trkpt>
      <trkpt lat="43.54685" lon="1.14767">
        <ele>219.4</ele>
        <time>2025-12-19T08:59:00Z</time>
      </trkpt>
      <trkpt lat="43.54684" lon="1.14759">
        <ele>219.2</ele>
        <time>2025-12-19T08:59:01Z</time>
      </trkpt>
      <trkpt lat="43.54683" lon="1.14751">
        <ele>219.2</ele>
        <time>2025-12-19T08:59:02Z</time>
      </trkpt>
      <trkpt lat="43.54683" lon="1.14743">
        <ele>219</ele>
        <time>2025-12-19T08:59:03Z</time>
      </trkpt>
      <trkpt lat="43.54681" lon="1.14734">
        <ele>219.2</ele>
        <time>2025-12-19T08:59:04Z</time>
      </trkpt>
      <trkpt lat="43.5468" lon="1.14726">
        <ele>219</ele>
        <time>2025-12-19T08:59:05Z</time>
      </trkpt>
      <trkpt lat="43.54679" lon="1.14718">
        <ele>219.2</ele>
        <time>2025-12-19T08:59:06Z</time>
      </trkpt>
      <trkpt lat="43.54678" lon="1.1471">
        <ele>219.2</ele>
        <time>2025-12-19T08:59:07Z</time>
      </trkpt>
      <trkpt lat="43.54676" lon="1.14702">
        <ele>219.4</ele>
        <time>2025-12-19T08:59:08Z</time>
      </trkpt>
      <trkpt lat="43.54675" lon="1.14694">
        <ele>219.4</ele>
        <time>2025-12-19T08:59:09Z</time>
      </trkpt>
      <trkpt lat="43.54674" lon="1.14687">
        <ele>219.4</ele>
        <time>2025-12-19T08:59:10Z</time>
      </trkpt>
      <trkpt lat="43.54673" lon="1.14679">
        <ele>219.4</ele>
        <time>2025-12-19T08:59:11Z</time>
      </trkpt>
      <trkpt lat="43.54672" lon="1.14671">
        <ele>219.6</ele>
        <time>2025-12-19T08:59:12Z</time>
      </trkpt>
      <trkpt lat="43.54671" lon="1.14663">
        <ele>219.6</ele>
        <time>2025-12-19T08:59:13Z</time>
      </trkpt>
      <trkpt lat="43.5467" lon="1.14655">
        <ele>219.8</ele>
        <time>2025-12-19T08:59:14Z</time>
      </trkpt>
      <trkpt lat="43.54668" lon="1.14648">
        <ele>220</ele>
        <time>2025-12-19T08:59:15Z</time>
      </trkpt>
      <trkpt lat="43.54667" lon="1.14641">
        <ele>220.2</ele>
        <time>2025-12-19T08:59:16Z</time>
      </trkpt>
      <trkpt lat="43.54666" lon="1.14635">
        <ele>220.4</ele>
        <time>2025-12-19T08:59:17Z</time>
      </trkpt>
      <trkpt lat="43.54665" lon="1.14628">
        <ele>220.6</ele>
        <time>2025-12-19T08:59:18Z</time>
      </trkpt>
      <trkpt lat="43.54664" lon="1.14622">
        <ele>220.6</ele>
        <time>2025-12-19T08:59:19Z</time>
      </trkpt>
      <trkpt lat="43.54662" lon="1.14616">
        <ele>221</ele>
        <time>2025-12-19T08:59:20Z</time>
      </trkpt>
      <trkpt lat="43.54659" lon="1.1461">
        <ele>221.2</ele>
        <time>2025-12-19T08:59:21Z</time>
      </trkpt>
      <trkpt lat="43.54657" lon="1.14604">
        <ele>221.4</ele>
        <time>2025-12-19T08:59:22Z</time>
      </trkpt>
      <trkpt lat="43.54655" lon="1.14599">
        <ele>221.6</ele>
        <time>2025-12-19T08:59:23Z</time>
      </trkpt>
      <trkpt lat="43.54653" lon="1.14593">
        <ele>222</ele>
        <time>2025-12-19T08:59:24Z</time>
      </trkpt>
      <trkpt lat="43.5465" lon="1.14588">
        <ele>222</ele>
        <time>2025-12-19T08:59:25Z</time>
      </trkpt>
      <trkpt lat="43.54647" lon="1.14583">
        <ele>222.2</ele>
        <time>2025-12-19T08:59:26Z</time>
      </trkpt>
      <trkpt lat="43.54645" lon="1.14579">
        <ele>222.4</ele>
        <time>2025-12-19T08:59:27Z</time>
      </trkpt>
      <trkpt lat="43.54642" lon="1.14575">
        <ele>222.6</ele>
        <time>2025-12-19T08:59:28Z</time>
      </trkpt>
      <trkpt lat="43.5464" lon="1.14571">
        <ele>222.8</ele>
        <time>2025-12-19T08:59:29Z</time>
      </trkpt>
      <trkpt lat="43.54637" lon="1.14567">
        <ele>223</ele>
        <time>2025-12-19T08:59:30Z</time>
      </trkpt>
      <trkpt lat="43.54635" lon="1.14563">
        <ele>223.2</ele>
        <time>2025-12-19T08:59:31Z</time>
      </trkpt>
      <trkpt lat="43.54633" lon="1.14559">
        <ele>223.4</ele>
        <time>2025-12-19T08:59:32Z</time>
      </trkpt>
      <trkpt lat="43.5463" lon="1.14555">
        <ele>223.6</ele>
        <time>2025-12-19T08:59:33Z</time>
      </trkpt>
      <trkpt lat="43.54628" lon="1.14551">
        <ele>223.8</ele>
        <time>2025-12-19T08:59:34Z</time>
      </trkpt>
      <trkpt lat="43.54626" lon="1.14547">
        <ele>224</ele>
        <time>2025-12-19T08:59:35Z</time>
      </trkpt>
      <trkpt lat="43.54624" lon="1.14543">
        <ele>224.2</ele>
        <time>2025-12-19T08:59:36Z</time>
      </trkpt>
      <trkpt lat="43.54622" lon="1.14539">
        <ele>224.4</ele>
        <time>2025-12-19T08:59:37Z</time>
      </trkpt>
      <trkpt lat="43.54619" lon="1.14535">
        <ele>224.6</ele>
        <time>2025-12-19T08:59:38Z</time>
      </trkpt>
      <trkpt lat="43.54616" lon="1.14531">
        <ele>225</ele>
        <time>2025-12-19T08:59:39Z</time>
      </trkpt>
      <trkpt lat="43.54614" lon="1.14527">
        <ele>225</ele>
        <time>2025-12-19T08:59:40Z</time>
      </trkpt>
      <trkpt lat="43.54612" lon="1.14523">
        <ele>225.2</ele>
        <time>2025-12-19T08:59:41Z</time>
      </trkpt>
      <trkpt lat="43.54609" lon="1.1452">
        <ele>225.4</ele>
        <time>2025-12-19T08:59:42Z</time>
      </trkpt>
      <trkpt lat="43.54607" lon="1.14517">
        <ele>225.6</ele>
        <time>2025-12-19T08:59:43Z</time>
      </trkpt>
      <trkpt lat="43.54605" lon="1.14514">
        <ele>226</ele>
        <time>2025-12-19T08:59:44Z</time>
      </trkpt>
      <trkpt lat="43.54602" lon="1.14511">
        <ele>226.2</ele>
        <time>2025-12-19T08:59:45Z</time>
      </trkpt>
      <trkpt lat="43.546" lon="1.14508">
        <ele>226.4</ele>
        <time>2025-12-19T08:59:46Z</time>
      </trkpt>
      <trkpt lat="43.54597" lon="1.14505">
        <ele>226.8</ele>
        <time>2025-12-19T08:59:47Z</time>
      </trkpt>
      <trkpt lat="43.54595" lon="1.14501">
        <ele>227</ele>
        <time>2025-12-19T08:59:48Z</time>
      </trkpt>
      <trkpt lat="43.54593" lon="1.14498">
        <ele>227.2</ele>
        <time>2025-12-19T08:59:49Z</time>
      </trkpt>
      <trkpt lat="43.5459" lon="1.14496">
        <ele>227.6</ele>
        <time>2025-12-19T08:59:50Z</time>
      </trkpt>
      <trkpt lat="43.54588" lon="1.14492">
        <ele>227.8</ele>
        <time>2025-12-19T08:59:51Z</time>
      </trkpt>
      <trkpt lat="43.54586" lon="1.14489">
        <ele>228</ele>
        <time>2025-12-19T08:59:52Z</time>
      </trkpt>
      <trkpt lat="43.54583" lon="1.14486">
        <ele>228.2</ele>
        <time>2025-12-19T08:59:53Z</time>
      </trkpt>
      <trkpt lat="43.54581" lon="1.14483">
        <ele>228.6</ele>
        <time>2025-12-19T08:59:54Z</time>
      </trkpt>
      <trkpt lat="43.54579" lon="1.14479">
        <ele>228.8</ele>
        <time>2025-12-19T08:59:55Z</time>
      </trkpt>
      <trkpt lat="43.54578" lon="1.14476">
        <ele>229.2</ele>
        <time>2025-12-19T08:59:56Z</time>
      </trkpt>
      <trkpt lat="43.54576" lon="1.14472">
        <ele>229.4</ele>
        <time>2025-12-19T08:59:57Z</time>
      </trkpt>
      <trkpt lat="43.54574" lon="1.14468">
        <ele>229.6</ele>
        <time>2025-12-19T08:59:58Z</time>
      </trkpt>
      <trkpt lat="43.54573" lon="1.14465">
        <ele>229.8</ele>
        <time>2025-12-19T08:59:59Z</time>
      </trkpt>
      <trkpt lat="43.54571" lon="1.14461">
        <ele>230.2</ele>
        <time>2025-12-19T09:00:00Z</time>
      </trkpt>
      <trkpt lat="43.5457" lon="1.14458">
        <ele>230.4</ele>
        <time>2025-12-19T09:00:01Z</time>
      </trkpt>
      <trkpt lat="43.54569" lon="1.14454">
        <ele>230.6</ele>
        <time>2025-12-19T09:00:02Z</time>
      </trkpt>
      <trkpt lat="43.54567" lon="1.1445">
        <ele>230.8</ele>
        <time>2025-12-19T09:00:03Z</time>
      </trkpt>
      <trkpt lat="43.54566" lon="1.14446">
        <ele>231.2</ele>
        <time>2025-12-19T09:00:04Z</time>
      </trkpt>
      <trkpt lat="43.54565" lon="1.14442">
        <ele>231.4</ele>
        <time>2025-12-19T09:00:05Z</time>
      </trkpt>
      <trkpt lat="43.54564" lon="1.14438">
        <ele>231.6</ele>
        <time>2025-12-19T09:00:06Z</time>
      </trkpt>
      <trkpt lat="43.54563" lon="1.14435">
        <ele>231.8</ele>
        <time>2025-12-19T09:00:07Z</time>
      </trkpt>
      <trkpt lat="43.54562" lon="1.14431">
        <ele>232</ele>
        <time>2025-12-19T09:00:08Z</time>
      </trkpt>
      <trkpt lat="43.54561" lon="1.14427">
        <ele>232.2</ele>
        <time>2025-12-19T09:00:09Z</time>
      </trkpt>
      <trkpt lat="43.5456" lon="1.14423">
        <ele>232.4</ele>
        <time>2025-12-19T09:00:10Z</time>
      </trkpt>
      <trkpt lat="43.54559" lon="1.14419">
        <ele>232.4</ele>
        <time>2025-12-19T09:00:11Z</time>
      </trkpt>
      <trkpt lat="43.54559" lon="1.14414">
        <ele>232.6</ele>
        <time>2025-12-19T09:00:12Z</time>
      </trkpt>
      <trkpt lat="43.54558" lon="1.1441">
        <ele>232.8</ele>
        <time>2025-12-19T09:00:13Z</time>
      </trkpt>
      <trkpt lat="43.54558" lon="1.14406">
        <ele>233</ele>
        <time>2025-12-19T09:00:14Z</time>
      </trkpt>
      <trkpt lat="43.54557" lon="1.14403">
        <ele>233.2</ele>
        <time>2025-12-19T09:00:15Z</time>
      </trkpt>
      <trkpt lat="43.54555" lon="1.14399">
        <ele>233.4</ele>
        <time>2025-12-19T09:00:16Z</time>
      </trkpt>
      <trkpt lat="43.54554" lon="1.14395">
        <ele>233.6</ele>
        <time>2025-12-19T09:00:17Z</time>
      </trkpt>
      <trkpt lat="43.54553" lon="1.14391">
        <ele>233.8</ele>
        <time>2025-12-19T09:00:18Z</time>
      </trkpt>
      <trkpt lat="43.54552" lon="1.14388">
        <ele>234.2</ele>
        <time>2025-12-19T09:00:19Z</time>
      </trkpt>
      <trkpt lat="43.54551" lon="1.14383">
        <ele>234.4</ele>
        <time>2025-12-19T09:00:20Z</time>
      </trkpt>
      <trkpt lat="43.5455" lon="1.14379">
        <ele>234.6</ele>
        <time>2025-12-19T09:00:21Z</time>
      </trkpt>
      <trkpt lat="43.54549" lon="1.14375">
        <ele>234.8</ele>
        <time>2025-12-19T09:00:22Z</time>
      </trkpt>
      <trkpt lat="43.54548" lon="1.14371">
        <ele>235.2</ele>
        <time>2025-12-19T09:00:23Z</time>
      </trkpt>
      <trkpt lat="43.54548" lon="1.14367">
        <ele>235.4</ele>
        <time>2025-12-19T09:00:24Z</time>
      </trkpt>
      <trkpt lat="43.54547" lon="1.14364">
        <ele>235.6</ele>
        <time>2025-12-19T09:00:25Z</time>
      </trkpt>
      <trkpt lat="43.54545" lon="1.1436">
        <ele>235.8</ele>
        <time>2025-12-19T09:00:26Z</time>
      </trkpt>
      <trkpt lat="43.54545" lon="1.14356">
        <ele>236</ele>
        <time>2025-12-19T09:00:27Z</time>
      </trkpt>
      <trkpt lat="43.54544" lon="1.14352">
        <ele>236.2</ele>
        <time>2025-12-19T09:00:28Z</time>
      </trkpt>
      <trkpt lat="43.54543" lon="1.14348">
        <ele>236.2</ele>
        <time>2025-12-19T09:00:29Z</time>
      </trkpt>
      <trkpt lat="43.54542" lon="1.14344">
        <ele>236.4</ele>
        <time>2025-12-19T09:00:30Z</time>
      </trkpt>
      <trkpt lat="43.54541" lon="1.1434">
        <ele>236.6</ele>
        <time>2025-12-19T09:00:31Z</time>
      </trkpt>
      <trkpt lat="43.5454" lon="1.14336">
        <ele>236.8</ele>
        <time>2025-12-19T09:00:32Z</time>
      </trkpt>
      <trkpt lat="43.54539" lon="1.14332">
        <ele>237.2</ele>
        <time>2025-12-19T09:00:33Z</time>
      </trkpt>
      <trkpt lat="43.54538" lon="1.14328">
        <ele>237.4</ele>
        <time>2025-12-19T09:00:34Z</time>
      </trkpt>
      <trkpt lat="43.54537" lon="1.14324">
        <ele>237.6</ele>
        <time>2025-12-19T09:00:35Z</time>
      </trkpt>
      <trkpt lat="43.54536" lon="1.1432">
        <ele>237.8</ele>
        <time>2025-12-19T09:00:36Z</time>
      </trkpt>
      <trkpt lat="43.54535" lon="1.14316">
        <ele>238</ele>
        <time>2025-12-19T09:00:37Z</time>
      </trkpt>
      <trkpt lat="43.54534" lon="1.14312">
        <ele>238.2</ele>
        <time>2025-12-19T09:00:38Z</time>
      </trkpt>
      <trkpt lat="43.54533" lon="1.14307">
        <ele>238.2</ele>
        <time>2025-12-19T09:00:39Z</time>
      </trkpt>
      <trkpt lat="43.54533" lon="1.14302">
        <ele>238.4</ele>
        <time>2025-12-19T09:00:40Z</time>
      </trkpt>
      <trkpt lat="43.54532" lon="1.14298">
        <ele>238.6</ele>
        <time>2025-12-19T09:00:41Z</time>
      </trkpt>
      <trkpt lat="43.54531" lon="1.14293">
        <ele>238.8</ele>
        <time>2025-12-19T09:00:42Z</time>
      </trkpt>
      <trkpt lat="43.5453" lon="1.14289">
        <ele>239</ele>
        <time>2025-12-19T09:00:43Z</time>
      </trkpt>
      <trkpt lat="43.54529" lon="1.14285">
        <ele>239.2</ele>
        <time>2025-12-19T09:00:44Z</time>
      </trkpt>
      <trkpt lat="43.54528" lon="1.14281">
        <ele>239.4</ele>
        <time>2025-12-19T09:00:45Z</time>
      </trkpt>
      <trkpt lat="43.54526" lon="1.14277">
        <ele>239.6</ele>
        <time>2025-12-19T09:00:46Z</time>
      </trkpt>
      <trkpt lat="43.54525" lon="1.14272">
        <ele>239.8</ele>
        <time>2025-12-19T09:00:47Z</time>
      </trkpt>
      <trkpt lat="43.54525" lon="1.14267">
        <ele>240</ele>
        <time>2025-12-19T09:00:48Z</time>
      </trkpt>
      <trkpt lat="43.54524" lon="1.14263">
        <ele>240.2</ele>
        <time>2025-12-19T09:00:49Z</time>
      </trkpt>
      <trkpt lat="43.54523" lon="1.1426">
        <ele>240.4</ele>
        <time>2025-12-19T09:00:50Z</time>
      </trkpt>
      <trkpt lat="43.54522" lon="1.14256">
        <ele>240.6</ele>
        <time>2025-12-19T09:00:51Z</time>
      </trkpt>
      <trkpt lat="43.54521" lon="1.14252">
        <ele>240.8</ele>
        <time>2025-12-19T09:00:52Z</time>
      </trkpt>
      <trkpt lat="43.5452" lon="1.14248">
        <ele>241</ele>
        <time>2025-12-19T09:00:53Z</time>
      </trkpt>
      <trkpt lat="43.54519" lon="1.14244">
        <ele>241.2</ele>
        <time>2025-12-19T09:00:54Z</time>
      </trkpt>
      <trkpt lat="43.54518" lon="1.1424">
        <ele>241.4</ele>
        <time>2025-12-19T09:00:55Z</time>
      </trkpt>
      <trkpt lat="43.54517" lon="1.14235">
        <ele>241.6</ele>
        <time>2025-12-19T09:00:56Z</time>
      </trkpt>
      <trkpt lat="43.54516" lon="1.14231">
        <ele>241.8</ele>
        <time>2025-12-19T09:00:57Z</time>
      </trkpt>
      <trkpt lat="43.54515" lon="1.14227">
        <ele>242</ele>
        <time>2025-12-19T09:00:58Z</time>
      </trkpt>
      <trkpt lat="43.54514" lon="1.14223">
        <ele>242.2</ele>
        <time>2025-12-19T09:00:59Z</time>
      </trkpt>
      <trkpt lat="43.54513" lon="1.14219">
        <ele>242.4</ele>
        <time>2025-12-19T09:01:00Z</time>
      </trkpt>
      <trkpt lat="43.54512" lon="1.14215">
        <ele>242.6</ele>
        <time>2025-12-19T09:01:01Z</time>
      </trkpt>
      <trkpt lat="43.54512" lon="1.14211">
        <ele>242.8</ele>
        <time>2025-12-19T09:01:02Z</time>
      </trkpt>
      <trkpt lat="43.54511" lon="1.14207">
        <ele>243</ele>
        <time>2025-12-19T09:01:03Z</time>
      </trkpt>
      <trkpt lat="43.5451" lon="1.14202">
        <ele>243.2</ele>
        <time>2025-12-19T09:01:04Z</time>
      </trkpt>
      <trkpt lat="43.54509" lon="1.14197">
        <ele>243.2</ele>
        <time>2025-12-19T09:01:05Z</time>
      </trkpt>
      <trkpt lat="43.54508" lon="1.14193">
        <ele>243.4</ele>
        <time>2025-12-19T09:01:06Z</time>
      </trkpt>
      <trkpt lat="43.54507" lon="1.1419">
        <ele>243.6</ele>
        <time>2025-12-19T09:01:07Z</time>
      </trkpt>
      <trkpt lat="43.54506" lon="1.14185">
        <ele>243.8</ele>
        <time>2025-12-19T09:01:08Z</time>
      </trkpt>
      <trkpt lat="43.54505" lon="1.14182">
        <ele>244</ele>
        <time>2025-12-19T09:01:09Z</time>
      </trkpt>
      <trkpt lat="43.54504" lon="1.14177">
        <ele>244.2</ele>
        <time>2025-12-19T09:01:10Z</time>
      </trkpt>
      <trkpt lat="43.54504" lon="1.14173">
        <ele>244.4</ele>
        <time>2025-12-19T09:01:11Z</time>
      </trkpt>
      <trkpt lat="43.54503" lon="1.14168">
        <ele>244.6</ele>
        <time>2025-12-19T09:01:12Z</time>
      </trkpt>
      <trkpt lat="43.54502" lon="1.14165">
        <ele>245</ele>
        <time>2025-12-19T09:01:13Z</time>
      </trkpt>
      <trkpt lat="43.54501" lon="1.1416">
        <ele>245.2</ele>
        <time>2025-12-19T09:01:14Z</time>
      </trkpt>
      <trkpt lat="43.545" lon="1.14156">
        <ele>245.4</ele>
        <time>2025-12-19T09:01:15Z</time>
      </trkpt>
      <trkpt lat="43.54499" lon="1.14153">
        <ele>245.6</ele>
        <time>2025-12-19T09:01:16Z</time>
      </trkpt>
      <trkpt lat="43.54498" lon="1.14148">
        <ele>245.8</ele>
        <time>2025-12-19T09:01:17Z</time>
      </trkpt>
      <trkpt lat="43.54497" lon="1.14144">
        <ele>246</ele>
        <time>2025-12-19T09:01:18Z</time>
      </trkpt>
      <trkpt lat="43.54496" lon="1.1414">
        <ele>246.2</ele>
        <time>2025-12-19T09:01:19Z</time>
      </trkpt>
      <trkpt lat="43.54495" lon="1.14136">
        <ele>246.4</ele>
        <time>2025-12-19T09:01:20Z</time>
      </trkpt>
      <trkpt lat="43.54494" lon="1.14131">
        <ele>246.6</ele>
        <time>2025-12-19T09:01:21Z</time>
      </trkpt>
      <trkpt lat="43.54493" lon="1.14126">
        <ele>246.8</ele>
        <time>2025-12-19T09:01:22Z</time>
      </trkpt>
      <trkpt lat="43.54492" lon="1.14122">
        <ele>247</ele>
        <time>2025-12-19T09:01:23Z</time>
      </trkpt>
      <trkpt lat="43.54491" lon="1.14118">
        <ele>247.2</ele>
        <time>2025-12-19T09:01:24Z</time>
      </trkpt>
      <trkpt lat="43.5449" lon="1.14113">
        <ele>247.2</ele>
        <time>2025-12-19T09:01:25Z</time>
      </trkpt>
      <trkpt lat="43.54489" lon="1.14108">
        <ele>247.4</ele>
        <time>2025-12-19T09:01:26Z</time>
      </trkpt>
      <trkpt lat="43.54488" lon="1.14104">
        <ele>247.6</ele>
        <time>2025-12-19T09:01:27Z</time>
      </trkpt>
      <trkpt lat="43.54487" lon="1.14099">
        <ele>247.8</ele>
        <time>2025-12-19T09:01:28Z</time>
      </trkpt>
      <trkpt lat="43.54486" lon="1.14094">
        <ele>247.8</ele>
        <time>2025-12-19T09:01:29Z</time>
      </trkpt>
      <trkpt lat="43.54485" lon="1.1409">
        <ele>248</ele>
        <time>2025-12-19T09:01:30Z</time>
      </trkpt>
      <trkpt lat="43.54483" lon="1.14085">
        <ele>248</ele>
        <time>2025-12-19T09:01:31Z</time>
      </trkpt>
      <trkpt lat="43.54482" lon="1.1408">
        <ele>248.2</ele>
        <time>2025-12-19T09:01:32Z</time>
      </trkpt>
      <trkpt lat="43.54481" lon="1.14075">
        <ele>248.2</ele>
        <time>2025-12-19T09:01:33Z</time>
      </trkpt>
      <trkpt lat="43.5448" lon="1.1407">
        <ele>248.4</ele>
        <time>2025-12-19T09:01:34Z</time>
      </trkpt>
      <trkpt lat="43.54479" lon="1.14065">
        <ele>248.6</ele>
        <time>2025-12-19T09:01:35Z</time>
      </trkpt>
      <trkpt lat="43.54478" lon="1.1406">
        <ele>248.8</ele>
        <time>2025-12-19T09:01:36Z</time>
      </trkpt>
      <trkpt lat="43.54476" lon="1.14056">
        <ele>248.8</ele>
        <time>2025-12-19T09:01:37Z</time>
      </trkpt>
      <trkpt lat="43.54475" lon="1.14052">
        <ele>249</ele>
        <time>2025-12-19T09:01:38Z</time>
      </trkpt>
      <trkpt lat="43.54474" lon="1.14046">
        <ele>249.2</ele>
        <time>2025-12-19T09:01:39Z</time>
      </trkpt>
      <trkpt lat="43.54473" lon="1.14042">
        <ele>249.2</ele>
        <time>2025-12-19T09:01:40Z</time>
      </trkpt>
      <trkpt lat="43.54472" lon="1.14037">
        <ele>249.6</ele>
        <time>2025-12-19T09:01:41Z</time>
      </trkpt>
      <trkpt lat="43.54471" lon="1.14032">
        <ele>249.6</ele>
        <time>2025-12-19T09:01:42Z</time>
      </trkpt>
      <trkpt lat="43.5447" lon="1.14027">
        <ele>249.8</ele>
        <time>2025-12-19T09:01:43Z</time>
      </trkpt>
      <trkpt lat="43.54469" lon="1.14023">
        <ele>250</ele>
        <time>2025-12-19T09:01:44Z</time>
      </trkpt>
      <trkpt lat="43.54467" lon="1.14018">
        <ele>250</ele>
        <time>2025-12-19T09:01:45Z</time>
      </trkpt>
      <trkpt lat="43.54466" lon="1.14012">
        <ele>250.2</ele>
        <time>2025-12-19T09:01:46Z</time>
      </trkpt>
      <trkpt lat="43.54465" lon="1.14007">
        <ele>250.4</ele>
        <time>2025-12-19T09:01:47Z</time>
      </trkpt>
      <trkpt lat="43.54464" lon="1.14002">
        <ele>250.6</ele>
        <time>2025-12-19T09:01:48Z</time>
      </trkpt>
      <trkpt lat="43.54463" lon="1.13997">
        <ele>250.6</ele>
        <time>2025-12-19T09:01:49Z</time>
      </trkpt>
      <trkpt lat="43.54462" lon="1.13992">
        <ele>250.8</ele>
        <time>2025-12-19T09:01:50Z</time>
      </trkpt>
      <trkpt lat="43.54461" lon="1.13986">
        <ele>251</ele>
        <time>2025-12-19T09:01:51Z</time>
      </trkpt>
      <trkpt lat="43.5446" lon="1.13981">
        <ele>251</ele>
        <time>2025-12-19T09:01:52Z</time>
      </trkpt>
      <trkpt lat="43.54459" lon="1.13976">
        <ele>251.2</ele>
        <time>2025-12-19T09:01:53Z</time>
      </trkpt>
      <trkpt lat="43.54457" lon="1.13971">
        <ele>251.4</ele>
        <time>2025-12-19T09:01:54Z</time>
      </trkpt>
      <trkpt lat="43.54456" lon="1.13965">
        <ele>251.6</ele>
        <time>2025-12-19T09:01:55Z</time>
      </trkpt>
      <trkpt lat="43.54455" lon="1.1396">
        <ele>251.6</ele>
        <time>2025-12-19T09:01:56Z</time>
      </trkpt>
      <trkpt lat="43.54453" lon="1.13954">
        <ele>251.8</ele>
        <time>2025-12-19T09:01:57Z</time>
      </trkpt>
      <trkpt lat="43.54452" lon="1.13948">
        <ele>251.8</ele>
        <time>2025-12-19T09:01:58Z</time>
      </trkpt>
      <trkpt lat="43.54451" lon="1.13942">
        <ele>252</ele>
        <time>2025-12-19T09:01:59Z</time>
      </trkpt>
      <trkpt lat="43.5445" lon="1.13937">
        <ele>252</ele>
        <time>2025-12-19T09:02:00Z</time>
      </trkpt>
      <trkpt lat="43.54449" lon="1.13931">
        <ele>252.2</ele>
        <time>2025-12-19T09:02:01Z</time>
      </trkpt>
      <trkpt lat="43.54448" lon="1.13926">
        <ele>252.4</ele>
        <time>2025-12-19T09:02:02Z</time>
      </trkpt>
      <trkpt lat="43.54447" lon="1.13921">
        <ele>252.6</ele>
        <time>2025-12-19T09:02:03Z</time>
      </trkpt>
      <trkpt lat="43.54445" lon="1.13916">
        <ele>252.8</ele>
        <time>2025-12-19T09:02:04Z</time>
      </trkpt>
      <trkpt lat="43.54444" lon="1.1391">
        <ele>253</ele>
        <time>2025-12-19T09:02:05Z</time>
      </trkpt>
      <trkpt lat="43.54442" lon="1.13905">
        <ele>253</ele>
        <time>2025-12-19T09:02:06Z</time>
      </trkpt>
      <trkpt lat="43.54441" lon="1.139">
        <ele>253.2</ele>
        <time>2025-12-19T09:02:07Z</time>
      </trkpt>
      <trkpt lat="43.54439" lon="1.13895">
        <ele>253.4</ele>
        <time>2025-12-19T09:02:08Z</time>
      </trkpt>
      <trkpt lat="43.54438" lon="1.13889">
        <ele>253.4</ele>
        <time>2025-12-19T09:02:09Z</time>
      </trkpt>
      <trkpt lat="43.54436" lon="1.13884">
        <ele>253.6</ele>
        <time>2025-12-19T09:02:10Z</time>
      </trkpt>
      <trkpt lat="43.54435" lon="1.13878">
        <ele>253.8</ele>
        <time>2025-12-19T09:02:11Z</time>
      </trkpt>
      <trkpt lat="43.54433" lon="1.13873">
        <ele>253.8</ele>
        <time>2025-12-19T09:02:12Z</time>
      </trkpt>
      <trkpt lat="43.54431" lon="1.13867">
        <ele>253.8</ele>
        <time>2025-12-19T09:02:13Z</time>
      </trkpt>
      <trkpt lat="43.5443" lon="1.13861">
        <ele>254</ele>
        <time>2025-12-19T09:02:14Z</time>
      </trkpt>
      <trkpt lat="43.54428" lon="1.13855">
        <ele>254</ele>
        <time>2025-12-19T09:02:15Z</time>
      </trkpt>
      <trkpt lat="43.54426" lon="1.13848">
        <ele>254</ele>
        <time>2025-12-19T09:02:16Z</time>
      </trkpt>
      <trkpt lat="43.54424" lon="1.13842">
        <ele>254</ele>
        <time>2025-12-19T09:02:17Z</time>
      </trkpt>
      <trkpt lat="43.54421" lon="1.13835">
        <ele>254</ele>
        <time>2025-12-19T09:02:18Z</time>
      </trkpt>
      <trkpt lat="43.54419" lon="1.13829">
        <ele>253.8</ele>
        <time>2025-12-19T09:02:19Z</time>
      </trkpt>
      <trkpt lat="43.54416" lon="1.13823">
        <ele>253.6</ele>
        <time>2025-12-19T09:02:20Z</time>
      </trkpt>
      <trkpt lat="43.54413" lon="1.13816">
        <ele>253.4</ele>
        <time>2025-12-19T09:02:21Z</time>
      </trkpt>
      <trkpt lat="43.54411" lon="1.13808">
        <ele>253.2</ele>
        <time>2025-12-19T09:02:22Z</time>
      </trkpt>
      <trkpt lat="43.54408" lon="1.13801">
        <ele>253</ele>
        <time>2025-12-19T09:02:23Z</time>
      </trkpt>
      <trkpt lat="43.54404" lon="1.13793">
        <ele>252.8</ele>
        <time>2025-12-19T09:02:24Z</time>
      </trkpt>
      <trkpt lat="43.54401" lon="1.13786">
        <ele>252.4</ele>
        <time>2025-12-19T09:02:25Z</time>
      </trkpt>
      <trkpt lat="43.54397" lon="1.13778">
        <ele>252.2</ele>
        <time>2025-12-19T09:02:26Z</time>
      </trkpt>
      <trkpt lat="43.54393" lon="1.1377">
        <ele>252</ele>
        <time>2025-12-19T09:02:27Z</time>
      </trkpt>
      <trkpt lat="43.54389" lon="1.13763">
        <ele>251.6</ele>
        <time>2025-12-19T09:02:28Z</time>
      </trkpt>
      <trkpt lat="43.54386" lon="1.13755">
        <ele>251.4</ele>
        <time>2025-12-19T09:02:29Z</time>
      </trkpt>
      <trkpt lat="43.54382" lon="1.13747">
        <ele>251</ele>
        <time>2025-12-19T09:02:30Z</time>
      </trkpt>
      <trkpt lat="43.54379" lon="1.13739">
        <ele>250.8</ele>
        <time>2025-12-19T09:02:31Z</time>
      </trkpt>
      <trkpt lat="43.54375" lon="1.13731">
        <ele>250.6</ele>
        <time>2025-12-19T09:02:32Z</time>
      </trkpt>
      <trkpt lat="43.54371" lon="1.13724">
        <ele>250.6</ele>
        <time>2025-12-19T09:02:33Z</time>
      </trkpt>
      <trkpt lat="43.54367" lon="1.13717">
        <ele>250.4</ele>
        <time>2025-12-19T09:02:34Z</time>
      </trkpt>
      <trkpt lat="43.54364" lon="1.1371">
        <ele>250.4</ele>
        <time>2025-12-19T09:02:35Z</time>
      </trkpt>
      <trkpt lat="43.54361" lon="1.13703">
        <ele>250.2</ele>
        <time>2025-12-19T09:02:36Z</time>
      </trkpt>
      <trkpt lat="43.54357" lon="1.13696">
        <ele>250.2</ele>
        <time>2025-12-19T09:02:37Z</time>
      </trkpt>
      <trkpt lat="43.54354" lon="1.13689">
        <ele>250.4</ele>
        <time>2025-12-19T09:02:38Z</time>
      </trkpt>
      <trkpt lat="43.54351" lon="1.13682">
        <ele>250.4</ele>
        <time>2025-12-19T09:02:39Z</time>
      </trkpt>
      <trkpt lat="43.54347" lon="1.13675">
        <ele>250.4</ele>
        <time>2025-12-19T09:02:40Z</time>
      </trkpt>
      <trkpt lat="43.54343" lon="1.13669">
        <ele>250.6</ele>
        <time>2025-12-19T09:02:41Z</time>
      </trkpt>
      <trkpt lat="43.5434" lon="1.13662">
        <ele>250.8</ele>
        <time>2025-12-19T09:02:42Z</time>
      </trkpt>
      <trkpt lat="43.54336" lon="1.13656">
        <ele>250.8</ele>
        <time>2025-12-19T09:02:43Z</time>
      </trkpt>
      <trkpt lat="43.54333" lon="1.13649">
        <ele>250.8</ele>
        <time>2025-12-19T09:02:44Z</time>
      </trkpt>
      <trkpt lat="43.5433" lon="1.13643">
        <ele>250.8</ele>
        <time>2025-12-19T09:02:45Z</time>
      </trkpt>
      <trkpt lat="43.54327" lon="1.13636">
        <ele>251</ele>
        <time>2025-12-19T09:02:46Z</time>
      </trkpt>
      <trkpt lat="43.54324" lon="1.1363">
        <ele>251</ele>
        <time>2025-12-19T09:02:47Z</time>
      </trkpt>
      <trkpt lat="43.5432" lon="1.13624">
        <ele>251.2</ele>
        <time>2025-12-19T09:02:48Z</time>
      </trkpt>
      <trkpt lat="43.54317" lon="1.13618">
        <ele>251.2</ele>
        <time>2025-12-19T09:02:49Z</time>
      </trkpt>
      <trkpt lat="43.54314" lon="1.13612">
        <ele>251.4</ele>
        <time>2025-12-19T09:02:50Z</time>
      </trkpt>
      <trkpt lat="43.54311" lon="1.13606">
        <ele>251.6</ele>
        <time>2025-12-19T09:02:51Z</time>
      </trkpt>
      <trkpt lat="43.54308" lon="1.13601">
        <ele>251.8</ele>
        <time>2025-12-19T09:02:52Z</time>
      </trkpt>
      <trkpt lat="43.54305" lon="1.13595">
        <ele>252</ele>
        <time>2025-12-19T09:02:53Z</time>
      </trkpt>
      <trkpt lat="43.54303" lon="1.1359">
        <ele>252</ele>
        <time>2025-12-19T09:02:54Z</time>
      </trkpt>
      <trkpt lat="43.54301" lon="1.13584">
        <ele>252.2</ele>
        <time>2025-12-19T09:02:55Z</time>
      </trkpt>
      <trkpt lat="43.54299" lon="1.13578">
        <ele>252.4</ele>
        <time>2025-12-19T09:02:56Z</time>
      </trkpt>
      <trkpt lat="43.54297" lon="1.13572">
        <ele>252.6</ele>
        <time>2025-12-19T09:02:57Z</time>
      </trkpt>
      <trkpt lat="43.54295" lon="1.13566">
        <ele>252.8</ele>
        <time>2025-12-19T09:02:58Z</time>
      </trkpt>
      <trkpt lat="43.54293" lon="1.13561">
        <ele>253</ele>
        <time>2025-12-19T09:02:59Z</time>
      </trkpt>
      <trkpt lat="43.54291" lon="1.13555">
        <ele>253.2</ele>
        <time>2025-12-19T09:03:00Z</time>
      </trkpt>
      <trkpt lat="43.54289" lon="1.13549">
        <ele>253.4</ele>
        <time>2025-12-19T09:03:01Z</time>
      </trkpt>
      <trkpt lat="43.54288" lon="1.13543">
        <ele>253.6</ele>
        <time>2025-12-19T09:03:02Z</time>
      </trkpt>
      <trkpt lat="43.54287" lon="1.13537">
        <ele>253.8</ele>
        <time>2025-12-19T09:03:03Z</time>
      </trkpt>
      <trkpt lat="43.54285" lon="1.13531">
        <ele>254</ele>
        <time>2025-12-19T09:03:04Z</time>
      </trkpt>
      <trkpt lat="43.54285" lon="1.13525">
        <ele>254.2</ele>
        <time>2025-12-19T09:03:05Z</time>
      </trkpt>
      <trkpt lat="43.54283" lon="1.1352">
        <ele>254.4</ele>
        <time>2025-12-19T09:03:06Z</time>
      </trkpt>
      <trkpt lat="43.54282" lon="1.13514">
        <ele>254.6</ele>
        <time>2025-12-19T09:03:07Z</time>
      </trkpt>
      <trkpt lat="43.54282" lon="1.13509">
        <ele>255</ele>
        <time>2025-12-19T09:03:08Z</time>
      </trkpt>
      <trkpt lat="43.54281" lon="1.13504">
        <ele>255.2</ele>
        <time>2025-12-19T09:03:09Z</time>
      </trkpt>
      <trkpt lat="43.54281" lon="1.13499">
        <ele>255.4</ele>
        <time>2025-12-19T09:03:10Z</time>
      </trkpt>
      <trkpt lat="43.54281" lon="1.13494">
        <ele>255.8</ele>
        <time>2025-12-19T09:03:11Z</time>
      </trkpt>
      <trkpt lat="43.5428" lon="1.13489">
        <ele>256</ele>
        <time>2025-12-19T09:03:12Z</time>
      </trkpt>
      <trkpt lat="43.5428" lon="1.13484">
        <ele>256.2</ele>
        <time>2025-12-19T09:03:13Z</time>
      </trkpt>
      <trkpt lat="43.5428" lon="1.13479">
        <ele>256.4</ele>
        <time>2025-12-19T09:03:14Z</time>
      </trkpt>
      <trkpt lat="43.5428" lon="1.13474">
        <ele>256.6</ele>
        <time>2025-12-19T09:03:15Z</time>
      </trkpt>
      <trkpt lat="43.5428" lon="1.13468">
        <ele>256.8</ele>
        <time>2025-12-19T09:03:16Z</time>
      </trkpt>
      <trkpt lat="43.5428" lon="1.13463">
        <ele>257.2</ele>
        <time>2025-12-19T09:03:17Z</time>
      </trkpt>
      <trkpt lat="43.5428" lon="1.13458">
        <ele>257.4</ele>
        <time>2025-12-19T09:03:18Z</time>
      </trkpt>
      <trkpt lat="43.5428" lon="1.13453">
        <ele>257.6</ele>
        <time>2025-12-19T09:03:19Z</time>
      </trkpt>
      <trkpt lat="43.54281" lon="1.13448">
        <ele>257.8</ele>
        <time>2025-12-19T09:03:20Z</time>
      </trkpt>
      <trkpt lat="43.54281" lon="1.13442">
        <ele>258.2</ele>
        <time>2025-12-19T09:03:21Z</time>
      </trkpt>
      <trkpt lat="43.54281" lon="1.13437">
        <ele>258.4</ele>
        <time>2025-12-19T09:03:22Z</time>
      </trkpt>
      <trkpt lat="43.54281" lon="1.13432">
        <ele>258.8</ele>
        <time>2025-12-19T09:03:23Z</time>
      </trkpt>
      <trkpt lat="43.54281" lon="1.13427">
        <ele>259</ele>
        <time>2025-12-19T09:03:24Z</time>
      </trkpt>
      <trkpt lat="43.54281" lon="1.13421">
        <ele>259.2</ele>
        <time>2025-12-19T09:03:25Z</time>
      </trkpt>
      <trkpt lat="43.54281" lon="1.13416">
        <ele>259.4</ele>
        <time>2025-12-19T09:03:26Z</time>
      </trkpt>
      <trkpt lat="43.54282" lon="1.13411">
        <ele>259.8</ele>
        <time>2025-12-19T09:03:27Z</time>
      </trkpt>
      <trkpt lat="43.54282" lon="1.13406">
        <ele>260</ele>
        <time>2025-12-19T09:03:28Z</time>
      </trkpt>
      <trkpt lat="43.54282" lon="1.13401">
        <ele>260.2</ele>
        <time>2025-12-19T09:03:29Z</time>
      </trkpt>
      <trkpt lat="43.54282" lon="1.13395">
        <ele>260.4</ele>
        <time>2025-12-19T09:03:30Z</time>
      </trkpt>
      <trkpt lat="43.54283" lon="1.1339">
        <ele>260.6</ele>
        <time>2025-12-19T09:03:31Z</time>
      </trkpt>
      <trkpt lat="43.54283" lon="1.13385">
        <ele>260.8</ele>
        <time>2025-12-19T09:03:32Z</time>
      </trkpt>
      <trkpt lat="43.54283" lon="1.13379">
        <ele>261.2</ele>
        <time>2025-12-19T09:03:33Z</time>
      </trkpt>
      <trkpt lat="43.54283" lon="1.13374">
        <ele>261.4</ele>
        <time>2025-12-19T09:03:34Z</time>
      </trkpt>
      <trkpt lat="43.54283" lon="1.13369">
        <ele>261.6</ele>
        <time>2025-12-19T09:03:35Z</time>
      </trkpt>
      <trkpt lat="43.54283" lon="1.13364">
        <ele>261.8</ele>
        <time>2025-12-19T09:03:36Z</time>
      </trkpt>
      <trkpt lat="43.54283" lon="1.13358">
        <ele>262</ele>
        <time>2025-12-19T09:03:37Z</time>
      </trkpt>
      <trkpt lat="43.54283" lon="1.13353">
        <ele>262.4</ele>
        <time>2025-12-19T09:03:38Z</time>
      </trkpt>
      <trkpt lat="43.54284" lon="1.13348">
        <ele>262.6</ele>
        <time>2025-12-19T09:03:39Z</time>
      </trkpt>
      <trkpt lat="43.54284" lon="1.13342">
        <ele>262.8</ele>
        <time>2025-12-19T09:03:40Z</time>
      </trkpt>
      <trkpt lat="43.54284" lon="1.13336">
        <ele>262.8</ele>
        <time>2025-12-19T09:03:41Z</time>
      </trkpt>
      <trkpt lat="43.54284" lon="1.13331">
        <ele>263</ele>
        <time>2025-12-19T09:03:42Z</time>
      </trkpt>
      <trkpt lat="43.54285" lon="1.13325">
        <ele>263</ele>
        <time>2025-12-19T09:03:43Z</time>
      </trkpt>
      <trkpt lat="43.54285" lon="1.13319">
        <ele>263.2</ele>
        <time>2025-12-19T09:03:44Z</time>
      </trkpt>
      <trkpt lat="43.54285" lon="1.13313">
        <ele>263.2</ele>
        <time>2025-12-19T09:03:45Z</time>
      </trkpt>
      <trkpt lat="43.54285" lon="1.13307">
        <ele>263.4</ele>
        <time>2025-12-19T09:03:46Z</time>
      </trkpt>
      <trkpt lat="43.54285" lon="1.13301">
        <ele>263.4</ele>
        <time>2025-12-19T09:03:47Z</time>
      </trkpt>
      <trkpt lat="43.54286" lon="1.13296">
        <ele>263.6</ele>
        <time>2025-12-19T09:03:48Z</time>
      </trkpt>
      <trkpt lat="43.54286" lon="1.1329">
        <ele>263.8</ele>
        <time>2025-12-19T09:03:49Z</time>
      </trkpt>
      <trkpt lat="43.54286" lon="1.13284">
        <ele>264</ele>
        <time>2025-12-19T09:03:50Z</time>
      </trkpt>
      <trkpt lat="43.54286" lon="1.13278">
        <ele>264</ele>
        <time>2025-12-19T09:03:51Z</time>
      </trkpt>
      <trkpt lat="43.54287" lon="1.13272">
        <ele>264.2</ele>
        <time>2025-12-19T09:03:52Z</time>
      </trkpt>
      <trkpt lat="43.54287" lon="1.13266">
        <ele>264.2</ele>
        <time>2025-12-19T09:03:53Z</time>
      </trkpt>
      <trkpt lat="43.54287" lon="1.1326">
        <ele>264.4</ele>
        <time>2025-12-19T09:03:54Z</time>
      </trkpt>
      <trkpt lat="43.54287" lon="1.13254">
        <ele>264.4</ele>
        <time>2025-12-19T09:03:55Z</time>
      </trkpt>
      <trkpt lat="43.54287" lon="1.13248">
        <ele>264.6</ele>
        <time>2025-12-19T09:03:56Z</time>
      </trkpt>
      <trkpt lat="43.54287" lon="1.13241">
        <ele>264.6</ele>
        <time>2025-12-19T09:03:57Z</time>
      </trkpt>
      <trkpt lat="43.54288" lon="1.13235">
        <ele>264.8</ele>
        <time>2025-12-19T09:03:58Z</time>
      </trkpt>
      <trkpt lat="43.54288" lon="1.13228">
        <ele>264.8</ele>
        <time>2025-12-19T09:03:59Z</time>
      </trkpt>
      <trkpt lat="43.54288" lon="1.13222">
        <ele>265</ele>
        <time>2025-12-19T09:04:00Z</time>
      </trkpt>
      <trkpt lat="43.54288" lon="1.13216">
        <ele>265</ele>
        <time>2025-12-19T09:04:01Z</time>
      </trkpt>
      <trkpt lat="43.54289" lon="1.1321">
        <ele>265.2</ele>
        <time>2025-12-19T09:04:02Z</time>
      </trkpt>
      <trkpt lat="43.54289" lon="1.13204">
        <ele>265.2</ele>
        <time>2025-12-19T09:04:03Z</time>
      </trkpt>
      <trkpt lat="43.54289" lon="1.13197">
        <ele>265.4</ele>
        <time>2025-12-19T09:04:04Z</time>
      </trkpt>
      <trkpt lat="43.54289" lon="1.13191">
        <ele>265.4</ele>
        <time>2025-12-19T09:04:05Z</time>
      </trkpt>
      <trkpt lat="43.54289" lon="1.13185">
        <ele>265.6</ele>
        <time>2025-12-19T09:04:06Z</time>
      </trkpt>
      <trkpt lat="43.5429" lon="1.13179">
        <ele>265.8</ele>
        <time>2025-12-19T09:04:07Z</time>
      </trkpt>
      <trkpt lat="43.5429" lon="1.13173">
        <ele>265.8</ele>
        <time>2025-12-19T09:04:08Z</time>
      </trkpt>
      <trkpt lat="43.5429" lon="1.13167">
        <ele>266</ele>
        <time>2025-12-19T09:04:09Z</time>
      </trkpt>
      <trkpt lat="43.5429" lon="1.13161">
        <ele>266.2</ele>
        <time>2025-12-19T09:04:10Z</time>
      </trkpt>
      <trkpt lat="43.5429" lon="1.13155">
        <ele>266.2</ele>
        <time>2025-12-19T09:04:11Z</time>
      </trkpt>
      <trkpt lat="43.5429" lon="1.13149">
        <ele>266.4</ele>
        <time>2025-12-19T09:04:12Z</time>
      </trkpt>
      <trkpt lat="43.5429" lon="1.13143">
        <ele>266.6</ele>
        <time>2025-12-19T09:04:13Z</time>
      </trkpt>
      <trkpt lat="43.5429" lon="1.13136">
        <ele>266.6</ele>
        <time>2025-12-19T09:04:14Z</time>
      </trkpt>
      <trkpt lat="43.54291" lon="1.1313">
        <ele>266.8</ele>
        <time>2025-12-19T09:04:15Z</time>
      </trkpt>
      <trkpt lat="43.54291" lon="1.13123">
        <ele>266.8</ele>
        <time>2025-12-19T09:04:16Z</time>
      </trkpt>
      <trkpt lat="43.54291" lon="1.13117">
        <ele>266.8</ele>
        <time>2025-12-19T09:04:17Z</time>
      </trkpt>
      <trkpt lat="43.54291" lon="1.13111">
        <ele>267</ele>
        <time>2025-12-19T09:04:18Z</time>
      </trkpt>
      <trkpt lat="43.54292" lon="1.13105">
        <ele>267</ele>
        <time>2025-12-19T09:04:19Z</time>
      </trkpt>
      <trkpt lat="43.54292" lon="1.13098">
        <ele>267</ele>
        <time>2025-12-19T09:04:20Z</time>
      </trkpt>
      <trkpt lat="43.54292" lon="1.13091">
        <ele>267</ele>
        <time>2025-12-19T09:04:21Z</time>
      </trkpt>
      <trkpt lat="43.54292" lon="1.13085">
        <ele>267.2</ele>
        <time>2025-12-19T09:04:22Z</time>
      </trkpt>
      <trkpt lat="43.54292" lon="1.13078">
        <ele>267.2</ele>
        <time>2025-12-19T09:04:23Z</time>
      </trkpt>
      <trkpt lat="43.54293" lon="1.13071">
        <ele>267.2</ele>
        <time>2025-12-19T09:04:24Z</time>
      </trkpt>
      <trkpt lat="43.54293" lon="1.13064">
        <ele>267.2</ele>
        <time>2025-12-19T09:04:25Z</time>
      </trkpt>
      <trkpt lat="43.54293" lon="1.13057">
        <ele>267.4</ele>
        <time>2025-12-19T09:04:26Z</time>
      </trkpt>
      <trkpt lat="43.54293" lon="1.1305">
        <ele>267.4</ele>
        <time>2025-12-19T09:04:27Z</time>
      </trkpt>
      <trkpt lat="43.54293" lon="1.13043">
        <ele>267.2</ele>
        <time>2025-12-19T09:04:28Z</time>
      </trkpt>
      <trkpt lat="43.54293" lon="1.13036">
        <ele>267.2</ele>
        <time>2025-12-19T09:04:29Z</time>
      </trkpt>
      <trkpt lat="43.54293" lon="1.13029">
        <ele>267.2</ele>
        <time>2025-12-19T09:04:30Z</time>
      </trkpt>
      <trkpt lat="43.54293" lon="1.13022">
        <ele>267.2</ele>
        <time>2025-12-19T09:04:31Z</time>
      </trkpt>
      <trkpt lat="43.54294" lon="1.13015">
        <ele>267.2</ele>
        <time>2025-12-19T09:04:32Z</time>
      </trkpt>
      <trkpt lat="43.54294" lon="1.13008">
        <ele>267.2</ele>
        <time>2025-12-19T09:04:33Z</time>
      </trkpt>
      <trkpt lat="43.54294" lon="1.13">
        <ele>267.2</ele>
        <time>2025-12-19T09:04:34Z</time>
      </trkpt>
      <trkpt lat="43.54294" lon="1.12993">
        <ele>267.2</ele>
        <time>2025-12-19T09:04:35Z</time>
      </trkpt>
      <trkpt lat="43.54295" lon="1.12986">
        <ele>267.2</ele>
        <time>2025-12-19T09:04:36Z</time>
      </trkpt>
      <trkpt lat="43.54295" lon="1.12979">
        <ele>267</ele>
        <time>2025-12-19T09:04:37Z</time>
      </trkpt>
      <trkpt lat="43.54295" lon="1.12972">
        <ele>267</ele>
        <time>2025-12-19T09:04:38Z</time>
      </trkpt>
      <trkpt lat="43.54295" lon="1.12965">
        <ele>267.2</ele>
        <time>2025-12-19T09:04:39Z</time>
      </trkpt>
      <trkpt lat="43.54295" lon="1.12958">
        <ele>267.2</ele>
        <time>2025-12-19T09:04:40Z</time>
      </trkpt>
      <trkpt lat="43.54295" lon="1.12951">
        <ele>267.2</ele>
        <time>2025-12-19T09:04:41Z</time>
      </trkpt>
      <trkpt lat="43.54294" lon="1.12943">
        <ele>267.2</ele>
        <time>2025-12-19T09:04:42Z</time>
      </trkpt>
      <trkpt lat="43.54294" lon="1.12936">
        <ele>267.2</ele>
        <time>2025-12-19T09:04:43Z</time>
      </trkpt>
      <trkpt lat="43.54293" lon="1.1293">
        <ele>267.2</ele>
        <time>2025-12-19T09:04:44Z</time>
      </trkpt>
      <trkpt lat="43.54293" lon="1.12923">
        <ele>267.2</ele>
        <time>2025-12-19T09:04:45Z</time>
      </trkpt>
      <trkpt lat="43.54292" lon="1.12917">
        <ele>267.2</ele>
        <time>2025-12-19T09:04:46Z</time>
      </trkpt>
      <trkpt lat="43.54291" lon="1.1291">
        <ele>267.2</ele>
        <time>2025-12-19T09:04:47Z</time>
      </trkpt>
      <trkpt lat="43.5429" lon="1.12904">
        <ele>267.2</ele>
        <time>2025-12-19T09:04:48Z</time>
      </trkpt>
      <trkpt lat="43.54289" lon="1.12898">
        <ele>267.2</ele>
        <time>2025-12-19T09:04:49Z</time>
      </trkpt>
      <trkpt lat="43.54287" lon="1.12891">
        <ele>267.4</ele>
        <time>2025-12-19T09:04:50Z</time>
      </trkpt>
      <trkpt lat="43.54286" lon="1.12885">
        <ele>267.4</ele>
        <time>2025-12-19T09:04:51Z</time>
      </trkpt>
      <trkpt lat="43.54285" lon="1.12878">
        <ele>267.4</ele>
        <time>2025-12-19T09:04:52Z</time>
      </trkpt>
      <trkpt lat="43.54284" lon="1.12872">
        <ele>267.6</ele>
        <time>2025-12-19T09:04:53Z</time>
      </trkpt>
      <trkpt lat="43.54282" lon="1.12865">
        <ele>267.6</ele>
        <time>2025-12-19T09:04:54Z</time>
      </trkpt>
      <trkpt lat="43.54281" lon="1.12859">
        <ele>267.6</ele>
        <time>2025-12-19T09:04:55Z</time>
      </trkpt>
      <trkpt lat="43.5428" lon="1.12852">
        <ele>267.8</ele>
        <time>2025-12-19T09:04:56Z</time>
      </trkpt>
      <trkpt lat="43.54279" lon="1.12845">
        <ele>267.8</ele>
        <time>2025-12-19T09:04:57Z</time>
      </trkpt>
      <trkpt lat="43.54278" lon="1.12839">
        <ele>267.8</ele>
        <time>2025-12-19T09:04:58Z</time>
      </trkpt>
      <trkpt lat="43.54277" lon="1.12832">
        <ele>268</ele>
        <time>2025-12-19T09:04:59Z</time>
      </trkpt>
      <trkpt lat="43.54276" lon="1.12826">
        <ele>268</ele>
        <time>2025-12-19T09:05:00Z</time>
      </trkpt>
      <trkpt lat="43.54274" lon="1.12819">
        <ele>268.2</ele>
        <time>2025-12-19T09:05:01Z</time>
      </trkpt>
      <trkpt lat="43.54273" lon="1.12813">
        <ele>268.2</ele>
        <time>2025-12-19T09:05:02Z</time>
      </trkpt>
      <trkpt lat="43.54272" lon="1.12806">
        <ele>268.2</ele>
        <time>2025-12-19T09:05:03Z</time>
      </trkpt>
      <trkpt lat="43.54271" lon="1.128">
        <ele>268.2</ele>
        <time>2025-12-19T09:05:04Z</time>
      </trkpt>
      <trkpt lat="43.5427" lon="1.12793">
        <ele>268.2</ele>
        <time>2025-12-19T09:05:05Z</time>
      </trkpt>
      <trkpt lat="43.54269" lon="1.12786">
        <ele>268.4</ele>
        <time>2025-12-19T09:05:06Z</time>
      </trkpt>
      <trkpt lat="43.54268" lon="1.1278">
        <ele>268.6</ele>
        <time>2025-12-19T09:05:07Z</time>
      </trkpt>
      <trkpt lat="43.54267" lon="1.12773">
        <ele>268.6</ele>
        <time>2025-12-19T09:05:08Z</time>
      </trkpt>
      <trkpt lat="43.54266" lon="1.12766">
        <ele>268.8</ele>
        <time>2025-12-19T09:05:09Z</time>
      </trkpt>
      <trkpt lat="43.54264" lon="1.1276">
        <ele>268.8</ele>
        <time>2025-12-19T09:05:10Z</time>
      </trkpt>
      <trkpt lat="43.54263" lon="1.12753">
        <ele>269</ele>
        <time>2025-12-19T09:05:11Z</time>
      </trkpt>
      <trkpt lat="43.54262" lon="1.12747">
        <ele>269</ele>
        <time>2025-12-19T09:05:12Z</time>
      </trkpt>
      <trkpt lat="43.54261" lon="1.12741">
        <ele>269</ele>
        <time>2025-12-19T09:05:13Z</time>
      </trkpt>
      <trkpt lat="43.5426" lon="1.12735">
        <ele>269.2</ele>
        <time>2025-12-19T09:05:14Z</time>
      </trkpt>
      <trkpt lat="43.54258" lon="1.12729">
        <ele>269.4</ele>
        <time>2025-12-19T09:05:15Z</time>
      </trkpt>
      <trkpt lat="43.54257" lon="1.12723">
        <ele>269.6</ele>
        <time>2025-12-19T09:05:16Z</time>
      </trkpt>
      <trkpt lat="43.54256" lon="1.12717">
        <ele>269.6</ele>
        <time>2025-12-19T09:05:17Z</time>
      </trkpt>
      <trkpt lat="43.54254" lon="1.12711">
        <ele>269.8</ele>
        <time>2025-12-19T09:05:18Z</time>
      </trkpt>
      <trkpt lat="43.54253" lon="1.12705">
        <ele>270</ele>
        <time>2025-12-19T09:05:19Z</time>
      </trkpt>
      <trkpt lat="43.54251" lon="1.127">
        <ele>270.4</ele>
        <time>2025-12-19T09:05:20Z</time>
      </trkpt>
      <trkpt lat="43.54248" lon="1.12694">
        <ele>270.6</ele>
        <time>2025-12-19T09:05:21Z</time>
      </trkpt>
      <trkpt lat="43.54246" lon="1.12689">
        <ele>270.8</ele>
        <time>2025-12-19T09:05:22Z</time>
      </trkpt>
      <trkpt lat="43.54244" lon="1.12684">
        <ele>271</ele>
        <time>2025-12-19T09:05:23Z</time>
      </trkpt>
      <trkpt lat="43.54242" lon="1.1268">
        <ele>271.2</ele>
        <time>2025-12-19T09:05:24Z</time>
      </trkpt>
      <trkpt lat="43.5424" lon="1.12676">
        <ele>271.4</ele>
        <time>2025-12-19T09:05:25Z</time>
      </trkpt>
      <trkpt lat="43.54238" lon="1.12672">
        <ele>271.8</ele>
        <time>2025-12-19T09:05:26Z</time>
      </trkpt>
      <trkpt lat="43.54237" lon="1.12667">
        <ele>272</ele>
        <time>2025-12-19T09:05:27Z</time>
      </trkpt>
      <trkpt lat="43.54235" lon="1.12662">
        <ele>272.2</ele>
        <time>2025-12-19T09:05:28Z</time>
      </trkpt>
      <trkpt lat="43.54233" lon="1.12658">
        <ele>272.4</ele>
        <time>2025-12-19T09:05:29Z</time>
      </trkpt>
      <trkpt lat="43.54231" lon="1.12654">
        <ele>272.8</ele>
        <time>2025-12-19T09:05:30Z</time>
      </trkpt>
      <trkpt lat="43.54229" lon="1.1265">
        <ele>273</ele>
        <time>2025-12-19T09:05:31Z</time>
      </trkpt>
      <trkpt lat="43.54227" lon="1.12646">
        <ele>273.2</ele>
        <time>2025-12-19T09:05:32Z</time>
      </trkpt>
      <trkpt lat="43.54225" lon="1.12642">
        <ele>273.6</ele>
        <time>2025-12-19T09:05:33Z</time>
      </trkpt>
      <trkpt lat="43.54224" lon="1.12639">
        <ele>273.8</ele>
        <time>2025-12-19T09:05:34Z</time>
      </trkpt>
      <trkpt lat="43.54222" lon="1.12635">
        <ele>274</ele>
        <time>2025-12-19T09:05:35Z</time>
      </trkpt>
      <trkpt lat="43.54221" lon="1.12632">
        <ele>274.2</ele>
        <time>2025-12-19T09:05:36Z</time>
      </trkpt>
      <trkpt lat="43.54219" lon="1.12628">
        <ele>274.4</ele>
        <time>2025-12-19T09:05:37Z</time>
      </trkpt>
      <trkpt lat="43.54218" lon="1.12624">
        <ele>274.6</ele>
        <time>2025-12-19T09:05:38Z</time>
      </trkpt>
      <trkpt lat="43.54217" lon="1.1262">
        <ele>274.8</ele>
        <time>2025-12-19T09:05:39Z</time>
      </trkpt>
      <trkpt lat="43.54217" lon="1.12616">
        <ele>275</ele>
        <time>2025-12-19T09:05:40Z</time>
      </trkpt>
      <trkpt lat="43.54216" lon="1.12611">
        <ele>275.2</ele>
        <time>2025-12-19T09:05:41Z</time>
      </trkpt>
      <trkpt lat="43.54216" lon="1.12607">
        <ele>275.6</ele>
        <time>2025-12-19T09:05:42Z</time>
      </trkpt>
      <trkpt lat="43.54216" lon="1.12603">
        <ele>275.8</ele>
        <time>2025-12-19T09:05:43Z</time>
      </trkpt>
      <trkpt lat="43.54215" lon="1.12599">
        <ele>276</ele>
        <time>2025-12-19T09:05:44Z</time>
      </trkpt>
      <trkpt lat="43.54215" lon="1.12595">
        <ele>276.4</ele>
        <time>2025-12-19T09:05:45Z</time>
      </trkpt>
      <trkpt lat="43.54215" lon="1.12591">
        <ele>276.6</ele>
        <time>2025-12-19T09:05:46Z</time>
      </trkpt>
      <trkpt lat="43.54215" lon="1.12587">
        <ele>276.8</ele>
        <time>2025-12-19T09:05:47Z</time>
      </trkpt>
      <trkpt lat="43.54216" lon="1.12583">
        <ele>277.2</ele>
        <time>2025-12-19T09:05:48Z</time>
      </trkpt>
      <trkpt lat="43.54216" lon="1.12579">
        <ele>277.4</ele>
        <time>2025-12-19T09:05:49Z</time>
      </trkpt>
      <trkpt lat="43.54216" lon="1.12575">
        <ele>277.8</ele>
        <time>2025-12-19T09:05:50Z</time>
      </trkpt>
      <trkpt lat="43.54216" lon="1.12571">
        <ele>278</ele>
        <time>2025-12-19T09:05:51Z</time>
      </trkpt>
      <trkpt lat="43.54217" lon="1.12567">
        <ele>278.4</ele>
        <time>2025-12-19T09:05:52Z</time>
      </trkpt>
      <trkpt lat="43.54217" lon="1.12563">
        <ele>278.6</ele>
        <time>2025-12-19T09:05:53Z</time>
      </trkpt>
      <trkpt lat="43.54217" lon="1.12559">
        <ele>278.8</ele>
        <time>2025-12-19T09:05:54Z</time>
      </trkpt>
      <trkpt lat="43.54218" lon="1.12556">
        <ele>279</ele>
        <time>2025-12-19T09:05:55Z</time>
      </trkpt>
      <trkpt lat="43.54218" lon="1.12553">
        <ele>279.4</ele>
        <time>2025-12-19T09:05:56Z</time>
      </trkpt>
      <trkpt lat="43.54218" lon="1.12549">
        <ele>279.8</ele>
        <time>2025-12-19T09:05:57Z</time>
      </trkpt>
      <trkpt lat="43.54219" lon="1.12545">
        <ele>280</ele>
        <time>2025-12-19T09:05:58Z</time>
      </trkpt>
      <trkpt lat="43.54219" lon="1.12541">
        <ele>280.2</ele>
        <time>2025-12-19T09:05:59Z</time>
      </trkpt>
      <trkpt lat="43.54219" lon="1.12538">
        <ele>280.4</ele>
        <time>2025-12-19T09:06:00Z</time>
      </trkpt>
      <trkpt lat="43.5422" lon="1.12535">
        <ele>280.6</ele>
        <time>2025-12-19T09:06:01Z</time>
      </trkpt>
      <trkpt lat="43.5422" lon="1.12531">
        <ele>281</ele>
        <time>2025-12-19T09:06:02Z</time>
      </trkpt>
      <trkpt lat="43.5422" lon="1.12528">
        <ele>281.2</ele>
        <time>2025-12-19T09:06:03Z</time>
      </trkpt>
      <trkpt lat="43.5422" lon="1.12524">
        <ele>281.4</ele>
        <time>2025-12-19T09:06:04Z</time>
      </trkpt>
      <trkpt lat="43.5422" lon="1.12521">
        <ele>281.8</ele>
        <time>2025-12-19T09:06:05Z</time>
      </trkpt>
      <trkpt lat="43.5422" lon="1.12516">
        <ele>282</ele>
        <time>2025-12-19T09:06:06Z</time>
      </trkpt>
      <trkpt lat="43.5422" lon="1.12512">
        <ele>282.4</ele>
        <time>2025-12-19T09:06:07Z</time>
      </trkpt>
      <trkpt lat="43.5422" lon="1.12508">
        <ele>282.6</ele>
        <time>2025-12-19T09:06:08Z</time>
      </trkpt>
      <trkpt lat="43.5422" lon="1.12504">
        <ele>283</ele>
        <time>2025-12-19T09:06:09Z</time>
      </trkpt>
      <trkpt lat="43.5422" lon="1.12501">
        <ele>283.2</ele>
        <time>2025-12-19T09:06:10Z</time>
      </trkpt>
      <trkpt lat="43.54219" lon="1.12498">
        <ele>283.4</ele>
        <time>2025-12-19T09:06:11Z</time>
      </trkpt>
      <trkpt lat="43.54219" lon="1.12494">
        <ele>283.6</ele>
        <time>2025-12-19T09:06:12Z</time>
      </trkpt>
      <trkpt lat="43.54218" lon="1.12491">
        <ele>284</ele>
        <time>2025-12-19T09:06:13Z</time>
      </trkpt>
      <trkpt lat="43.54217" lon="1.12487">
        <ele>284.2</ele>
        <time>2025-12-19T09:06:14Z</time>
      </trkpt>
      <trkpt lat="43.54217" lon="1.12484">
        <ele>284.4</ele>
        <time>2025-12-19T09:06:15Z</time>
      </trkpt>
      <trkpt lat="43.54216" lon="1.1248">
        <ele>284.8</ele>
        <time>2025-12-19T09:06:16Z</time>
      </trkpt>
      <trkpt lat="43.54216" lon="1.12477">
        <ele>285.2</ele>
        <time>2025-12-19T09:06:17Z</time>
      </trkpt>
      <trkpt lat="43.54215" lon="1.12473">
        <ele>285.6</ele>
        <time>2025-12-19T09:06:18Z</time>
      </trkpt>
      <trkpt lat="43.54214" lon="1.12469">
        <ele>286</ele>
        <time>2025-12-19T09:06:19Z</time>
      </trkpt>
      <trkpt lat="43.54213" lon="1.12465">
        <ele>286.2</ele>
        <time>2025-12-19T09:06:20Z</time>
      </trkpt>
      <trkpt lat="43.54213" lon="1.12461">
        <ele>286.2</ele>
        <time>2025-12-19T09:06:21Z</time>
      </trkpt>
      <trkpt lat="43.54212" lon="1.12457">
        <ele>286.4</ele>
        <time>2025-12-19T09:06:22Z</time>
      </trkpt>
      <trkpt lat="43.54211" lon="1.12454">
        <ele>286.4</ele>
        <time>2025-12-19T09:06:23Z</time>
      </trkpt>
      <trkpt lat="43.5421" lon="1.12451">
        <ele>286.6</ele>
        <time>2025-12-19T09:06:24Z</time>
      </trkpt>
      <trkpt lat="43.5421" lon="1.12447">
        <ele>286.8</ele>
        <time>2025-12-19T09:06:25Z</time>
      </trkpt>
      <trkpt lat="43.54209" lon="1.12443">
        <ele>287</ele>
        <time>2025-12-19T09:06:26Z</time>
      </trkpt>
      <trkpt lat="43.54208" lon="1.1244">
        <ele>287.2</ele>
        <time>2025-12-19T09:06:27Z</time>
      </trkpt>
      <trkpt lat="43.54207" lon="1.12436">
        <ele>287.6</ele>
        <time>2025-12-19T09:06:28Z</time>
      </trkpt>
      <trkpt lat="43.54206" lon="1.12433">
        <ele>287.8</ele>
        <time>2025-12-19T09:06:29Z</time>
      </trkpt>
      <trkpt lat="43.54206" lon="1.1243">
        <ele>288</ele>
        <time>2025-12-19T09:06:30Z</time>
      </trkpt>
      <trkpt lat="43.54205" lon="1.12426">
        <ele>288</ele>
        <time>2025-12-19T09:06:31Z</time>
      </trkpt>
      <trkpt lat="43.54204" lon="1.12423">
        <ele>288.2</ele>
        <time>2025-12-19T09:06:32Z</time>
      </trkpt>
      <trkpt lat="43.54203" lon="1.12419">
        <ele>288.4</ele>
        <time>2025-12-19T09:06:33Z</time>
      </trkpt>
      <trkpt lat="43.54202" lon="1.12415">
        <ele>288.8</ele>
        <time>2025-12-19T09:06:34Z</time>
      </trkpt>
      <trkpt lat="43.54201" lon="1.12411">
        <ele>289</ele>
        <time>2025-12-19T09:06:35Z</time>
      </trkpt>
      <trkpt lat="43.54201" lon="1.12407">
        <ele>289.2</ele>
        <time>2025-12-19T09:06:36Z</time>
      </trkpt>
      <trkpt lat="43.542" lon="1.12404">
        <ele>289.4</ele>
        <time>2025-12-19T09:06:37Z</time>
      </trkpt>
      <trkpt lat="43.54199" lon="1.12401">
        <ele>289.8</ele>
        <time>2025-12-19T09:06:38Z</time>
      </trkpt>
      <trkpt lat="43.54198" lon="1.12398">
        <ele>290</ele>
        <time>2025-12-19T09:06:39Z</time>
      </trkpt>
      <trkpt lat="43.54197" lon="1.12394">
        <ele>290.2</ele>
        <time>2025-12-19T09:06:40Z</time>
      </trkpt>
      <trkpt lat="43.54196" lon="1.1239">
        <ele>290.4</ele>
        <time>2025-12-19T09:06:41Z</time>
      </trkpt>
      <trkpt lat="43.54195" lon="1.12386">
        <ele>290.6</ele>
        <time>2025-12-19T09:06:42Z</time>
      </trkpt>
      <trkpt lat="43.54194" lon="1.12383">
        <ele>291</ele>
        <time>2025-12-19T09:06:43Z</time>
      </trkpt>
      <trkpt lat="43.54193" lon="1.12379">
        <ele>291.2</ele>
        <time>2025-12-19T09:06:44Z</time>
      </trkpt>
      <trkpt lat="43.54192" lon="1.12376">
        <ele>291.4</ele>
        <time>2025-12-19T09:06:45Z</time>
      </trkpt>
      <trkpt lat="43.54191" lon="1.12372">
        <ele>291.6</ele>
        <time>2025-12-19T09:06:46Z</time>
      </trkpt>
      <trkpt lat="43.54191" lon="1.12368">
        <ele>292</ele>
        <time>2025-12-19T09:06:47Z</time>
      </trkpt>
      <trkpt lat="43.5419" lon="1.12364">
        <ele>292.2</ele>
        <time>2025-12-19T09:06:48Z</time>
      </trkpt>
      <trkpt lat="43.54189" lon="1.1236">
        <ele>292.4</ele>
        <time>2025-12-19T09:06:49Z</time>
      </trkpt>
      <trkpt lat="43.54189" lon="1.12356">
        <ele>292.6</ele>
        <time>2025-12-19T09:06:50Z</time>
      </trkpt>
      <trkpt lat="43.54188" lon="1.12352">
        <ele>292.8</ele>
        <time>2025-12-19T09:06:51Z</time>
      </trkpt>
      <trkpt lat="43.54187" lon="1.12349">
        <ele>293</ele>
        <time>2025-12-19T09:06:52Z</time>
      </trkpt>
      <trkpt lat="43.54186" lon="1.12345">
        <ele>293.2</ele>
        <time>2025-12-19T09:06:53Z</time>
      </trkpt>
      <trkpt lat="43.54185" lon="1.12341">
        <ele>293.4</ele>
        <time>2025-12-19T09:06:54Z</time>
      </trkpt>
      <trkpt lat="43.54184" lon="1.12338">
        <ele>293.6</ele>
        <time>2025-12-19T09:06:55Z</time>
      </trkpt>
      <trkpt lat="43.54183" lon="1.12334">
        <ele>293.8</ele>
        <time>2025-12-19T09:06:56Z</time>
      </trkpt>
      <trkpt lat="43.54182" lon="1.12331">
        <ele>294</ele>
        <time>2025-12-19T09:06:57Z</time>
      </trkpt>
      <trkpt lat="43.54181" lon="1.12326">
        <ele>294.2</ele>
        <time>2025-12-19T09:06:58Z</time>
      </trkpt>
      <trkpt lat="43.54179" lon="1.12322">
        <ele>294.4</ele>
        <time>2025-12-19T09:06:59Z</time>
      </trkpt>
      <trkpt lat="43.54178" lon="1.12318">
        <ele>294.4</ele>
        <time>2025-12-19T09:07:00Z</time>
      </trkpt>
      <trkpt lat="43.54177" lon="1.12314">
        <ele>294.6</ele>
        <time>2025-12-19T09:07:01Z</time>
      </trkpt>
      <trkpt lat="43.54176" lon="1.12309">
        <ele>294.6</ele>
        <time>2025-12-19T09:07:02Z</time>
      </trkpt>
      <trkpt lat="43.54175" lon="1.12305">
        <ele>294.8</ele>
        <time>2025-12-19T09:07:03Z</time>
      </trkpt>
      <trkpt lat="43.54174" lon="1.12301">
        <ele>294.8</ele>
        <time>2025-12-19T09:07:04Z</time>
      </trkpt>
      <trkpt lat="43.54172" lon="1.12296">
        <ele>295</ele>
        <time>2025-12-19T09:07:05Z</time>
      </trkpt>
      <trkpt lat="43.54171" lon="1.12291">
        <ele>295.2</ele>
        <time>2025-12-19T09:07:06Z</time>
      </trkpt>
      <trkpt lat="43.5417" lon="1.12286">
        <ele>295.2</ele>
        <time>2025-12-19T09:07:07Z</time>
      </trkpt>
      <trkpt lat="43.54168" lon="1.1228">
        <ele>295.2</ele>
        <time>2025-12-19T09:07:08Z</time>
      </trkpt>
      <trkpt lat="43.54167" lon="1.12275">
        <ele>295.4</ele>
        <time>2025-12-19T09:07:09Z</time>
      </trkpt>
      <trkpt lat="43.54165" lon="1.1227">
        <ele>295.4</ele>
        <time>2025-12-19T09:07:10Z</time>
      </trkpt>
      <trkpt lat="43.54164" lon="1.12264">
        <ele>295.4</ele>
        <time>2025-12-19T09:07:11Z</time>
      </trkpt>
      <trkpt lat="43.54162" lon="1.12257">
        <ele>295.4</ele>
        <time>2025-12-19T09:07:12Z</time>
      </trkpt>
      <trkpt lat="43.5416" lon="1.12251">
        <ele>295.4</ele>
        <time>2025-12-19T09:07:13Z</time>
      </trkpt>
      <trkpt lat="43.54158" lon="1.12245">
        <ele>295.2</ele>
        <time>2025-12-19T09:07:14Z</time>
      </trkpt>
      <trkpt lat="43.54156" lon="1.12238">
        <ele>295.2</ele>
        <time>2025-12-19T09:07:15Z</time>
      </trkpt>
      <trkpt lat="43.54154" lon="1.12231">
        <ele>295.2</ele>
        <time>2025-12-19T09:07:16Z</time>
      </trkpt>
      <trkpt lat="43.54152" lon="1.12223">
        <ele>295</ele>
        <time>2025-12-19T09:07:17Z</time>
      </trkpt>
      <trkpt lat="43.54149" lon="1.12216">
        <ele>295</ele>
        <time>2025-12-19T09:07:18Z</time>
      </trkpt>
      <trkpt lat="43.54147" lon="1.12208">
        <ele>294.8</ele>
        <time>2025-12-19T09:07:19Z</time>
      </trkpt>
      <trkpt lat="43.54144" lon="1.122">
        <ele>294.6</ele>
        <time>2025-12-19T09:07:20Z</time>
      </trkpt>
      <trkpt lat="43.54142" lon="1.12193">
        <ele>294.4</ele>
        <time>2025-12-19T09:07:21Z</time>
      </trkpt>
      <trkpt lat="43.54139" lon="1.12185">
        <ele>294.4</ele>
        <time>2025-12-19T09:07:22Z</time>
      </trkpt>
      <trkpt lat="43.54136" lon="1.12177">
        <ele>294.2</ele>
        <time>2025-12-19T09:07:23Z</time>
      </trkpt>
      <trkpt lat="43.54133" lon="1.12169">
        <ele>294</ele>
        <time>2025-12-19T09:07:24Z</time>
      </trkpt>
      <trkpt lat="43.5413" lon="1.12161">
        <ele>293.8</ele>
        <time>2025-12-19T09:07:25Z</time>
      </trkpt>
      <trkpt lat="43.54127" lon="1.12152">
        <ele>293.6</ele>
        <time>2025-12-19T09:07:26Z</time>
      </trkpt>
      <trkpt lat="43.54124" lon="1.12144">
        <ele>293.4</ele>
        <time>2025-12-19T09:07:27Z</time>
      </trkpt>
      <trkpt lat="43.54121" lon="1.12136">
        <ele>293.4</ele>
        <time>2025-12-19T09:07:28Z</time>
      </trkpt>
      <trkpt lat="43.54118" lon="1.12127">
        <ele>293.2</ele>
        <time>2025-12-19T09:07:29Z</time>
      </trkpt>
      <trkpt lat="43.54115" lon="1.12119">
        <ele>293</ele>
        <time>2025-12-19T09:07:30Z</time>
      </trkpt>
      <trkpt lat="43.54112" lon="1.12111">
        <ele>293</ele>
        <time>2025-12-19T09:07:31Z</time>
      </trkpt>
      <trkpt lat="43.54109" lon="1.12103">
        <ele>293</ele>
        <time>2025-12-19T09:07:32Z</time>
      </trkpt>
      <trkpt lat="43.54106" lon="1.12095">
        <ele>293</ele>
        <time>2025-12-19T09:07:33Z</time>
      </trkpt>
      <trkpt lat="43.54103" lon="1.12087">
        <ele>293</ele>
        <time>2025-12-19T09:07:34Z</time>
      </trkpt>
      <trkpt lat="43.54101" lon="1.12079">
        <ele>293.2</ele>
        <time>2025-12-19T09:07:35Z</time>
      </trkpt>
      <trkpt lat="43.54097" lon="1.12071">
        <ele>293.2</ele>
        <time>2025-12-19T09:07:36Z</time>
      </trkpt>
      <trkpt lat="43.54094" lon="1.12064">
        <ele>293.4</ele>
        <time>2025-12-19T09:07:37Z</time>
      </trkpt>
      <trkpt lat="43.54091" lon="1.12056">
        <ele>293.4</ele>
        <time>2025-12-19T09:07:38Z</time>
      </trkpt>
      <trkpt lat="43.54088" lon="1.12049">
        <ele>293.6</ele>
        <time>2025-12-19T09:07:39Z</time>
      </trkpt>
      <trkpt lat="43.54085" lon="1.12041">
        <ele>293.8</ele>
        <time>2025-12-19T09:07:40Z</time>
      </trkpt>
      <trkpt lat="43.54082" lon="1.12033">
        <ele>293.8</ele>
        <time>2025-12-19T09:07:41Z</time>
      </trkpt>
      <trkpt lat="43.5408" lon="1.12024">
        <ele>294</ele>
        <time>2025-12-19T09:07:42Z</time>
      </trkpt>
      <trkpt lat="43.54077" lon="1.12016">
        <ele>294</ele>
        <time>2025-12-19T09:07:43Z</time>
      </trkpt>
      <trkpt lat="43.54075" lon="1.12009">
        <ele>294</ele>
        <time>2025-12-19T09:07:44Z</time>
      </trkpt>
      <trkpt lat="43.54072" lon="1.12002">
        <ele>294.2</ele>
        <time>2025-12-19T09:07:45Z</time>
      </trkpt>
      <trkpt lat="43.54069" lon="1.11994">
        <ele>294.2</ele>
        <time>2025-12-19T09:07:46Z</time>
      </trkpt>
      <trkpt lat="43.54067" lon="1.11986">
        <ele>294.2</ele>
        <time>2025-12-19T09:07:47Z</time>
      </trkpt>
      <trkpt lat="43.54065" lon="1.11978">
        <ele>294.2</ele>
        <time>2025-12-19T09:07:48Z</time>
      </trkpt>
      <trkpt lat="43.54062" lon="1.11971">
        <ele>294.2</ele>
        <time>2025-12-19T09:07:49Z</time>
      </trkpt>
      <trkpt lat="43.54059" lon="1.11963">
        <ele>294.2</ele>
        <time>2025-12-19T09:07:50Z</time>
      </trkpt>
      <trkpt lat="43.54056" lon="1.11955">
        <ele>294.2</ele>
        <time>2025-12-19T09:07:51Z</time>
      </trkpt>
      <trkpt lat="43.54053" lon="1.11947">
        <ele>294.4</ele>
        <time>2025-12-19T09:07:52Z</time>
      </trkpt>
      <trkpt lat="43.5405" lon="1.11939">
        <ele>294.4</ele>
        <time>2025-12-19T09:07:53Z</time>
      </trkpt>
      <trkpt lat="43.54047" lon="1.11932">
        <ele>294.6</ele>
        <time>2025-12-19T09:07:54Z</time>
      </trkpt>
      <trkpt lat="43.54045" lon="1.11925">
        <ele>294.6</ele>
        <time>2025-12-19T09:07:55Z</time>
      </trkpt>
      <trkpt lat="43.54042" lon="1.11917">
        <ele>294.8</ele>
        <time>2025-12-19T09:07:56Z</time>
      </trkpt>
      <trkpt lat="43.54039" lon="1.1191">
        <ele>295</ele>
        <time>2025-12-19T09:07:57Z</time>
      </trkpt>
      <trkpt lat="43.54036" lon="1.11902">
        <ele>295</ele>
        <time>2025-12-19T09:07:58Z</time>
      </trkpt>
      <trkpt lat="43.54033" lon="1.11895">
        <ele>295.2</ele>
        <time>2025-12-19T09:07:59Z</time>
      </trkpt>
      <trkpt lat="43.54029" lon="1.11887">
        <ele>295</ele>
        <time>2025-12-19T09:08:00Z</time>
      </trkpt>
      <trkpt lat="43.54026" lon="1.11879">
        <ele>295</ele>
        <time>2025-12-19T09:08:01Z</time>
      </trkpt>
      <trkpt lat="43.54022" lon="1.11871">
        <ele>295</ele>
        <time>2025-12-19T09:08:02Z</time>
      </trkpt>
      <trkpt lat="43.54018" lon="1.11863">
        <ele>294.8</ele>
        <time>2025-12-19T09:08:03Z</time>
      </trkpt>
      <trkpt lat="43.54015" lon="1.11854">
        <ele>294.8</ele>
        <time>2025-12-19T09:08:04Z</time>
      </trkpt>
      <trkpt lat="43.54011" lon="1.11846">
        <ele>294.8</ele>
        <time>2025-12-19T09:08:05Z</time>
      </trkpt>
      <trkpt lat="43.54008" lon="1.11838">
        <ele>294.8</ele>
        <time>2025-12-19T09:08:06Z</time>
      </trkpt>
      <trkpt lat="43.54005" lon="1.1183">
        <ele>294.8</ele>
        <time>2025-12-19T09:08:07Z</time>
      </trkpt>
      <trkpt lat="43.54001" lon="1.11822">
        <ele>294.8</ele>
        <time>2025-12-19T09:08:08Z</time>
      </trkpt>
      <trkpt lat="43.53998" lon="1.11813">
        <ele>294.6</ele>
        <time>2025-12-19T09:08:09Z</time>
      </trkpt>
      <trkpt lat="43.53994" lon="1.11805">
        <ele>294.8</ele>
        <time>2025-12-19T09:08:10Z</time>
      </trkpt>
      <trkpt lat="43.53991" lon="1.11797">
        <ele>294.8</ele>
        <time>2025-12-19T09:08:11Z</time>
      </trkpt>
      <trkpt lat="43.53988" lon="1.11789">
        <ele>294.8</ele>
        <time>2025-12-19T09:08:12Z</time>
      </trkpt>
      <trkpt lat="43.53984" lon="1.11782">
        <ele>295</ele>
        <time>2025-12-19T09:08:13Z</time>
      </trkpt>
      <trkpt lat="43.53981" lon="1.11774">
        <ele>295</ele>
        <time>2025-12-19T09:08:14Z</time>
      </trkpt>
      <trkpt lat="43.53978" lon="1.11766">
        <ele>295</ele>
        <time>2025-12-19T09:08:15Z</time>
      </trkpt>
      <trkpt lat="43.53975" lon="1.11758">
        <ele>295</ele>
        <time>2025-12-19T09:08:16Z</time>
      </trkpt>
      <trkpt lat="43.53972" lon="1.1175">
        <ele>295</ele>
        <time>2025-12-19T09:08:17Z</time>
      </trkpt>
      <trkpt lat="43.53969" lon="1.11743">
        <ele>295.2</ele>
        <time>2025-12-19T09:08:18Z</time>
      </trkpt>
      <trkpt lat="43.53966" lon="1.11735">
        <ele>295.4</ele>
        <time>2025-12-19T09:08:19Z</time>
      </trkpt>
      <trkpt lat="43.53964" lon="1.11728">
        <ele>295.4</ele>
        <time>2025-12-19T09:08:20Z</time>
      </trkpt>
      <trkpt lat="43.53961" lon="1.11722">
        <ele>295.8</ele>
        <time>2025-12-19T09:08:21Z</time>
      </trkpt>
      <trkpt lat="43.53958" lon="1.11715">
        <ele>296.2</ele>
        <time>2025-12-19T09:08:22Z</time>
      </trkpt>
      <trkpt lat="43.53956" lon="1.11708">
        <ele>296.4</ele>
        <time>2025-12-19T09:08:23Z</time>
      </trkpt>
      <trkpt lat="43.53954" lon="1.117">
        <ele>296.6</ele>
        <time>2025-12-19T09:08:24Z</time>
      </trkpt>
      <trkpt lat="43.53952" lon="1.11694">
        <ele>297</ele>
        <time>2025-12-19T09:08:25Z</time>
      </trkpt>
      <trkpt lat="43.53949" lon="1.11688">
        <ele>297.2</ele>
        <time>2025-12-19T09:08:26Z</time>
      </trkpt>
      <trkpt lat="43.53947" lon="1.11681">
        <ele>297.6</ele>
        <time>2025-12-19T09:08:27Z</time>
      </trkpt>
      <trkpt lat="43.53944" lon="1.11674">
        <ele>297.8</ele>
        <time>2025-12-19T09:08:28Z</time>
      </trkpt>
      <trkpt lat="43.53942" lon="1.11667">
        <ele>298</ele>
        <time>2025-12-19T09:08:29Z</time>
      </trkpt>
      <trkpt lat="43.53939" lon="1.11661">
        <ele>298.2</ele>
        <time>2025-12-19T09:08:30Z</time>
      </trkpt>
      <trkpt lat="43.53937" lon="1.11653">
        <ele>298.4</ele>
        <time>2025-12-19T09:08:31Z</time>
      </trkpt>
      <trkpt lat="43.53936" lon="1.11647">
        <ele>298.6</ele>
        <time>2025-12-19T09:08:32Z</time>
      </trkpt>
      <trkpt lat="43.53935" lon="1.11639">
        <ele>298.8</ele>
        <time>2025-12-19T09:08:33Z</time>
      </trkpt>
      <trkpt lat="43.53934" lon="1.11632">
        <ele>299</ele>
        <time>2025-12-19T09:08:34Z</time>
      </trkpt>
      <trkpt lat="43.53932" lon="1.11624">
        <ele>299</ele>
        <time>2025-12-19T09:08:35Z</time>
      </trkpt>
      <trkpt lat="43.53931" lon="1.11617">
        <ele>299.2</ele>
        <time>2025-12-19T09:08:36Z</time>
      </trkpt>
      <trkpt lat="43.5393" lon="1.11609">
        <ele>299.2</ele>
        <time>2025-12-19T09:08:37Z</time>
      </trkpt>
      <trkpt lat="43.53929" lon="1.11601">
        <ele>299.4</ele>
        <time>2025-12-19T09:08:38Z</time>
      </trkpt>
      <trkpt lat="43.53928" lon="1.11593">
        <ele>299.4</ele>
        <time>2025-12-19T09:08:39Z</time>
      </trkpt>
      <trkpt lat="43.53927" lon="1.11585">
        <ele>299.6</ele>
        <time>2025-12-19T09:08:40Z</time>
      </trkpt>
      <trkpt lat="43.53927" lon="1.11577">
        <ele>299.6</ele>
        <time>2025-12-19T09:08:41Z</time>
      </trkpt>
      <trkpt lat="43.53926" lon="1.11568">
        <ele>299.6</ele>
        <time>2025-12-19T09:08:42Z</time>
      </trkpt>
      <trkpt lat="43.53925" lon="1.1156">
        <ele>299.6</ele>
        <time>2025-12-19T09:08:43Z</time>
      </trkpt>
      <trkpt lat="43.53925" lon="1.11551">
        <ele>299.6</ele>
        <time>2025-12-19T09:08:44Z</time>
      </trkpt>
      <trkpt lat="43.53924" lon="1.11543">
        <ele>299.6</ele>
        <time>2025-12-19T09:08:45Z</time>
      </trkpt>
      <trkpt lat="43.53924" lon="1.11534">
        <ele>299.8</ele>
        <time>2025-12-19T09:08:46Z</time>
      </trkpt>
      <trkpt lat="43.53924" lon="1.11526">
        <ele>299.8</ele>
        <time>2025-12-19T09:08:47Z</time>
      </trkpt>
      <trkpt lat="43.53924" lon="1.11518">
        <ele>300</ele>
        <time>2025-12-19T09:08:48Z</time>
      </trkpt>
      <trkpt lat="43.53924" lon="1.1151">
        <ele>300.2</ele>
        <time>2025-12-19T09:08:49Z</time>
      </trkpt>
      <trkpt lat="43.53925" lon="1.11501">
        <ele>300.2</ele>
        <time>2025-12-19T09:08:50Z</time>
      </trkpt>
      <trkpt lat="43.53926" lon="1.11493">
        <ele>300.2</ele>
        <time>2025-12-19T09:08:51Z</time>
      </trkpt>
      <trkpt lat="43.53927" lon="1.11484">
        <ele>300.4</ele>
        <time>2025-12-19T09:08:52Z</time>
      </trkpt>
      <trkpt lat="43.53928" lon="1.11476">
        <ele>300.6</ele>
        <time>2025-12-19T09:08:53Z</time>
      </trkpt>
      <trkpt lat="43.5393" lon="1.11467">
        <ele>300.4</ele>
        <time>2025-12-19T09:08:54Z</time>
      </trkpt>
      <trkpt lat="43.53932" lon="1.11459">
        <ele>300.6</ele>
        <time>2025-12-19T09:08:55Z</time>
      </trkpt>
      <trkpt lat="43.53934" lon="1.11451">
        <ele>300.8</ele>
        <time>2025-12-19T09:08:56Z</time>
      </trkpt>
      <trkpt lat="43.53936" lon="1.11443">
        <ele>300.8</ele>
        <time>2025-12-19T09:08:57Z</time>
      </trkpt>
      <trkpt lat="43.53938" lon="1.11436">
        <ele>300.8</ele>
        <time>2025-12-19T09:08:58Z</time>
      </trkpt>
      <trkpt lat="43.53941" lon="1.1143">
        <ele>301</ele>
        <time>2025-12-19T09:08:59Z</time>
      </trkpt>
      <trkpt lat="43.53944" lon="1.11423">
        <ele>301.2</ele>
        <time>2025-12-19T09:09:00Z</time>
      </trkpt>
      <trkpt lat="43.53946" lon="1.11416">
        <ele>301.2</ele>
        <time>2025-12-19T09:09:01Z</time>
      </trkpt>
      <trkpt lat="43.53948" lon="1.11409">
        <ele>301.4</ele>
        <time>2025-12-19T09:09:02Z</time>
      </trkpt>
      <trkpt lat="43.53951" lon="1.11402">
        <ele>301.6</ele>
        <time>2025-12-19T09:09:03Z</time>
      </trkpt>
      <trkpt lat="43.53953" lon="1.11395">
        <ele>301.6</ele>
        <time>2025-12-19T09:09:04Z</time>
      </trkpt>
      <trkpt lat="43.53956" lon="1.11387">
        <ele>301.8</ele>
        <time>2025-12-19T09:09:05Z</time>
      </trkpt>
      <trkpt lat="43.53958" lon="1.1138">
        <ele>301.8</ele>
        <time>2025-12-19T09:09:06Z</time>
      </trkpt>
      <trkpt lat="43.53961" lon="1.11373">
        <ele>302</ele>
        <time>2025-12-19T09:09:07Z</time>
      </trkpt>
      <trkpt lat="43.53963" lon="1.11366">
        <ele>302</ele>
        <time>2025-12-19T09:09:08Z</time>
      </trkpt>
      <trkpt lat="43.53965" lon="1.11358">
        <ele>302</ele>
        <time>2025-12-19T09:09:09Z</time>
      </trkpt>
      <trkpt lat="43.53968" lon="1.1135">
        <ele>302</ele>
        <time>2025-12-19T09:09:10Z</time>
      </trkpt>
      <trkpt lat="43.5397" lon="1.11342">
        <ele>301.8</ele>
        <time>2025-12-19T09:09:11Z</time>
      </trkpt>
      <trkpt lat="43.53972" lon="1.11333">
        <ele>301.6</ele>
        <time>2025-12-19T09:09:12Z</time>
      </trkpt>
      <trkpt lat="43.53974" lon="1.11324">
        <ele>301.4</ele>
        <time>2025-12-19T09:09:13Z</time>
      </trkpt>
      <trkpt lat="43.53976" lon="1.11315">
        <ele>301.4</ele>
        <time>2025-12-19T09:09:14Z</time>
      </trkpt>
      <trkpt lat="43.53979" lon="1.11305">
        <ele>301.2</ele>
        <time>2025-12-19T09:09:15Z</time>
      </trkpt>
      <trkpt lat="43.53981" lon="1.11296">
        <ele>301</ele>
        <time>2025-12-19T09:09:16Z</time>
      </trkpt>
      <trkpt lat="43.53984" lon="1.11286">
        <ele>300.8</ele>
        <time>2025-12-19T09:09:17Z</time>
      </trkpt>
      <trkpt lat="43.53987" lon="1.11277">
        <ele>300.6</ele>
        <time>2025-12-19T09:09:18Z</time>
      </trkpt>
      <trkpt lat="43.53989" lon="1.11268">
        <ele>300.4</ele>
        <time>2025-12-19T09:09:19Z</time>
      </trkpt>
      <trkpt lat="43.53992" lon="1.11259">
        <ele>300.2</ele>
        <time>2025-12-19T09:09:20Z</time>
      </trkpt>
      <trkpt lat="43.53995" lon="1.1125">
        <ele>300</ele>
        <time>2025-12-19T09:09:21Z</time>
      </trkpt>
      <trkpt lat="43.53998" lon="1.11241">
        <ele>300</ele>
        <time>2025-12-19T09:09:22Z</time>
      </trkpt>
      <trkpt lat="43.54001" lon="1.11233">
        <ele>299.8</ele>
        <time>2025-12-19T09:09:23Z</time>
      </trkpt>
      <trkpt lat="43.54004" lon="1.11226">
        <ele>299.8</ele>
        <time>2025-12-19T09:09:24Z</time>
      </trkpt>
      <trkpt lat="43.54008" lon="1.11218">
        <ele>299.8</ele>
        <time>2025-12-19T09:09:25Z</time>
      </trkpt>
      <trkpt lat="43.54011" lon="1.11211">
        <ele>299.8</ele>
        <time>2025-12-19T09:09:26Z</time>
      </trkpt>
      <trkpt lat="43.54014" lon="1.11203">
        <ele>299.8</ele>
        <time>2025-12-19T09:09:27Z</time>
      </trkpt>
      <trkpt lat="43.54017" lon="1.11194">
        <ele>300</ele>
        <time>2025-12-19T09:09:28Z</time>
      </trkpt>
      <trkpt lat="43.54019" lon="1.11186">
        <ele>300</ele>
        <time>2025-12-19T09:09:29Z</time>
      </trkpt>
      <trkpt lat="43.54021" lon="1.11178">
        <ele>300.2</ele>
        <time>2025-12-19T09:09:30Z</time>
      </trkpt>
      <trkpt lat="43.54024" lon="1.1117">
        <ele>300.2</ele>
        <time>2025-12-19T09:09:31Z</time>
      </trkpt>
      <trkpt lat="43.54026" lon="1.11162">
        <ele>300.4</ele>
        <time>2025-12-19T09:09:32Z</time>
      </trkpt>
      <trkpt lat="43.54028" lon="1.11154">
        <ele>300.4</ele>
        <time>2025-12-19T09:09:33Z</time>
      </trkpt>
      <trkpt lat="43.5403" lon="1.11146">
        <ele>300.6</ele>
        <time>2025-12-19T09:09:34Z</time>
      </trkpt>
      <trkpt lat="43.54032" lon="1.11138">
        <ele>300.6</ele>
        <time>2025-12-19T09:09:35Z</time>
      </trkpt>
      <trkpt lat="43.54035" lon="1.1113">
        <ele>300.6</ele>
        <time>2025-12-19T09:09:36Z</time>
      </trkpt>
      <trkpt lat="43.54037" lon="1.11122">
        <ele>300.8</ele>
        <time>2025-12-19T09:09:37Z</time>
      </trkpt>
      <trkpt lat="43.5404" lon="1.11114">
        <ele>300.8</ele>
        <time>2025-12-19T09:09:38Z</time>
      </trkpt>
      <trkpt lat="43.54041" lon="1.11106">
        <ele>301</ele>
        <time>2025-12-19T09:09:39Z</time>
      </trkpt>
      <trkpt lat="43.54043" lon="1.11099">
        <ele>301</ele>
        <time>2025-12-19T09:09:40Z</time>
      </trkpt>
      <trkpt lat="43.54045" lon="1.11091">
        <ele>301.2</ele>
        <time>2025-12-19T09:09:41Z</time>
      </trkpt>
      <trkpt lat="43.54047" lon="1.11084">
        <ele>301.2</ele>
        <time>2025-12-19T09:09:42Z</time>
      </trkpt>
      <trkpt lat="43.54048" lon="1.11076">
        <ele>301.4</ele>
        <time>2025-12-19T09:09:43Z</time>
      </trkpt>
      <trkpt lat="43.54049" lon="1.11069">
        <ele>301.6</ele>
        <time>2025-12-19T09:09:44Z</time>
      </trkpt>
      <trkpt lat="43.5405" lon="1.11061">
        <ele>301.8</ele>
        <time>2025-12-19T09:09:45Z</time>
      </trkpt>
      <trkpt lat="43.54051" lon="1.11053">
        <ele>302</ele>
        <time>2025-12-19T09:09:46Z</time>
      </trkpt>
      <trkpt lat="43.54051" lon="1.11046">
        <ele>302.2</ele>
        <time>2025-12-19T09:09:47Z</time>
      </trkpt>
      <trkpt lat="43.54051" lon="1.11038">
        <ele>302.4</ele>
        <time>2025-12-19T09:09:48Z</time>
      </trkpt>
      <trkpt lat="43.54051" lon="1.1103">
        <ele>302.4</ele>
        <time>2025-12-19T09:09:49Z</time>
      </trkpt>
      <trkpt lat="43.54051" lon="1.11022">
        <ele>302.8</ele>
        <time>2025-12-19T09:09:50Z</time>
      </trkpt>
      <trkpt lat="43.5405" lon="1.11015">
        <ele>302.8</ele>
        <time>2025-12-19T09:09:51Z</time>
      </trkpt>
      <trkpt lat="43.54049" lon="1.11008">
        <ele>303</ele>
        <time>2025-12-19T09:09:52Z</time>
      </trkpt>
      <trkpt lat="43.54049" lon="1.11">
        <ele>303.2</ele>
        <time>2025-12-19T09:09:53Z</time>
      </trkpt>
      <trkpt lat="43.54048" lon="1.10992">
        <ele>303.4</ele>
        <time>2025-12-19T09:09:54Z</time>
      </trkpt>
      <trkpt lat="43.54047" lon="1.10984">
        <ele>303.6</ele>
        <time>2025-12-19T09:09:55Z</time>
      </trkpt>
      <trkpt lat="43.54047" lon="1.10976">
        <ele>303.8</ele>
        <time>2025-12-19T09:09:56Z</time>
      </trkpt>
      <trkpt lat="43.54046" lon="1.10969">
        <ele>304</ele>
        <time>2025-12-19T09:09:57Z</time>
      </trkpt>
      <trkpt lat="43.54045" lon="1.10961">
        <ele>304.2</ele>
        <time>2025-12-19T09:09:58Z</time>
      </trkpt>
      <trkpt lat="43.54044" lon="1.10953">
        <ele>304.4</ele>
        <time>2025-12-19T09:09:59Z</time>
      </trkpt>
      <trkpt lat="43.54042" lon="1.10946">
        <ele>304.6</ele>
        <time>2025-12-19T09:10:00Z</time>
      </trkpt>
      <trkpt lat="43.54041" lon="1.10939">
        <ele>304.8</ele>
        <time>2025-12-19T09:10:01Z</time>
      </trkpt>
      <trkpt lat="43.54039" lon="1.10932">
        <ele>304.8</ele>
        <time>2025-12-19T09:10:02Z</time>
      </trkpt>
      <trkpt lat="43.54038" lon="1.10924">
        <ele>305</ele>
        <time>2025-12-19T09:10:03Z</time>
      </trkpt>
      <trkpt lat="43.54035" lon="1.10917">
        <ele>305</ele>
        <time>2025-12-19T09:10:04Z</time>
      </trkpt>
      <trkpt lat="43.54033" lon="1.1091">
        <ele>305.2</ele>
        <time>2025-12-19T09:10:05Z</time>
      </trkpt>
      <trkpt lat="43.54029" lon="1.10903">
        <ele>305.4</ele>
        <time>2025-12-19T09:10:06Z</time>
      </trkpt>
      <trkpt lat="43.54026" lon="1.10897">
        <ele>305.4</ele>
        <time>2025-12-19T09:10:07Z</time>
      </trkpt>
      <trkpt lat="43.54022" lon="1.10891">
        <ele>305.6</ele>
        <time>2025-12-19T09:10:08Z</time>
      </trkpt>
      <trkpt lat="43.54019" lon="1.10885">
        <ele>305.8</ele>
        <time>2025-12-19T09:10:09Z</time>
      </trkpt>
      <trkpt lat="43.54016" lon="1.10879">
        <ele>306</ele>
        <time>2025-12-19T09:10:10Z</time>
      </trkpt>
      <trkpt lat="43.54012" lon="1.10873">
        <ele>306</ele>
        <time>2025-12-19T09:10:11Z</time>
      </trkpt>
      <trkpt lat="43.54008" lon="1.10867">
        <ele>306</ele>
        <time>2025-12-19T09:10:12Z</time>
      </trkpt>
      <trkpt lat="43.54004" lon="1.10862">
        <ele>306.2</ele>
        <time>2025-12-19T09:10:13Z</time>
      </trkpt>
      <trkpt lat="43.54" lon="1.10857">
        <ele>306.4</ele>
        <time>2025-12-19T09:10:14Z</time>
      </trkpt>
      <trkpt lat="43.53997" lon="1.10852">
        <ele>306.8</ele>
        <time>2025-12-19T09:10:15Z</time>
      </trkpt>
      <trkpt lat="43.53993" lon="1.10847">
        <ele>307</ele>
        <time>2025-12-19T09:10:16Z</time>
      </trkpt>
      <trkpt lat="43.53989" lon="1.10842">
        <ele>307.2</ele>
        <time>2025-12-19T09:10:17Z</time>
      </trkpt>
      <trkpt lat="43.53984" lon="1.10836">
        <ele>307.4</ele>
        <time>2025-12-19T09:10:18Z</time>
      </trkpt>
      <trkpt lat="43.5398" lon="1.10831">
        <ele>307.6</ele>
        <time>2025-12-19T09:10:19Z</time>
      </trkpt>
      <trkpt lat="43.53975" lon="1.10825">
        <ele>307.6</ele>
        <time>2025-12-19T09:10:20Z</time>
      </trkpt>
      <trkpt lat="43.53971" lon="1.1082">
        <ele>307.6</ele>
        <time>2025-12-19T09:10:21Z</time>
      </trkpt>
      <trkpt lat="43.53966" lon="1.10814">
        <ele>307.4</ele>
        <time>2025-12-19T09:10:22Z</time>
      </trkpt>
      <trkpt lat="43.53961" lon="1.10808">
        <ele>307.2</ele>
        <time>2025-12-19T09:10:23Z</time>
      </trkpt>
      <trkpt lat="43.53956" lon="1.10802">
        <ele>307</ele>
        <time>2025-12-19T09:10:24Z</time>
      </trkpt>
      <trkpt lat="43.53951" lon="1.10796">
        <ele>306.6</ele>
        <time>2025-12-19T09:10:25Z</time>
      </trkpt>
      <trkpt lat="43.53946" lon="1.1079">
        <ele>306.4</ele>
        <time>2025-12-19T09:10:26Z</time>
      </trkpt>
      <trkpt lat="43.53941" lon="1.10784">
        <ele>306.2</ele>
        <time>2025-12-19T09:10:27Z</time>
      </trkpt>
      <trkpt lat="43.53936" lon="1.10779">
        <ele>306</ele>
        <time>2025-12-19T09:10:28Z</time>
      </trkpt>
      <trkpt lat="43.53931" lon="1.10773">
        <ele>306</ele>
        <time>2025-12-19T09:10:29Z</time>
      </trkpt>
      <trkpt lat="43.53926" lon="1.10767">
        <ele>306</ele>
        <time>2025-12-19T09:10:30Z</time>
      </trkpt>
      <trkpt lat="43.53921" lon="1.10761">
        <ele>306</ele>
        <time>2025-12-19T09:10:31Z</time>
      </trkpt>
      <trkpt lat="43.53916" lon="1.10755">
        <ele>306</ele>
        <time>2025-12-19T09:10:32Z</time>
      </trkpt>
      <trkpt lat="43.53911" lon="1.10749">
        <ele>305.8</ele>
        <time>2025-12-19T09:10:33Z</time>
      </trkpt>
      <trkpt lat="43.53906" lon="1.10743">
        <ele>306</ele>
        <time>2025-12-19T09:10:34Z</time>
      </trkpt>
      <trkpt lat="43.53901" lon="1.10738">
        <ele>306</ele>
        <time>2025-12-19T09:10:35Z</time>
      </trkpt>
      <trkpt lat="43.53896" lon="1.10733">
        <ele>306.2</ele>
        <time>2025-12-19T09:10:36Z</time>
      </trkpt>
      <trkpt lat="43.53891" lon="1.10727">
        <ele>306.2</ele>
        <time>2025-12-19T09:10:37Z</time>
      </trkpt>
      <trkpt lat="43.53886" lon="1.10722">
        <ele>306.4</ele>
        <time>2025-12-19T09:10:38Z</time>
      </trkpt>
      <trkpt lat="43.53881" lon="1.10717">
        <ele>306.6</ele>
        <time>2025-12-19T09:10:39Z</time>
      </trkpt>
      <trkpt lat="43.53876" lon="1.10712">
        <ele>306.6</ele>
        <time>2025-12-19T09:10:40Z</time>
      </trkpt>
      <trkpt lat="43.53871" lon="1.10707">
        <ele>306.8</ele>
        <time>2025-12-19T09:10:41Z</time>
      </trkpt>
      <trkpt lat="43.53866" lon="1.10702">
        <ele>306.8</ele>
        <time>2025-12-19T09:10:42Z</time>
      </trkpt>
      <trkpt lat="43.53861" lon="1.10698">
        <ele>306.8</ele>
        <time>2025-12-19T09:10:43Z</time>
      </trkpt>
      <trkpt lat="43.53855" lon="1.10694">
        <ele>306.8</ele>
        <time>2025-12-19T09:10:44Z</time>
      </trkpt>
      <trkpt lat="43.5385" lon="1.10689">
        <ele>307</ele>
        <time>2025-12-19T09:10:45Z</time>
      </trkpt>
      <trkpt lat="43.53845" lon="1.10685">
        <ele>307</ele>
        <time>2025-12-19T09:10:46Z</time>
      </trkpt>
      <trkpt lat="43.5384" lon="1.10681">
        <ele>307</ele>
        <time>2025-12-19T09:10:47Z</time>
      </trkpt>
      <trkpt lat="43.53835" lon="1.10677">
        <ele>307.2</ele>
        <time>2025-12-19T09:10:48Z</time>
      </trkpt>
      <trkpt lat="43.5383" lon="1.10673">
        <ele>307.4</ele>
        <time>2025-12-19T09:10:49Z</time>
      </trkpt>
      <trkpt lat="43.53825" lon="1.1067">
        <ele>307.4</ele>
        <time>2025-12-19T09:10:50Z</time>
      </trkpt>
      <trkpt lat="43.5382" lon="1.10666">
        <ele>307.6</ele>
        <time>2025-12-19T09:10:51Z</time>
      </trkpt>
      <trkpt lat="43.53815" lon="1.10662">
        <ele>307.6</ele>
        <time>2025-12-19T09:10:52Z</time>
      </trkpt>
      <trkpt lat="43.5381" lon="1.10658">
        <ele>307.8</ele>
        <time>2025-12-19T09:10:53Z</time>
      </trkpt>
      <trkpt lat="43.53804" lon="1.10654">
        <ele>308</ele>
        <time>2025-12-19T09:10:54Z</time>
      </trkpt>
      <trkpt lat="43.53799" lon="1.10649">
        <ele>308.2</ele>
        <time>2025-12-19T09:10:55Z</time>
      </trkpt>
      <trkpt lat="43.53794" lon="1.10646">
        <ele>308.4</ele>
        <time>2025-12-19T09:10:56Z</time>
      </trkpt>
      <trkpt lat="43.53789" lon="1.10642">
        <ele>308.6</ele>
        <time>2025-12-19T09:10:57Z</time>
      </trkpt>
      <trkpt lat="43.53783" lon="1.10638">
        <ele>308.6</ele>
        <time>2025-12-19T09:10:58Z</time>
      </trkpt>
      <trkpt lat="43.53778" lon="1.10633">
        <ele>308.8</ele>
        <time>2025-12-19T09:10:59Z</time>
      </trkpt>
      <trkpt lat="43.53772" lon="1.10629">
        <ele>308.8</ele>
        <time>2025-12-19T09:11:00Z</time>
      </trkpt>
      <trkpt lat="43.53767" lon="1.10624">
        <ele>308.8</ele>
        <time>2025-12-19T09:11:01Z</time>
      </trkpt>
      <trkpt lat="43.53761" lon="1.1062">
        <ele>308.8</ele>
        <time>2025-12-19T09:11:02Z</time>
      </trkpt>
      <trkpt lat="43.53756" lon="1.10616">
        <ele>308.8</ele>
        <time>2025-12-19T09:11:03Z</time>
      </trkpt>
      <trkpt lat="43.5375" lon="1.10612">
        <ele>308.8</ele>
        <time>2025-12-19T09:11:04Z</time>
      </trkpt>
      <trkpt lat="43.53745" lon="1.10607">
        <ele>308.6</ele>
        <time>2025-12-19T09:11:05Z</time>
      </trkpt>
      <trkpt lat="43.53739" lon="1.10602">
        <ele>308.6</ele>
        <time>2025-12-19T09:11:06Z</time>
      </trkpt>
      <trkpt lat="43.53733" lon="1.10597">
        <ele>308.6</ele>
        <time>2025-12-19T09:11:07Z</time>
      </trkpt>
      <trkpt lat="43.53727" lon="1.10593">
        <ele>308.4</ele>
        <time>2025-12-19T09:11:08Z</time>
      </trkpt>
      <trkpt lat="43.5372" lon="1.10588">
        <ele>308.2</ele>
        <time>2025-12-19T09:11:09Z</time>
      </trkpt>
      <trkpt lat="43.53714" lon="1.10582">
        <ele>308.2</ele>
        <time>2025-12-19T09:11:10Z</time>
      </trkpt>
      <trkpt lat="43.53708" lon="1.10577">
        <ele>308</ele>
        <time>2025-12-19T09:11:11Z</time>
      </trkpt>
      <trkpt lat="43.53702" lon="1.10572">
        <ele>308</ele>
        <time>2025-12-19T09:11:12Z</time>
      </trkpt>
      <trkpt lat="43.53696" lon="1.10567">
        <ele>308</ele>
        <time>2025-12-19T09:11:13Z</time>
      </trkpt>
      <trkpt lat="43.5369" lon="1.10562">
        <ele>308</ele>
        <time>2025-12-19T09:11:14Z</time>
      </trkpt>
      <trkpt lat="43.53685" lon="1.10557">
        <ele>308</ele>
        <time>2025-12-19T09:11:15Z</time>
      </trkpt>
      <trkpt lat="43.53679" lon="1.10553">
        <ele>308</ele>
        <time>2025-12-19T09:11:16Z</time>
      </trkpt>
      <trkpt lat="43.53674" lon="1.10548">
        <ele>308.2</ele>
        <time>2025-12-19T09:11:17Z</time>
      </trkpt>
      <trkpt lat="43.53668" lon="1.10543">
        <ele>308.2</ele>
        <time>2025-12-19T09:11:18Z</time>
      </trkpt>
      <trkpt lat="43.53663" lon="1.10538">
        <ele>308.4</ele>
        <time>2025-12-19T09:11:19Z</time>
      </trkpt>
      <trkpt lat="43.53657" lon="1.10533">
        <ele>308.4</ele>
        <time>2025-12-19T09:11:20Z</time>
      </trkpt>
      <trkpt lat="43.53651" lon="1.10528">
        <ele>308.4</ele>
        <time>2025-12-19T09:11:21Z</time>
      </trkpt>
      <trkpt lat="43.53645" lon="1.10524">
        <ele>308.2</ele>
        <time>2025-12-19T09:11:22Z</time>
      </trkpt>
      <trkpt lat="43.5364" lon="1.10519">
        <ele>308.2</ele>
        <time>2025-12-19T09:11:23Z</time>
      </trkpt>
      <trkpt lat="43.53634" lon="1.10514">
        <ele>308.2</ele>
        <time>2025-12-19T09:11:24Z</time>
      </trkpt>
      <trkpt lat="43.53628" lon="1.10509">
        <ele>308.2</ele>
        <time>2025-12-19T09:11:25Z</time>
      </trkpt>
      <trkpt lat="43.53622" lon="1.10504">
        <ele>308.2</ele>
        <time>2025-12-19T09:11:26Z</time>
      </trkpt>
      <trkpt lat="43.53616" lon="1.10499">
        <ele>308.2</ele>
        <time>2025-12-19T09:11:27Z</time>
      </trkpt>
      <trkpt lat="43.5361" lon="1.10494">
        <ele>308.2</ele>
        <time>2025-12-19T09:11:28Z</time>
      </trkpt>
      <trkpt lat="43.53604" lon="1.10489">
        <ele>308.2</ele>
        <time>2025-12-19T09:11:29Z</time>
      </trkpt>
      <trkpt lat="43.53598" lon="1.10484">
        <ele>308.2</ele>
        <time>2025-12-19T09:11:30Z</time>
      </trkpt>
      <trkpt lat="43.53592" lon="1.10479">
        <ele>308</ele>
        <time>2025-12-19T09:11:31Z</time>
      </trkpt>
      <trkpt lat="43.53586" lon="1.10474">
        <ele>307.6</ele>
        <time>2025-12-19T09:11:32Z</time>
      </trkpt>
      <trkpt lat="43.53581" lon="1.10469">
        <ele>307.4</ele>
        <time>2025-12-19T09:11:33Z</time>
      </trkpt>
      <trkpt lat="43.53575" lon="1.10464">
        <ele>307.2</ele>
        <time>2025-12-19T09:11:34Z</time>
      </trkpt>
      <trkpt lat="43.53569" lon="1.10459">
        <ele>307.2</ele>
        <time>2025-12-19T09:11:35Z</time>
      </trkpt>
      <trkpt lat="43.53563" lon="1.10453">
        <ele>307.2</ele>
        <time>2025-12-19T09:11:36Z</time>
      </trkpt>
      <trkpt lat="43.53557" lon="1.10448">
        <ele>307.2</ele>
        <time>2025-12-19T09:11:37Z</time>
      </trkpt>
      <trkpt lat="43.53552" lon="1.10442">
        <ele>307.2</ele>
        <time>2025-12-19T09:11:38Z</time>
      </trkpt>
      <trkpt lat="43.53546" lon="1.10436">
        <ele>307.4</ele>
        <time>2025-12-19T09:11:39Z</time>
      </trkpt>
      <trkpt lat="43.53541" lon="1.1043">
        <ele>307.4</ele>
        <time>2025-12-19T09:11:40Z</time>
      </trkpt>
      <trkpt lat="43.53536" lon="1.10424">
        <ele>307.4</ele>
        <time>2025-12-19T09:11:41Z</time>
      </trkpt>
      <trkpt lat="43.53531" lon="1.10418">
        <ele>307.4</ele>
        <time>2025-12-19T09:11:42Z</time>
      </trkpt>
      <trkpt lat="43.53528" lon="1.10411">
        <ele>307.4</ele>
        <time>2025-12-19T09:11:43Z</time>
      </trkpt>
      <trkpt lat="43.53524" lon="1.10404">
        <ele>307.4</ele>
        <time>2025-12-19T09:11:44Z</time>
      </trkpt>
      <trkpt lat="43.5352" lon="1.10397">
        <ele>307.4</ele>
        <time>2025-12-19T09:11:45Z</time>
      </trkpt>
      <trkpt lat="43.53516" lon="1.1039">
        <ele>307.6</ele>
        <time>2025-12-19T09:11:46Z</time>
      </trkpt>
      <trkpt lat="43.53512" lon="1.10383">
        <ele>307.8</ele>
        <time>2025-12-19T09:11:47Z</time>
      </trkpt>
      <trkpt lat="43.53509" lon="1.10376">
        <ele>308</ele>
        <time>2025-12-19T09:11:48Z</time>
      </trkpt>
      <trkpt lat="43.53506" lon="1.10369">
        <ele>308.2</ele>
        <time>2025-12-19T09:11:49Z</time>
      </trkpt>
      <trkpt lat="43.53502" lon="1.10362">
        <ele>308.4</ele>
        <time>2025-12-19T09:11:50Z</time>
      </trkpt>
      <trkpt lat="43.53499" lon="1.10355">
        <ele>308.4</ele>
        <time>2025-12-19T09:11:51Z</time>
      </trkpt>
      <trkpt lat="43.53495" lon="1.10348">
        <ele>308.6</ele>
        <time>2025-12-19T09:11:52Z</time>
      </trkpt>
      <trkpt lat="43.53492" lon="1.10341">
        <ele>308.8</ele>
        <time>2025-12-19T09:11:53Z</time>
      </trkpt>
      <trkpt lat="43.53488" lon="1.10334">
        <ele>308.8</ele>
        <time>2025-12-19T09:11:54Z</time>
      </trkpt>
      <trkpt lat="43.53485" lon="1.10327">
        <ele>308.8</ele>
        <time>2025-12-19T09:11:55Z</time>
      </trkpt>
      <trkpt lat="43.53482" lon="1.1032">
        <ele>308.8</ele>
        <time>2025-12-19T09:11:56Z</time>
      </trkpt>
      <trkpt lat="43.53478" lon="1.10312">
        <ele>308.8</ele>
        <time>2025-12-19T09:11:57Z</time>
      </trkpt>
      <trkpt lat="43.53475" lon="1.10304">
        <ele>309</ele>
        <time>2025-12-19T09:11:58Z</time>
      </trkpt>
      <trkpt lat="43.53472" lon="1.10297">
        <ele>309</ele>
        <time>2025-12-19T09:11:59Z</time>
      </trkpt>
      <trkpt lat="43.53469" lon="1.10289">
        <ele>309</ele>
        <time>2025-12-19T09:12:00Z</time>
      </trkpt>
      <trkpt lat="43.53466" lon="1.10281">
        <ele>309</ele>
        <time>2025-12-19T09:12:01Z</time>
      </trkpt>
      <trkpt lat="43.53463" lon="1.10272">
        <ele>308.8</ele>
        <time>2025-12-19T09:12:02Z</time>
      </trkpt>
      <trkpt lat="43.5346" lon="1.10263">
        <ele>308.6</ele>
        <time>2025-12-19T09:12:03Z</time>
      </trkpt>
      <trkpt lat="43.53457" lon="1.10255">
        <ele>308.6</ele>
        <time>2025-12-19T09:12:04Z</time>
      </trkpt>
      <trkpt lat="43.53455" lon="1.10247">
        <ele>308.6</ele>
        <time>2025-12-19T09:12:05Z</time>
      </trkpt>
      <trkpt lat="43.53453" lon="1.10239">
        <ele>308.8</ele>
        <time>2025-12-19T09:12:06Z</time>
      </trkpt>
      <trkpt lat="43.53451" lon="1.10231">
        <ele>309</ele>
        <time>2025-12-19T09:12:07Z</time>
      </trkpt>
      <trkpt lat="43.53449" lon="1.10223">
        <ele>309.2</ele>
        <time>2025-12-19T09:12:08Z</time>
      </trkpt>
      <trkpt lat="43.53448" lon="1.10215">
        <ele>309.6</ele>
        <time>2025-12-19T09:12:09Z</time>
      </trkpt>
      <trkpt lat="43.53446" lon="1.10206">
        <ele>309.8</ele>
        <time>2025-12-19T09:12:10Z</time>
      </trkpt>
      <trkpt lat="43.53445" lon="1.10199">
        <ele>309.8</ele>
        <time>2025-12-19T09:12:11Z</time>
      </trkpt>
      <trkpt lat="43.53443" lon="1.10192">
        <ele>310</ele>
        <time>2025-12-19T09:12:12Z</time>
      </trkpt>
      <trkpt lat="43.53441" lon="1.10184">
        <ele>310.2</ele>
        <time>2025-12-19T09:12:13Z</time>
      </trkpt>
      <trkpt lat="43.53439" lon="1.10176">
        <ele>310.2</ele>
        <time>2025-12-19T09:12:14Z</time>
      </trkpt>
      <trkpt lat="43.53437" lon="1.10169">
        <ele>310.4</ele>
        <time>2025-12-19T09:12:15Z</time>
      </trkpt>
      <trkpt lat="43.53435" lon="1.10161">
        <ele>310.4</ele>
        <time>2025-12-19T09:12:16Z</time>
      </trkpt>
      <trkpt lat="43.53432" lon="1.10153">
        <ele>310.4</ele>
        <time>2025-12-19T09:12:17Z</time>
      </trkpt>
      <trkpt lat="43.5343" lon="1.10145">
        <ele>310.4</ele>
        <time>2025-12-19T09:12:18Z</time>
      </trkpt>
      <trkpt lat="43.53428" lon="1.10136">
        <ele>310.6</ele>
        <time>2025-12-19T09:12:19Z</time>
      </trkpt>
      <trkpt lat="43.53426" lon="1.10127">
        <ele>310.4</ele>
        <time>2025-12-19T09:12:20Z</time>
      </trkpt>
      <trkpt lat="43.53424" lon="1.10119">
        <ele>310.4</ele>
        <time>2025-12-19T09:12:21Z</time>
      </trkpt>
      <trkpt lat="43.53422" lon="1.10111">
        <ele>310.4</ele>
        <time>2025-12-19T09:12:22Z</time>
      </trkpt>
      <trkpt lat="43.53419" lon="1.10102">
        <ele>310.2</ele>
        <time>2025-12-19T09:12:23Z</time>
      </trkpt>
      <trkpt lat="43.53417" lon="1.10093">
        <ele>310</ele>
        <time>2025-12-19T09:12:24Z</time>
      </trkpt>
      <trkpt lat="43.53415" lon="1.10084">
        <ele>310</ele>
        <time>2025-12-19T09:12:25Z</time>
      </trkpt>
      <trkpt lat="43.53412" lon="1.10074">
        <ele>309.8</ele>
        <time>2025-12-19T09:12:26Z</time>
      </trkpt>
      <trkpt lat="43.5341" lon="1.10065">
        <ele>309.8</ele>
        <time>2025-12-19T09:12:27Z</time>
      </trkpt>
      <trkpt lat="43.53408" lon="1.10056">
        <ele>309.6</ele>
        <time>2025-12-19T09:12:28Z</time>
      </trkpt>
      <trkpt lat="43.53405" lon="1.10046">
        <ele>309.6</ele>
        <time>2025-12-19T09:12:29Z</time>
      </trkpt>
      <trkpt lat="43.53402" lon="1.10037">
        <ele>309.4</ele>
        <time>2025-12-19T09:12:30Z</time>
      </trkpt>
      <trkpt lat="43.534" lon="1.10028">
        <ele>309.4</ele>
        <time>2025-12-19T09:12:31Z</time>
      </trkpt>
      <trkpt lat="43.53397" lon="1.10019">
        <ele>309.4</ele>
        <time>2025-12-19T09:12:32Z</time>
      </trkpt>
      <trkpt lat="43.53394" lon="1.1001">
        <ele>309.4</ele>
        <time>2025-12-19T09:12:33Z</time>
      </trkpt>
      <trkpt lat="43.53392" lon="1.10001">
        <ele>309.4</ele>
        <time>2025-12-19T09:12:34Z</time>
      </trkpt>
      <trkpt lat="43.53389" lon="1.09992">
        <ele>309.4</ele>
        <time>2025-12-19T09:12:35Z</time>
      </trkpt>
      <trkpt lat="43.53386" lon="1.09983">
        <ele>309.4</ele>
        <time>2025-12-19T09:12:36Z</time>
      </trkpt>
      <trkpt lat="43.53384" lon="1.09974">
        <ele>309.4</ele>
        <time>2025-12-19T09:12:37Z</time>
      </trkpt>
      <trkpt lat="43.53381" lon="1.09965">
        <ele>309.2</ele>
        <time>2025-12-19T09:12:38Z</time>
      </trkpt>
      <trkpt lat="43.53379" lon="1.09955">
        <ele>309.2</ele>
        <time>2025-12-19T09:12:39Z</time>
      </trkpt>
      <trkpt lat="43.53376" lon="1.09946">
        <ele>309.4</ele>
        <time>2025-12-19T09:12:40Z</time>
      </trkpt>
      <trkpt lat="43.53374" lon="1.09937">
        <ele>309.4</ele>
        <time>2025-12-19T09:12:41Z</time>
      </trkpt>
      <trkpt lat="43.53372" lon="1.09928">
        <ele>309.4</ele>
        <time>2025-12-19T09:12:42Z</time>
      </trkpt>
      <trkpt lat="43.53371" lon="1.09919">
        <ele>309.6</ele>
        <time>2025-12-19T09:12:43Z</time>
      </trkpt>
      <trkpt lat="43.53369" lon="1.0991">
        <ele>309.6</ele>
        <time>2025-12-19T09:12:44Z</time>
      </trkpt>
      <trkpt lat="43.53367" lon="1.09901">
        <ele>309.8</ele>
        <time>2025-12-19T09:12:45Z</time>
      </trkpt>
      <trkpt lat="43.53365" lon="1.09891">
        <ele>309.8</ele>
        <time>2025-12-19T09:12:46Z</time>
      </trkpt>
      <trkpt lat="43.53363" lon="1.09881">
        <ele>310</ele>
        <time>2025-12-19T09:12:47Z</time>
      </trkpt>
      <trkpt lat="43.53361" lon="1.09871">
        <ele>310</ele>
        <time>2025-12-19T09:12:48Z</time>
      </trkpt>
      <trkpt lat="43.53359" lon="1.09861">
        <ele>310</ele>
        <time>2025-12-19T09:12:49Z</time>
      </trkpt>
      <trkpt lat="43.53357" lon="1.09852">
        <ele>310</ele>
        <time>2025-12-19T09:12:50Z</time>
      </trkpt>
      <trkpt lat="43.53355" lon="1.09842">
        <ele>310</ele>
        <time>2025-12-19T09:12:51Z</time>
      </trkpt>
      <trkpt lat="43.53353" lon="1.09833">
        <ele>310</ele>
        <time>2025-12-19T09:12:52Z</time>
      </trkpt>
      <trkpt lat="43.53351" lon="1.09823">
        <ele>310</ele>
        <time>2025-12-19T09:12:53Z</time>
      </trkpt>
      <trkpt lat="43.5335" lon="1.09813">
        <ele>310</ele>
        <time>2025-12-19T09:12:54Z</time>
      </trkpt>
      <trkpt lat="43.53348" lon="1.09804">
        <ele>310</ele>
        <time>2025-12-19T09:12:55Z</time>
      </trkpt>
      <trkpt lat="43.53346" lon="1.09794">
        <ele>309.8</ele>
        <time>2025-12-19T09:12:56Z</time>
      </trkpt>
      <trkpt lat="43.53344" lon="1.09784">
        <ele>310</ele>
        <time>2025-12-19T09:12:57Z</time>
      </trkpt>
      <trkpt lat="43.53343" lon="1.09775">
        <ele>310</ele>
        <time>2025-12-19T09:12:58Z</time>
      </trkpt>
      <trkpt lat="43.53341" lon="1.09765">
        <ele>309.8</ele>
        <time>2025-12-19T09:12:59Z</time>
      </trkpt>
      <trkpt lat="43.53339" lon="1.09755">
        <ele>309.8</ele>
        <time>2025-12-19T09:13:00Z</time>
      </trkpt>
      <trkpt lat="43.53337" lon="1.09745">
        <ele>309.8</ele>
        <time>2025-12-19T09:13:01Z</time>
      </trkpt>
      <trkpt lat="43.53335" lon="1.09735">
        <ele>309.6</ele>
        <time>2025-12-19T09:13:02Z</time>
      </trkpt>
      <trkpt lat="43.53333" lon="1.09725">
        <ele>309.6</ele>
        <time>2025-12-19T09:13:03Z</time>
      </trkpt>
      <trkpt lat="43.53331" lon="1.09715">
        <ele>309.4</ele>
        <time>2025-12-19T09:13:04Z</time>
      </trkpt>
      <trkpt lat="43.53328" lon="1.09706">
        <ele>309.4</ele>
        <time>2025-12-19T09:13:05Z</time>
      </trkpt>
      <trkpt lat="43.53326" lon="1.09696">
        <ele>309.4</ele>
        <time>2025-12-19T09:13:06Z</time>
      </trkpt>
      <trkpt lat="43.53323" lon="1.09687">
        <ele>309.4</ele>
        <time>2025-12-19T09:13:07Z</time>
      </trkpt>
      <trkpt lat="43.5332" lon="1.09678">
        <ele>309.4</ele>
        <time>2025-12-19T09:13:08Z</time>
      </trkpt>
      <trkpt lat="43.53317" lon="1.09669">
        <ele>309.4</ele>
        <time>2025-12-19T09:13:09Z</time>
      </trkpt>
      <trkpt lat="43.53313" lon="1.0966">
        <ele>309.4</ele>
        <time>2025-12-19T09:13:10Z</time>
      </trkpt>
      <trkpt lat="43.5331" lon="1.09651">
        <ele>309.6</ele>
        <time>2025-12-19T09:13:11Z</time>
      </trkpt>
      <trkpt lat="43.53307" lon="1.09642">
        <ele>309.8</ele>
        <time>2025-12-19T09:13:12Z</time>
      </trkpt>
      <trkpt lat="43.53304" lon="1.09634">
        <ele>309.8</ele>
        <time>2025-12-19T09:13:13Z</time>
      </trkpt>
      <trkpt lat="43.533" lon="1.09625">
        <ele>310</ele>
        <time>2025-12-19T09:13:14Z</time>
      </trkpt>
      <trkpt lat="43.53297" lon="1.09616">
        <ele>310</ele>
        <time>2025-12-19T09:13:15Z</time>
      </trkpt>
      <trkpt lat="43.53294" lon="1.09608">
        <ele>310</ele>
        <time>2025-12-19T09:13:16Z</time>
      </trkpt>
      <trkpt lat="43.53291" lon="1.096">
        <ele>310.2</ele>
        <time>2025-12-19T09:13:17Z</time>
      </trkpt>
      <trkpt lat="43.53288" lon="1.09592">
        <ele>310.2</ele>
        <time>2025-12-19T09:13:18Z</time>
      </trkpt>
      <trkpt lat="43.53284" lon="1.09584">
        <ele>310.4</ele>
        <time>2025-12-19T09:13:19Z</time>
      </trkpt>
      <trkpt lat="43.53281" lon="1.09575">
        <ele>310.6</ele>
        <time>2025-12-19T09:13:20Z</time>
      </trkpt>
      <trkpt lat="43.53278" lon="1.09566">
        <ele>310.8</ele>
        <time>2025-12-19T09:13:21Z</time>
      </trkpt>
      <trkpt lat="43.53275" lon="1.09557">
        <ele>310.8</ele>
        <time>2025-12-19T09:13:22Z</time>
      </trkpt>
      <trkpt lat="43.53272" lon="1.09548">
        <ele>310.8</ele>
        <time>2025-12-19T09:13:23Z</time>
      </trkpt>
      <trkpt lat="43.53269" lon="1.09539">
        <ele>310.8</ele>
        <time>2025-12-19T09:13:24Z</time>
      </trkpt>
      <trkpt lat="43.53266" lon="1.0953">
        <ele>310.6</ele>
        <time>2025-12-19T09:13:25Z</time>
      </trkpt>
      <trkpt lat="43.53263" lon="1.0952">
        <ele>310.6</ele>
        <time>2025-12-19T09:13:26Z</time>
      </trkpt>
      <trkpt lat="43.5326" lon="1.09511">
        <ele>310.4</ele>
        <time>2025-12-19T09:13:27Z</time>
      </trkpt>
      <trkpt lat="43.53257" lon="1.09501">
        <ele>310.4</ele>
        <time>2025-12-19T09:13:28Z</time>
      </trkpt>
      <trkpt lat="43.53254" lon="1.09492">
        <ele>310.4</ele>
        <time>2025-12-19T09:13:29Z</time>
      </trkpt>
      <trkpt lat="43.53252" lon="1.09483">
        <ele>310.2</ele>
        <time>2025-12-19T09:13:30Z</time>
      </trkpt>
      <trkpt lat="43.5325" lon="1.09474">
        <ele>310.4</ele>
        <time>2025-12-19T09:13:31Z</time>
      </trkpt>
      <trkpt lat="43.53247" lon="1.09465">
        <ele>310.4</ele>
        <time>2025-12-19T09:13:32Z</time>
      </trkpt>
      <trkpt lat="43.53244" lon="1.09455">
        <ele>310.2</ele>
        <time>2025-12-19T09:13:33Z</time>
      </trkpt>
      <trkpt lat="43.53242" lon="1.09446">
        <ele>310.2</ele>
        <time>2025-12-19T09:13:34Z</time>
      </trkpt>
      <trkpt lat="43.5324" lon="1.09437">
        <ele>310.2</ele>
        <time>2025-12-19T09:13:35Z</time>
      </trkpt>
      <trkpt lat="43.53237" lon="1.09427">
        <ele>310.2</ele>
        <time>2025-12-19T09:13:36Z</time>
      </trkpt>
      <trkpt lat="43.53235" lon="1.09418">
        <ele>310.2</ele>
        <time>2025-12-19T09:13:37Z</time>
      </trkpt>
      <trkpt lat="43.53232" lon="1.09409">
        <ele>310.2</ele>
        <time>2025-12-19T09:13:38Z</time>
      </trkpt>
      <trkpt lat="43.5323" lon="1.094">
        <ele>310.2</ele>
        <time>2025-12-19T09:13:39Z</time>
      </trkpt>
      <trkpt lat="43.53228" lon="1.09391">
        <ele>310.4</ele>
        <time>2025-12-19T09:13:40Z</time>
      </trkpt>
      <trkpt lat="43.53226" lon="1.09382">
        <ele>310.4</ele>
        <time>2025-12-19T09:13:41Z</time>
      </trkpt>
      <trkpt lat="43.53223" lon="1.09373">
        <ele>310.6</ele>
        <time>2025-12-19T09:13:42Z</time>
      </trkpt>
      <trkpt lat="43.53221" lon="1.09364">
        <ele>310.8</ele>
        <time>2025-12-19T09:13:43Z</time>
      </trkpt>
      <trkpt lat="43.53218" lon="1.09355">
        <ele>311</ele>
        <time>2025-12-19T09:13:44Z</time>
      </trkpt>
      <trkpt lat="43.53216" lon="1.09347">
        <ele>311.2</ele>
        <time>2025-12-19T09:13:45Z</time>
      </trkpt>
      <trkpt lat="43.53214" lon="1.09339">
        <ele>311.4</ele>
        <time>2025-12-19T09:13:46Z</time>
      </trkpt>
      <trkpt lat="43.53211" lon="1.0933">
        <ele>311.6</ele>
        <time>2025-12-19T09:13:47Z</time>
      </trkpt>
      <trkpt lat="43.53209" lon="1.09322">
        <ele>311.6</ele>
        <time>2025-12-19T09:13:48Z</time>
      </trkpt>
      <trkpt lat="43.53206" lon="1.09314">
        <ele>311.6</ele>
        <time>2025-12-19T09:13:49Z</time>
      </trkpt>
      <trkpt lat="43.53203" lon="1.09305">
        <ele>311.8</ele>
        <time>2025-12-19T09:13:50Z</time>
      </trkpt>
      <trkpt lat="43.53201" lon="1.09297">
        <ele>311.8</ele>
        <time>2025-12-19T09:13:51Z</time>
      </trkpt>
      <trkpt lat="43.53198" lon="1.09289">
        <ele>311.8</ele>
        <time>2025-12-19T09:13:52Z</time>
      </trkpt>
      <trkpt lat="43.53196" lon="1.09281">
        <ele>311.8</ele>
        <time>2025-12-19T09:13:53Z</time>
      </trkpt>
      <trkpt lat="43.53193" lon="1.09272">
        <ele>311.8</ele>
        <time>2025-12-19T09:13:54Z</time>
      </trkpt>
      <trkpt lat="43.5319" lon="1.09264">
        <ele>311.6</ele>
        <time>2025-12-19T09:13:55Z</time>
      </trkpt>
      <trkpt lat="43.53187" lon="1.09255">
        <ele>311.8</ele>
        <time>2025-12-19T09:13:56Z</time>
      </trkpt>
      <trkpt lat="43.53184" lon="1.09246">
        <ele>311.8</ele>
        <time>2025-12-19T09:13:57Z</time>
      </trkpt>
      <trkpt lat="43.53182" lon="1.09237">
        <ele>311.8</ele>
        <time>2025-12-19T09:13:58Z</time>
      </trkpt>
      <trkpt lat="43.53179" lon="1.09228">
        <ele>311.6</ele>
        <time>2025-12-19T09:13:59Z</time>
      </trkpt>
      <trkpt lat="43.53176" lon="1.09219">
        <ele>311.6</ele>
        <time>2025-12-19T09:14:00Z</time>
      </trkpt>
      <trkpt lat="43.53174" lon="1.0921">
        <ele>311.4</ele>
        <time>2025-12-19T09:14:01Z</time>
      </trkpt>
      <trkpt lat="43.53172" lon="1.092">
        <ele>311.2</ele>
        <time>2025-12-19T09:14:02Z</time>
      </trkpt>
      <trkpt lat="43.5317" lon="1.09191">
        <ele>311</ele>
        <time>2025-12-19T09:14:03Z</time>
      </trkpt>
      <trkpt lat="43.53168" lon="1.09181">
        <ele>310.8</ele>
        <time>2025-12-19T09:14:04Z</time>
      </trkpt>
      <trkpt lat="43.53166" lon="1.09171">
        <ele>310.6</ele>
        <time>2025-12-19T09:14:05Z</time>
      </trkpt>
      <trkpt lat="43.53165" lon="1.0916">
        <ele>310.4</ele>
        <time>2025-12-19T09:14:06Z</time>
      </trkpt>
      <trkpt lat="43.53163" lon="1.09149">
        <ele>310.2</ele>
        <time>2025-12-19T09:14:07Z</time>
      </trkpt>
      <trkpt lat="43.53162" lon="1.09139">
        <ele>309.8</ele>
        <time>2025-12-19T09:14:08Z</time>
      </trkpt>
      <trkpt lat="43.5316" lon="1.09128">
        <ele>309.6</ele>
        <time>2025-12-19T09:14:09Z</time>
      </trkpt>
      <trkpt lat="43.53159" lon="1.09118">
        <ele>309.4</ele>
        <time>2025-12-19T09:14:10Z</time>
      </trkpt>
      <trkpt lat="43.53158" lon="1.09108">
        <ele>309.4</ele>
        <time>2025-12-19T09:14:11Z</time>
      </trkpt>
      <trkpt lat="43.53156" lon="1.09099">
        <ele>309.4</ele>
        <time>2025-12-19T09:14:12Z</time>
      </trkpt>
      <trkpt lat="43.53155" lon="1.09089">
        <ele>309.4</ele>
        <time>2025-12-19T09:14:13Z</time>
      </trkpt>
      <trkpt lat="43.53153" lon="1.09079">
        <ele>309.4</ele>
        <time>2025-12-19T09:14:14Z</time>
      </trkpt>
      <trkpt lat="43.53152" lon="1.0907">
        <ele>309.4</ele>
        <time>2025-12-19T09:14:15Z</time>
      </trkpt>
      <trkpt lat="43.5315" lon="1.0906">
        <ele>309.4</ele>
        <time>2025-12-19T09:14:16Z</time>
      </trkpt>
      <trkpt lat="43.53148" lon="1.09052">
        <ele>309.4</ele>
        <time>2025-12-19T09:14:17Z</time>
      </trkpt>
      <trkpt lat="43.53146" lon="1.09043">
        <ele>309.6</ele>
        <time>2025-12-19T09:14:18Z</time>
      </trkpt>
      <trkpt lat="43.53145" lon="1.09034">
        <ele>309.6</ele>
        <time>2025-12-19T09:14:19Z</time>
      </trkpt>
      <trkpt lat="43.53144" lon="1.09025">
        <ele>309.8</ele>
        <time>2025-12-19T09:14:20Z</time>
      </trkpt>
      <trkpt lat="43.53143" lon="1.09015">
        <ele>309.8</ele>
        <time>2025-12-19T09:14:21Z</time>
      </trkpt>
      <trkpt lat="43.53141" lon="1.09006">
        <ele>310</ele>
        <time>2025-12-19T09:14:22Z</time>
      </trkpt>
      <trkpt lat="43.5314" lon="1.08997">
        <ele>310</ele>
        <time>2025-12-19T09:14:23Z</time>
      </trkpt>
      <trkpt lat="43.53139" lon="1.08988">
        <ele>310</ele>
        <time>2025-12-19T09:14:24Z</time>
      </trkpt>
      <trkpt lat="43.53137" lon="1.08978">
        <ele>310</ele>
        <time>2025-12-19T09:14:25Z</time>
      </trkpt>
      <trkpt lat="43.53136" lon="1.08968">
        <ele>310</ele>
        <time>2025-12-19T09:14:26Z</time>
      </trkpt>
      <trkpt lat="43.53135" lon="1.08959">
        <ele>310</ele>
        <time>2025-12-19T09:14:27Z</time>
      </trkpt>
      <trkpt lat="43.53133" lon="1.08949">
        <ele>310</ele>
        <time>2025-12-19T09:14:28Z</time>
      </trkpt>
      <trkpt lat="43.53131" lon="1.0894">
        <ele>310.2</ele>
        <time>2025-12-19T09:14:29Z</time>
      </trkpt>
      <trkpt lat="43.53129" lon="1.08932">
        <ele>310.2</ele>
        <time>2025-12-19T09:14:30Z</time>
      </trkpt>
      <trkpt lat="43.53127" lon="1.08924">
        <ele>310.4</ele>
        <time>2025-12-19T09:14:31Z</time>
      </trkpt>
      <trkpt lat="43.53124" lon="1.08916">
        <ele>310.6</ele>
        <time>2025-12-19T09:14:32Z</time>
      </trkpt>
      <trkpt lat="43.53122" lon="1.08909">
        <ele>310.8</ele>
        <time>2025-12-19T09:14:33Z</time>
      </trkpt>
      <trkpt lat="43.53119" lon="1.08902">
        <ele>311</ele>
        <time>2025-12-19T09:14:34Z</time>
      </trkpt>
      <trkpt lat="43.53116" lon="1.08894">
        <ele>311.2</ele>
        <time>2025-12-19T09:14:35Z</time>
      </trkpt>
      <trkpt lat="43.53113" lon="1.08888">
        <ele>311.2</ele>
        <time>2025-12-19T09:14:36Z</time>
      </trkpt>
      <trkpt lat="43.5311" lon="1.08881">
        <ele>311.2</ele>
        <time>2025-12-19T09:14:37Z</time>
      </trkpt>
      <trkpt lat="43.53107" lon="1.08875">
        <ele>311.2</ele>
        <time>2025-12-19T09:14:38Z</time>
      </trkpt>
      <trkpt lat="43.53103" lon="1.08868">
        <ele>311</ele>
        <time>2025-12-19T09:14:39Z</time>
      </trkpt>
      <trkpt lat="43.531" lon="1.08862">
        <ele>311</ele>
        <time>2025-12-19T09:14:40Z</time>
      </trkpt>
      <trkpt lat="43.53096" lon="1.08856">
        <ele>311</ele>
        <time>2025-12-19T09:14:41Z</time>
      </trkpt>
      <trkpt lat="43.53092" lon="1.08849">
        <ele>311</ele>
        <time>2025-12-19T09:14:42Z</time>
      </trkpt>
      <trkpt lat="43.53087" lon="1.08843">
        <ele>310.8</ele>
        <time>2025-12-19T09:14:43Z</time>
      </trkpt>
      <trkpt lat="43.53083" lon="1.08837">
        <ele>310.6</ele>
        <time>2025-12-19T09:14:44Z</time>
      </trkpt>
      <trkpt lat="43.53079" lon="1.0883">
        <ele>310.4</ele>
        <time>2025-12-19T09:14:45Z</time>
      </trkpt>
      <trkpt lat="43.53074" lon="1.08823">
        <ele>310.2</ele>
        <time>2025-12-19T09:14:46Z</time>
      </trkpt>
      <trkpt lat="43.5307" lon="1.08816">
        <ele>310</ele>
        <time>2025-12-19T09:14:47Z</time>
      </trkpt>
      <trkpt lat="43.53066" lon="1.0881">
        <ele>309.8</ele>
        <time>2025-12-19T09:14:48Z</time>
      </trkpt>
      <trkpt lat="43.53061" lon="1.08804">
        <ele>309.4</ele>
        <time>2025-12-19T09:14:49Z</time>
      </trkpt>
      <trkpt lat="43.53057" lon="1.08801">
        <ele>309.4</ele>
        <time>2025-12-19T09:14:50Z</time>
      </trkpt>
      <trkpt lat="43.53055" lon="1.08797">
        <ele>309.2</ele>
        <time>2025-12-19T09:14:51Z</time>
      </trkpt>
      <trkpt lat="43.53054" lon="1.08792">
        <ele>309.2</ele>
        <time>2025-12-19T09:14:52Z</time>
      </trkpt>
      <trkpt lat="43.53057" lon="1.08789">
        <ele>309</ele>
        <time>2025-12-19T09:14:53Z</time>
      </trkpt>
      <trkpt lat="43.53061" lon="1.08787">
        <ele>309</ele>
        <time>2025-12-19T09:14:54Z</time>
      </trkpt>
      <trkpt lat="43.53064" lon="1.08786">
        <ele>308.8</ele>
        <time>2025-12-19T09:14:55Z</time>
      </trkpt>
      <trkpt lat="43.53068" lon="1.08786">
        <ele>308.8</ele>
        <time>2025-12-19T09:14:56Z</time>
      </trkpt>
      <trkpt lat="43.53072" lon="1.08786">
        <ele>308.6</ele>
        <time>2025-12-19T09:14:57Z</time>
      </trkpt>
      <trkpt lat="43.53077" lon="1.08785">
        <ele>308.4</ele>
        <time>2025-12-19T09:14:58Z</time>
      </trkpt>
      <trkpt lat="43.53082" lon="1.08785">
        <ele>308.2</ele>
        <time>2025-12-19T09:14:59Z</time>
      </trkpt>
      <trkpt lat="43.53087" lon="1.08785">
        <ele>307.8</ele>
        <time>2025-12-19T09:15:00Z</time>
      </trkpt>
      <trkpt lat="43.53092" lon="1.08784">
        <ele>307.6</ele>
        <time>2025-12-19T09:15:01Z</time>
      </trkpt>
      <trkpt lat="43.53099" lon="1.08782">
        <ele>307.4</ele>
        <time>2025-12-19T09:15:02Z</time>
      </trkpt>
      <trkpt lat="43.53106" lon="1.0878">
        <ele>307</ele>
        <time>2025-12-19T09:15:03Z</time>
      </trkpt>
      <trkpt lat="43.53113" lon="1.08778">
        <ele>306.6</ele>
        <time>2025-12-19T09:15:04Z</time>
      </trkpt>
      <trkpt lat="43.5312" lon="1.08776">
        <ele>306</ele>
        <time>2025-12-19T09:15:05Z</time>
      </trkpt>
      <trkpt lat="43.53128" lon="1.08775">
        <ele>305.4</ele>
        <time>2025-12-19T09:15:06Z</time>
      </trkpt>
      <trkpt lat="43.53135" lon="1.08773">
        <ele>305</ele>
        <time>2025-12-19T09:15:07Z</time>
      </trkpt>
      <trkpt lat="43.53142" lon="1.08772">
        <ele>304.6</ele>
        <time>2025-12-19T09:15:08Z</time>
      </trkpt>
      <trkpt lat="43.53149" lon="1.0877">
        <ele>304</ele>
        <time>2025-12-19T09:15:09Z</time>
      </trkpt>
      <trkpt lat="43.53157" lon="1.08768">
        <ele>303.2</ele>
        <time>2025-12-19T09:15:10Z</time>
      </trkpt>
      <trkpt lat="43.53164" lon="1.08766">
        <ele>302.6</ele>
        <time>2025-12-19T09:15:11Z</time>
      </trkpt>
      <trkpt lat="43.53172" lon="1.08763">
        <ele>301.8</ele>
        <time>2025-12-19T09:15:12Z</time>
      </trkpt>
      <trkpt lat="43.5318" lon="1.08759">
        <ele>301.2</ele>
        <time>2025-12-19T09:15:13Z</time>
      </trkpt>
      <trkpt lat="43.53188" lon="1.08755">
        <ele>300.4</ele>
        <time>2025-12-19T09:15:14Z</time>
      </trkpt>
      <trkpt lat="43.53196" lon="1.08751">
        <ele>299.4</ele>
        <time>2025-12-19T09:15:15Z</time>
      </trkpt>
      <trkpt lat="43.53205" lon="1.08746">
        <ele>299</ele>
        <time>2025-12-19T09:15:16Z</time>
      </trkpt>
      <trkpt lat="43.53214" lon="1.08741">
        <ele>298.4</ele>
        <time>2025-12-19T09:15:17Z</time>
      </trkpt>
      <trkpt lat="43.53223" lon="1.08737">
        <ele>297.6</ele>
        <time>2025-12-19T09:15:18Z</time>
      </trkpt>
      <trkpt lat="43.53233" lon="1.08734">
        <ele>297</ele>
        <time>2025-12-19T09:15:19Z</time>
      </trkpt>
      <trkpt lat="43.53244" lon="1.08733">
        <ele>296</ele>
        <time>2025-12-19T09:15:20Z</time>
      </trkpt>
      <trkpt lat="43.53255" lon="1.08734">
        <ele>295</ele>
        <time>2025-12-19T09:15:21Z</time>
      </trkpt>
      <trkpt lat="43.53265" lon="1.08737">
        <ele>294.2</ele>
        <time>2025-12-19T09:15:22Z</time>
      </trkpt>
      <trkpt lat="43.53276" lon="1.08742">
        <ele>293.2</ele>
        <time>2025-12-19T09:15:23Z</time>
      </trkpt>
      <trkpt lat="43.53286" lon="1.08746">
        <ele>292.2</ele>
        <time>2025-12-19T09:15:24Z</time>
      </trkpt>
      <trkpt lat="43.53297" lon="1.08751">
        <ele>291.2</ele>
        <time>2025-12-19T09:15:25Z</time>
      </trkpt>
      <trkpt lat="43.53306" lon="1.08757">
        <ele>290.2</ele>
        <time>2025-12-19T09:15:26Z</time>
      </trkpt>
      <trkpt lat="43.53316" lon="1.08763">
        <ele>289.2</ele>
        <time>2025-12-19T09:15:27Z</time>
      </trkpt>
      <trkpt lat="43.53325" lon="1.08769">
        <ele>288.6</ele>
        <time>2025-12-19T09:15:28Z</time>
      </trkpt>
      <trkpt lat="43.53336" lon="1.08773">
        <ele>287.8</ele>
        <time>2025-12-19T09:15:29Z</time>
      </trkpt>
      <trkpt lat="43.53346" lon="1.08777">
        <ele>287.2</ele>
        <time>2025-12-19T09:15:30Z</time>
      </trkpt>
      <trkpt lat="43.53355" lon="1.08782">
        <ele>286.6</ele>
        <time>2025-12-19T09:15:31Z</time>
      </trkpt>
      <trkpt lat="43.53364" lon="1.08788">
        <ele>286.4</ele>
        <time>2025-12-19T09:15:32Z</time>
      </trkpt>
      <trkpt lat="43.53372" lon="1.08794">
        <ele>286.2</ele>
        <time>2025-12-19T09:15:33Z</time>
      </trkpt>
      <trkpt lat="43.5338" lon="1.08802">
        <ele>286</ele>
        <time>2025-12-19T09:15:34Z</time>
      </trkpt>
      <trkpt lat="43.53386" lon="1.0881">
        <ele>286</ele>
        <time>2025-12-19T09:15:35Z</time>
      </trkpt>
      <trkpt lat="43.53392" lon="1.08818">
        <ele>286</ele>
        <time>2025-12-19T09:15:36Z</time>
      </trkpt>
      <trkpt lat="43.53397" lon="1.08826">
        <ele>285.8</ele>
        <time>2025-12-19T09:15:37Z</time>
      </trkpt>
      <trkpt lat="43.53402" lon="1.08833">
        <ele>285.8</ele>
        <time>2025-12-19T09:15:38Z</time>
      </trkpt>
      <trkpt lat="43.53407" lon="1.08841">
        <ele>286</ele>
        <time>2025-12-19T09:15:39Z</time>
      </trkpt>
      <trkpt lat="43.53412" lon="1.08849">
        <ele>286.2</ele>
        <time>2025-12-19T09:15:40Z</time>
      </trkpt>
      <trkpt lat="43.53417" lon="1.08856">
        <ele>286.4</ele>
        <time>2025-12-19T09:15:41Z</time>
      </trkpt>
      <trkpt lat="43.53421" lon="1.08863">
        <ele>286.6</ele>
        <time>2025-12-19T09:15:42Z</time>
      </trkpt>
      <trkpt lat="43.53425" lon="1.08871">
        <ele>286.8</ele>
        <time>2025-12-19T09:15:43Z</time>
      </trkpt>
      <trkpt lat="43.53429" lon="1.08878">
        <ele>286.8</ele>
        <time>2025-12-19T09:15:44Z</time>
      </trkpt>
      <trkpt lat="43.53433" lon="1.08885">
        <ele>287</ele>
        <time>2025-12-19T09:15:45Z</time>
      </trkpt>
      <trkpt lat="43.53437" lon="1.08891">
        <ele>287</ele>
        <time>2025-12-19T09:15:46Z</time>
      </trkpt>
      <trkpt lat="43.53441" lon="1.08897">
        <ele>287.2</ele>
        <time>2025-12-19T09:15:47Z</time>
      </trkpt>
      <trkpt lat="43.53445" lon="1.08904">
        <ele>287.4</ele>
        <time>2025-12-19T09:15:48Z</time>
      </trkpt>
      <trkpt lat="43.53449" lon="1.0891">
        <ele>287.4</ele>
        <time>2025-12-19T09:15:49Z</time>
      </trkpt>
      <trkpt lat="43.53452" lon="1.08917">
        <ele>287.6</ele>
        <time>2025-12-19T09:15:50Z</time>
      </trkpt>
      <trkpt lat="43.53456" lon="1.08923">
        <ele>287.8</ele>
        <time>2025-12-19T09:15:51Z</time>
      </trkpt>
      <trkpt lat="43.53459" lon="1.0893">
        <ele>288</ele>
        <time>2025-12-19T09:15:52Z</time>
      </trkpt>
      <trkpt lat="43.53463" lon="1.08936">
        <ele>288.2</ele>
        <time>2025-12-19T09:15:53Z</time>
      </trkpt>
      <trkpt lat="43.53467" lon="1.08943">
        <ele>288.4</ele>
        <time>2025-12-19T09:15:54Z</time>
      </trkpt>
      <trkpt lat="43.53471" lon="1.08951">
        <ele>288.6</ele>
        <time>2025-12-19T09:15:55Z</time>
      </trkpt>
      <trkpt lat="43.53475" lon="1.08957">
        <ele>288.6</ele>
        <time>2025-12-19T09:15:56Z</time>
      </trkpt>
      <trkpt lat="43.53479" lon="1.08964">
        <ele>289</ele>
        <time>2025-12-19T09:15:57Z</time>
      </trkpt>
      <trkpt lat="43.53482" lon="1.0897">
        <ele>289</ele>
        <time>2025-12-19T09:15:58Z</time>
      </trkpt>
      <trkpt lat="43.53486" lon="1.08977">
        <ele>289.2</ele>
        <time>2025-12-19T09:15:59Z</time>
      </trkpt>
      <trkpt lat="43.5349" lon="1.08984">
        <ele>289.4</ele>
        <time>2025-12-19T09:16:00Z</time>
      </trkpt>
      <trkpt lat="43.53493" lon="1.08991">
        <ele>289.4</ele>
        <time>2025-12-19T09:16:01Z</time>
      </trkpt>
      <trkpt lat="43.53496" lon="1.08998">
        <ele>289.4</ele>
        <time>2025-12-19T09:16:02Z</time>
      </trkpt>
      <trkpt lat="43.53499" lon="1.09005">
        <ele>289.6</ele>
        <time>2025-12-19T09:16:03Z</time>
      </trkpt>
      <trkpt lat="43.53502" lon="1.09012">
        <ele>289.6</ele>
        <time>2025-12-19T09:16:04Z</time>
      </trkpt>
      <trkpt lat="43.53505" lon="1.09019">
        <ele>289.8</ele>
        <time>2025-12-19T09:16:05Z</time>
      </trkpt>
      <trkpt lat="43.53508" lon="1.09027">
        <ele>289.8</ele>
        <time>2025-12-19T09:16:06Z</time>
      </trkpt>
      <trkpt lat="43.53511" lon="1.09033">
        <ele>290</ele>
        <time>2025-12-19T09:16:07Z</time>
      </trkpt>
      <trkpt lat="43.53513" lon="1.0904">
        <ele>290.2</ele>
        <time>2025-12-19T09:16:08Z</time>
      </trkpt>
      <trkpt lat="43.53516" lon="1.09047">
        <ele>290.2</ele>
        <time>2025-12-19T09:16:09Z</time>
      </trkpt>
      <trkpt lat="43.53519" lon="1.09054">
        <ele>290.4</ele>
        <time>2025-12-19T09:16:10Z</time>
      </trkpt>
      <trkpt lat="43.53522" lon="1.09062">
        <ele>290.4</ele>
        <time>2025-12-19T09:16:11Z</time>
      </trkpt>
      <trkpt lat="43.53525" lon="1.09069">
        <ele>290.6</ele>
        <time>2025-12-19T09:16:12Z</time>
      </trkpt>
      <trkpt lat="43.53529" lon="1.09077">
        <ele>290.6</ele>
        <time>2025-12-19T09:16:13Z</time>
      </trkpt>
      <trkpt lat="43.53532" lon="1.09084">
        <ele>290.4</ele>
        <time>2025-12-19T09:16:14Z</time>
      </trkpt>
      <trkpt lat="43.53535" lon="1.09092">
        <ele>290.4</ele>
        <time>2025-12-19T09:16:15Z</time>
      </trkpt>
      <trkpt lat="43.53538" lon="1.091">
        <ele>290.2</ele>
        <time>2025-12-19T09:16:16Z</time>
      </trkpt>
      <trkpt lat="43.53541" lon="1.09108">
        <ele>290</ele>
        <time>2025-12-19T09:16:17Z</time>
      </trkpt>
      <trkpt lat="43.53545" lon="1.09116">
        <ele>289.8</ele>
        <time>2025-12-19T09:16:18Z</time>
      </trkpt>
      <trkpt lat="43.53548" lon="1.09125">
        <ele>289.8</ele>
        <time>2025-12-19T09:16:19Z</time>
      </trkpt>
      <trkpt lat="43.53551" lon="1.09133">
        <ele>289.6</ele>
        <time>2025-12-19T09:16:20Z</time>
      </trkpt>
      <trkpt lat="43.53554" lon="1.09142">
        <ele>289.2</ele>
        <time>2025-12-19T09:16:21Z</time>
      </trkpt>
      <trkpt lat="43.53557" lon="1.09152">
        <ele>289</ele>
        <time>2025-12-19T09:16:22Z</time>
      </trkpt>
      <trkpt lat="43.5356" lon="1.09161">
        <ele>288.8</ele>
        <time>2025-12-19T09:16:23Z</time>
      </trkpt>
      <trkpt lat="43.53564" lon="1.0917">
        <ele>288.6</ele>
        <time>2025-12-19T09:16:24Z</time>
      </trkpt>
      <trkpt lat="43.53567" lon="1.0918">
        <ele>288.4</ele>
        <time>2025-12-19T09:16:25Z</time>
      </trkpt>
      <trkpt lat="43.5357" lon="1.09189">
        <ele>288.2</ele>
        <time>2025-12-19T09:16:26Z</time>
      </trkpt>
      <trkpt lat="43.53574" lon="1.09198">
        <ele>288</ele>
        <time>2025-12-19T09:16:27Z</time>
      </trkpt>
      <trkpt lat="43.53577" lon="1.09208">
        <ele>287.4</ele>
        <time>2025-12-19T09:16:28Z</time>
      </trkpt>
      <trkpt lat="43.53581" lon="1.09219">
        <ele>287</ele>
        <time>2025-12-19T09:16:29Z</time>
      </trkpt>
      <trkpt lat="43.53586" lon="1.09229">
        <ele>286.6</ele>
        <time>2025-12-19T09:16:30Z</time>
      </trkpt>
      <trkpt lat="43.5359" lon="1.09239">
        <ele>286.2</ele>
        <time>2025-12-19T09:16:31Z</time>
      </trkpt>
      <trkpt lat="43.53595" lon="1.09248">
        <ele>285.8</ele>
        <time>2025-12-19T09:16:32Z</time>
      </trkpt>
      <trkpt lat="43.53599" lon="1.09257">
        <ele>285.4</ele>
        <time>2025-12-19T09:16:33Z</time>
      </trkpt>
      <trkpt lat="43.53603" lon="1.09265">
        <ele>285.2</ele>
        <time>2025-12-19T09:16:34Z</time>
      </trkpt>
      <trkpt lat="43.53607" lon="1.09274">
        <ele>285</ele>
        <time>2025-12-19T09:16:35Z</time>
      </trkpt>
      <trkpt lat="43.53611" lon="1.09282">
        <ele>284.8</ele>
        <time>2025-12-19T09:16:36Z</time>
      </trkpt>
      <trkpt lat="43.53615" lon="1.0929">
        <ele>284.8</ele>
        <time>2025-12-19T09:16:37Z</time>
      </trkpt>
      <trkpt lat="43.53619" lon="1.09298">
        <ele>284.6</ele>
        <time>2025-12-19T09:16:38Z</time>
      </trkpt>
      <trkpt lat="43.53622" lon="1.09306">
        <ele>284.6</ele>
        <time>2025-12-19T09:16:39Z</time>
      </trkpt>
      <trkpt lat="43.53626" lon="1.09314">
        <ele>284.4</ele>
        <time>2025-12-19T09:16:40Z</time>
      </trkpt>
      <trkpt lat="43.5363" lon="1.09322">
        <ele>284.4</ele>
        <time>2025-12-19T09:16:41Z</time>
      </trkpt>
      <trkpt lat="43.53634" lon="1.0933">
        <ele>284.6</ele>
        <time>2025-12-19T09:16:42Z</time>
      </trkpt>
      <trkpt lat="43.53639" lon="1.09337">
        <ele>284.6</ele>
        <time>2025-12-19T09:16:43Z</time>
      </trkpt>
      <trkpt lat="43.53643" lon="1.09344">
        <ele>284.8</ele>
        <time>2025-12-19T09:16:44Z</time>
      </trkpt>
      <trkpt lat="43.53648" lon="1.09351">
        <ele>285</ele>
        <time>2025-12-19T09:16:45Z</time>
      </trkpt>
      <trkpt lat="43.53652" lon="1.09358">
        <ele>285</ele>
        <time>2025-12-19T09:16:46Z</time>
      </trkpt>
      <trkpt lat="43.53657" lon="1.09365">
        <ele>285</ele>
        <time>2025-12-19T09:16:47Z</time>
      </trkpt>
      <trkpt lat="43.53662" lon="1.09372">
        <ele>285</ele>
        <time>2025-12-19T09:16:48Z</time>
      </trkpt>
      <trkpt lat="43.53667" lon="1.09378">
        <ele>285</ele>
        <time>2025-12-19T09:16:49Z</time>
      </trkpt>
      <trkpt lat="43.53671" lon="1.09385">
        <ele>285</ele>
        <time>2025-12-19T09:16:50Z</time>
      </trkpt>
      <trkpt lat="43.53676" lon="1.09392">
        <ele>285</ele>
        <time>2025-12-19T09:16:51Z</time>
      </trkpt>
      <trkpt lat="43.5368" lon="1.09398">
        <ele>285.2</ele>
        <time>2025-12-19T09:16:52Z</time>
      </trkpt>
      <trkpt lat="43.53685" lon="1.09405">
        <ele>285.2</ele>
        <time>2025-12-19T09:16:53Z</time>
      </trkpt>
      <trkpt lat="43.5369" lon="1.09412">
        <ele>285.2</ele>
        <time>2025-12-19T09:16:54Z</time>
      </trkpt>
      <trkpt lat="43.53695" lon="1.09419">
        <ele>285.2</ele>
        <time>2025-12-19T09:16:55Z</time>
      </trkpt>
      <trkpt lat="43.53699" lon="1.09426">
        <ele>285.2</ele>
        <time>2025-12-19T09:16:56Z</time>
      </trkpt>
      <trkpt lat="43.53704" lon="1.09433">
        <ele>285</ele>
        <time>2025-12-19T09:16:57Z</time>
      </trkpt>
      <trkpt lat="43.53709" lon="1.0944">
        <ele>285</ele>
        <time>2025-12-19T09:16:58Z</time>
      </trkpt>
      <trkpt lat="43.53715" lon="1.09447">
        <ele>284.8</ele>
        <time>2025-12-19T09:16:59Z</time>
      </trkpt>
      <trkpt lat="43.53719" lon="1.09455">
        <ele>284.8</ele>
        <time>2025-12-19T09:17:00Z</time>
      </trkpt>
      <trkpt lat="43.53724" lon="1.09462">
        <ele>284.6</ele>
        <time>2025-12-19T09:17:01Z</time>
      </trkpt>
      <trkpt lat="43.53729" lon="1.09469">
        <ele>284.4</ele>
        <time>2025-12-19T09:17:02Z</time>
      </trkpt>
      <trkpt lat="43.53734" lon="1.09476">
        <ele>284.2</ele>
        <time>2025-12-19T09:17:03Z</time>
      </trkpt>
      <trkpt lat="43.53739" lon="1.09483">
        <ele>284</ele>
        <time>2025-12-19T09:17:04Z</time>
      </trkpt>
      <trkpt lat="43.53743" lon="1.0949">
        <ele>283.6</ele>
        <time>2025-12-19T09:17:05Z</time>
      </trkpt>
      <trkpt lat="43.53748" lon="1.09497">
        <ele>283.4</ele>
        <time>2025-12-19T09:17:06Z</time>
      </trkpt>
      <trkpt lat="43.53752" lon="1.09504">
        <ele>283.2</ele>
        <time>2025-12-19T09:17:07Z</time>
      </trkpt>
      <trkpt lat="43.53757" lon="1.09511">
        <ele>283</ele>
        <time>2025-12-19T09:17:08Z</time>
      </trkpt>
      <trkpt lat="43.53761" lon="1.09518">
        <ele>282.8</ele>
        <time>2025-12-19T09:17:09Z</time>
      </trkpt>
      <trkpt lat="43.53766" lon="1.09525">
        <ele>282.6</ele>
        <time>2025-12-19T09:17:10Z</time>
      </trkpt>
      <trkpt lat="43.53771" lon="1.09532">
        <ele>282.4</ele>
        <time>2025-12-19T09:17:11Z</time>
      </trkpt>
      <trkpt lat="43.53776" lon="1.09538">
        <ele>282.4</ele>
        <time>2025-12-19T09:17:12Z</time>
      </trkpt>
      <trkpt lat="43.53781" lon="1.09545">
        <ele>282.2</ele>
        <time>2025-12-19T09:17:13Z</time>
      </trkpt>
      <trkpt lat="43.53786" lon="1.09552">
        <ele>282</ele>
        <time>2025-12-19T09:17:14Z</time>
      </trkpt>
      <trkpt lat="43.53791" lon="1.09559">
        <ele>281.8</ele>
        <time>2025-12-19T09:17:15Z</time>
      </trkpt>
      <trkpt lat="43.53797" lon="1.09566">
        <ele>281.6</ele>
        <time>2025-12-19T09:17:16Z</time>
      </trkpt>
      <trkpt lat="43.53802" lon="1.09573">
        <ele>281.2</ele>
        <time>2025-12-19T09:17:17Z</time>
      </trkpt>
      <trkpt lat="43.53808" lon="1.0958">
        <ele>281</ele>
        <time>2025-12-19T09:17:18Z</time>
      </trkpt>
      <trkpt lat="43.53814" lon="1.09588">
        <ele>280.4</ele>
        <time>2025-12-19T09:17:19Z</time>
      </trkpt>
      <trkpt lat="43.5382" lon="1.09595">
        <ele>280</ele>
        <time>2025-12-19T09:17:20Z</time>
      </trkpt>
      <trkpt lat="43.53826" lon="1.09602">
        <ele>279.6</ele>
        <time>2025-12-19T09:17:21Z</time>
      </trkpt>
      <trkpt lat="43.53833" lon="1.09608">
        <ele>279.2</ele>
        <time>2025-12-19T09:17:22Z</time>
      </trkpt>
      <trkpt lat="43.5384" lon="1.09614">
        <ele>279</ele>
        <time>2025-12-19T09:17:23Z</time>
      </trkpt>
      <trkpt lat="43.53848" lon="1.0962">
        <ele>278.8</ele>
        <time>2025-12-19T09:17:24Z</time>
      </trkpt>
      <trkpt lat="43.53856" lon="1.09625">
        <ele>278.2</ele>
        <time>2025-12-19T09:17:25Z</time>
      </trkpt>
      <trkpt lat="43.53864" lon="1.09629">
        <ele>278</ele>
        <time>2025-12-19T09:17:26Z</time>
      </trkpt>
      <trkpt lat="43.53872" lon="1.09632">
        <ele>277.4</ele>
        <time>2025-12-19T09:17:27Z</time>
      </trkpt>
      <trkpt lat="43.53882" lon="1.09636">
        <ele>277</ele>
        <time>2025-12-19T09:17:28Z</time>
      </trkpt>
      <trkpt lat="43.53891" lon="1.09639">
        <ele>276.4</ele>
        <time>2025-12-19T09:17:29Z</time>
      </trkpt>
      <trkpt lat="43.539" lon="1.09643">
        <ele>275.8</ele>
        <time>2025-12-19T09:17:30Z</time>
      </trkpt>
      <trkpt lat="43.53909" lon="1.09646">
        <ele>275.4</ele>
        <time>2025-12-19T09:17:31Z</time>
      </trkpt>
      <trkpt lat="43.53918" lon="1.0965">
        <ele>275</ele>
        <time>2025-12-19T09:17:32Z</time>
      </trkpt>
      <trkpt lat="43.53927" lon="1.09654">
        <ele>274.4</ele>
        <time>2025-12-19T09:17:33Z</time>
      </trkpt>
      <trkpt lat="43.53935" lon="1.09657">
        <ele>274</ele>
        <time>2025-12-19T09:17:34Z</time>
      </trkpt>
      <trkpt lat="43.53944" lon="1.0966">
        <ele>273.8</ele>
        <time>2025-12-19T09:17:35Z</time>
      </trkpt>
      <trkpt lat="43.53952" lon="1.09664">
        <ele>273.6</ele>
        <time>2025-12-19T09:17:36Z</time>
      </trkpt>
      <trkpt lat="43.5396" lon="1.09667">
        <ele>273.4</ele>
        <time>2025-12-19T09:17:37Z</time>
      </trkpt>
      <trkpt lat="43.53968" lon="1.0967">
        <ele>273.4</ele>
        <time>2025-12-19T09:17:38Z</time>
      </trkpt>
      <trkpt lat="43.53976" lon="1.09673">
        <ele>273.4</ele>
        <time>2025-12-19T09:17:39Z</time>
      </trkpt>
      <trkpt lat="43.53984" lon="1.09676">
        <ele>273.2</ele>
        <time>2025-12-19T09:17:40Z</time>
      </trkpt>
      <trkpt lat="43.53991" lon="1.09679">
        <ele>273.4</ele>
        <time>2025-12-19T09:17:41Z</time>
      </trkpt>
      <trkpt lat="43.53998" lon="1.09682">
        <ele>273.4</ele>
        <time>2025-12-19T09:17:42Z</time>
      </trkpt>
      <trkpt lat="43.54005" lon="1.09684">
        <ele>273.4</ele>
        <time>2025-12-19T09:17:43Z</time>
      </trkpt>
      <trkpt lat="43.54013" lon="1.09686">
        <ele>273.4</ele>
        <time>2025-12-19T09:17:44Z</time>
      </trkpt>
      <trkpt lat="43.5402" lon="1.09689">
        <ele>273.2</ele>
        <time>2025-12-19T09:17:45Z</time>
      </trkpt>
      <trkpt lat="43.54028" lon="1.09692">
        <ele>273</ele>
        <time>2025-12-19T09:17:46Z</time>
      </trkpt>
      <trkpt lat="43.54036" lon="1.09693">
        <ele>273</ele>
        <time>2025-12-19T09:17:47Z</time>
      </trkpt>
      <trkpt lat="43.54045" lon="1.09695">
        <ele>272.6</ele>
        <time>2025-12-19T09:17:48Z</time>
      </trkpt>
      <trkpt lat="43.54053" lon="1.09697">
        <ele>272.2</ele>
        <time>2025-12-19T09:17:49Z</time>
      </trkpt>
      <trkpt lat="43.54062" lon="1.09698">
        <ele>272</ele>
        <time>2025-12-19T09:17:50Z</time>
      </trkpt>
      <trkpt lat="43.54071" lon="1.09699">
        <ele>271.6</ele>
        <time>2025-12-19T09:17:51Z</time>
      </trkpt>
      <trkpt lat="43.5408" lon="1.09699">
        <ele>271</ele>
        <time>2025-12-19T09:17:52Z</time>
      </trkpt>
      <trkpt lat="43.54089" lon="1.097">
        <ele>270.6</ele>
        <time>2025-12-19T09:17:53Z</time>
      </trkpt>
      <trkpt lat="43.54099" lon="1.09701">
        <ele>270</ele>
        <time>2025-12-19T09:17:54Z</time>
      </trkpt>
      <trkpt lat="43.54108" lon="1.09702">
        <ele>269.6</ele>
        <time>2025-12-19T09:17:55Z</time>
      </trkpt>
      <trkpt lat="43.54118" lon="1.09702">
        <ele>268.8</ele>
        <time>2025-12-19T09:17:56Z</time>
      </trkpt>
      <trkpt lat="43.54128" lon="1.09703">
        <ele>268.4</ele>
        <time>2025-12-19T09:17:57Z</time>
      </trkpt>
      <trkpt lat="43.54137" lon="1.09704">
        <ele>267.8</ele>
        <time>2025-12-19T09:17:58Z</time>
      </trkpt>
      <trkpt lat="43.54147" lon="1.09705">
        <ele>267.2</ele>
        <time>2025-12-19T09:17:59Z</time>
      </trkpt>
      <trkpt lat="43.54157" lon="1.09706">
        <ele>266.6</ele>
        <time>2025-12-19T09:18:00Z</time>
      </trkpt>
      <trkpt lat="43.54167" lon="1.09707">
        <ele>265.8</ele>
        <time>2025-12-19T09:18:01Z</time>
      </trkpt>
      <trkpt lat="43.54178" lon="1.09708">
        <ele>265</ele>
        <time>2025-12-19T09:18:02Z</time>
      </trkpt>
      <trkpt lat="43.54188" lon="1.09709">
        <ele>264.4</ele>
        <time>2025-12-19T09:18:03Z</time>
      </trkpt>
      <trkpt lat="43.54198" lon="1.0971">
        <ele>263.8</ele>
        <time>2025-12-19T09:18:04Z</time>
      </trkpt>
      <trkpt lat="43.54208" lon="1.09711">
        <ele>263.2</ele>
        <time>2025-12-19T09:18:05Z</time>
      </trkpt>
      <trkpt lat="43.54219" lon="1.09712">
        <ele>262.6</ele>
        <time>2025-12-19T09:18:06Z</time>
      </trkpt>
      <trkpt lat="43.54229" lon="1.09714">
        <ele>262.2</ele>
        <time>2025-12-19T09:18:07Z</time>
      </trkpt>
      <trkpt lat="43.5424" lon="1.09715">
        <ele>261.6</ele>
        <time>2025-12-19T09:18:08Z</time>
      </trkpt>
      <trkpt lat="43.54251" lon="1.09715">
        <ele>261</ele>
        <time>2025-12-19T09:18:09Z</time>
      </trkpt>
      <trkpt lat="43.54261" lon="1.09716">
        <ele>260.4</ele>
        <time>2025-12-19T09:18:10Z</time>
      </trkpt>
      <trkpt lat="43.54272" lon="1.09717">
        <ele>259.6</ele>
        <time>2025-12-19T09:18:11Z</time>
      </trkpt>
      <trkpt lat="43.54283" lon="1.09718">
        <ele>259</ele>
        <time>2025-12-19T09:18:12Z</time>
      </trkpt>
      <trkpt lat="43.54294" lon="1.09719">
        <ele>258.4</ele>
        <time>2025-12-19T09:18:13Z</time>
      </trkpt>
      <trkpt lat="43.54304" lon="1.09721">
        <ele>258</ele>
        <time>2025-12-19T09:18:14Z</time>
      </trkpt>
      <trkpt lat="43.54315" lon="1.09722">
        <ele>257.4</ele>
        <time>2025-12-19T09:18:15Z</time>
      </trkpt>
      <trkpt lat="43.54325" lon="1.09723">
        <ele>257</ele>
        <time>2025-12-19T09:18:16Z</time>
      </trkpt>
      <trkpt lat="43.54335" lon="1.09723">
        <ele>256.4</ele>
        <time>2025-12-19T09:18:17Z</time>
      </trkpt>
      <trkpt lat="43.54345" lon="1.09724">
        <ele>256.2</ele>
        <time>2025-12-19T09:18:18Z</time>
      </trkpt>
      <trkpt lat="43.54355" lon="1.09725">
        <ele>255.8</ele>
        <time>2025-12-19T09:18:19Z</time>
      </trkpt>
      <trkpt lat="43.54364" lon="1.09726">
        <ele>255.8</ele>
        <time>2025-12-19T09:18:20Z</time>
      </trkpt>
      <trkpt lat="43.54374" lon="1.09727">
        <ele>255.6</ele>
        <time>2025-12-19T09:18:21Z</time>
      </trkpt>
      <trkpt lat="43.54383" lon="1.09728">
        <ele>255.4</ele>
        <time>2025-12-19T09:18:22Z</time>
      </trkpt>
      <trkpt lat="43.54392" lon="1.09728">
        <ele>255.2</ele>
        <time>2025-12-19T09:18:23Z</time>
      </trkpt>
      <trkpt lat="43.54402" lon="1.0973">
        <ele>255.2</ele>
        <time>2025-12-19T09:18:24Z</time>
      </trkpt>
      <trkpt lat="43.54411" lon="1.0973">
        <ele>255</ele>
        <time>2025-12-19T09:18:25Z</time>
      </trkpt>
      <trkpt lat="43.5442" lon="1.09731">
        <ele>255</ele>
        <time>2025-12-19T09:18:26Z</time>
      </trkpt>
      <trkpt lat="43.54429" lon="1.09732">
        <ele>254.8</ele>
        <time>2025-12-19T09:18:27Z</time>
      </trkpt>
      <trkpt lat="43.54438" lon="1.09733">
        <ele>255</ele>
        <time>2025-12-19T09:18:28Z</time>
      </trkpt>
      <trkpt lat="43.54446" lon="1.09734">
        <ele>254.8</ele>
        <time>2025-12-19T09:18:29Z</time>
      </trkpt>
      <trkpt lat="43.54455" lon="1.09735">
        <ele>254.8</ele>
        <time>2025-12-19T09:18:30Z</time>
      </trkpt>
      <trkpt lat="43.54464" lon="1.09736">
        <ele>254.8</ele>
        <time>2025-12-19T09:18:31Z</time>
      </trkpt>
      <trkpt lat="43.54472" lon="1.09736">
        <ele>254.8</ele>
        <time>2025-12-19T09:18:32Z</time>
      </trkpt>
      <trkpt lat="43.5448" lon="1.09737">
        <ele>255</ele>
        <time>2025-12-19T09:18:33Z</time>
      </trkpt>
      <trkpt lat="43.54489" lon="1.09738">
        <ele>255</ele>
        <time>2025-12-19T09:18:34Z</time>
      </trkpt>
      <trkpt lat="43.54497" lon="1.09739">
        <ele>255</ele>
        <time>2025-12-19T09:18:35Z</time>
      </trkpt>
      <trkpt lat="43.54505" lon="1.0974">
        <ele>255.2</ele>
        <time>2025-12-19T09:18:36Z</time>
      </trkpt>
      <trkpt lat="43.54514" lon="1.09741">
        <ele>255.4</ele>
        <time>2025-12-19T09:18:37Z</time>
      </trkpt>
      <trkpt lat="43.54522" lon="1.09742">
        <ele>255.4</ele>
        <time>2025-12-19T09:18:38Z</time>
      </trkpt>
      <trkpt lat="43.5453" lon="1.09743">
        <ele>255.4</ele>
        <time>2025-12-19T09:18:39Z</time>
      </trkpt>
      <trkpt lat="43.54537" lon="1.09744">
        <ele>255.4</ele>
        <time>2025-12-19T09:18:40Z</time>
      </trkpt>
      <trkpt lat="43.54545" lon="1.09745">
        <ele>255.6</ele>
        <time>2025-12-19T09:18:41Z</time>
      </trkpt>
      <trkpt lat="43.54553" lon="1.09745">
        <ele>255.8</ele>
        <time>2025-12-19T09:18:42Z</time>
      </trkpt>
      <trkpt lat="43.5456" lon="1.09746">
        <ele>255.8</ele>
        <time>2025-12-19T09:18:43Z</time>
      </trkpt>
      <trkpt lat="43.54567" lon="1.09746">
        <ele>256</ele>
        <time>2025-12-19T09:18:44Z</time>
      </trkpt>
      <trkpt lat="43.54574" lon="1.09746">
        <ele>256.2</ele>
        <time>2025-12-19T09:18:45Z</time>
      </trkpt>
      <trkpt lat="43.54581" lon="1.09746">
        <ele>256.4</ele>
        <time>2025-12-19T09:18:46Z</time>
      </trkpt>
      <trkpt lat="43.54587" lon="1.09746">
        <ele>256.6</ele>
        <time>2025-12-19T09:18:47Z</time>
      </trkpt>
      <trkpt lat="43.54594" lon="1.09745">
        <ele>256.8</ele>
        <time>2025-12-19T09:18:48Z</time>
      </trkpt>
      <trkpt lat="43.546" lon="1.09744">
        <ele>257.2</ele>
        <time>2025-12-19T09:18:49Z</time>
      </trkpt>
      <trkpt lat="43.54607" lon="1.09743">
        <ele>257.4</ele>
        <time>2025-12-19T09:18:50Z</time>
      </trkpt>
      <trkpt lat="43.54613" lon="1.09741">
        <ele>257.6</ele>
        <time>2025-12-19T09:18:51Z</time>
      </trkpt>
      <trkpt lat="43.54619" lon="1.09739">
        <ele>257.8</ele>
        <time>2025-12-19T09:18:52Z</time>
      </trkpt>
      <trkpt lat="43.54626" lon="1.09737">
        <ele>258</ele>
        <time>2025-12-19T09:18:53Z</time>
      </trkpt>
      <trkpt lat="43.54632" lon="1.09735">
        <ele>258</ele>
        <time>2025-12-19T09:18:54Z</time>
      </trkpt>
      <trkpt lat="43.54639" lon="1.09732">
        <ele>258</ele>
        <time>2025-12-19T09:18:55Z</time>
      </trkpt>
      <trkpt lat="43.54646" lon="1.09729">
        <ele>258</ele>
        <time>2025-12-19T09:18:56Z</time>
      </trkpt>
      <trkpt lat="43.54653" lon="1.09725">
        <ele>258</ele>
        <time>2025-12-19T09:18:57Z</time>
      </trkpt>
      <trkpt lat="43.5466" lon="1.0972">
        <ele>257.8</ele>
        <time>2025-12-19T09:18:58Z</time>
      </trkpt>
      <trkpt lat="43.54667" lon="1.09716">
        <ele>257.4</ele>
        <time>2025-12-19T09:18:59Z</time>
      </trkpt>
      <trkpt lat="43.54675" lon="1.09711">
        <ele>257.2</ele>
        <time>2025-12-19T09:19:00Z</time>
      </trkpt>
      <trkpt lat="43.54682" lon="1.09706">
        <ele>256.8</ele>
        <time>2025-12-19T09:19:01Z</time>
      </trkpt>
      <trkpt lat="43.5469" lon="1.09701">
        <ele>256.4</ele>
        <time>2025-12-19T09:19:02Z</time>
      </trkpt>
      <trkpt lat="43.54697" lon="1.09696">
        <ele>255.8</ele>
        <time>2025-12-19T09:19:03Z</time>
      </trkpt>
      <trkpt lat="43.54705" lon="1.0969">
        <ele>255.6</ele>
        <time>2025-12-19T09:19:04Z</time>
      </trkpt>
      <trkpt lat="43.54713" lon="1.09685">
        <ele>255.2</ele>
        <time>2025-12-19T09:19:05Z</time>
      </trkpt>
      <trkpt lat="43.54721" lon="1.09679">
        <ele>254.8</ele>
        <time>2025-12-19T09:19:06Z</time>
      </trkpt>
      <trkpt lat="43.54729" lon="1.09674">
        <ele>254.4</ele>
        <time>2025-12-19T09:19:07Z</time>
      </trkpt>
      <trkpt lat="43.54736" lon="1.09668">
        <ele>254.2</ele>
        <time>2025-12-19T09:19:08Z</time>
      </trkpt>
      <trkpt lat="43.54744" lon="1.09663">
        <ele>254</ele>
        <time>2025-12-19T09:19:09Z</time>
      </trkpt>
      <trkpt lat="43.54751" lon="1.09658">
        <ele>253.8</ele>
        <time>2025-12-19T09:19:10Z</time>
      </trkpt>
      <trkpt lat="43.54758" lon="1.09652">
        <ele>253.8</ele>
        <time>2025-12-19T09:19:11Z</time>
      </trkpt>
      <trkpt lat="43.54765" lon="1.09647">
        <ele>253.6</ele>
        <time>2025-12-19T09:19:12Z</time>
      </trkpt>
      <trkpt lat="43.54772" lon="1.09643">
        <ele>253.6</ele>
        <time>2025-12-19T09:19:13Z</time>
      </trkpt>
      <trkpt lat="43.5478" lon="1.09639">
        <ele>253.6</ele>
        <time>2025-12-19T09:19:14Z</time>
      </trkpt>
      <trkpt lat="43.54787" lon="1.09634">
        <ele>253.4</ele>
        <time>2025-12-19T09:19:15Z</time>
      </trkpt>
      <trkpt lat="43.54794" lon="1.09629">
        <ele>253.4</ele>
        <time>2025-12-19T09:19:16Z</time>
      </trkpt>
      <trkpt lat="43.54801" lon="1.09625">
        <ele>253.4</ele>
        <time>2025-12-19T09:19:17Z</time>
      </trkpt>
      <trkpt lat="43.54809" lon="1.09621">
        <ele>253.4</ele>
        <time>2025-12-19T09:19:18Z</time>
      </trkpt>
      <trkpt lat="43.54816" lon="1.09617">
        <ele>253.4</ele>
        <time>2025-12-19T09:19:19Z</time>
      </trkpt>
      <trkpt lat="43.54824" lon="1.09614">
        <ele>253.4</ele>
        <time>2025-12-19T09:19:20Z</time>
      </trkpt>
      <trkpt lat="43.54832" lon="1.09611">
        <ele>253.2</ele>
        <time>2025-12-19T09:19:21Z</time>
      </trkpt>
      <trkpt lat="43.54841" lon="1.09608">
        <ele>252.8</ele>
        <time>2025-12-19T09:19:22Z</time>
      </trkpt>
      <trkpt lat="43.54851" lon="1.09606">
        <ele>252.6</ele>
        <time>2025-12-19T09:19:23Z</time>
      </trkpt>
      <trkpt lat="43.54861" lon="1.09604">
        <ele>251.8</ele>
        <time>2025-12-19T09:19:24Z</time>
      </trkpt>
      <trkpt lat="43.54871" lon="1.09602">
        <ele>251.2</ele>
        <time>2025-12-19T09:19:25Z</time>
      </trkpt>
      <trkpt lat="43.54881" lon="1.096">
        <ele>250.6</ele>
        <time>2025-12-19T09:19:26Z</time>
      </trkpt>
      <trkpt lat="43.54891" lon="1.09597">
        <ele>250.2</ele>
        <time>2025-12-19T09:19:27Z</time>
      </trkpt>
      <trkpt lat="43.54901" lon="1.09595">
        <ele>249.6</ele>
        <time>2025-12-19T09:19:28Z</time>
      </trkpt>
      <trkpt lat="43.54911" lon="1.09593">
        <ele>248.8</ele>
        <time>2025-12-19T09:19:29Z</time>
      </trkpt>
      <trkpt lat="43.54921" lon="1.09592">
        <ele>248.2</ele>
        <time>2025-12-19T09:19:30Z</time>
      </trkpt>
      <trkpt lat="43.54932" lon="1.0959">
        <ele>247.8</ele>
        <time>2025-12-19T09:19:31Z</time>
      </trkpt>
      <trkpt lat="43.54942" lon="1.09589">
        <ele>247.4</ele>
        <time>2025-12-19T09:19:32Z</time>
      </trkpt>
      <trkpt lat="43.54952" lon="1.09587">
        <ele>247</ele>
        <time>2025-12-19T09:19:33Z</time>
      </trkpt>
      <trkpt lat="43.54962" lon="1.09585">
        <ele>246.6</ele>
        <time>2025-12-19T09:19:34Z</time>
      </trkpt>
      <trkpt lat="43.54971" lon="1.09583">
        <ele>246.4</ele>
        <time>2025-12-19T09:19:35Z</time>
      </trkpt>
      <trkpt lat="43.5498" lon="1.09579">
        <ele>246.2</ele>
        <time>2025-12-19T09:19:36Z</time>
      </trkpt>
      <trkpt lat="43.54988" lon="1.09575">
        <ele>246</ele>
        <time>2025-12-19T09:19:37Z</time>
      </trkpt>
      <trkpt lat="43.54997" lon="1.0957">
        <ele>246</ele>
        <time>2025-12-19T09:19:38Z</time>
      </trkpt>
      <trkpt lat="43.55005" lon="1.09565">
        <ele>245.8</ele>
        <time>2025-12-19T09:19:39Z</time>
      </trkpt>
      <trkpt lat="43.55013" lon="1.09558">
        <ele>245.8</ele>
        <time>2025-12-19T09:19:40Z</time>
      </trkpt>
      <trkpt lat="43.5502" lon="1.09552">
        <ele>245.8</ele>
        <time>2025-12-19T09:19:41Z</time>
      </trkpt>
      <trkpt lat="43.55028" lon="1.09545">
        <ele>245.8</ele>
        <time>2025-12-19T09:19:42Z</time>
      </trkpt>
      <trkpt lat="43.55035" lon="1.09539">
        <ele>246</ele>
        <time>2025-12-19T09:19:43Z</time>
      </trkpt>
      <trkpt lat="43.55041" lon="1.09532">
        <ele>246</ele>
        <time>2025-12-19T09:19:44Z</time>
      </trkpt>
      <trkpt lat="43.55048" lon="1.09526">
        <ele>246.2</ele>
        <time>2025-12-19T09:19:45Z</time>
      </trkpt>
      <trkpt lat="43.55055" lon="1.09519">
        <ele>246.2</ele>
        <time>2025-12-19T09:19:46Z</time>
      </trkpt>
      <trkpt lat="43.55061" lon="1.09513">
        <ele>246.6</ele>
        <time>2025-12-19T09:19:47Z</time>
      </trkpt>
      <trkpt lat="43.55068" lon="1.09508">
        <ele>246.6</ele>
        <time>2025-12-19T09:19:48Z</time>
      </trkpt>
      <trkpt lat="43.55074" lon="1.09503">
        <ele>247</ele>
        <time>2025-12-19T09:19:49Z</time>
      </trkpt>
      <trkpt lat="43.5508" lon="1.09498">
        <ele>247.2</ele>
        <time>2025-12-19T09:19:50Z</time>
      </trkpt>
      <trkpt lat="43.55086" lon="1.09493">
        <ele>247.6</ele>
        <time>2025-12-19T09:19:51Z</time>
      </trkpt>
      <trkpt lat="43.55091" lon="1.09488">
        <ele>247.8</ele>
        <time>2025-12-19T09:19:52Z</time>
      </trkpt>
      <trkpt lat="43.55097" lon="1.09484">
        <ele>248.2</ele>
        <time>2025-12-19T09:19:53Z</time>
      </trkpt>
      <trkpt lat="43.55102" lon="1.09479">
        <ele>248.6</ele>
        <time>2025-12-19T09:19:54Z</time>
      </trkpt>
      <trkpt lat="43.55107" lon="1.09475">
        <ele>249</ele>
        <time>2025-12-19T09:19:55Z</time>
      </trkpt>
      <trkpt lat="43.55112" lon="1.09471">
        <ele>249.4</ele>
        <time>2025-12-19T09:19:56Z</time>
      </trkpt>
      <trkpt lat="43.55117" lon="1.09466">
        <ele>249.6</ele>
        <time>2025-12-19T09:19:57Z</time>
      </trkpt>
      <trkpt lat="43.55122" lon="1.09462">
        <ele>250</ele>
        <time>2025-12-19T09:19:58Z</time>
      </trkpt>
      <trkpt lat="43.55127" lon="1.09457">
        <ele>250.2</ele>
        <time>2025-12-19T09:19:59Z</time>
      </trkpt>
      <trkpt lat="43.55132" lon="1.09453">
        <ele>250.6</ele>
        <time>2025-12-19T09:20:00Z</time>
      </trkpt>
      <trkpt lat="43.55137" lon="1.09449">
        <ele>250.8</ele>
        <time>2025-12-19T09:20:01Z</time>
      </trkpt>
      <trkpt lat="43.55142" lon="1.09444">
        <ele>251</ele>
        <time>2025-12-19T09:20:02Z</time>
      </trkpt>
      <trkpt lat="43.55147" lon="1.0944">
        <ele>251.2</ele>
        <time>2025-12-19T09:20:03Z</time>
      </trkpt>
      <trkpt lat="43.55152" lon="1.09435">
        <ele>251.4</ele>
        <time>2025-12-19T09:20:04Z</time>
      </trkpt>
      <trkpt lat="43.55157" lon="1.09431">
        <ele>251.4</ele>
        <time>2025-12-19T09:20:05Z</time>
      </trkpt>
      <trkpt lat="43.55163" lon="1.09426">
        <ele>251.6</ele>
        <time>2025-12-19T09:20:06Z</time>
      </trkpt>
      <trkpt lat="43.55168" lon="1.09421">
        <ele>251.6</ele>
        <time>2025-12-19T09:20:07Z</time>
      </trkpt>
      <trkpt lat="43.55173" lon="1.09416">
        <ele>251.6</ele>
        <time>2025-12-19T09:20:08Z</time>
      </trkpt>
      <trkpt lat="43.55179" lon="1.09412">
        <ele>251.6</ele>
        <time>2025-12-19T09:20:09Z</time>
      </trkpt>
      <trkpt lat="43.55184" lon="1.09407">
        <ele>251.6</ele>
        <time>2025-12-19T09:20:10Z</time>
      </trkpt>
      <trkpt lat="43.5519" lon="1.09401">
        <ele>251.6</ele>
        <time>2025-12-19T09:20:11Z</time>
      </trkpt>
      <trkpt lat="43.55196" lon="1.09396">
        <ele>251.4</ele>
        <time>2025-12-19T09:20:12Z</time>
      </trkpt>
      <trkpt lat="43.55203" lon="1.09391">
        <ele>251.2</ele>
        <time>2025-12-19T09:20:13Z</time>
      </trkpt>
      <trkpt lat="43.55209" lon="1.09385">
        <ele>251</ele>
        <time>2025-12-19T09:20:14Z</time>
      </trkpt>
      <trkpt lat="43.55216" lon="1.0938">
        <ele>250.6</ele>
        <time>2025-12-19T09:20:15Z</time>
      </trkpt>
      <trkpt lat="43.55224" lon="1.09375">
        <ele>250.2</ele>
        <time>2025-12-19T09:20:16Z</time>
      </trkpt>
      <trkpt lat="43.55231" lon="1.09369">
        <ele>250</ele>
        <time>2025-12-19T09:20:17Z</time>
      </trkpt>
      <trkpt lat="43.55239" lon="1.09364">
        <ele>249.6</ele>
        <time>2025-12-19T09:20:18Z</time>
      </trkpt>
      <trkpt lat="43.55246" lon="1.09359">
        <ele>249</ele>
        <time>2025-12-19T09:20:19Z</time>
      </trkpt>
      <trkpt lat="43.55254" lon="1.09353">
        <ele>248.4</ele>
        <time>2025-12-19T09:20:20Z</time>
      </trkpt>
      <trkpt lat="43.55261" lon="1.09347">
        <ele>247.8</ele>
        <time>2025-12-19T09:20:21Z</time>
      </trkpt>
      <trkpt lat="43.55268" lon="1.09343">
        <ele>247.4</ele>
        <time>2025-12-19T09:20:22Z</time>
      </trkpt>
      <trkpt lat="43.55273" lon="1.09339">
        <ele>247.2</ele>
        <time>2025-12-19T09:20:23Z</time>
      </trkpt>
      <trkpt lat="43.55277" lon="1.09336">
        <ele>247</ele>
        <time>2025-12-19T09:20:24Z</time>
      </trkpt>
      <trkpt lat="43.5528" lon="1.09334">
        <ele>246.8</ele>
        <time>2025-12-19T09:20:25Z</time>
      </trkpt>
      <trkpt lat="43.55281" lon="1.09333">
        <ele>246.8</ele>
        <time>2025-12-19T09:20:26Z</time>
      </trkpt>
      <trkpt lat="43.55282" lon="1.09333">
        <ele>247</ele>
        <time>2025-12-19T09:20:27Z</time>
      </trkpt>
      <trkpt lat="43.55282" lon="1.09333">
        <ele>247</ele>
        <time>2025-12-19T09:20:28Z</time>
      </trkpt>
      <trkpt lat="43.55286" lon="1.09329">
        <ele>247.2</ele>
        <time>2025-12-19T09:22:05Z</time>
      </trkpt>
      <trkpt lat="43.55289" lon="1.09327">
        <ele>247.2</ele>
        <time>2025-12-19T09:22:06Z</time>
      </trkpt>
      <trkpt lat="43.55291" lon="1.09325">
        <ele>247.2</ele>
        <time>2025-12-19T09:22:07Z</time>
      </trkpt>
      <trkpt lat="43.55294" lon="1.09323">
        <ele>247</ele>
        <time>2025-12-19T09:22:08Z</time>
      </trkpt>
      <trkpt lat="43.55297" lon="1.09321">
        <ele>247</ele>
        <time>2025-12-19T09:22:09Z</time>
      </trkpt>
      <trkpt lat="43.55301" lon="1.09318">
        <ele>247</ele>
        <time>2025-12-19T09:22:10Z</time>
      </trkpt>
      <trkpt lat="43.55305" lon="1.09316">
        <ele>247</ele>
        <time>2025-12-19T09:22:11Z</time>
      </trkpt>
      <trkpt lat="43.55309" lon="1.09313">
        <ele>247</ele>
        <time>2025-12-19T09:22:12Z</time>
      </trkpt>
      <trkpt lat="43.55313" lon="1.09309">
        <ele>247</ele>
        <time>2025-12-19T09:22:13Z</time>
      </trkpt>
      <trkpt lat="43.55318" lon="1.09306">
        <ele>247</ele>
        <time>2025-12-19T09:22:14Z</time>
      </trkpt>
      <trkpt lat="43.55322" lon="1.09303">
        <ele>246.8</ele>
        <time>2025-12-19T09:22:15Z</time>
      </trkpt>
      <trkpt lat="43.55327" lon="1.093">
        <ele>246.8</ele>
        <time>2025-12-19T09:22:16Z</time>
      </trkpt>
      <trkpt lat="43.55331" lon="1.09297">
        <ele>247</ele>
        <time>2025-12-19T09:22:17Z</time>
      </trkpt>
      <trkpt lat="43.55336" lon="1.09293">
        <ele>247</ele>
        <time>2025-12-19T09:22:18Z</time>
      </trkpt>
      <trkpt lat="43.55341" lon="1.0929">
        <ele>247</ele>
        <time>2025-12-19T09:22:19Z</time>
      </trkpt>
      <trkpt lat="43.55346" lon="1.09286">
        <ele>247.2</ele>
        <time>2025-12-19T09:22:20Z</time>
      </trkpt>
      <trkpt lat="43.55351" lon="1.09283">
        <ele>247.2</ele>
        <time>2025-12-19T09:22:21Z</time>
      </trkpt>
      <trkpt lat="43.55356" lon="1.0928">
        <ele>247.2</ele>
        <time>2025-12-19T09:22:22Z</time>
      </trkpt>
      <trkpt lat="43.55361" lon="1.09277">
        <ele>247.4</ele>
        <time>2025-12-19T09:22:23Z</time>
      </trkpt>
      <trkpt lat="43.55366" lon="1.09273">
        <ele>247.4</ele>
        <time>2025-12-19T09:22:24Z</time>
      </trkpt>
      <trkpt lat="43.55371" lon="1.09269">
        <ele>247.6</ele>
        <time>2025-12-19T09:22:25Z</time>
      </trkpt>
      <trkpt lat="43.55375" lon="1.09266">
        <ele>247.8</ele>
        <time>2025-12-19T09:22:26Z</time>
      </trkpt>
      <trkpt lat="43.5538" lon="1.09262">
        <ele>248</ele>
        <time>2025-12-19T09:22:27Z</time>
      </trkpt>
      <trkpt lat="43.55385" lon="1.09259">
        <ele>248</ele>
        <time>2025-12-19T09:22:28Z</time>
      </trkpt>
      <trkpt lat="43.55389" lon="1.09255">
        <ele>248.2</ele>
        <time>2025-12-19T09:22:29Z</time>
      </trkpt>
      <trkpt lat="43.55394" lon="1.09251">
        <ele>248.4</ele>
        <time>2025-12-19T09:22:30Z</time>
      </trkpt>
      <trkpt lat="43.554" lon="1.09248">
        <ele>248.6</ele>
        <time>2025-12-19T09:22:31Z</time>
      </trkpt>
      <trkpt lat="43.55405" lon="1.09244">
        <ele>248.8</ele>
        <time>2025-12-19T09:22:32Z</time>
      </trkpt>
      <trkpt lat="43.55409" lon="1.09241">
        <ele>249</ele>
        <time>2025-12-19T09:22:33Z</time>
      </trkpt>
      <trkpt lat="43.55414" lon="1.09237">
        <ele>249.2</ele>
        <time>2025-12-19T09:22:34Z</time>
      </trkpt>
      <trkpt lat="43.55419" lon="1.09234">
        <ele>249.4</ele>
        <time>2025-12-19T09:22:35Z</time>
      </trkpt>
      <trkpt lat="43.55423" lon="1.09231">
        <ele>249.8</ele>
        <time>2025-12-19T09:22:36Z</time>
      </trkpt>
      <trkpt lat="43.55428" lon="1.09228">
        <ele>250</ele>
        <time>2025-12-19T09:22:37Z</time>
      </trkpt>
      <trkpt lat="43.55433" lon="1.09226">
        <ele>250.4</ele>
        <time>2025-12-19T09:22:38Z</time>
      </trkpt>
      <trkpt lat="43.55438" lon="1.09223">
        <ele>250.6</ele>
        <time>2025-12-19T09:22:39Z</time>
      </trkpt>
      <trkpt lat="43.55443" lon="1.0922">
        <ele>251</ele>
        <time>2025-12-19T09:22:40Z</time>
      </trkpt>
      <trkpt lat="43.55447" lon="1.09217">
        <ele>251.2</ele>
        <time>2025-12-19T09:22:41Z</time>
      </trkpt>
      <trkpt lat="43.55452" lon="1.09214">
        <ele>251.4</ele>
        <time>2025-12-19T09:22:42Z</time>
      </trkpt>
      <trkpt lat="43.55457" lon="1.09211">
        <ele>251.4</ele>
        <time>2025-12-19T09:22:43Z</time>
      </trkpt>
      <trkpt lat="43.55463" lon="1.09208">
        <ele>251.4</ele>
        <time>2025-12-19T09:22:44Z</time>
      </trkpt>
      <trkpt lat="43.55467" lon="1.09205">
        <ele>251.6</ele>
        <time>2025-12-19T09:22:45Z</time>
      </trkpt>
      <trkpt lat="43.55472" lon="1.09203">
        <ele>251.6</ele>
        <time>2025-12-19T09:22:46Z</time>
      </trkpt>
      <trkpt lat="43.55478" lon="1.09201">
        <ele>251.6</ele>
        <time>2025-12-19T09:22:47Z</time>
      </trkpt>
      <trkpt lat="43.55483" lon="1.09198">
        <ele>251.6</ele>
        <time>2025-12-19T09:22:48Z</time>
      </trkpt>
      <trkpt lat="43.55489" lon="1.09195">
        <ele>251.6</ele>
        <time>2025-12-19T09:22:49Z</time>
      </trkpt>
      <trkpt lat="43.55494" lon="1.09192">
        <ele>251.6</ele>
        <time>2025-12-19T09:22:50Z</time>
      </trkpt>
      <trkpt lat="43.55501" lon="1.09189">
        <ele>251.4</ele>
        <time>2025-12-19T09:22:51Z</time>
      </trkpt>
      <trkpt lat="43.55507" lon="1.09186">
        <ele>251.4</ele>
        <time>2025-12-19T09:22:52Z</time>
      </trkpt>
      <trkpt lat="43.55513" lon="1.09183">
        <ele>251.4</ele>
        <time>2025-12-19T09:22:53Z</time>
      </trkpt>
      <trkpt lat="43.55519" lon="1.0918">
        <ele>251.2</ele>
        <time>2025-12-19T09:22:54Z</time>
      </trkpt>
      <trkpt lat="43.55526" lon="1.09177">
        <ele>251.2</ele>
        <time>2025-12-19T09:22:55Z</time>
      </trkpt>
      <trkpt lat="43.55532" lon="1.09174">
        <ele>251.2</ele>
        <time>2025-12-19T09:22:56Z</time>
      </trkpt>
      <trkpt lat="43.55538" lon="1.0917">
        <ele>251.2</ele>
        <time>2025-12-19T09:22:57Z</time>
      </trkpt>
      <trkpt lat="43.55545" lon="1.09167">
        <ele>251</ele>
        <time>2025-12-19T09:22:58Z</time>
      </trkpt>
      <trkpt lat="43.55551" lon="1.09164">
        <ele>251</ele>
        <time>2025-12-19T09:22:59Z</time>
      </trkpt>
      <trkpt lat="43.55557" lon="1.09161">
        <ele>250.8</ele>
        <time>2025-12-19T09:23:00Z</time>
      </trkpt>
      <trkpt lat="43.55563" lon="1.09158">
        <ele>251</ele>
        <time>2025-12-19T09:23:01Z</time>
      </trkpt>
      <trkpt lat="43.5557" lon="1.09155">
        <ele>251</ele>
        <time>2025-12-19T09:23:02Z</time>
      </trkpt>
      <trkpt lat="43.55576" lon="1.09152">
        <ele>251.2</ele>
        <time>2025-12-19T09:23:03Z</time>
      </trkpt>
      <trkpt lat="43.55582" lon="1.09148">
        <ele>251.2</ele>
        <time>2025-12-19T09:23:04Z</time>
      </trkpt>
      <trkpt lat="43.55589" lon="1.09145">
        <ele>251.4</ele>
        <time>2025-12-19T09:23:05Z</time>
      </trkpt>
      <trkpt lat="43.55595" lon="1.09142">
        <ele>251.4</ele>
        <time>2025-12-19T09:23:06Z</time>
      </trkpt>
      <trkpt lat="43.55601" lon="1.09139">
        <ele>251.4</ele>
        <time>2025-12-19T09:23:07Z</time>
      </trkpt>
      <trkpt lat="43.55607" lon="1.09136">
        <ele>251.4</ele>
        <time>2025-12-19T09:23:08Z</time>
      </trkpt>
      <trkpt lat="43.55613" lon="1.09133">
        <ele>251.6</ele>
        <time>2025-12-19T09:23:09Z</time>
      </trkpt>
      <trkpt lat="43.55619" lon="1.0913">
        <ele>251.4</ele>
        <time>2025-12-19T09:23:10Z</time>
      </trkpt>
      <trkpt lat="43.55625" lon="1.09126">
        <ele>251.4</ele>
        <time>2025-12-19T09:23:11Z</time>
      </trkpt>
      <trkpt lat="43.55631" lon="1.09122">
        <ele>251.4</ele>
        <time>2025-12-19T09:23:12Z</time>
      </trkpt>
      <trkpt lat="43.55637" lon="1.09119">
        <ele>251.4</ele>
        <time>2025-12-19T09:23:13Z</time>
      </trkpt>
      <trkpt lat="43.55643" lon="1.09116">
        <ele>251.6</ele>
        <time>2025-12-19T09:23:14Z</time>
      </trkpt>
      <trkpt lat="43.5565" lon="1.09113">
        <ele>251.8</ele>
        <time>2025-12-19T09:23:15Z</time>
      </trkpt>
      <trkpt lat="43.55656" lon="1.0911">
        <ele>251.8</ele>
        <time>2025-12-19T09:23:16Z</time>
      </trkpt>
      <trkpt lat="43.55662" lon="1.09106">
        <ele>251.8</ele>
        <time>2025-12-19T09:23:17Z</time>
      </trkpt>
      <trkpt lat="43.55668" lon="1.09103">
        <ele>251.8</ele>
        <time>2025-12-19T09:23:18Z</time>
      </trkpt>
      <trkpt lat="43.55674" lon="1.091">
        <ele>252</ele>
        <time>2025-12-19T09:23:19Z</time>
      </trkpt>
      <trkpt lat="43.5568" lon="1.09097">
        <ele>251.8</ele>
        <time>2025-12-19T09:23:20Z</time>
      </trkpt>
      <trkpt lat="43.55686" lon="1.09094">
        <ele>252</ele>
        <time>2025-12-19T09:23:21Z</time>
      </trkpt>
      <trkpt lat="43.55691" lon="1.09092">
        <ele>252</ele>
        <time>2025-12-19T09:23:22Z</time>
      </trkpt>
      <trkpt lat="43.55697" lon="1.09089">
        <ele>252.2</ele>
        <time>2025-12-19T09:23:23Z</time>
      </trkpt>
      <trkpt lat="43.55703" lon="1.09087">
        <ele>252.2</ele>
        <time>2025-12-19T09:23:24Z</time>
      </trkpt>
      <trkpt lat="43.55708" lon="1.09084">
        <ele>252.2</ele>
        <time>2025-12-19T09:23:25Z</time>
      </trkpt>
      <trkpt lat="43.55714" lon="1.0908">
        <ele>252.4</ele>
        <time>2025-12-19T09:23:26Z</time>
      </trkpt>
      <trkpt lat="43.5572" lon="1.09077">
        <ele>252.4</ele>
        <time>2025-12-19T09:23:27Z</time>
      </trkpt>
      <trkpt lat="43.55726" lon="1.09074">
        <ele>252.6</ele>
        <time>2025-12-19T09:23:28Z</time>
      </trkpt>
      <trkpt lat="43.55732" lon="1.09071">
        <ele>252.8</ele>
        <time>2025-12-19T09:23:29Z</time>
      </trkpt>
      <trkpt lat="43.55738" lon="1.09068">
        <ele>253</ele>
        <time>2025-12-19T09:23:30Z</time>
      </trkpt>
      <trkpt lat="43.55743" lon="1.09066">
        <ele>253.2</ele>
        <time>2025-12-19T09:23:31Z</time>
      </trkpt>
      <trkpt lat="43.55749" lon="1.09063">
        <ele>253.2</ele>
        <time>2025-12-19T09:23:32Z</time>
      </trkpt>
      <trkpt lat="43.55754" lon="1.0906">
        <ele>253.4</ele>
        <time>2025-12-19T09:23:33Z</time>
      </trkpt>
      <trkpt lat="43.5576" lon="1.09057">
        <ele>253.6</ele>
        <time>2025-12-19T09:23:34Z</time>
      </trkpt>
      <trkpt lat="43.55765" lon="1.09054">
        <ele>254</ele>
        <time>2025-12-19T09:23:35Z</time>
      </trkpt>
      <trkpt lat="43.55771" lon="1.09052">
        <ele>254.2</ele>
        <time>2025-12-19T09:23:36Z</time>
      </trkpt>
      <trkpt lat="43.55777" lon="1.0905">
        <ele>254.4</ele>
        <time>2025-12-19T09:23:37Z</time>
      </trkpt>
      <trkpt lat="43.55782" lon="1.09048">
        <ele>254.6</ele>
        <time>2025-12-19T09:23:38Z</time>
      </trkpt>
      <trkpt lat="43.55787" lon="1.09047">
        <ele>255</ele>
        <time>2025-12-19T09:23:39Z</time>
      </trkpt>
      <trkpt lat="43.55793" lon="1.09046">
        <ele>255.2</ele>
        <time>2025-12-19T09:23:40Z</time>
      </trkpt>
      <trkpt lat="43.55799" lon="1.09046">
        <ele>255.4</ele>
        <time>2025-12-19T09:23:41Z</time>
      </trkpt>
      <trkpt lat="43.55804" lon="1.09047">
        <ele>255.6</ele>
        <time>2025-12-19T09:23:42Z</time>
      </trkpt>
      <trkpt lat="43.55809" lon="1.09049">
        <ele>255.8</ele>
        <time>2025-12-19T09:23:43Z</time>
      </trkpt>
      <trkpt lat="43.55814" lon="1.09051">
        <ele>256</ele>
        <time>2025-12-19T09:23:44Z</time>
      </trkpt>
      <trkpt lat="43.55819" lon="1.09054">
        <ele>256.2</ele>
        <time>2025-12-19T09:23:45Z</time>
      </trkpt>
      <trkpt lat="43.55824" lon="1.09057">
        <ele>256.6</ele>
        <time>2025-12-19T09:23:46Z</time>
      </trkpt>
      <trkpt lat="43.55828" lon="1.09061">
        <ele>256.8</ele>
        <time>2025-12-19T09:23:47Z</time>
      </trkpt>
      <trkpt lat="43.55833" lon="1.09064">
        <ele>257</ele>
        <time>2025-12-19T09:23:48Z</time>
      </trkpt>
      <trkpt lat="43.55837" lon="1.09067">
        <ele>257.2</ele>
        <time>2025-12-19T09:23:49Z</time>
      </trkpt>
      <trkpt lat="43.55842" lon="1.0907">
        <ele>257.4</ele>
        <time>2025-12-19T09:23:50Z</time>
      </trkpt>
      <trkpt lat="43.55846" lon="1.09073">
        <ele>257.8</ele>
        <time>2025-12-19T09:23:51Z</time>
      </trkpt>
      <trkpt lat="43.55851" lon="1.09077">
        <ele>258</ele>
        <time>2025-12-19T09:23:52Z</time>
      </trkpt>
      <trkpt lat="43.55856" lon="1.0908">
        <ele>258.2</ele>
        <time>2025-12-19T09:23:53Z</time>
      </trkpt>
      <trkpt lat="43.55861" lon="1.09083">
        <ele>258.4</ele>
        <time>2025-12-19T09:23:54Z</time>
      </trkpt>
      <trkpt lat="43.55866" lon="1.09086">
        <ele>258.6</ele>
        <time>2025-12-19T09:23:55Z</time>
      </trkpt>
      <trkpt lat="43.55871" lon="1.09089">
        <ele>258.8</ele>
        <time>2025-12-19T09:23:56Z</time>
      </trkpt>
      <trkpt lat="43.55876" lon="1.09092">
        <ele>258.8</ele>
        <time>2025-12-19T09:23:57Z</time>
      </trkpt>
      <trkpt lat="43.55882" lon="1.09095">
        <ele>259</ele>
        <time>2025-12-19T09:23:58Z</time>
      </trkpt>
      <trkpt lat="43.55887" lon="1.09098">
        <ele>259</ele>
        <time>2025-12-19T09:23:59Z</time>
      </trkpt>
      <trkpt lat="43.55893" lon="1.09102">
        <ele>259</ele>
        <time>2025-12-19T09:24:00Z</time>
      </trkpt>
      <trkpt lat="43.55899" lon="1.09105">
        <ele>258.8</ele>
        <time>2025-12-19T09:24:01Z</time>
      </trkpt>
      <trkpt lat="43.55905" lon="1.09107">
        <ele>258.6</ele>
        <time>2025-12-19T09:24:02Z</time>
      </trkpt>
      <trkpt lat="43.55912" lon="1.0911">
        <ele>258.6</ele>
        <time>2025-12-19T09:24:03Z</time>
      </trkpt>
      <trkpt lat="43.55918" lon="1.09112">
        <ele>258.4</ele>
        <time>2025-12-19T09:24:04Z</time>
      </trkpt>
      <trkpt lat="43.55925" lon="1.09114">
        <ele>258.2</ele>
        <time>2025-12-19T09:24:05Z</time>
      </trkpt>
      <trkpt lat="43.55932" lon="1.09115">
        <ele>258.2</ele>
        <time>2025-12-19T09:24:06Z</time>
      </trkpt>
      <trkpt lat="43.55939" lon="1.09116">
        <ele>258</ele>
        <time>2025-12-19T09:24:07Z</time>
      </trkpt>
      <trkpt lat="43.55945" lon="1.09117">
        <ele>258</ele>
        <time>2025-12-19T09:24:08Z</time>
      </trkpt>
      <trkpt lat="43.55952" lon="1.09117">
        <ele>258</ele>
        <time>2025-12-19T09:24:09Z</time>
      </trkpt>
      <trkpt lat="43.55958" lon="1.09117">
        <ele>258.2</ele>
        <time>2025-12-19T09:24:10Z</time>
      </trkpt>
      <trkpt lat="43.55964" lon="1.09116">
        <ele>258.2</ele>
        <time>2025-12-19T09:24:11Z</time>
      </trkpt>
      <trkpt lat="43.55971" lon="1.09115">
        <ele>258.4</ele>
        <time>2025-12-19T09:24:12Z</time>
      </trkpt>
      <trkpt lat="43.55976" lon="1.09113">
        <ele>258.6</ele>
        <time>2025-12-19T09:24:13Z</time>
      </trkpt>
      <trkpt lat="43.55982" lon="1.0911">
        <ele>258.6</ele>
        <time>2025-12-19T09:24:14Z</time>
      </trkpt>
      <trkpt lat="43.55987" lon="1.09107">
        <ele>258.8</ele>
        <time>2025-12-19T09:24:15Z</time>
      </trkpt>
      <trkpt lat="43.55993" lon="1.09104">
        <ele>259</ele>
        <time>2025-12-19T09:24:16Z</time>
      </trkpt>
      <trkpt lat="43.55998" lon="1.09102">
        <ele>259.2</ele>
        <time>2025-12-19T09:24:17Z</time>
      </trkpt>
      <trkpt lat="43.56004" lon="1.091">
        <ele>259.4</ele>
        <time>2025-12-19T09:24:18Z</time>
      </trkpt>
      <trkpt lat="43.5601" lon="1.09097">
        <ele>259.6</ele>
        <time>2025-12-19T09:24:19Z</time>
      </trkpt>
      <trkpt lat="43.56015" lon="1.09095">
        <ele>259.8</ele>
        <time>2025-12-19T09:24:20Z</time>
      </trkpt>
      <trkpt lat="43.56021" lon="1.09092">
        <ele>260</ele>
        <time>2025-12-19T09:24:21Z</time>
      </trkpt>
      <trkpt lat="43.56026" lon="1.09088">
        <ele>260.2</ele>
        <time>2025-12-19T09:24:22Z</time>
      </trkpt>
      <trkpt lat="43.56031" lon="1.09084">
        <ele>260.4</ele>
        <time>2025-12-19T09:24:23Z</time>
      </trkpt>
      <trkpt lat="43.56036" lon="1.0908">
        <ele>260.6</ele>
        <time>2025-12-19T09:24:24Z</time>
      </trkpt>
      <trkpt lat="43.5604" lon="1.09076">
        <ele>260.8</ele>
        <time>2025-12-19T09:24:25Z</time>
      </trkpt>
      <trkpt lat="43.56045" lon="1.0907">
        <ele>261</ele>
        <time>2025-12-19T09:24:26Z</time>
      </trkpt>
      <trkpt lat="43.56048" lon="1.09064">
        <ele>261</ele>
        <time>2025-12-19T09:24:27Z</time>
      </trkpt>
      <trkpt lat="43.56052" lon="1.09058">
        <ele>261.2</ele>
        <time>2025-12-19T09:24:28Z</time>
      </trkpt>
      <trkpt lat="43.56055" lon="1.09052">
        <ele>261.4</ele>
        <time>2025-12-19T09:24:29Z</time>
      </trkpt>
      <trkpt lat="43.56058" lon="1.09047">
        <ele>261.6</ele>
        <time>2025-12-19T09:24:30Z</time>
      </trkpt>
      <trkpt lat="43.56061" lon="1.0904">
        <ele>261.8</ele>
        <time>2025-12-19T09:24:31Z</time>
      </trkpt>
      <trkpt lat="43.56064" lon="1.09034">
        <ele>262.2</ele>
        <time>2025-12-19T09:24:32Z</time>
      </trkpt>
      <trkpt lat="43.56067" lon="1.09028">
        <ele>262.6</ele>
        <time>2025-12-19T09:24:33Z</time>
      </trkpt>
      <trkpt lat="43.5607" lon="1.09023">
        <ele>262.8</ele>
        <time>2025-12-19T09:24:34Z</time>
      </trkpt>
      <trkpt lat="43.56073" lon="1.09017">
        <ele>263</ele>
        <time>2025-12-19T09:24:35Z</time>
      </trkpt>
      <trkpt lat="43.56075" lon="1.09012">
        <ele>263.4</ele>
        <time>2025-12-19T09:24:36Z</time>
      </trkpt>
      <trkpt lat="43.56078" lon="1.09006">
        <ele>263.6</ele>
        <time>2025-12-19T09:24:37Z</time>
      </trkpt>
      <trkpt lat="43.5608" lon="1.09">
        <ele>264</ele>
        <time>2025-12-19T09:24:38Z</time>
      </trkpt>
      <trkpt lat="43.56083" lon="1.08995">
        <ele>264.4</ele>
        <time>2025-12-19T09:24:39Z</time>
      </trkpt>
      <trkpt lat="43.56085" lon="1.08989">
        <ele>264.6</ele>
        <time>2025-12-19T09:24:40Z</time>
      </trkpt>
      <trkpt lat="43.56088" lon="1.08984">
        <ele>264.8</ele>
        <time>2025-12-19T09:24:41Z</time>
      </trkpt>
      <trkpt lat="43.56091" lon="1.08978">
        <ele>265.2</ele>
        <time>2025-12-19T09:24:42Z</time>
      </trkpt>
      <trkpt lat="43.56093" lon="1.08972">
        <ele>265.4</ele>
        <time>2025-12-19T09:24:43Z</time>
      </trkpt>
      <trkpt lat="43.56096" lon="1.08966">
        <ele>265.6</ele>
        <time>2025-12-19T09:24:44Z</time>
      </trkpt>
      <trkpt lat="43.56099" lon="1.0896">
        <ele>265.6</ele>
        <time>2025-12-19T09:24:45Z</time>
      </trkpt>
      <trkpt lat="43.56102" lon="1.08953">
        <ele>265.6</ele>
        <time>2025-12-19T09:24:46Z</time>
      </trkpt>
      <trkpt lat="43.56106" lon="1.08946">
        <ele>265.6</ele>
        <time>2025-12-19T09:24:47Z</time>
      </trkpt>
      <trkpt lat="43.56109" lon="1.08939">
        <ele>265.4</ele>
        <time>2025-12-19T09:24:48Z</time>
      </trkpt>
      <trkpt lat="43.56113" lon="1.08931">
        <ele>265.2</ele>
        <time>2025-12-19T09:24:49Z</time>
      </trkpt>
      <trkpt lat="43.56117" lon="1.08923">
        <ele>265</ele>
        <time>2025-12-19T09:24:50Z</time>
      </trkpt>
      <trkpt lat="43.56121" lon="1.08915">
        <ele>264.8</ele>
        <time>2025-12-19T09:24:51Z</time>
      </trkpt>
      <trkpt lat="43.56125" lon="1.08907">
        <ele>264.4</ele>
        <time>2025-12-19T09:24:52Z</time>
      </trkpt>
      <trkpt lat="43.56129" lon="1.08899">
        <ele>264.2</ele>
        <time>2025-12-19T09:24:53Z</time>
      </trkpt>
      <trkpt lat="43.56133" lon="1.0889">
        <ele>264</ele>
        <time>2025-12-19T09:24:54Z</time>
      </trkpt>
      <trkpt lat="43.56137" lon="1.08881">
        <ele>263.8</ele>
        <time>2025-12-19T09:24:55Z</time>
      </trkpt>
      <trkpt lat="43.56141" lon="1.08873">
        <ele>263.4</ele>
        <time>2025-12-19T09:24:56Z</time>
      </trkpt>
      <trkpt lat="43.56145" lon="1.08864">
        <ele>263.2</ele>
        <time>2025-12-19T09:24:57Z</time>
      </trkpt>
      <trkpt lat="43.5615" lon="1.08855">
        <ele>262.8</ele>
        <time>2025-12-19T09:24:58Z</time>
      </trkpt>
      <trkpt lat="43.56154" lon="1.08847">
        <ele>262.4</ele>
        <time>2025-12-19T09:24:59Z</time>
      </trkpt>
      <trkpt lat="43.56157" lon="1.0884">
        <ele>262.2</ele>
        <time>2025-12-19T09:25:00Z</time>
      </trkpt>
      <trkpt lat="43.5616" lon="1.08834">
        <ele>262</ele>
        <time>2025-12-19T09:25:01Z</time>
      </trkpt>
      <trkpt lat="43.56162" lon="1.08829">
        <ele>261.8</ele>
        <time>2025-12-19T09:25:02Z</time>
      </trkpt>
      <trkpt lat="43.56164" lon="1.08825">
        <ele>261.6</ele>
        <time>2025-12-19T09:25:03Z</time>
      </trkpt>
      <trkpt lat="43.56165" lon="1.08822">
        <ele>261.6</ele>
        <time>2025-12-19T09:25:04Z</time>
      </trkpt>
      <trkpt lat="43.56166" lon="1.08821">
        <ele>261.4</ele>
        <time>2025-12-19T09:25:05Z</time>
      </trkpt>
      <trkpt lat="43.56167" lon="1.08819">
        <ele>261.4</ele>
        <time>2025-12-19T09:25:06Z</time>
      </trkpt>
      <trkpt lat="43.56168" lon="1.08817">
        <ele>261.2</ele>
        <time>2025-12-19T09:25:07Z</time>
      </trkpt>
      <trkpt lat="43.56169" lon="1.08814">
        <ele>261.2</ele>
        <time>2025-12-19T09:25:08Z</time>
      </trkpt>
      <trkpt lat="43.56171" lon="1.08811">
        <ele>261</ele>
        <time>2025-12-19T09:25:09Z</time>
      </trkpt>
      <trkpt lat="43.56172" lon="1.08809">
        <ele>261</ele>
        <time>2025-12-19T09:25:10Z</time>
      </trkpt>
      <trkpt lat="43.56173" lon="1.08808">
        <ele>260.8</ele>
        <time>2025-12-19T09:25:11Z</time>
      </trkpt>
      <trkpt lat="43.56173" lon="1.08807">
        <ele>260.8</ele>
        <time>2025-12-19T09:25:12Z</time>
      </trkpt>
      <trkpt lat="43.56173" lon="1.08807">
        <ele>260.6</ele>
        <time>2025-12-19T09:25:13Z</time>
      </trkpt>
      <trkpt lat="43.56175" lon="1.08804">
        <ele>260.4</ele>
        <time>2025-12-19T09:25:22Z</time>
      </trkpt>
      <trkpt lat="43.56177" lon="1.08801">
        <ele>260.4</ele>
        <time>2025-12-19T09:25:23Z</time>
      </trkpt>
      <trkpt lat="43.56179" lon="1.08798">
        <ele>260.4</ele>
        <time>2025-12-19T09:25:24Z</time>
      </trkpt>
      <trkpt lat="43.56181" lon="1.08793">
        <ele>260.2</ele>
        <time>2025-12-19T09:25:25Z</time>
      </trkpt>
      <trkpt lat="43.56184" lon="1.08788">
        <ele>260.2</ele>
        <time>2025-12-19T09:25:26Z</time>
      </trkpt>
      <trkpt lat="43.56187" lon="1.08783">
        <ele>260</ele>
        <time>2025-12-19T09:25:27Z</time>
      </trkpt>
      <trkpt lat="43.56191" lon="1.08778">
        <ele>259.8</ele>
        <time>2025-12-19T09:25:28Z</time>
      </trkpt>
      <trkpt lat="43.56195" lon="1.08773">
        <ele>259.4</ele>
        <time>2025-12-19T09:25:29Z</time>
      </trkpt>
      <trkpt lat="43.562" lon="1.08768">
        <ele>259.2</ele>
        <time>2025-12-19T09:25:30Z</time>
      </trkpt>
      <trkpt lat="43.56205" lon="1.08763">
        <ele>258.8</ele>
        <time>2025-12-19T09:25:31Z</time>
      </trkpt>
      <trkpt lat="43.56211" lon="1.08759">
        <ele>258.4</ele>
        <time>2025-12-19T09:25:32Z</time>
      </trkpt>
      <trkpt lat="43.56217" lon="1.08753">
        <ele>258</ele>
        <time>2025-12-19T09:25:33Z</time>
      </trkpt>
      <trkpt lat="43.56224" lon="1.08748">
        <ele>257.8</ele>
        <time>2025-12-19T09:25:34Z</time>
      </trkpt>
      <trkpt lat="43.56231" lon="1.08742">
        <ele>257.4</ele>
        <time>2025-12-19T09:25:35Z</time>
      </trkpt>
      <trkpt lat="43.56237" lon="1.08736">
        <ele>256.8</ele>
        <time>2025-12-19T09:25:36Z</time>
      </trkpt>
      <trkpt lat="43.56245" lon="1.0873">
        <ele>256.4</ele>
        <time>2025-12-19T09:25:37Z</time>
      </trkpt>
      <trkpt lat="43.56252" lon="1.08724">
        <ele>256</ele>
        <time>2025-12-19T09:25:38Z</time>
      </trkpt>
      <trkpt lat="43.5626" lon="1.08718">
        <ele>255.6</ele>
        <time>2025-12-19T09:25:39Z</time>
      </trkpt>
      <trkpt lat="43.56267" lon="1.08712">
        <ele>255.2</ele>
        <time>2025-12-19T09:25:40Z</time>
      </trkpt>
      <trkpt lat="43.56275" lon="1.08705">
        <ele>254.8</ele>
        <time>2025-12-19T09:25:41Z</time>
      </trkpt>
      <trkpt lat="43.56284" lon="1.08698">
        <ele>254</ele>
        <time>2025-12-19T09:25:42Z</time>
      </trkpt>
      <trkpt lat="43.56292" lon="1.08692">
        <ele>253.4</ele>
        <time>2025-12-19T09:25:43Z</time>
      </trkpt>
      <trkpt lat="43.563" lon="1.08684">
        <ele>252.8</ele>
        <time>2025-12-19T09:25:44Z</time>
      </trkpt>
      <trkpt lat="43.56308" lon="1.08676">
        <ele>252.2</ele>
        <time>2025-12-19T09:25:45Z</time>
      </trkpt>
      <trkpt lat="43.56316" lon="1.08666">
        <ele>251.4</ele>
        <time>2025-12-19T09:25:46Z</time>
      </trkpt>
      <trkpt lat="43.56324" lon="1.08657">
        <ele>250.8</ele>
        <time>2025-12-19T09:25:47Z</time>
      </trkpt>
      <trkpt lat="43.56331" lon="1.08647">
        <ele>250.2</ele>
        <time>2025-12-19T09:25:48Z</time>
      </trkpt>
      <trkpt lat="43.56339" lon="1.08636">
        <ele>249.6</ele>
        <time>2025-12-19T09:25:49Z</time>
      </trkpt>
      <trkpt lat="43.56347" lon="1.08625">
        <ele>249</ele>
        <time>2025-12-19T09:25:50Z</time>
      </trkpt>
      <trkpt lat="43.56355" lon="1.08614">
        <ele>248.4</ele>
        <time>2025-12-19T09:25:51Z</time>
      </trkpt>
      <trkpt lat="43.56363" lon="1.08603">
        <ele>247.4</ele>
        <time>2025-12-19T09:25:52Z</time>
      </trkpt>
      <trkpt lat="43.56371" lon="1.08592">
        <ele>246.8</ele>
        <time>2025-12-19T09:25:53Z</time>
      </trkpt>
      <trkpt lat="43.56378" lon="1.0858">
        <ele>246</ele>
        <time>2025-12-19T09:25:54Z</time>
      </trkpt>
      <trkpt lat="43.56386" lon="1.08569">
        <ele>245.2</ele>
        <time>2025-12-19T09:25:55Z</time>
      </trkpt>
      <trkpt lat="43.56394" lon="1.08557">
        <ele>244.6</ele>
        <time>2025-12-19T09:25:56Z</time>
      </trkpt>
      <trkpt lat="43.56402" lon="1.08546">
        <ele>243.6</ele>
        <time>2025-12-19T09:25:57Z</time>
      </trkpt>
      <trkpt lat="43.5641" lon="1.08534">
        <ele>243</ele>
        <time>2025-12-19T09:25:58Z</time>
      </trkpt>
      <trkpt lat="43.56418" lon="1.08522">
        <ele>242.4</ele>
        <time>2025-12-19T09:25:59Z</time>
      </trkpt>
      <trkpt lat="43.56426" lon="1.08512">
        <ele>241.8</ele>
        <time>2025-12-19T09:26:00Z</time>
      </trkpt>
      <trkpt lat="43.56436" lon="1.08502">
        <ele>241</ele>
        <time>2025-12-19T09:26:01Z</time>
      </trkpt>
      <trkpt lat="43.56446" lon="1.08494">
        <ele>240.4</ele>
        <time>2025-12-19T09:26:02Z</time>
      </trkpt>
      <trkpt lat="43.56457" lon="1.08487">
        <ele>240</ele>
        <time>2025-12-19T09:26:03Z</time>
      </trkpt>
      <trkpt lat="43.56467" lon="1.08482">
        <ele>239.4</ele>
        <time>2025-12-19T09:26:04Z</time>
      </trkpt>
      <trkpt lat="43.56477" lon="1.08478">
        <ele>239</ele>
        <time>2025-12-19T09:26:05Z</time>
      </trkpt>
      <trkpt lat="43.56488" lon="1.08475">
        <ele>238.6</ele>
        <time>2025-12-19T09:26:06Z</time>
      </trkpt>
      <trkpt lat="43.56498" lon="1.08473">
        <ele>238.4</ele>
        <time>2025-12-19T09:26:07Z</time>
      </trkpt>
      <trkpt lat="43.56508" lon="1.0847">
        <ele>238.2</ele>
        <time>2025-12-19T09:26:08Z</time>
      </trkpt>
      <trkpt lat="43.56518" lon="1.08468">
        <ele>238.2</ele>
        <time>2025-12-19T09:26:09Z</time>
      </trkpt>
      <trkpt lat="43.56528" lon="1.08465">
        <ele>238</ele>
        <time>2025-12-19T09:26:10Z</time>
      </trkpt>
      <trkpt lat="43.56537" lon="1.08463">
        <ele>238</ele>
        <time>2025-12-19T09:26:11Z</time>
      </trkpt>
      <trkpt lat="43.56547" lon="1.08461">
        <ele>238</ele>
        <time>2025-12-19T09:26:12Z</time>
      </trkpt>
      <trkpt lat="43.56556" lon="1.08459">
        <ele>238</ele>
        <time>2025-12-19T09:26:13Z</time>
      </trkpt>
      <trkpt lat="43.56565" lon="1.08457">
        <ele>238</ele>
        <time>2025-12-19T09:26:14Z</time>
      </trkpt>
      <trkpt lat="43.56574" lon="1.08455">
        <ele>238</ele>
        <time>2025-12-19T09:26:15Z</time>
      </trkpt>
      <trkpt lat="43.56583" lon="1.08452">
        <ele>238</ele>
        <time>2025-12-19T09:26:16Z</time>
      </trkpt>
      <trkpt lat="43.56591" lon="1.0845">
        <ele>238</ele>
        <time>2025-12-19T09:26:17Z</time>
      </trkpt>
      <trkpt lat="43.566" lon="1.08449">
        <ele>238</ele>
        <time>2025-12-19T09:26:18Z</time>
      </trkpt>
      <trkpt lat="43.5661" lon="1.08447">
        <ele>238</ele>
        <time>2025-12-19T09:26:19Z</time>
      </trkpt>
      <trkpt lat="43.56619" lon="1.08444">
        <ele>238</ele>
        <time>2025-12-19T09:26:20Z</time>
      </trkpt>
      <trkpt lat="43.56628" lon="1.08442">
        <ele>237.8</ele>
        <time>2025-12-19T09:26:21Z</time>
      </trkpt>
      <trkpt lat="43.56636" lon="1.0844">
        <ele>237.8</ele>
        <time>2025-12-19T09:26:22Z</time>
      </trkpt>
      <trkpt lat="43.56646" lon="1.08437">
        <ele>237.6</ele>
        <time>2025-12-19T09:26:23Z</time>
      </trkpt>
      <trkpt lat="43.56655" lon="1.08434">
        <ele>237</ele>
        <time>2025-12-19T09:26:24Z</time>
      </trkpt>
      <trkpt lat="43.56664" lon="1.08429">
        <ele>236.8</ele>
        <time>2025-12-19T09:26:25Z</time>
      </trkpt>
      <trkpt lat="43.56673" lon="1.08425">
        <ele>236.2</ele>
        <time>2025-12-19T09:26:26Z</time>
      </trkpt>
      <trkpt lat="43.56682" lon="1.0842">
        <ele>235.8</ele>
        <time>2025-12-19T09:26:27Z</time>
      </trkpt>
      <trkpt lat="43.56691" lon="1.08416">
        <ele>235.2</ele>
        <time>2025-12-19T09:26:28Z</time>
      </trkpt>
      <trkpt lat="43.56701" lon="1.08413">
        <ele>234.6</ele>
        <time>2025-12-19T09:26:29Z</time>
      </trkpt>
      <trkpt lat="43.56711" lon="1.08411">
        <ele>234.2</ele>
        <time>2025-12-19T09:26:30Z</time>
      </trkpt>
      <trkpt lat="43.56721" lon="1.08411">
        <ele>233.6</ele>
        <time>2025-12-19T09:26:31Z</time>
      </trkpt>
      <trkpt lat="43.5673" lon="1.08413">
        <ele>233.4</ele>
        <time>2025-12-19T09:26:32Z</time>
      </trkpt>
      <trkpt lat="43.56739" lon="1.08414">
        <ele>233</ele>
        <time>2025-12-19T09:26:33Z</time>
      </trkpt>
      <trkpt lat="43.56748" lon="1.08416">
        <ele>232.6</ele>
        <time>2025-12-19T09:26:34Z</time>
      </trkpt>
      <trkpt lat="43.56757" lon="1.08419">
        <ele>232.4</ele>
        <time>2025-12-19T09:26:35Z</time>
      </trkpt>
      <trkpt lat="43.56765" lon="1.08422">
        <ele>232.2</ele>
        <time>2025-12-19T09:26:36Z</time>
      </trkpt>
      <trkpt lat="43.56775" lon="1.08425">
        <ele>232</ele>
        <time>2025-12-19T09:26:37Z</time>
      </trkpt>
      <trkpt lat="43.56784" lon="1.08428">
        <ele>231.8</ele>
        <time>2025-12-19T09:26:38Z</time>
      </trkpt>
      <trkpt lat="43.56793" lon="1.08431">
        <ele>231.6</ele>
        <time>2025-12-19T09:26:39Z</time>
      </trkpt>
      <trkpt lat="43.56802" lon="1.08434">
        <ele>231.6</ele>
        <time>2025-12-19T09:26:40Z</time>
      </trkpt>
      <trkpt lat="43.56811" lon="1.08437">
        <ele>231.4</ele>
        <time>2025-12-19T09:26:41Z</time>
      </trkpt>
      <trkpt lat="43.5682" lon="1.0844">
        <ele>231.2</ele>
        <time>2025-12-19T09:26:42Z</time>
      </trkpt>
      <trkpt lat="43.5683" lon="1.08443">
        <ele>230.8</ele>
        <time>2025-12-19T09:26:43Z</time>
      </trkpt>
      <trkpt lat="43.56839" lon="1.08446">
        <ele>230.4</ele>
        <time>2025-12-19T09:26:44Z</time>
      </trkpt>
      <trkpt lat="43.56848" lon="1.08449">
        <ele>230</ele>
        <time>2025-12-19T09:26:45Z</time>
      </trkpt>
      <trkpt lat="43.56857" lon="1.08453">
        <ele>229.8</ele>
        <time>2025-12-19T09:26:46Z</time>
      </trkpt>
      <trkpt lat="43.56866" lon="1.08457">
        <ele>229.4</ele>
        <time>2025-12-19T09:26:47Z</time>
      </trkpt>
      <trkpt lat="43.56875" lon="1.0846">
        <ele>229</ele>
        <time>2025-12-19T09:26:48Z</time>
      </trkpt>
      <trkpt lat="43.56883" lon="1.08464">
        <ele>228.8</ele>
        <time>2025-12-19T09:26:49Z</time>
      </trkpt>
      <trkpt lat="43.56891" lon="1.08468">
        <ele>228.6</ele>
        <time>2025-12-19T09:26:50Z</time>
      </trkpt>
      <trkpt lat="43.56898" lon="1.08473">
        <ele>228.6</ele>
        <time>2025-12-19T09:26:51Z</time>
      </trkpt>
      <trkpt lat="43.56906" lon="1.08478">
        <ele>228.4</ele>
        <time>2025-12-19T09:26:52Z</time>
      </trkpt>
      <trkpt lat="43.56913" lon="1.08484">
        <ele>228.6</ele>
        <time>2025-12-19T09:26:53Z</time>
      </trkpt>
      <trkpt lat="43.56919" lon="1.0849">
        <ele>228.6</ele>
        <time>2025-12-19T09:26:54Z</time>
      </trkpt>
      <trkpt lat="43.56926" lon="1.08496">
        <ele>228.8</ele>
        <time>2025-12-19T09:26:55Z</time>
      </trkpt>
      <trkpt lat="43.56933" lon="1.08503">
        <ele>229</ele>
        <time>2025-12-19T09:26:56Z</time>
      </trkpt>
      <trkpt lat="43.56939" lon="1.08509">
        <ele>229.2</ele>
        <time>2025-12-19T09:26:57Z</time>
      </trkpt>
      <trkpt lat="43.56945" lon="1.08516">
        <ele>229.2</ele>
        <time>2025-12-19T09:26:58Z</time>
      </trkpt>
      <trkpt lat="43.56951" lon="1.08522">
        <ele>229.2</ele>
        <time>2025-12-19T09:26:59Z</time>
      </trkpt>
      <trkpt lat="43.56958" lon="1.0853">
        <ele>229.2</ele>
        <time>2025-12-19T09:27:00Z</time>
      </trkpt>
      <trkpt lat="43.56964" lon="1.08537">
        <ele>229.2</ele>
        <time>2025-12-19T09:27:01Z</time>
      </trkpt>
      <trkpt lat="43.5697" lon="1.08545">
        <ele>229</ele>
        <time>2025-12-19T09:27:02Z</time>
      </trkpt>
      <trkpt lat="43.56976" lon="1.08553">
        <ele>229</ele>
        <time>2025-12-19T09:27:03Z</time>
      </trkpt>
      <trkpt lat="43.56982" lon="1.08561">
        <ele>229</ele>
        <time>2025-12-19T09:27:04Z</time>
      </trkpt>
      <trkpt lat="43.56988" lon="1.08569">
        <ele>228.8</ele>
        <time>2025-12-19T09:27:05Z</time>
      </trkpt>
      <trkpt lat="43.56994" lon="1.08577">
        <ele>228.6</ele>
        <time>2025-12-19T09:27:06Z</time>
      </trkpt>
      <trkpt lat="43.57" lon="1.08585">
        <ele>228.6</ele>
        <time>2025-12-19T09:27:07Z</time>
      </trkpt>
      <trkpt lat="43.57005" lon="1.08593">
        <ele>228.6</ele>
        <time>2025-12-19T09:27:08Z</time>
      </trkpt>
      <trkpt lat="43.5701" lon="1.08601">
        <ele>228.6</ele>
        <time>2025-12-19T09:27:09Z</time>
      </trkpt>
      <trkpt lat="43.57015" lon="1.08609">
        <ele>228.6</ele>
        <time>2025-12-19T09:27:10Z</time>
      </trkpt>
      <trkpt lat="43.5702" lon="1.08617">
        <ele>228.8</ele>
        <time>2025-12-19T09:27:11Z</time>
      </trkpt>
      <trkpt lat="43.57025" lon="1.08625">
        <ele>228.8</ele>
        <time>2025-12-19T09:27:12Z</time>
      </trkpt>
      <trkpt lat="43.5703" lon="1.08632">
        <ele>229</ele>
        <time>2025-12-19T09:27:13Z</time>
      </trkpt>
      <trkpt lat="43.57035" lon="1.08639">
        <ele>229.2</ele>
        <time>2025-12-19T09:27:14Z</time>
      </trkpt>
      <trkpt lat="43.5704" lon="1.08646">
        <ele>229.4</ele>
        <time>2025-12-19T09:27:15Z</time>
      </trkpt>
      <trkpt lat="43.57044" lon="1.08653">
        <ele>229.6</ele>
        <time>2025-12-19T09:27:16Z</time>
      </trkpt>
      <trkpt lat="43.57049" lon="1.0866">
        <ele>229.8</ele>
        <time>2025-12-19T09:27:17Z</time>
      </trkpt>
      <trkpt lat="43.57054" lon="1.08667">
        <ele>230</ele>
        <time>2025-12-19T09:27:18Z</time>
      </trkpt>
      <trkpt lat="43.57059" lon="1.08674">
        <ele>230.2</ele>
        <time>2025-12-19T09:27:19Z</time>
      </trkpt>
      <trkpt lat="43.57064" lon="1.08682">
        <ele>230.2</ele>
        <time>2025-12-19T09:27:20Z</time>
      </trkpt>
      <trkpt lat="43.57068" lon="1.08689">
        <ele>230</ele>
        <time>2025-12-19T09:27:21Z</time>
      </trkpt>
      <trkpt lat="43.57073" lon="1.08697">
        <ele>230</ele>
        <time>2025-12-19T09:27:22Z</time>
      </trkpt>
      <trkpt lat="43.57078" lon="1.08705">
        <ele>229.8</ele>
        <time>2025-12-19T09:27:23Z</time>
      </trkpt>
      <trkpt lat="43.57084" lon="1.08713">
        <ele>229.4</ele>
        <time>2025-12-19T09:27:24Z</time>
      </trkpt>
      <trkpt lat="43.5709" lon="1.08721">
        <ele>229</ele>
        <time>2025-12-19T09:27:25Z</time>
      </trkpt>
      <trkpt lat="43.57095" lon="1.08729">
        <ele>228.8</ele>
        <time>2025-12-19T09:27:26Z</time>
      </trkpt>
      <trkpt lat="43.57102" lon="1.08737">
        <ele>228.4</ele>
        <time>2025-12-19T09:27:27Z</time>
      </trkpt>
      <trkpt lat="43.57108" lon="1.08745">
        <ele>228</ele>
        <time>2025-12-19T09:27:28Z</time>
      </trkpt>
      <trkpt lat="43.57115" lon="1.08754">
        <ele>227.4</ele>
        <time>2025-12-19T09:27:29Z</time>
      </trkpt>
      <trkpt lat="43.57122" lon="1.08762">
        <ele>227</ele>
        <time>2025-12-19T09:27:30Z</time>
      </trkpt>
      <trkpt lat="43.57129" lon="1.0877">
        <ele>226.4</ele>
        <time>2025-12-19T09:27:31Z</time>
      </trkpt>
      <trkpt lat="43.57136" lon="1.08778">
        <ele>225.6</ele>
        <time>2025-12-19T09:27:32Z</time>
      </trkpt>
      <trkpt lat="43.57144" lon="1.08786">
        <ele>225.2</ele>
        <time>2025-12-19T09:27:33Z</time>
      </trkpt>
      <trkpt lat="43.57152" lon="1.08794">
        <ele>224.8</ele>
        <time>2025-12-19T09:27:34Z</time>
      </trkpt>
      <trkpt lat="43.57159" lon="1.08802">
        <ele>224.2</ele>
        <time>2025-12-19T09:27:35Z</time>
      </trkpt>
      <trkpt lat="43.57168" lon="1.08809">
        <ele>223.8</ele>
        <time>2025-12-19T09:27:36Z</time>
      </trkpt>
      <trkpt lat="43.57176" lon="1.08815">
        <ele>223.4</ele>
        <time>2025-12-19T09:27:37Z</time>
      </trkpt>
      <trkpt lat="43.57184" lon="1.08821">
        <ele>223</ele>
        <time>2025-12-19T09:27:38Z</time>
      </trkpt>
      <trkpt lat="43.57192" lon="1.08825">
        <ele>222.6</ele>
        <time>2025-12-19T09:27:39Z</time>
      </trkpt>
      <trkpt lat="43.57201" lon="1.08829">
        <ele>222.4</ele>
        <time>2025-12-19T09:27:40Z</time>
      </trkpt>
      <trkpt lat="43.57209" lon="1.08833">
        <ele>222</ele>
        <time>2025-12-19T09:27:41Z</time>
      </trkpt>
      <trkpt lat="43.57218" lon="1.08837">
        <ele>221.8</ele>
        <time>2025-12-19T09:27:42Z</time>
      </trkpt>
      <trkpt lat="43.57226" lon="1.08841">
        <ele>221.4</ele>
        <time>2025-12-19T09:27:43Z</time>
      </trkpt>
      <trkpt lat="43.57235" lon="1.08845">
        <ele>221</ele>
        <time>2025-12-19T09:27:44Z</time>
      </trkpt>
      <trkpt lat="43.57244" lon="1.08849">
        <ele>220.8</ele>
        <time>2025-12-19T09:27:45Z</time>
      </trkpt>
      <trkpt lat="43.57252" lon="1.08852">
        <ele>220.4</ele>
        <time>2025-12-19T09:27:46Z</time>
      </trkpt>
      <trkpt lat="43.57261" lon="1.08856">
        <ele>220</ele>
        <time>2025-12-19T09:27:47Z</time>
      </trkpt>
      <trkpt lat="43.57269" lon="1.08859">
        <ele>219.6</ele>
        <time>2025-12-19T09:27:48Z</time>
      </trkpt>
      <trkpt lat="43.57278" lon="1.08863">
        <ele>219.6</ele>
        <time>2025-12-19T09:27:49Z</time>
      </trkpt>
      <trkpt lat="43.57286" lon="1.08867">
        <ele>219.2</ele>
        <time>2025-12-19T09:27:50Z</time>
      </trkpt>
      <trkpt lat="43.57294" lon="1.0887">
        <ele>219.2</ele>
        <time>2025-12-19T09:27:51Z</time>
      </trkpt>
      <trkpt lat="43.57303" lon="1.08873">
        <ele>219</ele>
        <time>2025-12-19T09:27:52Z</time>
      </trkpt>
      <trkpt lat="43.57312" lon="1.08875">
        <ele>218.8</ele>
        <time>2025-12-19T09:27:53Z</time>
      </trkpt>
      <trkpt lat="43.5732" lon="1.08876">
        <ele>218.8</ele>
        <time>2025-12-19T09:27:54Z</time>
      </trkpt>
      <trkpt lat="43.57329" lon="1.08878">
        <ele>218.8</ele>
        <time>2025-12-19T09:27:55Z</time>
      </trkpt>
      <trkpt lat="43.57337" lon="1.08879">
        <ele>218.8</ele>
        <time>2025-12-19T09:27:56Z</time>
      </trkpt>
      <trkpt lat="43.57345" lon="1.08879">
        <ele>219</ele>
        <time>2025-12-19T09:27:57Z</time>
      </trkpt>
      <trkpt lat="43.57352" lon="1.0888">
        <ele>219.2</ele>
        <time>2025-12-19T09:27:58Z</time>
      </trkpt>
      <trkpt lat="43.57359" lon="1.08882">
        <ele>219.6</ele>
        <time>2025-12-19T09:27:59Z</time>
      </trkpt>
      <trkpt lat="43.57366" lon="1.08882">
        <ele>219.8</ele>
        <time>2025-12-19T09:28:00Z</time>
      </trkpt>
      <trkpt lat="43.57373" lon="1.08883">
        <ele>220</ele>
        <time>2025-12-19T09:28:01Z</time>
      </trkpt>
      <trkpt lat="43.5738" lon="1.08884">
        <ele>220.4</ele>
        <time>2025-12-19T09:28:02Z</time>
      </trkpt>
      <trkpt lat="43.57387" lon="1.08884">
        <ele>220.6</ele>
        <time>2025-12-19T09:28:03Z</time>
      </trkpt>
      <trkpt lat="43.57393" lon="1.08885">
        <ele>221</ele>
        <time>2025-12-19T09:28:04Z</time>
      </trkpt>
      <trkpt lat="43.574" lon="1.08886">
        <ele>221.2</ele>
        <time>2025-12-19T09:28:05Z</time>
      </trkpt>
      <trkpt lat="43.57407" lon="1.08887">
        <ele>221.4</ele>
        <time>2025-12-19T09:28:06Z</time>
      </trkpt>
      <trkpt lat="43.57413" lon="1.08887">
        <ele>221.6</ele>
        <time>2025-12-19T09:28:07Z</time>
      </trkpt>
      <trkpt lat="43.57419" lon="1.08886">
        <ele>221.8</ele>
        <time>2025-12-19T09:28:08Z</time>
      </trkpt>
      <trkpt lat="43.57425" lon="1.08887">
        <ele>222.2</ele>
        <time>2025-12-19T09:28:09Z</time>
      </trkpt>
      <trkpt lat="43.57432" lon="1.08886">
        <ele>222.2</ele>
        <time>2025-12-19T09:28:10Z</time>
      </trkpt>
      <trkpt lat="43.57438" lon="1.08886">
        <ele>222.4</ele>
        <time>2025-12-19T09:28:11Z</time>
      </trkpt>
      <trkpt lat="43.57445" lon="1.08885">
        <ele>222.8</ele>
        <time>2025-12-19T09:28:12Z</time>
      </trkpt>
      <trkpt lat="43.57451" lon="1.08884">
        <ele>222.8</ele>
        <time>2025-12-19T09:28:13Z</time>
      </trkpt>
      <trkpt lat="43.57458" lon="1.08883">
        <ele>222.8</ele>
        <time>2025-12-19T09:28:14Z</time>
      </trkpt>
      <trkpt lat="43.57465" lon="1.08881">
        <ele>223</ele>
        <time>2025-12-19T09:28:15Z</time>
      </trkpt>
      <trkpt lat="43.57471" lon="1.08879">
        <ele>223</ele>
        <time>2025-12-19T09:28:16Z</time>
      </trkpt>
      <trkpt lat="43.57477" lon="1.08877">
        <ele>223</ele>
        <time>2025-12-19T09:28:17Z</time>
      </trkpt>
      <trkpt lat="43.57484" lon="1.08875">
        <ele>223.2</ele>
        <time>2025-12-19T09:28:18Z</time>
      </trkpt>
      <trkpt lat="43.5749" lon="1.08872">
        <ele>223.2</ele>
        <time>2025-12-19T09:28:19Z</time>
      </trkpt>
      <trkpt lat="43.57497" lon="1.08869">
        <ele>223.2</ele>
        <time>2025-12-19T09:28:20Z</time>
      </trkpt>
      <trkpt lat="43.57503" lon="1.08866">
        <ele>223.2</ele>
        <time>2025-12-19T09:28:21Z</time>
      </trkpt>
      <trkpt lat="43.57509" lon="1.08863">
        <ele>223.2</ele>
        <time>2025-12-19T09:28:22Z</time>
      </trkpt>
      <trkpt lat="43.57515" lon="1.0886">
        <ele>223.2</ele>
        <time>2025-12-19T09:28:23Z</time>
      </trkpt>
      <trkpt lat="43.57521" lon="1.08856">
        <ele>223.2</ele>
        <time>2025-12-19T09:28:24Z</time>
      </trkpt>
      <trkpt lat="43.57527" lon="1.08852">
        <ele>223.2</ele>
        <time>2025-12-19T09:28:25Z</time>
      </trkpt>
      <trkpt lat="43.57533" lon="1.08849">
        <ele>223.2</ele>
        <time>2025-12-19T09:28:26Z</time>
      </trkpt>
      <trkpt lat="43.57539" lon="1.08845">
        <ele>223.2</ele>
        <time>2025-12-19T09:28:27Z</time>
      </trkpt>
      <trkpt lat="43.57545" lon="1.08841">
        <ele>223.4</ele>
        <time>2025-12-19T09:28:28Z</time>
      </trkpt>
      <trkpt lat="43.57551" lon="1.08837">
        <ele>223.6</ele>
        <time>2025-12-19T09:28:29Z</time>
      </trkpt>
      <trkpt lat="43.57557" lon="1.08834">
        <ele>223.8</ele>
        <time>2025-12-19T09:28:30Z</time>
      </trkpt>
      <trkpt lat="43.57563" lon="1.08829">
        <ele>224</ele>
        <time>2025-12-19T09:28:31Z</time>
      </trkpt>
      <trkpt lat="43.57568" lon="1.08825">
        <ele>224.2</ele>
        <time>2025-12-19T09:28:32Z</time>
      </trkpt>
      <trkpt lat="43.57574" lon="1.08821">
        <ele>224.4</ele>
        <time>2025-12-19T09:28:33Z</time>
      </trkpt>
      <trkpt lat="43.57579" lon="1.08817">
        <ele>224.6</ele>
        <time>2025-12-19T09:28:34Z</time>
      </trkpt>
      <trkpt lat="43.57585" lon="1.08814">
        <ele>224.8</ele>
        <time>2025-12-19T09:28:35Z</time>
      </trkpt>
      <trkpt lat="43.57591" lon="1.08811">
        <ele>225</ele>
        <time>2025-12-19T09:28:36Z</time>
      </trkpt>
      <trkpt lat="43.57596" lon="1.08808">
        <ele>225.4</ele>
        <time>2025-12-19T09:28:37Z</time>
      </trkpt>
      <trkpt lat="43.57601" lon="1.08804">
        <ele>225.6</ele>
        <time>2025-12-19T09:28:38Z</time>
      </trkpt>
      <trkpt lat="43.57606" lon="1.088">
        <ele>225.8</ele>
        <time>2025-12-19T09:28:39Z</time>
      </trkpt>
      <trkpt lat="43.57611" lon="1.08796">
        <ele>226.2</ele>
        <time>2025-12-19T09:28:40Z</time>
      </trkpt>
      <trkpt lat="43.57616" lon="1.08793">
        <ele>226.6</ele>
        <time>2025-12-19T09:28:41Z</time>
      </trkpt>
      <trkpt lat="43.57621" lon="1.08789">
        <ele>226.8</ele>
        <time>2025-12-19T09:28:42Z</time>
      </trkpt>
      <trkpt lat="43.57625" lon="1.08785">
        <ele>227</ele>
        <time>2025-12-19T09:28:43Z</time>
      </trkpt>
      <trkpt lat="43.5763" lon="1.08781">
        <ele>227.2</ele>
        <time>2025-12-19T09:28:44Z</time>
      </trkpt>
      <trkpt lat="43.57634" lon="1.08776">
        <ele>227.6</ele>
        <time>2025-12-19T09:28:45Z</time>
      </trkpt>
      <trkpt lat="43.57638" lon="1.08772">
        <ele>227.8</ele>
        <time>2025-12-19T09:28:46Z</time>
      </trkpt>
      <trkpt lat="43.57642" lon="1.08767">
        <ele>228</ele>
        <time>2025-12-19T09:28:47Z</time>
      </trkpt>
      <trkpt lat="43.57646" lon="1.08761">
        <ele>228</ele>
        <time>2025-12-19T09:28:48Z</time>
      </trkpt>
      <trkpt lat="43.5765" lon="1.08756">
        <ele>228.2</ele>
        <time>2025-12-19T09:28:49Z</time>
      </trkpt>
      <trkpt lat="43.57654" lon="1.08749">
        <ele>228.2</ele>
        <time>2025-12-19T09:28:50Z</time>
      </trkpt>
      <trkpt lat="43.57658" lon="1.08743">
        <ele>228.4</ele>
        <time>2025-12-19T09:28:51Z</time>
      </trkpt>
      <trkpt lat="43.57661" lon="1.08736">
        <ele>228.4</ele>
        <time>2025-12-19T09:28:52Z</time>
      </trkpt>
      <trkpt lat="43.57665" lon="1.08729">
        <ele>228.4</ele>
        <time>2025-12-19T09:28:53Z</time>
      </trkpt>
      <trkpt lat="43.57668" lon="1.08722">
        <ele>228.4</ele>
        <time>2025-12-19T09:28:54Z</time>
      </trkpt>
      <trkpt lat="43.57671" lon="1.08714">
        <ele>228.4</ele>
        <time>2025-12-19T09:28:55Z</time>
      </trkpt>
      <trkpt lat="43.57674" lon="1.08707">
        <ele>228.4</ele>
        <time>2025-12-19T09:28:56Z</time>
      </trkpt>
      <trkpt lat="43.57678" lon="1.08699">
        <ele>228.2</ele>
        <time>2025-12-19T09:28:57Z</time>
      </trkpt>
      <trkpt lat="43.57682" lon="1.08691">
        <ele>228.2</ele>
        <time>2025-12-19T09:28:58Z</time>
      </trkpt>
      <trkpt lat="43.57686" lon="1.08683">
        <ele>228</ele>
        <time>2025-12-19T09:28:59Z</time>
      </trkpt>
      <trkpt lat="43.5769" lon="1.08675">
        <ele>227.8</ele>
        <time>2025-12-19T09:29:00Z</time>
      </trkpt>
      <trkpt lat="43.57694" lon="1.08666">
        <ele>227.4</ele>
        <time>2025-12-19T09:29:01Z</time>
      </trkpt>
      <trkpt lat="43.57698" lon="1.08658">
        <ele>227.2</ele>
        <time>2025-12-19T09:29:02Z</time>
      </trkpt>
      <trkpt lat="43.57704" lon="1.08649">
        <ele>226.8</ele>
        <time>2025-12-19T09:29:03Z</time>
      </trkpt>
      <trkpt lat="43.57709" lon="1.08641">
        <ele>226.6</ele>
        <time>2025-12-19T09:29:04Z</time>
      </trkpt>
      <trkpt lat="43.57715" lon="1.08634">
        <ele>226.2</ele>
        <time>2025-12-19T09:29:05Z</time>
      </trkpt>
      <trkpt lat="43.57721" lon="1.08626">
        <ele>225.8</ele>
        <time>2025-12-19T09:29:06Z</time>
      </trkpt>
      <trkpt lat="43.57727" lon="1.08619">
        <ele>225.4</ele>
        <time>2025-12-19T09:29:07Z</time>
      </trkpt>
      <trkpt lat="43.57733" lon="1.08612">
        <ele>225.2</ele>
        <time>2025-12-19T09:29:08Z</time>
      </trkpt>
      <trkpt lat="43.5774" lon="1.08606">
        <ele>225</ele>
        <time>2025-12-19T09:29:09Z</time>
      </trkpt>
      <trkpt lat="43.57747" lon="1.086">
        <ele>224.8</ele>
        <time>2025-12-19T09:29:10Z</time>
      </trkpt>
      <trkpt lat="43.57754" lon="1.08593">
        <ele>224.6</ele>
        <time>2025-12-19T09:29:11Z</time>
      </trkpt>
      <trkpt lat="43.5776" lon="1.08587">
        <ele>224.2</ele>
        <time>2025-12-19T09:29:12Z</time>
      </trkpt>
      <trkpt lat="43.57767" lon="1.08581">
        <ele>224</ele>
        <time>2025-12-19T09:29:13Z</time>
      </trkpt>
      <trkpt lat="43.57773" lon="1.08575">
        <ele>223.8</ele>
        <time>2025-12-19T09:29:14Z</time>
      </trkpt>
      <trkpt lat="43.5778" lon="1.08568">
        <ele>223.6</ele>
        <time>2025-12-19T09:29:15Z</time>
      </trkpt>
      <trkpt lat="43.57787" lon="1.08563">
        <ele>223.6</ele>
        <time>2025-12-19T09:29:16Z</time>
      </trkpt>
      <trkpt lat="43.57794" lon="1.08557">
        <ele>223.4</ele>
        <time>2025-12-19T09:29:17Z</time>
      </trkpt>
      <trkpt lat="43.57801" lon="1.08552">
        <ele>223.4</ele>
        <time>2025-12-19T09:29:18Z</time>
      </trkpt>
      <trkpt lat="43.57808" lon="1.08548">
        <ele>223.2</ele>
        <time>2025-12-19T09:29:19Z</time>
      </trkpt>
      <trkpt lat="43.57816" lon="1.08544">
        <ele>223.2</ele>
        <time>2025-12-19T09:29:20Z</time>
      </trkpt>
      <trkpt lat="43.57824" lon="1.08542">
        <ele>223</ele>
        <time>2025-12-19T09:29:21Z</time>
      </trkpt>
      <trkpt lat="43.57832" lon="1.08541">
        <ele>223</ele>
        <time>2025-12-19T09:29:22Z</time>
      </trkpt>
      <trkpt lat="43.57841" lon="1.08542">
        <ele>222.8</ele>
        <time>2025-12-19T09:29:23Z</time>
      </trkpt>
      <trkpt lat="43.57849" lon="1.08542">
        <ele>222.6</ele>
        <time>2025-12-19T09:29:24Z</time>
      </trkpt>
      <trkpt lat="43.57857" lon="1.08543">
        <ele>222.4</ele>
        <time>2025-12-19T09:29:25Z</time>
      </trkpt>
      <trkpt lat="43.57865" lon="1.08544">
        <ele>222.4</ele>
        <time>2025-12-19T09:29:26Z</time>
      </trkpt>
      <trkpt lat="43.57874" lon="1.08545">
        <ele>222.2</ele>
        <time>2025-12-19T09:29:27Z</time>
      </trkpt>
      <trkpt lat="43.57882" lon="1.08546">
        <ele>222</ele>
        <time>2025-12-19T09:29:28Z</time>
      </trkpt>
      <trkpt lat="43.5789" lon="1.08547">
        <ele>221.8</ele>
        <time>2025-12-19T09:29:29Z</time>
      </trkpt>
      <trkpt lat="43.57899" lon="1.08548">
        <ele>221.4</ele>
        <time>2025-12-19T09:29:30Z</time>
      </trkpt>
      <trkpt lat="43.57907" lon="1.08549">
        <ele>221.2</ele>
        <time>2025-12-19T09:29:31Z</time>
      </trkpt>
      <trkpt lat="43.57916" lon="1.0855">
        <ele>220.8</ele>
        <time>2025-12-19T09:29:32Z</time>
      </trkpt>
      <trkpt lat="43.57925" lon="1.08552">
        <ele>220.2</ele>
        <time>2025-12-19T09:29:33Z</time>
      </trkpt>
      <trkpt lat="43.57934" lon="1.08553">
        <ele>219.8</ele>
        <time>2025-12-19T09:29:34Z</time>
      </trkpt>
      <trkpt lat="43.57943" lon="1.08554">
        <ele>219.4</ele>
        <time>2025-12-19T09:29:35Z</time>
      </trkpt>
      <trkpt lat="43.57952" lon="1.08555">
        <ele>218.8</ele>
        <time>2025-12-19T09:29:36Z</time>
      </trkpt>
      <trkpt lat="43.57961" lon="1.08556">
        <ele>218.2</ele>
        <time>2025-12-19T09:29:37Z</time>
      </trkpt>
      <trkpt lat="43.57971" lon="1.08557">
        <ele>217.8</ele>
        <time>2025-12-19T09:29:38Z</time>
      </trkpt>
      <trkpt lat="43.5798" lon="1.08559">
        <ele>217.4</ele>
        <time>2025-12-19T09:29:39Z</time>
      </trkpt>
      <trkpt lat="43.57989" lon="1.0856">
        <ele>217</ele>
        <time>2025-12-19T09:29:40Z</time>
      </trkpt>
      <trkpt lat="43.57998" lon="1.08561">
        <ele>216.6</ele>
        <time>2025-12-19T09:29:41Z</time>
      </trkpt>
      <trkpt lat="43.58007" lon="1.08561">
        <ele>216.2</ele>
        <time>2025-12-19T09:29:42Z</time>
      </trkpt>
      <trkpt lat="43.58016" lon="1.08561">
        <ele>215.8</ele>
        <time>2025-12-19T09:29:43Z</time>
      </trkpt>
      <trkpt lat="43.58025" lon="1.08561">
        <ele>215.6</ele>
        <time>2025-12-19T09:29:44Z</time>
      </trkpt>
      <trkpt lat="43.58034" lon="1.08559">
        <ele>215.4</ele>
        <time>2025-12-19T09:29:45Z</time>
      </trkpt>
      <trkpt lat="43.58042" lon="1.08557">
        <ele>215.2</ele>
        <time>2025-12-19T09:29:46Z</time>
      </trkpt>
      <trkpt lat="43.58051" lon="1.08555">
        <ele>215</ele>
        <time>2025-12-19T09:29:47Z</time>
      </trkpt>
      <trkpt lat="43.58059" lon="1.08552">
        <ele>214.8</ele>
        <time>2025-12-19T09:29:48Z</time>
      </trkpt>
      <trkpt lat="43.58067" lon="1.08549">
        <ele>214.6</ele>
        <time>2025-12-19T09:29:49Z</time>
      </trkpt>
      <trkpt lat="43.58075" lon="1.08545">
        <ele>214.6</ele>
        <time>2025-12-19T09:29:50Z</time>
      </trkpt>
      <trkpt lat="43.58083" lon="1.0854">
        <ele>214.4</ele>
        <time>2025-12-19T09:29:51Z</time>
      </trkpt>
      <trkpt lat="43.58092" lon="1.08535">
        <ele>214.4</ele>
        <time>2025-12-19T09:29:52Z</time>
      </trkpt>
      <trkpt lat="43.581" lon="1.08529">
        <ele>214.2</ele>
        <time>2025-12-19T09:29:53Z</time>
      </trkpt>
      <trkpt lat="43.58107" lon="1.08524">
        <ele>214.2</ele>
        <time>2025-12-19T09:29:54Z</time>
      </trkpt>
      <trkpt lat="43.58115" lon="1.08518">
        <ele>213.8</ele>
        <time>2025-12-19T09:29:55Z</time>
      </trkpt>
      <trkpt lat="43.58123" lon="1.08513">
        <ele>213.4</ele>
        <time>2025-12-19T09:29:56Z</time>
      </trkpt>
      <trkpt lat="43.5813" lon="1.08508">
        <ele>213.2</ele>
        <time>2025-12-19T09:29:57Z</time>
      </trkpt>
      <trkpt lat="43.58138" lon="1.08503">
        <ele>212.8</ele>
        <time>2025-12-19T09:29:58Z</time>
      </trkpt>
      <trkpt lat="43.58146" lon="1.08498">
        <ele>212.6</ele>
        <time>2025-12-19T09:29:59Z</time>
      </trkpt>
      <trkpt lat="43.58154" lon="1.08494">
        <ele>212.4</ele>
        <time>2025-12-19T09:30:00Z</time>
      </trkpt>
      <trkpt lat="43.58161" lon="1.0849">
        <ele>212.2</ele>
        <time>2025-12-19T09:30:01Z</time>
      </trkpt>
      <trkpt lat="43.58169" lon="1.08487">
        <ele>212</ele>
        <time>2025-12-19T09:30:02Z</time>
      </trkpt>
      <trkpt lat="43.58177" lon="1.08485">
        <ele>211.8</ele>
        <time>2025-12-19T09:30:03Z</time>
      </trkpt>
      <trkpt lat="43.58186" lon="1.08483">
        <ele>211.6</ele>
        <time>2025-12-19T09:30:04Z</time>
      </trkpt>
      <trkpt lat="43.58194" lon="1.08481">
        <ele>211.2</ele>
        <time>2025-12-19T09:30:05Z</time>
      </trkpt>
      <trkpt lat="43.58203" lon="1.08479">
        <ele>211</ele>
        <time>2025-12-19T09:30:06Z</time>
      </trkpt>
      <trkpt lat="43.58212" lon="1.08478">
        <ele>210.6</ele>
        <time>2025-12-19T09:30:07Z</time>
      </trkpt>
      <trkpt lat="43.5822" lon="1.08478">
        <ele>210.4</ele>
        <time>2025-12-19T09:30:08Z</time>
      </trkpt>
      <trkpt lat="43.58229" lon="1.08478">
        <ele>210</ele>
        <time>2025-12-19T09:30:09Z</time>
      </trkpt>
      <trkpt lat="43.58238" lon="1.08478">
        <ele>209.8</ele>
        <time>2025-12-19T09:30:10Z</time>
      </trkpt>
      <trkpt lat="43.58247" lon="1.08478">
        <ele>209.6</ele>
        <time>2025-12-19T09:30:11Z</time>
      </trkpt>
      <trkpt lat="43.58256" lon="1.08478">
        <ele>209.4</ele>
        <time>2025-12-19T09:30:12Z</time>
      </trkpt>
      <trkpt lat="43.58265" lon="1.08478">
        <ele>209.2</ele>
        <time>2025-12-19T09:30:13Z</time>
      </trkpt>
      <trkpt lat="43.58274" lon="1.08479">
        <ele>209.2</ele>
        <time>2025-12-19T09:30:14Z</time>
      </trkpt>
      <trkpt lat="43.58282" lon="1.08479">
        <ele>209</ele>
        <time>2025-12-19T09:30:15Z</time>
      </trkpt>
      <trkpt lat="43.58291" lon="1.08479">
        <ele>209</ele>
        <time>2025-12-19T09:30:16Z</time>
      </trkpt>
      <trkpt lat="43.58299" lon="1.0848">
        <ele>208.8</ele>
        <time>2025-12-19T09:30:17Z</time>
      </trkpt>
      <trkpt lat="43.58308" lon="1.0848">
        <ele>208.6</ele>
        <time>2025-12-19T09:30:18Z</time>
      </trkpt>
      <trkpt lat="43.58317" lon="1.0848">
        <ele>208.4</ele>
        <time>2025-12-19T09:30:19Z</time>
      </trkpt>
      <trkpt lat="43.58325" lon="1.08481">
        <ele>208.2</ele>
        <time>2025-12-19T09:30:20Z</time>
      </trkpt>
      <trkpt lat="43.58334" lon="1.08481">
        <ele>208.2</ele>
        <time>2025-12-19T09:30:21Z</time>
      </trkpt>
      <trkpt lat="43.58342" lon="1.08481">
        <ele>208.2</ele>
        <time>2025-12-19T09:30:22Z</time>
      </trkpt>
      <trkpt lat="43.58351" lon="1.08482">
        <ele>208.2</ele>
        <time>2025-12-19T09:30:23Z</time>
      </trkpt>
      <trkpt lat="43.5836" lon="1.08483">
        <ele>208.2</ele>
        <time>2025-12-19T09:30:24Z</time>
      </trkpt>
      <trkpt lat="43.58368" lon="1.08483">
        <ele>208.2</ele>
        <time>2025-12-19T09:30:25Z</time>
      </trkpt>
      <trkpt lat="43.58376" lon="1.08484">
        <ele>208.2</ele>
        <time>2025-12-19T09:30:26Z</time>
      </trkpt>
      <trkpt lat="43.58384" lon="1.08484">
        <ele>208.2</ele>
        <time>2025-12-19T09:30:27Z</time>
      </trkpt>
      <trkpt lat="43.58392" lon="1.08484">
        <ele>208.2</ele>
        <time>2025-12-19T09:30:28Z</time>
      </trkpt>
      <trkpt lat="43.584" lon="1.08484">
        <ele>208.2</ele>
        <time>2025-12-19T09:30:29Z</time>
      </trkpt>
      <trkpt lat="43.58408" lon="1.08483">
        <ele>208.2</ele>
        <time>2025-12-19T09:30:30Z</time>
      </trkpt>
      <trkpt lat="43.58416" lon="1.08482">
        <ele>208.2</ele>
        <time>2025-12-19T09:30:31Z</time>
      </trkpt>
      <trkpt lat="43.58424" lon="1.0848">
        <ele>208.2</ele>
        <time>2025-12-19T09:30:32Z</time>
      </trkpt>
      <trkpt lat="43.58432" lon="1.08477">
        <ele>208.2</ele>
        <time>2025-12-19T09:30:33Z</time>
      </trkpt>
      <trkpt lat="43.5844" lon="1.08474">
        <ele>208.2</ele>
        <time>2025-12-19T09:30:34Z</time>
      </trkpt>
      <trkpt lat="43.58447" lon="1.08472">
        <ele>208.2</ele>
        <time>2025-12-19T09:30:35Z</time>
      </trkpt>
      <trkpt lat="43.58456" lon="1.08469">
        <ele>208.4</ele>
        <time>2025-12-19T09:30:36Z</time>
      </trkpt>
      <trkpt lat="43.58464" lon="1.08467">
        <ele>208.2</ele>
        <time>2025-12-19T09:30:37Z</time>
      </trkpt>
      <trkpt lat="43.58472" lon="1.08464">
        <ele>208.2</ele>
        <time>2025-12-19T09:30:38Z</time>
      </trkpt>
      <trkpt lat="43.5848" lon="1.0846">
        <ele>208</ele>
        <time>2025-12-19T09:30:39Z</time>
      </trkpt>
      <trkpt lat="43.58488" lon="1.08458">
        <ele>208</ele>
        <time>2025-12-19T09:30:40Z</time>
      </trkpt>
      <trkpt lat="43.58496" lon="1.08455">
        <ele>207.8</ele>
        <time>2025-12-19T09:30:41Z</time>
      </trkpt>
      <trkpt lat="43.58504" lon="1.08451">
        <ele>207.8</ele>
        <time>2025-12-19T09:30:42Z</time>
      </trkpt>
      <trkpt lat="43.58512" lon="1.08448">
        <ele>207.8</ele>
        <time>2025-12-19T09:30:43Z</time>
      </trkpt>
      <trkpt lat="43.5852" lon="1.08445">
        <ele>207.8</ele>
        <time>2025-12-19T09:30:44Z</time>
      </trkpt>
      <trkpt lat="43.58528" lon="1.08442">
        <ele>207.8</ele>
        <time>2025-12-19T09:30:45Z</time>
      </trkpt>
      <trkpt lat="43.58536" lon="1.08439">
        <ele>207.6</ele>
        <time>2025-12-19T09:30:46Z</time>
      </trkpt>
      <trkpt lat="43.58544" lon="1.08436">
        <ele>207.6</ele>
        <time>2025-12-19T09:30:47Z</time>
      </trkpt>
      <trkpt lat="43.58552" lon="1.08433">
        <ele>207.6</ele>
        <time>2025-12-19T09:30:48Z</time>
      </trkpt>
      <trkpt lat="43.5856" lon="1.0843">
        <ele>207.6</ele>
        <time>2025-12-19T09:30:49Z</time>
      </trkpt>
      <trkpt lat="43.58568" lon="1.08427">
        <ele>207.6</ele>
        <time>2025-12-19T09:30:50Z</time>
      </trkpt>
      <trkpt lat="43.58576" lon="1.08425">
        <ele>207.8</ele>
        <time>2025-12-19T09:30:51Z</time>
      </trkpt>
      <trkpt lat="43.58584" lon="1.08422">
        <ele>207.8</ele>
        <time>2025-12-19T09:30:52Z</time>
      </trkpt>
      <trkpt lat="43.58592" lon="1.08419">
        <ele>207.6</ele>
        <time>2025-12-19T09:30:53Z</time>
      </trkpt>
      <trkpt lat="43.586" lon="1.08416">
        <ele>207.6</ele>
        <time>2025-12-19T09:30:54Z</time>
      </trkpt>
      <trkpt lat="43.58607" lon="1.08414">
        <ele>207.6</ele>
        <time>2025-12-19T09:30:55Z</time>
      </trkpt>
      <trkpt lat="43.58615" lon="1.08411">
        <ele>207.8</ele>
        <time>2025-12-19T09:30:56Z</time>
      </trkpt>
      <trkpt lat="43.58624" lon="1.08408">
        <ele>207.8</ele>
        <time>2025-12-19T09:30:57Z</time>
      </trkpt>
      <trkpt lat="43.58632" lon="1.08404">
        <ele>207.6</ele>
        <time>2025-12-19T09:30:58Z</time>
      </trkpt>
      <trkpt lat="43.5864" lon="1.08401">
        <ele>207.6</ele>
        <time>2025-12-19T09:30:59Z</time>
      </trkpt>
      <trkpt lat="43.58649" lon="1.08398">
        <ele>207.4</ele>
        <time>2025-12-19T09:31:00Z</time>
      </trkpt>
      <trkpt lat="43.58657" lon="1.08395">
        <ele>207.4</ele>
        <time>2025-12-19T09:31:01Z</time>
      </trkpt>
      <trkpt lat="43.58665" lon="1.08392">
        <ele>207</ele>
        <time>2025-12-19T09:31:02Z</time>
      </trkpt>
      <trkpt lat="43.58674" lon="1.08389">
        <ele>207</ele>
        <time>2025-12-19T09:31:03Z</time>
      </trkpt>
      <trkpt lat="43.58682" lon="1.08386">
        <ele>206.8</ele>
        <time>2025-12-19T09:31:04Z</time>
      </trkpt>
      <trkpt lat="43.5869" lon="1.08383">
        <ele>206.8</ele>
        <time>2025-12-19T09:31:05Z</time>
      </trkpt>
      <trkpt lat="43.58698" lon="1.0838">
        <ele>206.4</ele>
        <time>2025-12-19T09:31:06Z</time>
      </trkpt>
      <trkpt lat="43.58705" lon="1.08378">
        <ele>206.4</ele>
        <time>2025-12-19T09:31:07Z</time>
      </trkpt>
      <trkpt lat="43.58713" lon="1.08375">
        <ele>206.2</ele>
        <time>2025-12-19T09:31:08Z</time>
      </trkpt>
      <trkpt lat="43.58721" lon="1.08371">
        <ele>206.2</ele>
        <time>2025-12-19T09:31:09Z</time>
      </trkpt>
      <trkpt lat="43.58729" lon="1.08368">
        <ele>206</ele>
        <time>2025-12-19T09:31:10Z</time>
      </trkpt>
      <trkpt lat="43.58736" lon="1.08365">
        <ele>206</ele>
        <time>2025-12-19T09:31:11Z</time>
      </trkpt>
      <trkpt lat="43.58743" lon="1.08361">
        <ele>206</ele>
        <time>2025-12-19T09:31:12Z</time>
      </trkpt>
      <trkpt lat="43.5875" lon="1.08357">
        <ele>205.8</ele>
        <time>2025-12-19T09:31:13Z</time>
      </trkpt>
      <trkpt lat="43.58757" lon="1.08352">
        <ele>205.8</ele>
        <time>2025-12-19T09:31:14Z</time>
      </trkpt>
      <trkpt lat="43.58764" lon="1.08347">
        <ele>205.8</ele>
        <time>2025-12-19T09:31:15Z</time>
      </trkpt>
      <trkpt lat="43.58772" lon="1.08342">
        <ele>205.8</ele>
        <time>2025-12-19T09:31:16Z</time>
      </trkpt>
      <trkpt lat="43.58779" lon="1.08338">
        <ele>205.6</ele>
        <time>2025-12-19T09:31:17Z</time>
      </trkpt>
      <trkpt lat="43.58786" lon="1.08334">
        <ele>205.6</ele>
        <time>2025-12-19T09:31:18Z</time>
      </trkpt>
      <trkpt lat="43.58794" lon="1.08329">
        <ele>205.4</ele>
        <time>2025-12-19T09:31:19Z</time>
      </trkpt>
      <trkpt lat="43.58802" lon="1.08325">
        <ele>205.4</ele>
        <time>2025-12-19T09:31:20Z</time>
      </trkpt>
      <trkpt lat="43.5881" lon="1.08322">
        <ele>205.4</ele>
        <time>2025-12-19T09:31:21Z</time>
      </trkpt>
      <trkpt lat="43.58819" lon="1.08319">
        <ele>205.2</ele>
        <time>2025-12-19T09:31:22Z</time>
      </trkpt>
      <trkpt lat="43.58827" lon="1.08316">
        <ele>205</ele>
        <time>2025-12-19T09:31:23Z</time>
      </trkpt>
      <trkpt lat="43.58835" lon="1.08313">
        <ele>204.8</ele>
        <time>2025-12-19T09:31:24Z</time>
      </trkpt>
      <trkpt lat="43.58844" lon="1.08311">
        <ele>204.6</ele>
        <time>2025-12-19T09:31:25Z</time>
      </trkpt>
      <trkpt lat="43.58853" lon="1.08309">
        <ele>204.2</ele>
        <time>2025-12-19T09:31:26Z</time>
      </trkpt>
      <trkpt lat="43.58862" lon="1.08307">
        <ele>204</ele>
        <time>2025-12-19T09:31:27Z</time>
      </trkpt>
      <trkpt lat="43.58871" lon="1.08305">
        <ele>204</ele>
        <time>2025-12-19T09:31:28Z</time>
      </trkpt>
      <trkpt lat="43.5888" lon="1.08302">
        <ele>203.6</ele>
        <time>2025-12-19T09:31:29Z</time>
      </trkpt>
      <trkpt lat="43.58889" lon="1.083">
        <ele>203.4</ele>
        <time>2025-12-19T09:31:30Z</time>
      </trkpt>
      <trkpt lat="43.58897" lon="1.08298">
        <ele>203.2</ele>
        <time>2025-12-19T09:31:31Z</time>
      </trkpt>
      <trkpt lat="43.58906" lon="1.08296">
        <ele>203.2</ele>
        <time>2025-12-19T09:31:32Z</time>
      </trkpt>
      <trkpt lat="43.58914" lon="1.08294">
        <ele>203</ele>
        <time>2025-12-19T09:31:33Z</time>
      </trkpt>
      <trkpt lat="43.58922" lon="1.08291">
        <ele>203</ele>
        <time>2025-12-19T09:31:34Z</time>
      </trkpt>
      <trkpt lat="43.58931" lon="1.08289">
        <ele>203</ele>
        <time>2025-12-19T09:31:35Z</time>
      </trkpt>
      <trkpt lat="43.58939" lon="1.08287">
        <ele>203</ele>
        <time>2025-12-19T09:31:36Z</time>
      </trkpt>
      <trkpt lat="43.58948" lon="1.08285">
        <ele>203</ele>
        <time>2025-12-19T09:31:37Z</time>
      </trkpt>
      <trkpt lat="43.58956" lon="1.08283">
        <ele>203</ele>
        <time>2025-12-19T09:31:38Z</time>
      </trkpt>
      <trkpt lat="43.58964" lon="1.08281">
        <ele>203</ele>
        <time>2025-12-19T09:31:39Z</time>
      </trkpt>
      <trkpt lat="43.58972" lon="1.08279">
        <ele>202.8</ele>
        <time>2025-12-19T09:31:40Z</time>
      </trkpt>
      <trkpt lat="43.5898" lon="1.08277">
        <ele>202.8</ele>
        <time>2025-12-19T09:31:41Z</time>
      </trkpt>
      <trkpt lat="43.58988" lon="1.08275">
        <ele>202.8</ele>
        <time>2025-12-19T09:31:42Z</time>
      </trkpt>
      <trkpt lat="43.58996" lon="1.08273">
        <ele>202.8</ele>
        <time>2025-12-19T09:31:43Z</time>
      </trkpt>
      <trkpt lat="43.59004" lon="1.08271">
        <ele>202.8</ele>
        <time>2025-12-19T09:31:44Z</time>
      </trkpt>
      <trkpt lat="43.59013" lon="1.0827">
        <ele>202.8</ele>
        <time>2025-12-19T09:31:45Z</time>
      </trkpt>
      <trkpt lat="43.5902" lon="1.08267">
        <ele>203</ele>
        <time>2025-12-19T09:31:46Z</time>
      </trkpt>
      <trkpt lat="43.59028" lon="1.08265">
        <ele>203</ele>
        <time>2025-12-19T09:31:47Z</time>
      </trkpt>
      <trkpt lat="43.59035" lon="1.08263">
        <ele>203.2</ele>
        <time>2025-12-19T09:31:48Z</time>
      </trkpt>
      <trkpt lat="43.59042" lon="1.0826">
        <ele>203.2</ele>
        <time>2025-12-19T09:31:49Z</time>
      </trkpt>
      <trkpt lat="43.59049" lon="1.08257">
        <ele>203.4</ele>
        <time>2025-12-19T09:31:50Z</time>
      </trkpt>
      <trkpt lat="43.59056" lon="1.08254">
        <ele>203.6</ele>
        <time>2025-12-19T09:31:51Z</time>
      </trkpt>
      <trkpt lat="43.59064" lon="1.0825">
        <ele>203.4</ele>
        <time>2025-12-19T09:31:52Z</time>
      </trkpt>
      <trkpt lat="43.59071" lon="1.08246">
        <ele>203.6</ele>
        <time>2025-12-19T09:31:53Z</time>
      </trkpt>
      <trkpt lat="43.59078" lon="1.08242">
        <ele>203.6</ele>
        <time>2025-12-19T09:31:54Z</time>
      </trkpt>
      <trkpt lat="43.59085" lon="1.08238">
        <ele>203.6</ele>
        <time>2025-12-19T09:31:55Z</time>
      </trkpt>
      <trkpt lat="43.59093" lon="1.08234">
        <ele>203.6</ele>
        <time>2025-12-19T09:31:56Z</time>
      </trkpt>
      <trkpt lat="43.591" lon="1.08229">
        <ele>203.6</ele>
        <time>2025-12-19T09:31:57Z</time>
      </trkpt>
      <trkpt lat="43.59107" lon="1.08224">
        <ele>203.4</ele>
        <time>2025-12-19T09:31:58Z</time>
      </trkpt>
      <trkpt lat="43.59113" lon="1.08218">
        <ele>203.2</ele>
        <time>2025-12-19T09:31:59Z</time>
      </trkpt>
      <trkpt lat="43.5912" lon="1.08213">
        <ele>203</ele>
        <time>2025-12-19T09:32:00Z</time>
      </trkpt>
      <trkpt lat="43.59126" lon="1.08207">
        <ele>202.8</ele>
        <time>2025-12-19T09:32:01Z</time>
      </trkpt>
      <trkpt lat="43.59132" lon="1.082">
        <ele>202.6</ele>
        <time>2025-12-19T09:32:02Z</time>
      </trkpt>
      <trkpt lat="43.59139" lon="1.08193">
        <ele>202.2</ele>
        <time>2025-12-19T09:32:03Z</time>
      </trkpt>
      <trkpt lat="43.59145" lon="1.08186">
        <ele>202</ele>
        <time>2025-12-19T09:32:04Z</time>
      </trkpt>
      <trkpt lat="43.59151" lon="1.08179">
        <ele>201.8</ele>
        <time>2025-12-19T09:32:05Z</time>
      </trkpt>
      <trkpt lat="43.59157" lon="1.08171">
        <ele>201.4</ele>
        <time>2025-12-19T09:32:06Z</time>
      </trkpt>
      <trkpt lat="43.59164" lon="1.08164">
        <ele>201</ele>
        <time>2025-12-19T09:32:07Z</time>
      </trkpt>
      <trkpt lat="43.59171" lon="1.08156">
        <ele>200.6</ele>
        <time>2025-12-19T09:32:08Z</time>
      </trkpt>
      <trkpt lat="43.59178" lon="1.08149">
        <ele>200.2</ele>
        <time>2025-12-19T09:32:09Z</time>
      </trkpt>
      <trkpt lat="43.59186" lon="1.08142">
        <ele>199.6</ele>
        <time>2025-12-19T09:32:10Z</time>
      </trkpt>
      <trkpt lat="43.59195" lon="1.08136">
        <ele>199</ele>
        <time>2025-12-19T09:32:11Z</time>
      </trkpt>
      <trkpt lat="43.59204" lon="1.0813">
        <ele>198.4</ele>
        <time>2025-12-19T09:32:12Z</time>
      </trkpt>
      <trkpt lat="43.59213" lon="1.08125">
        <ele>197.8</ele>
        <time>2025-12-19T09:32:13Z</time>
      </trkpt>
      <trkpt lat="43.59223" lon="1.08121">
        <ele>197.2</ele>
        <time>2025-12-19T09:32:14Z</time>
      </trkpt>
      <trkpt lat="43.59232" lon="1.08118">
        <ele>196.6</ele>
        <time>2025-12-19T09:32:15Z</time>
      </trkpt>
      <trkpt lat="43.59242" lon="1.08115">
        <ele>196</ele>
        <time>2025-12-19T09:32:16Z</time>
      </trkpt>
      <trkpt lat="43.59252" lon="1.08112">
        <ele>195.4</ele>
        <time>2025-12-19T09:32:17Z</time>
      </trkpt>
      <trkpt lat="43.59262" lon="1.08109">
        <ele>195</ele>
        <time>2025-12-19T09:32:18Z</time>
      </trkpt>
      <trkpt lat="43.59272" lon="1.08107">
        <ele>194.4</ele>
        <time>2025-12-19T09:32:19Z</time>
      </trkpt>
      <trkpt lat="43.59282" lon="1.08106">
        <ele>194</ele>
        <time>2025-12-19T09:32:20Z</time>
      </trkpt>
      <trkpt lat="43.59293" lon="1.08105">
        <ele>193.6</ele>
        <time>2025-12-19T09:32:21Z</time>
      </trkpt>
      <trkpt lat="43.59302" lon="1.08104">
        <ele>193.4</ele>
        <time>2025-12-19T09:32:22Z</time>
      </trkpt>
      <trkpt lat="43.59312" lon="1.08105">
        <ele>193</ele>
        <time>2025-12-19T09:32:23Z</time>
      </trkpt>
      <trkpt lat="43.59321" lon="1.08105">
        <ele>192.8</ele>
        <time>2025-12-19T09:32:24Z</time>
      </trkpt>
      <trkpt lat="43.5933" lon="1.08105">
        <ele>192.6</ele>
        <time>2025-12-19T09:32:25Z</time>
      </trkpt>
      <trkpt lat="43.59339" lon="1.08105">
        <ele>192.2</ele>
        <time>2025-12-19T09:32:26Z</time>
      </trkpt>
      <trkpt lat="43.59349" lon="1.08105">
        <ele>192</ele>
        <time>2025-12-19T09:32:27Z</time>
      </trkpt>
      <trkpt lat="43.59358" lon="1.08105">
        <ele>191.8</ele>
        <time>2025-12-19T09:32:28Z</time>
      </trkpt>
      <trkpt lat="43.59367" lon="1.08105">
        <ele>191.6</ele>
        <time>2025-12-19T09:32:29Z</time>
      </trkpt>
      <trkpt lat="43.59376" lon="1.08106">
        <ele>191.4</ele>
        <time>2025-12-19T09:32:30Z</time>
      </trkpt>
      <trkpt lat="43.59385" lon="1.08106">
        <ele>191.2</ele>
        <time>2025-12-19T09:32:31Z</time>
      </trkpt>
      <trkpt lat="43.59393" lon="1.08106">
        <ele>191.2</ele>
        <time>2025-12-19T09:32:32Z</time>
      </trkpt>
      <trkpt lat="43.59402" lon="1.08107">
        <ele>191</ele>
        <time>2025-12-19T09:32:33Z</time>
      </trkpt>
      <trkpt lat="43.5941" lon="1.08107">
        <ele>191</ele>
        <time>2025-12-19T09:32:34Z</time>
      </trkpt>
      <trkpt lat="43.59418" lon="1.08108">
        <ele>190.8</ele>
        <time>2025-12-19T09:32:35Z</time>
      </trkpt>
      <trkpt lat="43.59426" lon="1.08107">
        <ele>190.8</ele>
        <time>2025-12-19T09:32:36Z</time>
      </trkpt>
      <trkpt lat="43.59435" lon="1.08107">
        <ele>190.6</ele>
        <time>2025-12-19T09:32:37Z</time>
      </trkpt>
      <trkpt lat="43.59443" lon="1.08107">
        <ele>190.6</ele>
        <time>2025-12-19T09:32:38Z</time>
      </trkpt>
      <trkpt lat="43.59452" lon="1.08106">
        <ele>190.6</ele>
        <time>2025-12-19T09:32:39Z</time>
      </trkpt>
      <trkpt lat="43.5946" lon="1.08105">
        <ele>190.6</ele>
        <time>2025-12-19T09:32:40Z</time>
      </trkpt>
      <trkpt lat="43.59468" lon="1.08105">
        <ele>190.8</ele>
        <time>2025-12-19T09:32:41Z</time>
      </trkpt>
      <trkpt lat="43.59476" lon="1.08103">
        <ele>190.8</ele>
        <time>2025-12-19T09:32:42Z</time>
      </trkpt>
      <trkpt lat="43.59483" lon="1.08102">
        <ele>191</ele>
        <time>2025-12-19T09:32:43Z</time>
      </trkpt>
      <trkpt lat="43.59491" lon="1.08101">
        <ele>191</ele>
        <time>2025-12-19T09:32:44Z</time>
      </trkpt>
      <trkpt lat="43.59498" lon="1.08099">
        <ele>191.2</ele>
        <time>2025-12-19T09:32:45Z</time>
      </trkpt>
      <trkpt lat="43.59506" lon="1.08098">
        <ele>191.2</ele>
        <time>2025-12-19T09:32:46Z</time>
      </trkpt>
      <trkpt lat="43.59513" lon="1.08096">
        <ele>191.4</ele>
        <time>2025-12-19T09:32:47Z</time>
      </trkpt>
      <trkpt lat="43.5952" lon="1.08094">
        <ele>191.6</ele>
        <time>2025-12-19T09:32:48Z</time>
      </trkpt>
      <trkpt lat="43.59527" lon="1.08093">
        <ele>191.8</ele>
        <time>2025-12-19T09:32:49Z</time>
      </trkpt>
      <trkpt lat="43.59534" lon="1.08092">
        <ele>192</ele>
        <time>2025-12-19T09:32:50Z</time>
      </trkpt>
      <trkpt lat="43.59541" lon="1.0809">
        <ele>192.2</ele>
        <time>2025-12-19T09:32:51Z</time>
      </trkpt>
      <trkpt lat="43.59548" lon="1.08088">
        <ele>192.4</ele>
        <time>2025-12-19T09:32:52Z</time>
      </trkpt>
      <trkpt lat="43.59555" lon="1.08086">
        <ele>192.8</ele>
        <time>2025-12-19T09:32:53Z</time>
      </trkpt>
      <trkpt lat="43.59562" lon="1.08084">
        <ele>192.8</ele>
        <time>2025-12-19T09:32:54Z</time>
      </trkpt>
      <trkpt lat="43.59569" lon="1.08082">
        <ele>193</ele>
        <time>2025-12-19T09:32:55Z</time>
      </trkpt>
      <trkpt lat="43.59576" lon="1.08081">
        <ele>193.2</ele>
        <time>2025-12-19T09:32:56Z</time>
      </trkpt>
      <trkpt lat="43.59583" lon="1.08079">
        <ele>193.4</ele>
        <time>2025-12-19T09:32:57Z</time>
      </trkpt>
      <trkpt lat="43.5959" lon="1.08078">
        <ele>193.8</ele>
        <time>2025-12-19T09:32:58Z</time>
      </trkpt>
      <trkpt lat="43.59596" lon="1.08076">
        <ele>194</ele>
        <time>2025-12-19T09:32:59Z</time>
      </trkpt>
      <trkpt lat="43.59603" lon="1.08075">
        <ele>194.4</ele>
        <time>2025-12-19T09:33:00Z</time>
      </trkpt>
      <trkpt lat="43.59609" lon="1.08073">
        <ele>194.8</ele>
        <time>2025-12-19T09:33:01Z</time>
      </trkpt>
      <trkpt lat="43.59616" lon="1.08071">
        <ele>195.2</ele>
        <time>2025-12-19T09:33:02Z</time>
      </trkpt>
      <trkpt lat="43.59623" lon="1.0807">
        <ele>195.6</ele>
        <time>2025-12-19T09:33:03Z</time>
      </trkpt>
      <trkpt lat="43.59629" lon="1.08068">
        <ele>196</ele>
        <time>2025-12-19T09:33:04Z</time>
      </trkpt>
      <trkpt lat="43.59635" lon="1.08067">
        <ele>196.2</ele>
        <time>2025-12-19T09:33:05Z</time>
      </trkpt>
      <trkpt lat="43.59641" lon="1.08066">
        <ele>196.4</ele>
        <time>2025-12-19T09:33:06Z</time>
      </trkpt>
      <trkpt lat="43.59647" lon="1.08065">
        <ele>196.8</ele>
        <time>2025-12-19T09:33:07Z</time>
      </trkpt>
      <trkpt lat="43.59653" lon="1.08064">
        <ele>197.2</ele>
        <time>2025-12-19T09:33:08Z</time>
      </trkpt>
      <trkpt lat="43.59658" lon="1.08062">
        <ele>197.6</ele>
        <time>2025-12-19T09:33:09Z</time>
      </trkpt>
      <trkpt lat="43.59664" lon="1.0806">
        <ele>198</ele>
        <time>2025-12-19T09:33:10Z</time>
      </trkpt>
      <trkpt lat="43.59669" lon="1.08059">
        <ele>198.4</ele>
        <time>2025-12-19T09:33:11Z</time>
      </trkpt>
      <trkpt lat="43.59675" lon="1.08058">
        <ele>198.8</ele>
        <time>2025-12-19T09:33:12Z</time>
      </trkpt>
      <trkpt lat="43.5968" lon="1.08056">
        <ele>199.2</ele>
        <time>2025-12-19T09:33:13Z</time>
      </trkpt>
      <trkpt lat="43.59685" lon="1.08054">
        <ele>199.8</ele>
        <time>2025-12-19T09:33:14Z</time>
      </trkpt>
      <trkpt lat="43.5969" lon="1.08053">
        <ele>200.2</ele>
        <time>2025-12-19T09:33:15Z</time>
      </trkpt>
      <trkpt lat="43.59694" lon="1.08053">
        <ele>200.6</ele>
        <time>2025-12-19T09:33:16Z</time>
      </trkpt>
      <trkpt lat="43.59699" lon="1.08052">
        <ele>201</ele>
        <time>2025-12-19T09:33:17Z</time>
      </trkpt>
      <trkpt lat="43.59703" lon="1.08051">
        <ele>201.4</ele>
        <time>2025-12-19T09:33:18Z</time>
      </trkpt>
      <trkpt lat="43.59707" lon="1.0805">
        <ele>202</ele>
        <time>2025-12-19T09:33:19Z</time>
      </trkpt>
      <trkpt lat="43.59712" lon="1.08049">
        <ele>202.4</ele>
        <time>2025-12-19T09:33:20Z</time>
      </trkpt>
      <trkpt lat="43.59716" lon="1.08047">
        <ele>202.8</ele>
        <time>2025-12-19T09:33:21Z</time>
      </trkpt>
      <trkpt lat="43.5972" lon="1.08046">
        <ele>203.2</ele>
        <time>2025-12-19T09:33:22Z</time>
      </trkpt>
      <trkpt lat="43.59725" lon="1.08045">
        <ele>203.6</ele>
        <time>2025-12-19T09:33:23Z</time>
      </trkpt>
      <trkpt lat="43.59729" lon="1.08043">
        <ele>204</ele>
        <time>2025-12-19T09:33:24Z</time>
      </trkpt>
      <trkpt lat="43.59734" lon="1.08042">
        <ele>204.4</ele>
        <time>2025-12-19T09:33:25Z</time>
      </trkpt>
      <trkpt lat="43.59738" lon="1.08041">
        <ele>204.8</ele>
        <time>2025-12-19T09:33:26Z</time>
      </trkpt>
      <trkpt lat="43.59743" lon="1.08041">
        <ele>205.2</ele>
        <time>2025-12-19T09:33:27Z</time>
      </trkpt>
      <trkpt lat="43.59747" lon="1.08041">
        <ele>205.6</ele>
        <time>2025-12-19T09:33:28Z</time>
      </trkpt>
      <trkpt lat="43.59751" lon="1.0804">
        <ele>206</ele>
        <time>2025-12-19T09:33:29Z</time>
      </trkpt>
      <trkpt lat="43.59754" lon="1.08039">
        <ele>206.4</ele>
        <time>2025-12-19T09:33:30Z</time>
      </trkpt>
      <trkpt lat="43.59758" lon="1.08038">
        <ele>206.8</ele>
        <time>2025-12-19T09:33:31Z</time>
      </trkpt>
      <trkpt lat="43.59762" lon="1.08037">
        <ele>207.2</ele>
        <time>2025-12-19T09:33:32Z</time>
      </trkpt>
      <trkpt lat="43.59766" lon="1.08037">
        <ele>207.4</ele>
        <time>2025-12-19T09:33:33Z</time>
      </trkpt>
      <trkpt lat="43.5977" lon="1.08036">
        <ele>207.8</ele>
        <time>2025-12-19T09:33:34Z</time>
      </trkpt>
      <trkpt lat="43.59774" lon="1.08035">
        <ele>208.2</ele>
        <time>2025-12-19T09:33:35Z</time>
      </trkpt>
      <trkpt lat="43.59777" lon="1.08034">
        <ele>208.4</ele>
        <time>2025-12-19T09:33:36Z</time>
      </trkpt>
      <trkpt lat="43.5978" lon="1.08033">
        <ele>208.6</ele>
        <time>2025-12-19T09:33:37Z</time>
      </trkpt>
      <trkpt lat="43.59784" lon="1.08032">
        <ele>208.8</ele>
        <time>2025-12-19T09:33:38Z</time>
      </trkpt>
      <trkpt lat="43.59787" lon="1.08032">
        <ele>208.8</ele>
        <time>2025-12-19T09:33:39Z</time>
      </trkpt>
      <trkpt lat="43.59791" lon="1.08031">
        <ele>209</ele>
        <time>2025-12-19T09:33:40Z</time>
      </trkpt>
      <trkpt lat="43.59795" lon="1.0803">
        <ele>209</ele>
        <time>2025-12-19T09:33:41Z</time>
      </trkpt>
      <trkpt lat="43.59799" lon="1.08028">
        <ele>208.8</ele>
        <time>2025-12-19T09:33:42Z</time>
      </trkpt>
      <trkpt lat="43.59804" lon="1.08027">
        <ele>208.8</ele>
        <time>2025-12-19T09:33:43Z</time>
      </trkpt>
      <trkpt lat="43.59809" lon="1.08025">
        <ele>208.6</ele>
        <time>2025-12-19T09:33:44Z</time>
      </trkpt>
      <trkpt lat="43.59815" lon="1.08024">
        <ele>208.2</ele>
        <time>2025-12-19T09:33:45Z</time>
      </trkpt>
      <trkpt lat="43.59822" lon="1.08023">
        <ele>207.8</ele>
        <time>2025-12-19T09:33:46Z</time>
      </trkpt>
      <trkpt lat="43.59829" lon="1.08022">
        <ele>207.4</ele>
        <time>2025-12-19T09:33:47Z</time>
      </trkpt>
      <trkpt lat="43.59836" lon="1.08021">
        <ele>207</ele>
        <time>2025-12-19T09:33:48Z</time>
      </trkpt>
      <trkpt lat="43.59843" lon="1.08019">
        <ele>206.6</ele>
        <time>2025-12-19T09:33:49Z</time>
      </trkpt>
      <trkpt lat="43.59851" lon="1.08017">
        <ele>206</ele>
        <time>2025-12-19T09:33:50Z</time>
      </trkpt>
      <trkpt lat="43.59859" lon="1.08015">
        <ele>205.8</ele>
        <time>2025-12-19T09:33:51Z</time>
      </trkpt>
      <trkpt lat="43.59867" lon="1.08013">
        <ele>205</ele>
        <time>2025-12-19T09:33:52Z</time>
      </trkpt>
      <trkpt lat="43.59875" lon="1.08011">
        <ele>204</ele>
        <time>2025-12-19T09:33:53Z</time>
      </trkpt>
      <trkpt lat="43.59884" lon="1.08008">
        <ele>203.2</ele>
        <time>2025-12-19T09:33:54Z</time>
      </trkpt>
      <trkpt lat="43.59894" lon="1.08006">
        <ele>202</ele>
        <time>2025-12-19T09:33:55Z</time>
      </trkpt>
      <trkpt lat="43.59903" lon="1.08004">
        <ele>201.4</ele>
        <time>2025-12-19T09:33:56Z</time>
      </trkpt>
      <trkpt lat="43.59913" lon="1.08">
        <ele>200.8</ele>
        <time>2025-12-19T09:33:57Z</time>
      </trkpt>
      <trkpt lat="43.59923" lon="1.07996">
        <ele>200</ele>
        <time>2025-12-19T09:33:58Z</time>
      </trkpt>
      <trkpt lat="43.59932" lon="1.07991">
        <ele>199.2</ele>
        <time>2025-12-19T09:33:59Z</time>
      </trkpt>
      <trkpt lat="43.59942" lon="1.07986">
        <ele>198.6</ele>
        <time>2025-12-19T09:34:00Z</time>
      </trkpt>
      <trkpt lat="43.59951" lon="1.0798">
        <ele>198</ele>
        <time>2025-12-19T09:34:01Z</time>
      </trkpt>
      <trkpt lat="43.5996" lon="1.07975">
        <ele>197.4</ele>
        <time>2025-12-19T09:34:02Z</time>
      </trkpt>
      <trkpt lat="43.59969" lon="1.0797">
        <ele>196.6</ele>
        <time>2025-12-19T09:34:03Z</time>
      </trkpt>
      <trkpt lat="43.59979" lon="1.07965">
        <ele>196</ele>
        <time>2025-12-19T09:34:04Z</time>
      </trkpt>
      <trkpt lat="43.59988" lon="1.0796">
        <ele>195.4</ele>
        <time>2025-12-19T09:34:05Z</time>
      </trkpt>
      <trkpt lat="43.59998" lon="1.07955">
        <ele>194.6</ele>
        <time>2025-12-19T09:34:06Z</time>
      </trkpt>
      <trkpt lat="43.60009" lon="1.07952">
        <ele>193.8</ele>
        <time>2025-12-19T09:34:07Z</time>
      </trkpt>
      <trkpt lat="43.60019" lon="1.07949">
        <ele>193</ele>
        <time>2025-12-19T09:34:08Z</time>
      </trkpt>
      <trkpt lat="43.6003" lon="1.07948">
        <ele>192.4</ele>
        <time>2025-12-19T09:34:09Z</time>
      </trkpt>
      <trkpt lat="43.60041" lon="1.07948">
        <ele>191.6</ele>
        <time>2025-12-19T09:34:10Z</time>
      </trkpt>
      <trkpt lat="43.60052" lon="1.07947">
        <ele>191</ele>
        <time>2025-12-19T09:34:11Z</time>
      </trkpt>
      <trkpt lat="43.60064" lon="1.07946">
        <ele>190</ele>
        <time>2025-12-19T09:34:12Z</time>
      </trkpt>
      <trkpt lat="43.60075" lon="1.07945">
        <ele>189.6</ele>
        <time>2025-12-19T09:34:13Z</time>
      </trkpt>
      <trkpt lat="43.60086" lon="1.07946">
        <ele>188.8</ele>
        <time>2025-12-19T09:34:14Z</time>
      </trkpt>
      <trkpt lat="43.60097" lon="1.07948">
        <ele>188.2</ele>
        <time>2025-12-19T09:34:15Z</time>
      </trkpt>
      <trkpt lat="43.60107" lon="1.07952">
        <ele>187.4</ele>
        <time>2025-12-19T09:34:16Z</time>
      </trkpt>
      <trkpt lat="43.60118" lon="1.07958">
        <ele>186.6</ele>
        <time>2025-12-19T09:34:17Z</time>
      </trkpt>
      <trkpt lat="43.60128" lon="1.07963">
        <ele>185.6</ele>
        <time>2025-12-19T09:34:18Z</time>
      </trkpt>
      <trkpt lat="43.60139" lon="1.0797">
        <ele>184.8</ele>
        <time>2025-12-19T09:34:19Z</time>
      </trkpt>
      <trkpt lat="43.60149" lon="1.07977">
        <ele>184</ele>
        <time>2025-12-19T09:34:20Z</time>
      </trkpt>
      <trkpt lat="43.60159" lon="1.07984">
        <ele>183.2</ele>
        <time>2025-12-19T09:34:21Z</time>
      </trkpt>
      <trkpt lat="43.60168" lon="1.07991">
        <ele>182.4</ele>
        <time>2025-12-19T09:34:22Z</time>
      </trkpt>
      <trkpt lat="43.60176" lon="1.07999">
        <ele>181.6</ele>
        <time>2025-12-19T09:34:23Z</time>
      </trkpt>
      <trkpt lat="43.60185" lon="1.08007">
        <ele>181</ele>
        <time>2025-12-19T09:34:24Z</time>
      </trkpt>
      <trkpt lat="43.60194" lon="1.08015">
        <ele>180.2</ele>
        <time>2025-12-19T09:34:25Z</time>
      </trkpt>
      <trkpt lat="43.60203" lon="1.08021">
        <ele>179.6</ele>
        <time>2025-12-19T09:34:26Z</time>
      </trkpt>
      <trkpt lat="43.60213" lon="1.08026">
        <ele>178.8</ele>
        <time>2025-12-19T09:34:27Z</time>
      </trkpt>
      <trkpt lat="43.60223" lon="1.0803">
        <ele>177.4</ele>
        <time>2025-12-19T09:34:28Z</time>
      </trkpt>
      <trkpt lat="43.60234" lon="1.08034">
        <ele>176.2</ele>
        <time>2025-12-19T09:34:29Z</time>
      </trkpt>
      <trkpt lat="43.60245" lon="1.08035">
        <ele>175.2</ele>
        <time>2025-12-19T09:34:30Z</time>
      </trkpt>
      <trkpt lat="43.60256" lon="1.08035">
        <ele>174.8</ele>
        <time>2025-12-19T09:34:31Z</time>
      </trkpt>
      <trkpt lat="43.60268" lon="1.08034">
        <ele>174</ele>
        <time>2025-12-19T09:34:32Z</time>
      </trkpt>
      <trkpt lat="43.6028" lon="1.08034">
        <ele>173.4</ele>
        <time>2025-12-19T09:34:33Z</time>
      </trkpt>
      <trkpt lat="43.60292" lon="1.08033">
        <ele>172.6</ele>
        <time>2025-12-19T09:34:34Z</time>
      </trkpt>
      <trkpt lat="43.60303" lon="1.0803">
        <ele>172</ele>
        <time>2025-12-19T09:34:35Z</time>
      </trkpt>
      <trkpt lat="43.60313" lon="1.08025">
        <ele>171.2</ele>
        <time>2025-12-19T09:34:36Z</time>
      </trkpt>
      <trkpt lat="43.60323" lon="1.08016">
        <ele>170.4</ele>
        <time>2025-12-19T09:34:37Z</time>
      </trkpt>
      <trkpt lat="43.6033" lon="1.08004">
        <ele>169.6</ele>
        <time>2025-12-19T09:34:38Z</time>
      </trkpt>
      <trkpt lat="43.60336" lon="1.07991">
        <ele>168.8</ele>
        <time>2025-12-19T09:34:39Z</time>
      </trkpt>
      <trkpt lat="43.60341" lon="1.07978">
        <ele>168.2</ele>
        <time>2025-12-19T09:34:40Z</time>
      </trkpt>
      <trkpt lat="43.60346" lon="1.07965">
        <ele>167.8</ele>
        <time>2025-12-19T09:34:41Z</time>
      </trkpt>
      <trkpt lat="43.60351" lon="1.07951">
        <ele>167.4</ele>
        <time>2025-12-19T09:34:42Z</time>
      </trkpt>
      <trkpt lat="43.60357" lon="1.07938">
        <ele>167</ele>
        <time>2025-12-19T09:34:43Z</time>
      </trkpt>
      <trkpt lat="43.60362" lon="1.07925">
        <ele>166.4</ele>
        <time>2025-12-19T09:34:44Z</time>
      </trkpt>
      <trkpt lat="43.60367" lon="1.07914">
        <ele>166.2</ele>
        <time>2025-12-19T09:34:45Z</time>
      </trkpt>
      <trkpt lat="43.60373" lon="1.07905">
        <ele>166</ele>
        <time>2025-12-19T09:34:46Z</time>
      </trkpt>
      <trkpt lat="43.60378" lon="1.07896">
        <ele>165.8</ele>
        <time>2025-12-19T09:34:47Z</time>
      </trkpt>
      <trkpt lat="43.60383" lon="1.0789">
        <ele>165.6</ele>
        <time>2025-12-19T09:34:48Z</time>
      </trkpt>
      <trkpt lat="43.60389" lon="1.07885">
        <ele>165.6</ele>
        <time>2025-12-19T09:34:49Z</time>
      </trkpt>
      <trkpt lat="43.60395" lon="1.07881">
        <ele>165.6</ele>
        <time>2025-12-19T09:34:50Z</time>
      </trkpt>
      <trkpt lat="43.60402" lon="1.07876">
        <ele>165.4</ele>
        <time>2025-12-19T09:34:51Z</time>
      </trkpt>
      <trkpt lat="43.60408" lon="1.07872">
        <ele>165.2</ele>
        <time>2025-12-19T09:34:52Z</time>
      </trkpt>
      <trkpt lat="43.60415" lon="1.07868">
        <ele>165</ele>
        <time>2025-12-19T09:34:53Z</time>
      </trkpt>
      <trkpt lat="43.60422" lon="1.07868">
        <ele>164.8</ele>
        <time>2025-12-19T09:34:54Z</time>
      </trkpt>
      <trkpt lat="43.6043" lon="1.07868">
        <ele>164.2</ele>
        <time>2025-12-19T09:34:55Z</time>
      </trkpt>
      <trkpt lat="43.60438" lon="1.0787">
        <ele>164</ele>
        <time>2025-12-19T09:34:56Z</time>
      </trkpt>
      <trkpt lat="43.60446" lon="1.07873">
        <ele>163.4</ele>
        <time>2025-12-19T09:34:57Z</time>
      </trkpt>
      <trkpt lat="43.60455" lon="1.07876">
        <ele>163</ele>
        <time>2025-12-19T09:34:58Z</time>
      </trkpt>
      <trkpt lat="43.60463" lon="1.0788">
        <ele>162.4</ele>
        <time>2025-12-19T09:34:59Z</time>
      </trkpt>
      <trkpt lat="43.60472" lon="1.07883">
        <ele>161.8</ele>
        <time>2025-12-19T09:35:00Z</time>
      </trkpt>
      <trkpt lat="43.60481" lon="1.07887">
        <ele>161.2</ele>
        <time>2025-12-19T09:35:01Z</time>
      </trkpt>
      <trkpt lat="43.6049" lon="1.0789">
        <ele>160.8</ele>
        <time>2025-12-19T09:35:02Z</time>
      </trkpt>
      <trkpt lat="43.60499" lon="1.07894">
        <ele>160.2</ele>
        <time>2025-12-19T09:35:03Z</time>
      </trkpt>
      <trkpt lat="43.60508" lon="1.07897">
        <ele>159.8</ele>
        <time>2025-12-19T09:35:04Z</time>
      </trkpt>
      <trkpt lat="43.60518" lon="1.079">
        <ele>159.2</ele>
        <time>2025-12-19T09:35:05Z</time>
      </trkpt>
      <trkpt lat="43.60528" lon="1.07902">
        <ele>158.8</ele>
        <time>2025-12-19T09:35:06Z</time>
      </trkpt>
      <trkpt lat="43.60537" lon="1.07901">
        <ele>158.4</ele>
        <time>2025-12-19T09:35:07Z</time>
      </trkpt>
      <trkpt lat="43.60546" lon="1.07899">
        <ele>158</ele>
        <time>2025-12-19T09:35:08Z</time>
      </trkpt>
      <trkpt lat="43.60554" lon="1.07896">
        <ele>157.6</ele>
        <time>2025-12-19T09:35:09Z</time>
      </trkpt>
      <trkpt lat="43.60563" lon="1.07893">
        <ele>157.2</ele>
        <time>2025-12-19T09:35:10Z</time>
      </trkpt>
      <trkpt lat="43.60572" lon="1.07891">
        <ele>156.8</ele>
        <time>2025-12-19T09:35:11Z</time>
      </trkpt>
      <trkpt lat="43.60581" lon="1.0789">
        <ele>156.4</ele>
        <time>2025-12-19T09:35:12Z</time>
      </trkpt>
      <trkpt lat="43.60589" lon="1.07889">
        <ele>156.2</ele>
        <time>2025-12-19T09:35:13Z</time>
      </trkpt>
      <trkpt lat="43.60596" lon="1.07885">
        <ele>156</ele>
        <time>2025-12-19T09:35:14Z</time>
      </trkpt>
      <trkpt lat="43.60601" lon="1.07878">
        <ele>155.8</ele>
        <time>2025-12-19T09:35:15Z</time>
      </trkpt>
      <trkpt lat="43.60607" lon="1.07873">
        <ele>155.6</ele>
        <time>2025-12-19T09:35:16Z</time>
      </trkpt>
      <trkpt lat="43.60614" lon="1.07868">
        <ele>155.4</ele>
        <time>2025-12-19T09:35:17Z</time>
      </trkpt>
      <trkpt lat="43.60621" lon="1.07865">
        <ele>155</ele>
        <time>2025-12-19T09:35:18Z</time>
      </trkpt>
      <trkpt lat="43.60628" lon="1.07863">
        <ele>154.8</ele>
        <time>2025-12-19T09:35:19Z</time>
      </trkpt>
      <trkpt lat="43.60636" lon="1.07862">
        <ele>154.6</ele>
        <time>2025-12-19T09:35:20Z</time>
      </trkpt>
      <trkpt lat="43.60644" lon="1.07862">
        <ele>154.2</ele>
        <time>2025-12-19T09:35:21Z</time>
      </trkpt>
      <trkpt lat="43.60652" lon="1.07862">
        <ele>154</ele>
        <time>2025-12-19T09:35:22Z</time>
      </trkpt>
      <trkpt lat="43.6066" lon="1.07862">
        <ele>153.8</ele>
        <time>2025-12-19T09:35:23Z</time>
      </trkpt>
      <trkpt lat="43.60668" lon="1.07863">
        <ele>153.6</ele>
        <time>2025-12-19T09:35:24Z</time>
      </trkpt>
      <trkpt lat="43.60676" lon="1.07864">
        <ele>153.4</ele>
        <time>2025-12-19T09:35:25Z</time>
      </trkpt>
      <trkpt lat="43.60684" lon="1.07866">
        <ele>153</ele>
        <time>2025-12-19T09:35:26Z</time>
      </trkpt>
      <trkpt lat="43.60692" lon="1.07868">
        <ele>152.6</ele>
        <time>2025-12-19T09:35:27Z</time>
      </trkpt>
      <trkpt lat="43.607" lon="1.07871">
        <ele>152.4</ele>
        <time>2025-12-19T09:35:28Z</time>
      </trkpt>
      <trkpt lat="43.60708" lon="1.07874">
        <ele>152</ele>
        <time>2025-12-19T09:35:29Z</time>
      </trkpt>
      <trkpt lat="43.60716" lon="1.07877">
        <ele>151.8</ele>
        <time>2025-12-19T09:35:30Z</time>
      </trkpt>
      <trkpt lat="43.60724" lon="1.07881">
        <ele>151.4</ele>
        <time>2025-12-19T09:35:31Z</time>
      </trkpt>
      <trkpt lat="43.60731" lon="1.07884">
        <ele>151.2</ele>
        <time>2025-12-19T09:35:32Z</time>
      </trkpt>
      <trkpt lat="43.60738" lon="1.07888">
        <ele>150.8</ele>
        <time>2025-12-19T09:35:33Z</time>
      </trkpt>
      <trkpt lat="43.60744" lon="1.07892">
        <ele>150.8</ele>
        <time>2025-12-19T09:35:34Z</time>
      </trkpt>
      <trkpt lat="43.60751" lon="1.07896">
        <ele>150.6</ele>
        <time>2025-12-19T09:35:35Z</time>
      </trkpt>
      <trkpt lat="43.60758" lon="1.079">
        <ele>150.4</ele>
        <time>2025-12-19T09:35:36Z</time>
      </trkpt>
      <trkpt lat="43.60765" lon="1.07904">
        <ele>150</ele>
        <time>2025-12-19T09:35:37Z</time>
      </trkpt>
      <trkpt lat="43.60773" lon="1.07908">
        <ele>149.8</ele>
        <time>2025-12-19T09:35:38Z</time>
      </trkpt>
      <trkpt lat="43.6078" lon="1.07911">
        <ele>149.4</ele>
        <time>2025-12-19T09:35:39Z</time>
      </trkpt>
      <trkpt lat="43.60789" lon="1.07914">
        <ele>149</ele>
        <time>2025-12-19T09:35:40Z</time>
      </trkpt>
      <trkpt lat="43.60797" lon="1.07916">
        <ele>148.6</ele>
        <time>2025-12-19T09:35:41Z</time>
      </trkpt>
      <trkpt lat="43.60806" lon="1.07918">
        <ele>148.2</ele>
        <time>2025-12-19T09:35:42Z</time>
      </trkpt>
      <trkpt lat="43.60815" lon="1.07921">
        <ele>147.8</ele>
        <time>2025-12-19T09:35:43Z</time>
      </trkpt>
      <trkpt lat="43.60824" lon="1.07923">
        <ele>147.2</ele>
        <time>2025-12-19T09:35:44Z</time>
      </trkpt>
      <trkpt lat="43.60833" lon="1.07924">
        <ele>146.8</ele>
        <time>2025-12-19T09:35:45Z</time>
      </trkpt>
      <trkpt lat="43.60842" lon="1.07926">
        <ele>146.6</ele>
        <time>2025-12-19T09:35:46Z</time>
      </trkpt>
      <trkpt lat="43.60851" lon="1.07928">
        <ele>146.2</ele>
        <time>2025-12-19T09:35:47Z</time>
      </trkpt>
      <trkpt lat="43.6086" lon="1.0793">
        <ele>145.6</ele>
        <time>2025-12-19T09:35:48Z</time>
      </trkpt>
      <trkpt lat="43.60868" lon="1.07932">
        <ele>145.2</ele>
        <time>2025-12-19T09:35:49Z</time>
      </trkpt>
      <trkpt lat="43.60877" lon="1.07934">
        <ele>144.8</ele>
        <time>2025-12-19T09:35:50Z</time>
      </trkpt>
      <trkpt lat="43.60886" lon="1.07936">
        <ele>144.6</ele>
        <time>2025-12-19T09:35:51Z</time>
      </trkpt>
      <trkpt lat="43.60894" lon="1.07938">
        <ele>144.4</ele>
        <time>2025-12-19T09:35:52Z</time>
      </trkpt>
      <trkpt lat="43.60902" lon="1.07939">
        <ele>144.2</ele>
        <time>2025-12-19T09:35:53Z</time>
      </trkpt>
      <trkpt lat="43.6091" lon="1.0794">
        <ele>144.2</ele>
        <time>2025-12-19T09:35:54Z</time>
      </trkpt>
      <trkpt lat="43.60918" lon="1.0794">
        <ele>144</ele>
        <time>2025-12-19T09:35:55Z</time>
      </trkpt>
      <trkpt lat="43.60926" lon="1.07941">
        <ele>144</ele>
        <time>2025-12-19T09:35:56Z</time>
      </trkpt>
      <trkpt lat="43.60934" lon="1.07943">
        <ele>144</ele>
        <time>2025-12-19T09:35:57Z</time>
      </trkpt>
      <trkpt lat="43.60941" lon="1.07944">
        <ele>143.8</ele>
        <time>2025-12-19T09:35:58Z</time>
      </trkpt>
      <trkpt lat="43.60949" lon="1.07945">
        <ele>143.8</ele>
        <time>2025-12-19T09:35:59Z</time>
      </trkpt>
      <trkpt lat="43.60956" lon="1.07945">
        <ele>143.8</ele>
        <time>2025-12-19T09:36:00Z</time>
      </trkpt>
      <trkpt lat="43.60963" lon="1.07944">
        <ele>143.8</ele>
        <time>2025-12-19T09:36:01Z</time>
      </trkpt>
      <trkpt lat="43.6097" lon="1.07944">
        <ele>143.8</ele>
        <time>2025-12-19T09:36:02Z</time>
      </trkpt>
      <trkpt lat="43.60977" lon="1.07943">
        <ele>143.8</ele>
        <time>2025-12-19T09:36:03Z</time>
      </trkpt>
      <trkpt lat="43.60985" lon="1.07943">
        <ele>143.6</ele>
        <time>2025-12-19T09:36:04Z</time>
      </trkpt>
      <trkpt lat="43.60991" lon="1.07942">
        <ele>143.6</ele>
        <time>2025-12-19T09:36:05Z</time>
      </trkpt>
      <trkpt lat="43.60998" lon="1.07941">
        <ele>143.6</ele>
        <time>2025-12-19T09:36:06Z</time>
      </trkpt>
      <trkpt lat="43.61003" lon="1.0794">
        <ele>143.6</ele>
        <time>2025-12-19T09:36:07Z</time>
      </trkpt>
      <trkpt lat="43.61006" lon="1.0794">
        <ele>143.6</ele>
        <time>2025-12-19T09:36:08Z</time>
      </trkpt>
      <trkpt lat="43.61009" lon="1.0794">
        <ele>143.6</ele>
        <time>2025-12-19T09:36:09Z</time>
      </trkpt>
      <trkpt lat="43.61012" lon="1.0794">
        <ele>143.6</ele>
        <time>2025-12-19T09:36:10Z</time>
      </trkpt>
      <trkpt lat="43.61014" lon="1.0794">
        <ele>143.6</ele>
        <time>2025-12-19T09:36:11Z</time>
      </trkpt>
      <trkpt lat="43.61017" lon="1.07942">
        <ele>143.8</ele>
        <time>2025-12-19T09:36:12Z</time>
      </trkpt>
      <trkpt lat="43.61021" lon="1.07945">
        <ele>143.8</ele>
        <time>2025-12-19T09:36:13Z</time>
      </trkpt>
      <trkpt lat="43.61024" lon="1.07947">
        <ele>143.6</ele>
        <time>2025-12-19T09:36:14Z</time>
      </trkpt>
      <trkpt lat="43.61027" lon="1.07949">
        <ele>143.6</ele>
        <time>2025-12-19T09:36:15Z</time>
      </trkpt>
      <trkpt lat="43.6103" lon="1.07953">
        <ele>143.6</ele>
        <time>2025-12-19T09:36:16Z</time>
      </trkpt>
      <trkpt lat="43.61034" lon="1.07957">
        <ele>143.6</ele>
        <time>2025-12-19T09:36:17Z</time>
      </trkpt>
      <trkpt lat="43.61037" lon="1.07961">
        <ele>143.6</ele>
        <time>2025-12-19T09:36:18Z</time>
      </trkpt>
      <trkpt lat="43.6104" lon="1.07966">
        <ele>143.6</ele>
        <time>2025-12-19T09:36:19Z</time>
      </trkpt>
      <trkpt lat="43.61043" lon="1.07972">
        <ele>143.6</ele>
        <time>2025-12-19T09:36:20Z</time>
      </trkpt>
      <trkpt lat="43.61046" lon="1.07978">
        <ele>143.6</ele>
        <time>2025-12-19T09:36:21Z</time>
      </trkpt>
      <trkpt lat="43.61049" lon="1.07983">
        <ele>143.6</ele>
        <time>2025-12-19T09:36:22Z</time>
      </trkpt>
      <trkpt lat="43.61052" lon="1.07989">
        <ele>143.6</ele>
        <time>2025-12-19T09:36:23Z</time>
      </trkpt>
      <trkpt lat="43.61056" lon="1.07995">
        <ele>143.6</ele>
        <time>2025-12-19T09:36:24Z</time>
      </trkpt>
      <trkpt lat="43.61059" lon="1.07999">
        <ele>143.6</ele>
        <time>2025-12-19T09:36:25Z</time>
      </trkpt>
      <trkpt lat="43.61062" lon="1.08004">
        <ele>143.6</ele>
        <time>2025-12-19T09:36:26Z</time>
      </trkpt>
      <trkpt lat="43.61065" lon="1.08007">
        <ele>143.6</ele>
        <time>2025-12-19T09:36:27Z</time>
      </trkpt>
      <trkpt lat="43.61067" lon="1.0801">
        <ele>143.6</ele>
        <time>2025-12-19T09:36:28Z</time>
      </trkpt>
      <trkpt lat="43.6107" lon="1.08012">
        <ele>143.6</ele>
        <time>2025-12-19T09:36:29Z</time>
      </trkpt>
      <trkpt lat="43.61072" lon="1.08015">
        <ele>143.6</ele>
        <time>2025-12-19T09:36:30Z</time>
      </trkpt>
      <trkpt lat="43.61074" lon="1.08016">
        <ele>143.8</ele>
        <time>2025-12-19T09:36:31Z</time>
      </trkpt>
      <trkpt lat="43.61076" lon="1.08018">
        <ele>143.8</ele>
        <time>2025-12-19T09:36:32Z</time>
      </trkpt>
      <trkpt lat="43.61077" lon="1.08018">
        <ele>143.8</ele>
        <time>2025-12-19T09:36:33Z</time>
      </trkpt>
      <trkpt lat="43.61078" lon="1.08019">
        <ele>143.8</ele>
        <time>2025-12-19T09:36:34Z</time>
      </trkpt>
      <trkpt lat="43.61079" lon="1.0802">
        <ele>144</ele>
        <time>2025-12-19T09:36:35Z</time>
      </trkpt>
      <trkpt lat="43.61081" lon="1.08021">
        <ele>144</ele>
        <time>2025-12-19T09:36:36Z</time>
      </trkpt>
      <trkpt lat="43.61083" lon="1.08022">
        <ele>144</ele>
        <time>2025-12-19T09:36:37Z</time>
      </trkpt>
      <trkpt lat="43.61085" lon="1.08024">
        <ele>144</ele>
        <time>2025-12-19T09:36:38Z</time>
      </trkpt>
      <trkpt lat="43.61088" lon="1.08026">
        <ele>144.2</ele>
        <time>2025-12-19T09:36:39Z</time>
      </trkpt>
      <trkpt lat="43.61091" lon="1.08028">
        <ele>144.2</ele>
        <time>2025-12-19T09:36:40Z</time>
      </trkpt>
      <trkpt lat="43.61094" lon="1.0803">
        <ele>144.2</ele>
        <time>2025-12-19T09:36:41Z</time>
      </trkpt>
      <trkpt lat="43.61097" lon="1.08032">
        <ele>144.4</ele>
        <time>2025-12-19T09:36:42Z</time>
      </trkpt>
      <trkpt lat="43.611" lon="1.08033">
        <ele>144.6</ele>
        <time>2025-12-19T09:36:43Z</time>
      </trkpt>
      <trkpt lat="43.61103" lon="1.08035">
        <ele>144.6</ele>
        <time>2025-12-19T09:36:44Z</time>
      </trkpt>
      <trkpt lat="43.61106" lon="1.08037">
        <ele>144.8</ele>
        <time>2025-12-19T09:36:45Z</time>
      </trkpt>
      <trkpt lat="43.6111" lon="1.08039">
        <ele>145</ele>
        <time>2025-12-19T09:36:46Z</time>
      </trkpt>
      <trkpt lat="43.61113" lon="1.08041">
        <ele>145.2</ele>
        <time>2025-12-19T09:36:47Z</time>
      </trkpt>
      <trkpt lat="43.61117" lon="1.08045">
        <ele>145.4</ele>
        <time>2025-12-19T09:36:48Z</time>
      </trkpt>
      <trkpt lat="43.61121" lon="1.08049">
        <ele>145.6</ele>
        <time>2025-12-19T09:36:49Z</time>
      </trkpt>
      <trkpt lat="43.61124" lon="1.08053">
        <ele>145.8</ele>
        <time>2025-12-19T09:36:50Z</time>
      </trkpt>
      <trkpt lat="43.61128" lon="1.08056">
        <ele>146</ele>
        <time>2025-12-19T09:36:51Z</time>
      </trkpt>
      <trkpt lat="43.61132" lon="1.0806">
        <ele>146.2</ele>
        <time>2025-12-19T09:36:52Z</time>
      </trkpt>
      <trkpt lat="43.61136" lon="1.08063">
        <ele>146.6</ele>
        <time>2025-12-19T09:36:53Z</time>
      </trkpt>
      <trkpt lat="43.61139" lon="1.08066">
        <ele>146.8</ele>
        <time>2025-12-19T09:36:54Z</time>
      </trkpt>
      <trkpt lat="43.61143" lon="1.08068">
        <ele>147</ele>
        <time>2025-12-19T09:36:55Z</time>
      </trkpt>
      <trkpt lat="43.61146" lon="1.0807">
        <ele>147.4</ele>
        <time>2025-12-19T09:36:56Z</time>
      </trkpt>
      <trkpt lat="43.61148" lon="1.08071">
        <ele>147.6</ele>
        <time>2025-12-19T09:36:57Z</time>
      </trkpt>
      <trkpt lat="43.6115" lon="1.08072">
        <ele>147.8</ele>
        <time>2025-12-19T09:36:58Z</time>
      </trkpt>
      <trkpt lat="43.61151" lon="1.08073">
        <ele>148</ele>
        <time>2025-12-19T09:36:59Z</time>
      </trkpt>
      <trkpt lat="43.61152" lon="1.08074">
        <ele>148.2</ele>
        <time>2025-12-19T09:37:00Z</time>
      </trkpt>
      <trkpt lat="43.61153" lon="1.08074">
        <ele>148.4</ele>
        <time>2025-12-19T09:37:01Z</time>
      </trkpt>
      <trkpt lat="43.61154" lon="1.08075">
        <ele>148.6</ele>
        <time>2025-12-19T09:37:02Z</time>
      </trkpt>
      <trkpt lat="43.61156" lon="1.08076">
        <ele>148.8</ele>
        <time>2025-12-19T09:37:03Z</time>
      </trkpt>
      <trkpt lat="43.61157" lon="1.08077">
        <ele>148.8</ele>
        <time>2025-12-19T09:37:04Z</time>
      </trkpt>
      <trkpt lat="43.61158" lon="1.08077">
        <ele>148.8</ele>
        <time>2025-12-19T09:37:05Z</time>
      </trkpt>
      <trkpt lat="43.6116" lon="1.08078">
        <ele>148.8</ele>
        <time>2025-12-19T09:37:06Z</time>
      </trkpt>
      <trkpt lat="43.61162" lon="1.08079">
        <ele>149</ele>
        <time>2025-12-19T09:37:07Z</time>
      </trkpt>
      <trkpt lat="43.61163" lon="1.0808">
        <ele>149</ele>
        <time>2025-12-19T09:37:08Z</time>
      </trkpt>
      <trkpt lat="43.61164" lon="1.08083">
        <ele>149.2</ele>
        <time>2025-12-19T09:37:09Z</time>
      </trkpt>
      <trkpt lat="43.61166" lon="1.08086">
        <ele>149.4</ele>
        <time>2025-12-19T09:37:10Z</time>
      </trkpt>
      <trkpt lat="43.61167" lon="1.08088">
        <ele>149.4</ele>
        <time>2025-12-19T09:37:11Z</time>
      </trkpt>
      <trkpt lat="43.6117" lon="1.08089">
        <ele>149.6</ele>
        <time>2025-12-19T09:37:12Z</time>
      </trkpt>
      <trkpt lat="43.61172" lon="1.08088">
        <ele>149.6</ele>
        <time>2025-12-19T09:37:13Z</time>
      </trkpt>
      <trkpt lat="43.61175" lon="1.08086">
        <ele>149.6</ele>
        <time>2025-12-19T09:37:14Z</time>
      </trkpt>
      <trkpt lat="43.61177" lon="1.08083">
        <ele>149.6</ele>
        <time>2025-12-19T09:37:15Z</time>
      </trkpt>
      <trkpt lat="43.6118" lon="1.08078">
        <ele>149.6</ele>
        <time>2025-12-19T09:37:16Z</time>
      </trkpt>
      <trkpt lat="43.61183" lon="1.08074">
        <ele>149.6</ele>
        <time>2025-12-19T09:37:17Z</time>
      </trkpt>
      <trkpt lat="43.61187" lon="1.08069">
        <ele>149.6</ele>
        <time>2025-12-19T09:37:18Z</time>
      </trkpt>
      <trkpt lat="43.6119" lon="1.08063">
        <ele>149.4</ele>
        <time>2025-12-19T09:37:19Z</time>
      </trkpt>
      <trkpt lat="43.61193" lon="1.08058">
        <ele>149.4</ele>
        <time>2025-12-19T09:37:20Z</time>
      </trkpt>
      <trkpt lat="43.61197" lon="1.08052">
        <ele>149.2</ele>
        <time>2025-12-19T09:37:21Z</time>
      </trkpt>
      <trkpt lat="43.612" lon="1.08046">
        <ele>149</ele>
        <time>2025-12-19T09:37:22Z</time>
      </trkpt>
      <trkpt lat="43.61203" lon="1.08041">
        <ele>148.8</ele>
        <time>2025-12-19T09:37:23Z</time>
      </trkpt>
      <trkpt lat="43.61206" lon="1.08036">
        <ele>148.6</ele>
        <time>2025-12-19T09:37:24Z</time>
      </trkpt>
      <trkpt lat="43.61208" lon="1.08032">
        <ele>148.4</ele>
        <time>2025-12-19T09:37:25Z</time>
      </trkpt>
      <trkpt lat="43.6121" lon="1.08028">
        <ele>148.4</ele>
        <time>2025-12-19T09:37:26Z</time>
      </trkpt>
      <trkpt lat="43.61211" lon="1.08025">
        <ele>148.2</ele>
        <time>2025-12-19T09:37:27Z</time>
      </trkpt>
      <trkpt lat="43.61212" lon="1.08023">
        <ele>148.2</ele>
        <time>2025-12-19T09:37:28Z</time>
      </trkpt>
      <trkpt lat="43.61214" lon="1.08021">
        <ele>148.2</ele>
        <time>2025-12-19T09:37:29Z</time>
      </trkpt>
      <trkpt lat="43.61214" lon="1.0802">
        <ele>148</ele>
        <time>2025-12-19T09:37:30Z</time>
      </trkpt>
      <trkpt lat="43.61216" lon="1.08018">
        <ele>148</ele>
        <time>2025-12-19T09:37:31Z</time>
      </trkpt>
      <trkpt lat="43.61218" lon="1.08018">
        <ele>148</ele>
        <time>2025-12-19T09:37:32Z</time>
      </trkpt>
      <trkpt lat="43.6122" lon="1.08017">
        <ele>147.8</ele>
        <time>2025-12-19T09:37:33Z</time>
      </trkpt>
      <trkpt lat="43.61223" lon="1.08014">
        <ele>147.8</ele>
        <time>2025-12-19T09:37:34Z</time>
      </trkpt>
      <trkpt lat="43.61226" lon="1.08011">
        <ele>147.8</ele>
        <time>2025-12-19T09:37:35Z</time>
      </trkpt>
      <trkpt lat="43.61229" lon="1.08008">
        <ele>147.6</ele>
        <time>2025-12-19T09:37:36Z</time>
      </trkpt>
      <trkpt lat="43.61233" lon="1.08005">
        <ele>147.6</ele>
        <time>2025-12-19T09:37:37Z</time>
      </trkpt>
      <trkpt lat="43.61237" lon="1.08002">
        <ele>147.6</ele>
        <time>2025-12-19T09:37:38Z</time>
      </trkpt>
      <trkpt lat="43.61241" lon="1.07998">
        <ele>147.4</ele>
        <time>2025-12-19T09:37:39Z</time>
      </trkpt>
      <trkpt lat="43.61245" lon="1.07993">
        <ele>147.2</ele>
        <time>2025-12-19T09:37:40Z</time>
      </trkpt>
      <trkpt lat="43.61249" lon="1.07988">
        <ele>147</ele>
        <time>2025-12-19T09:37:41Z</time>
      </trkpt>
      <trkpt lat="43.61253" lon="1.07983">
        <ele>147</ele>
        <time>2025-12-19T09:37:42Z</time>
      </trkpt>
      <trkpt lat="43.61257" lon="1.07978">
        <ele>147</ele>
        <time>2025-12-19T09:37:43Z</time>
      </trkpt>
      <trkpt lat="43.61262" lon="1.07973">
        <ele>146.8</ele>
        <time>2025-12-19T09:37:44Z</time>
      </trkpt>
      <trkpt lat="43.61266" lon="1.07968">
        <ele>146.8</ele>
        <time>2025-12-19T09:37:45Z</time>
      </trkpt>
      <trkpt lat="43.61271" lon="1.07964">
        <ele>146.6</ele>
        <time>2025-12-19T09:37:46Z</time>
      </trkpt>
      <trkpt lat="43.61275" lon="1.07958">
        <ele>146.6</ele>
        <time>2025-12-19T09:37:47Z</time>
      </trkpt>
      <trkpt lat="43.61279" lon="1.07953">
        <ele>146.6</ele>
        <time>2025-12-19T09:37:48Z</time>
      </trkpt>
      <trkpt lat="43.61282" lon="1.07948">
        <ele>146.6</ele>
        <time>2025-12-19T09:37:49Z</time>
      </trkpt>
      <trkpt lat="43.61287" lon="1.07944">
        <ele>146.6</ele>
        <time>2025-12-19T09:37:50Z</time>
      </trkpt>
      <trkpt lat="43.61292" lon="1.07939">
        <ele>146.6</ele>
        <time>2025-12-19T09:37:51Z</time>
      </trkpt>
      <trkpt lat="43.61296" lon="1.07934">
        <ele>146.4</ele>
        <time>2025-12-19T09:37:52Z</time>
      </trkpt>
      <trkpt lat="43.61302" lon="1.07929">
        <ele>146.4</ele>
        <time>2025-12-19T09:37:53Z</time>
      </trkpt>
      <trkpt lat="43.61307" lon="1.07923">
        <ele>146.2</ele>
        <time>2025-12-19T09:37:54Z</time>
      </trkpt>
      <trkpt lat="43.61313" lon="1.07918">
        <ele>146</ele>
        <time>2025-12-19T09:37:55Z</time>
      </trkpt>
      <trkpt lat="43.61318" lon="1.07912">
        <ele>145.8</ele>
        <time>2025-12-19T09:37:56Z</time>
      </trkpt>
      <trkpt lat="43.61323" lon="1.07906">
        <ele>145.8</ele>
        <time>2025-12-19T09:37:57Z</time>
      </trkpt>
      <trkpt lat="43.61328" lon="1.079">
        <ele>145.6</ele>
        <time>2025-12-19T09:37:58Z</time>
      </trkpt>
      <trkpt lat="43.61334" lon="1.07894">
        <ele>145.4</ele>
        <time>2025-12-19T09:37:59Z</time>
      </trkpt>
      <trkpt lat="43.61339" lon="1.07888">
        <ele>145.2</ele>
        <time>2025-12-19T09:38:00Z</time>
      </trkpt>
      <trkpt lat="43.61345" lon="1.07882">
        <ele>145.2</ele>
        <time>2025-12-19T09:38:01Z</time>
      </trkpt>
      <trkpt lat="43.6135" lon="1.07877">
        <ele>145</ele>
        <time>2025-12-19T09:38:02Z</time>
      </trkpt>
      <trkpt lat="43.61354" lon="1.07873">
        <ele>144.8</ele>
        <time>2025-12-19T09:38:03Z</time>
      </trkpt>
      <trkpt lat="43.61358" lon="1.07871">
        <ele>144.8</ele>
        <time>2025-12-19T09:38:04Z</time>
      </trkpt>
      <trkpt lat="43.6136" lon="1.0787">
        <ele>144.8</ele>
        <time>2025-12-19T09:38:05Z</time>
      </trkpt>
      <trkpt lat="43.61362" lon="1.0787">
        <ele>145</ele>
        <time>2025-12-19T09:38:06Z</time>
      </trkpt>
      <trkpt lat="43.61364" lon="1.07871">
        <ele>145.2</ele>
        <time>2025-12-19T09:38:07Z</time>
      </trkpt>
      <trkpt lat="43.61366" lon="1.07871">
        <ele>145.4</ele>
        <time>2025-12-19T09:38:08Z</time>
      </trkpt>
      <trkpt lat="43.61369" lon="1.07872">
        <ele>145.4</ele>
        <time>2025-12-19T09:38:09Z</time>
      </trkpt>
      <trkpt lat="43.61372" lon="1.07871">
        <ele>145.6</ele>
        <time>2025-12-19T09:38:10Z</time>
      </trkpt>
      <trkpt lat="43.61376" lon="1.07869">
        <ele>145.6</ele>
        <time>2025-12-19T09:38:11Z</time>
      </trkpt>
      <trkpt lat="43.61378" lon="1.07867">
        <ele>145.8</ele>
        <time>2025-12-19T09:38:12Z</time>
      </trkpt>
      <trkpt lat="43.6138" lon="1.07863">
        <ele>145.8</ele>
        <time>2025-12-19T09:38:13Z</time>
      </trkpt>
      <trkpt lat="43.61382" lon="1.07857">
        <ele>146</ele>
        <time>2025-12-19T09:38:14Z</time>
      </trkpt>
      <trkpt lat="43.61384" lon="1.07852">
        <ele>146</ele>
        <time>2025-12-19T09:38:15Z</time>
      </trkpt>
      <trkpt lat="43.61385" lon="1.07846">
        <ele>146</ele>
        <time>2025-12-19T09:38:16Z</time>
      </trkpt>
      <trkpt lat="43.61387" lon="1.07841">
        <ele>146</ele>
        <time>2025-12-19T09:38:17Z</time>
      </trkpt>
      <trkpt lat="43.61388" lon="1.07835">
        <ele>146</ele>
        <time>2025-12-19T09:38:18Z</time>
      </trkpt>
      <trkpt lat="43.6139" lon="1.07828">
        <ele>146</ele>
        <time>2025-12-19T09:38:19Z</time>
      </trkpt>
      <trkpt lat="43.61391" lon="1.07821">
        <ele>146</ele>
        <time>2025-12-19T09:38:20Z</time>
      </trkpt>
      <trkpt lat="43.61392" lon="1.07814">
        <ele>146</ele>
        <time>2025-12-19T09:38:21Z</time>
      </trkpt>
      <trkpt lat="43.61394" lon="1.07806">
        <ele>145.8</ele>
        <time>2025-12-19T09:38:22Z</time>
      </trkpt>
      <trkpt lat="43.61395" lon="1.07798">
        <ele>145.8</ele>
        <time>2025-12-19T09:38:23Z</time>
      </trkpt>
      <trkpt lat="43.61396" lon="1.0779">
        <ele>145.6</ele>
        <time>2025-12-19T09:38:24Z</time>
      </trkpt>
      <trkpt lat="43.61397" lon="1.07782">
        <ele>145.6</ele>
        <time>2025-12-19T09:38:25Z</time>
      </trkpt>
      <trkpt lat="43.61398" lon="1.07773">
        <ele>145.4</ele>
        <time>2025-12-19T09:38:26Z</time>
      </trkpt>
      <trkpt lat="43.614" lon="1.07765">
        <ele>145.4</ele>
        <time>2025-12-19T09:38:27Z</time>
      </trkpt>
      <trkpt lat="43.61401" lon="1.07756">
        <ele>145.2</ele>
        <time>2025-12-19T09:38:28Z</time>
      </trkpt>
      <trkpt lat="43.61402" lon="1.07747">
        <ele>145.2</ele>
        <time>2025-12-19T09:38:29Z</time>
      </trkpt>
      <trkpt lat="43.61403" lon="1.07739">
        <ele>145</ele>
        <time>2025-12-19T09:38:30Z</time>
      </trkpt>
      <trkpt lat="43.61405" lon="1.0773">
        <ele>145</ele>
        <time>2025-12-19T09:38:31Z</time>
      </trkpt>
      <trkpt lat="43.61406" lon="1.07721">
        <ele>145</ele>
        <time>2025-12-19T09:38:32Z</time>
      </trkpt>
      <trkpt lat="43.61408" lon="1.07712">
        <ele>145</ele>
        <time>2025-12-19T09:38:33Z</time>
      </trkpt>
      <trkpt lat="43.61409" lon="1.07703">
        <ele>145</ele>
        <time>2025-12-19T09:38:34Z</time>
      </trkpt>
      <trkpt lat="43.6141" lon="1.07695">
        <ele>145</ele>
        <time>2025-12-19T09:38:35Z</time>
      </trkpt>
      <trkpt lat="43.61412" lon="1.07686">
        <ele>145</ele>
        <time>2025-12-19T09:38:36Z</time>
      </trkpt>
      <trkpt lat="43.61413" lon="1.07677">
        <ele>145</ele>
        <time>2025-12-19T09:38:37Z</time>
      </trkpt>
      <trkpt lat="43.61414" lon="1.07668">
        <ele>145</ele>
        <time>2025-12-19T09:38:38Z</time>
      </trkpt>
      <trkpt lat="43.61415" lon="1.07659">
        <ele>145</ele>
        <time>2025-12-19T09:38:39Z</time>
      </trkpt>
      <trkpt lat="43.61417" lon="1.07649">
        <ele>145</ele>
        <time>2025-12-19T09:38:40Z</time>
      </trkpt>
      <trkpt lat="43.61418" lon="1.0764">
        <ele>145</ele>
        <time>2025-12-19T09:38:41Z</time>
      </trkpt>
      <trkpt lat="43.61419" lon="1.07631">
        <ele>145</ele>
        <time>2025-12-19T09:38:42Z</time>
      </trkpt>
      <trkpt lat="43.6142" lon="1.07622">
        <ele>145</ele>
        <time>2025-12-19T09:38:43Z</time>
      </trkpt>
      <trkpt lat="43.61421" lon="1.07612">
        <ele>145</ele>
        <time>2025-12-19T09:38:44Z</time>
      </trkpt>
      <trkpt lat="43.61423" lon="1.07603">
        <ele>145</ele>
        <time>2025-12-19T09:38:45Z</time>
      </trkpt>
      <trkpt lat="43.61424" lon="1.07594">
        <ele>145.2</ele>
        <time>2025-12-19T09:38:46Z</time>
      </trkpt>
      <trkpt lat="43.61425" lon="1.07585">
        <ele>145.2</ele>
        <time>2025-12-19T09:38:47Z</time>
      </trkpt>
      <trkpt lat="43.61426" lon="1.07576">
        <ele>145.2</ele>
        <time>2025-12-19T09:38:48Z</time>
      </trkpt>
      <trkpt lat="43.61427" lon="1.07567">
        <ele>145.4</ele>
        <time>2025-12-19T09:38:49Z</time>
      </trkpt>
      <trkpt lat="43.61429" lon="1.07558">
        <ele>145.4</ele>
        <time>2025-12-19T09:38:50Z</time>
      </trkpt>
      <trkpt lat="43.6143" lon="1.07549">
        <ele>145.6</ele>
        <time>2025-12-19T09:38:51Z</time>
      </trkpt>
      <trkpt lat="43.61431" lon="1.0754">
        <ele>145.6</ele>
        <time>2025-12-19T09:38:52Z</time>
      </trkpt>
      <trkpt lat="43.61432" lon="1.0753">
        <ele>145.6</ele>
        <time>2025-12-19T09:38:53Z</time>
      </trkpt>
      <trkpt lat="43.61433" lon="1.07521">
        <ele>145.6</ele>
        <time>2025-12-19T09:38:54Z</time>
      </trkpt>
      <trkpt lat="43.61434" lon="1.07512">
        <ele>145.6</ele>
        <time>2025-12-19T09:38:55Z</time>
      </trkpt>
      <trkpt lat="43.61436" lon="1.07503">
        <ele>145.6</ele>
        <time>2025-12-19T09:38:56Z</time>
      </trkpt>
      <trkpt lat="43.61437" lon="1.07494">
        <ele>145.6</ele>
        <time>2025-12-19T09:38:57Z</time>
      </trkpt>
      <trkpt lat="43.61438" lon="1.07485">
        <ele>145.6</ele>
        <time>2025-12-19T09:38:58Z</time>
      </trkpt>
      <trkpt lat="43.61439" lon="1.07476">
        <ele>145.4</ele>
        <time>2025-12-19T09:38:59Z</time>
      </trkpt>
      <trkpt lat="43.61441" lon="1.07467">
        <ele>145.4</ele>
        <time>2025-12-19T09:39:00Z</time>
      </trkpt>
      <trkpt lat="43.61442" lon="1.07458">
        <ele>145.4</ele>
        <time>2025-12-19T09:39:01Z</time>
      </trkpt>
      <trkpt lat="43.61444" lon="1.07449">
        <ele>145.4</ele>
        <time>2025-12-19T09:39:02Z</time>
      </trkpt>
      <trkpt lat="43.61445" lon="1.0744">
        <ele>145.2</ele>
        <time>2025-12-19T09:39:03Z</time>
      </trkpt>
      <trkpt lat="43.61446" lon="1.07431">
        <ele>145.2</ele>
        <time>2025-12-19T09:39:04Z</time>
      </trkpt>
      <trkpt lat="43.61448" lon="1.07422">
        <ele>145.2</ele>
        <time>2025-12-19T09:39:05Z</time>
      </trkpt>
      <trkpt lat="43.6145" lon="1.07412">
        <ele>145</ele>
        <time>2025-12-19T09:39:06Z</time>
      </trkpt>
      <trkpt lat="43.61453" lon="1.07404">
        <ele>144.8</ele>
        <time>2025-12-19T09:39:07Z</time>
      </trkpt>
      <trkpt lat="43.61458" lon="1.07397">
        <ele>144.8</ele>
        <time>2025-12-19T09:39:08Z</time>
      </trkpt>
      <trkpt lat="43.61465" lon="1.07393">
        <ele>144.6</ele>
        <time>2025-12-19T09:39:09Z</time>
      </trkpt>
      <trkpt lat="43.61471" lon="1.0739">
        <ele>144.4</ele>
        <time>2025-12-19T09:39:10Z</time>
      </trkpt>
      <trkpt lat="43.61479" lon="1.07388">
        <ele>144.2</ele>
        <time>2025-12-19T09:39:11Z</time>
      </trkpt>
      <trkpt lat="43.61486" lon="1.07387">
        <ele>144</ele>
        <time>2025-12-19T09:39:12Z</time>
      </trkpt>
      <trkpt lat="43.61493" lon="1.07384">
        <ele>143.8</ele>
        <time>2025-12-19T09:39:13Z</time>
      </trkpt>
      <trkpt lat="43.615" lon="1.07381">
        <ele>143.4</ele>
        <time>2025-12-19T09:39:14Z</time>
      </trkpt>
      <trkpt lat="43.61507" lon="1.07379">
        <ele>143.2</ele>
        <time>2025-12-19T09:39:15Z</time>
      </trkpt>
      <trkpt lat="43.61514" lon="1.07377">
        <ele>143</ele>
        <time>2025-12-19T09:39:16Z</time>
      </trkpt>
      <trkpt lat="43.61521" lon="1.07375">
        <ele>143</ele>
        <time>2025-12-19T09:39:17Z</time>
      </trkpt>
      <trkpt lat="43.61529" lon="1.07374">
        <ele>142.8</ele>
        <time>2025-12-19T09:39:18Z</time>
      </trkpt>
      <trkpt lat="43.61536" lon="1.07372">
        <ele>142.6</ele>
        <time>2025-12-19T09:39:19Z</time>
      </trkpt>
      <trkpt lat="43.61544" lon="1.07371">
        <ele>142.6</ele>
        <time>2025-12-19T09:39:20Z</time>
      </trkpt>
      <trkpt lat="43.61551" lon="1.07369">
        <ele>142.6</ele>
        <time>2025-12-19T09:39:21Z</time>
      </trkpt>
      <trkpt lat="43.61557" lon="1.07367">
        <ele>142.6</ele>
        <time>2025-12-19T09:39:22Z</time>
      </trkpt>
      <trkpt lat="43.61564" lon="1.07365">
        <ele>142.6</ele>
        <time>2025-12-19T09:39:23Z</time>
      </trkpt>
      <trkpt lat="43.61571" lon="1.07364">
        <ele>142.6</ele>
        <time>2025-12-19T09:39:24Z</time>
      </trkpt>
      <trkpt lat="43.61578" lon="1.07362">
        <ele>142.6</ele>
        <time>2025-12-19T09:39:25Z</time>
      </trkpt>
      <trkpt lat="43.61585" lon="1.0736">
        <ele>142.6</ele>
        <time>2025-12-19T09:39:26Z</time>
      </trkpt>
      <trkpt lat="43.61592" lon="1.07358">
        <ele>142.6</ele>
        <time>2025-12-19T09:39:27Z</time>
      </trkpt>
      <trkpt lat="43.61599" lon="1.07356">
        <ele>142.6</ele>
        <time>2025-12-19T09:39:28Z</time>
      </trkpt>
      <trkpt lat="43.61606" lon="1.07354">
        <ele>142.6</ele>
        <time>2025-12-19T09:39:29Z</time>
      </trkpt>
      <trkpt lat="43.61613" lon="1.07352">
        <ele>142.6</ele>
        <time>2025-12-19T09:39:30Z</time>
      </trkpt>
      <trkpt lat="43.6162" lon="1.07351">
        <ele>142.6</ele>
        <time>2025-12-19T09:39:31Z</time>
      </trkpt>
      <trkpt lat="43.61627" lon="1.07349">
        <ele>142.6</ele>
        <time>2025-12-19T09:39:32Z</time>
      </trkpt>
      <trkpt lat="43.61635" lon="1.07347">
        <ele>142.6</ele>
        <time>2025-12-19T09:39:33Z</time>
      </trkpt>
      <trkpt lat="43.61642" lon="1.07345">
        <ele>142.6</ele>
        <time>2025-12-19T09:39:34Z</time>
      </trkpt>
      <trkpt lat="43.61649" lon="1.07343">
        <ele>142.8</ele>
        <time>2025-12-19T09:39:35Z</time>
      </trkpt>
      <trkpt lat="43.61656" lon="1.07341">
        <ele>142.8</ele>
        <time>2025-12-19T09:39:36Z</time>
      </trkpt>
      <trkpt lat="43.61663" lon="1.0734">
        <ele>142.6</ele>
        <time>2025-12-19T09:39:37Z</time>
      </trkpt>
      <trkpt lat="43.6167" lon="1.07338">
        <ele>142.8</ele>
        <time>2025-12-19T09:39:38Z</time>
      </trkpt>
      <trkpt lat="43.61676" lon="1.07337">
        <ele>142.8</ele>
        <time>2025-12-19T09:39:39Z</time>
      </trkpt>
      <trkpt lat="43.61683" lon="1.07335">
        <ele>142.8</ele>
        <time>2025-12-19T09:39:40Z</time>
      </trkpt>
      <trkpt lat="43.6169" lon="1.07333">
        <ele>142.8</ele>
        <time>2025-12-19T09:39:41Z</time>
      </trkpt>
      <trkpt lat="43.61697" lon="1.07331">
        <ele>142.8</ele>
        <time>2025-12-19T09:39:42Z</time>
      </trkpt>
      <trkpt lat="43.61705" lon="1.07329">
        <ele>142.8</ele>
        <time>2025-12-19T09:39:43Z</time>
      </trkpt>
      <trkpt lat="43.61712" lon="1.07327">
        <ele>142.6</ele>
        <time>2025-12-19T09:39:44Z</time>
      </trkpt>
      <trkpt lat="43.61719" lon="1.07325">
        <ele>142.6</ele>
        <time>2025-12-19T09:39:45Z</time>
      </trkpt>
      <trkpt lat="43.61726" lon="1.07324">
        <ele>142.6</ele>
        <time>2025-12-19T09:39:46Z</time>
      </trkpt>
      <trkpt lat="43.61733" lon="1.07322">
        <ele>142.6</ele>
        <time>2025-12-19T09:39:47Z</time>
      </trkpt>
      <trkpt lat="43.6174" lon="1.0732">
        <ele>142.4</ele>
        <time>2025-12-19T09:39:48Z</time>
      </trkpt>
      <trkpt lat="43.61747" lon="1.07318">
        <ele>142.4</ele>
        <time>2025-12-19T09:39:49Z</time>
      </trkpt>
      <trkpt lat="43.61754" lon="1.07316">
        <ele>142.6</ele>
        <time>2025-12-19T09:39:50Z</time>
      </trkpt>
      <trkpt lat="43.61761" lon="1.07314">
        <ele>142.6</ele>
        <time>2025-12-19T09:39:51Z</time>
      </trkpt>
      <trkpt lat="43.61768" lon="1.07313">
        <ele>142.6</ele>
        <time>2025-12-19T09:39:52Z</time>
      </trkpt>
      <trkpt lat="43.61775" lon="1.07311">
        <ele>142.6</ele>
        <time>2025-12-19T09:39:53Z</time>
      </trkpt>
      <trkpt lat="43.61782" lon="1.0731">
        <ele>142.6</ele>
        <time>2025-12-19T09:39:54Z</time>
      </trkpt>
      <trkpt lat="43.61789" lon="1.07308">
        <ele>142.6</ele>
        <time>2025-12-19T09:39:55Z</time>
      </trkpt>
      <trkpt lat="43.61796" lon="1.07306">
        <ele>142.6</ele>
        <time>2025-12-19T09:39:56Z</time>
      </trkpt>
      <trkpt lat="43.61803" lon="1.07304">
        <ele>142.6</ele>
        <time>2025-12-19T09:39:57Z</time>
      </trkpt>
      <trkpt lat="43.6181" lon="1.07302">
        <ele>142.6</ele>
        <time>2025-12-19T09:39:58Z</time>
      </trkpt>
      <trkpt lat="43.61817" lon="1.073">
        <ele>142.6</ele>
        <time>2025-12-19T09:39:59Z</time>
      </trkpt>
      <trkpt lat="43.61824" lon="1.07297">
        <ele>142.8</ele>
        <time>2025-12-19T09:40:00Z</time>
      </trkpt>
      <trkpt lat="43.61831" lon="1.07296">
        <ele>142.8</ele>
        <time>2025-12-19T09:40:01Z</time>
      </trkpt>
      <trkpt lat="43.61839" lon="1.07295">
        <ele>142.8</ele>
        <time>2025-12-19T09:40:02Z</time>
      </trkpt>
      <trkpt lat="43.61846" lon="1.07294">
        <ele>142.8</ele>
        <time>2025-12-19T09:40:03Z</time>
      </trkpt>
      <trkpt lat="43.61853" lon="1.07292">
        <ele>142.8</ele>
        <time>2025-12-19T09:40:04Z</time>
      </trkpt>
      <trkpt lat="43.6186" lon="1.0729">
        <ele>142.8</ele>
        <time>2025-12-19T09:40:05Z</time>
      </trkpt>
      <trkpt lat="43.61867" lon="1.07288">
        <ele>142.8</ele>
        <time>2025-12-19T09:40:06Z</time>
      </trkpt>
      <trkpt lat="43.61874" lon="1.07286">
        <ele>142.8</ele>
        <time>2025-12-19T09:40:07Z</time>
      </trkpt>
      <trkpt lat="43.61882" lon="1.07284">
        <ele>142.8</ele>
        <time>2025-12-19T09:40:08Z</time>
      </trkpt>
      <trkpt lat="43.61889" lon="1.07282">
        <ele>142.8</ele>
        <time>2025-12-19T09:40:09Z</time>
      </trkpt>
      <trkpt lat="43.61896" lon="1.07281">
        <ele>142.8</ele>
        <time>2025-12-19T09:40:10Z</time>
      </trkpt>
      <trkpt lat="43.61904" lon="1.07279">
        <ele>142.8</ele>
        <time>2025-12-19T09:40:11Z</time>
      </trkpt>
      <trkpt lat="43.61911" lon="1.07277">
        <ele>142.8</ele>
        <time>2025-12-19T09:40:12Z</time>
      </trkpt>
      <trkpt lat="43.61918" lon="1.07276">
        <ele>143</ele>
        <time>2025-12-19T09:40:13Z</time>
      </trkpt>
      <trkpt lat="43.61925" lon="1.07274">
        <ele>143</ele>
        <time>2025-12-19T09:40:14Z</time>
      </trkpt>
      <trkpt lat="43.61932" lon="1.07272">
        <ele>143</ele>
        <time>2025-12-19T09:40:15Z</time>
      </trkpt>
      <trkpt lat="43.61938" lon="1.0727">
        <ele>143.2</ele>
        <time>2025-12-19T09:40:16Z</time>
      </trkpt>
      <trkpt lat="43.61945" lon="1.07268">
        <ele>143.4</ele>
        <time>2025-12-19T09:40:17Z</time>
      </trkpt>
      <trkpt lat="43.61952" lon="1.07266">
        <ele>143.6</ele>
        <time>2025-12-19T09:40:18Z</time>
      </trkpt>
      <trkpt lat="43.61958" lon="1.07265">
        <ele>143.6</ele>
        <time>2025-12-19T09:40:19Z</time>
      </trkpt>
      <trkpt lat="43.61965" lon="1.07263">
        <ele>143.8</ele>
        <time>2025-12-19T09:40:20Z</time>
      </trkpt>
      <trkpt lat="43.61972" lon="1.07261">
        <ele>144.2</ele>
        <time>2025-12-19T09:40:21Z</time>
      </trkpt>
      <trkpt lat="43.61978" lon="1.07259">
        <ele>144.8</ele>
        <time>2025-12-19T09:40:22Z</time>
      </trkpt>
      <trkpt lat="43.61984" lon="1.07258">
        <ele>145</ele>
        <time>2025-12-19T09:40:23Z</time>
      </trkpt>
      <trkpt lat="43.61991" lon="1.07256">
        <ele>145.2</ele>
        <time>2025-12-19T09:40:24Z</time>
      </trkpt>
      <trkpt lat="43.61997" lon="1.07255">
        <ele>145.4</ele>
        <time>2025-12-19T09:40:25Z</time>
      </trkpt>
      <trkpt lat="43.62004" lon="1.07254">
        <ele>145.4</ele>
        <time>2025-12-19T09:40:26Z</time>
      </trkpt>
      <trkpt lat="43.62011" lon="1.07253">
        <ele>145.2</ele>
        <time>2025-12-19T09:40:27Z</time>
      </trkpt>
      <trkpt lat="43.62018" lon="1.07251">
        <ele>145.2</ele>
        <time>2025-12-19T09:40:28Z</time>
      </trkpt>
      <trkpt lat="43.62025" lon="1.07249">
        <ele>144.8</ele>
        <time>2025-12-19T09:40:29Z</time>
      </trkpt>
      <trkpt lat="43.62032" lon="1.07247">
        <ele>144.6</ele>
        <time>2025-12-19T09:40:30Z</time>
      </trkpt>
      <trkpt lat="43.6204" lon="1.07245">
        <ele>144.4</ele>
        <time>2025-12-19T09:40:31Z</time>
      </trkpt>
      <trkpt lat="43.62048" lon="1.07243">
        <ele>144</ele>
        <time>2025-12-19T09:40:32Z</time>
      </trkpt>
      <trkpt lat="43.62056" lon="1.07241">
        <ele>143.6</ele>
        <time>2025-12-19T09:40:33Z</time>
      </trkpt>
      <trkpt lat="43.62063" lon="1.07239">
        <ele>143.4</ele>
        <time>2025-12-19T09:40:34Z</time>
      </trkpt>
      <trkpt lat="43.62071" lon="1.07237">
        <ele>143.2</ele>
        <time>2025-12-19T09:40:35Z</time>
      </trkpt>
      <trkpt lat="43.62079" lon="1.07235">
        <ele>143</ele>
        <time>2025-12-19T09:40:36Z</time>
      </trkpt>
      <trkpt lat="43.62086" lon="1.07233">
        <ele>143</ele>
        <time>2025-12-19T09:40:37Z</time>
      </trkpt>
      <trkpt lat="43.62095" lon="1.0723">
        <ele>142.8</ele>
        <time>2025-12-19T09:40:38Z</time>
      </trkpt>
      <trkpt lat="43.62103" lon="1.07228">
        <ele>142.8</ele>
        <time>2025-12-19T09:40:39Z</time>
      </trkpt>
      <trkpt lat="43.62111" lon="1.07226">
        <ele>142.6</ele>
        <time>2025-12-19T09:40:40Z</time>
      </trkpt>
      <trkpt lat="43.62119" lon="1.07224">
        <ele>142.6</ele>
        <time>2025-12-19T09:40:41Z</time>
      </trkpt>
      <trkpt lat="43.62127" lon="1.07222">
        <ele>142.6</ele>
        <time>2025-12-19T09:40:42Z</time>
      </trkpt>
      <trkpt lat="43.62135" lon="1.07221">
        <ele>142.6</ele>
        <time>2025-12-19T09:40:43Z</time>
      </trkpt>
      <trkpt lat="43.62142" lon="1.07221">
        <ele>142.6</ele>
        <time>2025-12-19T09:40:44Z</time>
      </trkpt>
      <trkpt lat="43.6215" lon="1.0722">
        <ele>142.6</ele>
        <time>2025-12-19T09:40:45Z</time>
      </trkpt>
      <trkpt lat="43.62157" lon="1.07219">
        <ele>142.6</ele>
        <time>2025-12-19T09:40:46Z</time>
      </trkpt>
      <trkpt lat="43.62164" lon="1.07218">
        <ele>142.6</ele>
        <time>2025-12-19T09:40:47Z</time>
      </trkpt>
      <trkpt lat="43.62172" lon="1.07217">
        <ele>142.4</ele>
        <time>2025-12-19T09:40:48Z</time>
      </trkpt>
      <trkpt lat="43.62179" lon="1.07216">
        <ele>142.6</ele>
        <time>2025-12-19T09:40:49Z</time>
      </trkpt>
      <trkpt lat="43.62186" lon="1.07214">
        <ele>142.6</ele>
        <time>2025-12-19T09:40:50Z</time>
      </trkpt>
      <trkpt lat="43.62193" lon="1.07214">
        <ele>142.6</ele>
        <time>2025-12-19T09:40:51Z</time>
      </trkpt>
      <trkpt lat="43.62201" lon="1.07215">
        <ele>142.6</ele>
        <time>2025-12-19T09:40:52Z</time>
      </trkpt>
      <trkpt lat="43.62208" lon="1.07217">
        <ele>142.8</ele>
        <time>2025-12-19T09:40:53Z</time>
      </trkpt>
      <trkpt lat="43.62214" lon="1.07221">
        <ele>142.6</ele>
        <time>2025-12-19T09:40:54Z</time>
      </trkpt>
      <trkpt lat="43.62221" lon="1.07226">
        <ele>142.6</ele>
        <time>2025-12-19T09:40:55Z</time>
      </trkpt>
      <trkpt lat="43.62227" lon="1.07232">
        <ele>142.6</ele>
        <time>2025-12-19T09:40:56Z</time>
      </trkpt>
      <trkpt lat="43.62232" lon="1.07239">
        <ele>142.6</ele>
        <time>2025-12-19T09:40:57Z</time>
      </trkpt>
      <trkpt lat="43.62238" lon="1.07246">
        <ele>142.4</ele>
        <time>2025-12-19T09:40:58Z</time>
      </trkpt>
      <trkpt lat="43.62243" lon="1.07253">
        <ele>142.4</ele>
        <time>2025-12-19T09:40:59Z</time>
      </trkpt>
      <trkpt lat="43.62248" lon="1.0726">
        <ele>142.4</ele>
        <time>2025-12-19T09:41:00Z</time>
      </trkpt>
      <trkpt lat="43.62253" lon="1.07268">
        <ele>142.2</ele>
        <time>2025-12-19T09:41:01Z</time>
      </trkpt>
      <trkpt lat="43.62258" lon="1.07275">
        <ele>142.2</ele>
        <time>2025-12-19T09:41:02Z</time>
      </trkpt>
      <trkpt lat="43.62263" lon="1.07282">
        <ele>142.2</ele>
        <time>2025-12-19T09:41:03Z</time>
      </trkpt>
      <trkpt lat="43.62268" lon="1.0729">
        <ele>142</ele>
        <time>2025-12-19T09:41:04Z</time>
      </trkpt>
      <trkpt lat="43.62273" lon="1.07297">
        <ele>142</ele>
        <time>2025-12-19T09:41:05Z</time>
      </trkpt>
      <trkpt lat="43.62277" lon="1.07304">
        <ele>142</ele>
        <time>2025-12-19T09:41:06Z</time>
      </trkpt>
      <trkpt lat="43.62282" lon="1.07311">
        <ele>142</ele>
        <time>2025-12-19T09:41:07Z</time>
      </trkpt>
      <trkpt lat="43.62287" lon="1.07318">
        <ele>142</ele>
        <time>2025-12-19T09:41:08Z</time>
      </trkpt>
      <trkpt lat="43.62292" lon="1.07325">
        <ele>142</ele>
        <time>2025-12-19T09:41:09Z</time>
      </trkpt>
      <trkpt lat="43.62297" lon="1.07333">
        <ele>142</ele>
        <time>2025-12-19T09:41:10Z</time>
      </trkpt>
      <trkpt lat="43.62302" lon="1.07339">
        <ele>142</ele>
        <time>2025-12-19T09:41:11Z</time>
      </trkpt>
      <trkpt lat="43.62307" lon="1.07346">
        <ele>142</ele>
        <time>2025-12-19T09:41:12Z</time>
      </trkpt>
      <trkpt lat="43.62312" lon="1.07353">
        <ele>142</ele>
        <time>2025-12-19T09:41:13Z</time>
      </trkpt>
      <trkpt lat="43.62317" lon="1.0736">
        <ele>142</ele>
        <time>2025-12-19T09:41:14Z</time>
      </trkpt>
      <trkpt lat="43.62322" lon="1.07367">
        <ele>142</ele>
        <time>2025-12-19T09:41:15Z</time>
      </trkpt>
      <trkpt lat="43.62326" lon="1.07374">
        <ele>142</ele>
        <time>2025-12-19T09:41:16Z</time>
      </trkpt>
      <trkpt lat="43.62331" lon="1.07381">
        <ele>142</ele>
        <time>2025-12-19T09:41:17Z</time>
      </trkpt>
      <trkpt lat="43.62336" lon="1.07388">
        <ele>142</ele>
        <time>2025-12-19T09:41:18Z</time>
      </trkpt>
      <trkpt lat="43.62341" lon="1.07395">
        <ele>142</ele>
        <time>2025-12-19T09:41:19Z</time>
      </trkpt>
      <trkpt lat="43.62346" lon="1.07402">
        <ele>142</ele>
        <time>2025-12-19T09:41:20Z</time>
      </trkpt>
      <trkpt lat="43.62351" lon="1.07409">
        <ele>142</ele>
        <time>2025-12-19T09:41:21Z</time>
      </trkpt>
      <trkpt lat="43.62356" lon="1.07417">
        <ele>142</ele>
        <time>2025-12-19T09:41:22Z</time>
      </trkpt>
      <trkpt lat="43.62361" lon="1.07424">
        <ele>142</ele>
        <time>2025-12-19T09:41:23Z</time>
      </trkpt>
      <trkpt lat="43.62366" lon="1.07431">
        <ele>141.8</ele>
        <time>2025-12-19T09:41:24Z</time>
      </trkpt>
      <trkpt lat="43.62371" lon="1.07438">
        <ele>141.8</ele>
        <time>2025-12-19T09:41:25Z</time>
      </trkpt>
      <trkpt lat="43.62376" lon="1.07445">
        <ele>141.8</ele>
        <time>2025-12-19T09:41:26Z</time>
      </trkpt>
      <trkpt lat="43.6238" lon="1.07452">
        <ele>142</ele>
        <time>2025-12-19T09:41:27Z</time>
      </trkpt>
      <trkpt lat="43.62384" lon="1.0746">
        <ele>142</ele>
        <time>2025-12-19T09:41:28Z</time>
      </trkpt>
      <trkpt lat="43.62389" lon="1.07467">
        <ele>142</ele>
        <time>2025-12-19T09:41:29Z</time>
      </trkpt>
      <trkpt lat="43.62393" lon="1.07475">
        <ele>142.2</ele>
        <time>2025-12-19T09:41:30Z</time>
      </trkpt>
      <trkpt lat="43.62398" lon="1.07482">
        <ele>142.2</ele>
        <time>2025-12-19T09:41:31Z</time>
      </trkpt>
      <trkpt lat="43.62402" lon="1.0749">
        <ele>142.2</ele>
        <time>2025-12-19T09:41:32Z</time>
      </trkpt>
      <trkpt lat="43.62407" lon="1.07497">
        <ele>142.2</ele>
        <time>2025-12-19T09:41:33Z</time>
      </trkpt>
      <trkpt lat="43.62411" lon="1.07504">
        <ele>142.2</ele>
        <time>2025-12-19T09:41:34Z</time>
      </trkpt>
      <trkpt lat="43.62416" lon="1.07512">
        <ele>142.2</ele>
        <time>2025-12-19T09:41:35Z</time>
      </trkpt>
      <trkpt lat="43.6242" lon="1.07519">
        <ele>142.2</ele>
        <time>2025-12-19T09:41:36Z</time>
      </trkpt>
      <trkpt lat="43.62424" lon="1.07526">
        <ele>142.4</ele>
        <time>2025-12-19T09:41:37Z</time>
      </trkpt>
      <trkpt lat="43.62429" lon="1.07534">
        <ele>142.4</ele>
        <time>2025-12-19T09:41:38Z</time>
      </trkpt>
      <trkpt lat="43.62434" lon="1.07542">
        <ele>142.4</ele>
        <time>2025-12-19T09:41:39Z</time>
      </trkpt>
      <trkpt lat="43.62438" lon="1.07549">
        <ele>142.4</ele>
        <time>2025-12-19T09:41:40Z</time>
      </trkpt>
      <trkpt lat="43.62443" lon="1.07557">
        <ele>142.4</ele>
        <time>2025-12-19T09:41:41Z</time>
      </trkpt>
      <trkpt lat="43.62447" lon="1.07564">
        <ele>142.4</ele>
        <time>2025-12-19T09:41:42Z</time>
      </trkpt>
      <trkpt lat="43.62452" lon="1.07572">
        <ele>142.4</ele>
        <time>2025-12-19T09:41:43Z</time>
      </trkpt>
      <trkpt lat="43.62456" lon="1.0758">
        <ele>142.4</ele>
        <time>2025-12-19T09:41:44Z</time>
      </trkpt>
      <trkpt lat="43.62461" lon="1.07587">
        <ele>142.4</ele>
        <time>2025-12-19T09:41:45Z</time>
      </trkpt>
      <trkpt lat="43.62465" lon="1.07595">
        <ele>142.4</ele>
        <time>2025-12-19T09:41:46Z</time>
      </trkpt>
      <trkpt lat="43.62469" lon="1.07602">
        <ele>142.4</ele>
        <time>2025-12-19T09:41:47Z</time>
      </trkpt>
      <trkpt lat="43.62473" lon="1.0761">
        <ele>142.4</ele>
        <time>2025-12-19T09:41:48Z</time>
      </trkpt>
      <trkpt lat="43.62476" lon="1.07618">
        <ele>142.4</ele>
        <time>2025-12-19T09:41:49Z</time>
      </trkpt>
      <trkpt lat="43.6248" lon="1.07627">
        <ele>142.4</ele>
        <time>2025-12-19T09:41:50Z</time>
      </trkpt>
      <trkpt lat="43.62484" lon="1.07634">
        <ele>142.4</ele>
        <time>2025-12-19T09:41:51Z</time>
      </trkpt>
      <trkpt lat="43.62488" lon="1.07643">
        <ele>142.4</ele>
        <time>2025-12-19T09:41:52Z</time>
      </trkpt>
      <trkpt lat="43.62491" lon="1.07651">
        <ele>142.6</ele>
        <time>2025-12-19T09:41:53Z</time>
      </trkpt>
      <trkpt lat="43.62495" lon="1.07659">
        <ele>142.6</ele>
        <time>2025-12-19T09:41:54Z</time>
      </trkpt>
      <trkpt lat="43.62499" lon="1.07667">
        <ele>142.6</ele>
        <time>2025-12-19T09:41:55Z</time>
      </trkpt>
      <trkpt lat="43.62503" lon="1.07675">
        <ele>142.6</ele>
        <time>2025-12-19T09:41:56Z</time>
      </trkpt>
      <trkpt lat="43.62507" lon="1.07683">
        <ele>142.6</ele>
        <time>2025-12-19T09:41:57Z</time>
      </trkpt>
      <trkpt lat="43.62511" lon="1.0769">
        <ele>142.6</ele>
        <time>2025-12-19T09:41:58Z</time>
      </trkpt>
      <trkpt lat="43.62516" lon="1.07697">
        <ele>142.6</ele>
        <time>2025-12-19T09:41:59Z</time>
      </trkpt>
      <trkpt lat="43.6252" lon="1.07705">
        <ele>142.6</ele>
        <time>2025-12-19T09:42:00Z</time>
      </trkpt>
      <trkpt lat="43.62525" lon="1.07712">
        <ele>142.6</ele>
        <time>2025-12-19T09:42:01Z</time>
      </trkpt>
      <trkpt lat="43.62531" lon="1.07719">
        <ele>142.6</ele>
        <time>2025-12-19T09:42:02Z</time>
      </trkpt>
      <trkpt lat="43.62536" lon="1.07726">
        <ele>142.4</ele>
        <time>2025-12-19T09:42:03Z</time>
      </trkpt>
      <trkpt lat="43.62542" lon="1.07732">
        <ele>142.4</ele>
        <time>2025-12-19T09:42:04Z</time>
      </trkpt>
      <trkpt lat="43.62547" lon="1.07739">
        <ele>142.4</ele>
        <time>2025-12-19T09:42:05Z</time>
      </trkpt>
      <trkpt lat="43.62553" lon="1.07746">
        <ele>142.2</ele>
        <time>2025-12-19T09:42:06Z</time>
      </trkpt>
      <trkpt lat="43.62559" lon="1.07753">
        <ele>142.2</ele>
        <time>2025-12-19T09:42:07Z</time>
      </trkpt>
      <trkpt lat="43.62564" lon="1.0776">
        <ele>142.2</ele>
        <time>2025-12-19T09:42:08Z</time>
      </trkpt>
      <trkpt lat="43.62569" lon="1.07767">
        <ele>142</ele>
        <time>2025-12-19T09:42:09Z</time>
      </trkpt>
      <trkpt lat="43.62575" lon="1.07774">
        <ele>142</ele>
        <time>2025-12-19T09:42:10Z</time>
      </trkpt>
      <trkpt lat="43.6258" lon="1.07781">
        <ele>142</ele>
        <time>2025-12-19T09:42:11Z</time>
      </trkpt>
      <trkpt lat="43.62585" lon="1.07788">
        <ele>142</ele>
        <time>2025-12-19T09:42:12Z</time>
      </trkpt>
      <trkpt lat="43.62591" lon="1.07795">
        <ele>141.8</ele>
        <time>2025-12-19T09:42:13Z</time>
      </trkpt>
      <trkpt lat="43.62596" lon="1.07801">
        <ele>141.8</ele>
        <time>2025-12-19T09:42:14Z</time>
      </trkpt>
      <trkpt lat="43.62601" lon="1.07808">
        <ele>141.8</ele>
        <time>2025-12-19T09:42:15Z</time>
      </trkpt>
      <trkpt lat="43.62607" lon="1.07815">
        <ele>141.8</ele>
        <time>2025-12-19T09:42:16Z</time>
      </trkpt>
      <trkpt lat="43.62612" lon="1.07821">
        <ele>141.8</ele>
        <time>2025-12-19T09:42:17Z</time>
      </trkpt>
      <trkpt lat="43.62617" lon="1.07828">
        <ele>141.8</ele>
        <time>2025-12-19T09:42:18Z</time>
      </trkpt>
      <trkpt lat="43.62622" lon="1.07835">
        <ele>142</ele>
        <time>2025-12-19T09:42:19Z</time>
      </trkpt>
      <trkpt lat="43.62628" lon="1.07841">
        <ele>142</ele>
        <time>2025-12-19T09:42:20Z</time>
      </trkpt>
      <trkpt lat="43.62632" lon="1.07848">
        <ele>142</ele>
        <time>2025-12-19T09:42:21Z</time>
      </trkpt>
      <trkpt lat="43.62637" lon="1.07856">
        <ele>142</ele>
        <time>2025-12-19T09:42:22Z</time>
      </trkpt>
      <trkpt lat="43.62641" lon="1.07863">
        <ele>142</ele>
        <time>2025-12-19T09:42:23Z</time>
      </trkpt>
      <trkpt lat="43.62645" lon="1.07871">
        <ele>142.2</ele>
        <time>2025-12-19T09:42:24Z</time>
      </trkpt>
      <trkpt lat="43.62649" lon="1.07879">
        <ele>142.2</ele>
        <time>2025-12-19T09:42:25Z</time>
      </trkpt>
      <trkpt lat="43.62652" lon="1.07887">
        <ele>142.2</ele>
        <time>2025-12-19T09:42:26Z</time>
      </trkpt>
      <trkpt lat="43.62655" lon="1.07895">
        <ele>142.4</ele>
        <time>2025-12-19T09:42:27Z</time>
      </trkpt>
      <trkpt lat="43.62659" lon="1.07903">
        <ele>142.4</ele>
        <time>2025-12-19T09:42:28Z</time>
      </trkpt>
      <trkpt lat="43.62662" lon="1.07911">
        <ele>142.4</ele>
        <time>2025-12-19T09:42:29Z</time>
      </trkpt>
      <trkpt lat="43.62665" lon="1.07919">
        <ele>142.6</ele>
        <time>2025-12-19T09:42:30Z</time>
      </trkpt>
      <trkpt lat="43.62669" lon="1.07927">
        <ele>142.6</ele>
        <time>2025-12-19T09:42:31Z</time>
      </trkpt>
      <trkpt lat="43.62673" lon="1.07934">
        <ele>142.8</ele>
        <time>2025-12-19T09:42:32Z</time>
      </trkpt>
      <trkpt lat="43.62677" lon="1.07941">
        <ele>143</ele>
        <time>2025-12-19T09:42:33Z</time>
      </trkpt>
      <trkpt lat="43.62681" lon="1.07949">
        <ele>143</ele>
        <time>2025-12-19T09:42:34Z</time>
      </trkpt>
      <trkpt lat="43.62685" lon="1.07956">
        <ele>143</ele>
        <time>2025-12-19T09:42:35Z</time>
      </trkpt>
      <trkpt lat="43.62689" lon="1.07964">
        <ele>143</ele>
        <time>2025-12-19T09:42:36Z</time>
      </trkpt>
      <trkpt lat="43.62693" lon="1.07971">
        <ele>143</ele>
        <time>2025-12-19T09:42:37Z</time>
      </trkpt>
      <trkpt lat="43.62698" lon="1.07979">
        <ele>142.8</ele>
        <time>2025-12-19T09:42:38Z</time>
      </trkpt>
      <trkpt lat="43.62703" lon="1.07987">
        <ele>142.8</ele>
        <time>2025-12-19T09:42:39Z</time>
      </trkpt>
      <trkpt lat="43.62708" lon="1.07995">
        <ele>142.8</ele>
        <time>2025-12-19T09:42:40Z</time>
      </trkpt>
      <trkpt lat="43.62712" lon="1.08002">
        <ele>142.6</ele>
        <time>2025-12-19T09:42:41Z</time>
      </trkpt>
      <trkpt lat="43.62717" lon="1.08011">
        <ele>142.6</ele>
        <time>2025-12-19T09:42:42Z</time>
      </trkpt>
      <trkpt lat="43.62722" lon="1.08018">
        <ele>142.6</ele>
        <time>2025-12-19T09:42:43Z</time>
      </trkpt>
      <trkpt lat="43.62726" lon="1.08026">
        <ele>142.4</ele>
        <time>2025-12-19T09:42:44Z</time>
      </trkpt>
      <trkpt lat="43.62731" lon="1.08034">
        <ele>142.4</ele>
        <time>2025-12-19T09:42:45Z</time>
      </trkpt>
      <trkpt lat="43.62736" lon="1.08041">
        <ele>142.4</ele>
        <time>2025-12-19T09:42:46Z</time>
      </trkpt>
      <trkpt lat="43.6274" lon="1.08049">
        <ele>142.4</ele>
        <time>2025-12-19T09:42:47Z</time>
      </trkpt>
      <trkpt lat="43.62745" lon="1.08057">
        <ele>142.4</ele>
        <time>2025-12-19T09:42:48Z</time>
      </trkpt>
      <trkpt lat="43.62749" lon="1.08065">
        <ele>142.4</ele>
        <time>2025-12-19T09:42:49Z</time>
      </trkpt>
      <trkpt lat="43.62753" lon="1.08073">
        <ele>142.4</ele>
        <time>2025-12-19T09:42:50Z</time>
      </trkpt>
      <trkpt lat="43.62757" lon="1.08081">
        <ele>142.2</ele>
        <time>2025-12-19T09:42:51Z</time>
      </trkpt>
      <trkpt lat="43.62762" lon="1.08089">
        <ele>142.2</ele>
        <time>2025-12-19T09:42:52Z</time>
      </trkpt>
      <trkpt lat="43.62766" lon="1.08096">
        <ele>142.2</ele>
        <time>2025-12-19T09:42:53Z</time>
      </trkpt>
      <trkpt lat="43.6277" lon="1.08105">
        <ele>142.2</ele>
        <time>2025-12-19T09:42:54Z</time>
      </trkpt>
      <trkpt lat="43.62774" lon="1.08112">
        <ele>142</ele>
        <time>2025-12-19T09:42:55Z</time>
      </trkpt>
      <trkpt lat="43.62778" lon="1.0812">
        <ele>142</ele>
        <time>2025-12-19T09:42:56Z</time>
      </trkpt>
      <trkpt lat="43.62782" lon="1.08128">
        <ele>142</ele>
        <time>2025-12-19T09:42:57Z</time>
      </trkpt>
      <trkpt lat="43.62786" lon="1.08137">
        <ele>142</ele>
        <time>2025-12-19T09:42:58Z</time>
      </trkpt>
      <trkpt lat="43.62791" lon="1.08145">
        <ele>142</ele>
        <time>2025-12-19T09:42:59Z</time>
      </trkpt>
      <trkpt lat="43.62795" lon="1.08153">
        <ele>141.8</ele>
        <time>2025-12-19T09:43:00Z</time>
      </trkpt>
      <trkpt lat="43.62799" lon="1.0816">
        <ele>141.8</ele>
        <time>2025-12-19T09:43:01Z</time>
      </trkpt>
      <trkpt lat="43.62803" lon="1.08168">
        <ele>142</ele>
        <time>2025-12-19T09:43:02Z</time>
      </trkpt>
      <trkpt lat="43.62807" lon="1.08176">
        <ele>142</ele>
        <time>2025-12-19T09:43:03Z</time>
      </trkpt>
      <trkpt lat="43.62811" lon="1.08184">
        <ele>142</ele>
        <time>2025-12-19T09:43:04Z</time>
      </trkpt>
      <trkpt lat="43.62815" lon="1.08192">
        <ele>142</ele>
        <time>2025-12-19T09:43:05Z</time>
      </trkpt>
      <trkpt lat="43.62819" lon="1.082">
        <ele>142</ele>
        <time>2025-12-19T09:43:06Z</time>
      </trkpt>
      <trkpt lat="43.62823" lon="1.08208">
        <ele>142</ele>
        <time>2025-12-19T09:43:07Z</time>
      </trkpt>
      <trkpt lat="43.62827" lon="1.08215">
        <ele>142</ele>
        <time>2025-12-19T09:43:08Z</time>
      </trkpt>
      <trkpt lat="43.62831" lon="1.08223">
        <ele>141.8</ele>
        <time>2025-12-19T09:43:09Z</time>
      </trkpt>
      <trkpt lat="43.62835" lon="1.08231">
        <ele>142</ele>
        <time>2025-12-19T09:43:10Z</time>
      </trkpt>
      <trkpt lat="43.62839" lon="1.08238">
        <ele>142</ele>
        <time>2025-12-19T09:43:11Z</time>
      </trkpt>
      <trkpt lat="43.62843" lon="1.08246">
        <ele>142</ele>
        <time>2025-12-19T09:43:12Z</time>
      </trkpt>
      <trkpt lat="43.62847" lon="1.08254">
        <ele>142</ele>
        <time>2025-12-19T09:43:13Z</time>
      </trkpt>
      <trkpt lat="43.62851" lon="1.08262">
        <ele>142.2</ele>
        <time>2025-12-19T09:43:14Z</time>
      </trkpt>
      <trkpt lat="43.62855" lon="1.08269">
        <ele>142.2</ele>
        <time>2025-12-19T09:43:15Z</time>
      </trkpt>
      <trkpt lat="43.62859" lon="1.08277">
        <ele>142.2</ele>
        <time>2025-12-19T09:43:16Z</time>
      </trkpt>
      <trkpt lat="43.62863" lon="1.08284">
        <ele>142.2</ele>
        <time>2025-12-19T09:43:17Z</time>
      </trkpt>
      <trkpt lat="43.62867" lon="1.08292">
        <ele>142.4</ele>
        <time>2025-12-19T09:43:18Z</time>
      </trkpt>
      <trkpt lat="43.6287" lon="1.083">
        <ele>142.4</ele>
        <time>2025-12-19T09:43:19Z</time>
      </trkpt>
      <trkpt lat="43.62874" lon="1.08308">
        <ele>142.4</ele>
        <time>2025-12-19T09:43:20Z</time>
      </trkpt>
      <trkpt lat="43.62878" lon="1.08316">
        <ele>142.6</ele>
        <time>2025-12-19T09:43:21Z</time>
      </trkpt>
      <trkpt lat="43.62881" lon="1.08323">
        <ele>142.6</ele>
        <time>2025-12-19T09:43:22Z</time>
      </trkpt>
      <trkpt lat="43.62885" lon="1.08331">
        <ele>142.6</ele>
        <time>2025-12-19T09:43:23Z</time>
      </trkpt>
      <trkpt lat="43.62889" lon="1.0834">
        <ele>142.6</ele>
        <time>2025-12-19T09:43:24Z</time>
      </trkpt>
      <trkpt lat="43.62892" lon="1.08348">
        <ele>142.6</ele>
        <time>2025-12-19T09:43:25Z</time>
      </trkpt>
      <trkpt lat="43.62896" lon="1.08355">
        <ele>142.8</ele>
        <time>2025-12-19T09:43:26Z</time>
      </trkpt>
      <trkpt lat="43.629" lon="1.08363">
        <ele>142.8</ele>
        <time>2025-12-19T09:43:27Z</time>
      </trkpt>
      <trkpt lat="43.62903" lon="1.08371">
        <ele>142.8</ele>
        <time>2025-12-19T09:43:28Z</time>
      </trkpt>
      <trkpt lat="43.62906" lon="1.08379">
        <ele>142.8</ele>
        <time>2025-12-19T09:43:29Z</time>
      </trkpt>
      <trkpt lat="43.6291" lon="1.08387">
        <ele>142.8</ele>
        <time>2025-12-19T09:43:30Z</time>
      </trkpt>
      <trkpt lat="43.62913" lon="1.08396">
        <ele>142.8</ele>
        <time>2025-12-19T09:43:31Z</time>
      </trkpt>
      <trkpt lat="43.62917" lon="1.08404">
        <ele>143</ele>
        <time>2025-12-19T09:43:32Z</time>
      </trkpt>
      <trkpt lat="43.62921" lon="1.08412">
        <ele>143</ele>
        <time>2025-12-19T09:43:33Z</time>
      </trkpt>
      <trkpt lat="43.62924" lon="1.0842">
        <ele>143</ele>
        <time>2025-12-19T09:43:34Z</time>
      </trkpt>
      <trkpt lat="43.62927" lon="1.08429">
        <ele>143</ele>
        <time>2025-12-19T09:43:35Z</time>
      </trkpt>
      <trkpt lat="43.62931" lon="1.08437">
        <ele>143</ele>
        <time>2025-12-19T09:43:36Z</time>
      </trkpt>
      <trkpt lat="43.62935" lon="1.08445">
        <ele>143.2</ele>
        <time>2025-12-19T09:43:37Z</time>
      </trkpt>
      <trkpt lat="43.62938" lon="1.08453">
        <ele>143.2</ele>
        <time>2025-12-19T09:43:38Z</time>
      </trkpt>
      <trkpt lat="43.62942" lon="1.08461">
        <ele>143.2</ele>
        <time>2025-12-19T09:43:39Z</time>
      </trkpt>
      <trkpt lat="43.62945" lon="1.08469">
        <ele>143.2</ele>
        <time>2025-12-19T09:43:40Z</time>
      </trkpt>
      <trkpt lat="43.62949" lon="1.08477">
        <ele>143.2</ele>
        <time>2025-12-19T09:43:41Z</time>
      </trkpt>
      <trkpt lat="43.62953" lon="1.08485">
        <ele>143.2</ele>
        <time>2025-12-19T09:43:42Z</time>
      </trkpt>
      <trkpt lat="43.62956" lon="1.08493">
        <ele>143.2</ele>
        <time>2025-12-19T09:43:43Z</time>
      </trkpt>
      <trkpt lat="43.6296" lon="1.08501">
        <ele>143.4</ele>
        <time>2025-12-19T09:43:44Z</time>
      </trkpt>
      <trkpt lat="43.62964" lon="1.08508">
        <ele>143.4</ele>
        <time>2025-12-19T09:43:45Z</time>
      </trkpt>
      <trkpt lat="43.62968" lon="1.08517">
        <ele>143.4</ele>
        <time>2025-12-19T09:43:46Z</time>
      </trkpt>
      <trkpt lat="43.62973" lon="1.08525">
        <ele>143.4</ele>
        <time>2025-12-19T09:43:47Z</time>
      </trkpt>
      <trkpt lat="43.62978" lon="1.08532">
        <ele>143.4</ele>
        <time>2025-12-19T09:43:48Z</time>
      </trkpt>
      <trkpt lat="43.62983" lon="1.0854">
        <ele>143.2</ele>
        <time>2025-12-19T09:43:49Z</time>
      </trkpt>
      <trkpt lat="43.62987" lon="1.08548">
        <ele>143.2</ele>
        <time>2025-12-19T09:43:50Z</time>
      </trkpt>
      <trkpt lat="43.62992" lon="1.08555">
        <ele>143</ele>
        <time>2025-12-19T09:43:51Z</time>
      </trkpt>
      <trkpt lat="43.62997" lon="1.08563">
        <ele>143</ele>
        <time>2025-12-19T09:43:52Z</time>
      </trkpt>
      <trkpt lat="43.63002" lon="1.08571">
        <ele>142.8</ele>
        <time>2025-12-19T09:43:53Z</time>
      </trkpt>
      <trkpt lat="43.63007" lon="1.08578">
        <ele>142.8</ele>
        <time>2025-12-19T09:43:54Z</time>
      </trkpt>
      <trkpt lat="43.63012" lon="1.08586">
        <ele>142.6</ele>
        <time>2025-12-19T09:43:55Z</time>
      </trkpt>
      <trkpt lat="43.63017" lon="1.08594">
        <ele>142.6</ele>
        <time>2025-12-19T09:43:56Z</time>
      </trkpt>
      <trkpt lat="43.63022" lon="1.08601">
        <ele>142.4</ele>
        <time>2025-12-19T09:43:57Z</time>
      </trkpt>
      <trkpt lat="43.63027" lon="1.08609">
        <ele>142.4</ele>
        <time>2025-12-19T09:43:58Z</time>
      </trkpt>
      <trkpt lat="43.63032" lon="1.08617">
        <ele>142.2</ele>
        <time>2025-12-19T09:43:59Z</time>
      </trkpt>
      <trkpt lat="43.63037" lon="1.08625">
        <ele>142.2</ele>
        <time>2025-12-19T09:44:00Z</time>
      </trkpt>
      <trkpt lat="43.63042" lon="1.08632">
        <ele>142</ele>
        <time>2025-12-19T09:44:01Z</time>
      </trkpt>
      <trkpt lat="43.63046" lon="1.0864">
        <ele>142.2</ele>
        <time>2025-12-19T09:44:02Z</time>
      </trkpt>
      <trkpt lat="43.63051" lon="1.08647">
        <ele>142.2</ele>
        <time>2025-12-19T09:44:03Z</time>
      </trkpt>
      <trkpt lat="43.63056" lon="1.08654">
        <ele>142.2</ele>
        <time>2025-12-19T09:44:04Z</time>
      </trkpt>
      <trkpt lat="43.63061" lon="1.08661">
        <ele>142.2</ele>
        <time>2025-12-19T09:44:05Z</time>
      </trkpt>
      <trkpt lat="43.63065" lon="1.08668">
        <ele>142.4</ele>
        <time>2025-12-19T09:44:06Z</time>
      </trkpt>
      <trkpt lat="43.6307" lon="1.08675">
        <ele>142.6</ele>
        <time>2025-12-19T09:44:07Z</time>
      </trkpt>
      <trkpt lat="43.63074" lon="1.08681">
        <ele>142.8</ele>
        <time>2025-12-19T09:44:08Z</time>
      </trkpt>
      <trkpt lat="43.63079" lon="1.08688">
        <ele>143</ele>
        <time>2025-12-19T09:44:09Z</time>
      </trkpt>
      <trkpt lat="43.63083" lon="1.08694">
        <ele>143</ele>
        <time>2025-12-19T09:44:10Z</time>
      </trkpt>
      <trkpt lat="43.63087" lon="1.087">
        <ele>143.2</ele>
        <time>2025-12-19T09:44:11Z</time>
      </trkpt>
      <trkpt lat="43.63091" lon="1.08706">
        <ele>143.4</ele>
        <time>2025-12-19T09:44:12Z</time>
      </trkpt>
      <trkpt lat="43.63095" lon="1.08712">
        <ele>143.6</ele>
        <time>2025-12-19T09:44:13Z</time>
      </trkpt>
      <trkpt lat="43.63099" lon="1.08719">
        <ele>143.8</ele>
        <time>2025-12-19T09:44:14Z</time>
      </trkpt>
      <trkpt lat="43.63103" lon="1.08725">
        <ele>144</ele>
        <time>2025-12-19T09:44:15Z</time>
      </trkpt>
      <trkpt lat="43.63107" lon="1.0873">
        <ele>144.2</ele>
        <time>2025-12-19T09:44:16Z</time>
      </trkpt>
      <trkpt lat="43.63111" lon="1.08736">
        <ele>144.4</ele>
        <time>2025-12-19T09:44:17Z</time>
      </trkpt>
      <trkpt lat="43.63115" lon="1.08742">
        <ele>144.6</ele>
        <time>2025-12-19T09:44:18Z</time>
      </trkpt>
      <trkpt lat="43.63118" lon="1.08749">
        <ele>144.6</ele>
        <time>2025-12-19T09:44:19Z</time>
      </trkpt>
      <trkpt lat="43.63123" lon="1.08754">
        <ele>144.8</ele>
        <time>2025-12-19T09:44:20Z</time>
      </trkpt>
      <trkpt lat="43.63127" lon="1.0876">
        <ele>145</ele>
        <time>2025-12-19T09:44:21Z</time>
      </trkpt>
      <trkpt lat="43.63131" lon="1.08766">
        <ele>145.2</ele>
        <time>2025-12-19T09:44:22Z</time>
      </trkpt>
      <trkpt lat="43.63134" lon="1.08772">
        <ele>145.2</ele>
        <time>2025-12-19T09:44:23Z</time>
      </trkpt>
      <trkpt lat="43.63138" lon="1.08778">
        <ele>145.4</ele>
        <time>2025-12-19T09:44:24Z</time>
      </trkpt>
      <trkpt lat="43.63142" lon="1.08784">
        <ele>145.4</ele>
        <time>2025-12-19T09:44:25Z</time>
      </trkpt>
      <trkpt lat="43.63146" lon="1.0879">
        <ele>145.6</ele>
        <time>2025-12-19T09:44:26Z</time>
      </trkpt>
      <trkpt lat="43.6315" lon="1.08797">
        <ele>145.6</ele>
        <time>2025-12-19T09:44:27Z</time>
      </trkpt>
      <trkpt lat="43.63154" lon="1.08804">
        <ele>145.8</ele>
        <time>2025-12-19T09:44:28Z</time>
      </trkpt>
      <trkpt lat="43.63157" lon="1.0881">
        <ele>145.8</ele>
        <time>2025-12-19T09:44:29Z</time>
      </trkpt>
      <trkpt lat="43.63161" lon="1.08817">
        <ele>146</ele>
        <time>2025-12-19T09:44:30Z</time>
      </trkpt>
      <trkpt lat="43.63165" lon="1.08823">
        <ele>146</ele>
        <time>2025-12-19T09:44:31Z</time>
      </trkpt>
      <trkpt lat="43.63169" lon="1.0883">
        <ele>146.2</ele>
        <time>2025-12-19T09:44:32Z</time>
      </trkpt>
      <trkpt lat="43.63172" lon="1.08836">
        <ele>146.4</ele>
        <time>2025-12-19T09:44:33Z</time>
      </trkpt>
      <trkpt lat="43.63176" lon="1.08843">
        <ele>146.4</ele>
        <time>2025-12-19T09:44:34Z</time>
      </trkpt>
      <trkpt lat="43.6318" lon="1.08849">
        <ele>146.6</ele>
        <time>2025-12-19T09:44:35Z</time>
      </trkpt>
      <trkpt lat="43.63183" lon="1.08856">
        <ele>146.6</ele>
        <time>2025-12-19T09:44:36Z</time>
      </trkpt>
      <trkpt lat="43.63187" lon="1.08863">
        <ele>146.8</ele>
        <time>2025-12-19T09:44:37Z</time>
      </trkpt>
      <trkpt lat="43.6319" lon="1.0887">
        <ele>146.8</ele>
        <time>2025-12-19T09:44:38Z</time>
      </trkpt>
      <trkpt lat="43.63194" lon="1.08876">
        <ele>146.8</ele>
        <time>2025-12-19T09:44:39Z</time>
      </trkpt>
      <trkpt lat="43.63198" lon="1.08883">
        <ele>147</ele>
        <time>2025-12-19T09:44:40Z</time>
      </trkpt>
      <trkpt lat="43.63201" lon="1.0889">
        <ele>147.2</ele>
        <time>2025-12-19T09:44:41Z</time>
      </trkpt>
      <trkpt lat="43.63204" lon="1.08897">
        <ele>147.2</ele>
        <time>2025-12-19T09:44:42Z</time>
      </trkpt>
      <trkpt lat="43.63208" lon="1.08904">
        <ele>147.4</ele>
        <time>2025-12-19T09:44:43Z</time>
      </trkpt>
      <trkpt lat="43.63211" lon="1.08912">
        <ele>147.6</ele>
        <time>2025-12-19T09:44:44Z</time>
      </trkpt>
      <trkpt lat="43.63215" lon="1.08919">
        <ele>147.6</ele>
        <time>2025-12-19T09:44:45Z</time>
      </trkpt>
      <trkpt lat="43.63218" lon="1.08926">
        <ele>147.8</ele>
        <time>2025-12-19T09:44:46Z</time>
      </trkpt>
      <trkpt lat="43.63221" lon="1.08933">
        <ele>147.8</ele>
        <time>2025-12-19T09:44:47Z</time>
      </trkpt>
      <trkpt lat="43.63225" lon="1.0894">
        <ele>148</ele>
        <time>2025-12-19T09:44:48Z</time>
      </trkpt>
      <trkpt lat="43.63228" lon="1.08947">
        <ele>148</ele>
        <time>2025-12-19T09:44:49Z</time>
      </trkpt>
      <trkpt lat="43.63232" lon="1.08955">
        <ele>148</ele>
        <time>2025-12-19T09:44:50Z</time>
      </trkpt>
      <trkpt lat="43.63235" lon="1.08962">
        <ele>148</ele>
        <time>2025-12-19T09:44:51Z</time>
      </trkpt>
      <trkpt lat="43.63239" lon="1.08969">
        <ele>148</ele>
        <time>2025-12-19T09:44:52Z</time>
      </trkpt>
      <trkpt lat="43.63243" lon="1.08977">
        <ele>148</ele>
        <time>2025-12-19T09:44:53Z</time>
      </trkpt>
      <trkpt lat="43.63246" lon="1.08985">
        <ele>148</ele>
        <time>2025-12-19T09:44:54Z</time>
      </trkpt>
      <trkpt lat="43.6325" lon="1.08992">
        <ele>147.8</ele>
        <time>2025-12-19T09:44:55Z</time>
      </trkpt>
      <trkpt lat="43.63254" lon="1.09">
        <ele>147.8</ele>
        <time>2025-12-19T09:44:56Z</time>
      </trkpt>
      <trkpt lat="43.63257" lon="1.09007">
        <ele>147.6</ele>
        <time>2025-12-19T09:44:57Z</time>
      </trkpt>
      <trkpt lat="43.63261" lon="1.09015">
        <ele>147.6</ele>
        <time>2025-12-19T09:44:58Z</time>
      </trkpt>
      <trkpt lat="43.63265" lon="1.09022">
        <ele>147.2</ele>
        <time>2025-12-19T09:44:59Z</time>
      </trkpt>
      <trkpt lat="43.63268" lon="1.0903">
        <ele>147.2</ele>
        <time>2025-12-19T09:45:00Z</time>
      </trkpt>
      <trkpt lat="43.63272" lon="1.09038">
        <ele>147</ele>
        <time>2025-12-19T09:45:01Z</time>
      </trkpt>
      <trkpt lat="43.63276" lon="1.09046">
        <ele>146.8</ele>
        <time>2025-12-19T09:45:02Z</time>
      </trkpt>
      <trkpt lat="43.6328" lon="1.09054">
        <ele>146.6</ele>
        <time>2025-12-19T09:45:03Z</time>
      </trkpt>
      <trkpt lat="43.63284" lon="1.09062">
        <ele>146.4</ele>
        <time>2025-12-19T09:45:04Z</time>
      </trkpt>
      <trkpt lat="43.63287" lon="1.0907">
        <ele>146</ele>
        <time>2025-12-19T09:45:05Z</time>
      </trkpt>
      <trkpt lat="43.63291" lon="1.09077">
        <ele>145.8</ele>
        <time>2025-12-19T09:45:06Z</time>
      </trkpt>
      <trkpt lat="43.63294" lon="1.09086">
        <ele>145.8</ele>
        <time>2025-12-19T09:45:07Z</time>
      </trkpt>
      <trkpt lat="43.63298" lon="1.09094">
        <ele>145.6</ele>
        <time>2025-12-19T09:45:08Z</time>
      </trkpt>
      <trkpt lat="43.63301" lon="1.09101">
        <ele>145.4</ele>
        <time>2025-12-19T09:45:09Z</time>
      </trkpt>
      <trkpt lat="43.63306" lon="1.09107">
        <ele>145</ele>
        <time>2025-12-19T09:45:10Z</time>
      </trkpt>
      <trkpt lat="43.63312" lon="1.09112">
        <ele>145</ele>
        <time>2025-12-19T09:45:11Z</time>
      </trkpt>
      <trkpt lat="43.63316" lon="1.09118">
        <ele>144.8</ele>
        <time>2025-12-19T09:45:12Z</time>
      </trkpt>
      <trkpt lat="43.6332" lon="1.09125">
        <ele>144.6</ele>
        <time>2025-12-19T09:45:13Z</time>
      </trkpt>
      <trkpt lat="43.63324" lon="1.09133">
        <ele>144.6</ele>
        <time>2025-12-19T09:45:14Z</time>
      </trkpt>
      <trkpt lat="43.63327" lon="1.0914">
        <ele>144.4</ele>
        <time>2025-12-19T09:45:15Z</time>
      </trkpt>
      <trkpt lat="43.63332" lon="1.09147">
        <ele>144.2</ele>
        <time>2025-12-19T09:45:16Z</time>
      </trkpt>
      <trkpt lat="43.63338" lon="1.09152">
        <ele>144</ele>
        <time>2025-12-19T09:45:17Z</time>
      </trkpt>
      <trkpt lat="43.63345" lon="1.09154">
        <ele>143.8</ele>
        <time>2025-12-19T09:45:18Z</time>
      </trkpt>
      <trkpt lat="43.63351" lon="1.09155">
        <ele>143.8</ele>
        <time>2025-12-19T09:45:19Z</time>
      </trkpt>
      <trkpt lat="43.63358" lon="1.09156">
        <ele>143.6</ele>
        <time>2025-12-19T09:45:20Z</time>
      </trkpt>
      <trkpt lat="43.63363" lon="1.0916">
        <ele>143.4</ele>
        <time>2025-12-19T09:45:21Z</time>
      </trkpt>
      <trkpt lat="43.63367" lon="1.09165">
        <ele>143.4</ele>
        <time>2025-12-19T09:45:22Z</time>
      </trkpt>
      <trkpt lat="43.63371" lon="1.09171">
        <ele>143.4</ele>
        <time>2025-12-19T09:45:23Z</time>
      </trkpt>
      <trkpt lat="43.63376" lon="1.09177">
        <ele>143.4</ele>
        <time>2025-12-19T09:45:24Z</time>
      </trkpt>
      <trkpt lat="43.63382" lon="1.09182">
        <ele>143.2</ele>
        <time>2025-12-19T09:45:25Z</time>
      </trkpt>
      <trkpt lat="43.63389" lon="1.09186">
        <ele>143.2</ele>
        <time>2025-12-19T09:45:26Z</time>
      </trkpt>
      <trkpt lat="43.63395" lon="1.09187">
        <ele>143</ele>
        <time>2025-12-19T09:45:27Z</time>
      </trkpt>
      <trkpt lat="43.63402" lon="1.09186">
        <ele>143</ele>
        <time>2025-12-19T09:45:28Z</time>
      </trkpt>
      <trkpt lat="43.63408" lon="1.09184">
        <ele>143</ele>
        <time>2025-12-19T09:45:29Z</time>
      </trkpt>
      <trkpt lat="43.63415" lon="1.09182">
        <ele>143.2</ele>
        <time>2025-12-19T09:45:30Z</time>
      </trkpt>
      <trkpt lat="43.63421" lon="1.09179">
        <ele>143.4</ele>
        <time>2025-12-19T09:45:31Z</time>
      </trkpt>
      <trkpt lat="43.63427" lon="1.09175">
        <ele>143.4</ele>
        <time>2025-12-19T09:45:32Z</time>
      </trkpt>
      <trkpt lat="43.63433" lon="1.09172">
        <ele>143.4</ele>
        <time>2025-12-19T09:45:33Z</time>
      </trkpt>
      <trkpt lat="43.63439" lon="1.09169">
        <ele>143.4</ele>
        <time>2025-12-19T09:45:34Z</time>
      </trkpt>
      <trkpt lat="43.63445" lon="1.09166">
        <ele>143.6</ele>
        <time>2025-12-19T09:45:35Z</time>
      </trkpt>
      <trkpt lat="43.63451" lon="1.09162">
        <ele>143.6</ele>
        <time>2025-12-19T09:45:36Z</time>
      </trkpt>
      <trkpt lat="43.63457" lon="1.09159">
        <ele>143.8</ele>
        <time>2025-12-19T09:45:37Z</time>
      </trkpt>
      <trkpt lat="43.63464" lon="1.09155">
        <ele>144</ele>
        <time>2025-12-19T09:45:38Z</time>
      </trkpt>
      <trkpt lat="43.6347" lon="1.09152">
        <ele>144</ele>
        <time>2025-12-19T09:45:39Z</time>
      </trkpt>
      <trkpt lat="43.63476" lon="1.09148">
        <ele>144.2</ele>
        <time>2025-12-19T09:45:40Z</time>
      </trkpt>
      <trkpt lat="43.63483" lon="1.09145">
        <ele>144.2</ele>
        <time>2025-12-19T09:45:41Z</time>
      </trkpt>
      <trkpt lat="43.63489" lon="1.09142">
        <ele>144.4</ele>
        <time>2025-12-19T09:45:42Z</time>
      </trkpt>
      <trkpt lat="43.63495" lon="1.09138">
        <ele>144.4</ele>
        <time>2025-12-19T09:45:43Z</time>
      </trkpt>
      <trkpt lat="43.63502" lon="1.09135">
        <ele>144.4</ele>
        <time>2025-12-19T09:45:44Z</time>
      </trkpt>
      <trkpt lat="43.63508" lon="1.09131">
        <ele>144.6</ele>
        <time>2025-12-19T09:45:45Z</time>
      </trkpt>
      <trkpt lat="43.63513" lon="1.09127">
        <ele>144.8</ele>
        <time>2025-12-19T09:45:46Z</time>
      </trkpt>
      <trkpt lat="43.63519" lon="1.09122">
        <ele>144.8</ele>
        <time>2025-12-19T09:45:47Z</time>
      </trkpt>
      <trkpt lat="43.63525" lon="1.09117">
        <ele>145</ele>
        <time>2025-12-19T09:45:48Z</time>
      </trkpt>
      <trkpt lat="43.6353" lon="1.09112">
        <ele>145</ele>
        <time>2025-12-19T09:45:49Z</time>
      </trkpt>
      <trkpt lat="43.63535" lon="1.09106">
        <ele>145.2</ele>
        <time>2025-12-19T09:45:50Z</time>
      </trkpt>
      <trkpt lat="43.63539" lon="1.09099">
        <ele>145.4</ele>
        <time>2025-12-19T09:45:51Z</time>
      </trkpt>
      <trkpt lat="43.63544" lon="1.09092">
        <ele>145.4</ele>
        <time>2025-12-19T09:45:52Z</time>
      </trkpt>
      <trkpt lat="43.63549" lon="1.09085">
        <ele>145.6</ele>
        <time>2025-12-19T09:45:53Z</time>
      </trkpt>
      <trkpt lat="43.63553" lon="1.09078">
        <ele>145.8</ele>
        <time>2025-12-19T09:45:54Z</time>
      </trkpt>
      <trkpt lat="43.63558" lon="1.09071">
        <ele>145.8</ele>
        <time>2025-12-19T09:45:55Z</time>
      </trkpt>
      <trkpt lat="43.63562" lon="1.09065">
        <ele>145.8</ele>
        <time>2025-12-19T09:45:56Z</time>
      </trkpt>
      <trkpt lat="43.63567" lon="1.09057">
        <ele>146</ele>
        <time>2025-12-19T09:45:57Z</time>
      </trkpt>
      <trkpt lat="43.63571" lon="1.0905">
        <ele>146</ele>
        <time>2025-12-19T09:45:58Z</time>
      </trkpt>
      <trkpt lat="43.63575" lon="1.09043">
        <ele>146.2</ele>
        <time>2025-12-19T09:45:59Z</time>
      </trkpt>
      <trkpt lat="43.6358" lon="1.09037">
        <ele>146.2</ele>
        <time>2025-12-19T09:46:00Z</time>
      </trkpt>
      <trkpt lat="43.63584" lon="1.0903">
        <ele>146.4</ele>
        <time>2025-12-19T09:46:01Z</time>
      </trkpt>
      <trkpt lat="43.63588" lon="1.09023">
        <ele>146.4</ele>
        <time>2025-12-19T09:46:02Z</time>
      </trkpt>
      <trkpt lat="43.63593" lon="1.09016">
        <ele>146.6</ele>
        <time>2025-12-19T09:46:03Z</time>
      </trkpt>
      <trkpt lat="43.63597" lon="1.09009">
        <ele>146.6</ele>
        <time>2025-12-19T09:46:04Z</time>
      </trkpt>
      <trkpt lat="43.63601" lon="1.09002">
        <ele>146.8</ele>
        <time>2025-12-19T09:46:05Z</time>
      </trkpt>
      <trkpt lat="43.63606" lon="1.08995">
        <ele>146.8</ele>
        <time>2025-12-19T09:46:06Z</time>
      </trkpt>
      <trkpt lat="43.6361" lon="1.08988">
        <ele>146.8</ele>
        <time>2025-12-19T09:46:07Z</time>
      </trkpt>
      <trkpt lat="43.63614" lon="1.08981">
        <ele>146.8</ele>
        <time>2025-12-19T09:46:08Z</time>
      </trkpt>
      <trkpt lat="43.63619" lon="1.08974">
        <ele>146.8</ele>
        <time>2025-12-19T09:46:09Z</time>
      </trkpt>
      <trkpt lat="43.63624" lon="1.08967">
        <ele>147</ele>
        <time>2025-12-19T09:46:10Z</time>
      </trkpt>
      <trkpt lat="43.63628" lon="1.0896">
        <ele>147</ele>
        <time>2025-12-19T09:46:11Z</time>
      </trkpt>
      <trkpt lat="43.63633" lon="1.08953">
        <ele>147</ele>
        <time>2025-12-19T09:46:12Z</time>
      </trkpt>
      <trkpt lat="43.63637" lon="1.08946">
        <ele>147</ele>
        <time>2025-12-19T09:46:13Z</time>
      </trkpt>
      <trkpt lat="43.63642" lon="1.08939">
        <ele>147</ele>
        <time>2025-12-19T09:46:14Z</time>
      </trkpt>
      <trkpt lat="43.63647" lon="1.08932">
        <ele>147</ele>
        <time>2025-12-19T09:46:15Z</time>
      </trkpt>
      <trkpt lat="43.63651" lon="1.08925">
        <ele>147</ele>
        <time>2025-12-19T09:46:16Z</time>
      </trkpt>
      <trkpt lat="43.63656" lon="1.08917">
        <ele>147.2</ele>
        <time>2025-12-19T09:46:17Z</time>
      </trkpt>
      <trkpt lat="43.63661" lon="1.0891">
        <ele>147.2</ele>
        <time>2025-12-19T09:46:18Z</time>
      </trkpt>
      <trkpt lat="43.63665" lon="1.08903">
        <ele>147.2</ele>
        <time>2025-12-19T09:46:19Z</time>
      </trkpt>
      <trkpt lat="43.6367" lon="1.08895">
        <ele>147.2</ele>
        <time>2025-12-19T09:46:20Z</time>
      </trkpt>
      <trkpt lat="43.63675" lon="1.08888">
        <ele>147.2</ele>
        <time>2025-12-19T09:46:21Z</time>
      </trkpt>
      <trkpt lat="43.63679" lon="1.08881">
        <ele>147.2</ele>
        <time>2025-12-19T09:46:22Z</time>
      </trkpt>
      <trkpt lat="43.63684" lon="1.08874">
        <ele>147.2</ele>
        <time>2025-12-19T09:46:23Z</time>
      </trkpt>
      <trkpt lat="43.63688" lon="1.08867">
        <ele>147.4</ele>
        <time>2025-12-19T09:46:24Z</time>
      </trkpt>
      <trkpt lat="43.63693" lon="1.08859">
        <ele>147.4</ele>
        <time>2025-12-19T09:46:25Z</time>
      </trkpt>
      <trkpt lat="43.63697" lon="1.08852">
        <ele>147.4</ele>
        <time>2025-12-19T09:46:26Z</time>
      </trkpt>
      <trkpt lat="43.63702" lon="1.08845">
        <ele>147.6</ele>
        <time>2025-12-19T09:46:27Z</time>
      </trkpt>
      <trkpt lat="43.63706" lon="1.08838">
        <ele>147.6</ele>
        <time>2025-12-19T09:46:28Z</time>
      </trkpt>
      <trkpt lat="43.63711" lon="1.08831">
        <ele>147.6</ele>
        <time>2025-12-19T09:46:29Z</time>
      </trkpt>
      <trkpt lat="43.63716" lon="1.08824">
        <ele>147.6</ele>
        <time>2025-12-19T09:46:30Z</time>
      </trkpt>
      <trkpt lat="43.6372" lon="1.08817">
        <ele>147.8</ele>
        <time>2025-12-19T09:46:31Z</time>
      </trkpt>
      <trkpt lat="43.63724" lon="1.08809">
        <ele>147.8</ele>
        <time>2025-12-19T09:46:32Z</time>
      </trkpt>
      <trkpt lat="43.63729" lon="1.08802">
        <ele>148</ele>
        <time>2025-12-19T09:46:33Z</time>
      </trkpt>
      <trkpt lat="43.63733" lon="1.08795">
        <ele>148.2</ele>
        <time>2025-12-19T09:46:34Z</time>
      </trkpt>
      <trkpt lat="43.63738" lon="1.08789">
        <ele>148.2</ele>
        <time>2025-12-19T09:46:35Z</time>
      </trkpt>
      <trkpt lat="43.63742" lon="1.08782">
        <ele>148.4</ele>
        <time>2025-12-19T09:46:36Z</time>
      </trkpt>
      <trkpt lat="43.63746" lon="1.08776">
        <ele>148.6</ele>
        <time>2025-12-19T09:46:37Z</time>
      </trkpt>
      <trkpt lat="43.6375" lon="1.0877">
        <ele>148.6</ele>
        <time>2025-12-19T09:46:38Z</time>
      </trkpt>
      <trkpt lat="43.63754" lon="1.08763">
        <ele>148.8</ele>
        <time>2025-12-19T09:46:39Z</time>
      </trkpt>
      <trkpt lat="43.63758" lon="1.08757">
        <ele>149</ele>
        <time>2025-12-19T09:46:40Z</time>
      </trkpt>
      <trkpt lat="43.63762" lon="1.0875">
        <ele>149.4</ele>
        <time>2025-12-19T09:46:41Z</time>
      </trkpt>
      <trkpt lat="43.63767" lon="1.08744">
        <ele>149.4</ele>
        <time>2025-12-19T09:46:42Z</time>
      </trkpt>
      <trkpt lat="43.63771" lon="1.08737">
        <ele>149.4</ele>
        <time>2025-12-19T09:46:43Z</time>
      </trkpt>
      <trkpt lat="43.63774" lon="1.08731">
        <ele>149.6</ele>
        <time>2025-12-19T09:46:44Z</time>
      </trkpt>
      <trkpt lat="43.63778" lon="1.08725">
        <ele>149.6</ele>
        <time>2025-12-19T09:46:45Z</time>
      </trkpt>
      <trkpt lat="43.63782" lon="1.08719">
        <ele>149.8</ele>
        <time>2025-12-19T09:46:46Z</time>
      </trkpt>
      <trkpt lat="43.63786" lon="1.08713">
        <ele>150</ele>
        <time>2025-12-19T09:46:47Z</time>
      </trkpt>
      <trkpt lat="43.6379" lon="1.08708">
        <ele>150.2</ele>
        <time>2025-12-19T09:46:48Z</time>
      </trkpt>
      <trkpt lat="43.63794" lon="1.08702">
        <ele>150.4</ele>
        <time>2025-12-19T09:46:49Z</time>
      </trkpt>
      <trkpt lat="43.63798" lon="1.08697">
        <ele>150.6</ele>
        <time>2025-12-19T09:46:50Z</time>
      </trkpt>
      <trkpt lat="43.63802" lon="1.08692">
        <ele>150.8</ele>
        <time>2025-12-19T09:46:51Z</time>
      </trkpt>
      <trkpt lat="43.63807" lon="1.08688">
        <ele>151.2</ele>
        <time>2025-12-19T09:46:52Z</time>
      </trkpt>
      <trkpt lat="43.63812" lon="1.08684">
        <ele>151.2</ele>
        <time>2025-12-19T09:46:53Z</time>
      </trkpt>
      <trkpt lat="43.63817" lon="1.0868">
        <ele>151.4</ele>
        <time>2025-12-19T09:46:54Z</time>
      </trkpt>
      <trkpt lat="43.63823" lon="1.08676">
        <ele>151.2</ele>
        <time>2025-12-19T09:46:55Z</time>
      </trkpt>
      <trkpt lat="43.63828" lon="1.08673">
        <ele>151.2</ele>
        <time>2025-12-19T09:46:56Z</time>
      </trkpt>
      <trkpt lat="43.63834" lon="1.08671">
        <ele>151.2</ele>
        <time>2025-12-19T09:46:57Z</time>
      </trkpt>
      <trkpt lat="43.63841" lon="1.08668">
        <ele>151</ele>
        <time>2025-12-19T09:46:58Z</time>
      </trkpt>
      <trkpt lat="43.63847" lon="1.08665">
        <ele>151</ele>
        <time>2025-12-19T09:46:59Z</time>
      </trkpt>
      <trkpt lat="43.63854" lon="1.08663">
        <ele>150.8</ele>
        <time>2025-12-19T09:47:00Z</time>
      </trkpt>
      <trkpt lat="43.6386" lon="1.0866">
        <ele>150.8</ele>
        <time>2025-12-19T09:47:01Z</time>
      </trkpt>
      <trkpt lat="43.63867" lon="1.08658">
        <ele>150.6</ele>
        <time>2025-12-19T09:47:02Z</time>
      </trkpt>
      <trkpt lat="43.63873" lon="1.08654">
        <ele>150.4</ele>
        <time>2025-12-19T09:47:03Z</time>
      </trkpt>
      <trkpt lat="43.6388" lon="1.08651">
        <ele>150.2</ele>
        <time>2025-12-19T09:47:04Z</time>
      </trkpt>
      <trkpt lat="43.63886" lon="1.08647">
        <ele>150.2</ele>
        <time>2025-12-19T09:47:05Z</time>
      </trkpt>
      <trkpt lat="43.63893" lon="1.08643">
        <ele>150</ele>
        <time>2025-12-19T09:47:06Z</time>
      </trkpt>
      <trkpt lat="43.63899" lon="1.08638">
        <ele>149.8</ele>
        <time>2025-12-19T09:47:07Z</time>
      </trkpt>
      <trkpt lat="43.63905" lon="1.08633">
        <ele>149.6</ele>
        <time>2025-12-19T09:47:08Z</time>
      </trkpt>
      <trkpt lat="43.63911" lon="1.08627">
        <ele>149.6</ele>
        <time>2025-12-19T09:47:09Z</time>
      </trkpt>
      <trkpt lat="43.63917" lon="1.08621">
        <ele>149.6</ele>
        <time>2025-12-19T09:47:10Z</time>
      </trkpt>
      <trkpt lat="43.63923" lon="1.08615">
        <ele>149.4</ele>
        <time>2025-12-19T09:47:11Z</time>
      </trkpt>
      <trkpt lat="43.63928" lon="1.08608">
        <ele>149.4</ele>
        <time>2025-12-19T09:47:12Z</time>
      </trkpt>
      <trkpt lat="43.63933" lon="1.08601">
        <ele>149.4</ele>
        <time>2025-12-19T09:47:13Z</time>
      </trkpt>
      <trkpt lat="43.63937" lon="1.08593">
        <ele>149.4</ele>
        <time>2025-12-19T09:47:14Z</time>
      </trkpt>
      <trkpt lat="43.63942" lon="1.08585">
        <ele>149.4</ele>
        <time>2025-12-19T09:47:15Z</time>
      </trkpt>
      <trkpt lat="43.63946" lon="1.08578">
        <ele>149.4</ele>
        <time>2025-12-19T09:47:16Z</time>
      </trkpt>
      <trkpt lat="43.63951" lon="1.0857">
        <ele>149.4</ele>
        <time>2025-12-19T09:47:17Z</time>
      </trkpt>
      <trkpt lat="43.63955" lon="1.08562">
        <ele>149.2</ele>
        <time>2025-12-19T09:47:18Z</time>
      </trkpt>
      <trkpt lat="43.63959" lon="1.08554">
        <ele>149.2</ele>
        <time>2025-12-19T09:47:19Z</time>
      </trkpt>
      <trkpt lat="43.63963" lon="1.08545">
        <ele>149.2</ele>
        <time>2025-12-19T09:47:20Z</time>
      </trkpt>
      <trkpt lat="43.63968" lon="1.08537">
        <ele>149.2</ele>
        <time>2025-12-19T09:47:21Z</time>
      </trkpt>
      <trkpt lat="43.63972" lon="1.0853">
        <ele>149.2</ele>
        <time>2025-12-19T09:47:22Z</time>
      </trkpt>
      <trkpt lat="43.63978" lon="1.08524">
        <ele>149.2</ele>
        <time>2025-12-19T09:47:23Z</time>
      </trkpt>
      <trkpt lat="43.63984" lon="1.0852">
        <ele>149.2</ele>
        <time>2025-12-19T09:47:24Z</time>
      </trkpt>
      <trkpt lat="43.63991" lon="1.08518">
        <ele>149.2</ele>
        <time>2025-12-19T09:47:25Z</time>
      </trkpt>
      <trkpt lat="43.63998" lon="1.08518">
        <ele>149.2</ele>
        <time>2025-12-19T09:47:26Z</time>
      </trkpt>
      <trkpt lat="43.64006" lon="1.08518">
        <ele>149.2</ele>
        <time>2025-12-19T09:47:27Z</time>
      </trkpt>
      <trkpt lat="43.64013" lon="1.08519">
        <ele>149.2</ele>
        <time>2025-12-19T09:47:28Z</time>
      </trkpt>
      <trkpt lat="43.6402" lon="1.08519">
        <ele>149.2</ele>
        <time>2025-12-19T09:47:29Z</time>
      </trkpt>
      <trkpt lat="43.64026" lon="1.08518">
        <ele>149.2</ele>
        <time>2025-12-19T09:47:30Z</time>
      </trkpt>
      <trkpt lat="43.64032" lon="1.08516">
        <ele>149.4</ele>
        <time>2025-12-19T09:47:31Z</time>
      </trkpt>
      <trkpt lat="43.64037" lon="1.08514">
        <ele>149.6</ele>
        <time>2025-12-19T09:47:32Z</time>
      </trkpt>
      <trkpt lat="43.64043" lon="1.0851">
        <ele>149.8</ele>
        <time>2025-12-19T09:47:33Z</time>
      </trkpt>
      <trkpt lat="43.64048" lon="1.08507">
        <ele>150</ele>
        <time>2025-12-19T09:47:34Z</time>
      </trkpt>
      <trkpt lat="43.64053" lon="1.08503">
        <ele>150.2</ele>
        <time>2025-12-19T09:47:35Z</time>
      </trkpt>
      <trkpt lat="43.64058" lon="1.085">
        <ele>150.4</ele>
        <time>2025-12-19T09:47:36Z</time>
      </trkpt>
      <trkpt lat="43.64062" lon="1.08496">
        <ele>150.8</ele>
        <time>2025-12-19T09:47:37Z</time>
      </trkpt>
      <trkpt lat="43.64067" lon="1.08493">
        <ele>151.2</ele>
        <time>2025-12-19T09:47:38Z</time>
      </trkpt>
      <trkpt lat="43.64071" lon="1.0849">
        <ele>151.4</ele>
        <time>2025-12-19T09:47:39Z</time>
      </trkpt>
      <trkpt lat="43.64075" lon="1.08487">
        <ele>151.8</ele>
        <time>2025-12-19T09:47:40Z</time>
      </trkpt>
      <trkpt lat="43.64079" lon="1.08485">
        <ele>152</ele>
        <time>2025-12-19T09:47:41Z</time>
      </trkpt>
      <trkpt lat="43.64083" lon="1.08483">
        <ele>152.2</ele>
        <time>2025-12-19T09:47:42Z</time>
      </trkpt>
      <trkpt lat="43.64087" lon="1.0848">
        <ele>152.6</ele>
        <time>2025-12-19T09:47:43Z</time>
      </trkpt>
      <trkpt lat="43.6409" lon="1.08477">
        <ele>152.8</ele>
        <time>2025-12-19T09:47:44Z</time>
      </trkpt>
      <trkpt lat="43.64094" lon="1.08475">
        <ele>153.2</ele>
        <time>2025-12-19T09:47:45Z</time>
      </trkpt>
      <trkpt lat="43.64097" lon="1.08472">
        <ele>153.6</ele>
        <time>2025-12-19T09:47:46Z</time>
      </trkpt>
      <trkpt lat="43.64101" lon="1.08469">
        <ele>153.8</ele>
        <time>2025-12-19T09:47:47Z</time>
      </trkpt>
      <trkpt lat="43.64104" lon="1.08466">
        <ele>154</ele>
        <time>2025-12-19T09:47:48Z</time>
      </trkpt>
      <trkpt lat="43.64108" lon="1.08464">
        <ele>154.2</ele>
        <time>2025-12-19T09:47:49Z</time>
      </trkpt>
      <trkpt lat="43.64112" lon="1.08461">
        <ele>154.6</ele>
        <time>2025-12-19T09:47:50Z</time>
      </trkpt>
      <trkpt lat="43.64115" lon="1.08458">
        <ele>154.8</ele>
        <time>2025-12-19T09:47:51Z</time>
      </trkpt>
      <trkpt lat="43.64119" lon="1.08456">
        <ele>155</ele>
        <time>2025-12-19T09:47:52Z</time>
      </trkpt>
      <trkpt lat="43.64122" lon="1.08454">
        <ele>155.2</ele>
        <time>2025-12-19T09:47:53Z</time>
      </trkpt>
      <trkpt lat="43.64126" lon="1.08452">
        <ele>155.4</ele>
        <time>2025-12-19T09:47:54Z</time>
      </trkpt>
      <trkpt lat="43.64129" lon="1.08449">
        <ele>155.8</ele>
        <time>2025-12-19T09:47:55Z</time>
      </trkpt>
      <trkpt lat="43.64132" lon="1.08446">
        <ele>156</ele>
        <time>2025-12-19T09:47:56Z</time>
      </trkpt>
      <trkpt lat="43.64135" lon="1.08444">
        <ele>156.4</ele>
        <time>2025-12-19T09:47:57Z</time>
      </trkpt>
      <trkpt lat="43.64139" lon="1.08441">
        <ele>156.6</ele>
        <time>2025-12-19T09:47:58Z</time>
      </trkpt>
      <trkpt lat="43.64142" lon="1.08439">
        <ele>156.8</ele>
        <time>2025-12-19T09:47:59Z</time>
      </trkpt>
      <trkpt lat="43.64146" lon="1.08437">
        <ele>157.2</ele>
        <time>2025-12-19T09:48:00Z</time>
      </trkpt>
      <trkpt lat="43.6415" lon="1.08434">
        <ele>157.4</ele>
        <time>2025-12-19T09:48:01Z</time>
      </trkpt>
      <trkpt lat="43.64153" lon="1.08432">
        <ele>157.8</ele>
        <time>2025-12-19T09:48:02Z</time>
      </trkpt>
      <trkpt lat="43.64156" lon="1.0843">
        <ele>158</ele>
        <time>2025-12-19T09:48:03Z</time>
      </trkpt>
      <trkpt lat="43.64159" lon="1.08428">
        <ele>158.2</ele>
        <time>2025-12-19T09:48:04Z</time>
      </trkpt>
      <trkpt lat="43.64162" lon="1.08426">
        <ele>158.6</ele>
        <time>2025-12-19T09:48:05Z</time>
      </trkpt>
      <trkpt lat="43.64165" lon="1.08424">
        <ele>158.8</ele>
        <time>2025-12-19T09:48:06Z</time>
      </trkpt>
      <trkpt lat="43.64167" lon="1.08421">
        <ele>159.2</ele>
        <time>2025-12-19T09:48:07Z</time>
      </trkpt>
      <trkpt lat="43.6417" lon="1.08419">
        <ele>159.4</ele>
        <time>2025-12-19T09:48:08Z</time>
      </trkpt>
      <trkpt lat="43.64173" lon="1.08418">
        <ele>159.8</ele>
        <time>2025-12-19T09:48:09Z</time>
      </trkpt>
      <trkpt lat="43.64176" lon="1.08416">
        <ele>160</ele>
        <time>2025-12-19T09:48:10Z</time>
      </trkpt>
      <trkpt lat="43.64179" lon="1.08415">
        <ele>160.4</ele>
        <time>2025-12-19T09:48:11Z</time>
      </trkpt>
      <trkpt lat="43.64182" lon="1.08412">
        <ele>160.6</ele>
        <time>2025-12-19T09:48:12Z</time>
      </trkpt>
      <trkpt lat="43.64184" lon="1.08411">
        <ele>160.8</ele>
        <time>2025-12-19T09:48:13Z</time>
      </trkpt>
      <trkpt lat="43.64187" lon="1.08409">
        <ele>161.2</ele>
        <time>2025-12-19T09:48:14Z</time>
      </trkpt>
      <trkpt lat="43.64189" lon="1.08406">
        <ele>161.4</ele>
        <time>2025-12-19T09:48:15Z</time>
      </trkpt>
      <trkpt lat="43.64192" lon="1.08404">
        <ele>161.6</ele>
        <time>2025-12-19T09:48:16Z</time>
      </trkpt>
      <trkpt lat="43.64194" lon="1.08402">
        <ele>162</ele>
        <time>2025-12-19T09:48:17Z</time>
      </trkpt>
      <trkpt lat="43.64197" lon="1.084">
        <ele>162.2</ele>
        <time>2025-12-19T09:48:18Z</time>
      </trkpt>
      <trkpt lat="43.64199" lon="1.08398">
        <ele>162.4</ele>
        <time>2025-12-19T09:48:19Z</time>
      </trkpt>
      <trkpt lat="43.64202" lon="1.08396">
        <ele>162.8</ele>
        <time>2025-12-19T09:48:20Z</time>
      </trkpt>
      <trkpt lat="43.64204" lon="1.08394">
        <ele>163</ele>
        <time>2025-12-19T09:48:21Z</time>
      </trkpt>
      <trkpt lat="43.64207" lon="1.08392">
        <ele>163.2</ele>
        <time>2025-12-19T09:48:22Z</time>
      </trkpt>
      <trkpt lat="43.6421" lon="1.0839">
        <ele>163.4</ele>
        <time>2025-12-19T09:48:23Z</time>
      </trkpt>
      <trkpt lat="43.64213" lon="1.08389">
        <ele>163.8</ele>
        <time>2025-12-19T09:48:24Z</time>
      </trkpt>
      <trkpt lat="43.64215" lon="1.08386">
        <ele>164</ele>
        <time>2025-12-19T09:48:25Z</time>
      </trkpt>
      <trkpt lat="43.64218" lon="1.08385">
        <ele>164.2</ele>
        <time>2025-12-19T09:48:26Z</time>
      </trkpt>
      <trkpt lat="43.64221" lon="1.08383">
        <ele>164.6</ele>
        <time>2025-12-19T09:48:27Z</time>
      </trkpt>
      <trkpt lat="43.64223" lon="1.0838">
        <ele>164.8</ele>
        <time>2025-12-19T09:48:28Z</time>
      </trkpt>
      <trkpt lat="43.64226" lon="1.08378">
        <ele>165</ele>
        <time>2025-12-19T09:48:29Z</time>
      </trkpt>
      <trkpt lat="43.64229" lon="1.08377">
        <ele>165.2</ele>
        <time>2025-12-19T09:48:30Z</time>
      </trkpt>
      <trkpt lat="43.64232" lon="1.08375">
        <ele>165.4</ele>
        <time>2025-12-19T09:48:31Z</time>
      </trkpt>
      <trkpt lat="43.64234" lon="1.08373">
        <ele>165.6</ele>
        <time>2025-12-19T09:48:32Z</time>
      </trkpt>
      <trkpt lat="43.64237" lon="1.08371">
        <ele>165.8</ele>
        <time>2025-12-19T09:48:33Z</time>
      </trkpt>
      <trkpt lat="43.64239" lon="1.08369">
        <ele>166</ele>
        <time>2025-12-19T09:48:34Z</time>
      </trkpt>
      <trkpt lat="43.64242" lon="1.08367">
        <ele>166.2</ele>
        <time>2025-12-19T09:48:35Z</time>
      </trkpt>
      <trkpt lat="43.64245" lon="1.08364">
        <ele>166.4</ele>
        <time>2025-12-19T09:48:36Z</time>
      </trkpt>
      <trkpt lat="43.64248" lon="1.08362">
        <ele>166.6</ele>
        <time>2025-12-19T09:48:37Z</time>
      </trkpt>
      <trkpt lat="43.6425" lon="1.0836">
        <ele>166.8</ele>
        <time>2025-12-19T09:48:38Z</time>
      </trkpt>
      <trkpt lat="43.64253" lon="1.08357">
        <ele>167</ele>
        <time>2025-12-19T09:48:39Z</time>
      </trkpt>
      <trkpt lat="43.64256" lon="1.08356">
        <ele>167.4</ele>
        <time>2025-12-19T09:48:40Z</time>
      </trkpt>
      <trkpt lat="43.64259" lon="1.08353">
        <ele>167.6</ele>
        <time>2025-12-19T09:48:41Z</time>
      </trkpt>
      <trkpt lat="43.64261" lon="1.08351">
        <ele>167.8</ele>
        <time>2025-12-19T09:48:42Z</time>
      </trkpt>
      <trkpt lat="43.64263" lon="1.08349">
        <ele>168</ele>
        <time>2025-12-19T09:48:43Z</time>
      </trkpt>
      <trkpt lat="43.64265" lon="1.08347">
        <ele>168.2</ele>
        <time>2025-12-19T09:48:44Z</time>
      </trkpt>
      <trkpt lat="43.64267" lon="1.08344">
        <ele>168.4</ele>
        <time>2025-12-19T09:48:45Z</time>
      </trkpt>
      <trkpt lat="43.6427" lon="1.08342">
        <ele>168.6</ele>
        <time>2025-12-19T09:48:46Z</time>
      </trkpt>
      <trkpt lat="43.64272" lon="1.0834">
        <ele>168.8</ele>
        <time>2025-12-19T09:48:47Z</time>
      </trkpt>
      <trkpt lat="43.64275" lon="1.08337">
        <ele>169</ele>
        <time>2025-12-19T09:48:48Z</time>
      </trkpt>
      <trkpt lat="43.64278" lon="1.08335">
        <ele>169.2</ele>
        <time>2025-12-19T09:48:49Z</time>
      </trkpt>
      <trkpt lat="43.6428" lon="1.08332">
        <ele>169.4</ele>
        <time>2025-12-19T09:48:50Z</time>
      </trkpt>
      <trkpt lat="43.64282" lon="1.08329">
        <ele>169.6</ele>
        <time>2025-12-19T09:48:51Z</time>
      </trkpt>
      <trkpt lat="43.64285" lon="1.08327">
        <ele>169.8</ele>
        <time>2025-12-19T09:48:52Z</time>
      </trkpt>
      <trkpt lat="43.64287" lon="1.08324">
        <ele>170.2</ele>
        <time>2025-12-19T09:48:53Z</time>
      </trkpt>
      <trkpt lat="43.64289" lon="1.08322">
        <ele>170.4</ele>
        <time>2025-12-19T09:48:54Z</time>
      </trkpt>
      <trkpt lat="43.64292" lon="1.08319">
        <ele>170.6</ele>
        <time>2025-12-19T09:48:55Z</time>
      </trkpt>
      <trkpt lat="43.64294" lon="1.08316">
        <ele>170.8</ele>
        <time>2025-12-19T09:48:56Z</time>
      </trkpt>
      <trkpt lat="43.64297" lon="1.08314">
        <ele>171</ele>
        <time>2025-12-19T09:48:57Z</time>
      </trkpt>
      <trkpt lat="43.64299" lon="1.08311">
        <ele>171.4</ele>
        <time>2025-12-19T09:48:58Z</time>
      </trkpt>
      <trkpt lat="43.64302" lon="1.08308">
        <ele>171.6</ele>
        <time>2025-12-19T09:48:59Z</time>
      </trkpt>
      <trkpt lat="43.64304" lon="1.08306">
        <ele>171.8</ele>
        <time>2025-12-19T09:49:00Z</time>
      </trkpt>
      <trkpt lat="43.64306" lon="1.08303">
        <ele>172</ele>
        <time>2025-12-19T09:49:01Z</time>
      </trkpt>
      <trkpt lat="43.64309" lon="1.083">
        <ele>172.2</ele>
        <time>2025-12-19T09:49:02Z</time>
      </trkpt>
      <trkpt lat="43.64311" lon="1.08297">
        <ele>172.6</ele>
        <time>2025-12-19T09:49:03Z</time>
      </trkpt>
      <trkpt lat="43.64314" lon="1.08295">
        <ele>172.8</ele>
        <time>2025-12-19T09:49:04Z</time>
      </trkpt>
      <trkpt lat="43.64317" lon="1.08292">
        <ele>173</ele>
        <time>2025-12-19T09:49:05Z</time>
      </trkpt>
      <trkpt lat="43.64319" lon="1.08289">
        <ele>173.2</ele>
        <time>2025-12-19T09:49:06Z</time>
      </trkpt>
      <trkpt lat="43.64321" lon="1.08287">
        <ele>173.4</ele>
        <time>2025-12-19T09:49:07Z</time>
      </trkpt>
      <trkpt lat="43.64324" lon="1.08285">
        <ele>173.6</ele>
        <time>2025-12-19T09:49:08Z</time>
      </trkpt>
      <trkpt lat="43.64326" lon="1.08282">
        <ele>173.8</ele>
        <time>2025-12-19T09:49:09Z</time>
      </trkpt>
      <trkpt lat="43.64328" lon="1.08279">
        <ele>174.2</ele>
        <time>2025-12-19T09:49:10Z</time>
      </trkpt>
      <trkpt lat="43.64331" lon="1.08276">
        <ele>174.4</ele>
        <time>2025-12-19T09:49:11Z</time>
      </trkpt>
      <trkpt lat="43.64333" lon="1.08274">
        <ele>174.6</ele>
        <time>2025-12-19T09:49:12Z</time>
      </trkpt>
      <trkpt lat="43.64335" lon="1.08272">
        <ele>175</ele>
        <time>2025-12-19T09:49:13Z</time>
      </trkpt>
      <trkpt lat="43.64338" lon="1.08269">
        <ele>175.2</ele>
        <time>2025-12-19T09:49:14Z</time>
      </trkpt>
      <trkpt lat="43.6434" lon="1.08267">
        <ele>175.6</ele>
        <time>2025-12-19T09:49:15Z</time>
      </trkpt>
      <trkpt lat="43.64343" lon="1.08265">
        <ele>175.8</ele>
        <time>2025-12-19T09:49:16Z</time>
      </trkpt>
      <trkpt lat="43.64345" lon="1.08262">
        <ele>176.2</ele>
        <time>2025-12-19T09:49:17Z</time>
      </trkpt>
      <trkpt lat="43.64348" lon="1.0826">
        <ele>176.4</ele>
        <time>2025-12-19T09:49:18Z</time>
      </trkpt>
      <trkpt lat="43.6435" lon="1.08258">
        <ele>176.6</ele>
        <time>2025-12-19T09:49:19Z</time>
      </trkpt>
      <trkpt lat="43.64353" lon="1.08257">
        <ele>177</ele>
        <time>2025-12-19T09:49:20Z</time>
      </trkpt>
      <trkpt lat="43.64355" lon="1.08255">
        <ele>177.2</ele>
        <time>2025-12-19T09:49:21Z</time>
      </trkpt>
      <trkpt lat="43.64358" lon="1.08253">
        <ele>177.4</ele>
        <time>2025-12-19T09:49:22Z</time>
      </trkpt>
      <trkpt lat="43.64361" lon="1.08251">
        <ele>177.8</ele>
        <time>2025-12-19T09:49:23Z</time>
      </trkpt>
      <trkpt lat="43.64363" lon="1.08249">
        <ele>178</ele>
        <time>2025-12-19T09:49:24Z</time>
      </trkpt>
      <trkpt lat="43.64366" lon="1.08247">
        <ele>178.4</ele>
        <time>2025-12-19T09:49:25Z</time>
      </trkpt>
      <trkpt lat="43.64369" lon="1.08245">
        <ele>178.6</ele>
        <time>2025-12-19T09:49:26Z</time>
      </trkpt>
      <trkpt lat="43.64372" lon="1.08244">
        <ele>178.8</ele>
        <time>2025-12-19T09:49:27Z</time>
      </trkpt>
      <trkpt lat="43.64375" lon="1.08243">
        <ele>179.2</ele>
        <time>2025-12-19T09:49:28Z</time>
      </trkpt>
      <trkpt lat="43.64377" lon="1.08243">
        <ele>179.4</ele>
        <time>2025-12-19T09:49:29Z</time>
      </trkpt>
      <trkpt lat="43.6438" lon="1.08242">
        <ele>179.8</ele>
        <time>2025-12-19T09:49:30Z</time>
      </trkpt>
      <trkpt lat="43.64383" lon="1.08241">
        <ele>180</ele>
        <time>2025-12-19T09:49:31Z</time>
      </trkpt>
      <trkpt lat="43.64386" lon="1.0824">
        <ele>180.2</ele>
        <time>2025-12-19T09:49:32Z</time>
      </trkpt>
      <trkpt lat="43.64389" lon="1.08239">
        <ele>180.6</ele>
        <time>2025-12-19T09:49:33Z</time>
      </trkpt>
      <trkpt lat="43.64392" lon="1.08238">
        <ele>181</ele>
        <time>2025-12-19T09:49:34Z</time>
      </trkpt>
      <trkpt lat="43.64395" lon="1.08237">
        <ele>181.2</ele>
        <time>2025-12-19T09:49:35Z</time>
      </trkpt>
      <trkpt lat="43.64397" lon="1.08236">
        <ele>181.4</ele>
        <time>2025-12-19T09:49:36Z</time>
      </trkpt>
      <trkpt lat="43.644" lon="1.08234">
        <ele>181.6</ele>
        <time>2025-12-19T09:49:37Z</time>
      </trkpt>
      <trkpt lat="43.64402" lon="1.08232">
        <ele>182</ele>
        <time>2025-12-19T09:49:38Z</time>
      </trkpt>
      <trkpt lat="43.64405" lon="1.0823">
        <ele>182.4</ele>
        <time>2025-12-19T09:49:39Z</time>
      </trkpt>
      <trkpt lat="43.64408" lon="1.08229">
        <ele>182.6</ele>
        <time>2025-12-19T09:49:40Z</time>
      </trkpt>
      <trkpt lat="43.64411" lon="1.08228">
        <ele>182.8</ele>
        <time>2025-12-19T09:49:41Z</time>
      </trkpt>
      <trkpt lat="43.64413" lon="1.08227">
        <ele>183</ele>
        <time>2025-12-19T09:49:42Z</time>
      </trkpt>
      <trkpt lat="43.64416" lon="1.08226">
        <ele>183.4</ele>
        <time>2025-12-19T09:49:43Z</time>
      </trkpt>
      <trkpt lat="43.64419" lon="1.08225">
        <ele>183.6</ele>
        <time>2025-12-19T09:49:44Z</time>
      </trkpt>
      <trkpt lat="43.64422" lon="1.08224">
        <ele>184</ele>
        <time>2025-12-19T09:49:45Z</time>
      </trkpt>
      <trkpt lat="43.64425" lon="1.08223">
        <ele>184.2</ele>
        <time>2025-12-19T09:49:46Z</time>
      </trkpt>
      <trkpt lat="43.64427" lon="1.08221">
        <ele>184.4</ele>
        <time>2025-12-19T09:49:47Z</time>
      </trkpt>
      <trkpt lat="43.6443" lon="1.0822">
        <ele>184.6</ele>
        <time>2025-12-19T09:49:48Z</time>
      </trkpt>
      <trkpt lat="43.64433" lon="1.08219">
        <ele>185</ele>
        <time>2025-12-19T09:49:49Z</time>
      </trkpt>
      <trkpt lat="43.64435" lon="1.08218">
        <ele>185.4</ele>
        <time>2025-12-19T09:49:50Z</time>
      </trkpt>
      <trkpt lat="43.64438" lon="1.08217">
        <ele>185.6</ele>
        <time>2025-12-19T09:49:51Z</time>
      </trkpt>
      <trkpt lat="43.64441" lon="1.08216">
        <ele>186</ele>
        <time>2025-12-19T09:49:52Z</time>
      </trkpt>
      <trkpt lat="43.64444" lon="1.08215">
        <ele>186.2</ele>
        <time>2025-12-19T09:49:53Z</time>
      </trkpt>
      <trkpt lat="43.64446" lon="1.08213">
        <ele>186.4</ele>
        <time>2025-12-19T09:49:54Z</time>
      </trkpt>
      <trkpt lat="43.64448" lon="1.08212">
        <ele>186.8</ele>
        <time>2025-12-19T09:49:55Z</time>
      </trkpt>
      <trkpt lat="43.64451" lon="1.08211">
        <ele>187</ele>
        <time>2025-12-19T09:49:56Z</time>
      </trkpt>
      <trkpt lat="43.64454" lon="1.0821">
        <ele>187.4</ele>
        <time>2025-12-19T09:49:57Z</time>
      </trkpt>
      <trkpt lat="43.64456" lon="1.08209">
        <ele>187.6</ele>
        <time>2025-12-19T09:49:58Z</time>
      </trkpt>
      <trkpt lat="43.64459" lon="1.08208">
        <ele>187.8</ele>
        <time>2025-12-19T09:49:59Z</time>
      </trkpt>
      <trkpt lat="43.64462" lon="1.08207">
        <ele>188.2</ele>
        <time>2025-12-19T09:50:00Z</time>
      </trkpt>
      <trkpt lat="43.64465" lon="1.08206">
        <ele>188.4</ele>
        <time>2025-12-19T09:50:01Z</time>
      </trkpt>
      <trkpt lat="43.64468" lon="1.08205">
        <ele>188.6</ele>
        <time>2025-12-19T09:50:02Z</time>
      </trkpt>
      <trkpt lat="43.64472" lon="1.08204">
        <ele>188.6</ele>
        <time>2025-12-19T09:50:03Z</time>
      </trkpt>
      <trkpt lat="43.64476" lon="1.08203">
        <ele>188.8</ele>
        <time>2025-12-19T09:50:04Z</time>
      </trkpt>
      <trkpt lat="43.64479" lon="1.08203">
        <ele>189</ele>
        <time>2025-12-19T09:50:05Z</time>
      </trkpt>
      <trkpt lat="43.64482" lon="1.08201">
        <ele>189.2</ele>
        <time>2025-12-19T09:50:06Z</time>
      </trkpt>
      <trkpt lat="43.64486" lon="1.08201">
        <ele>189.2</ele>
        <time>2025-12-19T09:50:07Z</time>
      </trkpt>
      <trkpt lat="43.6449" lon="1.082">
        <ele>189.4</ele>
        <time>2025-12-19T09:50:08Z</time>
      </trkpt>
      <trkpt lat="43.64495" lon="1.08199">
        <ele>189.4</ele>
        <time>2025-12-19T09:50:09Z</time>
      </trkpt>
      <trkpt lat="43.645" lon="1.08198">
        <ele>189.4</ele>
        <time>2025-12-19T09:50:10Z</time>
      </trkpt>
      <trkpt lat="43.64504" lon="1.08199">
        <ele>189.2</ele>
        <time>2025-12-19T09:50:11Z</time>
      </trkpt>
      <trkpt lat="43.64509" lon="1.08198">
        <ele>189.2</ele>
        <time>2025-12-19T09:50:12Z</time>
      </trkpt>
      <trkpt lat="43.64514" lon="1.08199">
        <ele>189.2</ele>
        <time>2025-12-19T09:50:13Z</time>
      </trkpt>
      <trkpt lat="43.64519" lon="1.08199">
        <ele>189</ele>
        <time>2025-12-19T09:50:14Z</time>
      </trkpt>
      <trkpt lat="43.64524" lon="1.082">
        <ele>189</ele>
        <time>2025-12-19T09:50:15Z</time>
      </trkpt>
      <trkpt lat="43.64529" lon="1.08201">
        <ele>189</ele>
        <time>2025-12-19T09:50:16Z</time>
      </trkpt>
      <trkpt lat="43.64534" lon="1.08202">
        <ele>188.8</ele>
        <time>2025-12-19T09:50:17Z</time>
      </trkpt>
      <trkpt lat="43.64539" lon="1.08202">
        <ele>188.8</ele>
        <time>2025-12-19T09:50:18Z</time>
      </trkpt>
      <trkpt lat="43.64544" lon="1.08203">
        <ele>188.8</ele>
        <time>2025-12-19T09:50:19Z</time>
      </trkpt>
      <trkpt lat="43.64549" lon="1.08204">
        <ele>189</ele>
        <time>2025-12-19T09:50:20Z</time>
      </trkpt>
      <trkpt lat="43.64554" lon="1.08205">
        <ele>189</ele>
        <time>2025-12-19T09:50:21Z</time>
      </trkpt>
      <trkpt lat="43.64558" lon="1.08205">
        <ele>189.2</ele>
        <time>2025-12-19T09:50:22Z</time>
      </trkpt>
      <trkpt lat="43.64563" lon="1.08206">
        <ele>189.2</ele>
        <time>2025-12-19T09:50:23Z</time>
      </trkpt>
      <trkpt lat="43.64568" lon="1.08207">
        <ele>189.4</ele>
        <time>2025-12-19T09:50:24Z</time>
      </trkpt>
      <trkpt lat="43.64572" lon="1.08208">
        <ele>189.4</ele>
        <time>2025-12-19T09:50:25Z</time>
      </trkpt>
      <trkpt lat="43.64577" lon="1.08209">
        <ele>189.6</ele>
        <time>2025-12-19T09:50:26Z</time>
      </trkpt>
      <trkpt lat="43.64581" lon="1.0821">
        <ele>189.8</ele>
        <time>2025-12-19T09:50:27Z</time>
      </trkpt>
      <trkpt lat="43.64586" lon="1.08211">
        <ele>189.8</ele>
        <time>2025-12-19T09:50:28Z</time>
      </trkpt>
      <trkpt lat="43.6459" lon="1.08212">
        <ele>189.8</ele>
        <time>2025-12-19T09:50:29Z</time>
      </trkpt>
      <trkpt lat="43.64595" lon="1.08213">
        <ele>190</ele>
        <time>2025-12-19T09:50:30Z</time>
      </trkpt>
      <trkpt lat="43.64599" lon="1.08214">
        <ele>190.2</ele>
        <time>2025-12-19T09:50:31Z</time>
      </trkpt>
      <trkpt lat="43.64604" lon="1.08215">
        <ele>190.4</ele>
        <time>2025-12-19T09:50:32Z</time>
      </trkpt>
      <trkpt lat="43.64608" lon="1.08216">
        <ele>190.6</ele>
        <time>2025-12-19T09:50:33Z</time>
      </trkpt>
      <trkpt lat="43.64612" lon="1.08217">
        <ele>190.8</ele>
        <time>2025-12-19T09:50:34Z</time>
      </trkpt>
      <trkpt lat="43.64616" lon="1.08218">
        <ele>191</ele>
        <time>2025-12-19T09:50:35Z</time>
      </trkpt>
      <trkpt lat="43.64621" lon="1.08219">
        <ele>191.2</ele>
        <time>2025-12-19T09:50:36Z</time>
      </trkpt>
      <trkpt lat="43.64625" lon="1.08219">
        <ele>191.4</ele>
        <time>2025-12-19T09:50:37Z</time>
      </trkpt>
      <trkpt lat="43.64629" lon="1.0822">
        <ele>191.6</ele>
        <time>2025-12-19T09:50:38Z</time>
      </trkpt>
      <trkpt lat="43.64633" lon="1.0822">
        <ele>191.8</ele>
        <time>2025-12-19T09:50:39Z</time>
      </trkpt>
      <trkpt lat="43.64637" lon="1.0822">
        <ele>192.2</ele>
        <time>2025-12-19T09:50:40Z</time>
      </trkpt>
      <trkpt lat="43.64641" lon="1.0822">
        <ele>192.4</ele>
        <time>2025-12-19T09:50:41Z</time>
      </trkpt>
      <trkpt lat="43.64645" lon="1.08219">
        <ele>192.6</ele>
        <time>2025-12-19T09:50:42Z</time>
      </trkpt>
      <trkpt lat="43.64649" lon="1.08217">
        <ele>192.8</ele>
        <time>2025-12-19T09:50:43Z</time>
      </trkpt>
      <trkpt lat="43.64653" lon="1.08215">
        <ele>193.2</ele>
        <time>2025-12-19T09:50:44Z</time>
      </trkpt>
      <trkpt lat="43.64656" lon="1.08212">
        <ele>193.4</ele>
        <time>2025-12-19T09:50:45Z</time>
      </trkpt>
      <trkpt lat="43.6466" lon="1.08209">
        <ele>193.6</ele>
        <time>2025-12-19T09:50:46Z</time>
      </trkpt>
      <trkpt lat="43.64663" lon="1.08205">
        <ele>194</ele>
        <time>2025-12-19T09:50:47Z</time>
      </trkpt>
      <trkpt lat="43.64666" lon="1.08201">
        <ele>194.2</ele>
        <time>2025-12-19T09:50:48Z</time>
      </trkpt>
      <trkpt lat="43.64668" lon="1.08198">
        <ele>194.6</ele>
        <time>2025-12-19T09:50:49Z</time>
      </trkpt>
      <trkpt lat="43.64671" lon="1.08194">
        <ele>194.8</ele>
        <time>2025-12-19T09:50:50Z</time>
      </trkpt>
      <trkpt lat="43.64673" lon="1.08191">
        <ele>195</ele>
        <time>2025-12-19T09:50:51Z</time>
      </trkpt>
      <trkpt lat="43.64675" lon="1.08187">
        <ele>195.2</ele>
        <time>2025-12-19T09:50:52Z</time>
      </trkpt>
      <trkpt lat="43.64677" lon="1.08183">
        <ele>195.6</ele>
        <time>2025-12-19T09:50:53Z</time>
      </trkpt>
      <trkpt lat="43.6468" lon="1.08179">
        <ele>196</ele>
        <time>2025-12-19T09:50:54Z</time>
      </trkpt>
      <trkpt lat="43.64682" lon="1.08174">
        <ele>196.2</ele>
        <time>2025-12-19T09:50:55Z</time>
      </trkpt>
      <trkpt lat="43.64684" lon="1.0817">
        <ele>196.4</ele>
        <time>2025-12-19T09:50:56Z</time>
      </trkpt>
      <trkpt lat="43.64686" lon="1.08166">
        <ele>196.8</ele>
        <time>2025-12-19T09:50:57Z</time>
      </trkpt>
      <trkpt lat="43.64688" lon="1.08162">
        <ele>197</ele>
        <time>2025-12-19T09:50:58Z</time>
      </trkpt>
      <trkpt lat="43.64691" lon="1.08158">
        <ele>197.2</ele>
        <time>2025-12-19T09:50:59Z</time>
      </trkpt>
      <trkpt lat="43.64693" lon="1.08154">
        <ele>197.6</ele>
        <time>2025-12-19T09:51:00Z</time>
      </trkpt>
      <trkpt lat="43.64695" lon="1.0815">
        <ele>197.8</ele>
        <time>2025-12-19T09:51:01Z</time>
      </trkpt>
      <trkpt lat="43.64697" lon="1.08146">
        <ele>198.2</ele>
        <time>2025-12-19T09:51:02Z</time>
      </trkpt>
      <trkpt lat="43.64699" lon="1.08141">
        <ele>198.4</ele>
        <time>2025-12-19T09:51:03Z</time>
      </trkpt>
      <trkpt lat="43.64702" lon="1.08137">
        <ele>198.6</ele>
        <time>2025-12-19T09:51:04Z</time>
      </trkpt>
      <trkpt lat="43.64704" lon="1.08133">
        <ele>199</ele>
        <time>2025-12-19T09:51:05Z</time>
      </trkpt>
      <trkpt lat="43.64706" lon="1.08129">
        <ele>199.2</ele>
        <time>2025-12-19T09:51:06Z</time>
      </trkpt>
      <trkpt lat="43.64708" lon="1.08126">
        <ele>199.6</ele>
        <time>2025-12-19T09:51:07Z</time>
      </trkpt>
      <trkpt lat="43.64711" lon="1.08122">
        <ele>199.8</ele>
        <time>2025-12-19T09:51:08Z</time>
      </trkpt>
      <trkpt lat="43.64713" lon="1.08118">
        <ele>200.2</ele>
        <time>2025-12-19T09:51:09Z</time>
      </trkpt>
      <trkpt lat="43.64716" lon="1.08114">
        <ele>200.4</ele>
        <time>2025-12-19T09:51:10Z</time>
      </trkpt>
      <trkpt lat="43.64718" lon="1.0811">
        <ele>200.8</ele>
        <time>2025-12-19T09:51:11Z</time>
      </trkpt>
      <trkpt lat="43.6472" lon="1.08106">
        <ele>201</ele>
        <time>2025-12-19T09:51:12Z</time>
      </trkpt>
      <trkpt lat="43.64723" lon="1.08102">
        <ele>201.2</ele>
        <time>2025-12-19T09:51:13Z</time>
      </trkpt>
      <trkpt lat="43.64725" lon="1.08099">
        <ele>201.6</ele>
        <time>2025-12-19T09:51:14Z</time>
      </trkpt>
      <trkpt lat="43.64728" lon="1.08095">
        <ele>201.8</ele>
        <time>2025-12-19T09:51:15Z</time>
      </trkpt>
      <trkpt lat="43.64731" lon="1.08092">
        <ele>202.2</ele>
        <time>2025-12-19T09:51:16Z</time>
      </trkpt>
      <trkpt lat="43.64733" lon="1.08087">
        <ele>202.4</ele>
        <time>2025-12-19T09:51:17Z</time>
      </trkpt>
      <trkpt lat="43.64736" lon="1.08083">
        <ele>202.8</ele>
        <time>2025-12-19T09:51:18Z</time>
      </trkpt>
      <trkpt lat="43.64738" lon="1.08079">
        <ele>203</ele>
        <time>2025-12-19T09:51:19Z</time>
      </trkpt>
      <trkpt lat="43.64741" lon="1.08075">
        <ele>203.2</ele>
        <time>2025-12-19T09:51:20Z</time>
      </trkpt>
      <trkpt lat="43.64744" lon="1.08072">
        <ele>203.6</ele>
        <time>2025-12-19T09:51:21Z</time>
      </trkpt>
      <trkpt lat="43.64746" lon="1.08068">
        <ele>203.8</ele>
        <time>2025-12-19T09:51:22Z</time>
      </trkpt>
      <trkpt lat="43.64749" lon="1.08064">
        <ele>204</ele>
        <time>2025-12-19T09:51:23Z</time>
      </trkpt>
      <trkpt lat="43.64752" lon="1.0806">
        <ele>204.4</ele>
        <time>2025-12-19T09:51:24Z</time>
      </trkpt>
      <trkpt lat="43.64755" lon="1.08056">
        <ele>204.6</ele>
        <time>2025-12-19T09:51:25Z</time>
      </trkpt>
      <trkpt lat="43.64757" lon="1.08053">
        <ele>204.8</ele>
        <time>2025-12-19T09:51:26Z</time>
      </trkpt>
      <trkpt lat="43.64759" lon="1.08049">
        <ele>205.2</ele>
        <time>2025-12-19T09:51:27Z</time>
      </trkpt>
      <trkpt lat="43.64762" lon="1.08045">
        <ele>205.4</ele>
        <time>2025-12-19T09:51:28Z</time>
      </trkpt>
      <trkpt lat="43.64765" lon="1.08041">
        <ele>205.8</ele>
        <time>2025-12-19T09:51:29Z</time>
      </trkpt>
      <trkpt lat="43.64767" lon="1.08038">
        <ele>206</ele>
        <time>2025-12-19T09:51:30Z</time>
      </trkpt>
      <trkpt lat="43.64769" lon="1.08034">
        <ele>206.2</ele>
        <time>2025-12-19T09:51:31Z</time>
      </trkpt>
      <trkpt lat="43.64772" lon="1.08031">
        <ele>206.6</ele>
        <time>2025-12-19T09:51:32Z</time>
      </trkpt>
      <trkpt lat="43.64774" lon="1.08027">
        <ele>206.8</ele>
        <time>2025-12-19T09:51:33Z</time>
      </trkpt>
      <trkpt lat="43.64777" lon="1.08024">
        <ele>207</ele>
        <time>2025-12-19T09:51:34Z</time>
      </trkpt>
      <trkpt lat="43.64779" lon="1.0802">
        <ele>207.2</ele>
        <time>2025-12-19T09:51:35Z</time>
      </trkpt>
      <trkpt lat="43.64782" lon="1.08016">
        <ele>207.4</ele>
        <time>2025-12-19T09:51:36Z</time>
      </trkpt>
      <trkpt lat="43.64785" lon="1.08012">
        <ele>207.6</ele>
        <time>2025-12-19T09:51:37Z</time>
      </trkpt>
      <trkpt lat="43.64787" lon="1.08008">
        <ele>207.8</ele>
        <time>2025-12-19T09:51:38Z</time>
      </trkpt>
      <trkpt lat="43.6479" lon="1.08004">
        <ele>207.8</ele>
        <time>2025-12-19T09:51:39Z</time>
      </trkpt>
      <trkpt lat="43.64793" lon="1.07999">
        <ele>208</ele>
        <time>2025-12-19T09:51:40Z</time>
      </trkpt>
      <trkpt lat="43.64795" lon="1.07995">
        <ele>208.2</ele>
        <time>2025-12-19T09:51:41Z</time>
      </trkpt>
      <trkpt lat="43.64798" lon="1.07991">
        <ele>208.2</ele>
        <time>2025-12-19T09:51:42Z</time>
      </trkpt>
      <trkpt lat="43.64801" lon="1.07986">
        <ele>208.4</ele>
        <time>2025-12-19T09:51:43Z</time>
      </trkpt>
      <trkpt lat="43.64804" lon="1.07982">
        <ele>208.4</ele>
        <time>2025-12-19T09:51:44Z</time>
      </trkpt>
      <trkpt lat="43.64807" lon="1.07978">
        <ele>208.6</ele>
        <time>2025-12-19T09:51:45Z</time>
      </trkpt>
      <trkpt lat="43.6481" lon="1.07974">
        <ele>208.6</ele>
        <time>2025-12-19T09:51:46Z</time>
      </trkpt>
      <trkpt lat="43.64813" lon="1.0797">
        <ele>208.6</ele>
        <time>2025-12-19T09:51:47Z</time>
      </trkpt>
      <trkpt lat="43.64816" lon="1.07965">
        <ele>208.6</ele>
        <time>2025-12-19T09:51:48Z</time>
      </trkpt>
      <trkpt lat="43.6482" lon="1.0796">
        <ele>208.4</ele>
        <time>2025-12-19T09:51:49Z</time>
      </trkpt>
      <trkpt lat="43.64823" lon="1.07956">
        <ele>208.4</ele>
        <time>2025-12-19T09:51:50Z</time>
      </trkpt>
      <trkpt lat="43.64826" lon="1.07951">
        <ele>208.4</ele>
        <time>2025-12-19T09:51:51Z</time>
      </trkpt>
      <trkpt lat="43.64829" lon="1.07947">
        <ele>208.4</ele>
        <time>2025-12-19T09:51:52Z</time>
      </trkpt>
      <trkpt lat="43.64833" lon="1.07942">
        <ele>208.2</ele>
        <time>2025-12-19T09:51:53Z</time>
      </trkpt>
      <trkpt lat="43.64836" lon="1.07938">
        <ele>208.2</ele>
        <time>2025-12-19T09:51:54Z</time>
      </trkpt>
      <trkpt lat="43.64839" lon="1.07933">
        <ele>208</ele>
        <time>2025-12-19T09:51:55Z</time>
      </trkpt>
      <trkpt lat="43.64843" lon="1.07928">
        <ele>207.8</ele>
        <time>2025-12-19T09:51:56Z</time>
      </trkpt>
      <trkpt lat="43.64847" lon="1.07924">
        <ele>207.8</ele>
        <time>2025-12-19T09:51:57Z</time>
      </trkpt>
      <trkpt lat="43.64851" lon="1.07919">
        <ele>207.6</ele>
        <time>2025-12-19T09:51:58Z</time>
      </trkpt>
      <trkpt lat="43.64855" lon="1.07914">
        <ele>207.4</ele>
        <time>2025-12-19T09:51:59Z</time>
      </trkpt>
      <trkpt lat="43.64859" lon="1.07908">
        <ele>207.2</ele>
        <time>2025-12-19T09:52:00Z</time>
      </trkpt>
      <trkpt lat="43.64863" lon="1.07903">
        <ele>207.2</ele>
        <time>2025-12-19T09:52:01Z</time>
      </trkpt>
      <trkpt lat="43.64868" lon="1.07897">
        <ele>207</ele>
        <time>2025-12-19T09:52:02Z</time>
      </trkpt>
      <trkpt lat="43.64872" lon="1.07891">
        <ele>206.8</ele>
        <time>2025-12-19T09:52:03Z</time>
      </trkpt>
      <trkpt lat="43.64876" lon="1.07885">
        <ele>206.6</ele>
        <time>2025-12-19T09:52:04Z</time>
      </trkpt>
      <trkpt lat="43.6488" lon="1.07879">
        <ele>206.2</ele>
        <time>2025-12-19T09:52:05Z</time>
      </trkpt>
      <trkpt lat="43.64885" lon="1.07873">
        <ele>205.8</ele>
        <time>2025-12-19T09:52:06Z</time>
      </trkpt>
      <trkpt lat="43.6489" lon="1.07867">
        <ele>205.8</ele>
        <time>2025-12-19T09:52:07Z</time>
      </trkpt>
      <trkpt lat="43.64895" lon="1.07861">
        <ele>205.4</ele>
        <time>2025-12-19T09:52:08Z</time>
      </trkpt>
      <trkpt lat="43.64901" lon="1.07856">
        <ele>205.2</ele>
        <time>2025-12-19T09:52:09Z</time>
      </trkpt>
      <trkpt lat="43.64907" lon="1.07851">
        <ele>204.8</ele>
        <time>2025-12-19T09:52:10Z</time>
      </trkpt>
      <trkpt lat="43.64914" lon="1.07847">
        <ele>204.4</ele>
        <time>2025-12-19T09:52:11Z</time>
      </trkpt>
      <trkpt lat="43.64921" lon="1.07843">
        <ele>203.8</ele>
        <time>2025-12-19T09:52:12Z</time>
      </trkpt>
      <trkpt lat="43.64929" lon="1.07841">
        <ele>203</ele>
        <time>2025-12-19T09:52:13Z</time>
      </trkpt>
      <trkpt lat="43.64938" lon="1.07839">
        <ele>202.4</ele>
        <time>2025-12-19T09:52:14Z</time>
      </trkpt>
      <trkpt lat="43.64946" lon="1.0784">
        <ele>201.6</ele>
        <time>2025-12-19T09:52:15Z</time>
      </trkpt>
      <trkpt lat="43.64955" lon="1.07842">
        <ele>201.2</ele>
        <time>2025-12-19T09:52:16Z</time>
      </trkpt>
      <trkpt lat="43.64963" lon="1.07845">
        <ele>200.2</ele>
        <time>2025-12-19T09:52:17Z</time>
      </trkpt>
      <trkpt lat="43.64971" lon="1.07849">
        <ele>199.8</ele>
        <time>2025-12-19T09:52:18Z</time>
      </trkpt>
      <trkpt lat="43.64978" lon="1.07854">
        <ele>199.6</ele>
        <time>2025-12-19T09:52:19Z</time>
      </trkpt>
      <trkpt lat="43.64985" lon="1.0786">
        <ele>199.4</ele>
        <time>2025-12-19T09:52:20Z</time>
      </trkpt>
      <trkpt lat="43.64991" lon="1.07866">
        <ele>199.2</ele>
        <time>2025-12-19T09:52:21Z</time>
      </trkpt>
      <trkpt lat="43.64996" lon="1.07873">
        <ele>199.4</ele>
        <time>2025-12-19T09:52:22Z</time>
      </trkpt>
      <trkpt lat="43.65002" lon="1.07879">
        <ele>199.4</ele>
        <time>2025-12-19T09:52:23Z</time>
      </trkpt>
      <trkpt lat="43.65007" lon="1.07884">
        <ele>199.6</ele>
        <time>2025-12-19T09:52:24Z</time>
      </trkpt>
      <trkpt lat="43.65012" lon="1.0789">
        <ele>199.8</ele>
        <time>2025-12-19T09:52:25Z</time>
      </trkpt>
      <trkpt lat="43.65017" lon="1.07895">
        <ele>200</ele>
        <time>2025-12-19T09:52:26Z</time>
      </trkpt>
      <trkpt lat="43.65022" lon="1.079">
        <ele>200.2</ele>
        <time>2025-12-19T09:52:27Z</time>
      </trkpt>
      <trkpt lat="43.65027" lon="1.07906">
        <ele>200.4</ele>
        <time>2025-12-19T09:52:28Z</time>
      </trkpt>
      <trkpt lat="43.65032" lon="1.07911">
        <ele>200.8</ele>
        <time>2025-12-19T09:52:29Z</time>
      </trkpt>
      <trkpt lat="43.65037" lon="1.07916">
        <ele>200.8</ele>
        <time>2025-12-19T09:52:30Z</time>
      </trkpt>
      <trkpt lat="43.65042" lon="1.07921">
        <ele>201.2</ele>
        <time>2025-12-19T09:52:31Z</time>
      </trkpt>
      <trkpt lat="43.65047" lon="1.07926">
        <ele>201.4</ele>
        <time>2025-12-19T09:52:32Z</time>
      </trkpt>
      <trkpt lat="43.65052" lon="1.07931">
        <ele>201.6</ele>
        <time>2025-12-19T09:52:33Z</time>
      </trkpt>
      <trkpt lat="43.65057" lon="1.07936">
        <ele>202</ele>
        <time>2025-12-19T09:52:34Z</time>
      </trkpt>
      <trkpt lat="43.65062" lon="1.0794">
        <ele>202.2</ele>
        <time>2025-12-19T09:52:35Z</time>
      </trkpt>
      <trkpt lat="43.65068" lon="1.07945">
        <ele>202.2</ele>
        <time>2025-12-19T09:52:36Z</time>
      </trkpt>
      <trkpt lat="43.65073" lon="1.07949">
        <ele>202.2</ele>
        <time>2025-12-19T09:52:37Z</time>
      </trkpt>
      <trkpt lat="43.65079" lon="1.07953">
        <ele>202.2</ele>
        <time>2025-12-19T09:52:38Z</time>
      </trkpt>
      <trkpt lat="43.65085" lon="1.07958">
        <ele>202.2</ele>
        <time>2025-12-19T09:52:39Z</time>
      </trkpt>
      <trkpt lat="43.65091" lon="1.07962">
        <ele>202.2</ele>
        <time>2025-12-19T09:52:40Z</time>
      </trkpt>
      <trkpt lat="43.65097" lon="1.07966">
        <ele>202.2</ele>
        <time>2025-12-19T09:52:41Z</time>
      </trkpt>
      <trkpt lat="43.65102" lon="1.0797">
        <ele>202.2</ele>
        <time>2025-12-19T09:52:42Z</time>
      </trkpt>
      <trkpt lat="43.65109" lon="1.07974">
        <ele>202.2</ele>
        <time>2025-12-19T09:52:43Z</time>
      </trkpt>
      <trkpt lat="43.65115" lon="1.07979">
        <ele>202</ele>
        <time>2025-12-19T09:52:44Z</time>
      </trkpt>
      <trkpt lat="43.65121" lon="1.07983">
        <ele>202</ele>
        <time>2025-12-19T09:52:45Z</time>
      </trkpt>
      <trkpt lat="43.65127" lon="1.07987">
        <ele>202</ele>
        <time>2025-12-19T09:52:46Z</time>
      </trkpt>
      <trkpt lat="43.65134" lon="1.07992">
        <ele>202</ele>
        <time>2025-12-19T09:52:47Z</time>
      </trkpt>
      <trkpt lat="43.6514" lon="1.07997">
        <ele>202</ele>
        <time>2025-12-19T09:52:48Z</time>
      </trkpt>
      <trkpt lat="43.65146" lon="1.08001">
        <ele>202</ele>
        <time>2025-12-19T09:52:49Z</time>
      </trkpt>
      <trkpt lat="43.65153" lon="1.08006">
        <ele>202</ele>
        <time>2025-12-19T09:52:50Z</time>
      </trkpt>
      <trkpt lat="43.65159" lon="1.08011">
        <ele>202</ele>
        <time>2025-12-19T09:52:51Z</time>
      </trkpt>
      <trkpt lat="43.65165" lon="1.08015">
        <ele>202</ele>
        <time>2025-12-19T09:52:52Z</time>
      </trkpt>
      <trkpt lat="43.65172" lon="1.0802">
        <ele>201.8</ele>
        <time>2025-12-19T09:52:53Z</time>
      </trkpt>
      <trkpt lat="43.65178" lon="1.08024">
        <ele>202</ele>
        <time>2025-12-19T09:52:54Z</time>
      </trkpt>
      <trkpt lat="43.65184" lon="1.08028">
        <ele>202</ele>
        <time>2025-12-19T09:52:55Z</time>
      </trkpt>
      <trkpt lat="43.6519" lon="1.08032">
        <ele>202</ele>
        <time>2025-12-19T09:52:56Z</time>
      </trkpt>
      <trkpt lat="43.65196" lon="1.08036">
        <ele>202</ele>
        <time>2025-12-19T09:52:57Z</time>
      </trkpt>
      <trkpt lat="43.65202" lon="1.08041">
        <ele>202.2</ele>
        <time>2025-12-19T09:52:58Z</time>
      </trkpt>
      <trkpt lat="43.65208" lon="1.08045">
        <ele>202.4</ele>
        <time>2025-12-19T09:52:59Z</time>
      </trkpt>
      <trkpt lat="43.65213" lon="1.0805">
        <ele>202.6</ele>
        <time>2025-12-19T09:53:00Z</time>
      </trkpt>
      <trkpt lat="43.65219" lon="1.08054">
        <ele>202.8</ele>
        <time>2025-12-19T09:53:01Z</time>
      </trkpt>
      <trkpt lat="43.65224" lon="1.08057">
        <ele>203</ele>
        <time>2025-12-19T09:53:02Z</time>
      </trkpt>
      <trkpt lat="43.65229" lon="1.0806">
        <ele>203.2</ele>
        <time>2025-12-19T09:53:03Z</time>
      </trkpt>
      <trkpt lat="43.65233" lon="1.08064">
        <ele>203.4</ele>
        <time>2025-12-19T09:53:04Z</time>
      </trkpt>
      <trkpt lat="43.65238" lon="1.08067">
        <ele>203.4</ele>
        <time>2025-12-19T09:53:05Z</time>
      </trkpt>
      <trkpt lat="43.65243" lon="1.08071">
        <ele>203.4</ele>
        <time>2025-12-19T09:53:06Z</time>
      </trkpt>
      <trkpt lat="43.65249" lon="1.08074">
        <ele>203.4</ele>
        <time>2025-12-19T09:53:07Z</time>
      </trkpt>
      <trkpt lat="43.65255" lon="1.08078">
        <ele>203.2</ele>
        <time>2025-12-19T09:53:08Z</time>
      </trkpt>
      <trkpt lat="43.65262" lon="1.08081">
        <ele>202.8</ele>
        <time>2025-12-19T09:53:09Z</time>
      </trkpt>
      <trkpt lat="43.65268" lon="1.08086">
        <ele>202.4</ele>
        <time>2025-12-19T09:53:10Z</time>
      </trkpt>
      <trkpt lat="43.65275" lon="1.0809">
        <ele>202</ele>
        <time>2025-12-19T09:53:11Z</time>
      </trkpt>
      <trkpt lat="43.65282" lon="1.08095">
        <ele>201.6</ele>
        <time>2025-12-19T09:53:12Z</time>
      </trkpt>
      <trkpt lat="43.65289" lon="1.081">
        <ele>201</ele>
        <time>2025-12-19T09:53:13Z</time>
      </trkpt>
      <trkpt lat="43.65297" lon="1.08105">
        <ele>200.2</ele>
        <time>2025-12-19T09:53:14Z</time>
      </trkpt>
      <trkpt lat="43.65305" lon="1.08109">
        <ele>199.6</ele>
        <time>2025-12-19T09:53:15Z</time>
      </trkpt>
      <trkpt lat="43.65313" lon="1.08115">
        <ele>199</ele>
        <time>2025-12-19T09:53:16Z</time>
      </trkpt>
      <trkpt lat="43.65321" lon="1.0812">
        <ele>198.4</ele>
        <time>2025-12-19T09:53:17Z</time>
      </trkpt>
      <trkpt lat="43.65329" lon="1.08126">
        <ele>197.8</ele>
        <time>2025-12-19T09:53:18Z</time>
      </trkpt>
      <trkpt lat="43.65338" lon="1.08131">
        <ele>197.2</ele>
        <time>2025-12-19T09:53:19Z</time>
      </trkpt>
      <trkpt lat="43.65346" lon="1.08137">
        <ele>196.4</ele>
        <time>2025-12-19T09:53:20Z</time>
      </trkpt>
      <trkpt lat="43.65355" lon="1.08142">
        <ele>195.8</ele>
        <time>2025-12-19T09:53:21Z</time>
      </trkpt>
      <trkpt lat="43.65364" lon="1.08148">
        <ele>195.2</ele>
        <time>2025-12-19T09:53:22Z</time>
      </trkpt>
      <trkpt lat="43.65372" lon="1.08154">
        <ele>194.6</ele>
        <time>2025-12-19T09:53:23Z</time>
      </trkpt>
      <trkpt lat="43.65381" lon="1.08161">
        <ele>194</ele>
        <time>2025-12-19T09:53:24Z</time>
      </trkpt>
      <trkpt lat="43.6539" lon="1.08166">
        <ele>193.2</ele>
        <time>2025-12-19T09:53:25Z</time>
      </trkpt>
      <trkpt lat="43.654" lon="1.08171">
        <ele>192.6</ele>
        <time>2025-12-19T09:53:26Z</time>
      </trkpt>
      <trkpt lat="43.6541" lon="1.08174">
        <ele>192</ele>
        <time>2025-12-19T09:53:27Z</time>
      </trkpt>
      <trkpt lat="43.65419" lon="1.08176">
        <ele>191.6</ele>
        <time>2025-12-19T09:53:28Z</time>
      </trkpt>
      <trkpt lat="43.65429" lon="1.08176">
        <ele>191.2</ele>
        <time>2025-12-19T09:53:29Z</time>
      </trkpt>
      <trkpt lat="43.65438" lon="1.08175">
        <ele>191</ele>
        <time>2025-12-19T09:53:30Z</time>
      </trkpt>
      <trkpt lat="43.65447" lon="1.08174">
        <ele>190.8</ele>
        <time>2025-12-19T09:53:31Z</time>
      </trkpt>
      <trkpt lat="43.65457" lon="1.08173">
        <ele>190.6</ele>
        <time>2025-12-19T09:53:32Z</time>
      </trkpt>
      <trkpt lat="43.65466" lon="1.08172">
        <ele>190.4</ele>
        <time>2025-12-19T09:53:33Z</time>
      </trkpt>
      <trkpt lat="43.65475" lon="1.0817">
        <ele>190.2</ele>
        <time>2025-12-19T09:53:34Z</time>
      </trkpt>
      <trkpt lat="43.65484" lon="1.08169">
        <ele>190</ele>
        <time>2025-12-19T09:53:35Z</time>
      </trkpt>
      <trkpt lat="43.65492" lon="1.08167">
        <ele>189.6</ele>
        <time>2025-12-19T09:53:36Z</time>
      </trkpt>
      <trkpt lat="43.65501" lon="1.08166">
        <ele>189.6</ele>
        <time>2025-12-19T09:53:37Z</time>
      </trkpt>
      <trkpt lat="43.6551" lon="1.08166">
        <ele>189.4</ele>
        <time>2025-12-19T09:53:38Z</time>
      </trkpt>
      <trkpt lat="43.65519" lon="1.08167">
        <ele>189.2</ele>
        <time>2025-12-19T09:53:39Z</time>
      </trkpt>
      <trkpt lat="43.65527" lon="1.08169">
        <ele>189</ele>
        <time>2025-12-19T09:53:40Z</time>
      </trkpt>
      <trkpt lat="43.65535" lon="1.08174">
        <ele>189</ele>
        <time>2025-12-19T09:53:41Z</time>
      </trkpt>
      <trkpt lat="43.65542" lon="1.08181">
        <ele>188.6</ele>
        <time>2025-12-19T09:53:42Z</time>
      </trkpt>
      <trkpt lat="43.65548" lon="1.08189">
        <ele>188.2</ele>
        <time>2025-12-19T09:53:43Z</time>
      </trkpt>
      <trkpt lat="43.65554" lon="1.08198">
        <ele>188</ele>
        <time>2025-12-19T09:53:44Z</time>
      </trkpt>
      <trkpt lat="43.6556" lon="1.08207">
        <ele>187.6</ele>
        <time>2025-12-19T09:53:45Z</time>
      </trkpt>
      <trkpt lat="43.65565" lon="1.08216">
        <ele>187</ele>
        <time>2025-12-19T09:53:46Z</time>
      </trkpt>
      <trkpt lat="43.65571" lon="1.08226">
        <ele>186.4</ele>
        <time>2025-12-19T09:53:47Z</time>
      </trkpt>
      <trkpt lat="43.65577" lon="1.08236">
        <ele>186</ele>
        <time>2025-12-19T09:53:48Z</time>
      </trkpt>
      <trkpt lat="43.65583" lon="1.08246">
        <ele>185.4</ele>
        <time>2025-12-19T09:53:49Z</time>
      </trkpt>
      <trkpt lat="43.65589" lon="1.08256">
        <ele>184.8</ele>
        <time>2025-12-19T09:53:50Z</time>
      </trkpt>
      <trkpt lat="43.65595" lon="1.08267">
        <ele>184.2</ele>
        <time>2025-12-19T09:53:51Z</time>
      </trkpt>
      <trkpt lat="43.65602" lon="1.08277">
        <ele>183.6</ele>
        <time>2025-12-19T09:53:52Z</time>
      </trkpt>
      <trkpt lat="43.65609" lon="1.08288">
        <ele>183</ele>
        <time>2025-12-19T09:53:53Z</time>
      </trkpt>
      <trkpt lat="43.65615" lon="1.08299">
        <ele>182.2</ele>
        <time>2025-12-19T09:53:54Z</time>
      </trkpt>
      <trkpt lat="43.65622" lon="1.08309">
        <ele>181.6</ele>
        <time>2025-12-19T09:53:55Z</time>
      </trkpt>
      <trkpt lat="43.65629" lon="1.0832">
        <ele>180.6</ele>
        <time>2025-12-19T09:53:56Z</time>
      </trkpt>
      <trkpt lat="43.65636" lon="1.08331">
        <ele>179.6</ele>
        <time>2025-12-19T09:53:57Z</time>
      </trkpt>
      <trkpt lat="43.65643" lon="1.08343">
        <ele>178.8</ele>
        <time>2025-12-19T09:53:58Z</time>
      </trkpt>
      <trkpt lat="43.6565" lon="1.08355">
        <ele>178</ele>
        <time>2025-12-19T09:53:59Z</time>
      </trkpt>
      <trkpt lat="43.65657" lon="1.08367">
        <ele>177</ele>
        <time>2025-12-19T09:54:00Z</time>
      </trkpt>
      <trkpt lat="43.65665" lon="1.08379">
        <ele>176.2</ele>
        <time>2025-12-19T09:54:01Z</time>
      </trkpt>
      <trkpt lat="43.65673" lon="1.08392">
        <ele>175.2</ele>
        <time>2025-12-19T09:54:02Z</time>
      </trkpt>
      <trkpt lat="43.6568" lon="1.08405">
        <ele>174.2</ele>
        <time>2025-12-19T09:54:03Z</time>
      </trkpt>
      <trkpt lat="43.65689" lon="1.08416">
        <ele>173</ele>
        <time>2025-12-19T09:54:04Z</time>
      </trkpt>
      <trkpt lat="43.65699" lon="1.08425">
        <ele>172</ele>
        <time>2025-12-19T09:54:05Z</time>
      </trkpt>
      <trkpt lat="43.6571" lon="1.08431">
        <ele>171.2</ele>
        <time>2025-12-19T09:54:06Z</time>
      </trkpt>
      <trkpt lat="43.65722" lon="1.08435">
        <ele>170.2</ele>
        <time>2025-12-19T09:54:07Z</time>
      </trkpt>
      <trkpt lat="43.65734" lon="1.08438">
        <ele>169.2</ele>
        <time>2025-12-19T09:54:08Z</time>
      </trkpt>
      <trkpt lat="43.65746" lon="1.08442">
        <ele>168.4</ele>
        <time>2025-12-19T09:54:09Z</time>
      </trkpt>
      <trkpt lat="43.65757" lon="1.08444">
        <ele>167.8</ele>
        <time>2025-12-19T09:54:10Z</time>
      </trkpt>
      <trkpt lat="43.65769" lon="1.08447">
        <ele>167.4</ele>
        <time>2025-12-19T09:54:11Z</time>
      </trkpt>
      <trkpt lat="43.6578" lon="1.0845">
        <ele>167</ele>
        <time>2025-12-19T09:54:12Z</time>
      </trkpt>
      <trkpt lat="43.6579" lon="1.08453">
        <ele>166.4</ele>
        <time>2025-12-19T09:54:13Z</time>
      </trkpt>
      <trkpt lat="43.65801" lon="1.08455">
        <ele>166</ele>
        <time>2025-12-19T09:54:14Z</time>
      </trkpt>
      <trkpt lat="43.65812" lon="1.08458">
        <ele>165.6</ele>
        <time>2025-12-19T09:54:15Z</time>
      </trkpt>
      <trkpt lat="43.65822" lon="1.08461">
        <ele>165.2</ele>
        <time>2025-12-19T09:54:16Z</time>
      </trkpt>
      <trkpt lat="43.65832" lon="1.08464">
        <ele>164.8</ele>
        <time>2025-12-19T09:54:17Z</time>
      </trkpt>
      <trkpt lat="43.65842" lon="1.08469">
        <ele>164.4</ele>
        <time>2025-12-19T09:54:18Z</time>
      </trkpt>
      <trkpt lat="43.65851" lon="1.08476">
        <ele>163.8</ele>
        <time>2025-12-19T09:54:19Z</time>
      </trkpt>
      <trkpt lat="43.6586" lon="1.08485">
        <ele>163.4</ele>
        <time>2025-12-19T09:54:20Z</time>
      </trkpt>
      <trkpt lat="43.65867" lon="1.08494">
        <ele>163.2</ele>
        <time>2025-12-19T09:54:21Z</time>
      </trkpt>
      <trkpt lat="43.65875" lon="1.08503">
        <ele>162.8</ele>
        <time>2025-12-19T09:54:22Z</time>
      </trkpt>
      <trkpt lat="43.65882" lon="1.08512">
        <ele>162.4</ele>
        <time>2025-12-19T09:54:23Z</time>
      </trkpt>
      <trkpt lat="43.65889" lon="1.08522">
        <ele>162.4</ele>
        <time>2025-12-19T09:54:24Z</time>
      </trkpt>
      <trkpt lat="43.65895" lon="1.0853">
        <ele>162.2</ele>
        <time>2025-12-19T09:54:25Z</time>
      </trkpt>
      <trkpt lat="43.65901" lon="1.08538">
        <ele>162.2</ele>
        <time>2025-12-19T09:54:26Z</time>
      </trkpt>
      <trkpt lat="43.65907" lon="1.08546">
        <ele>162</ele>
        <time>2025-12-19T09:54:27Z</time>
      </trkpt>
      <trkpt lat="43.65914" lon="1.08554">
        <ele>162</ele>
        <time>2025-12-19T09:54:28Z</time>
      </trkpt>
      <trkpt lat="43.65919" lon="1.08561">
        <ele>162</ele>
        <time>2025-12-19T09:54:29Z</time>
      </trkpt>
      <trkpt lat="43.65925" lon="1.08569">
        <ele>162.2</ele>
        <time>2025-12-19T09:54:30Z</time>
      </trkpt>
      <trkpt lat="43.6593" lon="1.08577">
        <ele>162.4</ele>
        <time>2025-12-19T09:54:31Z</time>
      </trkpt>
      <trkpt lat="43.65935" lon="1.08584">
        <ele>162.6</ele>
        <time>2025-12-19T09:54:32Z</time>
      </trkpt>
      <trkpt lat="43.6594" lon="1.08591">
        <ele>163</ele>
        <time>2025-12-19T09:54:33Z</time>
      </trkpt>
      <trkpt lat="43.65945" lon="1.08598">
        <ele>163.2</ele>
        <time>2025-12-19T09:54:34Z</time>
      </trkpt>
      <trkpt lat="43.65949" lon="1.08605">
        <ele>163.6</ele>
        <time>2025-12-19T09:54:35Z</time>
      </trkpt>
      <trkpt lat="43.65954" lon="1.08611">
        <ele>163.8</ele>
        <time>2025-12-19T09:54:36Z</time>
      </trkpt>
      <trkpt lat="43.65958" lon="1.08617">
        <ele>164.2</ele>
        <time>2025-12-19T09:54:37Z</time>
      </trkpt>
      <trkpt lat="43.65962" lon="1.08623">
        <ele>164.8</ele>
        <time>2025-12-19T09:54:38Z</time>
      </trkpt>
      <trkpt lat="43.65966" lon="1.08629">
        <ele>165.2</ele>
        <time>2025-12-19T09:54:39Z</time>
      </trkpt>
      <trkpt lat="43.6597" lon="1.08634">
        <ele>165.8</ele>
        <time>2025-12-19T09:54:40Z</time>
      </trkpt>
      <trkpt lat="43.65974" lon="1.08639">
        <ele>166</ele>
        <time>2025-12-19T09:54:41Z</time>
      </trkpt>
      <trkpt lat="43.65978" lon="1.08644">
        <ele>166.6</ele>
        <time>2025-12-19T09:54:42Z</time>
      </trkpt>
      <trkpt lat="43.65982" lon="1.08649">
        <ele>167</ele>
        <time>2025-12-19T09:54:43Z</time>
      </trkpt>
      <trkpt lat="43.65986" lon="1.08653">
        <ele>167.4</ele>
        <time>2025-12-19T09:54:44Z</time>
      </trkpt>
      <trkpt lat="43.6599" lon="1.08658">
        <ele>167.8</ele>
        <time>2025-12-19T09:54:45Z</time>
      </trkpt>
      <trkpt lat="43.65993" lon="1.08662">
        <ele>168.2</ele>
        <time>2025-12-19T09:54:46Z</time>
      </trkpt>
      <trkpt lat="43.65997" lon="1.08667">
        <ele>168.6</ele>
        <time>2025-12-19T09:54:47Z</time>
      </trkpt>
      <trkpt lat="43.66001" lon="1.08671">
        <ele>168.8</ele>
        <time>2025-12-19T09:54:48Z</time>
      </trkpt>
      <trkpt lat="43.66005" lon="1.08676">
        <ele>169</ele>
        <time>2025-12-19T09:54:49Z</time>
      </trkpt>
      <trkpt lat="43.66009" lon="1.0868">
        <ele>169</ele>
        <time>2025-12-19T09:54:50Z</time>
      </trkpt>
      <trkpt lat="43.66013" lon="1.08685">
        <ele>168.8</ele>
        <time>2025-12-19T09:54:51Z</time>
      </trkpt>
      <trkpt lat="43.66018" lon="1.0869">
        <ele>168.8</ele>
        <time>2025-12-19T09:54:52Z</time>
      </trkpt>
      <trkpt lat="43.66023" lon="1.08696">
        <ele>168.6</ele>
        <time>2025-12-19T09:54:53Z</time>
      </trkpt>
      <trkpt lat="43.66028" lon="1.08702">
        <ele>168.4</ele>
        <time>2025-12-19T09:54:54Z</time>
      </trkpt>
      <trkpt lat="43.66032" lon="1.08708">
        <ele>168.2</ele>
        <time>2025-12-19T09:54:55Z</time>
      </trkpt>
      <trkpt lat="43.66037" lon="1.08715">
        <ele>168</ele>
        <time>2025-12-19T09:54:56Z</time>
      </trkpt>
      <trkpt lat="43.66043" lon="1.08721">
        <ele>167.8</ele>
        <time>2025-12-19T09:54:57Z</time>
      </trkpt>
      <trkpt lat="43.66048" lon="1.08728">
        <ele>167.4</ele>
        <time>2025-12-19T09:54:58Z</time>
      </trkpt>
      <trkpt lat="43.66053" lon="1.08734">
        <ele>167.2</ele>
        <time>2025-12-19T09:54:59Z</time>
      </trkpt>
      <trkpt lat="43.66058" lon="1.08741">
        <ele>166.8</ele>
        <time>2025-12-19T09:55:00Z</time>
      </trkpt>
      <trkpt lat="43.66064" lon="1.08747">
        <ele>166.6</ele>
        <time>2025-12-19T09:55:01Z</time>
      </trkpt>
      <trkpt lat="43.66069" lon="1.08754">
        <ele>166.2</ele>
        <time>2025-12-19T09:55:02Z</time>
      </trkpt>
      <trkpt lat="43.66074" lon="1.0876">
        <ele>166</ele>
        <time>2025-12-19T09:55:03Z</time>
      </trkpt>
      <trkpt lat="43.66079" lon="1.08767">
        <ele>165.8</ele>
        <time>2025-12-19T09:55:04Z</time>
      </trkpt>
      <trkpt lat="43.66084" lon="1.08773">
        <ele>165.6</ele>
        <time>2025-12-19T09:55:05Z</time>
      </trkpt>
      <trkpt lat="43.6609" lon="1.08779">
        <ele>165.4</ele>
        <time>2025-12-19T09:55:06Z</time>
      </trkpt>
      <trkpt lat="43.66095" lon="1.08786">
        <ele>165.2</ele>
        <time>2025-12-19T09:55:07Z</time>
      </trkpt>
      <trkpt lat="43.66101" lon="1.08792">
        <ele>165</ele>
        <time>2025-12-19T09:55:08Z</time>
      </trkpt>
      <trkpt lat="43.66106" lon="1.08798">
        <ele>164.6</ele>
        <time>2025-12-19T09:55:09Z</time>
      </trkpt>
      <trkpt lat="43.66112" lon="1.08805">
        <ele>164.4</ele>
        <time>2025-12-19T09:55:10Z</time>
      </trkpt>
      <trkpt lat="43.66117" lon="1.08812">
        <ele>164.2</ele>
        <time>2025-12-19T09:55:11Z</time>
      </trkpt>
      <trkpt lat="43.66123" lon="1.08818">
        <ele>163.8</ele>
        <time>2025-12-19T09:55:12Z</time>
      </trkpt>
      <trkpt lat="43.66129" lon="1.08826">
        <ele>163.4</ele>
        <time>2025-12-19T09:55:13Z</time>
      </trkpt>
      <trkpt lat="43.66135" lon="1.08833">
        <ele>163</ele>
        <time>2025-12-19T09:55:14Z</time>
      </trkpt>
      <trkpt lat="43.66141" lon="1.0884">
        <ele>162.8</ele>
        <time>2025-12-19T09:55:15Z</time>
      </trkpt>
      <trkpt lat="43.66147" lon="1.08847">
        <ele>162.4</ele>
        <time>2025-12-19T09:55:16Z</time>
      </trkpt>
      <trkpt lat="43.66154" lon="1.08855">
        <ele>162</ele>
        <time>2025-12-19T09:55:17Z</time>
      </trkpt>
      <trkpt lat="43.6616" lon="1.08862">
        <ele>161.4</ele>
        <time>2025-12-19T09:55:18Z</time>
      </trkpt>
      <trkpt lat="43.66166" lon="1.0887">
        <ele>160.8</ele>
        <time>2025-12-19T09:55:19Z</time>
      </trkpt>
      <trkpt lat="43.66173" lon="1.08878">
        <ele>160.4</ele>
        <time>2025-12-19T09:55:20Z</time>
      </trkpt>
      <trkpt lat="43.66179" lon="1.08886">
        <ele>160</ele>
        <time>2025-12-19T09:55:21Z</time>
      </trkpt>
      <trkpt lat="43.66186" lon="1.08894">
        <ele>159.4</ele>
        <time>2025-12-19T09:55:22Z</time>
      </trkpt>
      <trkpt lat="43.66192" lon="1.08902">
        <ele>158.8</ele>
        <time>2025-12-19T09:55:23Z</time>
      </trkpt>
      <trkpt lat="43.66199" lon="1.0891">
        <ele>158.2</ele>
        <time>2025-12-19T09:55:24Z</time>
      </trkpt>
      <trkpt lat="43.66206" lon="1.08919">
        <ele>157.8</ele>
        <time>2025-12-19T09:55:25Z</time>
      </trkpt>
      <trkpt lat="43.66213" lon="1.08927">
        <ele>157.2</ele>
        <time>2025-12-19T09:55:26Z</time>
      </trkpt>
      <trkpt lat="43.6622" lon="1.08936">
        <ele>156.6</ele>
        <time>2025-12-19T09:55:27Z</time>
      </trkpt>
      <trkpt lat="43.66227" lon="1.08945">
        <ele>156</ele>
        <time>2025-12-19T09:55:28Z</time>
      </trkpt>
      <trkpt lat="43.66234" lon="1.08953">
        <ele>155.6</ele>
        <time>2025-12-19T09:55:29Z</time>
      </trkpt>
      <trkpt lat="43.66241" lon="1.08962">
        <ele>155</ele>
        <time>2025-12-19T09:55:30Z</time>
      </trkpt>
      <trkpt lat="43.66248" lon="1.0897">
        <ele>154.2</ele>
        <time>2025-12-19T09:55:31Z</time>
      </trkpt>
      <trkpt lat="43.66255" lon="1.08979">
        <ele>154.2</ele>
        <time>2025-12-19T09:55:32Z</time>
      </trkpt>
      <trkpt lat="43.66262" lon="1.08987">
        <ele>153.8</ele>
        <time>2025-12-19T09:55:33Z</time>
      </trkpt>
      <trkpt lat="43.66269" lon="1.08996">
        <ele>153</ele>
        <time>2025-12-19T09:55:34Z</time>
      </trkpt>
      <trkpt lat="43.66276" lon="1.09004">
        <ele>152.6</ele>
        <time>2025-12-19T09:55:35Z</time>
      </trkpt>
      <trkpt lat="43.66284" lon="1.09013">
        <ele>152.2</ele>
        <time>2025-12-19T09:55:36Z</time>
      </trkpt>
      <trkpt lat="43.66292" lon="1.09021">
        <ele>151.2</ele>
        <time>2025-12-19T09:55:37Z</time>
      </trkpt>
      <trkpt lat="43.663" lon="1.09027">
        <ele>150.8</ele>
        <time>2025-12-19T09:55:38Z</time>
      </trkpt>
      <trkpt lat="43.66309" lon="1.09032">
        <ele>150.4</ele>
        <time>2025-12-19T09:55:39Z</time>
      </trkpt>
      <trkpt lat="43.66319" lon="1.09036">
        <ele>150</ele>
        <time>2025-12-19T09:55:40Z</time>
      </trkpt>
      <trkpt lat="43.66329" lon="1.09037">
        <ele>149.6</ele>
        <time>2025-12-19T09:55:41Z</time>
      </trkpt>
      <trkpt lat="43.66338" lon="1.09037">
        <ele>149.2</ele>
        <time>2025-12-19T09:55:42Z</time>
      </trkpt>
      <trkpt lat="43.66347" lon="1.09036">
        <ele>149</ele>
        <time>2025-12-19T09:55:43Z</time>
      </trkpt>
      <trkpt lat="43.66355" lon="1.09035">
        <ele>148.8</ele>
        <time>2025-12-19T09:55:44Z</time>
      </trkpt>
      <trkpt lat="43.66364" lon="1.09035">
        <ele>148.8</ele>
        <time>2025-12-19T09:55:45Z</time>
      </trkpt>
      <trkpt lat="43.66372" lon="1.09035">
        <ele>148.6</ele>
        <time>2025-12-19T09:55:46Z</time>
      </trkpt>
      <trkpt lat="43.6638" lon="1.09034">
        <ele>148.6</ele>
        <time>2025-12-19T09:55:47Z</time>
      </trkpt>
      <trkpt lat="43.66388" lon="1.09035">
        <ele>148.4</ele>
        <time>2025-12-19T09:55:48Z</time>
      </trkpt>
      <trkpt lat="43.66395" lon="1.09036">
        <ele>148.4</ele>
        <time>2025-12-19T09:55:49Z</time>
      </trkpt>
      <trkpt lat="43.66403" lon="1.09037">
        <ele>148.4</ele>
        <time>2025-12-19T09:55:50Z</time>
      </trkpt>
      <trkpt lat="43.66411" lon="1.09036">
        <ele>148.4</ele>
        <time>2025-12-19T09:55:51Z</time>
      </trkpt>
      <trkpt lat="43.66418" lon="1.09033">
        <ele>148.4</ele>
        <time>2025-12-19T09:55:52Z</time>
      </trkpt>
      <trkpt lat="43.66424" lon="1.0903">
        <ele>148.4</ele>
        <time>2025-12-19T09:55:53Z</time>
      </trkpt>
      <trkpt lat="43.66431" lon="1.09026">
        <ele>148.6</ele>
        <time>2025-12-19T09:55:54Z</time>
      </trkpt>
      <trkpt lat="43.66436" lon="1.09021">
        <ele>148.8</ele>
        <time>2025-12-19T09:55:55Z</time>
      </trkpt>
      <trkpt lat="43.66441" lon="1.09016">
        <ele>149</ele>
        <time>2025-12-19T09:55:56Z</time>
      </trkpt>
      <trkpt lat="43.66447" lon="1.09011">
        <ele>149.2</ele>
        <time>2025-12-19T09:55:57Z</time>
      </trkpt>
      <trkpt lat="43.66452" lon="1.09007">
        <ele>149.4</ele>
        <time>2025-12-19T09:55:58Z</time>
      </trkpt>
      <trkpt lat="43.66458" lon="1.09003">
        <ele>149.8</ele>
        <time>2025-12-19T09:55:59Z</time>
      </trkpt>
      <trkpt lat="43.66464" lon="1.09">
        <ele>150</ele>
        <time>2025-12-19T09:56:00Z</time>
      </trkpt>
      <trkpt lat="43.6647" lon="1.08998">
        <ele>150.4</ele>
        <time>2025-12-19T09:56:01Z</time>
      </trkpt>
      <trkpt lat="43.66475" lon="1.08997">
        <ele>150.6</ele>
        <time>2025-12-19T09:56:02Z</time>
      </trkpt>
      <trkpt lat="43.6648" lon="1.08995">
        <ele>151</ele>
        <time>2025-12-19T09:56:03Z</time>
      </trkpt>
      <trkpt lat="43.66486" lon="1.08994">
        <ele>151.4</ele>
        <time>2025-12-19T09:56:04Z</time>
      </trkpt>
      <trkpt lat="43.6649" lon="1.08994">
        <ele>151.8</ele>
        <time>2025-12-19T09:56:05Z</time>
      </trkpt>
      <trkpt lat="43.66495" lon="1.08993">
        <ele>152.4</ele>
        <time>2025-12-19T09:56:06Z</time>
      </trkpt>
      <trkpt lat="43.665" lon="1.08993">
        <ele>152.8</ele>
        <time>2025-12-19T09:56:07Z</time>
      </trkpt>
      <trkpt lat="43.66504" lon="1.08993">
        <ele>153.2</ele>
        <time>2025-12-19T09:56:08Z</time>
      </trkpt>
      <trkpt lat="43.66508" lon="1.08993">
        <ele>153.8</ele>
        <time>2025-12-19T09:56:09Z</time>
      </trkpt>
      <trkpt lat="43.66512" lon="1.08993">
        <ele>154.2</ele>
        <time>2025-12-19T09:56:10Z</time>
      </trkpt>
      <trkpt lat="43.66516" lon="1.08993">
        <ele>154.8</ele>
        <time>2025-12-19T09:56:11Z</time>
      </trkpt>
      <trkpt lat="43.66519" lon="1.08994">
        <ele>155.2</ele>
        <time>2025-12-19T09:56:12Z</time>
      </trkpt>
      <trkpt lat="43.66523" lon="1.08996">
        <ele>155.8</ele>
        <time>2025-12-19T09:56:13Z</time>
      </trkpt>
      <trkpt lat="43.66526" lon="1.08998">
        <ele>156.4</ele>
        <time>2025-12-19T09:56:14Z</time>
      </trkpt>
      <trkpt lat="43.66529" lon="1.09001">
        <ele>156.8</ele>
        <time>2025-12-19T09:56:15Z</time>
      </trkpt>
      <trkpt lat="43.66532" lon="1.09004">
        <ele>157.4</ele>
        <time>2025-12-19T09:56:16Z</time>
      </trkpt>
      <trkpt lat="43.66534" lon="1.09007">
        <ele>157.8</ele>
        <time>2025-12-19T09:56:17Z</time>
      </trkpt>
      <trkpt lat="43.66536" lon="1.09011">
        <ele>158.2</ele>
        <time>2025-12-19T09:56:18Z</time>
      </trkpt>
      <trkpt lat="43.66538" lon="1.09016">
        <ele>158.6</ele>
        <time>2025-12-19T09:56:19Z</time>
      </trkpt>
      <trkpt lat="43.66539" lon="1.0902">
        <ele>159.2</ele>
        <time>2025-12-19T09:56:20Z</time>
      </trkpt>
      <trkpt lat="43.6654" lon="1.09025">
        <ele>159.4</ele>
        <time>2025-12-19T09:56:21Z</time>
      </trkpt>
      <trkpt lat="43.66542" lon="1.09029">
        <ele>159.8</ele>
        <time>2025-12-19T09:56:22Z</time>
      </trkpt>
      <trkpt lat="43.66542" lon="1.09034">
        <ele>160.2</ele>
        <time>2025-12-19T09:56:23Z</time>
      </trkpt>
      <trkpt lat="43.66543" lon="1.09039">
        <ele>160.4</ele>
        <time>2025-12-19T09:56:24Z</time>
      </trkpt>
      <trkpt lat="43.66544" lon="1.09044">
        <ele>160.6</ele>
        <time>2025-12-19T09:56:25Z</time>
      </trkpt>
      <trkpt lat="43.66545" lon="1.09049">
        <ele>160.6</ele>
        <time>2025-12-19T09:56:26Z</time>
      </trkpt>
      <trkpt lat="43.66546" lon="1.09054">
        <ele>160.8</ele>
        <time>2025-12-19T09:56:27Z</time>
      </trkpt>
      <trkpt lat="43.66547" lon="1.0906">
        <ele>160.8</ele>
        <time>2025-12-19T09:56:28Z</time>
      </trkpt>
      <trkpt lat="43.66548" lon="1.09065">
        <ele>160.8</ele>
        <time>2025-12-19T09:56:29Z</time>
      </trkpt>
      <trkpt lat="43.6655" lon="1.0907">
        <ele>160.8</ele>
        <time>2025-12-19T09:56:30Z</time>
      </trkpt>
      <trkpt lat="43.66553" lon="1.09074">
        <ele>161</ele>
        <time>2025-12-19T09:56:31Z</time>
      </trkpt>
      <trkpt lat="43.66555" lon="1.0908">
        <ele>160.8</ele>
        <time>2025-12-19T09:56:32Z</time>
      </trkpt>
      <trkpt lat="43.66558" lon="1.09086">
        <ele>160.6</ele>
        <time>2025-12-19T09:56:33Z</time>
      </trkpt>
      <trkpt lat="43.66561" lon="1.09092">
        <ele>160.6</ele>
        <time>2025-12-19T09:56:34Z</time>
      </trkpt>
      <trkpt lat="43.66565" lon="1.09098">
        <ele>160.4</ele>
        <time>2025-12-19T09:56:35Z</time>
      </trkpt>
      <trkpt lat="43.66569" lon="1.09105">
        <ele>160.2</ele>
        <time>2025-12-19T09:56:36Z</time>
      </trkpt>
      <trkpt lat="43.66573" lon="1.09112">
        <ele>159.8</ele>
        <time>2025-12-19T09:56:37Z</time>
      </trkpt>
      <trkpt lat="43.66578" lon="1.0912">
        <ele>159.2</ele>
        <time>2025-12-19T09:56:38Z</time>
      </trkpt>
      <trkpt lat="43.66583" lon="1.09128">
        <ele>158.8</ele>
        <time>2025-12-19T09:56:39Z</time>
      </trkpt>
      <trkpt lat="43.66589" lon="1.09137">
        <ele>158</ele>
        <time>2025-12-19T09:56:40Z</time>
      </trkpt>
      <trkpt lat="43.66595" lon="1.09146">
        <ele>157.2</ele>
        <time>2025-12-19T09:56:41Z</time>
      </trkpt>
      <trkpt lat="43.66601" lon="1.09156">
        <ele>156.2</ele>
        <time>2025-12-19T09:56:42Z</time>
      </trkpt>
      <trkpt lat="43.66608" lon="1.09166">
        <ele>155.2</ele>
        <time>2025-12-19T09:56:43Z</time>
      </trkpt>
      <trkpt lat="43.66614" lon="1.09176">
        <ele>154.4</ele>
        <time>2025-12-19T09:56:44Z</time>
      </trkpt>
      <trkpt lat="43.66621" lon="1.09187">
        <ele>153.6</ele>
        <time>2025-12-19T09:56:45Z</time>
      </trkpt>
      <trkpt lat="43.66629" lon="1.09198">
        <ele>152.8</ele>
        <time>2025-12-19T09:56:46Z</time>
      </trkpt>
      <trkpt lat="43.66636" lon="1.09208">
        <ele>152</ele>
        <time>2025-12-19T09:56:47Z</time>
      </trkpt>
      <trkpt lat="43.66643" lon="1.09219">
        <ele>151.2</ele>
        <time>2025-12-19T09:56:48Z</time>
      </trkpt>
      <trkpt lat="43.66649" lon="1.0923">
        <ele>150.6</ele>
        <time>2025-12-19T09:56:49Z</time>
      </trkpt>
      <trkpt lat="43.66656" lon="1.09241">
        <ele>150.2</ele>
        <time>2025-12-19T09:56:50Z</time>
      </trkpt>
      <trkpt lat="43.66662" lon="1.09251">
        <ele>149.8</ele>
        <time>2025-12-19T09:56:51Z</time>
      </trkpt>
      <trkpt lat="43.66668" lon="1.0926">
        <ele>149.4</ele>
        <time>2025-12-19T09:56:52Z</time>
      </trkpt>
      <trkpt lat="43.66675" lon="1.0927">
        <ele>149.2</ele>
        <time>2025-12-19T09:56:53Z</time>
      </trkpt>
      <trkpt lat="43.66681" lon="1.09278">
        <ele>149</ele>
        <time>2025-12-19T09:56:54Z</time>
      </trkpt>
      <trkpt lat="43.66688" lon="1.09284">
        <ele>149</ele>
        <time>2025-12-19T09:56:55Z</time>
      </trkpt>
      <trkpt lat="43.66695" lon="1.0929">
        <ele>149</ele>
        <time>2025-12-19T09:56:56Z</time>
      </trkpt>
      <trkpt lat="43.66701" lon="1.09296">
        <ele>149</ele>
        <time>2025-12-19T09:56:57Z</time>
      </trkpt>
      <trkpt lat="43.66708" lon="1.09302">
        <ele>149</ele>
        <time>2025-12-19T09:56:58Z</time>
      </trkpt>
      <trkpt lat="43.66714" lon="1.09308">
        <ele>149</ele>
        <time>2025-12-19T09:56:59Z</time>
      </trkpt>
      <trkpt lat="43.6672" lon="1.09314">
        <ele>149</ele>
        <time>2025-12-19T09:57:00Z</time>
      </trkpt>
      <trkpt lat="43.66726" lon="1.09318">
        <ele>149</ele>
        <time>2025-12-19T09:57:01Z</time>
      </trkpt>
      <trkpt lat="43.66733" lon="1.0932">
        <ele>148.6</ele>
        <time>2025-12-19T09:57:02Z</time>
      </trkpt>
      <trkpt lat="43.66739" lon="1.09322">
        <ele>148.4</ele>
        <time>2025-12-19T09:57:03Z</time>
      </trkpt>
      <trkpt lat="43.66746" lon="1.09325">
        <ele>148.4</ele>
        <time>2025-12-19T09:57:04Z</time>
      </trkpt>
      <trkpt lat="43.66751" lon="1.09328">
        <ele>148.4</ele>
        <time>2025-12-19T09:57:05Z</time>
      </trkpt>
      <trkpt lat="43.66757" lon="1.09333">
        <ele>148.4</ele>
        <time>2025-12-19T09:57:06Z</time>
      </trkpt>
      <trkpt lat="43.66763" lon="1.09337">
        <ele>148.6</ele>
        <time>2025-12-19T09:57:07Z</time>
      </trkpt>
      <trkpt lat="43.66767" lon="1.09342">
        <ele>148.8</ele>
        <time>2025-12-19T09:57:08Z</time>
      </trkpt>
      <trkpt lat="43.66772" lon="1.09347">
        <ele>149.2</ele>
        <time>2025-12-19T09:57:09Z</time>
      </trkpt>
      <trkpt lat="43.66777" lon="1.09352">
        <ele>149.4</ele>
        <time>2025-12-19T09:57:10Z</time>
      </trkpt>
      <trkpt lat="43.66781" lon="1.09357">
        <ele>149.8</ele>
        <time>2025-12-19T09:57:11Z</time>
      </trkpt>
      <trkpt lat="43.66785" lon="1.09362">
        <ele>150.2</ele>
        <time>2025-12-19T09:57:12Z</time>
      </trkpt>
      <trkpt lat="43.66789" lon="1.09366">
        <ele>150.4</ele>
        <time>2025-12-19T09:57:13Z</time>
      </trkpt>
      <trkpt lat="43.66793" lon="1.0937">
        <ele>150.8</ele>
        <time>2025-12-19T09:57:14Z</time>
      </trkpt>
      <trkpt lat="43.66797" lon="1.09374">
        <ele>151.2</ele>
        <time>2025-12-19T09:57:15Z</time>
      </trkpt>
      <trkpt lat="43.668" lon="1.09378">
        <ele>151.6</ele>
        <time>2025-12-19T09:57:16Z</time>
      </trkpt>
      <trkpt lat="43.66803" lon="1.09381">
        <ele>152</ele>
        <time>2025-12-19T09:57:17Z</time>
      </trkpt>
      <trkpt lat="43.66807" lon="1.09384">
        <ele>152.4</ele>
        <time>2025-12-19T09:57:18Z</time>
      </trkpt>
      <trkpt lat="43.6681" lon="1.09386">
        <ele>153</ele>
        <time>2025-12-19T09:57:19Z</time>
      </trkpt>
      <trkpt lat="43.66814" lon="1.09388">
        <ele>153.4</ele>
        <time>2025-12-19T09:57:20Z</time>
      </trkpt>
      <trkpt lat="43.66818" lon="1.0939">
        <ele>153.8</ele>
        <time>2025-12-19T09:57:21Z</time>
      </trkpt>
      <trkpt lat="43.66821" lon="1.09393">
        <ele>154.2</ele>
        <time>2025-12-19T09:57:22Z</time>
      </trkpt>
      <trkpt lat="43.66824" lon="1.09396">
        <ele>154.6</ele>
        <time>2025-12-19T09:57:23Z</time>
      </trkpt>
      <trkpt lat="43.66827" lon="1.09398">
        <ele>155</ele>
        <time>2025-12-19T09:57:24Z</time>
      </trkpt>
      <trkpt lat="43.6683" lon="1.094">
        <ele>155.4</ele>
        <time>2025-12-19T09:57:25Z</time>
      </trkpt>
      <trkpt lat="43.66834" lon="1.09402">
        <ele>156</ele>
        <time>2025-12-19T09:57:26Z</time>
      </trkpt>
      <trkpt lat="43.66838" lon="1.09404">
        <ele>156.4</ele>
        <time>2025-12-19T09:57:27Z</time>
      </trkpt>
      <trkpt lat="43.66841" lon="1.09406">
        <ele>156.6</ele>
        <time>2025-12-19T09:57:28Z</time>
      </trkpt>
      <trkpt lat="43.66845" lon="1.09407">
        <ele>157</ele>
        <time>2025-12-19T09:57:29Z</time>
      </trkpt>
      <trkpt lat="43.66848" lon="1.09409">
        <ele>157.4</ele>
        <time>2025-12-19T09:57:30Z</time>
      </trkpt>
      <trkpt lat="43.66852" lon="1.09411">
        <ele>157.6</ele>
        <time>2025-12-19T09:57:31Z</time>
      </trkpt>
      <trkpt lat="43.66855" lon="1.09413">
        <ele>158.2</ele>
        <time>2025-12-19T09:57:32Z</time>
      </trkpt>
      <trkpt lat="43.66858" lon="1.09415">
        <ele>158.4</ele>
        <time>2025-12-19T09:57:33Z</time>
      </trkpt>
      <trkpt lat="43.66862" lon="1.09417">
        <ele>158.8</ele>
        <time>2025-12-19T09:57:34Z</time>
      </trkpt>
      <trkpt lat="43.66865" lon="1.09419">
        <ele>159.2</ele>
        <time>2025-12-19T09:57:35Z</time>
      </trkpt>
      <trkpt lat="43.66868" lon="1.09422">
        <ele>159.4</ele>
        <time>2025-12-19T09:57:36Z</time>
      </trkpt>
      <trkpt lat="43.66871" lon="1.09424">
        <ele>159.8</ele>
        <time>2025-12-19T09:57:37Z</time>
      </trkpt>
      <trkpt lat="43.66874" lon="1.09426">
        <ele>160.2</ele>
        <time>2025-12-19T09:57:38Z</time>
      </trkpt>
      <trkpt lat="43.66877" lon="1.09428">
        <ele>160.6</ele>
        <time>2025-12-19T09:57:39Z</time>
      </trkpt>
      <trkpt lat="43.6688" lon="1.0943">
        <ele>161</ele>
        <time>2025-12-19T09:57:40Z</time>
      </trkpt>
      <trkpt lat="43.66883" lon="1.09433">
        <ele>161.4</ele>
        <time>2025-12-19T09:57:41Z</time>
      </trkpt>
      <trkpt lat="43.66886" lon="1.09436">
        <ele>161.6</ele>
        <time>2025-12-19T09:57:42Z</time>
      </trkpt>
      <trkpt lat="43.6689" lon="1.09438">
        <ele>162.2</ele>
        <time>2025-12-19T09:57:43Z</time>
      </trkpt>
      <trkpt lat="43.66893" lon="1.0944">
        <ele>162.4</ele>
        <time>2025-12-19T09:57:44Z</time>
      </trkpt>
      <trkpt lat="43.66896" lon="1.09442">
        <ele>162.8</ele>
        <time>2025-12-19T09:57:45Z</time>
      </trkpt>
      <trkpt lat="43.66899" lon="1.09445">
        <ele>163</ele>
        <time>2025-12-19T09:57:46Z</time>
      </trkpt>
      <trkpt lat="43.66902" lon="1.09448">
        <ele>163.2</ele>
        <time>2025-12-19T09:57:47Z</time>
      </trkpt>
      <trkpt lat="43.66905" lon="1.0945">
        <ele>163.6</ele>
        <time>2025-12-19T09:57:48Z</time>
      </trkpt>
      <trkpt lat="43.66908" lon="1.09452">
        <ele>164</ele>
        <time>2025-12-19T09:57:49Z</time>
      </trkpt>
      <trkpt lat="43.6691" lon="1.09454">
        <ele>164.2</ele>
        <time>2025-12-19T09:57:50Z</time>
      </trkpt>
      <trkpt lat="43.66913" lon="1.09457">
        <ele>164.4</ele>
        <time>2025-12-19T09:57:51Z</time>
      </trkpt>
      <trkpt lat="43.66915" lon="1.09459">
        <ele>164.6</ele>
        <time>2025-12-19T09:57:52Z</time>
      </trkpt>
      <trkpt lat="43.66918" lon="1.09461">
        <ele>165</ele>
        <time>2025-12-19T09:57:53Z</time>
      </trkpt>
      <trkpt lat="43.66921" lon="1.09464">
        <ele>165.2</ele>
        <time>2025-12-19T09:57:54Z</time>
      </trkpt>
      <trkpt lat="43.66924" lon="1.09467">
        <ele>165.4</ele>
        <time>2025-12-19T09:57:55Z</time>
      </trkpt>
      <trkpt lat="43.66926" lon="1.09469">
        <ele>165.6</ele>
        <time>2025-12-19T09:57:56Z</time>
      </trkpt>
      <trkpt lat="43.66929" lon="1.09472">
        <ele>165.6</ele>
        <time>2025-12-19T09:57:57Z</time>
      </trkpt>
      <trkpt lat="43.66933" lon="1.09476">
        <ele>165.8</ele>
        <time>2025-12-19T09:57:58Z</time>
      </trkpt>
      <trkpt lat="43.66936" lon="1.09478">
        <ele>165.8</ele>
        <time>2025-12-19T09:57:59Z</time>
      </trkpt>
      <trkpt lat="43.66939" lon="1.09481">
        <ele>166</ele>
        <time>2025-12-19T09:58:00Z</time>
      </trkpt>
      <trkpt lat="43.66943" lon="1.09484">
        <ele>166.2</ele>
        <time>2025-12-19T09:58:01Z</time>
      </trkpt>
      <trkpt lat="43.66946" lon="1.09487">
        <ele>166.2</ele>
        <time>2025-12-19T09:58:02Z</time>
      </trkpt>
      <trkpt lat="43.66949" lon="1.0949">
        <ele>166.4</ele>
        <time>2025-12-19T09:58:03Z</time>
      </trkpt>
      <trkpt lat="43.66952" lon="1.09494">
        <ele>166.4</ele>
        <time>2025-12-19T09:58:04Z</time>
      </trkpt>
      <trkpt lat="43.66956" lon="1.09496">
        <ele>166.4</ele>
        <time>2025-12-19T09:58:05Z</time>
      </trkpt>
      <trkpt lat="43.66959" lon="1.095">
        <ele>166.6</ele>
        <time>2025-12-19T09:58:06Z</time>
      </trkpt>
      <trkpt lat="43.66963" lon="1.09502">
        <ele>166.6</ele>
        <time>2025-12-19T09:58:07Z</time>
      </trkpt>
      <trkpt lat="43.66966" lon="1.09505">
        <ele>166.6</ele>
        <time>2025-12-19T09:58:08Z</time>
      </trkpt>
      <trkpt lat="43.6697" lon="1.09508">
        <ele>166.8</ele>
        <time>2025-12-19T09:58:09Z</time>
      </trkpt>
      <trkpt lat="43.66973" lon="1.0951">
        <ele>167</ele>
        <time>2025-12-19T09:58:10Z</time>
      </trkpt>
      <trkpt lat="43.66977" lon="1.09513">
        <ele>167</ele>
        <time>2025-12-19T09:58:11Z</time>
      </trkpt>
      <trkpt lat="43.66981" lon="1.09516">
        <ele>167.2</ele>
        <time>2025-12-19T09:58:12Z</time>
      </trkpt>
      <trkpt lat="43.66984" lon="1.09519">
        <ele>167.4</ele>
        <time>2025-12-19T09:58:13Z</time>
      </trkpt>
      <trkpt lat="43.66988" lon="1.09522">
        <ele>167.6</ele>
        <time>2025-12-19T09:58:14Z</time>
      </trkpt>
      <trkpt lat="43.66992" lon="1.09524">
        <ele>167.8</ele>
        <time>2025-12-19T09:58:15Z</time>
      </trkpt>
      <trkpt lat="43.66995" lon="1.09527">
        <ele>167.8</ele>
        <time>2025-12-19T09:58:16Z</time>
      </trkpt>
      <trkpt lat="43.66998" lon="1.0953">
        <ele>168.2</ele>
        <time>2025-12-19T09:58:17Z</time>
      </trkpt>
      <trkpt lat="43.67001" lon="1.09532">
        <ele>168.4</ele>
        <time>2025-12-19T09:58:18Z</time>
      </trkpt>
      <trkpt lat="43.67004" lon="1.09535">
        <ele>168.6</ele>
        <time>2025-12-19T09:58:19Z</time>
      </trkpt>
      <trkpt lat="43.67007" lon="1.09537">
        <ele>168.8</ele>
        <time>2025-12-19T09:58:20Z</time>
      </trkpt>
      <trkpt lat="43.6701" lon="1.0954">
        <ele>169.2</ele>
        <time>2025-12-19T09:58:21Z</time>
      </trkpt>
      <trkpt lat="43.67014" lon="1.09543">
        <ele>169.4</ele>
        <time>2025-12-19T09:58:22Z</time>
      </trkpt>
      <trkpt lat="43.67016" lon="1.09545">
        <ele>169.8</ele>
        <time>2025-12-19T09:58:23Z</time>
      </trkpt>
      <trkpt lat="43.6702" lon="1.09548">
        <ele>170</ele>
        <time>2025-12-19T09:58:24Z</time>
      </trkpt>
      <trkpt lat="43.67023" lon="1.09551">
        <ele>170.4</ele>
        <time>2025-12-19T09:58:25Z</time>
      </trkpt>
      <trkpt lat="43.67026" lon="1.09553">
        <ele>170.6</ele>
        <time>2025-12-19T09:58:26Z</time>
      </trkpt>
      <trkpt lat="43.67028" lon="1.09555">
        <ele>170.8</ele>
        <time>2025-12-19T09:58:27Z</time>
      </trkpt>
      <trkpt lat="43.67031" lon="1.09557">
        <ele>171</ele>
        <time>2025-12-19T09:58:28Z</time>
      </trkpt>
      <trkpt lat="43.67034" lon="1.09559">
        <ele>171.2</ele>
        <time>2025-12-19T09:58:29Z</time>
      </trkpt>
      <trkpt lat="43.67037" lon="1.09562">
        <ele>171.4</ele>
        <time>2025-12-19T09:58:30Z</time>
      </trkpt>
      <trkpt lat="43.67041" lon="1.09564">
        <ele>171.4</ele>
        <time>2025-12-19T09:58:31Z</time>
      </trkpt>
      <trkpt lat="43.67044" lon="1.09567">
        <ele>171.4</ele>
        <time>2025-12-19T09:58:32Z</time>
      </trkpt>
      <trkpt lat="43.67049" lon="1.09572">
        <ele>171.2</ele>
        <time>2025-12-19T09:58:33Z</time>
      </trkpt>
      <trkpt lat="43.67053" lon="1.09576">
        <ele>171</ele>
        <time>2025-12-19T09:58:34Z</time>
      </trkpt>
      <trkpt lat="43.67058" lon="1.09581">
        <ele>170.6</ele>
        <time>2025-12-19T09:58:35Z</time>
      </trkpt>
      <trkpt lat="43.67063" lon="1.09586">
        <ele>170.2</ele>
        <time>2025-12-19T09:58:36Z</time>
      </trkpt>
      <trkpt lat="43.67069" lon="1.09593">
        <ele>169.6</ele>
        <time>2025-12-19T09:58:37Z</time>
      </trkpt>
      <trkpt lat="43.67075" lon="1.09599">
        <ele>169.2</ele>
        <time>2025-12-19T09:58:38Z</time>
      </trkpt>
      <trkpt lat="43.67081" lon="1.09606">
        <ele>168.8</ele>
        <time>2025-12-19T09:58:39Z</time>
      </trkpt>
      <trkpt lat="43.67087" lon="1.09614">
        <ele>168.2</ele>
        <time>2025-12-19T09:58:40Z</time>
      </trkpt>
      <trkpt lat="43.67093" lon="1.09621">
        <ele>167.8</ele>
        <time>2025-12-19T09:58:41Z</time>
      </trkpt>
      <trkpt lat="43.67099" lon="1.09629">
        <ele>167.2</ele>
        <time>2025-12-19T09:58:42Z</time>
      </trkpt>
      <trkpt lat="43.67106" lon="1.09636">
        <ele>166.4</ele>
        <time>2025-12-19T09:58:43Z</time>
      </trkpt>
      <trkpt lat="43.67113" lon="1.09644">
        <ele>165.8</ele>
        <time>2025-12-19T09:58:44Z</time>
      </trkpt>
      <trkpt lat="43.67119" lon="1.09651">
        <ele>165.4</ele>
        <time>2025-12-19T09:58:45Z</time>
      </trkpt>
      <trkpt lat="43.67126" lon="1.09659">
        <ele>165</ele>
        <time>2025-12-19T09:58:46Z</time>
      </trkpt>
      <trkpt lat="43.67133" lon="1.09666">
        <ele>164.6</ele>
        <time>2025-12-19T09:58:47Z</time>
      </trkpt>
      <trkpt lat="43.6714" lon="1.09673">
        <ele>164.2</ele>
        <time>2025-12-19T09:58:48Z</time>
      </trkpt>
      <trkpt lat="43.67146" lon="1.0968">
        <ele>164</ele>
        <time>2025-12-19T09:58:49Z</time>
      </trkpt>
      <trkpt lat="43.67152" lon="1.09688">
        <ele>163.8</ele>
        <time>2025-12-19T09:58:50Z</time>
      </trkpt>
      <trkpt lat="43.67156" lon="1.09698">
        <ele>163.6</ele>
        <time>2025-12-19T09:58:51Z</time>
      </trkpt>
      <trkpt lat="43.67159" lon="1.09707">
        <ele>163.4</ele>
        <time>2025-12-19T09:58:52Z</time>
      </trkpt>
      <trkpt lat="43.67161" lon="1.09716">
        <ele>163.2</ele>
        <time>2025-12-19T09:58:53Z</time>
      </trkpt>
      <trkpt lat="43.67161" lon="1.09725">
        <ele>163.2</ele>
        <time>2025-12-19T09:58:54Z</time>
      </trkpt>
      <trkpt lat="43.67161" lon="1.09734">
        <ele>163.2</ele>
        <time>2025-12-19T09:58:55Z</time>
      </trkpt>
      <trkpt lat="43.67161" lon="1.09742">
        <ele>163.4</ele>
        <time>2025-12-19T09:58:56Z</time>
      </trkpt>
      <trkpt lat="43.67161" lon="1.09751">
        <ele>163.6</ele>
        <time>2025-12-19T09:58:57Z</time>
      </trkpt>
      <trkpt lat="43.67161" lon="1.09759">
        <ele>163.8</ele>
        <time>2025-12-19T09:58:58Z</time>
      </trkpt>
      <trkpt lat="43.67161" lon="1.09767">
        <ele>164</ele>
        <time>2025-12-19T09:58:59Z</time>
      </trkpt>
      <trkpt lat="43.67162" lon="1.09775">
        <ele>164.2</ele>
        <time>2025-12-19T09:59:00Z</time>
      </trkpt>
      <trkpt lat="43.67162" lon="1.09783">
        <ele>164.4</ele>
        <time>2025-12-19T09:59:01Z</time>
      </trkpt>
      <trkpt lat="43.67163" lon="1.09791">
        <ele>164.8</ele>
        <time>2025-12-19T09:59:02Z</time>
      </trkpt>
      <trkpt lat="43.67164" lon="1.09799">
        <ele>165</ele>
        <time>2025-12-19T09:59:03Z</time>
      </trkpt>
      <trkpt lat="43.67165" lon="1.09807">
        <ele>165.2</ele>
        <time>2025-12-19T09:59:04Z</time>
      </trkpt>
      <trkpt lat="43.67167" lon="1.09814">
        <ele>165.4</ele>
        <time>2025-12-19T09:59:05Z</time>
      </trkpt>
      <trkpt lat="43.67168" lon="1.09821">
        <ele>165.6</ele>
        <time>2025-12-19T09:59:06Z</time>
      </trkpt>
      <trkpt lat="43.6717" lon="1.09829">
        <ele>165.8</ele>
        <time>2025-12-19T09:59:07Z</time>
      </trkpt>
      <trkpt lat="43.67171" lon="1.09837">
        <ele>166</ele>
        <time>2025-12-19T09:59:08Z</time>
      </trkpt>
      <trkpt lat="43.67172" lon="1.09844">
        <ele>166.2</ele>
        <time>2025-12-19T09:59:09Z</time>
      </trkpt>
      <trkpt lat="43.67173" lon="1.09852">
        <ele>166.4</ele>
        <time>2025-12-19T09:59:10Z</time>
      </trkpt>
      <trkpt lat="43.67174" lon="1.09859">
        <ele>166.6</ele>
        <time>2025-12-19T09:59:11Z</time>
      </trkpt>
      <trkpt lat="43.67175" lon="1.09866">
        <ele>166.8</ele>
        <time>2025-12-19T09:59:12Z</time>
      </trkpt>
      <trkpt lat="43.67175" lon="1.09874">
        <ele>167</ele>
        <time>2025-12-19T09:59:13Z</time>
      </trkpt>
      <trkpt lat="43.67174" lon="1.09881">
        <ele>167.2</ele>
        <time>2025-12-19T09:59:14Z</time>
      </trkpt>
      <trkpt lat="43.67173" lon="1.09888">
        <ele>167.4</ele>
        <time>2025-12-19T09:59:15Z</time>
      </trkpt>
      <trkpt lat="43.67172" lon="1.09895">
        <ele>167.6</ele>
        <time>2025-12-19T09:59:16Z</time>
      </trkpt>
      <trkpt lat="43.6717" lon="1.09901">
        <ele>167.8</ele>
        <time>2025-12-19T09:59:17Z</time>
      </trkpt>
      <trkpt lat="43.67168" lon="1.09908">
        <ele>168.2</ele>
        <time>2025-12-19T09:59:18Z</time>
      </trkpt>
      <trkpt lat="43.67167" lon="1.09914">
        <ele>168.4</ele>
        <time>2025-12-19T09:59:19Z</time>
      </trkpt>
      <trkpt lat="43.67165" lon="1.0992">
        <ele>168.6</ele>
        <time>2025-12-19T09:59:20Z</time>
      </trkpt>
      <trkpt lat="43.67163" lon="1.09925">
        <ele>169</ele>
        <time>2025-12-19T09:59:21Z</time>
      </trkpt>
      <trkpt lat="43.67161" lon="1.0993">
        <ele>169.4</ele>
        <time>2025-12-19T09:59:22Z</time>
      </trkpt>
      <trkpt lat="43.6716" lon="1.09936">
        <ele>169.6</ele>
        <time>2025-12-19T09:59:23Z</time>
      </trkpt>
      <trkpt lat="43.67158" lon="1.0994">
        <ele>170</ele>
        <time>2025-12-19T09:59:24Z</time>
      </trkpt>
      <trkpt lat="43.67157" lon="1.09945">
        <ele>170.2</ele>
        <time>2025-12-19T09:59:25Z</time>
      </trkpt>
      <trkpt lat="43.67156" lon="1.09949">
        <ele>170.6</ele>
        <time>2025-12-19T09:59:26Z</time>
      </trkpt>
      <trkpt lat="43.67154" lon="1.09953">
        <ele>171</ele>
        <time>2025-12-19T09:59:27Z</time>
      </trkpt>
      <trkpt lat="43.67153" lon="1.09958">
        <ele>171.4</ele>
        <time>2025-12-19T09:59:28Z</time>
      </trkpt>
      <trkpt lat="43.67152" lon="1.09963">
        <ele>171.6</ele>
        <time>2025-12-19T09:59:29Z</time>
      </trkpt>
      <trkpt lat="43.67151" lon="1.09967">
        <ele>172</ele>
        <time>2025-12-19T09:59:30Z</time>
      </trkpt>
      <trkpt lat="43.67149" lon="1.09972">
        <ele>172.4</ele>
        <time>2025-12-19T09:59:31Z</time>
      </trkpt>
      <trkpt lat="43.67148" lon="1.09976">
        <ele>172.8</ele>
        <time>2025-12-19T09:59:32Z</time>
      </trkpt>
      <trkpt lat="43.67146" lon="1.0998">
        <ele>173.2</ele>
        <time>2025-12-19T09:59:33Z</time>
      </trkpt>
      <trkpt lat="43.67144" lon="1.09984">
        <ele>173.4</ele>
        <time>2025-12-19T09:59:34Z</time>
      </trkpt>
      <trkpt lat="43.67143" lon="1.09988">
        <ele>173.8</ele>
        <time>2025-12-19T09:59:35Z</time>
      </trkpt>
      <trkpt lat="43.67141" lon="1.09993">
        <ele>174</ele>
        <time>2025-12-19T09:59:36Z</time>
      </trkpt>
      <trkpt lat="43.6714" lon="1.09997">
        <ele>174.4</ele>
        <time>2025-12-19T09:59:37Z</time>
      </trkpt>
      <trkpt lat="43.67139" lon="1.10001">
        <ele>174.8</ele>
        <time>2025-12-19T09:59:38Z</time>
      </trkpt>
      <trkpt lat="43.67138" lon="1.10005">
        <ele>175</ele>
        <time>2025-12-19T09:59:39Z</time>
      </trkpt>
      <trkpt lat="43.67137" lon="1.10009">
        <ele>175.2</ele>
        <time>2025-12-19T09:59:40Z</time>
      </trkpt>
      <trkpt lat="43.67136" lon="1.10013">
        <ele>175.6</ele>
        <time>2025-12-19T09:59:41Z</time>
      </trkpt>
      <trkpt lat="43.67134" lon="1.10017">
        <ele>175.8</ele>
        <time>2025-12-19T09:59:42Z</time>
      </trkpt>
      <trkpt lat="43.67133" lon="1.10021">
        <ele>176</ele>
        <time>2025-12-19T09:59:43Z</time>
      </trkpt>
      <trkpt lat="43.67131" lon="1.10025">
        <ele>176.2</ele>
        <time>2025-12-19T09:59:44Z</time>
      </trkpt>
      <trkpt lat="43.6713" lon="1.1003">
        <ele>176.6</ele>
        <time>2025-12-19T09:59:45Z</time>
      </trkpt>
      <trkpt lat="43.67129" lon="1.10034">
        <ele>176.8</ele>
        <time>2025-12-19T09:59:46Z</time>
      </trkpt>
      <trkpt lat="43.67127" lon="1.10038">
        <ele>177</ele>
        <time>2025-12-19T09:59:47Z</time>
      </trkpt>
      <trkpt lat="43.67125" lon="1.10043">
        <ele>177.4</ele>
        <time>2025-12-19T09:59:48Z</time>
      </trkpt>
      <trkpt lat="43.67124" lon="1.10048">
        <ele>177.6</ele>
        <time>2025-12-19T09:59:49Z</time>
      </trkpt>
      <trkpt lat="43.67123" lon="1.10052">
        <ele>177.8</ele>
        <time>2025-12-19T09:59:50Z</time>
      </trkpt>
      <trkpt lat="43.67121" lon="1.10056">
        <ele>178</ele>
        <time>2025-12-19T09:59:51Z</time>
      </trkpt>
      <trkpt lat="43.6712" lon="1.10061">
        <ele>178.2</ele>
        <time>2025-12-19T09:59:52Z</time>
      </trkpt>
      <trkpt lat="43.67119" lon="1.10066">
        <ele>178.4</ele>
        <time>2025-12-19T09:59:53Z</time>
      </trkpt>
      <trkpt lat="43.67118" lon="1.10071">
        <ele>178.8</ele>
        <time>2025-12-19T09:59:54Z</time>
      </trkpt>
      <trkpt lat="43.67117" lon="1.10075">
        <ele>179</ele>
        <time>2025-12-19T09:59:55Z</time>
      </trkpt>
      <trkpt lat="43.67116" lon="1.10078">
        <ele>179.2</ele>
        <time>2025-12-19T09:59:56Z</time>
      </trkpt>
      <trkpt lat="43.67114" lon="1.10083">
        <ele>179.6</ele>
        <time>2025-12-19T09:59:57Z</time>
      </trkpt>
      <trkpt lat="43.67113" lon="1.10086">
        <ele>179.8</ele>
        <time>2025-12-19T09:59:58Z</time>
      </trkpt>
      <trkpt lat="43.67111" lon="1.10091">
        <ele>180</ele>
        <time>2025-12-19T09:59:59Z</time>
      </trkpt>
      <trkpt lat="43.67109" lon="1.10095">
        <ele>180.2</ele>
        <time>2025-12-19T10:00:00Z</time>
      </trkpt>
      <trkpt lat="43.67107" lon="1.10099">
        <ele>180.4</ele>
        <time>2025-12-19T10:00:01Z</time>
      </trkpt>
      <trkpt lat="43.67106" lon="1.10104">
        <ele>180.8</ele>
        <time>2025-12-19T10:00:02Z</time>
      </trkpt>
      <trkpt lat="43.67105" lon="1.10108">
        <ele>181</ele>
        <time>2025-12-19T10:00:03Z</time>
      </trkpt>
      <trkpt lat="43.67105" lon="1.10112">
        <ele>181.2</ele>
        <time>2025-12-19T10:00:04Z</time>
      </trkpt>
      <trkpt lat="43.67104" lon="1.10115">
        <ele>181.6</ele>
        <time>2025-12-19T10:00:05Z</time>
      </trkpt>
      <trkpt lat="43.67102" lon="1.10119">
        <ele>181.8</ele>
        <time>2025-12-19T10:00:06Z</time>
      </trkpt>
      <trkpt lat="43.671" lon="1.10123">
        <ele>182</ele>
        <time>2025-12-19T10:00:07Z</time>
      </trkpt>
      <trkpt lat="43.67099" lon="1.10127">
        <ele>182.2</ele>
        <time>2025-12-19T10:00:08Z</time>
      </trkpt>
      <trkpt lat="43.67097" lon="1.10132">
        <ele>182.6</ele>
        <time>2025-12-19T10:00:09Z</time>
      </trkpt>
      <trkpt lat="43.67096" lon="1.10136">
        <ele>183</ele>
        <time>2025-12-19T10:00:10Z</time>
      </trkpt>
      <trkpt lat="43.67095" lon="1.1014">
        <ele>183.2</ele>
        <time>2025-12-19T10:00:11Z</time>
      </trkpt>
      <trkpt lat="43.67094" lon="1.10144">
        <ele>183.4</ele>
        <time>2025-12-19T10:00:12Z</time>
      </trkpt>
      <trkpt lat="43.67093" lon="1.10148">
        <ele>183.8</ele>
        <time>2025-12-19T10:00:13Z</time>
      </trkpt>
      <trkpt lat="43.67092" lon="1.10152">
        <ele>184</ele>
        <time>2025-12-19T10:00:14Z</time>
      </trkpt>
      <trkpt lat="43.6709" lon="1.10156">
        <ele>184.2</ele>
        <time>2025-12-19T10:00:15Z</time>
      </trkpt>
      <trkpt lat="43.67089" lon="1.1016">
        <ele>184.4</ele>
        <time>2025-12-19T10:00:16Z</time>
      </trkpt>
      <trkpt lat="43.67087" lon="1.10164">
        <ele>184.6</ele>
        <time>2025-12-19T10:00:17Z</time>
      </trkpt>
      <trkpt lat="43.67086" lon="1.10168">
        <ele>184.8</ele>
        <time>2025-12-19T10:00:18Z</time>
      </trkpt>
      <trkpt lat="43.67084" lon="1.10172">
        <ele>185</ele>
        <time>2025-12-19T10:00:19Z</time>
      </trkpt>
      <trkpt lat="43.67082" lon="1.10176">
        <ele>185.2</ele>
        <time>2025-12-19T10:00:20Z</time>
      </trkpt>
      <trkpt lat="43.67081" lon="1.10181">
        <ele>185.4</ele>
        <time>2025-12-19T10:00:21Z</time>
      </trkpt>
      <trkpt lat="43.67079" lon="1.10185">
        <ele>185.6</ele>
        <time>2025-12-19T10:00:22Z</time>
      </trkpt>
      <trkpt lat="43.67078" lon="1.1019">
        <ele>185.6</ele>
        <time>2025-12-19T10:00:23Z</time>
      </trkpt>
      <trkpt lat="43.67077" lon="1.10194">
        <ele>185.8</ele>
        <time>2025-12-19T10:00:24Z</time>
      </trkpt>
      <trkpt lat="43.67076" lon="1.10199">
        <ele>185.8</ele>
        <time>2025-12-19T10:00:25Z</time>
      </trkpt>
      <trkpt lat="43.67075" lon="1.10204">
        <ele>185.6</ele>
        <time>2025-12-19T10:00:26Z</time>
      </trkpt>
      <trkpt lat="43.67074" lon="1.1021">
        <ele>185.6</ele>
        <time>2025-12-19T10:00:27Z</time>
      </trkpt>
      <trkpt lat="43.67073" lon="1.10215">
        <ele>185.6</ele>
        <time>2025-12-19T10:00:28Z</time>
      </trkpt>
      <trkpt lat="43.67073" lon="1.10222">
        <ele>185.4</ele>
        <time>2025-12-19T10:00:29Z</time>
      </trkpt>
      <trkpt lat="43.67073" lon="1.10229">
        <ele>185.2</ele>
        <time>2025-12-19T10:00:30Z</time>
      </trkpt>
      <trkpt lat="43.67073" lon="1.10236">
        <ele>185</ele>
        <time>2025-12-19T10:00:31Z</time>
      </trkpt>
      <trkpt lat="43.67074" lon="1.10243">
        <ele>184.8</ele>
        <time>2025-12-19T10:00:32Z</time>
      </trkpt>
      <trkpt lat="43.67075" lon="1.10251">
        <ele>184.4</ele>
        <time>2025-12-19T10:00:33Z</time>
      </trkpt>
      <trkpt lat="43.67077" lon="1.1026">
        <ele>183.8</ele>
        <time>2025-12-19T10:00:34Z</time>
      </trkpt>
      <trkpt lat="43.67078" lon="1.10269">
        <ele>183.2</ele>
        <time>2025-12-19T10:00:35Z</time>
      </trkpt>
      <trkpt lat="43.67081" lon="1.10279">
        <ele>182.6</ele>
        <time>2025-12-19T10:00:36Z</time>
      </trkpt>
      <trkpt lat="43.67085" lon="1.10291">
        <ele>181.6</ele>
        <time>2025-12-19T10:00:37Z</time>
      </trkpt>
      <trkpt lat="43.67089" lon="1.10303">
        <ele>180.6</ele>
        <time>2025-12-19T10:00:38Z</time>
      </trkpt>
      <trkpt lat="43.67093" lon="1.10315">
        <ele>179.8</ele>
        <time>2025-12-19T10:00:39Z</time>
      </trkpt>
      <trkpt lat="43.67098" lon="1.10328">
        <ele>178.8</ele>
        <time>2025-12-19T10:00:40Z</time>
      </trkpt>
      <trkpt lat="43.67103" lon="1.10342">
        <ele>177.6</ele>
        <time>2025-12-19T10:00:41Z</time>
      </trkpt>
      <trkpt lat="43.67107" lon="1.10355">
        <ele>176</ele>
        <time>2025-12-19T10:00:42Z</time>
      </trkpt>
      <trkpt lat="43.67112" lon="1.1037">
        <ele>174.8</ele>
        <time>2025-12-19T10:00:43Z</time>
      </trkpt>
      <trkpt lat="43.67116" lon="1.10385">
        <ele>174</ele>
        <time>2025-12-19T10:00:44Z</time>
      </trkpt>
      <trkpt lat="43.6712" lon="1.10399">
        <ele>173</ele>
        <time>2025-12-19T10:00:45Z</time>
      </trkpt>
      <trkpt lat="43.67124" lon="1.10414">
        <ele>172</ele>
        <time>2025-12-19T10:00:46Z</time>
      </trkpt>
      <trkpt lat="43.67128" lon="1.10429">
        <ele>171.4</ele>
        <time>2025-12-19T10:00:47Z</time>
      </trkpt>
      <trkpt lat="43.67132" lon="1.10442">
        <ele>170.4</ele>
        <time>2025-12-19T10:00:48Z</time>
      </trkpt>
      <trkpt lat="43.67136" lon="1.10456">
        <ele>170</ele>
        <time>2025-12-19T10:00:49Z</time>
      </trkpt>
      <trkpt lat="43.67139" lon="1.10469">
        <ele>169.6</ele>
        <time>2025-12-19T10:00:50Z</time>
      </trkpt>
      <trkpt lat="43.67142" lon="1.10481">
        <ele>169.4</ele>
        <time>2025-12-19T10:00:51Z</time>
      </trkpt>
      <trkpt lat="43.67145" lon="1.10493">
        <ele>169.2</ele>
        <time>2025-12-19T10:00:52Z</time>
      </trkpt>
      <trkpt lat="43.67148" lon="1.10503">
        <ele>169.4</ele>
        <time>2025-12-19T10:00:53Z</time>
      </trkpt>
      <trkpt lat="43.6715" lon="1.10513">
        <ele>169.4</ele>
        <time>2025-12-19T10:00:54Z</time>
      </trkpt>
      <trkpt lat="43.67152" lon="1.10522">
        <ele>169.6</ele>
        <time>2025-12-19T10:00:55Z</time>
      </trkpt>
      <trkpt lat="43.67154" lon="1.10531">
        <ele>170</ele>
        <time>2025-12-19T10:00:56Z</time>
      </trkpt>
      <trkpt lat="43.67157" lon="1.10539">
        <ele>170.4</ele>
        <time>2025-12-19T10:00:57Z</time>
      </trkpt>
      <trkpt lat="43.67159" lon="1.10547">
        <ele>170.8</ele>
        <time>2025-12-19T10:00:58Z</time>
      </trkpt>
      <trkpt lat="43.67161" lon="1.10554">
        <ele>171</ele>
        <time>2025-12-19T10:00:59Z</time>
      </trkpt>
      <trkpt lat="43.67163" lon="1.10562">
        <ele>171.4</ele>
        <time>2025-12-19T10:01:00Z</time>
      </trkpt>
      <trkpt lat="43.67164" lon="1.10569">
        <ele>171.6</ele>
        <time>2025-12-19T10:01:01Z</time>
      </trkpt>
      <trkpt lat="43.67166" lon="1.10576">
        <ele>172</ele>
        <time>2025-12-19T10:01:02Z</time>
      </trkpt>
      <trkpt lat="43.67168" lon="1.10583">
        <ele>172.2</ele>
        <time>2025-12-19T10:01:03Z</time>
      </trkpt>
      <trkpt lat="43.67169" lon="1.10589">
        <ele>172.4</ele>
        <time>2025-12-19T10:01:04Z</time>
      </trkpt>
      <trkpt lat="43.67171" lon="1.10596">
        <ele>172.8</ele>
        <time>2025-12-19T10:01:05Z</time>
      </trkpt>
      <trkpt lat="43.67172" lon="1.10602">
        <ele>173</ele>
        <time>2025-12-19T10:01:06Z</time>
      </trkpt>
      <trkpt lat="43.67174" lon="1.10608">
        <ele>173.4</ele>
        <time>2025-12-19T10:01:07Z</time>
      </trkpt>
      <trkpt lat="43.67175" lon="1.10614">
        <ele>173.8</ele>
        <time>2025-12-19T10:01:08Z</time>
      </trkpt>
      <trkpt lat="43.67176" lon="1.1062">
        <ele>174.2</ele>
        <time>2025-12-19T10:01:09Z</time>
      </trkpt>
      <trkpt lat="43.67178" lon="1.10626">
        <ele>174.4</ele>
        <time>2025-12-19T10:01:10Z</time>
      </trkpt>
      <trkpt lat="43.67179" lon="1.10631">
        <ele>174.6</ele>
        <time>2025-12-19T10:01:11Z</time>
      </trkpt>
      <trkpt lat="43.6718" lon="1.10636">
        <ele>175</ele>
        <time>2025-12-19T10:01:12Z</time>
      </trkpt>
      <trkpt lat="43.67181" lon="1.10642">
        <ele>175.2</ele>
        <time>2025-12-19T10:01:13Z</time>
      </trkpt>
      <trkpt lat="43.67183" lon="1.10647">
        <ele>175.4</ele>
        <time>2025-12-19T10:01:14Z</time>
      </trkpt>
      <trkpt lat="43.67184" lon="1.10653">
        <ele>175.8</ele>
        <time>2025-12-19T10:01:15Z</time>
      </trkpt>
      <trkpt lat="43.67186" lon="1.10658">
        <ele>176</ele>
        <time>2025-12-19T10:01:16Z</time>
      </trkpt>
      <trkpt lat="43.67187" lon="1.10663">
        <ele>176.2</ele>
        <time>2025-12-19T10:01:17Z</time>
      </trkpt>
      <trkpt lat="43.67188" lon="1.10669">
        <ele>176.4</ele>
        <time>2025-12-19T10:01:18Z</time>
      </trkpt>
      <trkpt lat="43.6719" lon="1.10674">
        <ele>176.6</ele>
        <time>2025-12-19T10:01:19Z</time>
      </trkpt>
      <trkpt lat="43.67191" lon="1.1068">
        <ele>176.8</ele>
        <time>2025-12-19T10:01:20Z</time>
      </trkpt>
      <trkpt lat="43.67193" lon="1.10685">
        <ele>177</ele>
        <time>2025-12-19T10:01:21Z</time>
      </trkpt>
      <trkpt lat="43.67194" lon="1.1069">
        <ele>177.2</ele>
        <time>2025-12-19T10:01:22Z</time>
      </trkpt>
      <trkpt lat="43.67196" lon="1.10695">
        <ele>177.2</ele>
        <time>2025-12-19T10:01:23Z</time>
      </trkpt>
      <trkpt lat="43.67198" lon="1.10701">
        <ele>177.4</ele>
        <time>2025-12-19T10:01:24Z</time>
      </trkpt>
      <trkpt lat="43.67199" lon="1.10707">
        <ele>177.6</ele>
        <time>2025-12-19T10:01:25Z</time>
      </trkpt>
      <trkpt lat="43.672" lon="1.10712">
        <ele>177.6</ele>
        <time>2025-12-19T10:01:26Z</time>
      </trkpt>
      <trkpt lat="43.67201" lon="1.10717">
        <ele>177.8</ele>
        <time>2025-12-19T10:01:27Z</time>
      </trkpt>
      <trkpt lat="43.67202" lon="1.10722">
        <ele>177.8</ele>
        <time>2025-12-19T10:01:28Z</time>
      </trkpt>
      <trkpt lat="43.67203" lon="1.10728">
        <ele>178</ele>
        <time>2025-12-19T10:01:29Z</time>
      </trkpt>
      <trkpt lat="43.67204" lon="1.10733">
        <ele>178.2</ele>
        <time>2025-12-19T10:01:30Z</time>
      </trkpt>
      <trkpt lat="43.67205" lon="1.10738">
        <ele>178.4</ele>
        <time>2025-12-19T10:01:31Z</time>
      </trkpt>
      <trkpt lat="43.67205" lon="1.10743">
        <ele>178.6</ele>
        <time>2025-12-19T10:01:32Z</time>
      </trkpt>
      <trkpt lat="43.67205" lon="1.10748">
        <ele>178.8</ele>
        <time>2025-12-19T10:01:33Z</time>
      </trkpt>
      <trkpt lat="43.67205" lon="1.10753">
        <ele>179</ele>
        <time>2025-12-19T10:01:34Z</time>
      </trkpt>
      <trkpt lat="43.67205" lon="1.10757">
        <ele>179.4</ele>
        <time>2025-12-19T10:01:35Z</time>
      </trkpt>
      <trkpt lat="43.67205" lon="1.10762">
        <ele>179.8</ele>
        <time>2025-12-19T10:01:36Z</time>
      </trkpt>
      <trkpt lat="43.67205" lon="1.10766">
        <ele>180</ele>
        <time>2025-12-19T10:01:37Z</time>
      </trkpt>
      <trkpt lat="43.67205" lon="1.10771">
        <ele>180.2</ele>
        <time>2025-12-19T10:01:38Z</time>
      </trkpt>
      <trkpt lat="43.67206" lon="1.10776">
        <ele>180.6</ele>
        <time>2025-12-19T10:01:39Z</time>
      </trkpt>
      <trkpt lat="43.67206" lon="1.10781">
        <ele>180.8</ele>
        <time>2025-12-19T10:01:40Z</time>
      </trkpt>
      <trkpt lat="43.67206" lon="1.10786">
        <ele>181</ele>
        <time>2025-12-19T10:01:41Z</time>
      </trkpt>
      <trkpt lat="43.67207" lon="1.1079">
        <ele>181.4</ele>
        <time>2025-12-19T10:01:42Z</time>
      </trkpt>
      <trkpt lat="43.67208" lon="1.10796">
        <ele>181.6</ele>
        <time>2025-12-19T10:01:43Z</time>
      </trkpt>
      <trkpt lat="43.67208" lon="1.108">
        <ele>181.8</ele>
        <time>2025-12-19T10:01:44Z</time>
      </trkpt>
      <trkpt lat="43.67209" lon="1.10805">
        <ele>182</ele>
        <time>2025-12-19T10:01:45Z</time>
      </trkpt>
      <trkpt lat="43.67209" lon="1.1081">
        <ele>182.2</ele>
        <time>2025-12-19T10:01:46Z</time>
      </trkpt>
      <trkpt lat="43.67209" lon="1.10815">
        <ele>182.6</ele>
        <time>2025-12-19T10:01:47Z</time>
      </trkpt>
      <trkpt lat="43.67209" lon="1.10819">
        <ele>182.8</ele>
        <time>2025-12-19T10:01:48Z</time>
      </trkpt>
      <trkpt lat="43.6721" lon="1.10823">
        <ele>183</ele>
        <time>2025-12-19T10:01:49Z</time>
      </trkpt>
      <trkpt lat="43.67211" lon="1.10828">
        <ele>183.2</ele>
        <time>2025-12-19T10:01:50Z</time>
      </trkpt>
      <trkpt lat="43.67212" lon="1.10833">
        <ele>183.4</ele>
        <time>2025-12-19T10:01:51Z</time>
      </trkpt>
      <trkpt lat="43.67213" lon="1.10837">
        <ele>183.8</ele>
        <time>2025-12-19T10:01:52Z</time>
      </trkpt>
      <trkpt lat="43.67214" lon="1.10841">
        <ele>184</ele>
        <time>2025-12-19T10:01:53Z</time>
      </trkpt>
      <trkpt lat="43.67215" lon="1.10845">
        <ele>184.2</ele>
        <time>2025-12-19T10:01:54Z</time>
      </trkpt>
      <trkpt lat="43.67216" lon="1.10849">
        <ele>184.4</ele>
        <time>2025-12-19T10:01:55Z</time>
      </trkpt>
      <trkpt lat="43.67217" lon="1.10853">
        <ele>184.8</ele>
        <time>2025-12-19T10:01:56Z</time>
      </trkpt>
      <trkpt lat="43.67218" lon="1.10856">
        <ele>185</ele>
        <time>2025-12-19T10:01:57Z</time>
      </trkpt>
      <trkpt lat="43.67219" lon="1.1086">
        <ele>185.2</ele>
        <time>2025-12-19T10:01:58Z</time>
      </trkpt>
      <trkpt lat="43.6722" lon="1.10863">
        <ele>185.4</ele>
        <time>2025-12-19T10:01:59Z</time>
      </trkpt>
      <trkpt lat="43.67221" lon="1.10866">
        <ele>185.6</ele>
        <time>2025-12-19T10:02:00Z</time>
      </trkpt>
      <trkpt lat="43.67222" lon="1.1087">
        <ele>185.8</ele>
        <time>2025-12-19T10:02:01Z</time>
      </trkpt>
      <trkpt lat="43.67223" lon="1.10874">
        <ele>186</ele>
        <time>2025-12-19T10:02:02Z</time>
      </trkpt>
      <trkpt lat="43.67224" lon="1.10878">
        <ele>186.2</ele>
        <time>2025-12-19T10:02:03Z</time>
      </trkpt>
      <trkpt lat="43.67226" lon="1.10881">
        <ele>186.4</ele>
        <time>2025-12-19T10:02:04Z</time>
      </trkpt>
      <trkpt lat="43.67227" lon="1.10885">
        <ele>186.6</ele>
        <time>2025-12-19T10:02:05Z</time>
      </trkpt>
      <trkpt lat="43.67229" lon="1.10889">
        <ele>186.8</ele>
        <time>2025-12-19T10:02:06Z</time>
      </trkpt>
      <trkpt lat="43.6723" lon="1.10893">
        <ele>187</ele>
        <time>2025-12-19T10:02:07Z</time>
      </trkpt>
      <trkpt lat="43.67232" lon="1.10897">
        <ele>187.2</ele>
        <time>2025-12-19T10:02:08Z</time>
      </trkpt>
      <trkpt lat="43.67233" lon="1.10902">
        <ele>187.4</ele>
        <time>2025-12-19T10:02:09Z</time>
      </trkpt>
      <trkpt lat="43.67235" lon="1.10905">
        <ele>187.6</ele>
        <time>2025-12-19T10:02:10Z</time>
      </trkpt>
      <trkpt lat="43.67237" lon="1.10908">
        <ele>187.8</ele>
        <time>2025-12-19T10:02:11Z</time>
      </trkpt>
      <trkpt lat="43.67238" lon="1.10911">
        <ele>188</ele>
        <time>2025-12-19T10:02:12Z</time>
      </trkpt>
      <trkpt lat="43.6724" lon="1.10914">
        <ele>188.2</ele>
        <time>2025-12-19T10:02:13Z</time>
      </trkpt>
      <trkpt lat="43.67241" lon="1.10917">
        <ele>188.4</ele>
        <time>2025-12-19T10:02:14Z</time>
      </trkpt>
      <trkpt lat="43.67243" lon="1.1092">
        <ele>188.6</ele>
        <time>2025-12-19T10:02:15Z</time>
      </trkpt>
      <trkpt lat="43.67245" lon="1.10923">
        <ele>188.8</ele>
        <time>2025-12-19T10:02:16Z</time>
      </trkpt>
      <trkpt lat="43.67247" lon="1.10926">
        <ele>189</ele>
        <time>2025-12-19T10:02:17Z</time>
      </trkpt>
      <trkpt lat="43.67248" lon="1.10929">
        <ele>189.2</ele>
        <time>2025-12-19T10:02:18Z</time>
      </trkpt>
      <trkpt lat="43.6725" lon="1.10933">
        <ele>189.4</ele>
        <time>2025-12-19T10:02:19Z</time>
      </trkpt>
      <trkpt lat="43.67252" lon="1.10936">
        <ele>189.6</ele>
        <time>2025-12-19T10:02:20Z</time>
      </trkpt>
      <trkpt lat="43.67253" lon="1.10939">
        <ele>189.8</ele>
        <time>2025-12-19T10:02:21Z</time>
      </trkpt>
      <trkpt lat="43.67255" lon="1.10943">
        <ele>190</ele>
        <time>2025-12-19T10:02:22Z</time>
      </trkpt>
      <trkpt lat="43.67256" lon="1.10946">
        <ele>190.2</ele>
        <time>2025-12-19T10:02:23Z</time>
      </trkpt>
      <trkpt lat="43.67258" lon="1.1095">
        <ele>190.4</ele>
        <time>2025-12-19T10:02:24Z</time>
      </trkpt>
      <trkpt lat="43.67259" lon="1.10953">
        <ele>190.6</ele>
        <time>2025-12-19T10:02:25Z</time>
      </trkpt>
      <trkpt lat="43.67261" lon="1.10957">
        <ele>190.8</ele>
        <time>2025-12-19T10:02:26Z</time>
      </trkpt>
      <trkpt lat="43.67263" lon="1.10961">
        <ele>191</ele>
        <time>2025-12-19T10:02:27Z</time>
      </trkpt>
      <trkpt lat="43.67264" lon="1.10964">
        <ele>191.2</ele>
        <time>2025-12-19T10:02:28Z</time>
      </trkpt>
      <trkpt lat="43.67265" lon="1.10968">
        <ele>191.4</ele>
        <time>2025-12-19T10:02:29Z</time>
      </trkpt>
      <trkpt lat="43.67266" lon="1.10972">
        <ele>191.6</ele>
        <time>2025-12-19T10:02:30Z</time>
      </trkpt>
      <trkpt lat="43.67267" lon="1.10975">
        <ele>191.8</ele>
        <time>2025-12-19T10:02:31Z</time>
      </trkpt>
      <trkpt lat="43.67268" lon="1.10979">
        <ele>192</ele>
        <time>2025-12-19T10:02:32Z</time>
      </trkpt>
      <trkpt lat="43.67268" lon="1.10984">
        <ele>192.2</ele>
        <time>2025-12-19T10:02:33Z</time>
      </trkpt>
      <trkpt lat="43.67268" lon="1.10988">
        <ele>192.4</ele>
        <time>2025-12-19T10:02:34Z</time>
      </trkpt>
      <trkpt lat="43.67269" lon="1.10992">
        <ele>192.6</ele>
        <time>2025-12-19T10:02:35Z</time>
      </trkpt>
      <trkpt lat="43.67269" lon="1.10997">
        <ele>192.8</ele>
        <time>2025-12-19T10:02:36Z</time>
      </trkpt>
      <trkpt lat="43.67269" lon="1.11001">
        <ele>193</ele>
        <time>2025-12-19T10:02:37Z</time>
      </trkpt>
      <trkpt lat="43.67269" lon="1.11005">
        <ele>193.2</ele>
        <time>2025-12-19T10:02:38Z</time>
      </trkpt>
      <trkpt lat="43.6727" lon="1.11009">
        <ele>193.4</ele>
        <time>2025-12-19T10:02:39Z</time>
      </trkpt>
      <trkpt lat="43.67269" lon="1.11013">
        <ele>193.6</ele>
        <time>2025-12-19T10:02:40Z</time>
      </trkpt>
      <trkpt lat="43.6727" lon="1.11017">
        <ele>194</ele>
        <time>2025-12-19T10:02:41Z</time>
      </trkpt>
      <trkpt lat="43.6727" lon="1.11022">
        <ele>194</ele>
        <time>2025-12-19T10:02:42Z</time>
      </trkpt>
      <trkpt lat="43.6727" lon="1.11026">
        <ele>194.2</ele>
        <time>2025-12-19T10:02:43Z</time>
      </trkpt>
      <trkpt lat="43.6727" lon="1.1103">
        <ele>194.4</ele>
        <time>2025-12-19T10:02:44Z</time>
      </trkpt>
      <trkpt lat="43.67271" lon="1.11035">
        <ele>194.6</ele>
        <time>2025-12-19T10:02:45Z</time>
      </trkpt>
      <trkpt lat="43.67271" lon="1.11039">
        <ele>194.8</ele>
        <time>2025-12-19T10:02:46Z</time>
      </trkpt>
      <trkpt lat="43.67272" lon="1.11043">
        <ele>195</ele>
        <time>2025-12-19T10:02:47Z</time>
      </trkpt>
      <trkpt lat="43.67272" lon="1.11047">
        <ele>195.2</ele>
        <time>2025-12-19T10:02:48Z</time>
      </trkpt>
      <trkpt lat="43.67272" lon="1.11051">
        <ele>195.4</ele>
        <time>2025-12-19T10:02:49Z</time>
      </trkpt>
      <trkpt lat="43.67273" lon="1.11055">
        <ele>195.4</ele>
        <time>2025-12-19T10:02:50Z</time>
      </trkpt>
      <trkpt lat="43.67273" lon="1.11059">
        <ele>195.6</ele>
        <time>2025-12-19T10:02:51Z</time>
      </trkpt>
      <trkpt lat="43.67274" lon="1.11064">
        <ele>196</ele>
        <time>2025-12-19T10:02:52Z</time>
      </trkpt>
      <trkpt lat="43.67274" lon="1.11068">
        <ele>196.2</ele>
        <time>2025-12-19T10:02:53Z</time>
      </trkpt>
      <trkpt lat="43.67274" lon="1.11072">
        <ele>196.4</ele>
        <time>2025-12-19T10:02:54Z</time>
      </trkpt>
      <trkpt lat="43.67275" lon="1.11076">
        <ele>196.6</ele>
        <time>2025-12-19T10:02:55Z</time>
      </trkpt>
      <trkpt lat="43.67275" lon="1.1108">
        <ele>196.8</ele>
        <time>2025-12-19T10:02:56Z</time>
      </trkpt>
      <trkpt lat="43.67275" lon="1.11084">
        <ele>197</ele>
        <time>2025-12-19T10:02:57Z</time>
      </trkpt>
      <trkpt lat="43.67276" lon="1.11088">
        <ele>197.4</ele>
        <time>2025-12-19T10:02:58Z</time>
      </trkpt>
      <trkpt lat="43.67276" lon="1.11092">
        <ele>197.6</ele>
        <time>2025-12-19T10:02:59Z</time>
      </trkpt>
      <trkpt lat="43.67276" lon="1.11097">
        <ele>197.8</ele>
        <time>2025-12-19T10:03:00Z</time>
      </trkpt>
      <trkpt lat="43.67277" lon="1.11101">
        <ele>198</ele>
        <time>2025-12-19T10:03:01Z</time>
      </trkpt>
      <trkpt lat="43.67277" lon="1.11105">
        <ele>198.2</ele>
        <time>2025-12-19T10:03:02Z</time>
      </trkpt>
      <trkpt lat="43.67278" lon="1.11109">
        <ele>198.4</ele>
        <time>2025-12-19T10:03:03Z</time>
      </trkpt>
      <trkpt lat="43.67278" lon="1.11113">
        <ele>198.8</ele>
        <time>2025-12-19T10:03:04Z</time>
      </trkpt>
      <trkpt lat="43.67279" lon="1.11117">
        <ele>199</ele>
        <time>2025-12-19T10:03:05Z</time>
      </trkpt>
      <trkpt lat="43.67279" lon="1.11121">
        <ele>199.2</ele>
        <time>2025-12-19T10:03:06Z</time>
      </trkpt>
      <trkpt lat="43.6728" lon="1.11124">
        <ele>199.4</ele>
        <time>2025-12-19T10:03:07Z</time>
      </trkpt>
      <trkpt lat="43.6728" lon="1.11128">
        <ele>199.6</ele>
        <time>2025-12-19T10:03:08Z</time>
      </trkpt>
      <trkpt lat="43.67281" lon="1.11131">
        <ele>199.8</ele>
        <time>2025-12-19T10:03:09Z</time>
      </trkpt>
      <trkpt lat="43.67282" lon="1.11135">
        <ele>200</ele>
        <time>2025-12-19T10:03:10Z</time>
      </trkpt>
      <trkpt lat="43.67282" lon="1.11139">
        <ele>200.2</ele>
        <time>2025-12-19T10:03:11Z</time>
      </trkpt>
      <trkpt lat="43.67283" lon="1.11143">
        <ele>200.4</ele>
        <time>2025-12-19T10:03:12Z</time>
      </trkpt>
      <trkpt lat="43.67284" lon="1.11146">
        <ele>200.8</ele>
        <time>2025-12-19T10:03:13Z</time>
      </trkpt>
      <trkpt lat="43.67285" lon="1.1115">
        <ele>201</ele>
        <time>2025-12-19T10:03:14Z</time>
      </trkpt>
      <trkpt lat="43.67286" lon="1.11154">
        <ele>201.2</ele>
        <time>2025-12-19T10:03:15Z</time>
      </trkpt>
      <trkpt lat="43.67287" lon="1.11157">
        <ele>201.4</ele>
        <time>2025-12-19T10:03:16Z</time>
      </trkpt>
      <trkpt lat="43.67289" lon="1.1116">
        <ele>201.8</ele>
        <time>2025-12-19T10:03:17Z</time>
      </trkpt>
      <trkpt lat="43.6729" lon="1.11163">
        <ele>202</ele>
        <time>2025-12-19T10:03:18Z</time>
      </trkpt>
      <trkpt lat="43.67291" lon="1.11167">
        <ele>202.2</ele>
        <time>2025-12-19T10:03:19Z</time>
      </trkpt>
      <trkpt lat="43.67292" lon="1.1117">
        <ele>202.6</ele>
        <time>2025-12-19T10:03:20Z</time>
      </trkpt>
      <trkpt lat="43.67293" lon="1.11174">
        <ele>202.8</ele>
        <time>2025-12-19T10:03:21Z</time>
      </trkpt>
      <trkpt lat="43.67294" lon="1.11178">
        <ele>202.8</ele>
        <time>2025-12-19T10:03:22Z</time>
      </trkpt>
      <trkpt lat="43.67295" lon="1.11182">
        <ele>203</ele>
        <time>2025-12-19T10:03:23Z</time>
      </trkpt>
      <trkpt lat="43.67296" lon="1.11186">
        <ele>203.2</ele>
        <time>2025-12-19T10:03:24Z</time>
      </trkpt>
      <trkpt lat="43.67296" lon="1.1119">
        <ele>203.4</ele>
        <time>2025-12-19T10:03:25Z</time>
      </trkpt>
      <trkpt lat="43.67297" lon="1.11194">
        <ele>203.4</ele>
        <time>2025-12-19T10:03:26Z</time>
      </trkpt>
      <trkpt lat="43.67297" lon="1.11198">
        <ele>203.6</ele>
        <time>2025-12-19T10:03:27Z</time>
      </trkpt>
      <trkpt lat="43.67297" lon="1.11203">
        <ele>203.8</ele>
        <time>2025-12-19T10:03:28Z</time>
      </trkpt>
      <trkpt lat="43.67297" lon="1.11206">
        <ele>204</ele>
        <time>2025-12-19T10:03:29Z</time>
      </trkpt>
      <trkpt lat="43.67296" lon="1.1121">
        <ele>204.2</ele>
        <time>2025-12-19T10:03:30Z</time>
      </trkpt>
      <trkpt lat="43.67296" lon="1.11214">
        <ele>204.4</ele>
        <time>2025-12-19T10:03:31Z</time>
      </trkpt>
      <trkpt lat="43.67296" lon="1.11218">
        <ele>204.6</ele>
        <time>2025-12-19T10:03:32Z</time>
      </trkpt>
      <trkpt lat="43.67295" lon="1.11222">
        <ele>204.8</ele>
        <time>2025-12-19T10:03:33Z</time>
      </trkpt>
      <trkpt lat="43.67295" lon="1.11226">
        <ele>205</ele>
        <time>2025-12-19T10:03:34Z</time>
      </trkpt>
      <trkpt lat="43.67294" lon="1.1123">
        <ele>205.4</ele>
        <time>2025-12-19T10:03:35Z</time>
      </trkpt>
      <trkpt lat="43.67294" lon="1.11234">
        <ele>205.6</ele>
        <time>2025-12-19T10:03:36Z</time>
      </trkpt>
      <trkpt lat="43.67293" lon="1.11238">
        <ele>205.8</ele>
        <time>2025-12-19T10:03:37Z</time>
      </trkpt>
      <trkpt lat="43.67293" lon="1.11242">
        <ele>205.8</ele>
        <time>2025-12-19T10:03:38Z</time>
      </trkpt>
      <trkpt lat="43.67293" lon="1.11245">
        <ele>206</ele>
        <time>2025-12-19T10:03:39Z</time>
      </trkpt>
      <trkpt lat="43.67292" lon="1.11249">
        <ele>206.2</ele>
        <time>2025-12-19T10:03:40Z</time>
      </trkpt>
      <trkpt lat="43.67292" lon="1.11253">
        <ele>206.6</ele>
        <time>2025-12-19T10:03:41Z</time>
      </trkpt>
      <trkpt lat="43.67291" lon="1.11257">
        <ele>206.8</ele>
        <time>2025-12-19T10:03:42Z</time>
      </trkpt>
      <trkpt lat="43.67291" lon="1.1126">
        <ele>207</ele>
        <time>2025-12-19T10:03:43Z</time>
      </trkpt>
      <trkpt lat="43.6729" lon="1.11264">
        <ele>207.2</ele>
        <time>2025-12-19T10:03:44Z</time>
      </trkpt>
      <trkpt lat="43.6729" lon="1.11267">
        <ele>207.4</ele>
        <time>2025-12-19T10:03:45Z</time>
      </trkpt>
      <trkpt lat="43.6729" lon="1.11271">
        <ele>207.6</ele>
        <time>2025-12-19T10:03:46Z</time>
      </trkpt>
      <trkpt lat="43.67289" lon="1.11275">
        <ele>207.8</ele>
        <time>2025-12-19T10:03:47Z</time>
      </trkpt>
      <trkpt lat="43.67289" lon="1.11279">
        <ele>208</ele>
        <time>2025-12-19T10:03:48Z</time>
      </trkpt>
      <trkpt lat="43.67288" lon="1.11283">
        <ele>208.2</ele>
        <time>2025-12-19T10:03:49Z</time>
      </trkpt>
      <trkpt lat="43.67288" lon="1.11287">
        <ele>208.4</ele>
        <time>2025-12-19T10:03:50Z</time>
      </trkpt>
      <trkpt lat="43.67287" lon="1.1129">
        <ele>208.6</ele>
        <time>2025-12-19T10:03:51Z</time>
      </trkpt>
      <trkpt lat="43.67287" lon="1.11294">
        <ele>209</ele>
        <time>2025-12-19T10:03:52Z</time>
      </trkpt>
      <trkpt lat="43.67287" lon="1.11297">
        <ele>209.2</ele>
        <time>2025-12-19T10:03:53Z</time>
      </trkpt>
      <trkpt lat="43.67286" lon="1.113">
        <ele>209.4</ele>
        <time>2025-12-19T10:03:54Z</time>
      </trkpt>
      <trkpt lat="43.67286" lon="1.11304">
        <ele>209.6</ele>
        <time>2025-12-19T10:03:55Z</time>
      </trkpt>
      <trkpt lat="43.67285" lon="1.11308">
        <ele>209.8</ele>
        <time>2025-12-19T10:03:56Z</time>
      </trkpt>
      <trkpt lat="43.67285" lon="1.11311">
        <ele>210</ele>
        <time>2025-12-19T10:03:57Z</time>
      </trkpt>
      <trkpt lat="43.67284" lon="1.11315">
        <ele>210.4</ele>
        <time>2025-12-19T10:03:58Z</time>
      </trkpt>
      <trkpt lat="43.67284" lon="1.11318">
        <ele>210.6</ele>
        <time>2025-12-19T10:03:59Z</time>
      </trkpt>
      <trkpt lat="43.67284" lon="1.11321">
        <ele>210.8</ele>
        <time>2025-12-19T10:04:00Z</time>
      </trkpt>
      <trkpt lat="43.67283" lon="1.11325">
        <ele>211</ele>
        <time>2025-12-19T10:04:01Z</time>
      </trkpt>
      <trkpt lat="43.67283" lon="1.11328">
        <ele>211.2</ele>
        <time>2025-12-19T10:04:02Z</time>
      </trkpt>
      <trkpt lat="43.67283" lon="1.11331">
        <ele>211.4</ele>
        <time>2025-12-19T10:04:03Z</time>
      </trkpt>
      <trkpt lat="43.67282" lon="1.11334">
        <ele>211.8</ele>
        <time>2025-12-19T10:04:04Z</time>
      </trkpt>
      <trkpt lat="43.67282" lon="1.11337">
        <ele>212</ele>
        <time>2025-12-19T10:04:05Z</time>
      </trkpt>
      <trkpt lat="43.67282" lon="1.11341">
        <ele>212.2</ele>
        <time>2025-12-19T10:04:06Z</time>
      </trkpt>
      <trkpt lat="43.67281" lon="1.11344">
        <ele>212.4</ele>
        <time>2025-12-19T10:04:07Z</time>
      </trkpt>
      <trkpt lat="43.67281" lon="1.11348">
        <ele>212.8</ele>
        <time>2025-12-19T10:04:08Z</time>
      </trkpt>
      <trkpt lat="43.6728" lon="1.11351">
        <ele>213</ele>
        <time>2025-12-19T10:04:09Z</time>
      </trkpt>
      <trkpt lat="43.6728" lon="1.11355">
        <ele>213.2</ele>
        <time>2025-12-19T10:04:10Z</time>
      </trkpt>
      <trkpt lat="43.6728" lon="1.11358">
        <ele>213.6</ele>
        <time>2025-12-19T10:04:11Z</time>
      </trkpt>
      <trkpt lat="43.6728" lon="1.11362">
        <ele>213.8</ele>
        <time>2025-12-19T10:04:12Z</time>
      </trkpt>
      <trkpt lat="43.67279" lon="1.11365">
        <ele>214.2</ele>
        <time>2025-12-19T10:04:13Z</time>
      </trkpt>
      <trkpt lat="43.67279" lon="1.11368">
        <ele>214.4</ele>
        <time>2025-12-19T10:04:14Z</time>
      </trkpt>
      <trkpt lat="43.67278" lon="1.11371">
        <ele>214.6</ele>
        <time>2025-12-19T10:04:15Z</time>
      </trkpt>
      <trkpt lat="43.67278" lon="1.11375">
        <ele>215</ele>
        <time>2025-12-19T10:04:16Z</time>
      </trkpt>
      <trkpt lat="43.67277" lon="1.11378">
        <ele>215.2</ele>
        <time>2025-12-19T10:04:17Z</time>
      </trkpt>
      <trkpt lat="43.67277" lon="1.11382">
        <ele>215.4</ele>
        <time>2025-12-19T10:04:18Z</time>
      </trkpt>
      <trkpt lat="43.67277" lon="1.11386">
        <ele>215.6</ele>
        <time>2025-12-19T10:04:19Z</time>
      </trkpt>
      <trkpt lat="43.67276" lon="1.11389">
        <ele>216</ele>
        <time>2025-12-19T10:04:20Z</time>
      </trkpt>
      <trkpt lat="43.67276" lon="1.11393">
        <ele>216.2</ele>
        <time>2025-12-19T10:04:21Z</time>
      </trkpt>
      <trkpt lat="43.67276" lon="1.11396">
        <ele>216.4</ele>
        <time>2025-12-19T10:04:22Z</time>
      </trkpt>
      <trkpt lat="43.67276" lon="1.11399">
        <ele>216.6</ele>
        <time>2025-12-19T10:04:23Z</time>
      </trkpt>
      <trkpt lat="43.67275" lon="1.11403">
        <ele>217</ele>
        <time>2025-12-19T10:04:24Z</time>
      </trkpt>
      <trkpt lat="43.67275" lon="1.11406">
        <ele>217.2</ele>
        <time>2025-12-19T10:04:25Z</time>
      </trkpt>
      <trkpt lat="43.67274" lon="1.11409">
        <ele>217.6</ele>
        <time>2025-12-19T10:04:26Z</time>
      </trkpt>
      <trkpt lat="43.67274" lon="1.11412">
        <ele>217.8</ele>
        <time>2025-12-19T10:04:27Z</time>
      </trkpt>
      <trkpt lat="43.67274" lon="1.11416">
        <ele>218</ele>
        <time>2025-12-19T10:04:28Z</time>
      </trkpt>
      <trkpt lat="43.67274" lon="1.11419">
        <ele>218.4</ele>
        <time>2025-12-19T10:04:29Z</time>
      </trkpt>
      <trkpt lat="43.67273" lon="1.11423">
        <ele>218.8</ele>
        <time>2025-12-19T10:04:30Z</time>
      </trkpt>
      <trkpt lat="43.67273" lon="1.11426">
        <ele>219</ele>
        <time>2025-12-19T10:04:31Z</time>
      </trkpt>
      <trkpt lat="43.67272" lon="1.1143">
        <ele>219.4</ele>
        <time>2025-12-19T10:04:32Z</time>
      </trkpt>
      <trkpt lat="43.67272" lon="1.11433">
        <ele>219.6</ele>
        <time>2025-12-19T10:04:33Z</time>
      </trkpt>
      <trkpt lat="43.67272" lon="1.11436">
        <ele>220</ele>
        <time>2025-12-19T10:04:34Z</time>
      </trkpt>
      <trkpt lat="43.67271" lon="1.1144">
        <ele>220.2</ele>
        <time>2025-12-19T10:04:35Z</time>
      </trkpt>
      <trkpt lat="43.67271" lon="1.11443">
        <ele>220.4</ele>
        <time>2025-12-19T10:04:36Z</time>
      </trkpt>
      <trkpt lat="43.67271" lon="1.11446">
        <ele>220.8</ele>
        <time>2025-12-19T10:04:37Z</time>
      </trkpt>
      <trkpt lat="43.6727" lon="1.11449">
        <ele>221</ele>
        <time>2025-12-19T10:04:38Z</time>
      </trkpt>
      <trkpt lat="43.6727" lon="1.11452">
        <ele>221.4</ele>
        <time>2025-12-19T10:04:39Z</time>
      </trkpt>
      <trkpt lat="43.67269" lon="1.11455">
        <ele>221.8</ele>
        <time>2025-12-19T10:04:40Z</time>
      </trkpt>
      <trkpt lat="43.67269" lon="1.11459">
        <ele>222</ele>
        <time>2025-12-19T10:04:41Z</time>
      </trkpt>
      <trkpt lat="43.67268" lon="1.11462">
        <ele>222.2</ele>
        <time>2025-12-19T10:04:42Z</time>
      </trkpt>
      <trkpt lat="43.67268" lon="1.11465">
        <ele>222.6</ele>
        <time>2025-12-19T10:04:43Z</time>
      </trkpt>
      <trkpt lat="43.67268" lon="1.11468">
        <ele>222.8</ele>
        <time>2025-12-19T10:04:44Z</time>
      </trkpt>
      <trkpt lat="43.67269" lon="1.11471">
        <ele>223</ele>
        <time>2025-12-19T10:04:45Z</time>
      </trkpt>
      <trkpt lat="43.6727" lon="1.11473">
        <ele>223.2</ele>
        <time>2025-12-19T10:04:46Z</time>
      </trkpt>
      <trkpt lat="43.67272" lon="1.11474">
        <ele>223.4</ele>
        <time>2025-12-19T10:04:47Z</time>
      </trkpt>
      <trkpt lat="43.67274" lon="1.11476">
        <ele>223.4</ele>
        <time>2025-12-19T10:04:48Z</time>
      </trkpt>
      <trkpt lat="43.67277" lon="1.11477">
        <ele>223.6</ele>
        <time>2025-12-19T10:04:49Z</time>
      </trkpt>
      <trkpt lat="43.6728" lon="1.11478">
        <ele>223.8</ele>
        <time>2025-12-19T10:04:50Z</time>
      </trkpt>
      <trkpt lat="43.67283" lon="1.11479">
        <ele>223.8</ele>
        <time>2025-12-19T10:04:51Z</time>
      </trkpt>
      <trkpt lat="43.67287" lon="1.1148">
        <ele>224</ele>
        <time>2025-12-19T10:04:52Z</time>
      </trkpt>
      <trkpt lat="43.6729" lon="1.11481">
        <ele>224</ele>
        <time>2025-12-19T10:04:53Z</time>
      </trkpt>
      <trkpt lat="43.67293" lon="1.11482">
        <ele>224</ele>
        <time>2025-12-19T10:04:54Z</time>
      </trkpt>
      <trkpt lat="43.67296" lon="1.11483">
        <ele>224</ele>
        <time>2025-12-19T10:04:55Z</time>
      </trkpt>
      <trkpt lat="43.67299" lon="1.11484">
        <ele>224</ele>
        <time>2025-12-19T10:04:56Z</time>
      </trkpt>
      <trkpt lat="43.67302" lon="1.11485">
        <ele>224.2</ele>
        <time>2025-12-19T10:04:57Z</time>
      </trkpt>
      <trkpt lat="43.67305" lon="1.11486">
        <ele>224.2</ele>
        <time>2025-12-19T10:04:58Z</time>
      </trkpt>
      <trkpt lat="43.67308" lon="1.11487">
        <ele>224.2</ele>
        <time>2025-12-19T10:04:59Z</time>
      </trkpt>
      <trkpt lat="43.67311" lon="1.11488">
        <ele>224.4</ele>
        <time>2025-12-19T10:05:00Z</time>
      </trkpt>
      <trkpt lat="43.67314" lon="1.11489">
        <ele>224.4</ele>
        <time>2025-12-19T10:05:01Z</time>
      </trkpt>
      <trkpt lat="43.67317" lon="1.11489">
        <ele>224.4</ele>
        <time>2025-12-19T10:05:02Z</time>
      </trkpt>
      <trkpt lat="43.6732" lon="1.1149">
        <ele>224.6</ele>
        <time>2025-12-19T10:05:03Z</time>
      </trkpt>
      <trkpt lat="43.67324" lon="1.11491">
        <ele>224.6</ele>
        <time>2025-12-19T10:05:04Z</time>
      </trkpt>
      <trkpt lat="43.67327" lon="1.11492">
        <ele>224.8</ele>
        <time>2025-12-19T10:05:05Z</time>
      </trkpt>
      <trkpt lat="43.6733" lon="1.11493">
        <ele>224.8</ele>
        <time>2025-12-19T10:05:06Z</time>
      </trkpt>
      <trkpt lat="43.67333" lon="1.11494">
        <ele>225</ele>
        <time>2025-12-19T10:05:07Z</time>
      </trkpt>
      <trkpt lat="43.67336" lon="1.11494">
        <ele>225.2</ele>
        <time>2025-12-19T10:05:08Z</time>
      </trkpt>
      <trkpt lat="43.67339" lon="1.11495">
        <ele>225.2</ele>
        <time>2025-12-19T10:05:09Z</time>
      </trkpt>
      <trkpt lat="43.67342" lon="1.11496">
        <ele>225.4</ele>
        <time>2025-12-19T10:05:10Z</time>
      </trkpt>
      <trkpt lat="43.67345" lon="1.11497">
        <ele>225.6</ele>
        <time>2025-12-19T10:05:11Z</time>
      </trkpt>
      <trkpt lat="43.67348" lon="1.11498">
        <ele>225.8</ele>
        <time>2025-12-19T10:05:12Z</time>
      </trkpt>
      <trkpt lat="43.67351" lon="1.11498">
        <ele>226</ele>
        <time>2025-12-19T10:05:13Z</time>
      </trkpt>
      <trkpt lat="43.67353" lon="1.11499">
        <ele>226.2</ele>
        <time>2025-12-19T10:05:14Z</time>
      </trkpt>
      <trkpt lat="43.67356" lon="1.115">
        <ele>226.2</ele>
        <time>2025-12-19T10:05:15Z</time>
      </trkpt>
      <trkpt lat="43.67359" lon="1.11501">
        <ele>226.4</ele>
        <time>2025-12-19T10:05:16Z</time>
      </trkpt>
      <trkpt lat="43.67362" lon="1.11501">
        <ele>226.4</ele>
        <time>2025-12-19T10:05:17Z</time>
      </trkpt>
      <trkpt lat="43.67365" lon="1.11501">
        <ele>226.6</ele>
        <time>2025-12-19T10:05:18Z</time>
      </trkpt>
      <trkpt lat="43.67368" lon="1.11502">
        <ele>226.8</ele>
        <time>2025-12-19T10:05:19Z</time>
      </trkpt>
      <trkpt lat="43.67371" lon="1.11503">
        <ele>227</ele>
        <time>2025-12-19T10:05:20Z</time>
      </trkpt>
      <trkpt lat="43.67373" lon="1.11503">
        <ele>227.2</ele>
        <time>2025-12-19T10:05:21Z</time>
      </trkpt>
      <trkpt lat="43.67375" lon="1.11504">
        <ele>227.4</ele>
        <time>2025-12-19T10:05:22Z</time>
      </trkpt>
      <trkpt lat="43.67377" lon="1.11505">
        <ele>227.8</ele>
        <time>2025-12-19T10:05:23Z</time>
      </trkpt>
      <trkpt lat="43.67379" lon="1.11505">
        <ele>228</ele>
        <time>2025-12-19T10:05:24Z</time>
      </trkpt>
      <trkpt lat="43.67382" lon="1.11505">
        <ele>228.2</ele>
        <time>2025-12-19T10:05:25Z</time>
      </trkpt>
      <trkpt lat="43.67386" lon="1.11506">
        <ele>228.2</ele>
        <time>2025-12-19T10:05:26Z</time>
      </trkpt>
      <trkpt lat="43.67389" lon="1.11506">
        <ele>228.4</ele>
        <time>2025-12-19T10:05:27Z</time>
      </trkpt>
      <trkpt lat="43.67392" lon="1.11506">
        <ele>228.6</ele>
        <time>2025-12-19T10:05:28Z</time>
      </trkpt>
      <trkpt lat="43.67394" lon="1.11506">
        <ele>228.8</ele>
        <time>2025-12-19T10:05:29Z</time>
      </trkpt>
      <trkpt lat="43.67397" lon="1.11506">
        <ele>229</ele>
        <time>2025-12-19T10:05:30Z</time>
      </trkpt>
      <trkpt lat="43.67399" lon="1.11506">
        <ele>229.2</ele>
        <time>2025-12-19T10:05:31Z</time>
      </trkpt>
      <trkpt lat="43.67401" lon="1.11507">
        <ele>229.4</ele>
        <time>2025-12-19T10:05:32Z</time>
      </trkpt>
      <trkpt lat="43.67403" lon="1.11508">
        <ele>229.6</ele>
        <time>2025-12-19T10:05:33Z</time>
      </trkpt>
      <trkpt lat="43.67405" lon="1.11508">
        <ele>229.8</ele>
        <time>2025-12-19T10:05:34Z</time>
      </trkpt>
      <trkpt lat="43.67408" lon="1.11509">
        <ele>230.2</ele>
        <time>2025-12-19T10:05:35Z</time>
      </trkpt>
      <trkpt lat="43.6741" lon="1.1151">
        <ele>230.4</ele>
        <time>2025-12-19T10:05:36Z</time>
      </trkpt>
      <trkpt lat="43.67412" lon="1.1151">
        <ele>230.6</ele>
        <time>2025-12-19T10:05:37Z</time>
      </trkpt>
      <trkpt lat="43.67414" lon="1.11511">
        <ele>230.8</ele>
        <time>2025-12-19T10:05:38Z</time>
      </trkpt>
      <trkpt lat="43.67417" lon="1.11511">
        <ele>231</ele>
        <time>2025-12-19T10:05:39Z</time>
      </trkpt>
      <trkpt lat="43.67419" lon="1.11512">
        <ele>231.2</ele>
        <time>2025-12-19T10:05:40Z</time>
      </trkpt>
      <trkpt lat="43.67421" lon="1.11512">
        <ele>231.6</ele>
        <time>2025-12-19T10:05:41Z</time>
      </trkpt>
      <trkpt lat="43.67423" lon="1.11513">
        <ele>231.8</ele>
        <time>2025-12-19T10:05:42Z</time>
      </trkpt>
      <trkpt lat="43.67425" lon="1.11513">
        <ele>232</ele>
        <time>2025-12-19T10:05:43Z</time>
      </trkpt>
      <trkpt lat="43.67427" lon="1.11514">
        <ele>232.2</ele>
        <time>2025-12-19T10:05:44Z</time>
      </trkpt>
      <trkpt lat="43.67429" lon="1.11514">
        <ele>232.4</ele>
        <time>2025-12-19T10:05:45Z</time>
      </trkpt>
      <trkpt lat="43.67431" lon="1.11515">
        <ele>232.6</ele>
        <time>2025-12-19T10:05:46Z</time>
      </trkpt>
      <trkpt lat="43.67433" lon="1.11515">
        <ele>232.8</ele>
        <time>2025-12-19T10:05:47Z</time>
      </trkpt>
      <trkpt lat="43.67435" lon="1.11516">
        <ele>233</ele>
        <time>2025-12-19T10:05:48Z</time>
      </trkpt>
      <trkpt lat="43.67437" lon="1.11516">
        <ele>233.4</ele>
        <time>2025-12-19T10:05:49Z</time>
      </trkpt>
      <trkpt lat="43.67439" lon="1.11517">
        <ele>233.6</ele>
        <time>2025-12-19T10:05:50Z</time>
      </trkpt>
      <trkpt lat="43.67442" lon="1.11517">
        <ele>233.8</ele>
        <time>2025-12-19T10:05:51Z</time>
      </trkpt>
      <trkpt lat="43.67444" lon="1.11518">
        <ele>234</ele>
        <time>2025-12-19T10:05:52Z</time>
      </trkpt>
      <trkpt lat="43.67446" lon="1.11519">
        <ele>234.2</ele>
        <time>2025-12-19T10:05:53Z</time>
      </trkpt>
      <trkpt lat="43.67448" lon="1.11519">
        <ele>234.4</ele>
        <time>2025-12-19T10:05:54Z</time>
      </trkpt>
      <trkpt lat="43.6745" lon="1.11519">
        <ele>234.8</ele>
        <time>2025-12-19T10:05:55Z</time>
      </trkpt>
      <trkpt lat="43.67451" lon="1.11519">
        <ele>235</ele>
        <time>2025-12-19T10:05:56Z</time>
      </trkpt>
      <trkpt lat="43.67453" lon="1.1152">
        <ele>235.2</ele>
        <time>2025-12-19T10:05:57Z</time>
      </trkpt>
      <trkpt lat="43.67454" lon="1.1152">
        <ele>235.4</ele>
        <time>2025-12-19T10:05:58Z</time>
      </trkpt>
      <trkpt lat="43.67456" lon="1.1152">
        <ele>235.8</ele>
        <time>2025-12-19T10:05:59Z</time>
      </trkpt>
      <trkpt lat="43.67458" lon="1.1152">
        <ele>236</ele>
        <time>2025-12-19T10:06:00Z</time>
      </trkpt>
      <trkpt lat="43.6746" lon="1.11521">
        <ele>236.4</ele>
        <time>2025-12-19T10:06:01Z</time>
      </trkpt>
      <trkpt lat="43.67462" lon="1.11521">
        <ele>236.6</ele>
        <time>2025-12-19T10:06:02Z</time>
      </trkpt>
      <trkpt lat="43.67464" lon="1.11522">
        <ele>236.8</ele>
        <time>2025-12-19T10:06:03Z</time>
      </trkpt>
      <trkpt lat="43.67466" lon="1.11522">
        <ele>237.2</ele>
        <time>2025-12-19T10:06:04Z</time>
      </trkpt>
      <trkpt lat="43.67468" lon="1.11522">
        <ele>237.4</ele>
        <time>2025-12-19T10:06:05Z</time>
      </trkpt>
      <trkpt lat="43.67469" lon="1.11523">
        <ele>237.6</ele>
        <time>2025-12-19T10:06:06Z</time>
      </trkpt>
      <trkpt lat="43.67471" lon="1.11523">
        <ele>237.8</ele>
        <time>2025-12-19T10:06:07Z</time>
      </trkpt>
      <trkpt lat="43.67473" lon="1.11523">
        <ele>238</ele>
        <time>2025-12-19T10:06:08Z</time>
      </trkpt>
      <trkpt lat="43.67475" lon="1.11524">
        <ele>238.2</ele>
        <time>2025-12-19T10:06:09Z</time>
      </trkpt>
      <trkpt lat="43.67476" lon="1.11524">
        <ele>238.6</ele>
        <time>2025-12-19T10:06:10Z</time>
      </trkpt>
      <trkpt lat="43.67478" lon="1.11524">
        <ele>238.8</ele>
        <time>2025-12-19T10:06:11Z</time>
      </trkpt>
      <trkpt lat="43.6748" lon="1.11525">
        <ele>239</ele>
        <time>2025-12-19T10:06:12Z</time>
      </trkpt>
      <trkpt lat="43.67482" lon="1.11525">
        <ele>239.2</ele>
        <time>2025-12-19T10:06:13Z</time>
      </trkpt>
      <trkpt lat="43.67484" lon="1.11525">
        <ele>239.4</ele>
        <time>2025-12-19T10:06:14Z</time>
      </trkpt>
      <trkpt lat="43.67486" lon="1.11526">
        <ele>239.8</ele>
        <time>2025-12-19T10:06:15Z</time>
      </trkpt>
      <trkpt lat="43.67488" lon="1.11527">
        <ele>240</ele>
        <time>2025-12-19T10:06:16Z</time>
      </trkpt>
      <trkpt lat="43.6749" lon="1.11528">
        <ele>240.2</ele>
        <time>2025-12-19T10:06:17Z</time>
      </trkpt>
      <trkpt lat="43.67491" lon="1.11528">
        <ele>240.6</ele>
        <time>2025-12-19T10:06:18Z</time>
      </trkpt>
      <trkpt lat="43.67493" lon="1.11528">
        <ele>240.8</ele>
        <time>2025-12-19T10:06:19Z</time>
      </trkpt>
      <trkpt lat="43.67495" lon="1.11529">
        <ele>241</ele>
        <time>2025-12-19T10:06:20Z</time>
      </trkpt>
      <trkpt lat="43.67497" lon="1.1153">
        <ele>241.4</ele>
        <time>2025-12-19T10:06:21Z</time>
      </trkpt>
      <trkpt lat="43.67499" lon="1.11531">
        <ele>241.6</ele>
        <time>2025-12-19T10:06:22Z</time>
      </trkpt>
      <trkpt lat="43.67501" lon="1.11531">
        <ele>241.8</ele>
        <time>2025-12-19T10:06:23Z</time>
      </trkpt>
      <trkpt lat="43.67503" lon="1.11532">
        <ele>242</ele>
        <time>2025-12-19T10:06:24Z</time>
      </trkpt>
      <trkpt lat="43.67505" lon="1.11533">
        <ele>242.2</ele>
        <time>2025-12-19T10:06:25Z</time>
      </trkpt>
      <trkpt lat="43.67506" lon="1.11534">
        <ele>242.6</ele>
        <time>2025-12-19T10:06:26Z</time>
      </trkpt>
      <trkpt lat="43.67508" lon="1.11535">
        <ele>242.8</ele>
        <time>2025-12-19T10:06:27Z</time>
      </trkpt>
      <trkpt lat="43.6751" lon="1.11536">
        <ele>243</ele>
        <time>2025-12-19T10:06:28Z</time>
      </trkpt>
      <trkpt lat="43.67512" lon="1.11537">
        <ele>243.4</ele>
        <time>2025-12-19T10:06:29Z</time>
      </trkpt>
      <trkpt lat="43.67514" lon="1.11538">
        <ele>243.6</ele>
        <time>2025-12-19T10:06:30Z</time>
      </trkpt>
      <trkpt lat="43.67515" lon="1.11539">
        <ele>243.8</ele>
        <time>2025-12-19T10:06:31Z</time>
      </trkpt>
      <trkpt lat="43.67517" lon="1.1154">
        <ele>244</ele>
        <time>2025-12-19T10:06:32Z</time>
      </trkpt>
      <trkpt lat="43.67519" lon="1.11541">
        <ele>244.2</ele>
        <time>2025-12-19T10:06:33Z</time>
      </trkpt>
      <trkpt lat="43.67521" lon="1.11542">
        <ele>244.4</ele>
        <time>2025-12-19T10:06:34Z</time>
      </trkpt>
      <trkpt lat="43.67523" lon="1.11543">
        <ele>244.6</ele>
        <time>2025-12-19T10:06:35Z</time>
      </trkpt>
      <trkpt lat="43.67525" lon="1.11544">
        <ele>244.8</ele>
        <time>2025-12-19T10:06:36Z</time>
      </trkpt>
      <trkpt lat="43.67527" lon="1.11545">
        <ele>245</ele>
        <time>2025-12-19T10:06:37Z</time>
      </trkpt>
      <trkpt lat="43.67528" lon="1.11546">
        <ele>245.2</ele>
        <time>2025-12-19T10:06:38Z</time>
      </trkpt>
      <trkpt lat="43.6753" lon="1.11547">
        <ele>245.4</ele>
        <time>2025-12-19T10:06:39Z</time>
      </trkpt>
      <trkpt lat="43.67532" lon="1.11549">
        <ele>245.6</ele>
        <time>2025-12-19T10:06:40Z</time>
      </trkpt>
      <trkpt lat="43.67534" lon="1.11549">
        <ele>245.8</ele>
        <time>2025-12-19T10:06:41Z</time>
      </trkpt>
      <trkpt lat="43.67536" lon="1.11551">
        <ele>246</ele>
        <time>2025-12-19T10:06:42Z</time>
      </trkpt>
      <trkpt lat="43.67538" lon="1.11552">
        <ele>246.2</ele>
        <time>2025-12-19T10:06:43Z</time>
      </trkpt>
      <trkpt lat="43.67539" lon="1.11553">
        <ele>246.4</ele>
        <time>2025-12-19T10:06:44Z</time>
      </trkpt>
      <trkpt lat="43.67541" lon="1.11554">
        <ele>246.6</ele>
        <time>2025-12-19T10:06:45Z</time>
      </trkpt>
      <trkpt lat="43.67543" lon="1.11555">
        <ele>246.8</ele>
        <time>2025-12-19T10:06:46Z</time>
      </trkpt>
      <trkpt lat="43.67545" lon="1.11556">
        <ele>246.8</ele>
        <time>2025-12-19T10:06:47Z</time>
      </trkpt>
      <trkpt lat="43.67547" lon="1.11557">
        <ele>247.2</ele>
        <time>2025-12-19T10:06:48Z</time>
      </trkpt>
      <trkpt lat="43.67549" lon="1.11558">
        <ele>247.4</ele>
        <time>2025-12-19T10:06:49Z</time>
      </trkpt>
      <trkpt lat="43.67551" lon="1.1156">
        <ele>247.4</ele>
        <time>2025-12-19T10:06:50Z</time>
      </trkpt>
      <trkpt lat="43.67553" lon="1.11561">
        <ele>247.6</ele>
        <time>2025-12-19T10:06:51Z</time>
      </trkpt>
      <trkpt lat="43.67555" lon="1.11562">
        <ele>247.8</ele>
        <time>2025-12-19T10:06:52Z</time>
      </trkpt>
      <trkpt lat="43.67556" lon="1.11563">
        <ele>248</ele>
        <time>2025-12-19T10:06:53Z</time>
      </trkpt>
      <trkpt lat="43.67558" lon="1.11565">
        <ele>248.2</ele>
        <time>2025-12-19T10:06:54Z</time>
      </trkpt>
      <trkpt lat="43.6756" lon="1.11566">
        <ele>248.4</ele>
        <time>2025-12-19T10:06:55Z</time>
      </trkpt>
      <trkpt lat="43.67562" lon="1.11567">
        <ele>248.6</ele>
        <time>2025-12-19T10:06:56Z</time>
      </trkpt>
      <trkpt lat="43.67564" lon="1.11568">
        <ele>248.8</ele>
        <time>2025-12-19T10:06:57Z</time>
      </trkpt>
      <trkpt lat="43.67566" lon="1.11569">
        <ele>249</ele>
        <time>2025-12-19T10:06:58Z</time>
      </trkpt>
      <trkpt lat="43.67568" lon="1.11571">
        <ele>249.2</ele>
        <time>2025-12-19T10:06:59Z</time>
      </trkpt>
      <trkpt lat="43.67569" lon="1.11572">
        <ele>249.4</ele>
        <time>2025-12-19T10:07:00Z</time>
      </trkpt>
      <trkpt lat="43.67571" lon="1.11573">
        <ele>249.6</ele>
        <time>2025-12-19T10:07:01Z</time>
      </trkpt>
      <trkpt lat="43.67573" lon="1.11574">
        <ele>249.8</ele>
        <time>2025-12-19T10:07:02Z</time>
      </trkpt>
      <trkpt lat="43.67575" lon="1.11575">
        <ele>250</ele>
        <time>2025-12-19T10:07:03Z</time>
      </trkpt>
      <trkpt lat="43.67577" lon="1.11577">
        <ele>250.2</ele>
        <time>2025-12-19T10:07:04Z</time>
      </trkpt>
      <trkpt lat="43.6758" lon="1.11578">
        <ele>250.4</ele>
        <time>2025-12-19T10:07:05Z</time>
      </trkpt>
      <trkpt lat="43.67581" lon="1.11579">
        <ele>250.6</ele>
        <time>2025-12-19T10:07:06Z</time>
      </trkpt>
      <trkpt lat="43.67583" lon="1.1158">
        <ele>250.8</ele>
        <time>2025-12-19T10:07:07Z</time>
      </trkpt>
      <trkpt lat="43.67585" lon="1.11581">
        <ele>251</ele>
        <time>2025-12-19T10:07:08Z</time>
      </trkpt>
      <trkpt lat="43.67587" lon="1.11583">
        <ele>251.2</ele>
        <time>2025-12-19T10:07:09Z</time>
      </trkpt>
      <trkpt lat="43.67589" lon="1.11584">
        <ele>251.4</ele>
        <time>2025-12-19T10:07:10Z</time>
      </trkpt>
      <trkpt lat="43.67591" lon="1.11585">
        <ele>251.4</ele>
        <time>2025-12-19T10:07:11Z</time>
      </trkpt>
      <trkpt lat="43.67593" lon="1.11586">
        <ele>251.6</ele>
        <time>2025-12-19T10:07:12Z</time>
      </trkpt>
      <trkpt lat="43.67595" lon="1.11588">
        <ele>252</ele>
        <time>2025-12-19T10:07:13Z</time>
      </trkpt>
      <trkpt lat="43.67597" lon="1.11589">
        <ele>252.2</ele>
        <time>2025-12-19T10:07:14Z</time>
      </trkpt>
      <trkpt lat="43.67599" lon="1.1159">
        <ele>252.4</ele>
        <time>2025-12-19T10:07:15Z</time>
      </trkpt>
      <trkpt lat="43.67601" lon="1.11591">
        <ele>252.6</ele>
        <time>2025-12-19T10:07:16Z</time>
      </trkpt>
      <trkpt lat="43.67603" lon="1.11592">
        <ele>252.8</ele>
        <time>2025-12-19T10:07:17Z</time>
      </trkpt>
      <trkpt lat="43.67605" lon="1.11593">
        <ele>253</ele>
        <time>2025-12-19T10:07:18Z</time>
      </trkpt>
      <trkpt lat="43.67607" lon="1.11593">
        <ele>253.4</ele>
        <time>2025-12-19T10:07:19Z</time>
      </trkpt>
      <trkpt lat="43.67609" lon="1.11594">
        <ele>253.6</ele>
        <time>2025-12-19T10:07:20Z</time>
      </trkpt>
      <trkpt lat="43.6761" lon="1.11594">
        <ele>253.8</ele>
        <time>2025-12-19T10:07:21Z</time>
      </trkpt>
      <trkpt lat="43.67612" lon="1.11595">
        <ele>254</ele>
        <time>2025-12-19T10:07:22Z</time>
      </trkpt>
      <trkpt lat="43.67614" lon="1.11595">
        <ele>254.2</ele>
        <time>2025-12-19T10:07:23Z</time>
      </trkpt>
      <trkpt lat="43.67615" lon="1.11595">
        <ele>254.4</ele>
        <time>2025-12-19T10:07:24Z</time>
      </trkpt>
      <trkpt lat="43.67617" lon="1.11595">
        <ele>254.8</ele>
        <time>2025-12-19T10:07:25Z</time>
      </trkpt>
      <trkpt lat="43.67618" lon="1.11594">
        <ele>255</ele>
        <time>2025-12-19T10:07:26Z</time>
      </trkpt>
      <trkpt lat="43.6762" lon="1.11595">
        <ele>255.4</ele>
        <time>2025-12-19T10:07:27Z</time>
      </trkpt>
      <trkpt lat="43.67622" lon="1.11595">
        <ele>255.6</ele>
        <time>2025-12-19T10:07:28Z</time>
      </trkpt>
      <trkpt lat="43.67623" lon="1.11595">
        <ele>255.8</ele>
        <time>2025-12-19T10:07:29Z</time>
      </trkpt>
      <trkpt lat="43.67625" lon="1.11596">
        <ele>256.2</ele>
        <time>2025-12-19T10:07:30Z</time>
      </trkpt>
      <trkpt lat="43.67627" lon="1.11596">
        <ele>256.4</ele>
        <time>2025-12-19T10:07:31Z</time>
      </trkpt>
      <trkpt lat="43.67629" lon="1.11596">
        <ele>256.6</ele>
        <time>2025-12-19T10:07:32Z</time>
      </trkpt>
      <trkpt lat="43.6763" lon="1.11596">
        <ele>256.8</ele>
        <time>2025-12-19T10:07:33Z</time>
      </trkpt>
      <trkpt lat="43.67632" lon="1.11597">
        <ele>257.2</ele>
        <time>2025-12-19T10:07:34Z</time>
      </trkpt>
      <trkpt lat="43.67634" lon="1.11596">
        <ele>257.4</ele>
        <time>2025-12-19T10:07:35Z</time>
      </trkpt>
      <trkpt lat="43.67636" lon="1.11595">
        <ele>257.6</ele>
        <time>2025-12-19T10:07:36Z</time>
      </trkpt>
      <trkpt lat="43.67638" lon="1.11595">
        <ele>258</ele>
        <time>2025-12-19T10:07:37Z</time>
      </trkpt>
      <trkpt lat="43.6764" lon="1.11595">
        <ele>258.2</ele>
        <time>2025-12-19T10:07:38Z</time>
      </trkpt>
      <trkpt lat="43.67641" lon="1.11595">
        <ele>258.4</ele>
        <time>2025-12-19T10:07:39Z</time>
      </trkpt>
      <trkpt lat="43.67643" lon="1.11594">
        <ele>258.8</ele>
        <time>2025-12-19T10:07:40Z</time>
      </trkpt>
      <trkpt lat="43.67644" lon="1.11594">
        <ele>259.2</ele>
        <time>2025-12-19T10:07:41Z</time>
      </trkpt>
      <trkpt lat="43.67646" lon="1.11594">
        <ele>259.4</ele>
        <time>2025-12-19T10:07:42Z</time>
      </trkpt>
      <trkpt lat="43.67647" lon="1.11594">
        <ele>259.6</ele>
        <time>2025-12-19T10:07:43Z</time>
      </trkpt>
      <trkpt lat="43.67649" lon="1.11593">
        <ele>260</ele>
        <time>2025-12-19T10:07:44Z</time>
      </trkpt>
      <trkpt lat="43.67651" lon="1.11593">
        <ele>260.2</ele>
        <time>2025-12-19T10:07:45Z</time>
      </trkpt>
      <trkpt lat="43.67652" lon="1.11593">
        <ele>260.4</ele>
        <time>2025-12-19T10:07:46Z</time>
      </trkpt>
      <trkpt lat="43.67654" lon="1.11592">
        <ele>260.6</ele>
        <time>2025-12-19T10:07:47Z</time>
      </trkpt>
      <trkpt lat="43.67656" lon="1.11592">
        <ele>260.8</ele>
        <time>2025-12-19T10:07:48Z</time>
      </trkpt>
      <trkpt lat="43.67658" lon="1.11592">
        <ele>261</ele>
        <time>2025-12-19T10:07:49Z</time>
      </trkpt>
      <trkpt lat="43.67659" lon="1.11591">
        <ele>261.4</ele>
        <time>2025-12-19T10:07:50Z</time>
      </trkpt>
      <trkpt lat="43.67661" lon="1.11591">
        <ele>261.6</ele>
        <time>2025-12-19T10:07:51Z</time>
      </trkpt>
      <trkpt lat="43.67662" lon="1.1159">
        <ele>261.8</ele>
        <time>2025-12-19T10:07:52Z</time>
      </trkpt>
      <trkpt lat="43.67664" lon="1.1159">
        <ele>262</ele>
        <time>2025-12-19T10:07:53Z</time>
      </trkpt>
      <trkpt lat="43.67665" lon="1.11589">
        <ele>262.2</ele>
        <time>2025-12-19T10:07:54Z</time>
      </trkpt>
      <trkpt lat="43.67667" lon="1.11589">
        <ele>262.4</ele>
        <time>2025-12-19T10:07:55Z</time>
      </trkpt>
      <trkpt lat="43.67669" lon="1.11588">
        <ele>262.6</ele>
        <time>2025-12-19T10:07:56Z</time>
      </trkpt>
      <trkpt lat="43.6767" lon="1.11588">
        <ele>263</ele>
        <time>2025-12-19T10:07:57Z</time>
      </trkpt>
      <trkpt lat="43.67672" lon="1.11587">
        <ele>263.2</ele>
        <time>2025-12-19T10:07:58Z</time>
      </trkpt>
      <trkpt lat="43.67673" lon="1.11586">
        <ele>263.4</ele>
        <time>2025-12-19T10:07:59Z</time>
      </trkpt>
      <trkpt lat="43.67674" lon="1.11585">
        <ele>263.6</ele>
        <time>2025-12-19T10:08:00Z</time>
      </trkpt>
      <trkpt lat="43.67676" lon="1.11585">
        <ele>263.8</ele>
        <time>2025-12-19T10:08:01Z</time>
      </trkpt>
      <trkpt lat="43.67677" lon="1.11585">
        <ele>264.2</ele>
        <time>2025-12-19T10:08:02Z</time>
      </trkpt>
      <trkpt lat="43.67679" lon="1.11585">
        <ele>264.4</ele>
        <time>2025-12-19T10:08:03Z</time>
      </trkpt>
      <trkpt lat="43.67681" lon="1.11585">
        <ele>264.6</ele>
        <time>2025-12-19T10:08:04Z</time>
      </trkpt>
      <trkpt lat="43.67683" lon="1.11585">
        <ele>265</ele>
        <time>2025-12-19T10:08:05Z</time>
      </trkpt>
      <trkpt lat="43.67684" lon="1.11584">
        <ele>265.2</ele>
        <time>2025-12-19T10:08:06Z</time>
      </trkpt>
      <trkpt lat="43.67686" lon="1.11584">
        <ele>265.4</ele>
        <time>2025-12-19T10:08:07Z</time>
      </trkpt>
      <trkpt lat="43.67688" lon="1.11583">
        <ele>265.6</ele>
        <time>2025-12-19T10:08:08Z</time>
      </trkpt>
      <trkpt lat="43.67689" lon="1.11582">
        <ele>265.8</ele>
        <time>2025-12-19T10:08:09Z</time>
      </trkpt>
      <trkpt lat="43.67691" lon="1.11582">
        <ele>266.2</ele>
        <time>2025-12-19T10:08:10Z</time>
      </trkpt>
      <trkpt lat="43.67692" lon="1.11581">
        <ele>266.4</ele>
        <time>2025-12-19T10:08:11Z</time>
      </trkpt>
      <trkpt lat="43.67694" lon="1.11581">
        <ele>266.6</ele>
        <time>2025-12-19T10:08:12Z</time>
      </trkpt>
      <trkpt lat="43.67696" lon="1.1158">
        <ele>266.8</ele>
        <time>2025-12-19T10:08:13Z</time>
      </trkpt>
      <trkpt lat="43.67697" lon="1.1158">
        <ele>267.2</ele>
        <time>2025-12-19T10:08:14Z</time>
      </trkpt>
      <trkpt lat="43.67699" lon="1.1158">
        <ele>267.4</ele>
        <time>2025-12-19T10:08:15Z</time>
      </trkpt>
      <trkpt lat="43.677" lon="1.11579">
        <ele>267.6</ele>
        <time>2025-12-19T10:08:16Z</time>
      </trkpt>
      <trkpt lat="43.67702" lon="1.11578">
        <ele>267.8</ele>
        <time>2025-12-19T10:08:17Z</time>
      </trkpt>
      <trkpt lat="43.67703" lon="1.11577">
        <ele>268.2</ele>
        <time>2025-12-19T10:08:18Z</time>
      </trkpt>
      <trkpt lat="43.67705" lon="1.11577">
        <ele>268.4</ele>
        <time>2025-12-19T10:08:19Z</time>
      </trkpt>
      <trkpt lat="43.67707" lon="1.11577">
        <ele>268.6</ele>
        <time>2025-12-19T10:08:20Z</time>
      </trkpt>
      <trkpt lat="43.67709" lon="1.11576">
        <ele>268.8</ele>
        <time>2025-12-19T10:08:21Z</time>
      </trkpt>
      <trkpt lat="43.6771" lon="1.11575">
        <ele>269</ele>
        <time>2025-12-19T10:08:22Z</time>
      </trkpt>
      <trkpt lat="43.67712" lon="1.11575">
        <ele>269.2</ele>
        <time>2025-12-19T10:08:23Z</time>
      </trkpt>
      <trkpt lat="43.67713" lon="1.11574">
        <ele>269.4</ele>
        <time>2025-12-19T10:08:24Z</time>
      </trkpt>
      <trkpt lat="43.67715" lon="1.11574">
        <ele>269.8</ele>
        <time>2025-12-19T10:08:25Z</time>
      </trkpt>
      <trkpt lat="43.67716" lon="1.11573">
        <ele>270</ele>
        <time>2025-12-19T10:08:26Z</time>
      </trkpt>
      <trkpt lat="43.67718" lon="1.11572">
        <ele>270.2</ele>
        <time>2025-12-19T10:08:27Z</time>
      </trkpt>
      <trkpt lat="43.67719" lon="1.11572">
        <ele>270.4</ele>
        <time>2025-12-19T10:08:28Z</time>
      </trkpt>
      <trkpt lat="43.6772" lon="1.11571">
        <ele>270.6</ele>
        <time>2025-12-19T10:08:29Z</time>
      </trkpt>
      <trkpt lat="43.67722" lon="1.1157">
        <ele>270.8</ele>
        <time>2025-12-19T10:08:30Z</time>
      </trkpt>
      <trkpt lat="43.67723" lon="1.11569">
        <ele>271.2</ele>
        <time>2025-12-19T10:08:31Z</time>
      </trkpt>
      <trkpt lat="43.67725" lon="1.11568">
        <ele>271.4</ele>
        <time>2025-12-19T10:08:32Z</time>
      </trkpt>
      <trkpt lat="43.67726" lon="1.11567">
        <ele>271.6</ele>
        <time>2025-12-19T10:08:33Z</time>
      </trkpt>
      <trkpt lat="43.67727" lon="1.11567">
        <ele>271.8</ele>
        <time>2025-12-19T10:08:34Z</time>
      </trkpt>
      <trkpt lat="43.67729" lon="1.11566">
        <ele>272</ele>
        <time>2025-12-19T10:08:35Z</time>
      </trkpt>
      <trkpt lat="43.67731" lon="1.11565">
        <ele>272.4</ele>
        <time>2025-12-19T10:08:36Z</time>
      </trkpt>
      <trkpt lat="43.67732" lon="1.11564">
        <ele>272.6</ele>
        <time>2025-12-19T10:08:37Z</time>
      </trkpt>
      <trkpt lat="43.67734" lon="1.11563">
        <ele>272.8</ele>
        <time>2025-12-19T10:08:38Z</time>
      </trkpt>
      <trkpt lat="43.67735" lon="1.11562">
        <ele>273</ele>
        <time>2025-12-19T10:08:39Z</time>
      </trkpt>
      <trkpt lat="43.67736" lon="1.11561">
        <ele>273.4</ele>
        <time>2025-12-19T10:08:40Z</time>
      </trkpt>
      <trkpt lat="43.67738" lon="1.1156">
        <ele>273.6</ele>
        <time>2025-12-19T10:08:41Z</time>
      </trkpt>
      <trkpt lat="43.67739" lon="1.11559">
        <ele>274</ele>
        <time>2025-12-19T10:08:42Z</time>
      </trkpt>
      <trkpt lat="43.67741" lon="1.11559">
        <ele>274.2</ele>
        <time>2025-12-19T10:08:43Z</time>
      </trkpt>
      <trkpt lat="43.67742" lon="1.11557">
        <ele>274.4</ele>
        <time>2025-12-19T10:08:44Z</time>
      </trkpt>
      <trkpt lat="43.67744" lon="1.11556">
        <ele>274.8</ele>
        <time>2025-12-19T10:08:45Z</time>
      </trkpt>
      <trkpt lat="43.67745" lon="1.11555">
        <ele>275</ele>
        <time>2025-12-19T10:08:46Z</time>
      </trkpt>
      <trkpt lat="43.67746" lon="1.11554">
        <ele>275.4</ele>
        <time>2025-12-19T10:08:47Z</time>
      </trkpt>
      <trkpt lat="43.67748" lon="1.11553">
        <ele>275.6</ele>
        <time>2025-12-19T10:08:48Z</time>
      </trkpt>
      <trkpt lat="43.67749" lon="1.11552">
        <ele>276</ele>
        <time>2025-12-19T10:08:49Z</time>
      </trkpt>
      <trkpt lat="43.67751" lon="1.11551">
        <ele>276.2</ele>
        <time>2025-12-19T10:08:50Z</time>
      </trkpt>
      <trkpt lat="43.67752" lon="1.1155">
        <ele>276.4</ele>
        <time>2025-12-19T10:08:51Z</time>
      </trkpt>
      <trkpt lat="43.67753" lon="1.11548">
        <ele>276.6</ele>
        <time>2025-12-19T10:08:52Z</time>
      </trkpt>
      <trkpt lat="43.67755" lon="1.11547">
        <ele>277</ele>
        <time>2025-12-19T10:08:53Z</time>
      </trkpt>
      <trkpt lat="43.67757" lon="1.11545">
        <ele>277.2</ele>
        <time>2025-12-19T10:08:54Z</time>
      </trkpt>
      <trkpt lat="43.67758" lon="1.11544">
        <ele>277.4</ele>
        <time>2025-12-19T10:08:55Z</time>
      </trkpt>
      <trkpt lat="43.6776" lon="1.11543">
        <ele>277.8</ele>
        <time>2025-12-19T10:08:56Z</time>
      </trkpt>
      <trkpt lat="43.67762" lon="1.11542">
        <ele>278</ele>
        <time>2025-12-19T10:08:57Z</time>
      </trkpt>
      <trkpt lat="43.67763" lon="1.11541">
        <ele>278.2</ele>
        <time>2025-12-19T10:08:58Z</time>
      </trkpt>
      <trkpt lat="43.67765" lon="1.1154">
        <ele>278.4</ele>
        <time>2025-12-19T10:08:59Z</time>
      </trkpt>
      <trkpt lat="43.67766" lon="1.11539">
        <ele>278.6</ele>
        <time>2025-12-19T10:09:00Z</time>
      </trkpt>
      <trkpt lat="43.67768" lon="1.11538">
        <ele>278.8</ele>
        <time>2025-12-19T10:09:01Z</time>
      </trkpt>
      <trkpt lat="43.6777" lon="1.11537">
        <ele>279</ele>
        <time>2025-12-19T10:09:02Z</time>
      </trkpt>
      <trkpt lat="43.67772" lon="1.11535">
        <ele>279.2</ele>
        <time>2025-12-19T10:09:03Z</time>
      </trkpt>
      <trkpt lat="43.67774" lon="1.11534">
        <ele>279.4</ele>
        <time>2025-12-19T10:09:04Z</time>
      </trkpt>
      <trkpt lat="43.67776" lon="1.11532">
        <ele>279.6</ele>
        <time>2025-12-19T10:09:05Z</time>
      </trkpt>
      <trkpt lat="43.67777" lon="1.11531">
        <ele>279.6</ele>
        <time>2025-12-19T10:09:06Z</time>
      </trkpt>
      <trkpt lat="43.67779" lon="1.11529">
        <ele>279.8</ele>
        <time>2025-12-19T10:09:07Z</time>
      </trkpt>
      <trkpt lat="43.67781" lon="1.11528">
        <ele>280</ele>
        <time>2025-12-19T10:09:08Z</time>
      </trkpt>
      <trkpt lat="43.67782" lon="1.11527">
        <ele>280.2</ele>
        <time>2025-12-19T10:09:09Z</time>
      </trkpt>
      <trkpt lat="43.67784" lon="1.11525">
        <ele>280.2</ele>
        <time>2025-12-19T10:09:10Z</time>
      </trkpt>
      <trkpt lat="43.67785" lon="1.11524">
        <ele>280.4</ele>
        <time>2025-12-19T10:09:11Z</time>
      </trkpt>
      <trkpt lat="43.67787" lon="1.11522">
        <ele>280.8</ele>
        <time>2025-12-19T10:09:12Z</time>
      </trkpt>
      <trkpt lat="43.67788" lon="1.11521">
        <ele>281</ele>
        <time>2025-12-19T10:09:13Z</time>
      </trkpt>
      <trkpt lat="43.6779" lon="1.1152">
        <ele>281.2</ele>
        <time>2025-12-19T10:09:14Z</time>
      </trkpt>
      <trkpt lat="43.67792" lon="1.1152">
        <ele>281.4</ele>
        <time>2025-12-19T10:09:15Z</time>
      </trkpt>
      <trkpt lat="43.67794" lon="1.1152">
        <ele>281.6</ele>
        <time>2025-12-19T10:09:16Z</time>
      </trkpt>
      <trkpt lat="43.67796" lon="1.11521">
        <ele>282</ele>
        <time>2025-12-19T10:09:17Z</time>
      </trkpt>
      <trkpt lat="43.67798" lon="1.11523">
        <ele>282</ele>
        <time>2025-12-19T10:09:18Z</time>
      </trkpt>
      <trkpt lat="43.678" lon="1.11525">
        <ele>282.2</ele>
        <time>2025-12-19T10:09:19Z</time>
      </trkpt>
      <trkpt lat="43.67803" lon="1.11527">
        <ele>282.4</ele>
        <time>2025-12-19T10:09:20Z</time>
      </trkpt>
      <trkpt lat="43.67805" lon="1.1153">
        <ele>282.6</ele>
        <time>2025-12-19T10:09:21Z</time>
      </trkpt>
      <trkpt lat="43.67807" lon="1.11532">
        <ele>282.8</ele>
        <time>2025-12-19T10:09:22Z</time>
      </trkpt>
      <trkpt lat="43.67809" lon="1.11535">
        <ele>283</ele>
        <time>2025-12-19T10:09:23Z</time>
      </trkpt>
      <trkpt lat="43.67811" lon="1.11537">
        <ele>283</ele>
        <time>2025-12-19T10:09:24Z</time>
      </trkpt>
      <trkpt lat="43.67814" lon="1.11539">
        <ele>283.2</ele>
        <time>2025-12-19T10:09:25Z</time>
      </trkpt>
      <trkpt lat="43.67816" lon="1.11541">
        <ele>283.4</ele>
        <time>2025-12-19T10:09:26Z</time>
      </trkpt>
      <trkpt lat="43.67818" lon="1.11544">
        <ele>283.6</ele>
        <time>2025-12-19T10:09:27Z</time>
      </trkpt>
      <trkpt lat="43.6782" lon="1.11547">
        <ele>283.8</ele>
        <time>2025-12-19T10:09:28Z</time>
      </trkpt>
      <trkpt lat="43.67823" lon="1.11549">
        <ele>284</ele>
        <time>2025-12-19T10:09:29Z</time>
      </trkpt>
      <trkpt lat="43.67825" lon="1.11552">
        <ele>284.2</ele>
        <time>2025-12-19T10:09:30Z</time>
      </trkpt>
      <trkpt lat="43.67827" lon="1.11555">
        <ele>284.4</ele>
        <time>2025-12-19T10:09:31Z</time>
      </trkpt>
      <trkpt lat="43.6783" lon="1.11558">
        <ele>284.4</ele>
        <time>2025-12-19T10:09:32Z</time>
      </trkpt>
      <trkpt lat="43.67832" lon="1.11561">
        <ele>284.6</ele>
        <time>2025-12-19T10:09:33Z</time>
      </trkpt>
      <trkpt lat="43.67834" lon="1.11564">
        <ele>284.8</ele>
        <time>2025-12-19T10:09:34Z</time>
      </trkpt>
      <trkpt lat="43.67837" lon="1.11567">
        <ele>285</ele>
        <time>2025-12-19T10:09:35Z</time>
      </trkpt>
      <trkpt lat="43.67839" lon="1.11569">
        <ele>285</ele>
        <time>2025-12-19T10:09:36Z</time>
      </trkpt>
      <trkpt lat="43.67842" lon="1.11572">
        <ele>285.2</ele>
        <time>2025-12-19T10:09:37Z</time>
      </trkpt>
      <trkpt lat="43.67845" lon="1.11575">
        <ele>285.4</ele>
        <time>2025-12-19T10:09:38Z</time>
      </trkpt>
      <trkpt lat="43.67847" lon="1.11578">
        <ele>285.6</ele>
        <time>2025-12-19T10:09:39Z</time>
      </trkpt>
      <trkpt lat="43.6785" lon="1.11581">
        <ele>285.6</ele>
        <time>2025-12-19T10:09:40Z</time>
      </trkpt>
      <trkpt lat="43.67852" lon="1.11584">
        <ele>285.6</ele>
        <time>2025-12-19T10:09:41Z</time>
      </trkpt>
      <trkpt lat="43.67856" lon="1.11588">
        <ele>285.6</ele>
        <time>2025-12-19T10:09:42Z</time>
      </trkpt>
      <trkpt lat="43.67859" lon="1.11592">
        <ele>285.6</ele>
        <time>2025-12-19T10:09:43Z</time>
      </trkpt>
      <trkpt lat="43.67862" lon="1.11595">
        <ele>285.6</ele>
        <time>2025-12-19T10:09:44Z</time>
      </trkpt>
      <trkpt lat="43.67866" lon="1.11598">
        <ele>285.6</ele>
        <time>2025-12-19T10:09:45Z</time>
      </trkpt>
      <trkpt lat="43.67869" lon="1.11602">
        <ele>285.6</ele>
        <time>2025-12-19T10:09:46Z</time>
      </trkpt>
      <trkpt lat="43.67872" lon="1.11606">
        <ele>285.4</ele>
        <time>2025-12-19T10:09:47Z</time>
      </trkpt>
      <trkpt lat="43.67876" lon="1.11609">
        <ele>285.4</ele>
        <time>2025-12-19T10:09:48Z</time>
      </trkpt>
      <trkpt lat="43.67879" lon="1.11614">
        <ele>285</ele>
        <time>2025-12-19T10:09:49Z</time>
      </trkpt>
      <trkpt lat="43.67883" lon="1.11618">
        <ele>284.8</ele>
        <time>2025-12-19T10:09:50Z</time>
      </trkpt>
      <trkpt lat="43.67887" lon="1.11623">
        <ele>284.8</ele>
        <time>2025-12-19T10:09:51Z</time>
      </trkpt>
      <trkpt lat="43.67891" lon="1.11627">
        <ele>284.6</ele>
        <time>2025-12-19T10:09:52Z</time>
      </trkpt>
      <trkpt lat="43.67896" lon="1.11633">
        <ele>284.4</ele>
        <time>2025-12-19T10:09:53Z</time>
      </trkpt>
      <trkpt lat="43.679" lon="1.11638">
        <ele>284.4</ele>
        <time>2025-12-19T10:09:54Z</time>
      </trkpt>
      <trkpt lat="43.67905" lon="1.11644">
        <ele>284</ele>
        <time>2025-12-19T10:09:55Z</time>
      </trkpt>
      <trkpt lat="43.6791" lon="1.1165">
        <ele>283.8</ele>
        <time>2025-12-19T10:09:56Z</time>
      </trkpt>
      <trkpt lat="43.67915" lon="1.11655">
        <ele>283.6</ele>
        <time>2025-12-19T10:09:57Z</time>
      </trkpt>
      <trkpt lat="43.6792" lon="1.11661">
        <ele>283.2</ele>
        <time>2025-12-19T10:09:58Z</time>
      </trkpt>
      <trkpt lat="43.67926" lon="1.11668">
        <ele>282.8</ele>
        <time>2025-12-19T10:09:59Z</time>
      </trkpt>
      <trkpt lat="43.67932" lon="1.11674">
        <ele>282.4</ele>
        <time>2025-12-19T10:10:00Z</time>
      </trkpt>
      <trkpt lat="43.67937" lon="1.11681">
        <ele>281.8</ele>
        <time>2025-12-19T10:10:01Z</time>
      </trkpt>
      <trkpt lat="43.67942" lon="1.11687">
        <ele>281.6</ele>
        <time>2025-12-19T10:10:02Z</time>
      </trkpt>
      <trkpt lat="43.67947" lon="1.11693">
        <ele>281.4</ele>
        <time>2025-12-19T10:10:03Z</time>
      </trkpt>
      <trkpt lat="43.67951" lon="1.11699">
        <ele>281.2</ele>
        <time>2025-12-19T10:10:04Z</time>
      </trkpt>
      <trkpt lat="43.67955" lon="1.11705">
        <ele>281.2</ele>
        <time>2025-12-19T10:10:05Z</time>
      </trkpt>
      <trkpt lat="43.67959" lon="1.1171">
        <ele>281</ele>
        <time>2025-12-19T10:10:06Z</time>
      </trkpt>
      <trkpt lat="43.67964" lon="1.11716">
        <ele>281</ele>
        <time>2025-12-19T10:10:07Z</time>
      </trkpt>
      <trkpt lat="43.67968" lon="1.11722">
        <ele>281.2</ele>
        <time>2025-12-19T10:10:08Z</time>
      </trkpt>
      <trkpt lat="43.67973" lon="1.11729">
        <ele>281.2</ele>
        <time>2025-12-19T10:10:09Z</time>
      </trkpt>
      <trkpt lat="43.67977" lon="1.11735">
        <ele>281</ele>
        <time>2025-12-19T10:10:10Z</time>
      </trkpt>
      <trkpt lat="43.67982" lon="1.11742">
        <ele>281.2</ele>
        <time>2025-12-19T10:10:11Z</time>
      </trkpt>
      <trkpt lat="43.67987" lon="1.11749">
        <ele>281</ele>
        <time>2025-12-19T10:10:12Z</time>
      </trkpt>
      <trkpt lat="43.67991" lon="1.11755">
        <ele>280.8</ele>
        <time>2025-12-19T10:10:13Z</time>
      </trkpt>
      <trkpt lat="43.67995" lon="1.11761">
        <ele>280.8</ele>
        <time>2025-12-19T10:10:14Z</time>
      </trkpt>
      <trkpt lat="43.68" lon="1.11767">
        <ele>280.8</ele>
        <time>2025-12-19T10:10:15Z</time>
      </trkpt>
      <trkpt lat="43.68004" lon="1.11773">
        <ele>280.8</ele>
        <time>2025-12-19T10:10:16Z</time>
      </trkpt>
      <trkpt lat="43.68008" lon="1.1178">
        <ele>281</ele>
        <time>2025-12-19T10:10:17Z</time>
      </trkpt>
      <trkpt lat="43.68012" lon="1.11787">
        <ele>281.2</ele>
        <time>2025-12-19T10:10:18Z</time>
      </trkpt>
      <trkpt lat="43.68016" lon="1.11794">
        <ele>281.4</ele>
        <time>2025-12-19T10:10:19Z</time>
      </trkpt>
      <trkpt lat="43.6802" lon="1.118">
        <ele>281.4</ele>
        <time>2025-12-19T10:10:20Z</time>
      </trkpt>
      <trkpt lat="43.68025" lon="1.11807">
        <ele>281.2</ele>
        <time>2025-12-19T10:10:21Z</time>
      </trkpt>
      <trkpt lat="43.68029" lon="1.11813">
        <ele>281.2</ele>
        <time>2025-12-19T10:10:22Z</time>
      </trkpt>
      <trkpt lat="43.68033" lon="1.1182">
        <ele>281.2</ele>
        <time>2025-12-19T10:10:23Z</time>
      </trkpt>
      <trkpt lat="43.68036" lon="1.11827">
        <ele>281</ele>
        <time>2025-12-19T10:10:24Z</time>
      </trkpt>
      <trkpt lat="43.68041" lon="1.11834">
        <ele>281</ele>
        <time>2025-12-19T10:10:25Z</time>
      </trkpt>
      <trkpt lat="43.68044" lon="1.11841">
        <ele>281</ele>
        <time>2025-12-19T10:10:26Z</time>
      </trkpt>
      <trkpt lat="43.68048" lon="1.11847">
        <ele>281.2</ele>
        <time>2025-12-19T10:10:27Z</time>
      </trkpt>
      <trkpt lat="43.68051" lon="1.11854">
        <ele>281.2</ele>
        <time>2025-12-19T10:10:28Z</time>
      </trkpt>
      <trkpt lat="43.68054" lon="1.11862">
        <ele>281.2</ele>
        <time>2025-12-19T10:10:29Z</time>
      </trkpt>
      <trkpt lat="43.68058" lon="1.1187">
        <ele>281.2</ele>
        <time>2025-12-19T10:10:30Z</time>
      </trkpt>
      <trkpt lat="43.68061" lon="1.11878">
        <ele>281.2</ele>
        <time>2025-12-19T10:10:31Z</time>
      </trkpt>
      <trkpt lat="43.68065" lon="1.11886">
        <ele>280.8</ele>
        <time>2025-12-19T10:10:32Z</time>
      </trkpt>
      <trkpt lat="43.68069" lon="1.11894">
        <ele>280.6</ele>
        <time>2025-12-19T10:10:33Z</time>
      </trkpt>
      <trkpt lat="43.68073" lon="1.11901">
        <ele>280.4</ele>
        <time>2025-12-19T10:10:34Z</time>
      </trkpt>
      <trkpt lat="43.68077" lon="1.1191">
        <ele>280</ele>
        <time>2025-12-19T10:10:35Z</time>
      </trkpt>
      <trkpt lat="43.68081" lon="1.11918">
        <ele>279.8</ele>
        <time>2025-12-19T10:10:36Z</time>
      </trkpt>
      <trkpt lat="43.68085" lon="1.11925">
        <ele>279.6</ele>
        <time>2025-12-19T10:10:37Z</time>
      </trkpt>
      <trkpt lat="43.68089" lon="1.11933">
        <ele>279.2</ele>
        <time>2025-12-19T10:10:38Z</time>
      </trkpt>
      <trkpt lat="43.68093" lon="1.1194">
        <ele>279.4</ele>
        <time>2025-12-19T10:10:39Z</time>
      </trkpt>
      <trkpt lat="43.68097" lon="1.11947">
        <ele>279.2</ele>
        <time>2025-12-19T10:10:40Z</time>
      </trkpt>
      <trkpt lat="43.681" lon="1.11954">
        <ele>279</ele>
        <time>2025-12-19T10:10:41Z</time>
      </trkpt>
      <trkpt lat="43.68104" lon="1.11962">
        <ele>279</ele>
        <time>2025-12-19T10:10:42Z</time>
      </trkpt>
      <trkpt lat="43.68107" lon="1.1197">
        <ele>279.2</ele>
        <time>2025-12-19T10:10:43Z</time>
      </trkpt>
      <trkpt lat="43.6811" lon="1.11978">
        <ele>279.2</ele>
        <time>2025-12-19T10:10:44Z</time>
      </trkpt>
      <trkpt lat="43.68113" lon="1.11986">
        <ele>279</ele>
        <time>2025-12-19T10:10:45Z</time>
      </trkpt>
      <trkpt lat="43.68116" lon="1.11994">
        <ele>279.2</ele>
        <time>2025-12-19T10:10:46Z</time>
      </trkpt>
      <trkpt lat="43.68119" lon="1.12002">
        <ele>279.4</ele>
        <time>2025-12-19T10:10:47Z</time>
      </trkpt>
      <trkpt lat="43.6812" lon="1.12009">
        <ele>279.4</ele>
        <time>2025-12-19T10:10:48Z</time>
      </trkpt>
      <trkpt lat="43.68122" lon="1.12017">
        <ele>279.4</ele>
        <time>2025-12-19T10:10:49Z</time>
      </trkpt>
      <trkpt lat="43.68124" lon="1.12025">
        <ele>279.6</ele>
        <time>2025-12-19T10:10:50Z</time>
      </trkpt>
      <trkpt lat="43.68125" lon="1.12033">
        <ele>279.8</ele>
        <time>2025-12-19T10:10:51Z</time>
      </trkpt>
      <trkpt lat="43.68126" lon="1.12041">
        <ele>279.8</ele>
        <time>2025-12-19T10:10:52Z</time>
      </trkpt>
      <trkpt lat="43.68127" lon="1.12048">
        <ele>280</ele>
        <time>2025-12-19T10:10:53Z</time>
      </trkpt>
      <trkpt lat="43.68129" lon="1.12055">
        <ele>280.2</ele>
        <time>2025-12-19T10:10:54Z</time>
      </trkpt>
      <trkpt lat="43.6813" lon="1.12063">
        <ele>280.4</ele>
        <time>2025-12-19T10:10:55Z</time>
      </trkpt>
      <trkpt lat="43.68131" lon="1.1207">
        <ele>280.4</ele>
        <time>2025-12-19T10:10:56Z</time>
      </trkpt>
      <trkpt lat="43.68132" lon="1.12078">
        <ele>280.8</ele>
        <time>2025-12-19T10:10:57Z</time>
      </trkpt>
      <trkpt lat="43.68133" lon="1.12085">
        <ele>281</ele>
        <time>2025-12-19T10:10:58Z</time>
      </trkpt>
      <trkpt lat="43.68133" lon="1.12092">
        <ele>281.2</ele>
        <time>2025-12-19T10:10:59Z</time>
      </trkpt>
      <trkpt lat="43.68134" lon="1.12099">
        <ele>281.4</ele>
        <time>2025-12-19T10:11:00Z</time>
      </trkpt>
      <trkpt lat="43.68134" lon="1.12105">
        <ele>281.6</ele>
        <time>2025-12-19T10:11:01Z</time>
      </trkpt>
      <trkpt lat="43.68134" lon="1.12112">
        <ele>281.6</ele>
        <time>2025-12-19T10:11:02Z</time>
      </trkpt>
      <trkpt lat="43.68135" lon="1.1212">
        <ele>281.8</ele>
        <time>2025-12-19T10:11:03Z</time>
      </trkpt>
      <trkpt lat="43.68134" lon="1.12128">
        <ele>282.4</ele>
        <time>2025-12-19T10:11:04Z</time>
      </trkpt>
      <trkpt lat="43.68135" lon="1.12135">
        <ele>282.6</ele>
        <time>2025-12-19T10:11:05Z</time>
      </trkpt>
      <trkpt lat="43.68135" lon="1.12141">
        <ele>282.6</ele>
        <time>2025-12-19T10:11:06Z</time>
      </trkpt>
      <trkpt lat="43.68135" lon="1.12148">
        <ele>282.6</ele>
        <time>2025-12-19T10:11:07Z</time>
      </trkpt>
      <trkpt lat="43.68134" lon="1.12154">
        <ele>282.8</ele>
        <time>2025-12-19T10:11:08Z</time>
      </trkpt>
      <trkpt lat="43.68134" lon="1.12162">
        <ele>282.6</ele>
        <time>2025-12-19T10:11:09Z</time>
      </trkpt>
      <trkpt lat="43.68134" lon="1.1217">
        <ele>282.8</ele>
        <time>2025-12-19T10:11:10Z</time>
      </trkpt>
      <trkpt lat="43.68133" lon="1.12178">
        <ele>282.8</ele>
        <time>2025-12-19T10:11:11Z</time>
      </trkpt>
      <trkpt lat="43.68133" lon="1.12186">
        <ele>282.8</ele>
        <time>2025-12-19T10:11:12Z</time>
      </trkpt>
      <trkpt lat="43.68132" lon="1.12194">
        <ele>283</ele>
        <time>2025-12-19T10:11:13Z</time>
      </trkpt>
      <trkpt lat="43.68131" lon="1.12201">
        <ele>283</ele>
        <time>2025-12-19T10:11:14Z</time>
      </trkpt>
      <trkpt lat="43.68129" lon="1.12209">
        <ele>282.8</ele>
        <time>2025-12-19T10:11:15Z</time>
      </trkpt>
      <trkpt lat="43.68128" lon="1.12216">
        <ele>282.8</ele>
        <time>2025-12-19T10:11:16Z</time>
      </trkpt>
      <trkpt lat="43.68127" lon="1.12224">
        <ele>282.8</ele>
        <time>2025-12-19T10:11:17Z</time>
      </trkpt>
      <trkpt lat="43.68126" lon="1.12232">
        <ele>282.6</ele>
        <time>2025-12-19T10:11:18Z</time>
      </trkpt>
      <trkpt lat="43.68124" lon="1.1224">
        <ele>282.4</ele>
        <time>2025-12-19T10:11:19Z</time>
      </trkpt>
      <trkpt lat="43.68122" lon="1.12248">
        <ele>282.2</ele>
        <time>2025-12-19T10:11:20Z</time>
      </trkpt>
      <trkpt lat="43.68121" lon="1.12255">
        <ele>282.2</ele>
        <time>2025-12-19T10:11:21Z</time>
      </trkpt>
      <trkpt lat="43.68119" lon="1.12263">
        <ele>282.2</ele>
        <time>2025-12-19T10:11:22Z</time>
      </trkpt>
      <trkpt lat="43.68118" lon="1.1227">
        <ele>282</ele>
        <time>2025-12-19T10:11:23Z</time>
      </trkpt>
      <trkpt lat="43.68116" lon="1.12278">
        <ele>282</ele>
        <time>2025-12-19T10:11:24Z</time>
      </trkpt>
      <trkpt lat="43.68115" lon="1.12286">
        <ele>281.8</ele>
        <time>2025-12-19T10:11:25Z</time>
      </trkpt>
      <trkpt lat="43.68113" lon="1.12294">
        <ele>281.6</ele>
        <time>2025-12-19T10:11:26Z</time>
      </trkpt>
      <trkpt lat="43.68112" lon="1.12303">
        <ele>281.4</ele>
        <time>2025-12-19T10:11:27Z</time>
      </trkpt>
      <trkpt lat="43.68111" lon="1.12312">
        <ele>281</ele>
        <time>2025-12-19T10:11:28Z</time>
      </trkpt>
      <trkpt lat="43.6811" lon="1.12322">
        <ele>280.6</ele>
        <time>2025-12-19T10:11:29Z</time>
      </trkpt>
      <trkpt lat="43.68109" lon="1.12331">
        <ele>280.2</ele>
        <time>2025-12-19T10:11:30Z</time>
      </trkpt>
      <trkpt lat="43.68109" lon="1.12342">
        <ele>279.6</ele>
        <time>2025-12-19T10:11:31Z</time>
      </trkpt>
      <trkpt lat="43.68108" lon="1.12353">
        <ele>278.8</ele>
        <time>2025-12-19T10:11:32Z</time>
      </trkpt>
      <trkpt lat="43.68108" lon="1.12364">
        <ele>278.2</ele>
        <time>2025-12-19T10:11:33Z</time>
      </trkpt>
      <trkpt lat="43.68107" lon="1.12377">
        <ele>277.4</ele>
        <time>2025-12-19T10:11:34Z</time>
      </trkpt>
      <trkpt lat="43.68106" lon="1.1239">
        <ele>276.8</ele>
        <time>2025-12-19T10:11:35Z</time>
      </trkpt>
      <trkpt lat="43.68105" lon="1.12403">
        <ele>275.8</ele>
        <time>2025-12-19T10:11:36Z</time>
      </trkpt>
      <trkpt lat="43.68104" lon="1.12416">
        <ele>275.4</ele>
        <time>2025-12-19T10:11:37Z</time>
      </trkpt>
      <trkpt lat="43.68103" lon="1.12429">
        <ele>274.6</ele>
        <time>2025-12-19T10:11:38Z</time>
      </trkpt>
      <trkpt lat="43.68102" lon="1.12442">
        <ele>274</ele>
        <time>2025-12-19T10:11:39Z</time>
      </trkpt>
      <trkpt lat="43.681" lon="1.12456">
        <ele>273.2</ele>
        <time>2025-12-19T10:11:40Z</time>
      </trkpt>
      <trkpt lat="43.681" lon="1.12469">
        <ele>272.4</ele>
        <time>2025-12-19T10:11:41Z</time>
      </trkpt>
      <trkpt lat="43.681" lon="1.12483">
        <ele>271.6</ele>
        <time>2025-12-19T10:11:42Z</time>
      </trkpt>
      <trkpt lat="43.681" lon="1.12497">
        <ele>270.8</ele>
        <time>2025-12-19T10:11:43Z</time>
      </trkpt>
      <trkpt lat="43.68101" lon="1.12512">
        <ele>269.6</ele>
        <time>2025-12-19T10:11:44Z</time>
      </trkpt>
      <trkpt lat="43.68102" lon="1.12527">
        <ele>268.4</ele>
        <time>2025-12-19T10:11:45Z</time>
      </trkpt>
      <trkpt lat="43.68103" lon="1.12542">
        <ele>267.8</ele>
        <time>2025-12-19T10:11:46Z</time>
      </trkpt>
      <trkpt lat="43.68105" lon="1.12557">
        <ele>266.6</ele>
        <time>2025-12-19T10:11:47Z</time>
      </trkpt>
      <trkpt lat="43.68107" lon="1.12574">
        <ele>265.4</ele>
        <time>2025-12-19T10:11:48Z</time>
      </trkpt>
      <trkpt lat="43.68109" lon="1.12591">
        <ele>264.2</ele>
        <time>2025-12-19T10:11:49Z</time>
      </trkpt>
      <trkpt lat="43.68111" lon="1.12608">
        <ele>263.2</ele>
        <time>2025-12-19T10:11:50Z</time>
      </trkpt>
      <trkpt lat="43.68114" lon="1.12624">
        <ele>262</ele>
        <time>2025-12-19T10:11:51Z</time>
      </trkpt>
      <trkpt lat="43.68116" lon="1.1264">
        <ele>260.8</ele>
        <time>2025-12-19T10:11:52Z</time>
      </trkpt>
      <trkpt lat="43.68118" lon="1.12657">
        <ele>260</ele>
        <time>2025-12-19T10:11:53Z</time>
      </trkpt>
      <trkpt lat="43.68121" lon="1.12673">
        <ele>259.2</ele>
        <time>2025-12-19T10:11:54Z</time>
      </trkpt>
      <trkpt lat="43.68123" lon="1.12689">
        <ele>258.6</ele>
        <time>2025-12-19T10:11:55Z</time>
      </trkpt>
      <trkpt lat="43.68126" lon="1.12704">
        <ele>258.2</ele>
        <time>2025-12-19T10:11:56Z</time>
      </trkpt>
      <trkpt lat="43.68128" lon="1.12719">
        <ele>257.6</ele>
        <time>2025-12-19T10:11:57Z</time>
      </trkpt>
      <trkpt lat="43.6813" lon="1.12733">
        <ele>257.2</ele>
        <time>2025-12-19T10:11:58Z</time>
      </trkpt>
      <trkpt lat="43.68133" lon="1.12747">
        <ele>257</ele>
        <time>2025-12-19T10:11:59Z</time>
      </trkpt>
      <trkpt lat="43.68135" lon="1.12761">
        <ele>256.8</ele>
        <time>2025-12-19T10:12:00Z</time>
      </trkpt>
      <trkpt lat="43.68137" lon="1.12773">
        <ele>256.6</ele>
        <time>2025-12-19T10:12:01Z</time>
      </trkpt>
      <trkpt lat="43.68139" lon="1.12786">
        <ele>256.4</ele>
        <time>2025-12-19T10:12:02Z</time>
      </trkpt>
      <trkpt lat="43.68141" lon="1.12799">
        <ele>256.2</ele>
        <time>2025-12-19T10:12:03Z</time>
      </trkpt>
      <trkpt lat="43.68143" lon="1.12812">
        <ele>256</ele>
        <time>2025-12-19T10:12:04Z</time>
      </trkpt>
      <trkpt lat="43.68145" lon="1.12825">
        <ele>255.8</ele>
        <time>2025-12-19T10:12:05Z</time>
      </trkpt>
      <trkpt lat="43.68147" lon="1.12837">
        <ele>255.6</ele>
        <time>2025-12-19T10:12:06Z</time>
      </trkpt>
      <trkpt lat="43.68149" lon="1.12849">
        <ele>255.2</ele>
        <time>2025-12-19T10:12:07Z</time>
      </trkpt>
      <trkpt lat="43.68151" lon="1.12861">
        <ele>255.2</ele>
        <time>2025-12-19T10:12:08Z</time>
      </trkpt>
      <trkpt lat="43.68152" lon="1.12872">
        <ele>255.2</ele>
        <time>2025-12-19T10:12:09Z</time>
      </trkpt>
      <trkpt lat="43.68153" lon="1.12883">
        <ele>255.2</ele>
        <time>2025-12-19T10:12:10Z</time>
      </trkpt>
      <trkpt lat="43.68154" lon="1.12894">
        <ele>255.4</ele>
        <time>2025-12-19T10:12:11Z</time>
      </trkpt>
      <trkpt lat="43.68154" lon="1.12904">
        <ele>255.6</ele>
        <time>2025-12-19T10:12:12Z</time>
      </trkpt>
      <trkpt lat="43.68154" lon="1.12914">
        <ele>255.6</ele>
        <time>2025-12-19T10:12:13Z</time>
      </trkpt>
      <trkpt lat="43.68154" lon="1.12925">
        <ele>255.2</ele>
        <time>2025-12-19T10:12:14Z</time>
      </trkpt>
      <trkpt lat="43.68154" lon="1.12936">
        <ele>255.2</ele>
        <time>2025-12-19T10:12:15Z</time>
      </trkpt>
      <trkpt lat="43.68154" lon="1.12947">
        <ele>255</ele>
        <time>2025-12-19T10:12:16Z</time>
      </trkpt>
      <trkpt lat="43.68154" lon="1.12957">
        <ele>255</ele>
        <time>2025-12-19T10:12:17Z</time>
      </trkpt>
      <trkpt lat="43.68154" lon="1.12969">
        <ele>254.8</ele>
        <time>2025-12-19T10:12:18Z</time>
      </trkpt>
      <trkpt lat="43.68154" lon="1.1298">
        <ele>254.6</ele>
        <time>2025-12-19T10:12:19Z</time>
      </trkpt>
      <trkpt lat="43.68154" lon="1.12992">
        <ele>254.6</ele>
        <time>2025-12-19T10:12:20Z</time>
      </trkpt>
      <trkpt lat="43.68154" lon="1.13002">
        <ele>254.4</ele>
        <time>2025-12-19T10:12:21Z</time>
      </trkpt>
      <trkpt lat="43.68154" lon="1.13011">
        <ele>254.2</ele>
        <time>2025-12-19T10:12:22Z</time>
      </trkpt>
      <trkpt lat="43.68154" lon="1.13019">
        <ele>254</ele>
        <time>2025-12-19T10:12:23Z</time>
      </trkpt>
      <trkpt lat="43.68154" lon="1.13026">
        <ele>253.8</ele>
        <time>2025-12-19T10:12:24Z</time>
      </trkpt>
      <trkpt lat="43.68155" lon="1.13033">
        <ele>253.6</ele>
        <time>2025-12-19T10:12:25Z</time>
      </trkpt>
      <trkpt lat="43.68158" lon="1.1304">
        <ele>253.6</ele>
        <time>2025-12-19T10:12:26Z</time>
      </trkpt>
      <trkpt lat="43.68162" lon="1.13045">
        <ele>253.6</ele>
        <time>2025-12-19T10:12:27Z</time>
      </trkpt>
      <trkpt lat="43.68166" lon="1.13051">
        <ele>253.4</ele>
        <time>2025-12-19T10:12:28Z</time>
      </trkpt>
      <trkpt lat="43.68169" lon="1.13057">
        <ele>253.4</ele>
        <time>2025-12-19T10:12:29Z</time>
      </trkpt>
      <trkpt lat="43.68173" lon="1.13064">
        <ele>253.2</ele>
        <time>2025-12-19T10:12:30Z</time>
      </trkpt>
      <trkpt lat="43.68177" lon="1.13071">
        <ele>252.8</ele>
        <time>2025-12-19T10:12:31Z</time>
      </trkpt>
      <trkpt lat="43.68181" lon="1.13078">
        <ele>252.6</ele>
        <time>2025-12-19T10:12:32Z</time>
      </trkpt>
      <trkpt lat="43.68186" lon="1.13085">
        <ele>252.4</ele>
        <time>2025-12-19T10:12:33Z</time>
      </trkpt>
      <trkpt lat="43.6819" lon="1.13093">
        <ele>252.4</ele>
        <time>2025-12-19T10:12:34Z</time>
      </trkpt>
      <trkpt lat="43.68194" lon="1.13101">
        <ele>252.2</ele>
        <time>2025-12-19T10:12:35Z</time>
      </trkpt>
      <trkpt lat="43.68198" lon="1.1311">
        <ele>252</ele>
        <time>2025-12-19T10:12:36Z</time>
      </trkpt>
      <trkpt lat="43.68202" lon="1.13117">
        <ele>252</ele>
        <time>2025-12-19T10:12:37Z</time>
      </trkpt>
      <trkpt lat="43.68207" lon="1.13125">
        <ele>252</ele>
        <time>2025-12-19T10:12:38Z</time>
      </trkpt>
      <trkpt lat="43.68211" lon="1.13132">
        <ele>252</ele>
        <time>2025-12-19T10:12:39Z</time>
      </trkpt>
      <trkpt lat="43.68216" lon="1.13139">
        <ele>252</ele>
        <time>2025-12-19T10:12:40Z</time>
      </trkpt>
      <trkpt lat="43.68222" lon="1.13145">
        <ele>252</ele>
        <time>2025-12-19T10:12:41Z</time>
      </trkpt>
      <trkpt lat="43.68227" lon="1.1315">
        <ele>252.2</ele>
        <time>2025-12-19T10:12:42Z</time>
      </trkpt>
      <trkpt lat="43.68233" lon="1.13154">
        <ele>252.2</ele>
        <time>2025-12-19T10:12:43Z</time>
      </trkpt>
      <trkpt lat="43.68238" lon="1.13158">
        <ele>252.4</ele>
        <time>2025-12-19T10:12:44Z</time>
      </trkpt>
      <trkpt lat="43.68243" lon="1.13161">
        <ele>252.6</ele>
        <time>2025-12-19T10:12:45Z</time>
      </trkpt>
      <trkpt lat="43.68248" lon="1.13165">
        <ele>253</ele>
        <time>2025-12-19T10:12:46Z</time>
      </trkpt>
      <trkpt lat="43.68253" lon="1.13169">
        <ele>253.2</ele>
        <time>2025-12-19T10:12:47Z</time>
      </trkpt>
      <trkpt lat="43.68258" lon="1.13172">
        <ele>253.6</ele>
        <time>2025-12-19T10:12:48Z</time>
      </trkpt>
      <trkpt lat="43.68262" lon="1.13176">
        <ele>253.8</ele>
        <time>2025-12-19T10:12:49Z</time>
      </trkpt>
      <trkpt lat="43.68266" lon="1.1318">
        <ele>254.2</ele>
        <time>2025-12-19T10:12:50Z</time>
      </trkpt>
      <trkpt lat="43.68271" lon="1.13185">
        <ele>254.6</ele>
        <time>2025-12-19T10:12:51Z</time>
      </trkpt>
      <trkpt lat="43.68274" lon="1.13189">
        <ele>254.8</ele>
        <time>2025-12-19T10:12:52Z</time>
      </trkpt>
      <trkpt lat="43.68278" lon="1.13194">
        <ele>255</ele>
        <time>2025-12-19T10:12:53Z</time>
      </trkpt>
      <trkpt lat="43.68282" lon="1.13199">
        <ele>255.2</ele>
        <time>2025-12-19T10:12:54Z</time>
      </trkpt>
      <trkpt lat="43.68286" lon="1.13204">
        <ele>255.4</ele>
        <time>2025-12-19T10:12:55Z</time>
      </trkpt>
      <trkpt lat="43.6829" lon="1.13209">
        <ele>255.4</ele>
        <time>2025-12-19T10:12:56Z</time>
      </trkpt>
      <trkpt lat="43.68294" lon="1.13215">
        <ele>255.6</ele>
        <time>2025-12-19T10:12:57Z</time>
      </trkpt>
      <trkpt lat="43.68298" lon="1.13221">
        <ele>255.6</ele>
        <time>2025-12-19T10:12:58Z</time>
      </trkpt>
      <trkpt lat="43.68302" lon="1.13228">
        <ele>255.6</ele>
        <time>2025-12-19T10:12:59Z</time>
      </trkpt>
      <trkpt lat="43.68306" lon="1.13235">
        <ele>255.6</ele>
        <time>2025-12-19T10:13:00Z</time>
      </trkpt>
      <trkpt lat="43.6831" lon="1.13242">
        <ele>255.4</ele>
        <time>2025-12-19T10:13:01Z</time>
      </trkpt>
      <trkpt lat="43.68314" lon="1.1325">
        <ele>255.2</ele>
        <time>2025-12-19T10:13:02Z</time>
      </trkpt>
      <trkpt lat="43.68318" lon="1.13258">
        <ele>254.8</ele>
        <time>2025-12-19T10:13:03Z</time>
      </trkpt>
      <trkpt lat="43.68321" lon="1.13268">
        <ele>254.4</ele>
        <time>2025-12-19T10:13:04Z</time>
      </trkpt>
      <trkpt lat="43.68325" lon="1.13277">
        <ele>254</ele>
        <time>2025-12-19T10:13:05Z</time>
      </trkpt>
      <trkpt lat="43.68328" lon="1.13287">
        <ele>253.2</ele>
        <time>2025-12-19T10:13:06Z</time>
      </trkpt>
      <trkpt lat="43.68332" lon="1.13297">
        <ele>252.6</ele>
        <time>2025-12-19T10:13:07Z</time>
      </trkpt>
      <trkpt lat="43.68337" lon="1.13307">
        <ele>252</ele>
        <time>2025-12-19T10:13:08Z</time>
      </trkpt>
      <trkpt lat="43.68342" lon="1.13317">
        <ele>251.6</ele>
        <time>2025-12-19T10:13:09Z</time>
      </trkpt>
      <trkpt lat="43.68347" lon="1.13327">
        <ele>251</ele>
        <time>2025-12-19T10:13:10Z</time>
      </trkpt>
      <trkpt lat="43.68353" lon="1.13335">
        <ele>250.4</ele>
        <time>2025-12-19T10:13:11Z</time>
      </trkpt>
      <trkpt lat="43.6836" lon="1.13343">
        <ele>250</ele>
        <time>2025-12-19T10:13:12Z</time>
      </trkpt>
      <trkpt lat="43.68366" lon="1.13351">
        <ele>250</ele>
        <time>2025-12-19T10:13:13Z</time>
      </trkpt>
      <trkpt lat="43.68372" lon="1.13358">
        <ele>249.6</ele>
        <time>2025-12-19T10:13:14Z</time>
      </trkpt>
      <trkpt lat="43.68379" lon="1.13365">
        <ele>249.2</ele>
        <time>2025-12-19T10:13:15Z</time>
      </trkpt>
      <trkpt lat="43.68385" lon="1.13371">
        <ele>249.2</ele>
        <time>2025-12-19T10:13:16Z</time>
      </trkpt>
      <trkpt lat="43.68391" lon="1.13378">
        <ele>248.8</ele>
        <time>2025-12-19T10:13:17Z</time>
      </trkpt>
      <trkpt lat="43.68398" lon="1.13385">
        <ele>248.6</ele>
        <time>2025-12-19T10:13:18Z</time>
      </trkpt>
      <trkpt lat="43.68404" lon="1.13392">
        <ele>248.4</ele>
        <time>2025-12-19T10:13:19Z</time>
      </trkpt>
      <trkpt lat="43.68409" lon="1.13398">
        <ele>248.2</ele>
        <time>2025-12-19T10:13:20Z</time>
      </trkpt>
      <trkpt lat="43.68415" lon="1.13405">
        <ele>248.2</ele>
        <time>2025-12-19T10:13:21Z</time>
      </trkpt>
      <trkpt lat="43.6842" lon="1.13412">
        <ele>248</ele>
        <time>2025-12-19T10:13:22Z</time>
      </trkpt>
      <trkpt lat="43.68425" lon="1.13418">
        <ele>248</ele>
        <time>2025-12-19T10:13:23Z</time>
      </trkpt>
      <trkpt lat="43.68431" lon="1.13425">
        <ele>248</ele>
        <time>2025-12-19T10:13:24Z</time>
      </trkpt>
      <trkpt lat="43.68436" lon="1.13431">
        <ele>248.2</ele>
        <time>2025-12-19T10:13:25Z</time>
      </trkpt>
      <trkpt lat="43.68441" lon="1.13437">
        <ele>248.2</ele>
        <time>2025-12-19T10:13:26Z</time>
      </trkpt>
      <trkpt lat="43.68446" lon="1.13443">
        <ele>248.4</ele>
        <time>2025-12-19T10:13:27Z</time>
      </trkpt>
      <trkpt lat="43.6845" lon="1.13449">
        <ele>248.8</ele>
        <time>2025-12-19T10:13:28Z</time>
      </trkpt>
      <trkpt lat="43.68455" lon="1.13455">
        <ele>249</ele>
        <time>2025-12-19T10:13:29Z</time>
      </trkpt>
      <trkpt lat="43.68459" lon="1.13461">
        <ele>249.2</ele>
        <time>2025-12-19T10:13:30Z</time>
      </trkpt>
      <trkpt lat="43.68463" lon="1.13466">
        <ele>249.4</ele>
        <time>2025-12-19T10:13:31Z</time>
      </trkpt>
      <trkpt lat="43.68467" lon="1.13471">
        <ele>249.6</ele>
        <time>2025-12-19T10:13:32Z</time>
      </trkpt>
      <trkpt lat="43.68471" lon="1.13476">
        <ele>250</ele>
        <time>2025-12-19T10:13:33Z</time>
      </trkpt>
      <trkpt lat="43.68474" lon="1.1348">
        <ele>250.4</ele>
        <time>2025-12-19T10:13:34Z</time>
      </trkpt>
      <trkpt lat="43.68478" lon="1.13484">
        <ele>250.8</ele>
        <time>2025-12-19T10:13:35Z</time>
      </trkpt>
      <trkpt lat="43.68481" lon="1.13489">
        <ele>251.4</ele>
        <time>2025-12-19T10:13:36Z</time>
      </trkpt>
      <trkpt lat="43.68484" lon="1.13493">
        <ele>251.8</ele>
        <time>2025-12-19T10:13:37Z</time>
      </trkpt>
      <trkpt lat="43.68487" lon="1.13497">
        <ele>252.4</ele>
        <time>2025-12-19T10:13:38Z</time>
      </trkpt>
      <trkpt lat="43.68489" lon="1.13501">
        <ele>252.8</ele>
        <time>2025-12-19T10:13:39Z</time>
      </trkpt>
      <trkpt lat="43.68492" lon="1.13504">
        <ele>253.4</ele>
        <time>2025-12-19T10:13:40Z</time>
      </trkpt>
      <trkpt lat="43.68494" lon="1.13507">
        <ele>254</ele>
        <time>2025-12-19T10:13:41Z</time>
      </trkpt>
      <trkpt lat="43.68497" lon="1.13511">
        <ele>254.4</ele>
        <time>2025-12-19T10:13:42Z</time>
      </trkpt>
      <trkpt lat="43.685" lon="1.13514">
        <ele>255</ele>
        <time>2025-12-19T10:13:43Z</time>
      </trkpt>
      <trkpt lat="43.68502" lon="1.13517">
        <ele>255.6</ele>
        <time>2025-12-19T10:13:44Z</time>
      </trkpt>
      <trkpt lat="43.68505" lon="1.13521">
        <ele>255.8</ele>
        <time>2025-12-19T10:13:45Z</time>
      </trkpt>
      <trkpt lat="43.68508" lon="1.13524">
        <ele>256.2</ele>
        <time>2025-12-19T10:13:46Z</time>
      </trkpt>
      <trkpt lat="43.6851" lon="1.13527">
        <ele>256.6</ele>
        <time>2025-12-19T10:13:47Z</time>
      </trkpt>
      <trkpt lat="43.68513" lon="1.1353">
        <ele>257</ele>
        <time>2025-12-19T10:13:48Z</time>
      </trkpt>
      <trkpt lat="43.68516" lon="1.13533">
        <ele>257.2</ele>
        <time>2025-12-19T10:13:49Z</time>
      </trkpt>
      <trkpt lat="43.68519" lon="1.13536">
        <ele>257.6</ele>
        <time>2025-12-19T10:13:50Z</time>
      </trkpt>
      <trkpt lat="43.68522" lon="1.13539">
        <ele>257.8</ele>
        <time>2025-12-19T10:13:51Z</time>
      </trkpt>
      <trkpt lat="43.68525" lon="1.13542">
        <ele>258.2</ele>
        <time>2025-12-19T10:13:52Z</time>
      </trkpt>
      <trkpt lat="43.68528" lon="1.13544">
        <ele>258.6</ele>
        <time>2025-12-19T10:13:53Z</time>
      </trkpt>
      <trkpt lat="43.68531" lon="1.13546">
        <ele>259</ele>
        <time>2025-12-19T10:13:54Z</time>
      </trkpt>
      <trkpt lat="43.68534" lon="1.13549">
        <ele>259.4</ele>
        <time>2025-12-19T10:13:55Z</time>
      </trkpt>
      <trkpt lat="43.68537" lon="1.13551">
        <ele>259.6</ele>
        <time>2025-12-19T10:13:56Z</time>
      </trkpt>
      <trkpt lat="43.6854" lon="1.13554">
        <ele>260</ele>
        <time>2025-12-19T10:13:57Z</time>
      </trkpt>
      <trkpt lat="43.68543" lon="1.13556">
        <ele>260.4</ele>
        <time>2025-12-19T10:13:58Z</time>
      </trkpt>
      <trkpt lat="43.68546" lon="1.13557">
        <ele>260.6</ele>
        <time>2025-12-19T10:13:59Z</time>
      </trkpt>
      <trkpt lat="43.6855" lon="1.13559">
        <ele>260.8</ele>
        <time>2025-12-19T10:14:00Z</time>
      </trkpt>
      <trkpt lat="43.68553" lon="1.13561">
        <ele>261</ele>
        <time>2025-12-19T10:14:01Z</time>
      </trkpt>
      <trkpt lat="43.68557" lon="1.13564">
        <ele>261.2</ele>
        <time>2025-12-19T10:14:02Z</time>
      </trkpt>
      <trkpt lat="43.6856" lon="1.13566">
        <ele>261.2</ele>
        <time>2025-12-19T10:14:03Z</time>
      </trkpt>
      <trkpt lat="43.68564" lon="1.13569">
        <ele>261.4</ele>
        <time>2025-12-19T10:14:04Z</time>
      </trkpt>
      <trkpt lat="43.68568" lon="1.13571">
        <ele>261.4</ele>
        <time>2025-12-19T10:14:05Z</time>
      </trkpt>
      <trkpt lat="43.68572" lon="1.13574">
        <ele>261.4</ele>
        <time>2025-12-19T10:14:06Z</time>
      </trkpt>
      <trkpt lat="43.68576" lon="1.13577">
        <ele>261.4</ele>
        <time>2025-12-19T10:14:07Z</time>
      </trkpt>
      <trkpt lat="43.6858" lon="1.13581">
        <ele>261.4</ele>
        <time>2025-12-19T10:14:08Z</time>
      </trkpt>
      <trkpt lat="43.68584" lon="1.13584">
        <ele>261.4</ele>
        <time>2025-12-19T10:14:09Z</time>
      </trkpt>
      <trkpt lat="43.68588" lon="1.13588">
        <ele>261.4</ele>
        <time>2025-12-19T10:14:10Z</time>
      </trkpt>
      <trkpt lat="43.68592" lon="1.13592">
        <ele>261.4</ele>
        <time>2025-12-19T10:14:11Z</time>
      </trkpt>
      <trkpt lat="43.68595" lon="1.13596">
        <ele>261.6</ele>
        <time>2025-12-19T10:14:12Z</time>
      </trkpt>
      <trkpt lat="43.68599" lon="1.136">
        <ele>261.6</ele>
        <time>2025-12-19T10:14:13Z</time>
      </trkpt>
      <trkpt lat="43.68602" lon="1.13604">
        <ele>261.6</ele>
        <time>2025-12-19T10:14:14Z</time>
      </trkpt>
      <trkpt lat="43.68605" lon="1.13608">
        <ele>261.8</ele>
        <time>2025-12-19T10:14:15Z</time>
      </trkpt>
      <trkpt lat="43.68608" lon="1.13612">
        <ele>261.8</ele>
        <time>2025-12-19T10:14:16Z</time>
      </trkpt>
      <trkpt lat="43.68611" lon="1.13617">
        <ele>261.8</ele>
        <time>2025-12-19T10:14:17Z</time>
      </trkpt>
      <trkpt lat="43.68613" lon="1.13621">
        <ele>262</ele>
        <time>2025-12-19T10:14:18Z</time>
      </trkpt>
      <trkpt lat="43.68616" lon="1.13627">
        <ele>262</ele>
        <time>2025-12-19T10:14:19Z</time>
      </trkpt>
      <trkpt lat="43.68618" lon="1.13632">
        <ele>262.2</ele>
        <time>2025-12-19T10:14:20Z</time>
      </trkpt>
      <trkpt lat="43.6862" lon="1.13637">
        <ele>262.4</ele>
        <time>2025-12-19T10:14:21Z</time>
      </trkpt>
      <trkpt lat="43.68622" lon="1.13642">
        <ele>262.4</ele>
        <time>2025-12-19T10:14:22Z</time>
      </trkpt>
      <trkpt lat="43.68624" lon="1.13649">
        <ele>262.6</ele>
        <time>2025-12-19T10:14:23Z</time>
      </trkpt>
      <trkpt lat="43.68625" lon="1.13655">
        <ele>262.6</ele>
        <time>2025-12-19T10:14:24Z</time>
      </trkpt>
      <trkpt lat="43.68627" lon="1.13661">
        <ele>262.8</ele>
        <time>2025-12-19T10:14:25Z</time>
      </trkpt>
      <trkpt lat="43.68628" lon="1.13668">
        <ele>262.8</ele>
        <time>2025-12-19T10:14:26Z</time>
      </trkpt>
      <trkpt lat="43.6863" lon="1.13674">
        <ele>262.8</ele>
        <time>2025-12-19T10:14:27Z</time>
      </trkpt>
      <trkpt lat="43.68632" lon="1.13681">
        <ele>262.8</ele>
        <time>2025-12-19T10:14:28Z</time>
      </trkpt>
      <trkpt lat="43.68633" lon="1.13687">
        <ele>262.6</ele>
        <time>2025-12-19T10:14:29Z</time>
      </trkpt>
      <trkpt lat="43.68635" lon="1.13694">
        <ele>262.6</ele>
        <time>2025-12-19T10:14:30Z</time>
      </trkpt>
      <trkpt lat="43.68636" lon="1.13701">
        <ele>262.8</ele>
        <time>2025-12-19T10:14:31Z</time>
      </trkpt>
      <trkpt lat="43.68638" lon="1.13708">
        <ele>262.6</ele>
        <time>2025-12-19T10:14:32Z</time>
      </trkpt>
      <trkpt lat="43.6864" lon="1.13714">
        <ele>262.6</ele>
        <time>2025-12-19T10:14:33Z</time>
      </trkpt>
      <trkpt lat="43.68642" lon="1.13721">
        <ele>262.6</ele>
        <time>2025-12-19T10:14:34Z</time>
      </trkpt>
      <trkpt lat="43.68645" lon="1.13727">
        <ele>262.6</ele>
        <time>2025-12-19T10:14:35Z</time>
      </trkpt>
      <trkpt lat="43.68647" lon="1.13734">
        <ele>262.6</ele>
        <time>2025-12-19T10:14:36Z</time>
      </trkpt>
      <trkpt lat="43.68649" lon="1.1374">
        <ele>262.8</ele>
        <time>2025-12-19T10:14:37Z</time>
      </trkpt>
      <trkpt lat="43.68652" lon="1.13747">
        <ele>263</ele>
        <time>2025-12-19T10:14:38Z</time>
      </trkpt>
      <trkpt lat="43.68654" lon="1.13753">
        <ele>263</ele>
        <time>2025-12-19T10:14:39Z</time>
      </trkpt>
      <trkpt lat="43.68657" lon="1.1376">
        <ele>263</ele>
        <time>2025-12-19T10:14:40Z</time>
      </trkpt>
      <trkpt lat="43.6866" lon="1.13766">
        <ele>263</ele>
        <time>2025-12-19T10:14:41Z</time>
      </trkpt>
      <trkpt lat="43.68663" lon="1.13772">
        <ele>263</ele>
        <time>2025-12-19T10:14:42Z</time>
      </trkpt>
      <trkpt lat="43.68666" lon="1.13778">
        <ele>263</ele>
        <time>2025-12-19T10:14:43Z</time>
      </trkpt>
      <trkpt lat="43.68669" lon="1.13785">
        <ele>263</ele>
        <time>2025-12-19T10:14:44Z</time>
      </trkpt>
      <trkpt lat="43.68673" lon="1.13791">
        <ele>263</ele>
        <time>2025-12-19T10:14:45Z</time>
      </trkpt>
      <trkpt lat="43.68676" lon="1.13797">
        <ele>263</ele>
        <time>2025-12-19T10:14:46Z</time>
      </trkpt>
      <trkpt lat="43.6868" lon="1.13802">
        <ele>263</ele>
        <time>2025-12-19T10:14:47Z</time>
      </trkpt>
      <trkpt lat="43.68684" lon="1.13806">
        <ele>263</ele>
        <time>2025-12-19T10:14:48Z</time>
      </trkpt>
      <trkpt lat="43.68689" lon="1.13808">
        <ele>263.2</ele>
        <time>2025-12-19T10:14:49Z</time>
      </trkpt>
      <trkpt lat="43.68694" lon="1.13809">
        <ele>263.2</ele>
        <time>2025-12-19T10:14:50Z</time>
      </trkpt>
      <trkpt lat="43.68699" lon="1.13811">
        <ele>263.4</ele>
        <time>2025-12-19T10:14:51Z</time>
      </trkpt>
      <trkpt lat="43.68705" lon="1.13812">
        <ele>263.4</ele>
        <time>2025-12-19T10:14:52Z</time>
      </trkpt>
      <trkpt lat="43.6871" lon="1.13812">
        <ele>263.4</ele>
        <time>2025-12-19T10:14:53Z</time>
      </trkpt>
      <trkpt lat="43.68716" lon="1.13813">
        <ele>263.4</ele>
        <time>2025-12-19T10:14:54Z</time>
      </trkpt>
      <trkpt lat="43.68721" lon="1.13814">
        <ele>263.4</ele>
        <time>2025-12-19T10:14:55Z</time>
      </trkpt>
      <trkpt lat="43.68726" lon="1.13815">
        <ele>263.4</ele>
        <time>2025-12-19T10:14:56Z</time>
      </trkpt>
      <trkpt lat="43.68731" lon="1.13816">
        <ele>263.6</ele>
        <time>2025-12-19T10:14:57Z</time>
      </trkpt>
      <trkpt lat="43.68736" lon="1.13817">
        <ele>263.8</ele>
        <time>2025-12-19T10:14:58Z</time>
      </trkpt>
      <trkpt lat="43.68742" lon="1.13818">
        <ele>263.8</ele>
        <time>2025-12-19T10:14:59Z</time>
      </trkpt>
      <trkpt lat="43.68747" lon="1.13819">
        <ele>264</ele>
        <time>2025-12-19T10:15:00Z</time>
      </trkpt>
      <trkpt lat="43.68753" lon="1.1382">
        <ele>264.2</ele>
        <time>2025-12-19T10:15:01Z</time>
      </trkpt>
      <trkpt lat="43.68758" lon="1.13821">
        <ele>264.6</ele>
        <time>2025-12-19T10:15:02Z</time>
      </trkpt>
      <trkpt lat="43.68763" lon="1.13823">
        <ele>264.8</ele>
        <time>2025-12-19T10:15:03Z</time>
      </trkpt>
      <trkpt lat="43.68768" lon="1.13825">
        <ele>265.2</ele>
        <time>2025-12-19T10:15:04Z</time>
      </trkpt>
      <trkpt lat="43.68772" lon="1.13826">
        <ele>265.4</ele>
        <time>2025-12-19T10:15:05Z</time>
      </trkpt>
      <trkpt lat="43.68776" lon="1.13828">
        <ele>265.8</ele>
        <time>2025-12-19T10:15:06Z</time>
      </trkpt>
      <trkpt lat="43.6878" lon="1.1383">
        <ele>266</ele>
        <time>2025-12-19T10:15:07Z</time>
      </trkpt>
      <trkpt lat="43.68784" lon="1.13831">
        <ele>266.4</ele>
        <time>2025-12-19T10:15:08Z</time>
      </trkpt>
      <trkpt lat="43.68788" lon="1.13833">
        <ele>266.8</ele>
        <time>2025-12-19T10:15:09Z</time>
      </trkpt>
      <trkpt lat="43.68792" lon="1.13834">
        <ele>267.2</ele>
        <time>2025-12-19T10:15:10Z</time>
      </trkpt>
      <trkpt lat="43.68796" lon="1.13836">
        <ele>267.4</ele>
        <time>2025-12-19T10:15:11Z</time>
      </trkpt>
      <trkpt lat="43.688" lon="1.13837">
        <ele>267.6</ele>
        <time>2025-12-19T10:15:12Z</time>
      </trkpt>
      <trkpt lat="43.68804" lon="1.13839">
        <ele>267.8</ele>
        <time>2025-12-19T10:15:13Z</time>
      </trkpt>
      <trkpt lat="43.68809" lon="1.13841">
        <ele>268</ele>
        <time>2025-12-19T10:15:14Z</time>
      </trkpt>
      <trkpt lat="43.68813" lon="1.13843">
        <ele>268.2</ele>
        <time>2025-12-19T10:15:15Z</time>
      </trkpt>
      <trkpt lat="43.68817" lon="1.13845">
        <ele>268.2</ele>
        <time>2025-12-19T10:15:16Z</time>
      </trkpt>
      <trkpt lat="43.68822" lon="1.13848">
        <ele>268.4</ele>
        <time>2025-12-19T10:15:17Z</time>
      </trkpt>
      <trkpt lat="43.68827" lon="1.13851">
        <ele>268.4</ele>
        <time>2025-12-19T10:15:18Z</time>
      </trkpt>
      <trkpt lat="43.68832" lon="1.13855">
        <ele>268.2</ele>
        <time>2025-12-19T10:15:19Z</time>
      </trkpt>
      <trkpt lat="43.68837" lon="1.13858">
        <ele>268.2</ele>
        <time>2025-12-19T10:15:20Z</time>
      </trkpt>
      <trkpt lat="43.68841" lon="1.13861">
        <ele>268.2</ele>
        <time>2025-12-19T10:15:21Z</time>
      </trkpt>
      <trkpt lat="43.68847" lon="1.13863">
        <ele>268.2</ele>
        <time>2025-12-19T10:15:22Z</time>
      </trkpt>
      <trkpt lat="43.68852" lon="1.13866">
        <ele>268</ele>
        <time>2025-12-19T10:15:23Z</time>
      </trkpt>
      <trkpt lat="43.68857" lon="1.13868">
        <ele>268</ele>
        <time>2025-12-19T10:15:24Z</time>
      </trkpt>
      <trkpt lat="43.68863" lon="1.13869">
        <ele>268</ele>
        <time>2025-12-19T10:15:25Z</time>
      </trkpt>
      <trkpt lat="43.68869" lon="1.1387">
        <ele>267.8</ele>
        <time>2025-12-19T10:15:26Z</time>
      </trkpt>
      <trkpt lat="43.68875" lon="1.13871">
        <ele>267.6</ele>
        <time>2025-12-19T10:15:27Z</time>
      </trkpt>
      <trkpt lat="43.68881" lon="1.13871">
        <ele>267.4</ele>
        <time>2025-12-19T10:15:28Z</time>
      </trkpt>
      <trkpt lat="43.68887" lon="1.13872">
        <ele>267.2</ele>
        <time>2025-12-19T10:15:29Z</time>
      </trkpt>
      <trkpt lat="43.68894" lon="1.13872">
        <ele>266.8</ele>
        <time>2025-12-19T10:15:30Z</time>
      </trkpt>
      <trkpt lat="43.68901" lon="1.13872">
        <ele>266.6</ele>
        <time>2025-12-19T10:15:31Z</time>
      </trkpt>
      <trkpt lat="43.68908" lon="1.13872">
        <ele>266.4</ele>
        <time>2025-12-19T10:15:32Z</time>
      </trkpt>
      <trkpt lat="43.68915" lon="1.13872">
        <ele>266.2</ele>
        <time>2025-12-19T10:15:33Z</time>
      </trkpt>
      <trkpt lat="43.68922" lon="1.13872">
        <ele>265.8</ele>
        <time>2025-12-19T10:15:34Z</time>
      </trkpt>
      <trkpt lat="43.68929" lon="1.13871">
        <ele>265.6</ele>
        <time>2025-12-19T10:15:35Z</time>
      </trkpt>
      <trkpt lat="43.68935" lon="1.1387">
        <ele>265.4</ele>
        <time>2025-12-19T10:15:36Z</time>
      </trkpt>
      <trkpt lat="43.68942" lon="1.13869">
        <ele>265</ele>
        <time>2025-12-19T10:15:37Z</time>
      </trkpt>
      <trkpt lat="43.68949" lon="1.13867">
        <ele>265</ele>
        <time>2025-12-19T10:15:38Z</time>
      </trkpt>
      <trkpt lat="43.68956" lon="1.13866">
        <ele>264.6</ele>
        <time>2025-12-19T10:15:39Z</time>
      </trkpt>
      <trkpt lat="43.68962" lon="1.13864">
        <ele>264.4</ele>
        <time>2025-12-19T10:15:40Z</time>
      </trkpt>
      <trkpt lat="43.68968" lon="1.13862">
        <ele>264</ele>
        <time>2025-12-19T10:15:41Z</time>
      </trkpt>
      <trkpt lat="43.68975" lon="1.1386">
        <ele>263.8</ele>
        <time>2025-12-19T10:15:42Z</time>
      </trkpt>
      <trkpt lat="43.68982" lon="1.13858">
        <ele>263.8</ele>
        <time>2025-12-19T10:15:43Z</time>
      </trkpt>
      <trkpt lat="43.68988" lon="1.13856">
        <ele>263.8</ele>
        <time>2025-12-19T10:15:44Z</time>
      </trkpt>
      <trkpt lat="43.68994" lon="1.13853">
        <ele>263.8</ele>
        <time>2025-12-19T10:15:45Z</time>
      </trkpt>
      <trkpt lat="43.69" lon="1.1385">
        <ele>263.8</ele>
        <time>2025-12-19T10:15:46Z</time>
      </trkpt>
      <trkpt lat="43.69006" lon="1.13847">
        <ele>263.8</ele>
        <time>2025-12-19T10:15:47Z</time>
      </trkpt>
      <trkpt lat="43.69013" lon="1.13845">
        <ele>263.8</ele>
        <time>2025-12-19T10:15:48Z</time>
      </trkpt>
      <trkpt lat="43.69019" lon="1.13842">
        <ele>263.8</ele>
        <time>2025-12-19T10:15:49Z</time>
      </trkpt>
      <trkpt lat="43.69025" lon="1.1384">
        <ele>263.6</ele>
        <time>2025-12-19T10:15:50Z</time>
      </trkpt>
      <trkpt lat="43.69032" lon="1.13839">
        <ele>263.4</ele>
        <time>2025-12-19T10:15:51Z</time>
      </trkpt>
      <trkpt lat="43.69039" lon="1.13838">
        <ele>263.2</ele>
        <time>2025-12-19T10:15:52Z</time>
      </trkpt>
      <trkpt lat="43.69046" lon="1.13836">
        <ele>263</ele>
        <time>2025-12-19T10:15:53Z</time>
      </trkpt>
      <trkpt lat="43.69053" lon="1.13836">
        <ele>263</ele>
        <time>2025-12-19T10:15:54Z</time>
      </trkpt>
      <trkpt lat="43.6906" lon="1.13836">
        <ele>262.8</ele>
        <time>2025-12-19T10:15:55Z</time>
      </trkpt>
      <trkpt lat="43.69067" lon="1.13836">
        <ele>262.6</ele>
        <time>2025-12-19T10:15:56Z</time>
      </trkpt>
      <trkpt lat="43.69074" lon="1.13836">
        <ele>262.6</ele>
        <time>2025-12-19T10:15:57Z</time>
      </trkpt>
      <trkpt lat="43.69081" lon="1.13837">
        <ele>262.4</ele>
        <time>2025-12-19T10:15:58Z</time>
      </trkpt>
      <trkpt lat="43.69088" lon="1.13839">
        <ele>262.2</ele>
        <time>2025-12-19T10:15:59Z</time>
      </trkpt>
      <trkpt lat="43.69094" lon="1.13843">
        <ele>262</ele>
        <time>2025-12-19T10:16:00Z</time>
      </trkpt>
      <trkpt lat="43.691" lon="1.13847">
        <ele>261.8</ele>
        <time>2025-12-19T10:16:01Z</time>
      </trkpt>
      <trkpt lat="43.69106" lon="1.13852">
        <ele>261.6</ele>
        <time>2025-12-19T10:16:02Z</time>
      </trkpt>
      <trkpt lat="43.69111" lon="1.13858">
        <ele>261.2</ele>
        <time>2025-12-19T10:16:03Z</time>
      </trkpt>
      <trkpt lat="43.69117" lon="1.13864">
        <ele>261</ele>
        <time>2025-12-19T10:16:04Z</time>
      </trkpt>
      <trkpt lat="43.69122" lon="1.1387">
        <ele>260.8</ele>
        <time>2025-12-19T10:16:05Z</time>
      </trkpt>
      <trkpt lat="43.69128" lon="1.13875">
        <ele>260.6</ele>
        <time>2025-12-19T10:16:06Z</time>
      </trkpt>
      <trkpt lat="43.69133" lon="1.13881">
        <ele>260.4</ele>
        <time>2025-12-19T10:16:07Z</time>
      </trkpt>
      <trkpt lat="43.69139" lon="1.13887">
        <ele>260.2</ele>
        <time>2025-12-19T10:16:08Z</time>
      </trkpt>
      <trkpt lat="43.69144" lon="1.13893">
        <ele>260.2</ele>
        <time>2025-12-19T10:16:09Z</time>
      </trkpt>
      <trkpt lat="43.6915" lon="1.13899">
        <ele>260.2</ele>
        <time>2025-12-19T10:16:10Z</time>
      </trkpt>
      <trkpt lat="43.69156" lon="1.13906">
        <ele>259.8</ele>
        <time>2025-12-19T10:16:11Z</time>
      </trkpt>
      <trkpt lat="43.69162" lon="1.13912">
        <ele>259.6</ele>
        <time>2025-12-19T10:16:12Z</time>
      </trkpt>
      <trkpt lat="43.69168" lon="1.13918">
        <ele>259.2</ele>
        <time>2025-12-19T10:16:13Z</time>
      </trkpt>
      <trkpt lat="43.69173" lon="1.13924">
        <ele>259</ele>
        <time>2025-12-19T10:16:14Z</time>
      </trkpt>
      <trkpt lat="43.69179" lon="1.1393">
        <ele>258.6</ele>
        <time>2025-12-19T10:16:15Z</time>
      </trkpt>
      <trkpt lat="43.69185" lon="1.13936">
        <ele>258.4</ele>
        <time>2025-12-19T10:16:16Z</time>
      </trkpt>
      <trkpt lat="43.6919" lon="1.13943">
        <ele>258.2</ele>
        <time>2025-12-19T10:16:17Z</time>
      </trkpt>
      <trkpt lat="43.69195" lon="1.1395">
        <ele>258.2</ele>
        <time>2025-12-19T10:16:18Z</time>
      </trkpt>
      <trkpt lat="43.69199" lon="1.13959">
        <ele>258</ele>
        <time>2025-12-19T10:16:19Z</time>
      </trkpt>
      <trkpt lat="43.69202" lon="1.13968">
        <ele>258</ele>
        <time>2025-12-19T10:16:20Z</time>
      </trkpt>
      <trkpt lat="43.69205" lon="1.13978">
        <ele>257.8</ele>
        <time>2025-12-19T10:16:21Z</time>
      </trkpt>
      <trkpt lat="43.69206" lon="1.13988">
        <ele>257.8</ele>
        <time>2025-12-19T10:16:22Z</time>
      </trkpt>
      <trkpt lat="43.69208" lon="1.13998">
        <ele>257.8</ele>
        <time>2025-12-19T10:16:23Z</time>
      </trkpt>
      <trkpt lat="43.69209" lon="1.14008">
        <ele>257.8</ele>
        <time>2025-12-19T10:16:24Z</time>
      </trkpt>
      <trkpt lat="43.6921" lon="1.14018">
        <ele>257.8</ele>
        <time>2025-12-19T10:16:25Z</time>
      </trkpt>
      <trkpt lat="43.69211" lon="1.14028">
        <ele>257.8</ele>
        <time>2025-12-19T10:16:26Z</time>
      </trkpt>
      <trkpt lat="43.69212" lon="1.14038">
        <ele>257.6</ele>
        <time>2025-12-19T10:16:27Z</time>
      </trkpt>
      <trkpt lat="43.69213" lon="1.14049">
        <ele>257.4</ele>
        <time>2025-12-19T10:16:28Z</time>
      </trkpt>
      <trkpt lat="43.69214" lon="1.14058">
        <ele>257.2</ele>
        <time>2025-12-19T10:16:29Z</time>
      </trkpt>
      <trkpt lat="43.69215" lon="1.14068">
        <ele>257</ele>
        <time>2025-12-19T10:16:30Z</time>
      </trkpt>
      <trkpt lat="43.69216" lon="1.14078">
        <ele>256.8</ele>
        <time>2025-12-19T10:16:31Z</time>
      </trkpt>
      <trkpt lat="43.69217" lon="1.14087">
        <ele>256.8</ele>
        <time>2025-12-19T10:16:32Z</time>
      </trkpt>
      <trkpt lat="43.69218" lon="1.14096">
        <ele>257</ele>
        <time>2025-12-19T10:16:33Z</time>
      </trkpt>
      <trkpt lat="43.69218" lon="1.14105">
        <ele>257</ele>
        <time>2025-12-19T10:16:34Z</time>
      </trkpt>
      <trkpt lat="43.69219" lon="1.14115">
        <ele>257.2</ele>
        <time>2025-12-19T10:16:35Z</time>
      </trkpt>
      <trkpt lat="43.69221" lon="1.14124">
        <ele>257.2</ele>
        <time>2025-12-19T10:16:36Z</time>
      </trkpt>
      <trkpt lat="43.69222" lon="1.14132">
        <ele>257.4</ele>
        <time>2025-12-19T10:16:37Z</time>
      </trkpt>
      <trkpt lat="43.69223" lon="1.14141">
        <ele>257.4</ele>
        <time>2025-12-19T10:16:38Z</time>
      </trkpt>
      <trkpt lat="43.69224" lon="1.1415">
        <ele>257.6</ele>
        <time>2025-12-19T10:16:39Z</time>
      </trkpt>
      <trkpt lat="43.69225" lon="1.14159">
        <ele>257.6</ele>
        <time>2025-12-19T10:16:40Z</time>
      </trkpt>
      <trkpt lat="43.69226" lon="1.14168">
        <ele>257.8</ele>
        <time>2025-12-19T10:16:41Z</time>
      </trkpt>
      <trkpt lat="43.69227" lon="1.14177">
        <ele>257.8</ele>
        <time>2025-12-19T10:16:42Z</time>
      </trkpt>
      <trkpt lat="43.69228" lon="1.14187">
        <ele>257.8</ele>
        <time>2025-12-19T10:16:43Z</time>
      </trkpt>
      <trkpt lat="43.6923" lon="1.14195">
        <ele>258</ele>
        <time>2025-12-19T10:16:44Z</time>
      </trkpt>
      <trkpt lat="43.69231" lon="1.14204">
        <ele>258.2</ele>
        <time>2025-12-19T10:16:45Z</time>
      </trkpt>
      <trkpt lat="43.69232" lon="1.14212">
        <ele>258</ele>
        <time>2025-12-19T10:16:46Z</time>
      </trkpt>
      <trkpt lat="43.69234" lon="1.14221">
        <ele>258</ele>
        <time>2025-12-19T10:16:47Z</time>
      </trkpt>
      <trkpt lat="43.69235" lon="1.14229">
        <ele>258.2</ele>
        <time>2025-12-19T10:16:48Z</time>
      </trkpt>
      <trkpt lat="43.69236" lon="1.14238">
        <ele>258.2</ele>
        <time>2025-12-19T10:16:49Z</time>
      </trkpt>
      <trkpt lat="43.69238" lon="1.14246">
        <ele>258.2</ele>
        <time>2025-12-19T10:16:50Z</time>
      </trkpt>
      <trkpt lat="43.69239" lon="1.14255">
        <ele>258.4</ele>
        <time>2025-12-19T10:16:51Z</time>
      </trkpt>
      <trkpt lat="43.69241" lon="1.14263">
        <ele>258.6</ele>
        <time>2025-12-19T10:16:52Z</time>
      </trkpt>
      <trkpt lat="43.69242" lon="1.14272">
        <ele>258.8</ele>
        <time>2025-12-19T10:16:53Z</time>
      </trkpt>
      <trkpt lat="43.69243" lon="1.14281">
        <ele>258.8</ele>
        <time>2025-12-19T10:16:54Z</time>
      </trkpt>
      <trkpt lat="43.69244" lon="1.14289">
        <ele>259</ele>
        <time>2025-12-19T10:16:55Z</time>
      </trkpt>
      <trkpt lat="43.69246" lon="1.14298">
        <ele>259</ele>
        <time>2025-12-19T10:16:56Z</time>
      </trkpt>
      <trkpt lat="43.69247" lon="1.14307">
        <ele>259</ele>
        <time>2025-12-19T10:16:57Z</time>
      </trkpt>
      <trkpt lat="43.69248" lon="1.14315">
        <ele>259</ele>
        <time>2025-12-19T10:16:58Z</time>
      </trkpt>
      <trkpt lat="43.69249" lon="1.14324">
        <ele>259</ele>
        <time>2025-12-19T10:16:59Z</time>
      </trkpt>
      <trkpt lat="43.69251" lon="1.14333">
        <ele>258.8</ele>
        <time>2025-12-19T10:17:00Z</time>
      </trkpt>
      <trkpt lat="43.69252" lon="1.14343">
        <ele>258.8</ele>
        <time>2025-12-19T10:17:01Z</time>
      </trkpt>
      <trkpt lat="43.69253" lon="1.14352">
        <ele>258.8</ele>
        <time>2025-12-19T10:17:02Z</time>
      </trkpt>
      <trkpt lat="43.69255" lon="1.14361">
        <ele>258.6</ele>
        <time>2025-12-19T10:17:03Z</time>
      </trkpt>
      <trkpt lat="43.69256" lon="1.1437">
        <ele>258.6</ele>
        <time>2025-12-19T10:17:04Z</time>
      </trkpt>
      <trkpt lat="43.69257" lon="1.14379">
        <ele>258.4</ele>
        <time>2025-12-19T10:17:05Z</time>
      </trkpt>
      <trkpt lat="43.69259" lon="1.14389">
        <ele>258.2</ele>
        <time>2025-12-19T10:17:06Z</time>
      </trkpt>
      <trkpt lat="43.6926" lon="1.14398">
        <ele>258.2</ele>
        <time>2025-12-19T10:17:07Z</time>
      </trkpt>
      <trkpt lat="43.69262" lon="1.14407">
        <ele>258</ele>
        <time>2025-12-19T10:17:08Z</time>
      </trkpt>
      <trkpt lat="43.69263" lon="1.14417">
        <ele>257.8</ele>
        <time>2025-12-19T10:17:09Z</time>
      </trkpt>
      <trkpt lat="43.69265" lon="1.14426">
        <ele>257.6</ele>
        <time>2025-12-19T10:17:10Z</time>
      </trkpt>
      <trkpt lat="43.69266" lon="1.14435">
        <ele>257.6</ele>
        <time>2025-12-19T10:17:11Z</time>
      </trkpt>
      <trkpt lat="43.69268" lon="1.14445">
        <ele>257.6</ele>
        <time>2025-12-19T10:17:12Z</time>
      </trkpt>
      <trkpt lat="43.6927" lon="1.14453">
        <ele>257.6</ele>
        <time>2025-12-19T10:17:13Z</time>
      </trkpt>
      <trkpt lat="43.69271" lon="1.14462">
        <ele>257.6</ele>
        <time>2025-12-19T10:17:14Z</time>
      </trkpt>
      <trkpt lat="43.69273" lon="1.14471">
        <ele>257.4</ele>
        <time>2025-12-19T10:17:15Z</time>
      </trkpt>
      <trkpt lat="43.69275" lon="1.1448">
        <ele>257.4</ele>
        <time>2025-12-19T10:17:16Z</time>
      </trkpt>
      <trkpt lat="43.69278" lon="1.14489">
        <ele>257.4</ele>
        <time>2025-12-19T10:17:17Z</time>
      </trkpt>
      <trkpt lat="43.6928" lon="1.14498">
        <ele>257.2</ele>
        <time>2025-12-19T10:17:18Z</time>
      </trkpt>
      <trkpt lat="43.69283" lon="1.14506">
        <ele>257.2</ele>
        <time>2025-12-19T10:17:19Z</time>
      </trkpt>
      <trkpt lat="43.69287" lon="1.14516">
        <ele>257</ele>
        <time>2025-12-19T10:17:20Z</time>
      </trkpt>
      <trkpt lat="43.6929" lon="1.14524">
        <ele>256.8</ele>
        <time>2025-12-19T10:17:21Z</time>
      </trkpt>
      <trkpt lat="43.69294" lon="1.14533">
        <ele>256.8</ele>
        <time>2025-12-19T10:17:22Z</time>
      </trkpt>
      <trkpt lat="43.69298" lon="1.14542">
        <ele>256.6</ele>
        <time>2025-12-19T10:17:23Z</time>
      </trkpt>
      <trkpt lat="43.69302" lon="1.14551">
        <ele>256.6</ele>
        <time>2025-12-19T10:17:24Z</time>
      </trkpt>
      <trkpt lat="43.69306" lon="1.14559">
        <ele>256.4</ele>
        <time>2025-12-19T10:17:25Z</time>
      </trkpt>
      <trkpt lat="43.69309" lon="1.14567">
        <ele>256.4</ele>
        <time>2025-12-19T10:17:26Z</time>
      </trkpt>
      <trkpt lat="43.69313" lon="1.14576">
        <ele>256.4</ele>
        <time>2025-12-19T10:17:27Z</time>
      </trkpt>
      <trkpt lat="43.69317" lon="1.14584">
        <ele>256.2</ele>
        <time>2025-12-19T10:17:28Z</time>
      </trkpt>
      <trkpt lat="43.69321" lon="1.14593">
        <ele>256.2</ele>
        <time>2025-12-19T10:17:29Z</time>
      </trkpt>
      <trkpt lat="43.69324" lon="1.14601">
        <ele>256.2</ele>
        <time>2025-12-19T10:17:30Z</time>
      </trkpt>
      <trkpt lat="43.69328" lon="1.1461">
        <ele>256</ele>
        <time>2025-12-19T10:17:31Z</time>
      </trkpt>
      <trkpt lat="43.69332" lon="1.14619">
        <ele>255.8</ele>
        <time>2025-12-19T10:17:32Z</time>
      </trkpt>
      <trkpt lat="43.69335" lon="1.14628">
        <ele>255.8</ele>
        <time>2025-12-19T10:17:33Z</time>
      </trkpt>
      <trkpt lat="43.69339" lon="1.14637">
        <ele>255.6</ele>
        <time>2025-12-19T10:17:34Z</time>
      </trkpt>
      <trkpt lat="43.69342" lon="1.14647">
        <ele>255.4</ele>
        <time>2025-12-19T10:17:35Z</time>
      </trkpt>
      <trkpt lat="43.69346" lon="1.14656">
        <ele>255.2</ele>
        <time>2025-12-19T10:17:36Z</time>
      </trkpt>
      <trkpt lat="43.69349" lon="1.14665">
        <ele>255.2</ele>
        <time>2025-12-19T10:17:37Z</time>
      </trkpt>
      <trkpt lat="43.69353" lon="1.14674">
        <ele>255</ele>
        <time>2025-12-19T10:17:38Z</time>
      </trkpt>
      <trkpt lat="43.69356" lon="1.14683">
        <ele>255</ele>
        <time>2025-12-19T10:17:39Z</time>
      </trkpt>
      <trkpt lat="43.6936" lon="1.14692">
        <ele>255</ele>
        <time>2025-12-19T10:17:40Z</time>
      </trkpt>
      <trkpt lat="43.69364" lon="1.14701">
        <ele>255</ele>
        <time>2025-12-19T10:17:41Z</time>
      </trkpt>
      <trkpt lat="43.69368" lon="1.14708">
        <ele>255</ele>
        <time>2025-12-19T10:17:42Z</time>
      </trkpt>
      <trkpt lat="43.69374" lon="1.14715">
        <ele>255</ele>
        <time>2025-12-19T10:17:43Z</time>
      </trkpt>
      <trkpt lat="43.69379" lon="1.1472">
        <ele>255</ele>
        <time>2025-12-19T10:17:44Z</time>
      </trkpt>
      <trkpt lat="43.69386" lon="1.14724">
        <ele>255</ele>
        <time>2025-12-19T10:17:45Z</time>
      </trkpt>
      <trkpt lat="43.69393" lon="1.14727">
        <ele>255</ele>
        <time>2025-12-19T10:17:46Z</time>
      </trkpt>
      <trkpt lat="43.694" lon="1.1473">
        <ele>255</ele>
        <time>2025-12-19T10:17:47Z</time>
      </trkpt>
      <trkpt lat="43.69406" lon="1.14734">
        <ele>254.8</ele>
        <time>2025-12-19T10:17:48Z</time>
      </trkpt>
      <trkpt lat="43.69413" lon="1.14739">
        <ele>254.8</ele>
        <time>2025-12-19T10:17:49Z</time>
      </trkpt>
      <trkpt lat="43.69418" lon="1.14746">
        <ele>254.6</ele>
        <time>2025-12-19T10:17:50Z</time>
      </trkpt>
      <trkpt lat="43.69423" lon="1.14753">
        <ele>254.6</ele>
        <time>2025-12-19T10:17:51Z</time>
      </trkpt>
      <trkpt lat="43.69428" lon="1.1476">
        <ele>254.4</ele>
        <time>2025-12-19T10:17:52Z</time>
      </trkpt>
      <trkpt lat="43.69433" lon="1.14767">
        <ele>254.2</ele>
        <time>2025-12-19T10:17:53Z</time>
      </trkpt>
      <trkpt lat="43.69438" lon="1.14775">
        <ele>254</ele>
        <time>2025-12-19T10:17:54Z</time>
      </trkpt>
      <trkpt lat="43.69444" lon="1.14783">
        <ele>253.6</ele>
        <time>2025-12-19T10:17:55Z</time>
      </trkpt>
      <trkpt lat="43.69449" lon="1.14791">
        <ele>253</ele>
        <time>2025-12-19T10:17:56Z</time>
      </trkpt>
      <trkpt lat="43.69454" lon="1.148">
        <ele>252.6</ele>
        <time>2025-12-19T10:17:57Z</time>
      </trkpt>
      <trkpt lat="43.69459" lon="1.14808">
        <ele>252.4</ele>
        <time>2025-12-19T10:17:58Z</time>
      </trkpt>
      <trkpt lat="43.69465" lon="1.14817">
        <ele>251.4</ele>
        <time>2025-12-19T10:17:59Z</time>
      </trkpt>
      <trkpt lat="43.69472" lon="1.14826">
        <ele>250.8</ele>
        <time>2025-12-19T10:18:00Z</time>
      </trkpt>
      <trkpt lat="43.69478" lon="1.14835">
        <ele>250.6</ele>
        <time>2025-12-19T10:18:01Z</time>
      </trkpt>
      <trkpt lat="43.69485" lon="1.14844">
        <ele>249.6</ele>
        <time>2025-12-19T10:18:02Z</time>
      </trkpt>
      <trkpt lat="43.69492" lon="1.14852">
        <ele>248.8</ele>
        <time>2025-12-19T10:18:03Z</time>
      </trkpt>
      <trkpt lat="43.69499" lon="1.14861">
        <ele>248.4</ele>
        <time>2025-12-19T10:18:04Z</time>
      </trkpt>
      <trkpt lat="43.69507" lon="1.14869">
        <ele>248.2</ele>
        <time>2025-12-19T10:18:05Z</time>
      </trkpt>
      <trkpt lat="43.69514" lon="1.14878">
        <ele>247.2</ele>
        <time>2025-12-19T10:18:06Z</time>
      </trkpt>
      <trkpt lat="43.69519" lon="1.14888">
        <ele>246.6</ele>
        <time>2025-12-19T10:18:07Z</time>
      </trkpt>
      <trkpt lat="43.69525" lon="1.14899">
        <ele>246.2</ele>
        <time>2025-12-19T10:18:08Z</time>
      </trkpt>
      <trkpt lat="43.69531" lon="1.14911">
        <ele>245.8</ele>
        <time>2025-12-19T10:18:09Z</time>
      </trkpt>
      <trkpt lat="43.69535" lon="1.14923">
        <ele>245.4</ele>
        <time>2025-12-19T10:18:10Z</time>
      </trkpt>
      <trkpt lat="43.6954" lon="1.14935">
        <ele>245</ele>
        <time>2025-12-19T10:18:11Z</time>
      </trkpt>
      <trkpt lat="43.69543" lon="1.14948">
        <ele>244.2</ele>
        <time>2025-12-19T10:18:12Z</time>
      </trkpt>
      <trkpt lat="43.69546" lon="1.14961">
        <ele>243.4</ele>
        <time>2025-12-19T10:18:13Z</time>
      </trkpt>
      <trkpt lat="43.69548" lon="1.14975">
        <ele>242.4</ele>
        <time>2025-12-19T10:18:14Z</time>
      </trkpt>
      <trkpt lat="43.69551" lon="1.1499">
        <ele>241.6</ele>
        <time>2025-12-19T10:18:15Z</time>
      </trkpt>
      <trkpt lat="43.69554" lon="1.15004">
        <ele>240.6</ele>
        <time>2025-12-19T10:18:16Z</time>
      </trkpt>
      <trkpt lat="43.69558" lon="1.15019">
        <ele>239.8</ele>
        <time>2025-12-19T10:18:17Z</time>
      </trkpt>
      <trkpt lat="43.69563" lon="1.15033">
        <ele>238.4</ele>
        <time>2025-12-19T10:18:18Z</time>
      </trkpt>
      <trkpt lat="43.69568" lon="1.15048">
        <ele>237.2</ele>
        <time>2025-12-19T10:18:19Z</time>
      </trkpt>
      <trkpt lat="43.69572" lon="1.15063">
        <ele>236.2</ele>
        <time>2025-12-19T10:18:20Z</time>
      </trkpt>
      <trkpt lat="43.69576" lon="1.15078">
        <ele>235.2</ele>
        <time>2025-12-19T10:18:21Z</time>
      </trkpt>
      <trkpt lat="43.6958" lon="1.15093">
        <ele>234.4</ele>
        <time>2025-12-19T10:18:22Z</time>
      </trkpt>
      <trkpt lat="43.69583" lon="1.15109">
        <ele>233.6</ele>
        <time>2025-12-19T10:18:23Z</time>
      </trkpt>
      <trkpt lat="43.69587" lon="1.15124">
        <ele>233</ele>
        <time>2025-12-19T10:18:24Z</time>
      </trkpt>
      <trkpt lat="43.6959" lon="1.15139">
        <ele>231.6</ele>
        <time>2025-12-19T10:18:25Z</time>
      </trkpt>
      <trkpt lat="43.69594" lon="1.15155">
        <ele>230.6</ele>
        <time>2025-12-19T10:18:26Z</time>
      </trkpt>
      <trkpt lat="43.69596" lon="1.1517">
        <ele>229.8</ele>
        <time>2025-12-19T10:18:27Z</time>
      </trkpt>
      <trkpt lat="43.69598" lon="1.15186">
        <ele>229</ele>
        <time>2025-12-19T10:18:28Z</time>
      </trkpt>
      <trkpt lat="43.69601" lon="1.15201">
        <ele>228.4</ele>
        <time>2025-12-19T10:18:29Z</time>
      </trkpt>
      <trkpt lat="43.69603" lon="1.15216">
        <ele>227.8</ele>
        <time>2025-12-19T10:18:30Z</time>
      </trkpt>
      <trkpt lat="43.69605" lon="1.1523">
        <ele>227.4</ele>
        <time>2025-12-19T10:18:31Z</time>
      </trkpt>
      <trkpt lat="43.69607" lon="1.15245">
        <ele>227</ele>
        <time>2025-12-19T10:18:32Z</time>
      </trkpt>
      <trkpt lat="43.69609" lon="1.15259">
        <ele>226.8</ele>
        <time>2025-12-19T10:18:33Z</time>
      </trkpt>
      <trkpt lat="43.69611" lon="1.15274">
        <ele>226.4</ele>
        <time>2025-12-19T10:18:34Z</time>
      </trkpt>
      <trkpt lat="43.69613" lon="1.15288">
        <ele>226</ele>
        <time>2025-12-19T10:18:35Z</time>
      </trkpt>
      <trkpt lat="43.69615" lon="1.15303">
        <ele>225.6</ele>
        <time>2025-12-19T10:18:36Z</time>
      </trkpt>
      <trkpt lat="43.69617" lon="1.15317">
        <ele>225.2</ele>
        <time>2025-12-19T10:18:37Z</time>
      </trkpt>
      <trkpt lat="43.69619" lon="1.15332">
        <ele>224.6</ele>
        <time>2025-12-19T10:18:38Z</time>
      </trkpt>
      <trkpt lat="43.69621" lon="1.15346">
        <ele>223.8</ele>
        <time>2025-12-19T10:18:39Z</time>
      </trkpt>
      <trkpt lat="43.69623" lon="1.15361">
        <ele>223</ele>
        <time>2025-12-19T10:18:40Z</time>
      </trkpt>
      <trkpt lat="43.69625" lon="1.15375">
        <ele>221.8</ele>
        <time>2025-12-19T10:18:41Z</time>
      </trkpt>
      <trkpt lat="43.69629" lon="1.1539">
        <ele>220.6</ele>
        <time>2025-12-19T10:18:42Z</time>
      </trkpt>
      <trkpt lat="43.69634" lon="1.15404">
        <ele>219.4</ele>
        <time>2025-12-19T10:18:43Z</time>
      </trkpt>
      <trkpt lat="43.6964" lon="1.15418">
        <ele>218.2</ele>
        <time>2025-12-19T10:18:44Z</time>
      </trkpt>
      <trkpt lat="43.69647" lon="1.15432">
        <ele>216.8</ele>
        <time>2025-12-19T10:18:45Z</time>
      </trkpt>
      <trkpt lat="43.69654" lon="1.15446">
        <ele>215</ele>
        <time>2025-12-19T10:18:46Z</time>
      </trkpt>
      <trkpt lat="43.69662" lon="1.15459">
        <ele>214</ele>
        <time>2025-12-19T10:18:47Z</time>
      </trkpt>
      <trkpt lat="43.69671" lon="1.1547">
        <ele>212.8</ele>
        <time>2025-12-19T10:18:48Z</time>
      </trkpt>
      <trkpt lat="43.69681" lon="1.15479">
        <ele>211.6</ele>
        <time>2025-12-19T10:18:49Z</time>
      </trkpt>
      <trkpt lat="43.69692" lon="1.15488">
        <ele>210.6</ele>
        <time>2025-12-19T10:18:50Z</time>
      </trkpt>
      <trkpt lat="43.69704" lon="1.15496">
        <ele>208.2</ele>
        <time>2025-12-19T10:18:51Z</time>
      </trkpt>
      <trkpt lat="43.69715" lon="1.15505">
        <ele>206.8</ele>
        <time>2025-12-19T10:18:52Z</time>
      </trkpt>
      <trkpt lat="43.69725" lon="1.15514">
        <ele>206.2</ele>
        <time>2025-12-19T10:18:53Z</time>
      </trkpt>
      <trkpt lat="43.69736" lon="1.15522">
        <ele>205</ele>
        <time>2025-12-19T10:18:54Z</time>
      </trkpt>
      <trkpt lat="43.69748" lon="1.15529">
        <ele>204</ele>
        <time>2025-12-19T10:18:55Z</time>
      </trkpt>
      <trkpt lat="43.69759" lon="1.15535">
        <ele>202.8</ele>
        <time>2025-12-19T10:18:56Z</time>
      </trkpt>
      <trkpt lat="43.69771" lon="1.15538">
        <ele>201.6</ele>
        <time>2025-12-19T10:18:57Z</time>
      </trkpt>
      <trkpt lat="43.69783" lon="1.1554">
        <ele>200.6</ele>
        <time>2025-12-19T10:18:58Z</time>
      </trkpt>
      <trkpt lat="43.69795" lon="1.15542">
        <ele>199.6</ele>
        <time>2025-12-19T10:18:59Z</time>
      </trkpt>
      <trkpt lat="43.69808" lon="1.15543">
        <ele>199.2</ele>
        <time>2025-12-19T10:19:00Z</time>
      </trkpt>
      <trkpt lat="43.69819" lon="1.15543">
        <ele>198.4</ele>
        <time>2025-12-19T10:19:01Z</time>
      </trkpt>
      <trkpt lat="43.69831" lon="1.15544">
        <ele>197.4</ele>
        <time>2025-12-19T10:19:02Z</time>
      </trkpt>
      <trkpt lat="43.69843" lon="1.15544">
        <ele>196.8</ele>
        <time>2025-12-19T10:19:03Z</time>
      </trkpt>
      <trkpt lat="43.69855" lon="1.15545">
        <ele>196.2</ele>
        <time>2025-12-19T10:19:04Z</time>
      </trkpt>
      <trkpt lat="43.69867" lon="1.15546">
        <ele>195.6</ele>
        <time>2025-12-19T10:19:05Z</time>
      </trkpt>
      <trkpt lat="43.69879" lon="1.15546">
        <ele>195</ele>
        <time>2025-12-19T10:19:06Z</time>
      </trkpt>
      <trkpt lat="43.6989" lon="1.15546">
        <ele>194.2</ele>
        <time>2025-12-19T10:19:07Z</time>
      </trkpt>
      <trkpt lat="43.69901" lon="1.15547">
        <ele>193.6</ele>
        <time>2025-12-19T10:19:08Z</time>
      </trkpt>
      <trkpt lat="43.69912" lon="1.15547">
        <ele>193</ele>
        <time>2025-12-19T10:19:09Z</time>
      </trkpt>
      <trkpt lat="43.69921" lon="1.15547">
        <ele>192.4</ele>
        <time>2025-12-19T10:19:10Z</time>
      </trkpt>
      <trkpt lat="43.6993" lon="1.15547">
        <ele>192</ele>
        <time>2025-12-19T10:19:11Z</time>
      </trkpt>
      <trkpt lat="43.69939" lon="1.15547">
        <ele>191.4</ele>
        <time>2025-12-19T10:19:12Z</time>
      </trkpt>
      <trkpt lat="43.69947" lon="1.15549">
        <ele>190.8</ele>
        <time>2025-12-19T10:19:13Z</time>
      </trkpt>
      <trkpt lat="43.69954" lon="1.15553">
        <ele>190.4</ele>
        <time>2025-12-19T10:19:14Z</time>
      </trkpt>
      <trkpt lat="43.6996" lon="1.1556">
        <ele>190</ele>
        <time>2025-12-19T10:19:15Z</time>
      </trkpt>
      <trkpt lat="43.69965" lon="1.15571">
        <ele>189.4</ele>
        <time>2025-12-19T10:19:16Z</time>
      </trkpt>
      <trkpt lat="43.69969" lon="1.15582">
        <ele>188.6</ele>
        <time>2025-12-19T10:19:17Z</time>
      </trkpt>
      <trkpt lat="43.69972" lon="1.15594">
        <ele>187.4</ele>
        <time>2025-12-19T10:19:18Z</time>
      </trkpt>
      <trkpt lat="43.69974" lon="1.15608">
        <ele>186.2</ele>
        <time>2025-12-19T10:19:19Z</time>
      </trkpt>
      <trkpt lat="43.69976" lon="1.15622">
        <ele>185.4</ele>
        <time>2025-12-19T10:19:20Z</time>
      </trkpt>
      <trkpt lat="43.69979" lon="1.15637">
        <ele>184.6</ele>
        <time>2025-12-19T10:19:21Z</time>
      </trkpt>
      <trkpt lat="43.69981" lon="1.15651">
        <ele>183.6</ele>
        <time>2025-12-19T10:19:22Z</time>
      </trkpt>
      <trkpt lat="43.69984" lon="1.15663">
        <ele>182.8</ele>
        <time>2025-12-19T10:19:23Z</time>
      </trkpt>
      <trkpt lat="43.69987" lon="1.15676">
        <ele>182.2</ele>
        <time>2025-12-19T10:19:24Z</time>
      </trkpt>
      <trkpt lat="43.6999" lon="1.15688">
        <ele>182</ele>
        <time>2025-12-19T10:19:25Z</time>
      </trkpt>
      <trkpt lat="43.69992" lon="1.157">
        <ele>181.8</ele>
        <time>2025-12-19T10:19:26Z</time>
      </trkpt>
      <trkpt lat="43.69994" lon="1.1571">
        <ele>182</ele>
        <time>2025-12-19T10:19:27Z</time>
      </trkpt>
      <trkpt lat="43.69997" lon="1.15719">
        <ele>182.2</ele>
        <time>2025-12-19T10:19:28Z</time>
      </trkpt>
      <trkpt lat="43.69999" lon="1.15727">
        <ele>182.8</ele>
        <time>2025-12-19T10:19:29Z</time>
      </trkpt>
      <trkpt lat="43.7" lon="1.15735">
        <ele>183.4</ele>
        <time>2025-12-19T10:19:30Z</time>
      </trkpt>
      <trkpt lat="43.70002" lon="1.15742">
        <ele>183.8</ele>
        <time>2025-12-19T10:19:31Z</time>
      </trkpt>
      <trkpt lat="43.70003" lon="1.1575">
        <ele>184.4</ele>
        <time>2025-12-19T10:19:32Z</time>
      </trkpt>
      <trkpt lat="43.70004" lon="1.15756">
        <ele>185</ele>
        <time>2025-12-19T10:19:33Z</time>
      </trkpt>
      <trkpt lat="43.70006" lon="1.15762">
        <ele>185.8</ele>
        <time>2025-12-19T10:19:34Z</time>
      </trkpt>
      <trkpt lat="43.70007" lon="1.15769">
        <ele>186.2</ele>
        <time>2025-12-19T10:19:35Z</time>
      </trkpt>
      <trkpt lat="43.70009" lon="1.15776">
        <ele>186.4</ele>
        <time>2025-12-19T10:19:36Z</time>
      </trkpt>
      <trkpt lat="43.7001" lon="1.15783">
        <ele>186.8</ele>
        <time>2025-12-19T10:19:37Z</time>
      </trkpt>
      <trkpt lat="43.70012" lon="1.1579">
        <ele>186.8</ele>
        <time>2025-12-19T10:19:38Z</time>
      </trkpt>
      <trkpt lat="43.70014" lon="1.15797">
        <ele>186.8</ele>
        <time>2025-12-19T10:19:39Z</time>
      </trkpt>
      <trkpt lat="43.70018" lon="1.15803">
        <ele>186.8</ele>
        <time>2025-12-19T10:19:40Z</time>
      </trkpt>
      <trkpt lat="43.70023" lon="1.15807">
        <ele>186.6</ele>
        <time>2025-12-19T10:19:41Z</time>
      </trkpt>
      <trkpt lat="43.7003" lon="1.15809">
        <ele>186.2</ele>
        <time>2025-12-19T10:19:42Z</time>
      </trkpt>
      <trkpt lat="43.70037" lon="1.15807">
        <ele>185.8</ele>
        <time>2025-12-19T10:19:43Z</time>
      </trkpt>
      <trkpt lat="43.70045" lon="1.15805">
        <ele>185.2</ele>
        <time>2025-12-19T10:19:44Z</time>
      </trkpt>
      <trkpt lat="43.70053" lon="1.15802">
        <ele>184.6</ele>
        <time>2025-12-19T10:19:45Z</time>
      </trkpt>
      <trkpt lat="43.70062" lon="1.15798">
        <ele>183.8</ele>
        <time>2025-12-19T10:19:46Z</time>
      </trkpt>
      <trkpt lat="43.70071" lon="1.15795">
        <ele>182.8</ele>
        <time>2025-12-19T10:19:47Z</time>
      </trkpt>
      <trkpt lat="43.7008" lon="1.15791">
        <ele>181.8</ele>
        <time>2025-12-19T10:19:48Z</time>
      </trkpt>
      <trkpt lat="43.7009" lon="1.15787">
        <ele>180.8</ele>
        <time>2025-12-19T10:19:49Z</time>
      </trkpt>
      <trkpt lat="43.70101" lon="1.15783">
        <ele>179.4</ele>
        <time>2025-12-19T10:19:50Z</time>
      </trkpt>
      <trkpt lat="43.70111" lon="1.15779">
        <ele>178.6</ele>
        <time>2025-12-19T10:19:51Z</time>
      </trkpt>
      <trkpt lat="43.70122" lon="1.15774">
        <ele>177.4</ele>
        <time>2025-12-19T10:19:52Z</time>
      </trkpt>
      <trkpt lat="43.70133" lon="1.1577">
        <ele>176</ele>
        <time>2025-12-19T10:19:53Z</time>
      </trkpt>
      <trkpt lat="43.70145" lon="1.15765">
        <ele>174.6</ele>
        <time>2025-12-19T10:19:54Z</time>
      </trkpt>
      <trkpt lat="43.70157" lon="1.1576">
        <ele>172.8</ele>
        <time>2025-12-19T10:19:55Z</time>
      </trkpt>
      <trkpt lat="43.70168" lon="1.15754">
        <ele>171.8</ele>
        <time>2025-12-19T10:19:56Z</time>
      </trkpt>
      <trkpt lat="43.7018" lon="1.1575">
        <ele>170.6</ele>
        <time>2025-12-19T10:19:57Z</time>
      </trkpt>
      <trkpt lat="43.70192" lon="1.15746">
        <ele>169.4</ele>
        <time>2025-12-19T10:19:58Z</time>
      </trkpt>
      <trkpt lat="43.70205" lon="1.15744">
        <ele>168.2</ele>
        <time>2025-12-19T10:19:59Z</time>
      </trkpt>
      <trkpt lat="43.70217" lon="1.15746">
        <ele>167.6</ele>
        <time>2025-12-19T10:20:00Z</time>
      </trkpt>
      <trkpt lat="43.70229" lon="1.15749">
        <ele>166.2</ele>
        <time>2025-12-19T10:20:01Z</time>
      </trkpt>
      <trkpt lat="43.7024" lon="1.15752">
        <ele>165.4</ele>
        <time>2025-12-19T10:20:02Z</time>
      </trkpt>
      <trkpt lat="43.70251" lon="1.15756">
        <ele>165</ele>
        <time>2025-12-19T10:20:03Z</time>
      </trkpt>
      <trkpt lat="43.70262" lon="1.15758">
        <ele>164.8</ele>
        <time>2025-12-19T10:20:04Z</time>
      </trkpt>
      <trkpt lat="43.70272" lon="1.15759">
        <ele>164.6</ele>
        <time>2025-12-19T10:20:05Z</time>
      </trkpt>
      <trkpt lat="43.70281" lon="1.15757">
        <ele>164.6</ele>
        <time>2025-12-19T10:20:06Z</time>
      </trkpt>
      <trkpt lat="43.7029" lon="1.15754">
        <ele>164.8</ele>
        <time>2025-12-19T10:20:07Z</time>
      </trkpt>
      <trkpt lat="43.70299" lon="1.15751">
        <ele>165</ele>
        <time>2025-12-19T10:20:08Z</time>
      </trkpt>
      <trkpt lat="43.70307" lon="1.15749">
        <ele>165</ele>
        <time>2025-12-19T10:20:09Z</time>
      </trkpt>
      <trkpt lat="43.70315" lon="1.15747">
        <ele>165.4</ele>
        <time>2025-12-19T10:20:10Z</time>
      </trkpt>
      <trkpt lat="43.70322" lon="1.15745">
        <ele>165.6</ele>
        <time>2025-12-19T10:20:11Z</time>
      </trkpt>
      <trkpt lat="43.70329" lon="1.15744">
        <ele>166</ele>
        <time>2025-12-19T10:20:12Z</time>
      </trkpt>
      <trkpt lat="43.70335" lon="1.15743">
        <ele>166.4</ele>
        <time>2025-12-19T10:20:13Z</time>
      </trkpt>
      <trkpt lat="43.70342" lon="1.15742">
        <ele>166.8</ele>
        <time>2025-12-19T10:20:14Z</time>
      </trkpt>
      <trkpt lat="43.70347" lon="1.15742">
        <ele>167.2</ele>
        <time>2025-12-19T10:20:15Z</time>
      </trkpt>
      <trkpt lat="43.70352" lon="1.15743">
        <ele>167.8</ele>
        <time>2025-12-19T10:20:16Z</time>
      </trkpt>
      <trkpt lat="43.70357" lon="1.15744">
        <ele>168.4</ele>
        <time>2025-12-19T10:20:17Z</time>
      </trkpt>
      <trkpt lat="43.70361" lon="1.15744">
        <ele>169</ele>
        <time>2025-12-19T10:20:18Z</time>
      </trkpt>
      <trkpt lat="43.70365" lon="1.15745">
        <ele>169.4</ele>
        <time>2025-12-19T10:20:19Z</time>
      </trkpt>
      <trkpt lat="43.70369" lon="1.15746">
        <ele>170</ele>
        <time>2025-12-19T10:20:20Z</time>
      </trkpt>
      <trkpt lat="43.70372" lon="1.15747">
        <ele>170.4</ele>
        <time>2025-12-19T10:20:21Z</time>
      </trkpt>
      <trkpt lat="43.70375" lon="1.15747">
        <ele>171</ele>
        <time>2025-12-19T10:20:22Z</time>
      </trkpt>
      <trkpt lat="43.70379" lon="1.15748">
        <ele>171.4</ele>
        <time>2025-12-19T10:20:23Z</time>
      </trkpt>
      <trkpt lat="43.70382" lon="1.15748">
        <ele>171.6</ele>
        <time>2025-12-19T10:20:24Z</time>
      </trkpt>
      <trkpt lat="43.70385" lon="1.15749">
        <ele>172</ele>
        <time>2025-12-19T10:20:25Z</time>
      </trkpt>
      <trkpt lat="43.70387" lon="1.15749">
        <ele>172.4</ele>
        <time>2025-12-19T10:20:26Z</time>
      </trkpt>
      <trkpt lat="43.7039" lon="1.15749">
        <ele>172.8</ele>
        <time>2025-12-19T10:20:27Z</time>
      </trkpt>
      <trkpt lat="43.70393" lon="1.15749">
        <ele>173</ele>
        <time>2025-12-19T10:20:28Z</time>
      </trkpt>
      <trkpt lat="43.70395" lon="1.1575">
        <ele>173.2</ele>
        <time>2025-12-19T10:20:29Z</time>
      </trkpt>
      <trkpt lat="43.70397" lon="1.15751">
        <ele>173.6</ele>
        <time>2025-12-19T10:20:30Z</time>
      </trkpt>
      <trkpt lat="43.704" lon="1.15751">
        <ele>174</ele>
        <time>2025-12-19T10:20:31Z</time>
      </trkpt>
      <trkpt lat="43.70403" lon="1.15752">
        <ele>174.2</ele>
        <time>2025-12-19T10:20:32Z</time>
      </trkpt>
      <trkpt lat="43.70405" lon="1.15752">
        <ele>174.4</ele>
        <time>2025-12-19T10:20:33Z</time>
      </trkpt>
      <trkpt lat="43.70407" lon="1.15752">
        <ele>174.8</ele>
        <time>2025-12-19T10:20:34Z</time>
      </trkpt>
      <trkpt lat="43.7041" lon="1.15752">
        <ele>175</ele>
        <time>2025-12-19T10:20:35Z</time>
      </trkpt>
      <trkpt lat="43.70413" lon="1.15752">
        <ele>175.2</ele>
        <time>2025-12-19T10:20:36Z</time>
      </trkpt>
      <trkpt lat="43.70415" lon="1.15752">
        <ele>175.6</ele>
        <time>2025-12-19T10:20:37Z</time>
      </trkpt>
      <trkpt lat="43.70418" lon="1.15753">
        <ele>176</ele>
        <time>2025-12-19T10:20:38Z</time>
      </trkpt>
      <trkpt lat="43.7042" lon="1.15753">
        <ele>176.2</ele>
        <time>2025-12-19T10:20:39Z</time>
      </trkpt>
      <trkpt lat="43.70423" lon="1.15754">
        <ele>176.4</ele>
        <time>2025-12-19T10:20:40Z</time>
      </trkpt>
      <trkpt lat="43.70425" lon="1.15754">
        <ele>176.6</ele>
        <time>2025-12-19T10:20:41Z</time>
      </trkpt>
      <trkpt lat="43.70427" lon="1.15754">
        <ele>177</ele>
        <time>2025-12-19T10:20:42Z</time>
      </trkpt>
      <trkpt lat="43.7043" lon="1.15755">
        <ele>177.2</ele>
        <time>2025-12-19T10:20:43Z</time>
      </trkpt>
      <trkpt lat="43.70432" lon="1.15755">
        <ele>177.4</ele>
        <time>2025-12-19T10:20:44Z</time>
      </trkpt>
      <trkpt lat="43.70434" lon="1.15755">
        <ele>177.6</ele>
        <time>2025-12-19T10:20:45Z</time>
      </trkpt>
      <trkpt lat="43.70437" lon="1.15755">
        <ele>178</ele>
        <time>2025-12-19T10:20:46Z</time>
      </trkpt>
      <trkpt lat="43.70439" lon="1.15755">
        <ele>178.2</ele>
        <time>2025-12-19T10:20:47Z</time>
      </trkpt>
      <trkpt lat="43.70442" lon="1.15756">
        <ele>178.4</ele>
        <time>2025-12-19T10:20:48Z</time>
      </trkpt>
      <trkpt lat="43.70444" lon="1.15756">
        <ele>178.8</ele>
        <time>2025-12-19T10:20:49Z</time>
      </trkpt>
      <trkpt lat="43.70446" lon="1.15757">
        <ele>179</ele>
        <time>2025-12-19T10:20:50Z</time>
      </trkpt>
      <trkpt lat="43.70449" lon="1.15757">
        <ele>179.2</ele>
        <time>2025-12-19T10:20:51Z</time>
      </trkpt>
      <trkpt lat="43.70451" lon="1.15758">
        <ele>179.6</ele>
        <time>2025-12-19T10:20:52Z</time>
      </trkpt>
      <trkpt lat="43.70454" lon="1.15758">
        <ele>179.8</ele>
        <time>2025-12-19T10:20:53Z</time>
      </trkpt>
      <trkpt lat="43.70456" lon="1.15758">
        <ele>180</ele>
        <time>2025-12-19T10:20:54Z</time>
      </trkpt>
      <trkpt lat="43.70459" lon="1.15758">
        <ele>180.4</ele>
        <time>2025-12-19T10:20:55Z</time>
      </trkpt>
      <trkpt lat="43.70461" lon="1.15758">
        <ele>180.6</ele>
        <time>2025-12-19T10:20:56Z</time>
      </trkpt>
      <trkpt lat="43.70463" lon="1.15759">
        <ele>180.8</ele>
        <time>2025-12-19T10:20:57Z</time>
      </trkpt>
      <trkpt lat="43.70466" lon="1.15759">
        <ele>181</ele>
        <time>2025-12-19T10:20:58Z</time>
      </trkpt>
      <trkpt lat="43.70468" lon="1.15759">
        <ele>181.2</ele>
        <time>2025-12-19T10:20:59Z</time>
      </trkpt>
      <trkpt lat="43.7047" lon="1.15759">
        <ele>181.6</ele>
        <time>2025-12-19T10:21:00Z</time>
      </trkpt>
      <trkpt lat="43.70473" lon="1.1576">
        <ele>181.8</ele>
        <time>2025-12-19T10:21:01Z</time>
      </trkpt>
      <trkpt lat="43.70475" lon="1.1576">
        <ele>182</ele>
        <time>2025-12-19T10:21:02Z</time>
      </trkpt>
      <trkpt lat="43.70477" lon="1.15759">
        <ele>182.2</ele>
        <time>2025-12-19T10:21:03Z</time>
      </trkpt>
      <trkpt lat="43.7048" lon="1.1576">
        <ele>182.4</ele>
        <time>2025-12-19T10:21:04Z</time>
      </trkpt>
      <trkpt lat="43.70482" lon="1.15761">
        <ele>182.8</ele>
        <time>2025-12-19T10:21:05Z</time>
      </trkpt>
      <trkpt lat="43.70484" lon="1.15761">
        <ele>183</ele>
        <time>2025-12-19T10:21:06Z</time>
      </trkpt>
      <trkpt lat="43.70487" lon="1.15762">
        <ele>183.2</ele>
        <time>2025-12-19T10:21:07Z</time>
      </trkpt>
      <trkpt lat="43.70489" lon="1.15762">
        <ele>183.4</ele>
        <time>2025-12-19T10:21:08Z</time>
      </trkpt>
      <trkpt lat="43.70491" lon="1.15762">
        <ele>183.8</ele>
        <time>2025-12-19T10:21:09Z</time>
      </trkpt>
      <trkpt lat="43.70493" lon="1.15762">
        <ele>184</ele>
        <time>2025-12-19T10:21:10Z</time>
      </trkpt>
      <trkpt lat="43.70495" lon="1.15763">
        <ele>184.2</ele>
        <time>2025-12-19T10:21:11Z</time>
      </trkpt>
      <trkpt lat="43.70498" lon="1.15763">
        <ele>184.4</ele>
        <time>2025-12-19T10:21:12Z</time>
      </trkpt>
      <trkpt lat="43.705" lon="1.15763">
        <ele>184.8</ele>
        <time>2025-12-19T10:21:13Z</time>
      </trkpt>
      <trkpt lat="43.70502" lon="1.15763">
        <ele>185</ele>
        <time>2025-12-19T10:21:14Z</time>
      </trkpt>
      <trkpt lat="43.70504" lon="1.15763">
        <ele>185.4</ele>
        <time>2025-12-19T10:21:15Z</time>
      </trkpt>
      <trkpt lat="43.70506" lon="1.15764">
        <ele>185.6</ele>
        <time>2025-12-19T10:21:16Z</time>
      </trkpt>
      <trkpt lat="43.70508" lon="1.15765">
        <ele>185.8</ele>
        <time>2025-12-19T10:21:17Z</time>
      </trkpt>
      <trkpt lat="43.7051" lon="1.15766">
        <ele>186</ele>
        <time>2025-12-19T10:21:18Z</time>
      </trkpt>
      <trkpt lat="43.70512" lon="1.15766">
        <ele>186.2</ele>
        <time>2025-12-19T10:21:19Z</time>
      </trkpt>
      <trkpt lat="43.70514" lon="1.15767">
        <ele>186.4</ele>
        <time>2025-12-19T10:21:20Z</time>
      </trkpt>
      <trkpt lat="43.70516" lon="1.15767">
        <ele>186.6</ele>
        <time>2025-12-19T10:21:21Z</time>
      </trkpt>
      <trkpt lat="43.70518" lon="1.15769">
        <ele>186.8</ele>
        <time>2025-12-19T10:21:22Z</time>
      </trkpt>
      <trkpt lat="43.7052" lon="1.1577">
        <ele>187</ele>
        <time>2025-12-19T10:21:23Z</time>
      </trkpt>
      <trkpt lat="43.70523" lon="1.15771">
        <ele>187.4</ele>
        <time>2025-12-19T10:21:24Z</time>
      </trkpt>
      <trkpt lat="43.70525" lon="1.15772">
        <ele>187.6</ele>
        <time>2025-12-19T10:21:25Z</time>
      </trkpt>
      <trkpt lat="43.70527" lon="1.15774">
        <ele>187.8</ele>
        <time>2025-12-19T10:21:26Z</time>
      </trkpt>
      <trkpt lat="43.70529" lon="1.15775">
        <ele>188.2</ele>
        <time>2025-12-19T10:21:27Z</time>
      </trkpt>
      <trkpt lat="43.70531" lon="1.15776">
        <ele>188.4</ele>
        <time>2025-12-19T10:21:28Z</time>
      </trkpt>
      <trkpt lat="43.70532" lon="1.15777">
        <ele>188.6</ele>
        <time>2025-12-19T10:21:29Z</time>
      </trkpt>
      <trkpt lat="43.70534" lon="1.15778">
        <ele>188.8</ele>
        <time>2025-12-19T10:21:30Z</time>
      </trkpt>
      <trkpt lat="43.70536" lon="1.15779">
        <ele>189</ele>
        <time>2025-12-19T10:21:31Z</time>
      </trkpt>
      <trkpt lat="43.70538" lon="1.15781">
        <ele>189.2</ele>
        <time>2025-12-19T10:21:32Z</time>
      </trkpt>
      <trkpt lat="43.7054" lon="1.15782">
        <ele>189.4</ele>
        <time>2025-12-19T10:21:33Z</time>
      </trkpt>
      <trkpt lat="43.70542" lon="1.15783">
        <ele>189.6</ele>
        <time>2025-12-19T10:21:34Z</time>
      </trkpt>
      <trkpt lat="43.70544" lon="1.15784">
        <ele>189.8</ele>
        <time>2025-12-19T10:21:35Z</time>
      </trkpt>
      <trkpt lat="43.70546" lon="1.15786">
        <ele>190</ele>
        <time>2025-12-19T10:21:36Z</time>
      </trkpt>
      <trkpt lat="43.70548" lon="1.15787">
        <ele>190.2</ele>
        <time>2025-12-19T10:21:37Z</time>
      </trkpt>
      <trkpt lat="43.70549" lon="1.15788">
        <ele>190.4</ele>
        <time>2025-12-19T10:21:38Z</time>
      </trkpt>
      <trkpt lat="43.70551" lon="1.15789">
        <ele>190.8</ele>
        <time>2025-12-19T10:21:39Z</time>
      </trkpt>
      <trkpt lat="43.70553" lon="1.1579">
        <ele>191</ele>
        <time>2025-12-19T10:21:40Z</time>
      </trkpt>
      <trkpt lat="43.70555" lon="1.15791">
        <ele>191.2</ele>
        <time>2025-12-19T10:21:41Z</time>
      </trkpt>
      <trkpt lat="43.70556" lon="1.15792">
        <ele>191.4</ele>
        <time>2025-12-19T10:21:42Z</time>
      </trkpt>
      <trkpt lat="43.70558" lon="1.15793">
        <ele>191.6</ele>
        <time>2025-12-19T10:21:43Z</time>
      </trkpt>
      <trkpt lat="43.7056" lon="1.15795">
        <ele>191.8</ele>
        <time>2025-12-19T10:21:44Z</time>
      </trkpt>
      <trkpt lat="43.70562" lon="1.15795">
        <ele>192.2</ele>
        <time>2025-12-19T10:21:45Z</time>
      </trkpt>
      <trkpt lat="43.70563" lon="1.15796">
        <ele>192.4</ele>
        <time>2025-12-19T10:21:46Z</time>
      </trkpt>
      <trkpt lat="43.70564" lon="1.15796">
        <ele>192.6</ele>
        <time>2025-12-19T10:21:47Z</time>
      </trkpt>
      <trkpt lat="43.70566" lon="1.15797">
        <ele>192.8</ele>
        <time>2025-12-19T10:21:48Z</time>
      </trkpt>
      <trkpt lat="43.70568" lon="1.15797">
        <ele>193</ele>
        <time>2025-12-19T10:21:49Z</time>
      </trkpt>
      <trkpt lat="43.7057" lon="1.15798">
        <ele>193.4</ele>
        <time>2025-12-19T10:21:50Z</time>
      </trkpt>
      <trkpt lat="43.70572" lon="1.15798">
        <ele>193.6</ele>
        <time>2025-12-19T10:21:51Z</time>
      </trkpt>
      <trkpt lat="43.70574" lon="1.15799">
        <ele>193.8</ele>
        <time>2025-12-19T10:21:52Z</time>
      </trkpt>
      <trkpt lat="43.70576" lon="1.15799">
        <ele>194</ele>
        <time>2025-12-19T10:21:53Z</time>
      </trkpt>
      <trkpt lat="43.70578" lon="1.15799">
        <ele>194.4</ele>
        <time>2025-12-19T10:21:54Z</time>
      </trkpt>
      <trkpt lat="43.7058" lon="1.15799">
        <ele>194.6</ele>
        <time>2025-12-19T10:21:55Z</time>
      </trkpt>
      <trkpt lat="43.70581" lon="1.15798">
        <ele>194.8</ele>
        <time>2025-12-19T10:21:56Z</time>
      </trkpt>
      <trkpt lat="43.70583" lon="1.15798">
        <ele>195.2</ele>
        <time>2025-12-19T10:21:57Z</time>
      </trkpt>
      <trkpt lat="43.70585" lon="1.15798">
        <ele>195.4</ele>
        <time>2025-12-19T10:21:58Z</time>
      </trkpt>
      <trkpt lat="43.70587" lon="1.15798">
        <ele>195.6</ele>
        <time>2025-12-19T10:21:59Z</time>
      </trkpt>
      <trkpt lat="43.70589" lon="1.15797">
        <ele>195.8</ele>
        <time>2025-12-19T10:22:00Z</time>
      </trkpt>
      <trkpt lat="43.7059" lon="1.15796">
        <ele>196</ele>
        <time>2025-12-19T10:22:01Z</time>
      </trkpt>
      <trkpt lat="43.70592" lon="1.15796">
        <ele>196.4</ele>
        <time>2025-12-19T10:22:02Z</time>
      </trkpt>
      <trkpt lat="43.70594" lon="1.15795">
        <ele>196.6</ele>
        <time>2025-12-19T10:22:03Z</time>
      </trkpt>
      <trkpt lat="43.70596" lon="1.15794">
        <ele>196.8</ele>
        <time>2025-12-19T10:22:04Z</time>
      </trkpt>
      <trkpt lat="43.70598" lon="1.15793">
        <ele>197</ele>
        <time>2025-12-19T10:22:05Z</time>
      </trkpt>
      <trkpt lat="43.70599" lon="1.15792">
        <ele>197.2</ele>
        <time>2025-12-19T10:22:06Z</time>
      </trkpt>
      <trkpt lat="43.70601" lon="1.15791">
        <ele>197.4</ele>
        <time>2025-12-19T10:22:07Z</time>
      </trkpt>
      <trkpt lat="43.70603" lon="1.1579">
        <ele>197.8</ele>
        <time>2025-12-19T10:22:08Z</time>
      </trkpt>
      <trkpt lat="43.70605" lon="1.15789">
        <ele>198</ele>
        <time>2025-12-19T10:22:09Z</time>
      </trkpt>
      <trkpt lat="43.70607" lon="1.15788">
        <ele>198.2</ele>
        <time>2025-12-19T10:22:10Z</time>
      </trkpt>
      <trkpt lat="43.70608" lon="1.15786">
        <ele>198.4</ele>
        <time>2025-12-19T10:22:11Z</time>
      </trkpt>
      <trkpt lat="43.7061" lon="1.15785">
        <ele>198.6</ele>
        <time>2025-12-19T10:22:12Z</time>
      </trkpt>
      <trkpt lat="43.70612" lon="1.15783">
        <ele>198.8</ele>
        <time>2025-12-19T10:22:13Z</time>
      </trkpt>
      <trkpt lat="43.70613" lon="1.15782">
        <ele>199</ele>
        <time>2025-12-19T10:22:14Z</time>
      </trkpt>
      <trkpt lat="43.70615" lon="1.1578">
        <ele>199.2</ele>
        <time>2025-12-19T10:22:15Z</time>
      </trkpt>
      <trkpt lat="43.70616" lon="1.15779">
        <ele>199.4</ele>
        <time>2025-12-19T10:22:16Z</time>
      </trkpt>
      <trkpt lat="43.70618" lon="1.15778">
        <ele>199.6</ele>
        <time>2025-12-19T10:22:17Z</time>
      </trkpt>
      <trkpt lat="43.70619" lon="1.15776">
        <ele>199.8</ele>
        <time>2025-12-19T10:22:18Z</time>
      </trkpt>
      <trkpt lat="43.70621" lon="1.15774">
        <ele>200</ele>
        <time>2025-12-19T10:22:19Z</time>
      </trkpt>
      <trkpt lat="43.70622" lon="1.15772">
        <ele>200.2</ele>
        <time>2025-12-19T10:22:20Z</time>
      </trkpt>
      <trkpt lat="43.70624" lon="1.15771">
        <ele>200.4</ele>
        <time>2025-12-19T10:22:21Z</time>
      </trkpt>
      <trkpt lat="43.70626" lon="1.15769">
        <ele>200.6</ele>
        <time>2025-12-19T10:22:22Z</time>
      </trkpt>
      <trkpt lat="43.70628" lon="1.15767">
        <ele>200.8</ele>
        <time>2025-12-19T10:22:23Z</time>
      </trkpt>
      <trkpt lat="43.70629" lon="1.15765">
        <ele>200.8</ele>
        <time>2025-12-19T10:22:24Z</time>
      </trkpt>
      <trkpt lat="43.7063" lon="1.15764">
        <ele>201.2</ele>
        <time>2025-12-19T10:22:25Z</time>
      </trkpt>
      <trkpt lat="43.70632" lon="1.15762">
        <ele>201.4</ele>
        <time>2025-12-19T10:22:26Z</time>
      </trkpt>
      <trkpt lat="43.70634" lon="1.1576">
        <ele>201.4</ele>
        <time>2025-12-19T10:22:27Z</time>
      </trkpt>
      <trkpt lat="43.70635" lon="1.15759">
        <ele>201.6</ele>
        <time>2025-12-19T10:22:28Z</time>
      </trkpt>
      <trkpt lat="43.70636" lon="1.15756">
        <ele>201.8</ele>
        <time>2025-12-19T10:22:29Z</time>
      </trkpt>
      <trkpt lat="43.70638" lon="1.15754">
        <ele>202</ele>
        <time>2025-12-19T10:22:30Z</time>
      </trkpt>
      <trkpt lat="43.7064" lon="1.15752">
        <ele>202.2</ele>
        <time>2025-12-19T10:22:31Z</time>
      </trkpt>
      <trkpt lat="43.70641" lon="1.1575">
        <ele>202.4</ele>
        <time>2025-12-19T10:22:32Z</time>
      </trkpt>
      <trkpt lat="43.70643" lon="1.15748">
        <ele>202.6</ele>
        <time>2025-12-19T10:22:33Z</time>
      </trkpt>
      <trkpt lat="43.70644" lon="1.15746">
        <ele>202.6</ele>
        <time>2025-12-19T10:22:34Z</time>
      </trkpt>
      <trkpt lat="43.70646" lon="1.15744">
        <ele>202.8</ele>
        <time>2025-12-19T10:22:35Z</time>
      </trkpt>
      <trkpt lat="43.70647" lon="1.15742">
        <ele>203</ele>
        <time>2025-12-19T10:22:36Z</time>
      </trkpt>
      <trkpt lat="43.70649" lon="1.1574">
        <ele>203.2</ele>
        <time>2025-12-19T10:22:37Z</time>
      </trkpt>
      <trkpt lat="43.7065" lon="1.15738">
        <ele>203.4</ele>
        <time>2025-12-19T10:22:38Z</time>
      </trkpt>
      <trkpt lat="43.70652" lon="1.15736">
        <ele>203.4</ele>
        <time>2025-12-19T10:22:39Z</time>
      </trkpt>
      <trkpt lat="43.70653" lon="1.15734">
        <ele>203.6</ele>
        <time>2025-12-19T10:22:40Z</time>
      </trkpt>
      <trkpt lat="43.70655" lon="1.15732">
        <ele>204</ele>
        <time>2025-12-19T10:22:41Z</time>
      </trkpt>
      <trkpt lat="43.70656" lon="1.1573">
        <ele>204.2</ele>
        <time>2025-12-19T10:22:42Z</time>
      </trkpt>
      <trkpt lat="43.70658" lon="1.15727">
        <ele>204.2</ele>
        <time>2025-12-19T10:22:43Z</time>
      </trkpt>
      <trkpt lat="43.70659" lon="1.15725">
        <ele>204.4</ele>
        <time>2025-12-19T10:22:44Z</time>
      </trkpt>
      <trkpt lat="43.70661" lon="1.15724">
        <ele>204.6</ele>
        <time>2025-12-19T10:22:45Z</time>
      </trkpt>
      <trkpt lat="43.70663" lon="1.15722">
        <ele>204.8</ele>
        <time>2025-12-19T10:22:46Z</time>
      </trkpt>
      <trkpt lat="43.70664" lon="1.15719">
        <ele>205</ele>
        <time>2025-12-19T10:22:47Z</time>
      </trkpt>
      <trkpt lat="43.70666" lon="1.15717">
        <ele>205.2</ele>
        <time>2025-12-19T10:22:48Z</time>
      </trkpt>
      <trkpt lat="43.70667" lon="1.15715">
        <ele>205.6</ele>
        <time>2025-12-19T10:22:49Z</time>
      </trkpt>
      <trkpt lat="43.70669" lon="1.15714">
        <ele>205.8</ele>
        <time>2025-12-19T10:22:50Z</time>
      </trkpt>
      <trkpt lat="43.70671" lon="1.15713">
        <ele>206</ele>
        <time>2025-12-19T10:22:51Z</time>
      </trkpt>
      <trkpt lat="43.70672" lon="1.15711">
        <ele>206.2</ele>
        <time>2025-12-19T10:22:52Z</time>
      </trkpt>
      <trkpt lat="43.70674" lon="1.15709">
        <ele>206.6</ele>
        <time>2025-12-19T10:22:53Z</time>
      </trkpt>
      <trkpt lat="43.70675" lon="1.15708">
        <ele>206.8</ele>
        <time>2025-12-19T10:22:54Z</time>
      </trkpt>
      <trkpt lat="43.70677" lon="1.15708">
        <ele>207</ele>
        <time>2025-12-19T10:22:55Z</time>
      </trkpt>
      <trkpt lat="43.70679" lon="1.15707">
        <ele>207.2</ele>
        <time>2025-12-19T10:22:56Z</time>
      </trkpt>
      <trkpt lat="43.7068" lon="1.15707">
        <ele>207.6</ele>
        <time>2025-12-19T10:22:57Z</time>
      </trkpt>
      <trkpt lat="43.70682" lon="1.15708">
        <ele>207.8</ele>
        <time>2025-12-19T10:22:58Z</time>
      </trkpt>
      <trkpt lat="43.70684" lon="1.15709">
        <ele>208.2</ele>
        <time>2025-12-19T10:22:59Z</time>
      </trkpt>
      <trkpt lat="43.70685" lon="1.1571">
        <ele>208.4</ele>
        <time>2025-12-19T10:23:00Z</time>
      </trkpt>
      <trkpt lat="43.70687" lon="1.15711">
        <ele>208.8</ele>
        <time>2025-12-19T10:23:01Z</time>
      </trkpt>
      <trkpt lat="43.70689" lon="1.15713">
        <ele>209</ele>
        <time>2025-12-19T10:23:02Z</time>
      </trkpt>
      <trkpt lat="43.7069" lon="1.15715">
        <ele>209.2</ele>
        <time>2025-12-19T10:23:03Z</time>
      </trkpt>
      <trkpt lat="43.70692" lon="1.15717">
        <ele>209.6</ele>
        <time>2025-12-19T10:23:04Z</time>
      </trkpt>
      <trkpt lat="43.70693" lon="1.15719">
        <ele>209.8</ele>
        <time>2025-12-19T10:23:05Z</time>
      </trkpt>
      <trkpt lat="43.70693" lon="1.15722">
        <ele>210</ele>
        <time>2025-12-19T10:23:06Z</time>
      </trkpt>
      <trkpt lat="43.70694" lon="1.15725">
        <ele>210.2</ele>
        <time>2025-12-19T10:23:07Z</time>
      </trkpt>
      <trkpt lat="43.70695" lon="1.15727">
        <ele>210.6</ele>
        <time>2025-12-19T10:23:08Z</time>
      </trkpt>
      <trkpt lat="43.70696" lon="1.1573">
        <ele>210.8</ele>
        <time>2025-12-19T10:23:09Z</time>
      </trkpt>
      <trkpt lat="43.70696" lon="1.15732">
        <ele>211</ele>
        <time>2025-12-19T10:23:10Z</time>
      </trkpt>
      <trkpt lat="43.70697" lon="1.15735">
        <ele>211.2</ele>
        <time>2025-12-19T10:23:11Z</time>
      </trkpt>
      <trkpt lat="43.70696" lon="1.15738">
        <ele>211.4</ele>
        <time>2025-12-19T10:23:12Z</time>
      </trkpt>
      <trkpt lat="43.70696" lon="1.15741">
        <ele>211.8</ele>
        <time>2025-12-19T10:23:13Z</time>
      </trkpt>
      <trkpt lat="43.70696" lon="1.15744">
        <ele>212</ele>
        <time>2025-12-19T10:23:14Z</time>
      </trkpt>
      <trkpt lat="43.70696" lon="1.15747">
        <ele>212.2</ele>
        <time>2025-12-19T10:23:15Z</time>
      </trkpt>
      <trkpt lat="43.70696" lon="1.1575">
        <ele>212.4</ele>
        <time>2025-12-19T10:23:16Z</time>
      </trkpt>
      <trkpt lat="43.70695" lon="1.15753">
        <ele>212.6</ele>
        <time>2025-12-19T10:23:17Z</time>
      </trkpt>
      <trkpt lat="43.70694" lon="1.15756">
        <ele>212.8</ele>
        <time>2025-12-19T10:23:18Z</time>
      </trkpt>
      <trkpt lat="43.70694" lon="1.15759">
        <ele>213</ele>
        <time>2025-12-19T10:23:19Z</time>
      </trkpt>
      <trkpt lat="43.70693" lon="1.15761">
        <ele>213.2</ele>
        <time>2025-12-19T10:23:20Z</time>
      </trkpt>
      <trkpt lat="43.70692" lon="1.15764">
        <ele>213.4</ele>
        <time>2025-12-19T10:23:21Z</time>
      </trkpt>
      <trkpt lat="43.70691" lon="1.15767">
        <ele>213.6</ele>
        <time>2025-12-19T10:23:22Z</time>
      </trkpt>
      <trkpt lat="43.7069" lon="1.15771">
        <ele>213.8</ele>
        <time>2025-12-19T10:23:23Z</time>
      </trkpt>
      <trkpt lat="43.70689" lon="1.15773">
        <ele>214.2</ele>
        <time>2025-12-19T10:23:24Z</time>
      </trkpt>
      <trkpt lat="43.70688" lon="1.15776">
        <ele>214.4</ele>
        <time>2025-12-19T10:23:25Z</time>
      </trkpt>
      <trkpt lat="43.70687" lon="1.15779">
        <ele>214.6</ele>
        <time>2025-12-19T10:23:26Z</time>
      </trkpt>
      <trkpt lat="43.70686" lon="1.15782">
        <ele>214.8</ele>
        <time>2025-12-19T10:23:27Z</time>
      </trkpt>
      <trkpt lat="43.70685" lon="1.15785">
        <ele>215</ele>
        <time>2025-12-19T10:23:28Z</time>
      </trkpt>
      <trkpt lat="43.70684" lon="1.15788">
        <ele>215.2</ele>
        <time>2025-12-19T10:23:29Z</time>
      </trkpt>
      <trkpt lat="43.70682" lon="1.15791">
        <ele>215.4</ele>
        <time>2025-12-19T10:23:30Z</time>
      </trkpt>
      <trkpt lat="43.70681" lon="1.15793">
        <ele>215.8</ele>
        <time>2025-12-19T10:23:31Z</time>
      </trkpt>
      <trkpt lat="43.70681" lon="1.15797">
        <ele>216</ele>
        <time>2025-12-19T10:23:32Z</time>
      </trkpt>
      <trkpt lat="43.70679" lon="1.158">
        <ele>216.2</ele>
        <time>2025-12-19T10:23:33Z</time>
      </trkpt>
      <trkpt lat="43.70678" lon="1.15802">
        <ele>216.4</ele>
        <time>2025-12-19T10:23:34Z</time>
      </trkpt>
      <trkpt lat="43.70677" lon="1.15805">
        <ele>216.8</ele>
        <time>2025-12-19T10:23:35Z</time>
      </trkpt>
      <trkpt lat="43.70676" lon="1.15808">
        <ele>217</ele>
        <time>2025-12-19T10:23:36Z</time>
      </trkpt>
      <trkpt lat="43.70675" lon="1.15811">
        <ele>217.2</ele>
        <time>2025-12-19T10:23:37Z</time>
      </trkpt>
      <trkpt lat="43.70674" lon="1.15814">
        <ele>217.4</ele>
        <time>2025-12-19T10:23:38Z</time>
      </trkpt>
      <trkpt lat="43.70673" lon="1.15816">
        <ele>217.6</ele>
        <time>2025-12-19T10:23:39Z</time>
      </trkpt>
      <trkpt lat="43.70672" lon="1.15819">
        <ele>217.8</ele>
        <time>2025-12-19T10:23:40Z</time>
      </trkpt>
      <trkpt lat="43.70671" lon="1.15822">
        <ele>218.2</ele>
        <time>2025-12-19T10:23:41Z</time>
      </trkpt>
      <trkpt lat="43.70669" lon="1.15825">
        <ele>218.4</ele>
        <time>2025-12-19T10:23:42Z</time>
      </trkpt>
      <trkpt lat="43.70668" lon="1.15828">
        <ele>218.6</ele>
        <time>2025-12-19T10:23:43Z</time>
      </trkpt>
      <trkpt lat="43.70667" lon="1.15831">
        <ele>218.8</ele>
        <time>2025-12-19T10:23:44Z</time>
      </trkpt>
      <trkpt lat="43.70666" lon="1.15834">
        <ele>219</ele>
        <time>2025-12-19T10:23:45Z</time>
      </trkpt>
      <trkpt lat="43.70665" lon="1.15837">
        <ele>219.2</ele>
        <time>2025-12-19T10:23:46Z</time>
      </trkpt>
      <trkpt lat="43.70664" lon="1.1584">
        <ele>219.4</ele>
        <time>2025-12-19T10:23:47Z</time>
      </trkpt>
      <trkpt lat="43.70664" lon="1.15843">
        <ele>219.6</ele>
        <time>2025-12-19T10:23:48Z</time>
      </trkpt>
      <trkpt lat="43.70664" lon="1.15846">
        <ele>219.6</ele>
        <time>2025-12-19T10:23:49Z</time>
      </trkpt>
      <trkpt lat="43.70663" lon="1.1585">
        <ele>219.8</ele>
        <time>2025-12-19T10:23:50Z</time>
      </trkpt>
      <trkpt lat="43.70663" lon="1.15854">
        <ele>220</ele>
        <time>2025-12-19T10:23:51Z</time>
      </trkpt>
      <trkpt lat="43.70663" lon="1.15858">
        <ele>220.2</ele>
        <time>2025-12-19T10:23:52Z</time>
      </trkpt>
      <trkpt lat="43.70663" lon="1.15862">
        <ele>220.2</ele>
        <time>2025-12-19T10:23:53Z</time>
      </trkpt>
      <trkpt lat="43.70664" lon="1.15865">
        <ele>220.4</ele>
        <time>2025-12-19T10:23:54Z</time>
      </trkpt>
      <trkpt lat="43.70665" lon="1.15869">
        <ele>220.4</ele>
        <time>2025-12-19T10:23:55Z</time>
      </trkpt>
      <trkpt lat="43.70666" lon="1.15872">
        <ele>220.6</ele>
        <time>2025-12-19T10:23:56Z</time>
      </trkpt>
      <trkpt lat="43.70668" lon="1.15876">
        <ele>220.8</ele>
        <time>2025-12-19T10:23:57Z</time>
      </trkpt>
      <trkpt lat="43.70669" lon="1.1588">
        <ele>220.8</ele>
        <time>2025-12-19T10:23:58Z</time>
      </trkpt>
      <trkpt lat="43.70671" lon="1.15885">
        <ele>220.8</ele>
        <time>2025-12-19T10:23:59Z</time>
      </trkpt>
      <trkpt lat="43.70673" lon="1.1589">
        <ele>220.8</ele>
        <time>2025-12-19T10:24:00Z</time>
      </trkpt>
      <trkpt lat="43.70674" lon="1.15895">
        <ele>220.6</ele>
        <time>2025-12-19T10:24:01Z</time>
      </trkpt>
      <trkpt lat="43.70676" lon="1.15901">
        <ele>220.4</ele>
        <time>2025-12-19T10:24:02Z</time>
      </trkpt>
      <trkpt lat="43.70679" lon="1.15907">
        <ele>220.2</ele>
        <time>2025-12-19T10:24:03Z</time>
      </trkpt>
      <trkpt lat="43.70682" lon="1.15914">
        <ele>220</ele>
        <time>2025-12-19T10:24:04Z</time>
      </trkpt>
      <trkpt lat="43.70686" lon="1.15921">
        <ele>219.8</ele>
        <time>2025-12-19T10:24:05Z</time>
      </trkpt>
      <trkpt lat="43.70691" lon="1.15925">
        <ele>219.2</ele>
        <time>2025-12-19T10:24:06Z</time>
      </trkpt>
      <trkpt lat="43.70697" lon="1.15929">
        <ele>219</ele>
        <time>2025-12-19T10:24:07Z</time>
      </trkpt>
      <trkpt lat="43.70703" lon="1.15932">
        <ele>218.8</ele>
        <time>2025-12-19T10:24:08Z</time>
      </trkpt>
      <trkpt lat="43.70709" lon="1.15935">
        <ele>218.4</ele>
        <time>2025-12-19T10:24:09Z</time>
      </trkpt>
      <trkpt lat="43.70716" lon="1.15938">
        <ele>218.2</ele>
        <time>2025-12-19T10:24:10Z</time>
      </trkpt>
      <trkpt lat="43.70722" lon="1.1594">
        <ele>218</ele>
        <time>2025-12-19T10:24:11Z</time>
      </trkpt>
      <trkpt lat="43.70729" lon="1.15942">
        <ele>217.6</ele>
        <time>2025-12-19T10:24:12Z</time>
      </trkpt>
      <trkpt lat="43.70735" lon="1.15944">
        <ele>217.4</ele>
        <time>2025-12-19T10:24:13Z</time>
      </trkpt>
      <trkpt lat="43.70741" lon="1.15947">
        <ele>217</ele>
        <time>2025-12-19T10:24:14Z</time>
      </trkpt>
      <trkpt lat="43.70748" lon="1.15949">
        <ele>216.8</ele>
        <time>2025-12-19T10:24:15Z</time>
      </trkpt>
      <trkpt lat="43.70754" lon="1.15952">
        <ele>216.4</ele>
        <time>2025-12-19T10:24:16Z</time>
      </trkpt>
      <trkpt lat="43.70761" lon="1.15954">
        <ele>216</ele>
        <time>2025-12-19T10:24:17Z</time>
      </trkpt>
      <trkpt lat="43.70767" lon="1.15957">
        <ele>215.8</ele>
        <time>2025-12-19T10:24:18Z</time>
      </trkpt>
      <trkpt lat="43.70774" lon="1.1596">
        <ele>215.6</ele>
        <time>2025-12-19T10:24:19Z</time>
      </trkpt>
      <trkpt lat="43.7078" lon="1.15962">
        <ele>215.4</ele>
        <time>2025-12-19T10:24:20Z</time>
      </trkpt>
      <trkpt lat="43.70787" lon="1.15965">
        <ele>215.2</ele>
        <time>2025-12-19T10:24:21Z</time>
      </trkpt>
      <trkpt lat="43.70795" lon="1.15967">
        <ele>215</ele>
        <time>2025-12-19T10:24:22Z</time>
      </trkpt>
      <trkpt lat="43.70802" lon="1.1597">
        <ele>214.8</ele>
        <time>2025-12-19T10:24:23Z</time>
      </trkpt>
      <trkpt lat="43.7081" lon="1.15973">
        <ele>214.6</ele>
        <time>2025-12-19T10:24:24Z</time>
      </trkpt>
      <trkpt lat="43.70817" lon="1.15976">
        <ele>214.2</ele>
        <time>2025-12-19T10:24:25Z</time>
      </trkpt>
      <trkpt lat="43.70825" lon="1.15979">
        <ele>214</ele>
        <time>2025-12-19T10:24:26Z</time>
      </trkpt>
      <trkpt lat="43.70832" lon="1.15982">
        <ele>213.8</ele>
        <time>2025-12-19T10:24:27Z</time>
      </trkpt>
      <trkpt lat="43.7084" lon="1.15986">
        <ele>213.6</ele>
        <time>2025-12-19T10:24:28Z</time>
      </trkpt>
      <trkpt lat="43.70848" lon="1.15988">
        <ele>213.4</ele>
        <time>2025-12-19T10:24:29Z</time>
      </trkpt>
      <trkpt lat="43.70855" lon="1.15986">
        <ele>213.2</ele>
        <time>2025-12-19T10:24:30Z</time>
      </trkpt>
      <trkpt lat="43.70861" lon="1.15982">
        <ele>213</ele>
        <time>2025-12-19T10:24:31Z</time>
      </trkpt>
      <trkpt lat="43.70866" lon="1.15976">
        <ele>213</ele>
        <time>2025-12-19T10:24:32Z</time>
      </trkpt>
      <trkpt lat="43.7087" lon="1.15968">
        <ele>212.8</ele>
        <time>2025-12-19T10:24:33Z</time>
      </trkpt>
      <trkpt lat="43.70875" lon="1.15961">
        <ele>212.8</ele>
        <time>2025-12-19T10:24:34Z</time>
      </trkpt>
      <trkpt lat="43.70878" lon="1.15953">
        <ele>212.6</ele>
        <time>2025-12-19T10:24:35Z</time>
      </trkpt>
      <trkpt lat="43.70882" lon="1.15944">
        <ele>212.6</ele>
        <time>2025-12-19T10:24:36Z</time>
      </trkpt>
      <trkpt lat="43.70886" lon="1.15936">
        <ele>212.8</ele>
        <time>2025-12-19T10:24:37Z</time>
      </trkpt>
      <trkpt lat="43.70889" lon="1.15927">
        <ele>212.8</ele>
        <time>2025-12-19T10:24:38Z</time>
      </trkpt>
      <trkpt lat="43.70892" lon="1.15919">
        <ele>212.8</ele>
        <time>2025-12-19T10:24:39Z</time>
      </trkpt>
      <trkpt lat="43.70896" lon="1.1591">
        <ele>213</ele>
        <time>2025-12-19T10:24:40Z</time>
      </trkpt>
      <trkpt lat="43.70899" lon="1.15902">
        <ele>213</ele>
        <time>2025-12-19T10:24:41Z</time>
      </trkpt>
      <trkpt lat="43.70903" lon="1.15894">
        <ele>213.2</ele>
        <time>2025-12-19T10:24:42Z</time>
      </trkpt>
      <trkpt lat="43.70907" lon="1.15886">
        <ele>213.2</ele>
        <time>2025-12-19T10:24:43Z</time>
      </trkpt>
      <trkpt lat="43.70911" lon="1.15878">
        <ele>213.4</ele>
        <time>2025-12-19T10:24:44Z</time>
      </trkpt>
      <trkpt lat="43.70915" lon="1.1587">
        <ele>213.4</ele>
        <time>2025-12-19T10:24:45Z</time>
      </trkpt>
      <trkpt lat="43.7092" lon="1.15863">
        <ele>213.4</ele>
        <time>2025-12-19T10:24:46Z</time>
      </trkpt>
      <trkpt lat="43.70925" lon="1.15855">
        <ele>213.4</ele>
        <time>2025-12-19T10:24:47Z</time>
      </trkpt>
      <trkpt lat="43.7093" lon="1.15848">
        <ele>213.4</ele>
        <time>2025-12-19T10:24:48Z</time>
      </trkpt>
      <trkpt lat="43.70936" lon="1.15842">
        <ele>213.4</ele>
        <time>2025-12-19T10:24:49Z</time>
      </trkpt>
      <trkpt lat="43.70943" lon="1.15837">
        <ele>213.4</ele>
        <time>2025-12-19T10:24:50Z</time>
      </trkpt>
      <trkpt lat="43.70949" lon="1.15833">
        <ele>213.4</ele>
        <time>2025-12-19T10:24:51Z</time>
      </trkpt>
      <trkpt lat="43.70956" lon="1.15829">
        <ele>213.4</ele>
        <time>2025-12-19T10:24:52Z</time>
      </trkpt>
      <trkpt lat="43.70963" lon="1.15826">
        <ele>213.4</ele>
        <time>2025-12-19T10:24:53Z</time>
      </trkpt>
      <trkpt lat="43.7097" lon="1.15822">
        <ele>213.2</ele>
        <time>2025-12-19T10:24:54Z</time>
      </trkpt>
      <trkpt lat="43.70977" lon="1.15819">
        <ele>213.2</ele>
        <time>2025-12-19T10:24:55Z</time>
      </trkpt>
      <trkpt lat="43.70984" lon="1.15816">
        <ele>213</ele>
        <time>2025-12-19T10:24:56Z</time>
      </trkpt>
      <trkpt lat="43.70991" lon="1.15812">
        <ele>212.8</ele>
        <time>2025-12-19T10:24:57Z</time>
      </trkpt>
      <trkpt lat="43.70999" lon="1.15809">
        <ele>212.4</ele>
        <time>2025-12-19T10:24:58Z</time>
      </trkpt>
      <trkpt lat="43.71006" lon="1.15808">
        <ele>212.2</ele>
        <time>2025-12-19T10:24:59Z</time>
      </trkpt>
      <trkpt lat="43.71014" lon="1.15809">
        <ele>211.8</ele>
        <time>2025-12-19T10:25:00Z</time>
      </trkpt>
      <trkpt lat="43.71021" lon="1.15809">
        <ele>211.4</ele>
        <time>2025-12-19T10:25:01Z</time>
      </trkpt>
      <trkpt lat="43.71028" lon="1.15811">
        <ele>211</ele>
        <time>2025-12-19T10:25:02Z</time>
      </trkpt>
      <trkpt lat="43.71036" lon="1.15812">
        <ele>210.8</ele>
        <time>2025-12-19T10:25:03Z</time>
      </trkpt>
      <trkpt lat="43.71043" lon="1.15813">
        <ele>210.6</ele>
        <time>2025-12-19T10:25:04Z</time>
      </trkpt>
      <trkpt lat="43.7105" lon="1.15814">
        <ele>210.4</ele>
        <time>2025-12-19T10:25:05Z</time>
      </trkpt>
      <trkpt lat="43.71057" lon="1.15815">
        <ele>210.4</ele>
        <time>2025-12-19T10:25:06Z</time>
      </trkpt>
      <trkpt lat="43.71065" lon="1.15817">
        <ele>210.4</ele>
        <time>2025-12-19T10:25:07Z</time>
      </trkpt>
      <trkpt lat="43.71072" lon="1.15819">
        <ele>210.2</ele>
        <time>2025-12-19T10:25:08Z</time>
      </trkpt>
      <trkpt lat="43.71079" lon="1.1582">
        <ele>210.2</ele>
        <time>2025-12-19T10:25:09Z</time>
      </trkpt>
      <trkpt lat="43.71086" lon="1.15822">
        <ele>210</ele>
        <time>2025-12-19T10:25:10Z</time>
      </trkpt>
      <trkpt lat="43.71094" lon="1.15822">
        <ele>210</ele>
        <time>2025-12-19T10:25:11Z</time>
      </trkpt>
      <trkpt lat="43.71101" lon="1.15823">
        <ele>210</ele>
        <time>2025-12-19T10:25:12Z</time>
      </trkpt>
      <trkpt lat="43.71108" lon="1.15824">
        <ele>210</ele>
        <time>2025-12-19T10:25:13Z</time>
      </trkpt>
      <trkpt lat="43.71115" lon="1.15823">
        <ele>210</ele>
        <time>2025-12-19T10:25:14Z</time>
      </trkpt>
      <trkpt lat="43.71122" lon="1.1582">
        <ele>210</ele>
        <time>2025-12-19T10:25:15Z</time>
      </trkpt>
      <trkpt lat="43.71127" lon="1.15816">
        <ele>210.2</ele>
        <time>2025-12-19T10:25:16Z</time>
      </trkpt>
      <trkpt lat="43.71132" lon="1.1581">
        <ele>210.2</ele>
        <time>2025-12-19T10:25:17Z</time>
      </trkpt>
      <trkpt lat="43.71136" lon="1.15804">
        <ele>210.4</ele>
        <time>2025-12-19T10:25:18Z</time>
      </trkpt>
      <trkpt lat="43.7114" lon="1.15798">
        <ele>210.6</ele>
        <time>2025-12-19T10:25:19Z</time>
      </trkpt>
      <trkpt lat="43.71144" lon="1.15792">
        <ele>210.8</ele>
        <time>2025-12-19T10:25:20Z</time>
      </trkpt>
      <trkpt lat="43.71149" lon="1.15787">
        <ele>210.8</ele>
        <time>2025-12-19T10:25:21Z</time>
      </trkpt>
      <trkpt lat="43.71154" lon="1.15783">
        <ele>211</ele>
        <time>2025-12-19T10:25:22Z</time>
      </trkpt>
      <trkpt lat="43.71159" lon="1.15781">
        <ele>211.2</ele>
        <time>2025-12-19T10:25:23Z</time>
      </trkpt>
      <trkpt lat="43.71164" lon="1.1578">
        <ele>211.4</ele>
        <time>2025-12-19T10:25:24Z</time>
      </trkpt>
      <trkpt lat="43.71169" lon="1.15779">
        <ele>211.8</ele>
        <time>2025-12-19T10:25:25Z</time>
      </trkpt>
      <trkpt lat="43.71175" lon="1.1578">
        <ele>212.2</ele>
        <time>2025-12-19T10:25:26Z</time>
      </trkpt>
      <trkpt lat="43.71179" lon="1.1578">
        <ele>212.4</ele>
        <time>2025-12-19T10:25:27Z</time>
      </trkpt>
      <trkpt lat="43.71184" lon="1.15781">
        <ele>212.8</ele>
        <time>2025-12-19T10:25:28Z</time>
      </trkpt>
      <trkpt lat="43.71189" lon="1.15782">
        <ele>213</ele>
        <time>2025-12-19T10:25:29Z</time>
      </trkpt>
      <trkpt lat="43.71194" lon="1.15783">
        <ele>213.2</ele>
        <time>2025-12-19T10:25:30Z</time>
      </trkpt>
      <trkpt lat="43.71198" lon="1.15783">
        <ele>213.4</ele>
        <time>2025-12-19T10:25:31Z</time>
      </trkpt>
      <trkpt lat="43.71203" lon="1.15783">
        <ele>213.6</ele>
        <time>2025-12-19T10:25:32Z</time>
      </trkpt>
      <trkpt lat="43.71207" lon="1.15784">
        <ele>213.8</ele>
        <time>2025-12-19T10:25:33Z</time>
      </trkpt>
      <trkpt lat="43.71212" lon="1.15784">
        <ele>214</ele>
        <time>2025-12-19T10:25:34Z</time>
      </trkpt>
      <trkpt lat="43.71217" lon="1.15785">
        <ele>214</ele>
        <time>2025-12-19T10:25:35Z</time>
      </trkpt>
      <trkpt lat="43.71223" lon="1.15786">
        <ele>214</ele>
        <time>2025-12-19T10:25:36Z</time>
      </trkpt>
      <trkpt lat="43.71228" lon="1.15784">
        <ele>213.8</ele>
        <time>2025-12-19T10:25:37Z</time>
      </trkpt>
      <trkpt lat="43.71234" lon="1.15784">
        <ele>213.6</ele>
        <time>2025-12-19T10:25:38Z</time>
      </trkpt>
      <trkpt lat="43.71239" lon="1.15786">
        <ele>213.4</ele>
        <time>2025-12-19T10:25:39Z</time>
      </trkpt>
      <trkpt lat="43.71244" lon="1.1579">
        <ele>213.4</ele>
        <time>2025-12-19T10:25:40Z</time>
      </trkpt>
      <trkpt lat="43.71248" lon="1.15795">
        <ele>213.2</ele>
        <time>2025-12-19T10:25:41Z</time>
      </trkpt>
      <trkpt lat="43.71252" lon="1.15801">
        <ele>213.2</ele>
        <time>2025-12-19T10:25:42Z</time>
      </trkpt>
      <trkpt lat="43.71255" lon="1.15808">
        <ele>213</ele>
        <time>2025-12-19T10:25:43Z</time>
      </trkpt>
      <trkpt lat="43.71257" lon="1.15816">
        <ele>212.8</ele>
        <time>2025-12-19T10:25:44Z</time>
      </trkpt>
      <trkpt lat="43.71259" lon="1.15825">
        <ele>212.8</ele>
        <time>2025-12-19T10:25:45Z</time>
      </trkpt>
      <trkpt lat="43.7126" lon="1.15834">
        <ele>212.6</ele>
        <time>2025-12-19T10:25:46Z</time>
      </trkpt>
      <trkpt lat="43.71261" lon="1.15843">
        <ele>212.4</ele>
        <time>2025-12-19T10:25:47Z</time>
      </trkpt>
      <trkpt lat="43.71261" lon="1.15852">
        <ele>212.4</ele>
        <time>2025-12-19T10:25:48Z</time>
      </trkpt>
      <trkpt lat="43.71261" lon="1.15861">
        <ele>212.4</ele>
        <time>2025-12-19T10:25:49Z</time>
      </trkpt>
      <trkpt lat="43.71262" lon="1.1587">
        <ele>212.4</ele>
        <time>2025-12-19T10:25:50Z</time>
      </trkpt>
      <trkpt lat="43.71262" lon="1.15878">
        <ele>212.4</ele>
        <time>2025-12-19T10:25:51Z</time>
      </trkpt>
      <trkpt lat="43.71262" lon="1.15887">
        <ele>212.4</ele>
        <time>2025-12-19T10:25:52Z</time>
      </trkpt>
      <trkpt lat="43.71261" lon="1.15896">
        <ele>212.4</ele>
        <time>2025-12-19T10:25:53Z</time>
      </trkpt>
      <trkpt lat="43.71258" lon="1.15903">
        <ele>212.2</ele>
        <time>2025-12-19T10:25:54Z</time>
      </trkpt>
      <trkpt lat="43.71253" lon="1.15909">
        <ele>212.2</ele>
        <time>2025-12-19T10:25:55Z</time>
      </trkpt>
      <trkpt lat="43.71247" lon="1.15914">
        <ele>212</ele>
        <time>2025-12-19T10:25:56Z</time>
      </trkpt>
      <trkpt lat="43.71241" lon="1.15919">
        <ele>211.8</ele>
        <time>2025-12-19T10:25:57Z</time>
      </trkpt>
      <trkpt lat="43.71235" lon="1.15924">
        <ele>211.4</ele>
        <time>2025-12-19T10:25:58Z</time>
      </trkpt>
      <trkpt lat="43.71229" lon="1.15927">
        <ele>211</ele>
        <time>2025-12-19T10:25:59Z</time>
      </trkpt>
      <trkpt lat="43.71222" lon="1.15928">
        <ele>210.8</ele>
        <time>2025-12-19T10:26:00Z</time>
      </trkpt>
      <trkpt lat="43.71215" lon="1.15927">
        <ele>210.6</ele>
        <time>2025-12-19T10:26:01Z</time>
      </trkpt>
      <trkpt lat="43.71209" lon="1.15924">
        <ele>210.6</ele>
        <time>2025-12-19T10:26:02Z</time>
      </trkpt>
      <trkpt lat="43.71203" lon="1.1592">
        <ele>210.4</ele>
        <time>2025-12-19T10:26:03Z</time>
      </trkpt>
      <trkpt lat="43.71196" lon="1.15917">
        <ele>210.4</ele>
        <time>2025-12-19T10:26:04Z</time>
      </trkpt>
      <trkpt lat="43.7119" lon="1.15916">
        <ele>210.4</ele>
        <time>2025-12-19T10:26:05Z</time>
      </trkpt>
      <trkpt lat="43.71183" lon="1.15917">
        <ele>210.4</ele>
        <time>2025-12-19T10:26:06Z</time>
      </trkpt>
      <trkpt lat="43.71178" lon="1.15922">
        <ele>210.4</ele>
        <time>2025-12-19T10:26:07Z</time>
      </trkpt>
      <trkpt lat="43.71175" lon="1.15928">
        <ele>210.4</ele>
        <time>2025-12-19T10:26:08Z</time>
      </trkpt>
      <trkpt lat="43.71173" lon="1.15935">
        <ele>210.4</ele>
        <time>2025-12-19T10:26:09Z</time>
      </trkpt>
      <trkpt lat="43.7117" lon="1.15943">
        <ele>210.4</ele>
        <time>2025-12-19T10:26:10Z</time>
      </trkpt>
      <trkpt lat="43.71167" lon="1.15951">
        <ele>210.4</ele>
        <time>2025-12-19T10:26:11Z</time>
      </trkpt>
      <trkpt lat="43.71164" lon="1.15959">
        <ele>210.4</ele>
        <time>2025-12-19T10:26:12Z</time>
      </trkpt>
      <trkpt lat="43.71161" lon="1.15967">
        <ele>210.4</ele>
        <time>2025-12-19T10:26:13Z</time>
      </trkpt>
      <trkpt lat="43.71159" lon="1.15976">
        <ele>210.4</ele>
        <time>2025-12-19T10:26:14Z</time>
      </trkpt>
      <trkpt lat="43.71157" lon="1.15986">
        <ele>210.2</ele>
        <time>2025-12-19T10:26:15Z</time>
      </trkpt>
      <trkpt lat="43.71156" lon="1.15995">
        <ele>210.2</ele>
        <time>2025-12-19T10:26:16Z</time>
      </trkpt>
      <trkpt lat="43.71155" lon="1.16005">
        <ele>210.2</ele>
        <time>2025-12-19T10:26:17Z</time>
      </trkpt>
      <trkpt lat="43.71153" lon="1.16014">
        <ele>210</ele>
        <time>2025-12-19T10:26:18Z</time>
      </trkpt>
      <trkpt lat="43.71151" lon="1.16023">
        <ele>210</ele>
        <time>2025-12-19T10:26:19Z</time>
      </trkpt>
      <trkpt lat="43.71149" lon="1.16033">
        <ele>210</ele>
        <time>2025-12-19T10:26:20Z</time>
      </trkpt>
      <trkpt lat="43.71148" lon="1.16042">
        <ele>209.8</ele>
        <time>2025-12-19T10:26:21Z</time>
      </trkpt>
      <trkpt lat="43.71146" lon="1.16051">
        <ele>209.8</ele>
        <time>2025-12-19T10:26:22Z</time>
      </trkpt>
      <trkpt lat="43.71144" lon="1.1606">
        <ele>209.8</ele>
        <time>2025-12-19T10:26:23Z</time>
      </trkpt>
      <trkpt lat="43.71143" lon="1.16069">
        <ele>210</ele>
        <time>2025-12-19T10:26:24Z</time>
      </trkpt>
      <trkpt lat="43.71141" lon="1.16077">
        <ele>210</ele>
        <time>2025-12-19T10:26:25Z</time>
      </trkpt>
      <trkpt lat="43.71139" lon="1.16085">
        <ele>210</ele>
        <time>2025-12-19T10:26:26Z</time>
      </trkpt>
      <trkpt lat="43.71137" lon="1.16093">
        <ele>210</ele>
        <time>2025-12-19T10:26:27Z</time>
      </trkpt>
      <trkpt lat="43.71135" lon="1.16101">
        <ele>210</ele>
        <time>2025-12-19T10:26:28Z</time>
      </trkpt>
      <trkpt lat="43.71132" lon="1.16108">
        <ele>210.2</ele>
        <time>2025-12-19T10:26:29Z</time>
      </trkpt>
      <trkpt lat="43.7113" lon="1.16116">
        <ele>210.4</ele>
        <time>2025-12-19T10:26:30Z</time>
      </trkpt>
      <trkpt lat="43.71129" lon="1.16125">
        <ele>210.4</ele>
        <time>2025-12-19T10:26:31Z</time>
      </trkpt>
      <trkpt lat="43.71128" lon="1.16133">
        <ele>210.6</ele>
        <time>2025-12-19T10:26:32Z</time>
      </trkpt>
      <trkpt lat="43.71128" lon="1.16141">
        <ele>210.6</ele>
        <time>2025-12-19T10:26:33Z</time>
      </trkpt>
      <trkpt lat="43.71128" lon="1.1615">
        <ele>210.6</ele>
        <time>2025-12-19T10:26:34Z</time>
      </trkpt>
      <trkpt lat="43.71127" lon="1.16159">
        <ele>210.6</ele>
        <time>2025-12-19T10:26:35Z</time>
      </trkpt>
      <trkpt lat="43.71127" lon="1.16168">
        <ele>210.6</ele>
        <time>2025-12-19T10:26:36Z</time>
      </trkpt>
      <trkpt lat="43.71127" lon="1.16177">
        <ele>210.4</ele>
        <time>2025-12-19T10:26:37Z</time>
      </trkpt>
      <trkpt lat="43.71127" lon="1.16185">
        <ele>210.4</ele>
        <time>2025-12-19T10:26:38Z</time>
      </trkpt>
      <trkpt lat="43.71126" lon="1.16194">
        <ele>210.4</ele>
        <time>2025-12-19T10:26:39Z</time>
      </trkpt>
      <trkpt lat="43.71125" lon="1.16202">
        <ele>210</ele>
        <time>2025-12-19T10:26:40Z</time>
      </trkpt>
      <trkpt lat="43.71124" lon="1.16211">
        <ele>210</ele>
        <time>2025-12-19T10:26:41Z</time>
      </trkpt>
      <trkpt lat="43.71124" lon="1.1622">
        <ele>209.8</ele>
        <time>2025-12-19T10:26:42Z</time>
      </trkpt>
      <trkpt lat="43.71123" lon="1.16229">
        <ele>209.8</ele>
        <time>2025-12-19T10:26:43Z</time>
      </trkpt>
      <trkpt lat="43.71123" lon="1.16237">
        <ele>209.6</ele>
        <time>2025-12-19T10:26:44Z</time>
      </trkpt>
      <trkpt lat="43.71122" lon="1.16245">
        <ele>209.6</ele>
        <time>2025-12-19T10:26:45Z</time>
      </trkpt>
      <trkpt lat="43.71121" lon="1.16253">
        <ele>209.4</ele>
        <time>2025-12-19T10:26:46Z</time>
      </trkpt>
      <trkpt lat="43.7112" lon="1.16261">
        <ele>209.4</ele>
        <time>2025-12-19T10:26:47Z</time>
      </trkpt>
      <trkpt lat="43.7112" lon="1.1627">
        <ele>209.4</ele>
        <time>2025-12-19T10:26:48Z</time>
      </trkpt>
      <trkpt lat="43.71119" lon="1.16278">
        <ele>209.2</ele>
        <time>2025-12-19T10:26:49Z</time>
      </trkpt>
      <trkpt lat="43.71117" lon="1.16285">
        <ele>209.2</ele>
        <time>2025-12-19T10:26:50Z</time>
      </trkpt>
      <trkpt lat="43.71114" lon="1.16292">
        <ele>209</ele>
        <time>2025-12-19T10:26:51Z</time>
      </trkpt>
      <trkpt lat="43.7111" lon="1.16299">
        <ele>209</ele>
        <time>2025-12-19T10:26:52Z</time>
      </trkpt>
      <trkpt lat="43.71108" lon="1.16306">
        <ele>209</ele>
        <time>2025-12-19T10:26:53Z</time>
      </trkpt>
      <trkpt lat="43.71105" lon="1.16314">
        <ele>208.8</ele>
        <time>2025-12-19T10:26:54Z</time>
      </trkpt>
      <trkpt lat="43.71103" lon="1.16322">
        <ele>208.8</ele>
        <time>2025-12-19T10:26:55Z</time>
      </trkpt>
      <trkpt lat="43.711" lon="1.1633">
        <ele>208.6</ele>
        <time>2025-12-19T10:26:56Z</time>
      </trkpt>
      <trkpt lat="43.71098" lon="1.16339">
        <ele>208.4</ele>
        <time>2025-12-19T10:26:57Z</time>
      </trkpt>
      <trkpt lat="43.71096" lon="1.16349">
        <ele>208</ele>
        <time>2025-12-19T10:26:58Z</time>
      </trkpt>
      <trkpt lat="43.71094" lon="1.16358">
        <ele>207.8</ele>
        <time>2025-12-19T10:26:59Z</time>
      </trkpt>
      <trkpt lat="43.71093" lon="1.16368">
        <ele>207.6</ele>
        <time>2025-12-19T10:27:00Z</time>
      </trkpt>
      <trkpt lat="43.71092" lon="1.16378">
        <ele>207.4</ele>
        <time>2025-12-19T10:27:01Z</time>
      </trkpt>
      <trkpt lat="43.71092" lon="1.16388">
        <ele>207.2</ele>
        <time>2025-12-19T10:27:02Z</time>
      </trkpt>
      <trkpt lat="43.71092" lon="1.16398">
        <ele>206.8</ele>
        <time>2025-12-19T10:27:03Z</time>
      </trkpt>
      <trkpt lat="43.71093" lon="1.16408">
        <ele>206.8</ele>
        <time>2025-12-19T10:27:04Z</time>
      </trkpt>
      <trkpt lat="43.71093" lon="1.16418">
        <ele>206.6</ele>
        <time>2025-12-19T10:27:05Z</time>
      </trkpt>
      <trkpt lat="43.71093" lon="1.16428">
        <ele>206.4</ele>
        <time>2025-12-19T10:27:06Z</time>
      </trkpt>
      <trkpt lat="43.71093" lon="1.16439">
        <ele>206</ele>
        <time>2025-12-19T10:27:07Z</time>
      </trkpt>
      <trkpt lat="43.71093" lon="1.16449">
        <ele>205.8</ele>
        <time>2025-12-19T10:27:08Z</time>
      </trkpt>
      <trkpt lat="43.71093" lon="1.16459">
        <ele>205.6</ele>
        <time>2025-12-19T10:27:09Z</time>
      </trkpt>
      <trkpt lat="43.71094" lon="1.16469">
        <ele>205.2</ele>
        <time>2025-12-19T10:27:10Z</time>
      </trkpt>
      <trkpt lat="43.71094" lon="1.1648">
        <ele>205</ele>
        <time>2025-12-19T10:27:11Z</time>
      </trkpt>
      <trkpt lat="43.71094" lon="1.1649">
        <ele>204.8</ele>
        <time>2025-12-19T10:27:12Z</time>
      </trkpt>
      <trkpt lat="43.71093" lon="1.165">
        <ele>204.6</ele>
        <time>2025-12-19T10:27:13Z</time>
      </trkpt>
      <trkpt lat="43.71094" lon="1.16511">
        <ele>204.2</ele>
        <time>2025-12-19T10:27:14Z</time>
      </trkpt>
      <trkpt lat="43.71094" lon="1.16521">
        <ele>204</ele>
        <time>2025-12-19T10:27:15Z</time>
      </trkpt>
      <trkpt lat="43.71094" lon="1.16531">
        <ele>203.8</ele>
        <time>2025-12-19T10:27:16Z</time>
      </trkpt>
      <trkpt lat="43.71094" lon="1.16541">
        <ele>203.8</ele>
        <time>2025-12-19T10:27:17Z</time>
      </trkpt>
      <trkpt lat="43.71094" lon="1.16552">
        <ele>203.4</ele>
        <time>2025-12-19T10:27:18Z</time>
      </trkpt>
      <trkpt lat="43.71094" lon="1.16562">
        <ele>203.2</ele>
        <time>2025-12-19T10:27:19Z</time>
      </trkpt>
      <trkpt lat="43.71095" lon="1.16572">
        <ele>203</ele>
        <time>2025-12-19T10:27:20Z</time>
      </trkpt>
      <trkpt lat="43.71095" lon="1.16582">
        <ele>202.8</ele>
        <time>2025-12-19T10:27:21Z</time>
      </trkpt>
      <trkpt lat="43.71094" lon="1.16592">
        <ele>202.6</ele>
        <time>2025-12-19T10:27:22Z</time>
      </trkpt>
      <trkpt lat="43.71094" lon="1.16602">
        <ele>202.4</ele>
        <time>2025-12-19T10:27:23Z</time>
      </trkpt>
      <trkpt lat="43.71094" lon="1.16613">
        <ele>202</ele>
        <time>2025-12-19T10:27:24Z</time>
      </trkpt>
      <trkpt lat="43.71094" lon="1.16624">
        <ele>201.4</ele>
        <time>2025-12-19T10:27:25Z</time>
      </trkpt>
      <trkpt lat="43.71094" lon="1.16635">
        <ele>201.2</ele>
        <time>2025-12-19T10:27:26Z</time>
      </trkpt>
      <trkpt lat="43.71093" lon="1.16647">
        <ele>200.8</ele>
        <time>2025-12-19T10:27:27Z</time>
      </trkpt>
      <trkpt lat="43.71092" lon="1.16659">
        <ele>200.4</ele>
        <time>2025-12-19T10:27:28Z</time>
      </trkpt>
      <trkpt lat="43.7109" lon="1.1667">
        <ele>199.8</ele>
        <time>2025-12-19T10:27:29Z</time>
      </trkpt>
      <trkpt lat="43.71086" lon="1.16682">
        <ele>199.2</ele>
        <time>2025-12-19T10:27:30Z</time>
      </trkpt>
      <trkpt lat="43.71082" lon="1.16694">
        <ele>198.6</ele>
        <time>2025-12-19T10:27:31Z</time>
      </trkpt>
      <trkpt lat="43.71078" lon="1.16705">
        <ele>197.8</ele>
        <time>2025-12-19T10:27:32Z</time>
      </trkpt>
      <trkpt lat="43.71073" lon="1.16716">
        <ele>197</ele>
        <time>2025-12-19T10:27:33Z</time>
      </trkpt>
      <trkpt lat="43.71069" lon="1.16728">
        <ele>196.4</ele>
        <time>2025-12-19T10:27:34Z</time>
      </trkpt>
      <trkpt lat="43.71063" lon="1.16739">
        <ele>195.6</ele>
        <time>2025-12-19T10:27:35Z</time>
      </trkpt>
      <trkpt lat="43.71058" lon="1.16751">
        <ele>195.2</ele>
        <time>2025-12-19T10:27:36Z</time>
      </trkpt>
      <trkpt lat="43.71053" lon="1.16762">
        <ele>194.6</ele>
        <time>2025-12-19T10:27:37Z</time>
      </trkpt>
      <trkpt lat="43.71047" lon="1.16773">
        <ele>194.2</ele>
        <time>2025-12-19T10:27:38Z</time>
      </trkpt>
      <trkpt lat="43.71042" lon="1.16784">
        <ele>193.8</ele>
        <time>2025-12-19T10:27:39Z</time>
      </trkpt>
      <trkpt lat="43.71037" lon="1.16795">
        <ele>193.6</ele>
        <time>2025-12-19T10:27:40Z</time>
      </trkpt>
      <trkpt lat="43.71032" lon="1.16805">
        <ele>193.2</ele>
        <time>2025-12-19T10:27:41Z</time>
      </trkpt>
      <trkpt lat="43.71027" lon="1.16816">
        <ele>193</ele>
        <time>2025-12-19T10:27:42Z</time>
      </trkpt>
      <trkpt lat="43.71022" lon="1.16826">
        <ele>192.6</ele>
        <time>2025-12-19T10:27:43Z</time>
      </trkpt>
      <trkpt lat="43.71017" lon="1.16836">
        <ele>192.4</ele>
        <time>2025-12-19T10:27:44Z</time>
      </trkpt>
      <trkpt lat="43.71012" lon="1.16845">
        <ele>192.2</ele>
        <time>2025-12-19T10:27:45Z</time>
      </trkpt>
      <trkpt lat="43.71007" lon="1.16855">
        <ele>192</ele>
        <time>2025-12-19T10:27:46Z</time>
      </trkpt>
      <trkpt lat="43.71002" lon="1.16866">
        <ele>191.8</ele>
        <time>2025-12-19T10:27:47Z</time>
      </trkpt>
      <trkpt lat="43.70997" lon="1.16876">
        <ele>191.6</ele>
        <time>2025-12-19T10:27:48Z</time>
      </trkpt>
      <trkpt lat="43.70992" lon="1.16885">
        <ele>191.2</ele>
        <time>2025-12-19T10:27:49Z</time>
      </trkpt>
      <trkpt lat="43.70987" lon="1.16895">
        <ele>191</ele>
        <time>2025-12-19T10:27:50Z</time>
      </trkpt>
      <trkpt lat="43.70982" lon="1.16904">
        <ele>190.8</ele>
        <time>2025-12-19T10:27:51Z</time>
      </trkpt>
      <trkpt lat="43.70977" lon="1.16914">
        <ele>190.6</ele>
        <time>2025-12-19T10:27:52Z</time>
      </trkpt>
      <trkpt lat="43.70972" lon="1.16923">
        <ele>190.4</ele>
        <time>2025-12-19T10:27:53Z</time>
      </trkpt>
      <trkpt lat="43.70967" lon="1.16932">
        <ele>190.2</ele>
        <time>2025-12-19T10:27:54Z</time>
      </trkpt>
      <trkpt lat="43.70962" lon="1.16941">
        <ele>190</ele>
        <time>2025-12-19T10:27:55Z</time>
      </trkpt>
      <trkpt lat="43.70957" lon="1.1695">
        <ele>189.8</ele>
        <time>2025-12-19T10:27:56Z</time>
      </trkpt>
      <trkpt lat="43.70951" lon="1.16959">
        <ele>189.4</ele>
        <time>2025-12-19T10:27:57Z</time>
      </trkpt>
      <trkpt lat="43.70945" lon="1.16967">
        <ele>189.2</ele>
        <time>2025-12-19T10:27:58Z</time>
      </trkpt>
      <trkpt lat="43.70939" lon="1.16976">
        <ele>189</ele>
        <time>2025-12-19T10:27:59Z</time>
      </trkpt>
      <trkpt lat="43.70934" lon="1.16985">
        <ele>188.6</ele>
        <time>2025-12-19T10:28:00Z</time>
      </trkpt>
      <trkpt lat="43.70927" lon="1.16994">
        <ele>188.2</ele>
        <time>2025-12-19T10:28:01Z</time>
      </trkpt>
      <trkpt lat="43.70921" lon="1.17003">
        <ele>188.2</ele>
        <time>2025-12-19T10:28:02Z</time>
      </trkpt>
      <trkpt lat="43.70914" lon="1.17011">
        <ele>187.6</ele>
        <time>2025-12-19T10:28:03Z</time>
      </trkpt>
      <trkpt lat="43.70908" lon="1.1702">
        <ele>187.2</ele>
        <time>2025-12-19T10:28:04Z</time>
      </trkpt>
      <trkpt lat="43.70901" lon="1.17029">
        <ele>186.8</ele>
        <time>2025-12-19T10:28:05Z</time>
      </trkpt>
      <trkpt lat="43.70895" lon="1.17038">
        <ele>186.2</ele>
        <time>2025-12-19T10:28:06Z</time>
      </trkpt>
      <trkpt lat="43.70887" lon="1.17047">
        <ele>185.8</ele>
        <time>2025-12-19T10:28:07Z</time>
      </trkpt>
      <trkpt lat="43.7088" lon="1.17056">
        <ele>185</ele>
        <time>2025-12-19T10:28:08Z</time>
      </trkpt>
      <trkpt lat="43.70873" lon="1.17065">
        <ele>184.4</ele>
        <time>2025-12-19T10:28:09Z</time>
      </trkpt>
      <trkpt lat="43.70865" lon="1.17074">
        <ele>183.8</ele>
        <time>2025-12-19T10:28:10Z</time>
      </trkpt>
      <trkpt lat="43.70858" lon="1.17084">
        <ele>183.2</ele>
        <time>2025-12-19T10:28:11Z</time>
      </trkpt>
      <trkpt lat="43.7085" lon="1.17093">
        <ele>182.6</ele>
        <time>2025-12-19T10:28:12Z</time>
      </trkpt>
      <trkpt lat="43.70843" lon="1.17103">
        <ele>182</ele>
        <time>2025-12-19T10:28:13Z</time>
      </trkpt>
      <trkpt lat="43.70835" lon="1.17112">
        <ele>181.6</ele>
        <time>2025-12-19T10:28:14Z</time>
      </trkpt>
      <trkpt lat="43.70826" lon="1.17121">
        <ele>181</ele>
        <time>2025-12-19T10:28:15Z</time>
      </trkpt>
      <trkpt lat="43.70818" lon="1.17129">
        <ele>180.4</ele>
        <time>2025-12-19T10:28:16Z</time>
      </trkpt>
      <trkpt lat="43.70808" lon="1.17137">
        <ele>179.8</ele>
        <time>2025-12-19T10:28:17Z</time>
      </trkpt>
      <trkpt lat="43.70799" lon="1.17143">
        <ele>179</ele>
        <time>2025-12-19T10:28:18Z</time>
      </trkpt>
      <trkpt lat="43.70789" lon="1.17149">
        <ele>178.4</ele>
        <time>2025-12-19T10:28:19Z</time>
      </trkpt>
      <trkpt lat="43.70779" lon="1.17154">
        <ele>177.6</ele>
        <time>2025-12-19T10:28:20Z</time>
      </trkpt>
      <trkpt lat="43.7077" lon="1.17159">
        <ele>177.4</ele>
        <time>2025-12-19T10:28:21Z</time>
      </trkpt>
      <trkpt lat="43.7076" lon="1.17164">
        <ele>176.6</ele>
        <time>2025-12-19T10:28:22Z</time>
      </trkpt>
      <trkpt lat="43.70751" lon="1.17169">
        <ele>176.2</ele>
        <time>2025-12-19T10:28:23Z</time>
      </trkpt>
      <trkpt lat="43.70741" lon="1.17174">
        <ele>175.4</ele>
        <time>2025-12-19T10:28:24Z</time>
      </trkpt>
      <trkpt lat="43.7073" lon="1.17179">
        <ele>174.8</ele>
        <time>2025-12-19T10:28:25Z</time>
      </trkpt>
      <trkpt lat="43.7072" lon="1.17185">
        <ele>174.4</ele>
        <time>2025-12-19T10:28:26Z</time>
      </trkpt>
      <trkpt lat="43.7071" lon="1.1719">
        <ele>173.8</ele>
        <time>2025-12-19T10:28:27Z</time>
      </trkpt>
      <trkpt lat="43.70698" lon="1.17191">
        <ele>173</ele>
        <time>2025-12-19T10:28:28Z</time>
      </trkpt>
      <trkpt lat="43.70687" lon="1.17191">
        <ele>172.2</ele>
        <time>2025-12-19T10:28:29Z</time>
      </trkpt>
      <trkpt lat="43.70675" lon="1.17188">
        <ele>171.4</ele>
        <time>2025-12-19T10:28:30Z</time>
      </trkpt>
      <trkpt lat="43.70664" lon="1.17185">
        <ele>170.6</ele>
        <time>2025-12-19T10:28:31Z</time>
      </trkpt>
      <trkpt lat="43.70652" lon="1.17184">
        <ele>170.4</ele>
        <time>2025-12-19T10:28:32Z</time>
      </trkpt>
      <trkpt lat="43.7064" lon="1.17184">
        <ele>169.4</ele>
        <time>2025-12-19T10:28:33Z</time>
      </trkpt>
      <trkpt lat="43.70628" lon="1.17186">
        <ele>168</ele>
        <time>2025-12-19T10:28:34Z</time>
      </trkpt>
      <trkpt lat="43.70616" lon="1.17191">
        <ele>166.8</ele>
        <time>2025-12-19T10:28:35Z</time>
      </trkpt>
      <trkpt lat="43.70606" lon="1.17199">
        <ele>165.6</ele>
        <time>2025-12-19T10:28:36Z</time>
      </trkpt>
      <trkpt lat="43.70596" lon="1.17209">
        <ele>164.6</ele>
        <time>2025-12-19T10:28:37Z</time>
      </trkpt>
      <trkpt lat="43.70587" lon="1.1722">
        <ele>163.6</ele>
        <time>2025-12-19T10:28:38Z</time>
      </trkpt>
      <trkpt lat="43.70578" lon="1.17232">
        <ele>162.6</ele>
        <time>2025-12-19T10:28:39Z</time>
      </trkpt>
      <trkpt lat="43.7057" lon="1.17245">
        <ele>161.8</ele>
        <time>2025-12-19T10:28:40Z</time>
      </trkpt>
      <trkpt lat="43.70562" lon="1.17257">
        <ele>161.2</ele>
        <time>2025-12-19T10:28:41Z</time>
      </trkpt>
      <trkpt lat="43.70555" lon="1.1727">
        <ele>160.6</ele>
        <time>2025-12-19T10:28:42Z</time>
      </trkpt>
      <trkpt lat="43.70547" lon="1.17282">
        <ele>159.8</ele>
        <time>2025-12-19T10:28:43Z</time>
      </trkpt>
      <trkpt lat="43.7054" lon="1.17294">
        <ele>159.6</ele>
        <time>2025-12-19T10:28:44Z</time>
      </trkpt>
      <trkpt lat="43.70533" lon="1.17306">
        <ele>159.2</ele>
        <time>2025-12-19T10:28:45Z</time>
      </trkpt>
      <trkpt lat="43.70526" lon="1.17318">
        <ele>158.8</ele>
        <time>2025-12-19T10:28:46Z</time>
      </trkpt>
      <trkpt lat="43.70519" lon="1.17329">
        <ele>158.6</ele>
        <time>2025-12-19T10:28:47Z</time>
      </trkpt>
      <trkpt lat="43.70512" lon="1.1734">
        <ele>158.4</ele>
        <time>2025-12-19T10:28:48Z</time>
      </trkpt>
      <trkpt lat="43.70504" lon="1.17351">
        <ele>158.2</ele>
        <time>2025-12-19T10:28:49Z</time>
      </trkpt>
      <trkpt lat="43.70497" lon="1.17361">
        <ele>157.8</ele>
        <time>2025-12-19T10:28:50Z</time>
      </trkpt>
      <trkpt lat="43.70489" lon="1.1737">
        <ele>157.6</ele>
        <time>2025-12-19T10:28:51Z</time>
      </trkpt>
      <trkpt lat="43.70481" lon="1.17378">
        <ele>157.4</ele>
        <time>2025-12-19T10:28:52Z</time>
      </trkpt>
      <trkpt lat="43.70473" lon="1.17385">
        <ele>157.2</ele>
        <time>2025-12-19T10:28:53Z</time>
      </trkpt>
      <trkpt lat="43.70465" lon="1.17392">
        <ele>157</ele>
        <time>2025-12-19T10:28:54Z</time>
      </trkpt>
      <trkpt lat="43.70457" lon="1.17399">
        <ele>156.8</ele>
        <time>2025-12-19T10:28:55Z</time>
      </trkpt>
      <trkpt lat="43.70449" lon="1.17405">
        <ele>156.8</ele>
        <time>2025-12-19T10:28:56Z</time>
      </trkpt>
      <trkpt lat="43.70442" lon="1.17411">
        <ele>157</ele>
        <time>2025-12-19T10:28:57Z</time>
      </trkpt>
      <trkpt lat="43.70434" lon="1.17417">
        <ele>157</ele>
        <time>2025-12-19T10:28:58Z</time>
      </trkpt>
      <trkpt lat="43.70428" lon="1.17422">
        <ele>157.2</ele>
        <time>2025-12-19T10:28:59Z</time>
      </trkpt>
      <trkpt lat="43.70421" lon="1.17427">
        <ele>157.6</ele>
        <time>2025-12-19T10:29:00Z</time>
      </trkpt>
      <trkpt lat="43.70415" lon="1.17431">
        <ele>158</ele>
        <time>2025-12-19T10:29:01Z</time>
      </trkpt>
      <trkpt lat="43.7041" lon="1.17436">
        <ele>158.4</ele>
        <time>2025-12-19T10:29:02Z</time>
      </trkpt>
      <trkpt lat="43.70405" lon="1.17439">
        <ele>158.8</ele>
        <time>2025-12-19T10:29:03Z</time>
      </trkpt>
      <trkpt lat="43.70401" lon="1.17443">
        <ele>159.4</ele>
        <time>2025-12-19T10:29:04Z</time>
      </trkpt>
      <trkpt lat="43.70397" lon="1.17446">
        <ele>160</ele>
        <time>2025-12-19T10:29:05Z</time>
      </trkpt>
      <trkpt lat="43.70392" lon="1.17448">
        <ele>160.4</ele>
        <time>2025-12-19T10:29:06Z</time>
      </trkpt>
      <trkpt lat="43.70387" lon="1.1745">
        <ele>161.2</ele>
        <time>2025-12-19T10:29:07Z</time>
      </trkpt>
      <trkpt lat="43.70383" lon="1.1745">
        <ele>161.6</ele>
        <time>2025-12-19T10:29:08Z</time>
      </trkpt>
      <trkpt lat="43.70378" lon="1.17451">
        <ele>162</ele>
        <time>2025-12-19T10:29:09Z</time>
      </trkpt>
      <trkpt lat="43.70374" lon="1.17451">
        <ele>162.6</ele>
        <time>2025-12-19T10:29:10Z</time>
      </trkpt>
      <trkpt lat="43.70369" lon="1.17452">
        <ele>163</ele>
        <time>2025-12-19T10:29:11Z</time>
      </trkpt>
      <trkpt lat="43.70365" lon="1.17452">
        <ele>163.4</ele>
        <time>2025-12-19T10:29:12Z</time>
      </trkpt>
      <trkpt lat="43.70361" lon="1.17451">
        <ele>164</ele>
        <time>2025-12-19T10:29:13Z</time>
      </trkpt>
      <trkpt lat="43.70357" lon="1.17451">
        <ele>164.4</ele>
        <time>2025-12-19T10:29:14Z</time>
      </trkpt>
      <trkpt lat="43.70353" lon="1.1745">
        <ele>164.8</ele>
        <time>2025-12-19T10:29:15Z</time>
      </trkpt>
      <trkpt lat="43.70349" lon="1.1745">
        <ele>165.2</ele>
        <time>2025-12-19T10:29:16Z</time>
      </trkpt>
      <trkpt lat="43.70345" lon="1.17449">
        <ele>165.4</ele>
        <time>2025-12-19T10:29:17Z</time>
      </trkpt>
      <trkpt lat="43.70342" lon="1.17448">
        <ele>165.8</ele>
        <time>2025-12-19T10:29:18Z</time>
      </trkpt>
      <trkpt lat="43.70339" lon="1.17448">
        <ele>166.2</ele>
        <time>2025-12-19T10:29:19Z</time>
      </trkpt>
      <trkpt lat="43.70336" lon="1.17447">
        <ele>166.6</ele>
        <time>2025-12-19T10:29:20Z</time>
      </trkpt>
      <trkpt lat="43.70333" lon="1.17447">
        <ele>166.8</ele>
        <time>2025-12-19T10:29:21Z</time>
      </trkpt>
      <trkpt lat="43.7033" lon="1.17447">
        <ele>167.2</ele>
        <time>2025-12-19T10:29:22Z</time>
      </trkpt>
      <trkpt lat="43.70328" lon="1.17446">
        <ele>167.6</ele>
        <time>2025-12-19T10:29:23Z</time>
      </trkpt>
      <trkpt lat="43.70325" lon="1.17446">
        <ele>167.8</ele>
        <time>2025-12-19T10:29:24Z</time>
      </trkpt>
      <trkpt lat="43.70322" lon="1.17445">
        <ele>168.2</ele>
        <time>2025-12-19T10:29:25Z</time>
      </trkpt>
      <trkpt lat="43.70319" lon="1.17445">
        <ele>168.4</ele>
        <time>2025-12-19T10:29:26Z</time>
      </trkpt>
      <trkpt lat="43.70316" lon="1.17444">
        <ele>168.6</ele>
        <time>2025-12-19T10:29:27Z</time>
      </trkpt>
      <trkpt lat="43.70314" lon="1.17444">
        <ele>169</ele>
        <time>2025-12-19T10:29:28Z</time>
      </trkpt>
      <trkpt lat="43.70312" lon="1.17444">
        <ele>169.2</ele>
        <time>2025-12-19T10:29:29Z</time>
      </trkpt>
      <trkpt lat="43.70309" lon="1.17444">
        <ele>169.4</ele>
        <time>2025-12-19T10:29:30Z</time>
      </trkpt>
      <trkpt lat="43.70306" lon="1.17443">
        <ele>169.8</ele>
        <time>2025-12-19T10:29:31Z</time>
      </trkpt>
      <trkpt lat="43.70304" lon="1.17442">
        <ele>170</ele>
        <time>2025-12-19T10:29:32Z</time>
      </trkpt>
      <trkpt lat="43.70301" lon="1.17441">
        <ele>170.2</ele>
        <time>2025-12-19T10:29:33Z</time>
      </trkpt>
      <trkpt lat="43.70299" lon="1.17441">
        <ele>170.4</ele>
        <time>2025-12-19T10:29:34Z</time>
      </trkpt>
      <trkpt lat="43.70296" lon="1.17441">
        <ele>170.6</ele>
        <time>2025-12-19T10:29:35Z</time>
      </trkpt>
      <trkpt lat="43.70293" lon="1.1744">
        <ele>171</ele>
        <time>2025-12-19T10:29:36Z</time>
      </trkpt>
      <trkpt lat="43.70291" lon="1.1744">
        <ele>171.2</ele>
        <time>2025-12-19T10:29:37Z</time>
      </trkpt>
      <trkpt lat="43.70288" lon="1.1744">
        <ele>171.4</ele>
        <time>2025-12-19T10:29:38Z</time>
      </trkpt>
      <trkpt lat="43.70286" lon="1.1744">
        <ele>171.6</ele>
        <time>2025-12-19T10:29:39Z</time>
      </trkpt>
      <trkpt lat="43.70283" lon="1.17439">
        <ele>171.8</ele>
        <time>2025-12-19T10:29:40Z</time>
      </trkpt>
      <trkpt lat="43.70281" lon="1.17438">
        <ele>172</ele>
        <time>2025-12-19T10:29:41Z</time>
      </trkpt>
      <trkpt lat="43.70278" lon="1.17438">
        <ele>172.2</ele>
        <time>2025-12-19T10:29:42Z</time>
      </trkpt>
      <trkpt lat="43.70276" lon="1.17438">
        <ele>172.4</ele>
        <time>2025-12-19T10:29:43Z</time>
      </trkpt>
      <trkpt lat="43.70274" lon="1.17438">
        <ele>172.6</ele>
        <time>2025-12-19T10:29:44Z</time>
      </trkpt>
      <trkpt lat="43.70271" lon="1.17437">
        <ele>173</ele>
        <time>2025-12-19T10:29:45Z</time>
      </trkpt>
      <trkpt lat="43.70268" lon="1.17437">
        <ele>173.2</ele>
        <time>2025-12-19T10:29:46Z</time>
      </trkpt>
      <trkpt lat="43.70266" lon="1.17436">
        <ele>173.2</ele>
        <time>2025-12-19T10:29:47Z</time>
      </trkpt>
      <trkpt lat="43.70263" lon="1.17436">
        <ele>173.4</ele>
        <time>2025-12-19T10:29:48Z</time>
      </trkpt>
      <trkpt lat="43.70261" lon="1.17435">
        <ele>173.6</ele>
        <time>2025-12-19T10:29:49Z</time>
      </trkpt>
      <trkpt lat="43.70258" lon="1.17435">
        <ele>174</ele>
        <time>2025-12-19T10:29:50Z</time>
      </trkpt>
      <trkpt lat="43.70256" lon="1.17434">
        <ele>174.2</ele>
        <time>2025-12-19T10:29:51Z</time>
      </trkpt>
      <trkpt lat="43.70253" lon="1.17433">
        <ele>174.4</ele>
        <time>2025-12-19T10:29:52Z</time>
      </trkpt>
      <trkpt lat="43.70251" lon="1.17433">
        <ele>174.6</ele>
        <time>2025-12-19T10:29:53Z</time>
      </trkpt>
      <trkpt lat="43.70248" lon="1.17432">
        <ele>174.8</ele>
        <time>2025-12-19T10:29:54Z</time>
      </trkpt>
      <trkpt lat="43.70246" lon="1.17431">
        <ele>175.2</ele>
        <time>2025-12-19T10:29:55Z</time>
      </trkpt>
      <trkpt lat="43.70243" lon="1.17431">
        <ele>175.4</ele>
        <time>2025-12-19T10:29:56Z</time>
      </trkpt>
      <trkpt lat="43.70241" lon="1.1743">
        <ele>175.6</ele>
        <time>2025-12-19T10:29:57Z</time>
      </trkpt>
      <trkpt lat="43.70239" lon="1.1743">
        <ele>175.8</ele>
        <time>2025-12-19T10:29:58Z</time>
      </trkpt>
      <trkpt lat="43.70236" lon="1.17429">
        <ele>176</ele>
        <time>2025-12-19T10:29:59Z</time>
      </trkpt>
      <trkpt lat="43.70234" lon="1.17429">
        <ele>176.2</ele>
        <time>2025-12-19T10:30:00Z</time>
      </trkpt>
      <trkpt lat="43.70232" lon="1.17428">
        <ele>176.4</ele>
        <time>2025-12-19T10:30:01Z</time>
      </trkpt>
      <trkpt lat="43.70229" lon="1.17427">
        <ele>176.6</ele>
        <time>2025-12-19T10:30:02Z</time>
      </trkpt>
      <trkpt lat="43.70227" lon="1.17426">
        <ele>176.8</ele>
        <time>2025-12-19T10:30:03Z</time>
      </trkpt>
      <trkpt lat="43.70225" lon="1.17425">
        <ele>177</ele>
        <time>2025-12-19T10:30:04Z</time>
      </trkpt>
      <trkpt lat="43.70222" lon="1.17425">
        <ele>177.2</ele>
        <time>2025-12-19T10:30:05Z</time>
      </trkpt>
      <trkpt lat="43.7022" lon="1.17424">
        <ele>177.6</ele>
        <time>2025-12-19T10:30:06Z</time>
      </trkpt>
      <trkpt lat="43.70218" lon="1.17424">
        <ele>177.8</ele>
        <time>2025-12-19T10:30:07Z</time>
      </trkpt>
      <trkpt lat="43.70216" lon="1.17423">
        <ele>178</ele>
        <time>2025-12-19T10:30:08Z</time>
      </trkpt>
      <trkpt lat="43.70213" lon="1.17423">
        <ele>178.2</ele>
        <time>2025-12-19T10:30:09Z</time>
      </trkpt>
      <trkpt lat="43.70211" lon="1.17422">
        <ele>178.4</ele>
        <time>2025-12-19T10:30:10Z</time>
      </trkpt>
      <trkpt lat="43.70208" lon="1.17421">
        <ele>178.6</ele>
        <time>2025-12-19T10:30:11Z</time>
      </trkpt>
      <trkpt lat="43.70206" lon="1.1742">
        <ele>178.8</ele>
        <time>2025-12-19T10:30:12Z</time>
      </trkpt>
      <trkpt lat="43.70203" lon="1.17419">
        <ele>179</ele>
        <time>2025-12-19T10:30:13Z</time>
      </trkpt>
      <trkpt lat="43.70201" lon="1.17419">
        <ele>179.2</ele>
        <time>2025-12-19T10:30:14Z</time>
      </trkpt>
      <trkpt lat="43.70199" lon="1.17418">
        <ele>179.4</ele>
        <time>2025-12-19T10:30:15Z</time>
      </trkpt>
      <trkpt lat="43.70196" lon="1.17417">
        <ele>179.6</ele>
        <time>2025-12-19T10:30:16Z</time>
      </trkpt>
      <trkpt lat="43.70194" lon="1.17416">
        <ele>179.8</ele>
        <time>2025-12-19T10:30:17Z</time>
      </trkpt>
      <trkpt lat="43.70192" lon="1.17416">
        <ele>180.2</ele>
        <time>2025-12-19T10:30:18Z</time>
      </trkpt>
      <trkpt lat="43.70189" lon="1.17415">
        <ele>180.2</ele>
        <time>2025-12-19T10:30:19Z</time>
      </trkpt>
      <trkpt lat="43.70187" lon="1.17414">
        <ele>180.4</ele>
        <time>2025-12-19T10:30:20Z</time>
      </trkpt>
      <trkpt lat="43.70185" lon="1.17413">
        <ele>180.6</ele>
        <time>2025-12-19T10:30:21Z</time>
      </trkpt>
      <trkpt lat="43.70183" lon="1.17412">
        <ele>181</ele>
        <time>2025-12-19T10:30:22Z</time>
      </trkpt>
      <trkpt lat="43.7018" lon="1.17411">
        <ele>181</ele>
        <time>2025-12-19T10:30:23Z</time>
      </trkpt>
      <trkpt lat="43.70178" lon="1.1741">
        <ele>181.4</ele>
        <time>2025-12-19T10:30:24Z</time>
      </trkpt>
      <trkpt lat="43.70175" lon="1.1741">
        <ele>181.6</ele>
        <time>2025-12-19T10:30:25Z</time>
      </trkpt>
      <trkpt lat="43.70173" lon="1.17409">
        <ele>181.8</ele>
        <time>2025-12-19T10:30:26Z</time>
      </trkpt>
      <trkpt lat="43.7017" lon="1.17409">
        <ele>182</ele>
        <time>2025-12-19T10:30:27Z</time>
      </trkpt>
      <trkpt lat="43.70168" lon="1.17408">
        <ele>182.2</ele>
        <time>2025-12-19T10:30:28Z</time>
      </trkpt>
      <trkpt lat="43.70165" lon="1.17407">
        <ele>182.4</ele>
        <time>2025-12-19T10:30:29Z</time>
      </trkpt>
      <trkpt lat="43.70163" lon="1.17406">
        <ele>182.6</ele>
        <time>2025-12-19T10:30:30Z</time>
      </trkpt>
      <trkpt lat="43.70161" lon="1.17405">
        <ele>182.6</ele>
        <time>2025-12-19T10:30:31Z</time>
      </trkpt>
      <trkpt lat="43.70159" lon="1.17405">
        <ele>183</ele>
        <time>2025-12-19T10:30:32Z</time>
      </trkpt>
      <trkpt lat="43.70156" lon="1.17404">
        <ele>183</ele>
        <time>2025-12-19T10:30:33Z</time>
      </trkpt>
      <trkpt lat="43.70154" lon="1.17403">
        <ele>183.4</ele>
        <time>2025-12-19T10:30:34Z</time>
      </trkpt>
      <trkpt lat="43.70152" lon="1.17402">
        <ele>183.6</ele>
        <time>2025-12-19T10:30:35Z</time>
      </trkpt>
      <trkpt lat="43.70149" lon="1.17402">
        <ele>183.8</ele>
        <time>2025-12-19T10:30:36Z</time>
      </trkpt>
      <trkpt lat="43.70147" lon="1.17401">
        <ele>183.8</ele>
        <time>2025-12-19T10:30:37Z</time>
      </trkpt>
      <trkpt lat="43.70144" lon="1.174">
        <ele>184.2</ele>
        <time>2025-12-19T10:30:38Z</time>
      </trkpt>
      <trkpt lat="43.70142" lon="1.17399">
        <ele>184.4</ele>
        <time>2025-12-19T10:30:39Z</time>
      </trkpt>
      <trkpt lat="43.70139" lon="1.17399">
        <ele>184.6</ele>
        <time>2025-12-19T10:30:40Z</time>
      </trkpt>
      <trkpt lat="43.70137" lon="1.17398">
        <ele>184.6</ele>
        <time>2025-12-19T10:30:41Z</time>
      </trkpt>
      <trkpt lat="43.70134" lon="1.17397">
        <ele>184.8</ele>
        <time>2025-12-19T10:30:42Z</time>
      </trkpt>
      <trkpt lat="43.70132" lon="1.17396">
        <ele>185</ele>
        <time>2025-12-19T10:30:43Z</time>
      </trkpt>
      <trkpt lat="43.70129" lon="1.17394">
        <ele>185.2</ele>
        <time>2025-12-19T10:30:44Z</time>
      </trkpt>
      <trkpt lat="43.70127" lon="1.17393">
        <ele>185.4</ele>
        <time>2025-12-19T10:30:45Z</time>
      </trkpt>
      <trkpt lat="43.70124" lon="1.17392">
        <ele>185.4</ele>
        <time>2025-12-19T10:30:46Z</time>
      </trkpt>
      <trkpt lat="43.70121" lon="1.17392">
        <ele>185.8</ele>
        <time>2025-12-19T10:30:47Z</time>
      </trkpt>
      <trkpt lat="43.70118" lon="1.17391">
        <ele>185.8</ele>
        <time>2025-12-19T10:30:48Z</time>
      </trkpt>
      <trkpt lat="43.70115" lon="1.1739">
        <ele>186</ele>
        <time>2025-12-19T10:30:49Z</time>
      </trkpt>
      <trkpt lat="43.70112" lon="1.17389">
        <ele>186.2</ele>
        <time>2025-12-19T10:30:50Z</time>
      </trkpt>
      <trkpt lat="43.7011" lon="1.17387">
        <ele>186.4</ele>
        <time>2025-12-19T10:30:51Z</time>
      </trkpt>
      <trkpt lat="43.70106" lon="1.17386">
        <ele>186.6</ele>
        <time>2025-12-19T10:30:52Z</time>
      </trkpt>
      <trkpt lat="43.70104" lon="1.17384">
        <ele>186.8</ele>
        <time>2025-12-19T10:30:53Z</time>
      </trkpt>
      <trkpt lat="43.70101" lon="1.17383">
        <ele>187</ele>
        <time>2025-12-19T10:30:54Z</time>
      </trkpt>
      <trkpt lat="43.70098" lon="1.17382">
        <ele>187.2</ele>
        <time>2025-12-19T10:30:55Z</time>
      </trkpt>
      <trkpt lat="43.70095" lon="1.17381">
        <ele>187.2</ele>
        <time>2025-12-19T10:30:56Z</time>
      </trkpt>
      <trkpt lat="43.70091" lon="1.1738">
        <ele>187.4</ele>
        <time>2025-12-19T10:30:57Z</time>
      </trkpt>
      <trkpt lat="43.70089" lon="1.17379">
        <ele>187.6</ele>
        <time>2025-12-19T10:30:58Z</time>
      </trkpt>
      <trkpt lat="43.70086" lon="1.17377">
        <ele>188</ele>
        <time>2025-12-19T10:30:59Z</time>
      </trkpt>
      <trkpt lat="43.70083" lon="1.17376">
        <ele>188.2</ele>
        <time>2025-12-19T10:31:00Z</time>
      </trkpt>
      <trkpt lat="43.7008" lon="1.17375">
        <ele>188.2</ele>
        <time>2025-12-19T10:31:01Z</time>
      </trkpt>
      <trkpt lat="43.70077" lon="1.17374">
        <ele>188.4</ele>
        <time>2025-12-19T10:31:02Z</time>
      </trkpt>
      <trkpt lat="43.70074" lon="1.17372">
        <ele>188.6</ele>
        <time>2025-12-19T10:31:03Z</time>
      </trkpt>
      <trkpt lat="43.70071" lon="1.17371">
        <ele>188.8</ele>
        <time>2025-12-19T10:31:04Z</time>
      </trkpt>
      <trkpt lat="43.70068" lon="1.1737">
        <ele>189</ele>
        <time>2025-12-19T10:31:05Z</time>
      </trkpt>
      <trkpt lat="43.70066" lon="1.17368">
        <ele>189.2</ele>
        <time>2025-12-19T10:31:06Z</time>
      </trkpt>
      <trkpt lat="43.70063" lon="1.17367">
        <ele>189.4</ele>
        <time>2025-12-19T10:31:07Z</time>
      </trkpt>
      <trkpt lat="43.7006" lon="1.17366">
        <ele>189.6</ele>
        <time>2025-12-19T10:31:08Z</time>
      </trkpt>
      <trkpt lat="43.70056" lon="1.17365">
        <ele>189.8</ele>
        <time>2025-12-19T10:31:09Z</time>
      </trkpt>
      <trkpt lat="43.70053" lon="1.17363">
        <ele>190.2</ele>
        <time>2025-12-19T10:31:10Z</time>
      </trkpt>
      <trkpt lat="43.7005" lon="1.17362">
        <ele>190.4</ele>
        <time>2025-12-19T10:31:11Z</time>
      </trkpt>
      <trkpt lat="43.70047" lon="1.17361">
        <ele>190.6</ele>
        <time>2025-12-19T10:31:12Z</time>
      </trkpt>
      <trkpt lat="43.70044" lon="1.1736">
        <ele>190.8</ele>
        <time>2025-12-19T10:31:13Z</time>
      </trkpt>
      <trkpt lat="43.70041" lon="1.17359">
        <ele>191</ele>
        <time>2025-12-19T10:31:14Z</time>
      </trkpt>
      <trkpt lat="43.70037" lon="1.17357">
        <ele>191.2</ele>
        <time>2025-12-19T10:31:15Z</time>
      </trkpt>
      <trkpt lat="43.70034" lon="1.17356">
        <ele>191.4</ele>
        <time>2025-12-19T10:31:16Z</time>
      </trkpt>
      <trkpt lat="43.70031" lon="1.17355">
        <ele>191.6</ele>
        <time>2025-12-19T10:31:17Z</time>
      </trkpt>
      <trkpt lat="43.70028" lon="1.17354">
        <ele>191.8</ele>
        <time>2025-12-19T10:31:18Z</time>
      </trkpt>
      <trkpt lat="43.70025" lon="1.17353">
        <ele>192</ele>
        <time>2025-12-19T10:31:19Z</time>
      </trkpt>
      <trkpt lat="43.70022" lon="1.17353">
        <ele>192.2</ele>
        <time>2025-12-19T10:31:20Z</time>
      </trkpt>
      <trkpt lat="43.70019" lon="1.17352">
        <ele>192.6</ele>
        <time>2025-12-19T10:31:21Z</time>
      </trkpt>
      <trkpt lat="43.70016" lon="1.17351">
        <ele>192.8</ele>
        <time>2025-12-19T10:31:22Z</time>
      </trkpt>
      <trkpt lat="43.70013" lon="1.1735">
        <ele>193</ele>
        <time>2025-12-19T10:31:23Z</time>
      </trkpt>
      <trkpt lat="43.7001" lon="1.17349">
        <ele>193.2</ele>
        <time>2025-12-19T10:31:24Z</time>
      </trkpt>
      <trkpt lat="43.70007" lon="1.17348">
        <ele>193.4</ele>
        <time>2025-12-19T10:31:25Z</time>
      </trkpt>
      <trkpt lat="43.70004" lon="1.17347">
        <ele>193.6</ele>
        <time>2025-12-19T10:31:26Z</time>
      </trkpt>
      <trkpt lat="43.70001" lon="1.17346">
        <ele>193.8</ele>
        <time>2025-12-19T10:31:27Z</time>
      </trkpt>
      <trkpt lat="43.69998" lon="1.17346">
        <ele>194</ele>
        <time>2025-12-19T10:31:28Z</time>
      </trkpt>
      <trkpt lat="43.69995" lon="1.17345">
        <ele>194.4</ele>
        <time>2025-12-19T10:31:29Z</time>
      </trkpt>
      <trkpt lat="43.69992" lon="1.17345">
        <ele>194.4</ele>
        <time>2025-12-19T10:31:30Z</time>
      </trkpt>
      <trkpt lat="43.69989" lon="1.17344">
        <ele>194.8</ele>
        <time>2025-12-19T10:31:31Z</time>
      </trkpt>
      <trkpt lat="43.69987" lon="1.17343">
        <ele>194.8</ele>
        <time>2025-12-19T10:31:32Z</time>
      </trkpt>
      <trkpt lat="43.69984" lon="1.17343">
        <ele>195</ele>
        <time>2025-12-19T10:31:33Z</time>
      </trkpt>
      <trkpt lat="43.69981" lon="1.17342">
        <ele>195.4</ele>
        <time>2025-12-19T10:31:34Z</time>
      </trkpt>
      <trkpt lat="43.69978" lon="1.17342">
        <ele>195.4</ele>
        <time>2025-12-19T10:31:35Z</time>
      </trkpt>
      <trkpt lat="43.69975" lon="1.17342">
        <ele>195.8</ele>
        <time>2025-12-19T10:31:36Z</time>
      </trkpt>
      <trkpt lat="43.69972" lon="1.17341">
        <ele>196</ele>
        <time>2025-12-19T10:31:37Z</time>
      </trkpt>
      <trkpt lat="43.69969" lon="1.17341">
        <ele>196.2</ele>
        <time>2025-12-19T10:31:38Z</time>
      </trkpt>
      <trkpt lat="43.69966" lon="1.17341">
        <ele>196.4</ele>
        <time>2025-12-19T10:31:39Z</time>
      </trkpt>
      <trkpt lat="43.69963" lon="1.1734">
        <ele>196.6</ele>
        <time>2025-12-19T10:31:40Z</time>
      </trkpt>
      <trkpt lat="43.6996" lon="1.17339">
        <ele>196.8</ele>
        <time>2025-12-19T10:31:41Z</time>
      </trkpt>
      <trkpt lat="43.69957" lon="1.17338">
        <ele>197.2</ele>
        <time>2025-12-19T10:31:42Z</time>
      </trkpt>
      <trkpt lat="43.69955" lon="1.17338">
        <ele>197.4</ele>
        <time>2025-12-19T10:31:43Z</time>
      </trkpt>
      <trkpt lat="43.69952" lon="1.17337">
        <ele>197.6</ele>
        <time>2025-12-19T10:31:44Z</time>
      </trkpt>
      <trkpt lat="43.69949" lon="1.17337">
        <ele>197.8</ele>
        <time>2025-12-19T10:31:45Z</time>
      </trkpt>
      <trkpt lat="43.69945" lon="1.17337">
        <ele>198</ele>
        <time>2025-12-19T10:31:46Z</time>
      </trkpt>
      <trkpt lat="43.69942" lon="1.17337">
        <ele>198.2</ele>
        <time>2025-12-19T10:31:47Z</time>
      </trkpt>
      <trkpt lat="43.69939" lon="1.17337">
        <ele>198.4</ele>
        <time>2025-12-19T10:31:48Z</time>
      </trkpt>
      <trkpt lat="43.69936" lon="1.17336">
        <ele>198.6</ele>
        <time>2025-12-19T10:31:49Z</time>
      </trkpt>
      <trkpt lat="43.69933" lon="1.17335">
        <ele>198.8</ele>
        <time>2025-12-19T10:31:50Z</time>
      </trkpt>
      <trkpt lat="43.69929" lon="1.17335">
        <ele>199</ele>
        <time>2025-12-19T10:31:51Z</time>
      </trkpt>
      <trkpt lat="43.69926" lon="1.17335">
        <ele>199.2</ele>
        <time>2025-12-19T10:31:52Z</time>
      </trkpt>
      <trkpt lat="43.69923" lon="1.17335">
        <ele>199.4</ele>
        <time>2025-12-19T10:31:53Z</time>
      </trkpt>
      <trkpt lat="43.6992" lon="1.17334">
        <ele>199.8</ele>
        <time>2025-12-19T10:31:54Z</time>
      </trkpt>
      <trkpt lat="43.69917" lon="1.17334">
        <ele>200</ele>
        <time>2025-12-19T10:31:55Z</time>
      </trkpt>
      <trkpt lat="43.69915" lon="1.17333">
        <ele>200.2</ele>
        <time>2025-12-19T10:31:56Z</time>
      </trkpt>
      <trkpt lat="43.69912" lon="1.17332">
        <ele>200.4</ele>
        <time>2025-12-19T10:31:57Z</time>
      </trkpt>
      <trkpt lat="43.69909" lon="1.17332">
        <ele>200.6</ele>
        <time>2025-12-19T10:31:58Z</time>
      </trkpt>
      <trkpt lat="43.69907" lon="1.17332">
        <ele>200.8</ele>
        <time>2025-12-19T10:31:59Z</time>
      </trkpt>
      <trkpt lat="43.69904" lon="1.17331">
        <ele>201</ele>
        <time>2025-12-19T10:32:00Z</time>
      </trkpt>
      <trkpt lat="43.69901" lon="1.1733">
        <ele>201.2</ele>
        <time>2025-12-19T10:32:01Z</time>
      </trkpt>
      <trkpt lat="43.69898" lon="1.17329">
        <ele>201.4</ele>
        <time>2025-12-19T10:32:02Z</time>
      </trkpt>
      <trkpt lat="43.69895" lon="1.17328">
        <ele>201.6</ele>
        <time>2025-12-19T10:32:03Z</time>
      </trkpt>
      <trkpt lat="43.69892" lon="1.17326">
        <ele>201.8</ele>
        <time>2025-12-19T10:32:04Z</time>
      </trkpt>
      <trkpt lat="43.69889" lon="1.17325">
        <ele>202</ele>
        <time>2025-12-19T10:32:05Z</time>
      </trkpt>
      <trkpt lat="43.69886" lon="1.17323">
        <ele>202.2</ele>
        <time>2025-12-19T10:32:06Z</time>
      </trkpt>
      <trkpt lat="43.69884" lon="1.17321">
        <ele>202.4</ele>
        <time>2025-12-19T10:32:07Z</time>
      </trkpt>
      <trkpt lat="43.69881" lon="1.17319">
        <ele>202.8</ele>
        <time>2025-12-19T10:32:08Z</time>
      </trkpt>
      <trkpt lat="43.69879" lon="1.17317">
        <ele>203</ele>
        <time>2025-12-19T10:32:09Z</time>
      </trkpt>
      <trkpt lat="43.69876" lon="1.17316">
        <ele>203.2</ele>
        <time>2025-12-19T10:32:10Z</time>
      </trkpt>
      <trkpt lat="43.69874" lon="1.17313">
        <ele>203.4</ele>
        <time>2025-12-19T10:32:11Z</time>
      </trkpt>
      <trkpt lat="43.69872" lon="1.1731">
        <ele>203.6</ele>
        <time>2025-12-19T10:32:12Z</time>
      </trkpt>
      <trkpt lat="43.69869" lon="1.17308">
        <ele>203.8</ele>
        <time>2025-12-19T10:32:13Z</time>
      </trkpt>
      <trkpt lat="43.69867" lon="1.17305">
        <ele>204</ele>
        <time>2025-12-19T10:32:14Z</time>
      </trkpt>
      <trkpt lat="43.69865" lon="1.17302">
        <ele>204.2</ele>
        <time>2025-12-19T10:32:15Z</time>
      </trkpt>
      <trkpt lat="43.69863" lon="1.17299">
        <ele>204.4</ele>
        <time>2025-12-19T10:32:16Z</time>
      </trkpt>
      <trkpt lat="43.69861" lon="1.17296">
        <ele>204.6</ele>
        <time>2025-12-19T10:32:17Z</time>
      </trkpt>
      <trkpt lat="43.69859" lon="1.17293">
        <ele>204.8</ele>
        <time>2025-12-19T10:32:18Z</time>
      </trkpt>
      <trkpt lat="43.69857" lon="1.17289">
        <ele>205</ele>
        <time>2025-12-19T10:32:19Z</time>
      </trkpt>
      <trkpt lat="43.69855" lon="1.17286">
        <ele>205.2</ele>
        <time>2025-12-19T10:32:20Z</time>
      </trkpt>
      <trkpt lat="43.69853" lon="1.17283">
        <ele>205.4</ele>
        <time>2025-12-19T10:32:21Z</time>
      </trkpt>
      <trkpt lat="43.69851" lon="1.17279">
        <ele>205.6</ele>
        <time>2025-12-19T10:32:22Z</time>
      </trkpt>
      <trkpt lat="43.69849" lon="1.17276">
        <ele>205.8</ele>
        <time>2025-12-19T10:32:23Z</time>
      </trkpt>
      <trkpt lat="43.69847" lon="1.17272">
        <ele>206</ele>
        <time>2025-12-19T10:32:24Z</time>
      </trkpt>
      <trkpt lat="43.69845" lon="1.17269">
        <ele>206.2</ele>
        <time>2025-12-19T10:32:25Z</time>
      </trkpt>
      <trkpt lat="43.69843" lon="1.17265">
        <ele>206.4</ele>
        <time>2025-12-19T10:32:26Z</time>
      </trkpt>
      <trkpt lat="43.69842" lon="1.17262">
        <ele>206.6</ele>
        <time>2025-12-19T10:32:27Z</time>
      </trkpt>
      <trkpt lat="43.6984" lon="1.17258">
        <ele>206.8</ele>
        <time>2025-12-19T10:32:28Z</time>
      </trkpt>
      <trkpt lat="43.69838" lon="1.17254">
        <ele>207</ele>
        <time>2025-12-19T10:32:29Z</time>
      </trkpt>
      <trkpt lat="43.69836" lon="1.1725">
        <ele>207.4</ele>
        <time>2025-12-19T10:32:30Z</time>
      </trkpt>
      <trkpt lat="43.69834" lon="1.17247">
        <ele>207.4</ele>
        <time>2025-12-19T10:32:31Z</time>
      </trkpt>
      <trkpt lat="43.69832" lon="1.17243">
        <ele>207.6</ele>
        <time>2025-12-19T10:32:32Z</time>
      </trkpt>
      <trkpt lat="43.6983" lon="1.17239">
        <ele>207.8</ele>
        <time>2025-12-19T10:32:33Z</time>
      </trkpt>
      <trkpt lat="43.69829" lon="1.17236">
        <ele>208</ele>
        <time>2025-12-19T10:32:34Z</time>
      </trkpt>
      <trkpt lat="43.69827" lon="1.17233">
        <ele>208.2</ele>
        <time>2025-12-19T10:32:35Z</time>
      </trkpt>
      <trkpt lat="43.69825" lon="1.17229">
        <ele>208.4</ele>
        <time>2025-12-19T10:32:36Z</time>
      </trkpt>
      <trkpt lat="43.69823" lon="1.17225">
        <ele>208.6</ele>
        <time>2025-12-19T10:32:37Z</time>
      </trkpt>
      <trkpt lat="43.69822" lon="1.17222">
        <ele>208.8</ele>
        <time>2025-12-19T10:32:38Z</time>
      </trkpt>
      <trkpt lat="43.6982" lon="1.17218">
        <ele>209</ele>
        <time>2025-12-19T10:32:39Z</time>
      </trkpt>
      <trkpt lat="43.69818" lon="1.17215">
        <ele>209.2</ele>
        <time>2025-12-19T10:32:40Z</time>
      </trkpt>
      <trkpt lat="43.69815" lon="1.17211">
        <ele>209.4</ele>
        <time>2025-12-19T10:32:41Z</time>
      </trkpt>
      <trkpt lat="43.69813" lon="1.17208">
        <ele>209.6</ele>
        <time>2025-12-19T10:32:42Z</time>
      </trkpt>
      <trkpt lat="43.69811" lon="1.17204">
        <ele>209.8</ele>
        <time>2025-12-19T10:32:43Z</time>
      </trkpt>
      <trkpt lat="43.69808" lon="1.17201">
        <ele>209.8</ele>
        <time>2025-12-19T10:32:44Z</time>
      </trkpt>
      <trkpt lat="43.69806" lon="1.17197">
        <ele>210</ele>
        <time>2025-12-19T10:32:45Z</time>
      </trkpt>
      <trkpt lat="43.69803" lon="1.17194">
        <ele>210.2</ele>
        <time>2025-12-19T10:32:46Z</time>
      </trkpt>
      <trkpt lat="43.69801" lon="1.1719">
        <ele>210.2</ele>
        <time>2025-12-19T10:32:47Z</time>
      </trkpt>
      <trkpt lat="43.69798" lon="1.17187">
        <ele>210.4</ele>
        <time>2025-12-19T10:32:48Z</time>
      </trkpt>
      <trkpt lat="43.69795" lon="1.17184">
        <ele>210.4</ele>
        <time>2025-12-19T10:32:49Z</time>
      </trkpt>
      <trkpt lat="43.69792" lon="1.17181">
        <ele>210.6</ele>
        <time>2025-12-19T10:32:50Z</time>
      </trkpt>
      <trkpt lat="43.69789" lon="1.17178">
        <ele>210.6</ele>
        <time>2025-12-19T10:32:51Z</time>
      </trkpt>
      <trkpt lat="43.69786" lon="1.17174">
        <ele>210.8</ele>
        <time>2025-12-19T10:32:52Z</time>
      </trkpt>
      <trkpt lat="43.69783" lon="1.1717">
        <ele>211</ele>
        <time>2025-12-19T10:32:53Z</time>
      </trkpt>
      <trkpt lat="43.6978" lon="1.17168">
        <ele>211</ele>
        <time>2025-12-19T10:32:54Z</time>
      </trkpt>
      <trkpt lat="43.69777" lon="1.17165">
        <ele>211</ele>
        <time>2025-12-19T10:32:55Z</time>
      </trkpt>
      <trkpt lat="43.69774" lon="1.17162">
        <ele>211</ele>
        <time>2025-12-19T10:32:56Z</time>
      </trkpt>
      <trkpt lat="43.69771" lon="1.17159">
        <ele>211.2</ele>
        <time>2025-12-19T10:32:57Z</time>
      </trkpt>
      <trkpt lat="43.69767" lon="1.17155">
        <ele>211.2</ele>
        <time>2025-12-19T10:32:58Z</time>
      </trkpt>
      <trkpt lat="43.69763" lon="1.17152">
        <ele>211.4</ele>
        <time>2025-12-19T10:32:59Z</time>
      </trkpt>
      <trkpt lat="43.6976" lon="1.17149">
        <ele>211.4</ele>
        <time>2025-12-19T10:33:00Z</time>
      </trkpt>
      <trkpt lat="43.69755" lon="1.17145">
        <ele>211.4</ele>
        <time>2025-12-19T10:33:01Z</time>
      </trkpt>
      <trkpt lat="43.69751" lon="1.17142">
        <ele>211.4</ele>
        <time>2025-12-19T10:33:02Z</time>
      </trkpt>
      <trkpt lat="43.69747" lon="1.17139">
        <ele>211.4</ele>
        <time>2025-12-19T10:33:03Z</time>
      </trkpt>
      <trkpt lat="43.69742" lon="1.17136">
        <ele>211.6</ele>
        <time>2025-12-19T10:33:04Z</time>
      </trkpt>
      <trkpt lat="43.69738" lon="1.17132">
        <ele>211.6</ele>
        <time>2025-12-19T10:33:05Z</time>
      </trkpt>
      <trkpt lat="43.69734" lon="1.17129">
        <ele>211.6</ele>
        <time>2025-12-19T10:33:06Z</time>
      </trkpt>
      <trkpt lat="43.69729" lon="1.17126">
        <ele>211.6</ele>
        <time>2025-12-19T10:33:07Z</time>
      </trkpt>
      <trkpt lat="43.69723" lon="1.17123">
        <ele>211.6</ele>
        <time>2025-12-19T10:33:08Z</time>
      </trkpt>
      <trkpt lat="43.69718" lon="1.1712">
        <ele>211.6</ele>
        <time>2025-12-19T10:33:09Z</time>
      </trkpt>
      <trkpt lat="43.69713" lon="1.17118">
        <ele>211.6</ele>
        <time>2025-12-19T10:33:10Z</time>
      </trkpt>
      <trkpt lat="43.69708" lon="1.17116">
        <ele>211.6</ele>
        <time>2025-12-19T10:33:11Z</time>
      </trkpt>
      <trkpt lat="43.69703" lon="1.17114">
        <ele>211.6</ele>
        <time>2025-12-19T10:33:12Z</time>
      </trkpt>
      <trkpt lat="43.69698" lon="1.17112">
        <ele>211.6</ele>
        <time>2025-12-19T10:33:13Z</time>
      </trkpt>
      <trkpt lat="43.69693" lon="1.1711">
        <ele>211.8</ele>
        <time>2025-12-19T10:33:14Z</time>
      </trkpt>
      <trkpt lat="43.69687" lon="1.17108">
        <ele>211.8</ele>
        <time>2025-12-19T10:33:15Z</time>
      </trkpt>
      <trkpt lat="43.6968" lon="1.17107">
        <ele>211.6</ele>
        <time>2025-12-19T10:33:16Z</time>
      </trkpt>
      <trkpt lat="43.69675" lon="1.17106">
        <ele>211.6</ele>
        <time>2025-12-19T10:33:17Z</time>
      </trkpt>
      <trkpt lat="43.69669" lon="1.17106">
        <ele>211.6</ele>
        <time>2025-12-19T10:33:18Z</time>
      </trkpt>
      <trkpt lat="43.69663" lon="1.17105">
        <ele>211.6</ele>
        <time>2025-12-19T10:33:19Z</time>
      </trkpt>
      <trkpt lat="43.69657" lon="1.17104">
        <ele>211.6</ele>
        <time>2025-12-19T10:33:20Z</time>
      </trkpt>
      <trkpt lat="43.69651" lon="1.17104">
        <ele>211.6</ele>
        <time>2025-12-19T10:33:21Z</time>
      </trkpt>
      <trkpt lat="43.69644" lon="1.17104">
        <ele>211.6</ele>
        <time>2025-12-19T10:33:22Z</time>
      </trkpt>
      <trkpt lat="43.69637" lon="1.17104">
        <ele>211.6</ele>
        <time>2025-12-19T10:33:23Z</time>
      </trkpt>
      <trkpt lat="43.69631" lon="1.17104">
        <ele>211.4</ele>
        <time>2025-12-19T10:33:24Z</time>
      </trkpt>
      <trkpt lat="43.69624" lon="1.17104">
        <ele>211.4</ele>
        <time>2025-12-19T10:33:25Z</time>
      </trkpt>
      <trkpt lat="43.69617" lon="1.17104">
        <ele>211.4</ele>
        <time>2025-12-19T10:33:26Z</time>
      </trkpt>
      <trkpt lat="43.69611" lon="1.17104">
        <ele>211.4</ele>
        <time>2025-12-19T10:33:27Z</time>
      </trkpt>
      <trkpt lat="43.69598" lon="1.17106">
        <ele>211.4</ele>
        <time>2025-12-19T10:33:29Z</time>
      </trkpt>
      <trkpt lat="43.69592" lon="1.17108">
        <ele>211.4</ele>
        <time>2025-12-19T10:33:30Z</time>
      </trkpt>
      <trkpt lat="43.69586" lon="1.17109">
        <ele>211.2</ele>
        <time>2025-12-19T10:33:31Z</time>
      </trkpt>
      <trkpt lat="43.69579" lon="1.17111">
        <ele>211.2</ele>
        <time>2025-12-19T10:33:32Z</time>
      </trkpt>
      <trkpt lat="43.69573" lon="1.17112">
        <ele>211.2</ele>
        <time>2025-12-19T10:33:33Z</time>
      </trkpt>
      <trkpt lat="43.69567" lon="1.17114">
        <ele>211</ele>
        <time>2025-12-19T10:33:34Z</time>
      </trkpt>
      <trkpt lat="43.69561" lon="1.17115">
        <ele>211</ele>
        <time>2025-12-19T10:33:35Z</time>
      </trkpt>
      <trkpt lat="43.69555" lon="1.17117">
        <ele>210.8</ele>
        <time>2025-12-19T10:33:36Z</time>
      </trkpt>
      <trkpt lat="43.69549" lon="1.17118">
        <ele>210.8</ele>
        <time>2025-12-19T10:33:37Z</time>
      </trkpt>
      <trkpt lat="43.69542" lon="1.17119">
        <ele>210.6</ele>
        <time>2025-12-19T10:33:38Z</time>
      </trkpt>
      <trkpt lat="43.69536" lon="1.17121">
        <ele>210.4</ele>
        <time>2025-12-19T10:33:39Z</time>
      </trkpt>
      <trkpt lat="43.69529" lon="1.17122">
        <ele>210.2</ele>
        <time>2025-12-19T10:33:40Z</time>
      </trkpt>
      <trkpt lat="43.69522" lon="1.17123">
        <ele>210.2</ele>
        <time>2025-12-19T10:33:41Z</time>
      </trkpt>
      <trkpt lat="43.69515" lon="1.17124">
        <ele>210</ele>
        <time>2025-12-19T10:33:42Z</time>
      </trkpt>
      <trkpt lat="43.69508" lon="1.17124">
        <ele>209.8</ele>
        <time>2025-12-19T10:33:43Z</time>
      </trkpt>
      <trkpt lat="43.695" lon="1.17122">
        <ele>209.6</ele>
        <time>2025-12-19T10:33:44Z</time>
      </trkpt>
      <trkpt lat="43.69493" lon="1.1712">
        <ele>209.4</ele>
        <time>2025-12-19T10:33:45Z</time>
      </trkpt>
      <trkpt lat="43.69486" lon="1.17118">
        <ele>209.2</ele>
        <time>2025-12-19T10:33:46Z</time>
      </trkpt>
      <trkpt lat="43.69479" lon="1.17115">
        <ele>209.2</ele>
        <time>2025-12-19T10:33:47Z</time>
      </trkpt>
      <trkpt lat="43.69472" lon="1.17112">
        <ele>209</ele>
        <time>2025-12-19T10:33:48Z</time>
      </trkpt>
      <trkpt lat="43.69465" lon="1.17109">
        <ele>209</ele>
        <time>2025-12-19T10:33:49Z</time>
      </trkpt>
      <trkpt lat="43.69458" lon="1.17106">
        <ele>209</ele>
        <time>2025-12-19T10:33:50Z</time>
      </trkpt>
      <trkpt lat="43.69451" lon="1.17104">
        <ele>209.2</ele>
        <time>2025-12-19T10:33:51Z</time>
      </trkpt>
      <trkpt lat="43.69444" lon="1.17102">
        <ele>209.2</ele>
        <time>2025-12-19T10:33:52Z</time>
      </trkpt>
      <trkpt lat="43.69437" lon="1.17101">
        <ele>209.2</ele>
        <time>2025-12-19T10:33:53Z</time>
      </trkpt>
      <trkpt lat="43.6943" lon="1.171">
        <ele>209.2</ele>
        <time>2025-12-19T10:33:54Z</time>
      </trkpt>
      <trkpt lat="43.69423" lon="1.171">
        <ele>209.4</ele>
        <time>2025-12-19T10:33:55Z</time>
      </trkpt>
      <trkpt lat="43.69416" lon="1.17099">
        <ele>209.4</ele>
        <time>2025-12-19T10:33:56Z</time>
      </trkpt>
      <trkpt lat="43.69409" lon="1.17098">
        <ele>209.4</ele>
        <time>2025-12-19T10:33:57Z</time>
      </trkpt>
      <trkpt lat="43.69402" lon="1.17098">
        <ele>209.4</ele>
        <time>2025-12-19T10:33:58Z</time>
      </trkpt>
      <trkpt lat="43.69395" lon="1.17098">
        <ele>209.4</ele>
        <time>2025-12-19T10:33:59Z</time>
      </trkpt>
      <trkpt lat="43.69388" lon="1.17097">
        <ele>209.4</ele>
        <time>2025-12-19T10:34:00Z</time>
      </trkpt>
      <trkpt lat="43.6938" lon="1.17097">
        <ele>209.4</ele>
        <time>2025-12-19T10:34:01Z</time>
      </trkpt>
      <trkpt lat="43.69373" lon="1.17096">
        <ele>209.4</ele>
        <time>2025-12-19T10:34:02Z</time>
      </trkpt>
      <trkpt lat="43.69366" lon="1.17096">
        <ele>209.4</ele>
        <time>2025-12-19T10:34:03Z</time>
      </trkpt>
      <trkpt lat="43.69359" lon="1.17095">
        <ele>209.4</ele>
        <time>2025-12-19T10:34:04Z</time>
      </trkpt>
      <trkpt lat="43.69352" lon="1.17095">
        <ele>209.4</ele>
        <time>2025-12-19T10:34:05Z</time>
      </trkpt>
      <trkpt lat="43.69345" lon="1.17094">
        <ele>209.6</ele>
        <time>2025-12-19T10:34:06Z</time>
      </trkpt>
      <trkpt lat="43.69337" lon="1.17094">
        <ele>209.6</ele>
        <time>2025-12-19T10:34:07Z</time>
      </trkpt>
      <trkpt lat="43.6933" lon="1.17094">
        <ele>209.6</ele>
        <time>2025-12-19T10:34:08Z</time>
      </trkpt>
      <trkpt lat="43.69323" lon="1.17093">
        <ele>209.8</ele>
        <time>2025-12-19T10:34:09Z</time>
      </trkpt>
      <trkpt lat="43.69316" lon="1.17092">
        <ele>209.8</ele>
        <time>2025-12-19T10:34:10Z</time>
      </trkpt>
      <trkpt lat="43.69309" lon="1.17092">
        <ele>210</ele>
        <time>2025-12-19T10:34:11Z</time>
      </trkpt>
      <trkpt lat="43.69301" lon="1.17092">
        <ele>210</ele>
        <time>2025-12-19T10:34:12Z</time>
      </trkpt>
      <trkpt lat="43.69294" lon="1.17093">
        <ele>210</ele>
        <time>2025-12-19T10:34:13Z</time>
      </trkpt>
      <trkpt lat="43.69287" lon="1.17094">
        <ele>210</ele>
        <time>2025-12-19T10:34:14Z</time>
      </trkpt>
      <trkpt lat="43.6928" lon="1.17096">
        <ele>210.2</ele>
        <time>2025-12-19T10:34:15Z</time>
      </trkpt>
      <trkpt lat="43.69272" lon="1.17098">
        <ele>210.2</ele>
        <time>2025-12-19T10:34:16Z</time>
      </trkpt>
      <trkpt lat="43.69265" lon="1.171">
        <ele>210.2</ele>
        <time>2025-12-19T10:34:17Z</time>
      </trkpt>
      <trkpt lat="43.69258" lon="1.17101">
        <ele>210.2</ele>
        <time>2025-12-19T10:34:18Z</time>
      </trkpt>
      <trkpt lat="43.6925" lon="1.17102">
        <ele>210.4</ele>
        <time>2025-12-19T10:34:19Z</time>
      </trkpt>
      <trkpt lat="43.69243" lon="1.17101">
        <ele>210.4</ele>
        <time>2025-12-19T10:34:20Z</time>
      </trkpt>
      <trkpt lat="43.69235" lon="1.171">
        <ele>210.2</ele>
        <time>2025-12-19T10:34:21Z</time>
      </trkpt>
      <trkpt lat="43.69228" lon="1.17097">
        <ele>210.4</ele>
        <time>2025-12-19T10:34:22Z</time>
      </trkpt>
      <trkpt lat="43.69221" lon="1.17094">
        <ele>210.4</ele>
        <time>2025-12-19T10:34:23Z</time>
      </trkpt>
      <trkpt lat="43.69214" lon="1.17091">
        <ele>210.4</ele>
        <time>2025-12-19T10:34:24Z</time>
      </trkpt>
      <trkpt lat="43.69207" lon="1.17087">
        <ele>210.4</ele>
        <time>2025-12-19T10:34:25Z</time>
      </trkpt>
      <trkpt lat="43.69201" lon="1.17084">
        <ele>210.4</ele>
        <time>2025-12-19T10:34:26Z</time>
      </trkpt>
      <trkpt lat="43.69194" lon="1.1708">
        <ele>210.4</ele>
        <time>2025-12-19T10:34:27Z</time>
      </trkpt>
      <trkpt lat="43.69188" lon="1.17077">
        <ele>210.6</ele>
        <time>2025-12-19T10:34:28Z</time>
      </trkpt>
      <trkpt lat="43.69181" lon="1.17073">
        <ele>210.6</ele>
        <time>2025-12-19T10:34:29Z</time>
      </trkpt>
      <trkpt lat="43.69175" lon="1.1707">
        <ele>210.6</ele>
        <time>2025-12-19T10:34:30Z</time>
      </trkpt>
      <trkpt lat="43.69169" lon="1.17067">
        <ele>210.8</ele>
        <time>2025-12-19T10:34:31Z</time>
      </trkpt>
      <trkpt lat="43.69162" lon="1.17064">
        <ele>210.8</ele>
        <time>2025-12-19T10:34:32Z</time>
      </trkpt>
      <trkpt lat="43.69156" lon="1.17061">
        <ele>210.8</ele>
        <time>2025-12-19T10:34:33Z</time>
      </trkpt>
      <trkpt lat="43.69149" lon="1.17058">
        <ele>211</ele>
        <time>2025-12-19T10:34:34Z</time>
      </trkpt>
      <trkpt lat="43.69143" lon="1.17055">
        <ele>211</ele>
        <time>2025-12-19T10:34:35Z</time>
      </trkpt>
      <trkpt lat="43.69137" lon="1.17052">
        <ele>211.2</ele>
        <time>2025-12-19T10:34:36Z</time>
      </trkpt>
      <trkpt lat="43.69131" lon="1.1705">
        <ele>211.4</ele>
        <time>2025-12-19T10:34:37Z</time>
      </trkpt>
      <trkpt lat="43.69124" lon="1.17049">
        <ele>211.6</ele>
        <time>2025-12-19T10:34:38Z</time>
      </trkpt>
      <trkpt lat="43.69118" lon="1.17048">
        <ele>211.6</ele>
        <time>2025-12-19T10:34:39Z</time>
      </trkpt>
      <trkpt lat="43.69112" lon="1.17046">
        <ele>211.8</ele>
        <time>2025-12-19T10:34:40Z</time>
      </trkpt>
      <trkpt lat="43.69106" lon="1.17046">
        <ele>212</ele>
        <time>2025-12-19T10:34:41Z</time>
      </trkpt>
      <trkpt lat="43.691" lon="1.17045">
        <ele>212.2</ele>
        <time>2025-12-19T10:34:42Z</time>
      </trkpt>
      <trkpt lat="43.69094" lon="1.17045">
        <ele>212.4</ele>
        <time>2025-12-19T10:34:43Z</time>
      </trkpt>
      <trkpt lat="43.69089" lon="1.17046">
        <ele>212.6</ele>
        <time>2025-12-19T10:34:44Z</time>
      </trkpt>
      <trkpt lat="43.69083" lon="1.17047">
        <ele>212.8</ele>
        <time>2025-12-19T10:34:45Z</time>
      </trkpt>
      <trkpt lat="43.69078" lon="1.17047">
        <ele>213</ele>
        <time>2025-12-19T10:34:46Z</time>
      </trkpt>
      <trkpt lat="43.69073" lon="1.17048">
        <ele>213.2</ele>
        <time>2025-12-19T10:34:47Z</time>
      </trkpt>
      <trkpt lat="43.69067" lon="1.17049">
        <ele>213.4</ele>
        <time>2025-12-19T10:34:48Z</time>
      </trkpt>
      <trkpt lat="43.69062" lon="1.17051">
        <ele>213.6</ele>
        <time>2025-12-19T10:34:49Z</time>
      </trkpt>
      <trkpt lat="43.69057" lon="1.17051">
        <ele>213.8</ele>
        <time>2025-12-19T10:34:50Z</time>
      </trkpt>
      <trkpt lat="43.69051" lon="1.17052">
        <ele>214</ele>
        <time>2025-12-19T10:34:51Z</time>
      </trkpt>
      <trkpt lat="43.69046" lon="1.17053">
        <ele>214</ele>
        <time>2025-12-19T10:34:52Z</time>
      </trkpt>
      <trkpt lat="43.6904" lon="1.17053">
        <ele>214.2</ele>
        <time>2025-12-19T10:34:53Z</time>
      </trkpt>
      <trkpt lat="43.69035" lon="1.17054">
        <ele>214.6</ele>
        <time>2025-12-19T10:34:54Z</time>
      </trkpt>
      <trkpt lat="43.69029" lon="1.17054">
        <ele>214.8</ele>
        <time>2025-12-19T10:34:55Z</time>
      </trkpt>
      <trkpt lat="43.69024" lon="1.17055">
        <ele>215</ele>
        <time>2025-12-19T10:34:56Z</time>
      </trkpt>
      <trkpt lat="43.69019" lon="1.17055">
        <ele>215.2</ele>
        <time>2025-12-19T10:34:57Z</time>
      </trkpt>
      <trkpt lat="43.69014" lon="1.17056">
        <ele>215.4</ele>
        <time>2025-12-19T10:34:58Z</time>
      </trkpt>
      <trkpt lat="43.69009" lon="1.17057">
        <ele>215.6</ele>
        <time>2025-12-19T10:34:59Z</time>
      </trkpt>
      <trkpt lat="43.69004" lon="1.17057">
        <ele>215.8</ele>
        <time>2025-12-19T10:35:00Z</time>
      </trkpt>
      <trkpt lat="43.68998" lon="1.17058">
        <ele>216</ele>
        <time>2025-12-19T10:35:01Z</time>
      </trkpt>
      <trkpt lat="43.68993" lon="1.17059">
        <ele>216.2</ele>
        <time>2025-12-19T10:35:02Z</time>
      </trkpt>
      <trkpt lat="43.68988" lon="1.1706">
        <ele>216.2</ele>
        <time>2025-12-19T10:35:03Z</time>
      </trkpt>
      <trkpt lat="43.68982" lon="1.17061">
        <ele>216.4</ele>
        <time>2025-12-19T10:35:04Z</time>
      </trkpt>
      <trkpt lat="43.68977" lon="1.17061">
        <ele>216.4</ele>
        <time>2025-12-19T10:35:05Z</time>
      </trkpt>
      <trkpt lat="43.68972" lon="1.17062">
        <ele>216.6</ele>
        <time>2025-12-19T10:35:06Z</time>
      </trkpt>
      <trkpt lat="43.68968" lon="1.17062">
        <ele>216.6</ele>
        <time>2025-12-19T10:35:07Z</time>
      </trkpt>
      <trkpt lat="43.68964" lon="1.17063">
        <ele>216.6</ele>
        <time>2025-12-19T10:35:08Z</time>
      </trkpt>
      <trkpt lat="43.6896" lon="1.17064">
        <ele>216.6</ele>
        <time>2025-12-19T10:35:09Z</time>
      </trkpt>
      <trkpt lat="43.68956" lon="1.17065">
        <ele>216.8</ele>
        <time>2025-12-19T10:35:10Z</time>
      </trkpt>
      <trkpt lat="43.68953" lon="1.17065">
        <ele>217</ele>
        <time>2025-12-19T10:35:11Z</time>
      </trkpt>
      <trkpt lat="43.68949" lon="1.17066">
        <ele>217.2</ele>
        <time>2025-12-19T10:35:12Z</time>
      </trkpt>
      <trkpt lat="43.68947" lon="1.17065">
        <ele>217</ele>
        <time>2025-12-19T10:35:13Z</time>
      </trkpt>
      <trkpt lat="43.68945" lon="1.17065">
        <ele>217</ele>
        <time>2025-12-19T10:35:14Z</time>
      </trkpt>
      <trkpt lat="43.68943" lon="1.17065">
        <ele>217</ele>
        <time>2025-12-19T10:35:15Z</time>
      </trkpt>
      <trkpt lat="43.68943" lon="1.17066">
        <ele>216.8</ele>
        <time>2025-12-19T10:35:16Z</time>
      </trkpt>
      <trkpt lat="43.68943" lon="1.17066">
        <ele>216.8</ele>
        <time>2025-12-19T10:35:17Z</time>
      </trkpt>
      <trkpt lat="43.68939" lon="1.17067">
        <ele>216.6</ele>
        <time>2025-12-19T10:35:50Z</time>
      </trkpt>
      <trkpt lat="43.68936" lon="1.17067">
        <ele>216.6</ele>
        <time>2025-12-19T10:35:51Z</time>
      </trkpt>
      <trkpt lat="43.68934" lon="1.17067">
        <ele>216.6</ele>
        <time>2025-12-19T10:35:52Z</time>
      </trkpt>
      <trkpt lat="43.6893" lon="1.17068">
        <ele>216.4</ele>
        <time>2025-12-19T10:35:53Z</time>
      </trkpt>
      <trkpt lat="43.68926" lon="1.17068">
        <ele>216.4</ele>
        <time>2025-12-19T10:35:54Z</time>
      </trkpt>
      <trkpt lat="43.68922" lon="1.17068">
        <ele>216.2</ele>
        <time>2025-12-19T10:35:55Z</time>
      </trkpt>
      <trkpt lat="43.68918" lon="1.17069">
        <ele>216.2</ele>
        <time>2025-12-19T10:35:56Z</time>
      </trkpt>
      <trkpt lat="43.68914" lon="1.17069">
        <ele>216.2</ele>
        <time>2025-12-19T10:35:57Z</time>
      </trkpt>
      <trkpt lat="43.68909" lon="1.1707">
        <ele>216</ele>
        <time>2025-12-19T10:35:58Z</time>
      </trkpt>
      <trkpt lat="43.68904" lon="1.17071">
        <ele>215.8</ele>
        <time>2025-12-19T10:35:59Z</time>
      </trkpt>
      <trkpt lat="43.68899" lon="1.17072">
        <ele>215.8</ele>
        <time>2025-12-19T10:36:00Z</time>
      </trkpt>
      <trkpt lat="43.68895" lon="1.17072">
        <ele>215.8</ele>
        <time>2025-12-19T10:36:01Z</time>
      </trkpt>
      <trkpt lat="43.6889" lon="1.17073">
        <ele>215.8</ele>
        <time>2025-12-19T10:36:02Z</time>
      </trkpt>
      <trkpt lat="43.68885" lon="1.17074">
        <ele>215.6</ele>
        <time>2025-12-19T10:36:03Z</time>
      </trkpt>
      <trkpt lat="43.6888" lon="1.17075">
        <ele>215.6</ele>
        <time>2025-12-19T10:36:04Z</time>
      </trkpt>
      <trkpt lat="43.68875" lon="1.17076">
        <ele>215.4</ele>
        <time>2025-12-19T10:36:05Z</time>
      </trkpt>
      <trkpt lat="43.68869" lon="1.17077">
        <ele>215.4</ele>
        <time>2025-12-19T10:36:06Z</time>
      </trkpt>
      <trkpt lat="43.68864" lon="1.17078">
        <ele>215.4</ele>
        <time>2025-12-19T10:36:07Z</time>
      </trkpt>
      <trkpt lat="43.68858" lon="1.17079">
        <ele>215.4</ele>
        <time>2025-12-19T10:36:08Z</time>
      </trkpt>
      <trkpt lat="43.68853" lon="1.1708">
        <ele>215.4</ele>
        <time>2025-12-19T10:36:09Z</time>
      </trkpt>
      <trkpt lat="43.68847" lon="1.17081">
        <ele>215.4</ele>
        <time>2025-12-19T10:36:10Z</time>
      </trkpt>
      <trkpt lat="43.68841" lon="1.17082">
        <ele>215.4</ele>
        <time>2025-12-19T10:36:11Z</time>
      </trkpt>
      <trkpt lat="43.68836" lon="1.17083">
        <ele>215.6</ele>
        <time>2025-12-19T10:36:12Z</time>
      </trkpt>
      <trkpt lat="43.6883" lon="1.17085">
        <ele>215.6</ele>
        <time>2025-12-19T10:36:13Z</time>
      </trkpt>
      <trkpt lat="43.68824" lon="1.17086">
        <ele>215.8</ele>
        <time>2025-12-19T10:36:14Z</time>
      </trkpt>
      <trkpt lat="43.68819" lon="1.17087">
        <ele>216</ele>
        <time>2025-12-19T10:36:15Z</time>
      </trkpt>
      <trkpt lat="43.68813" lon="1.17089">
        <ele>216.2</ele>
        <time>2025-12-19T10:36:16Z</time>
      </trkpt>
      <trkpt lat="43.68808" lon="1.17089">
        <ele>216.4</ele>
        <time>2025-12-19T10:36:17Z</time>
      </trkpt>
      <trkpt lat="43.68802" lon="1.17091">
        <ele>216.4</ele>
        <time>2025-12-19T10:36:18Z</time>
      </trkpt>
      <trkpt lat="43.68797" lon="1.17092">
        <ele>216.6</ele>
        <time>2025-12-19T10:36:19Z</time>
      </trkpt>
      <trkpt lat="43.68792" lon="1.17093">
        <ele>216.8</ele>
        <time>2025-12-19T10:36:20Z</time>
      </trkpt>
      <trkpt lat="43.68787" lon="1.17095">
        <ele>217</ele>
        <time>2025-12-19T10:36:21Z</time>
      </trkpt>
      <trkpt lat="43.68781" lon="1.17096">
        <ele>217.2</ele>
        <time>2025-12-19T10:36:22Z</time>
      </trkpt>
      <trkpt lat="43.68776" lon="1.17098">
        <ele>217.4</ele>
        <time>2025-12-19T10:36:23Z</time>
      </trkpt>
      <trkpt lat="43.68771" lon="1.171">
        <ele>217.6</ele>
        <time>2025-12-19T10:36:24Z</time>
      </trkpt>
      <trkpt lat="43.68766" lon="1.17101">
        <ele>217.8</ele>
        <time>2025-12-19T10:36:25Z</time>
      </trkpt>
      <trkpt lat="43.68761" lon="1.17102">
        <ele>218</ele>
        <time>2025-12-19T10:36:26Z</time>
      </trkpt>
      <trkpt lat="43.68756" lon="1.17104">
        <ele>218.2</ele>
        <time>2025-12-19T10:36:27Z</time>
      </trkpt>
      <trkpt lat="43.68751" lon="1.17104">
        <ele>218.4</ele>
        <time>2025-12-19T10:36:28Z</time>
      </trkpt>
      <trkpt lat="43.68746" lon="1.17106">
        <ele>218.6</ele>
        <time>2025-12-19T10:36:29Z</time>
      </trkpt>
      <trkpt lat="43.6874" lon="1.17108">
        <ele>218.8</ele>
        <time>2025-12-19T10:36:30Z</time>
      </trkpt>
      <trkpt lat="43.68735" lon="1.1711">
        <ele>219</ele>
        <time>2025-12-19T10:36:31Z</time>
      </trkpt>
      <trkpt lat="43.68729" lon="1.17111">
        <ele>219.2</ele>
        <time>2025-12-19T10:36:32Z</time>
      </trkpt>
      <trkpt lat="43.68724" lon="1.17114">
        <ele>219.4</ele>
        <time>2025-12-19T10:36:33Z</time>
      </trkpt>
      <trkpt lat="43.68719" lon="1.17116">
        <ele>219.4</ele>
        <time>2025-12-19T10:36:34Z</time>
      </trkpt>
      <trkpt lat="43.68714" lon="1.17117">
        <ele>219.6</ele>
        <time>2025-12-19T10:36:35Z</time>
      </trkpt>
      <trkpt lat="43.68709" lon="1.17119">
        <ele>219.8</ele>
        <time>2025-12-19T10:36:36Z</time>
      </trkpt>
      <trkpt lat="43.68704" lon="1.1712">
        <ele>220</ele>
        <time>2025-12-19T10:36:37Z</time>
      </trkpt>
      <trkpt lat="43.68698" lon="1.17122">
        <ele>220.2</ele>
        <time>2025-12-19T10:36:38Z</time>
      </trkpt>
      <trkpt lat="43.68693" lon="1.17123">
        <ele>220.4</ele>
        <time>2025-12-19T10:36:39Z</time>
      </trkpt>
      <trkpt lat="43.68689" lon="1.17125">
        <ele>220.6</ele>
        <time>2025-12-19T10:36:40Z</time>
      </trkpt>
      <trkpt lat="43.68683" lon="1.17126">
        <ele>220.6</ele>
        <time>2025-12-19T10:36:41Z</time>
      </trkpt>
      <trkpt lat="43.68678" lon="1.17127">
        <ele>220.8</ele>
        <time>2025-12-19T10:36:42Z</time>
      </trkpt>
      <trkpt lat="43.68673" lon="1.17129">
        <ele>221</ele>
        <time>2025-12-19T10:36:43Z</time>
      </trkpt>
      <trkpt lat="43.68668" lon="1.1713">
        <ele>221.2</ele>
        <time>2025-12-19T10:36:44Z</time>
      </trkpt>
      <trkpt lat="43.68663" lon="1.1713">
        <ele>221.4</ele>
        <time>2025-12-19T10:36:45Z</time>
      </trkpt>
      <trkpt lat="43.68658" lon="1.17131">
        <ele>221.4</ele>
        <time>2025-12-19T10:36:46Z</time>
      </trkpt>
      <trkpt lat="43.68652" lon="1.17131">
        <ele>221.6</ele>
        <time>2025-12-19T10:36:47Z</time>
      </trkpt>
      <trkpt lat="43.68647" lon="1.17131">
        <ele>221.8</ele>
        <time>2025-12-19T10:36:48Z</time>
      </trkpt>
      <trkpt lat="43.68642" lon="1.17132">
        <ele>222</ele>
        <time>2025-12-19T10:36:49Z</time>
      </trkpt>
      <trkpt lat="43.68636" lon="1.17131">
        <ele>222</ele>
        <time>2025-12-19T10:36:50Z</time>
      </trkpt>
      <trkpt lat="43.68631" lon="1.17131">
        <ele>222.2</ele>
        <time>2025-12-19T10:36:51Z</time>
      </trkpt>
      <trkpt lat="43.68626" lon="1.1713">
        <ele>222.4</ele>
        <time>2025-12-19T10:36:52Z</time>
      </trkpt>
      <trkpt lat="43.6862" lon="1.1713">
        <ele>222.6</ele>
        <time>2025-12-19T10:36:53Z</time>
      </trkpt>
      <trkpt lat="43.68615" lon="1.17128">
        <ele>222.8</ele>
        <time>2025-12-19T10:36:54Z</time>
      </trkpt>
      <trkpt lat="43.68609" lon="1.17127">
        <ele>222.8</ele>
        <time>2025-12-19T10:36:55Z</time>
      </trkpt>
      <trkpt lat="43.68604" lon="1.17126">
        <ele>223</ele>
        <time>2025-12-19T10:36:56Z</time>
      </trkpt>
      <trkpt lat="43.68598" lon="1.17124">
        <ele>223</ele>
        <time>2025-12-19T10:36:57Z</time>
      </trkpt>
      <trkpt lat="43.68593" lon="1.17122">
        <ele>223.2</ele>
        <time>2025-12-19T10:36:58Z</time>
      </trkpt>
      <trkpt lat="43.68588" lon="1.17121">
        <ele>223.2</ele>
        <time>2025-12-19T10:36:59Z</time>
      </trkpt>
      <trkpt lat="43.68582" lon="1.17119">
        <ele>223.4</ele>
        <time>2025-12-19T10:37:00Z</time>
      </trkpt>
      <trkpt lat="43.68577" lon="1.17118">
        <ele>223.6</ele>
        <time>2025-12-19T10:37:01Z</time>
      </trkpt>
      <trkpt lat="43.68571" lon="1.17116">
        <ele>223.6</ele>
        <time>2025-12-19T10:37:02Z</time>
      </trkpt>
      <trkpt lat="43.68566" lon="1.17115">
        <ele>223.8</ele>
        <time>2025-12-19T10:37:03Z</time>
      </trkpt>
      <trkpt lat="43.6856" lon="1.17113">
        <ele>223.8</ele>
        <time>2025-12-19T10:37:04Z</time>
      </trkpt>
      <trkpt lat="43.68554" lon="1.17112">
        <ele>223.8</ele>
        <time>2025-12-19T10:37:05Z</time>
      </trkpt>
      <trkpt lat="43.68549" lon="1.17111">
        <ele>224</ele>
        <time>2025-12-19T10:37:06Z</time>
      </trkpt>
      <trkpt lat="43.68544" lon="1.17109">
        <ele>224</ele>
        <time>2025-12-19T10:37:07Z</time>
      </trkpt>
      <trkpt lat="43.68538" lon="1.17107">
        <ele>224.2</ele>
        <time>2025-12-19T10:37:08Z</time>
      </trkpt>
      <trkpt lat="43.68533" lon="1.17105">
        <ele>224.4</ele>
        <time>2025-12-19T10:37:09Z</time>
      </trkpt>
      <trkpt lat="43.68528" lon="1.17104">
        <ele>224.4</ele>
        <time>2025-12-19T10:37:10Z</time>
      </trkpt>
      <trkpt lat="43.68522" lon="1.17103">
        <ele>224.4</ele>
        <time>2025-12-19T10:37:11Z</time>
      </trkpt>
      <trkpt lat="43.68517" lon="1.17101">
        <ele>224.6</ele>
        <time>2025-12-19T10:37:12Z</time>
      </trkpt>
      <trkpt lat="43.68511" lon="1.171">
        <ele>224.6</ele>
        <time>2025-12-19T10:37:13Z</time>
      </trkpt>
      <trkpt lat="43.68506" lon="1.17098">
        <ele>224.8</ele>
        <time>2025-12-19T10:37:14Z</time>
      </trkpt>
      <trkpt lat="43.68501" lon="1.17096">
        <ele>225</ele>
        <time>2025-12-19T10:37:15Z</time>
      </trkpt>
      <trkpt lat="43.68495" lon="1.17095">
        <ele>225.2</ele>
        <time>2025-12-19T10:37:16Z</time>
      </trkpt>
      <trkpt lat="43.6849" lon="1.17093">
        <ele>225.2</ele>
        <time>2025-12-19T10:37:17Z</time>
      </trkpt>
      <trkpt lat="43.68485" lon="1.17092">
        <ele>225.4</ele>
        <time>2025-12-19T10:37:18Z</time>
      </trkpt>
      <trkpt lat="43.6848" lon="1.1709">
        <ele>225.6</ele>
        <time>2025-12-19T10:37:19Z</time>
      </trkpt>
      <trkpt lat="43.68474" lon="1.17089">
        <ele>225.6</ele>
        <time>2025-12-19T10:37:20Z</time>
      </trkpt>
      <trkpt lat="43.68469" lon="1.17087">
        <ele>225.8</ele>
        <time>2025-12-19T10:37:21Z</time>
      </trkpt>
      <trkpt lat="43.68464" lon="1.17086">
        <ele>225.8</ele>
        <time>2025-12-19T10:37:22Z</time>
      </trkpt>
      <trkpt lat="43.68458" lon="1.17084">
        <ele>225.8</ele>
        <time>2025-12-19T10:37:23Z</time>
      </trkpt>
      <trkpt lat="43.68453" lon="1.17083">
        <ele>226</ele>
        <time>2025-12-19T10:37:24Z</time>
      </trkpt>
      <trkpt lat="43.68447" lon="1.17081">
        <ele>226</ele>
        <time>2025-12-19T10:37:25Z</time>
      </trkpt>
      <trkpt lat="43.68442" lon="1.17079">
        <ele>226</ele>
        <time>2025-12-19T10:37:26Z</time>
      </trkpt>
      <trkpt lat="43.68436" lon="1.17077">
        <ele>226.2</ele>
        <time>2025-12-19T10:37:27Z</time>
      </trkpt>
      <trkpt lat="43.6843" lon="1.17076">
        <ele>226</ele>
        <time>2025-12-19T10:37:28Z</time>
      </trkpt>
      <trkpt lat="43.68425" lon="1.17074">
        <ele>226</ele>
        <time>2025-12-19T10:37:29Z</time>
      </trkpt>
      <trkpt lat="43.68419" lon="1.17073">
        <ele>226</ele>
        <time>2025-12-19T10:37:30Z</time>
      </trkpt>
      <trkpt lat="43.68413" lon="1.17071">
        <ele>225.8</ele>
        <time>2025-12-19T10:37:31Z</time>
      </trkpt>
      <trkpt lat="43.68406" lon="1.17069">
        <ele>225.8</ele>
        <time>2025-12-19T10:37:32Z</time>
      </trkpt>
      <trkpt lat="43.68399" lon="1.17067">
        <ele>225.6</ele>
        <time>2025-12-19T10:37:33Z</time>
      </trkpt>
      <trkpt lat="43.68393" lon="1.17064">
        <ele>225.2</ele>
        <time>2025-12-19T10:37:34Z</time>
      </trkpt>
      <trkpt lat="43.68386" lon="1.17062">
        <ele>224.8</ele>
        <time>2025-12-19T10:37:35Z</time>
      </trkpt>
      <trkpt lat="43.68379" lon="1.17059">
        <ele>224.4</ele>
        <time>2025-12-19T10:37:36Z</time>
      </trkpt>
      <trkpt lat="43.68371" lon="1.17055">
        <ele>223.8</ele>
        <time>2025-12-19T10:37:37Z</time>
      </trkpt>
      <trkpt lat="43.68363" lon="1.17053">
        <ele>223.4</ele>
        <time>2025-12-19T10:37:38Z</time>
      </trkpt>
      <trkpt lat="43.68355" lon="1.17051">
        <ele>222.8</ele>
        <time>2025-12-19T10:37:39Z</time>
      </trkpt>
      <trkpt lat="43.68346" lon="1.1705">
        <ele>222</ele>
        <time>2025-12-19T10:37:40Z</time>
      </trkpt>
      <trkpt lat="43.68337" lon="1.1705">
        <ele>221.4</ele>
        <time>2025-12-19T10:37:41Z</time>
      </trkpt>
      <trkpt lat="43.68327" lon="1.17049">
        <ele>220.6</ele>
        <time>2025-12-19T10:37:42Z</time>
      </trkpt>
      <trkpt lat="43.68317" lon="1.17049">
        <ele>219.8</ele>
        <time>2025-12-19T10:37:43Z</time>
      </trkpt>
      <trkpt lat="43.68308" lon="1.17049">
        <ele>219.2</ele>
        <time>2025-12-19T10:37:44Z</time>
      </trkpt>
      <trkpt lat="43.68297" lon="1.17049">
        <ele>218.4</ele>
        <time>2025-12-19T10:37:45Z</time>
      </trkpt>
      <trkpt lat="43.68288" lon="1.1705">
        <ele>217.4</ele>
        <time>2025-12-19T10:37:46Z</time>
      </trkpt>
      <trkpt lat="43.68278" lon="1.17053">
        <ele>216.6</ele>
        <time>2025-12-19T10:37:47Z</time>
      </trkpt>
      <trkpt lat="43.68268" lon="1.17055">
        <ele>216.2</ele>
        <time>2025-12-19T10:37:48Z</time>
      </trkpt>
      <trkpt lat="43.68258" lon="1.17059">
        <ele>215.8</ele>
        <time>2025-12-19T10:37:49Z</time>
      </trkpt>
      <trkpt lat="43.68249" lon="1.17063">
        <ele>215.4</ele>
        <time>2025-12-19T10:37:50Z</time>
      </trkpt>
      <trkpt lat="43.6824" lon="1.17069">
        <ele>215.2</ele>
        <time>2025-12-19T10:37:51Z</time>
      </trkpt>
      <trkpt lat="43.68231" lon="1.17075">
        <ele>215</ele>
        <time>2025-12-19T10:37:52Z</time>
      </trkpt>
      <trkpt lat="43.68224" lon="1.17083">
        <ele>214.8</ele>
        <time>2025-12-19T10:37:53Z</time>
      </trkpt>
      <trkpt lat="43.68217" lon="1.17092">
        <ele>214.6</ele>
        <time>2025-12-19T10:37:54Z</time>
      </trkpt>
      <trkpt lat="43.68211" lon="1.171">
        <ele>214.6</ele>
        <time>2025-12-19T10:37:55Z</time>
      </trkpt>
      <trkpt lat="43.68204" lon="1.17108">
        <ele>214.4</ele>
        <time>2025-12-19T10:37:56Z</time>
      </trkpt>
      <trkpt lat="43.68198" lon="1.17117">
        <ele>214</ele>
        <time>2025-12-19T10:37:57Z</time>
      </trkpt>
      <trkpt lat="43.68191" lon="1.17125">
        <ele>213.8</ele>
        <time>2025-12-19T10:37:58Z</time>
      </trkpt>
      <trkpt lat="43.68185" lon="1.17134">
        <ele>213.4</ele>
        <time>2025-12-19T10:37:59Z</time>
      </trkpt>
      <trkpt lat="43.68179" lon="1.17143">
        <ele>213.2</ele>
        <time>2025-12-19T10:38:00Z</time>
      </trkpt>
      <trkpt lat="43.68173" lon="1.17151">
        <ele>213</ele>
        <time>2025-12-19T10:38:01Z</time>
      </trkpt>
      <trkpt lat="43.68167" lon="1.17159">
        <ele>212.6</ele>
        <time>2025-12-19T10:38:02Z</time>
      </trkpt>
      <trkpt lat="43.68161" lon="1.17168">
        <ele>212.4</ele>
        <time>2025-12-19T10:38:03Z</time>
      </trkpt>
      <trkpt lat="43.68155" lon="1.17176">
        <ele>212.2</ele>
        <time>2025-12-19T10:38:04Z</time>
      </trkpt>
      <trkpt lat="43.68149" lon="1.17185">
        <ele>212</ele>
        <time>2025-12-19T10:38:05Z</time>
      </trkpt>
      <trkpt lat="43.68144" lon="1.17194">
        <ele>211.8</ele>
        <time>2025-12-19T10:38:06Z</time>
      </trkpt>
      <trkpt lat="43.68139" lon="1.17203">
        <ele>211.6</ele>
        <time>2025-12-19T10:38:07Z</time>
      </trkpt>
      <trkpt lat="43.68135" lon="1.17212">
        <ele>211.6</ele>
        <time>2025-12-19T10:38:08Z</time>
      </trkpt>
      <trkpt lat="43.6813" lon="1.17221">
        <ele>211.4</ele>
        <time>2025-12-19T10:38:09Z</time>
      </trkpt>
      <trkpt lat="43.68126" lon="1.17231">
        <ele>211.2</ele>
        <time>2025-12-19T10:38:10Z</time>
      </trkpt>
      <trkpt lat="43.68121" lon="1.1724">
        <ele>211</ele>
        <time>2025-12-19T10:38:11Z</time>
      </trkpt>
      <trkpt lat="43.68117" lon="1.1725">
        <ele>210.6</ele>
        <time>2025-12-19T10:38:12Z</time>
      </trkpt>
      <trkpt lat="43.68113" lon="1.1726">
        <ele>210.4</ele>
        <time>2025-12-19T10:38:13Z</time>
      </trkpt>
      <trkpt lat="43.68109" lon="1.1727">
        <ele>210</ele>
        <time>2025-12-19T10:38:14Z</time>
      </trkpt>
      <trkpt lat="43.68105" lon="1.17281">
        <ele>209.8</ele>
        <time>2025-12-19T10:38:15Z</time>
      </trkpt>
      <trkpt lat="43.68101" lon="1.17291">
        <ele>209.6</ele>
        <time>2025-12-19T10:38:16Z</time>
      </trkpt>
      <trkpt lat="43.68097" lon="1.17302">
        <ele>209.2</ele>
        <time>2025-12-19T10:38:17Z</time>
      </trkpt>
      <trkpt lat="43.68093" lon="1.17313">
        <ele>209</ele>
        <time>2025-12-19T10:38:18Z</time>
      </trkpt>
      <trkpt lat="43.68089" lon="1.17323">
        <ele>208.6</ele>
        <time>2025-12-19T10:38:19Z</time>
      </trkpt>
      <trkpt lat="43.68085" lon="1.17334">
        <ele>208.4</ele>
        <time>2025-12-19T10:38:20Z</time>
      </trkpt>
      <trkpt lat="43.68081" lon="1.17344">
        <ele>208.2</ele>
        <time>2025-12-19T10:38:21Z</time>
      </trkpt>
      <trkpt lat="43.68076" lon="1.17355">
        <ele>207.8</ele>
        <time>2025-12-19T10:38:22Z</time>
      </trkpt>
      <trkpt lat="43.68072" lon="1.17366">
        <ele>207.4</ele>
        <time>2025-12-19T10:38:23Z</time>
      </trkpt>
      <trkpt lat="43.68068" lon="1.17376">
        <ele>207</ele>
        <time>2025-12-19T10:38:24Z</time>
      </trkpt>
      <trkpt lat="43.68064" lon="1.17387">
        <ele>206.6</ele>
        <time>2025-12-19T10:38:25Z</time>
      </trkpt>
      <trkpt lat="43.68058" lon="1.17397">
        <ele>206.2</ele>
        <time>2025-12-19T10:38:26Z</time>
      </trkpt>
      <trkpt lat="43.68053" lon="1.17408">
        <ele>205.8</ele>
        <time>2025-12-19T10:38:27Z</time>
      </trkpt>
      <trkpt lat="43.68047" lon="1.17418">
        <ele>205.4</ele>
        <time>2025-12-19T10:38:28Z</time>
      </trkpt>
      <trkpt lat="43.68041" lon="1.17428">
        <ele>204.8</ele>
        <time>2025-12-19T10:38:29Z</time>
      </trkpt>
      <trkpt lat="43.68036" lon="1.17438">
        <ele>204.8</ele>
        <time>2025-12-19T10:38:30Z</time>
      </trkpt>
      <trkpt lat="43.6803" lon="1.17448">
        <ele>204.4</ele>
        <time>2025-12-19T10:38:31Z</time>
      </trkpt>
      <trkpt lat="43.68025" lon="1.17458">
        <ele>204.2</ele>
        <time>2025-12-19T10:38:32Z</time>
      </trkpt>
      <trkpt lat="43.6802" lon="1.17468">
        <ele>203.8</ele>
        <time>2025-12-19T10:38:33Z</time>
      </trkpt>
      <trkpt lat="43.68015" lon="1.17478">
        <ele>203.6</ele>
        <time>2025-12-19T10:38:34Z</time>
      </trkpt>
      <trkpt lat="43.6801" lon="1.17488">
        <ele>203.2</ele>
        <time>2025-12-19T10:38:35Z</time>
      </trkpt>
      <trkpt lat="43.68005" lon="1.17498">
        <ele>203</ele>
        <time>2025-12-19T10:38:36Z</time>
      </trkpt>
      <trkpt lat="43.68001" lon="1.17507">
        <ele>202.8</ele>
        <time>2025-12-19T10:38:37Z</time>
      </trkpt>
      <trkpt lat="43.67996" lon="1.17517">
        <ele>202.2</ele>
        <time>2025-12-19T10:38:38Z</time>
      </trkpt>
      <trkpt lat="43.67992" lon="1.17528">
        <ele>202</ele>
        <time>2025-12-19T10:38:39Z</time>
      </trkpt>
      <trkpt lat="43.67987" lon="1.17539">
        <ele>201.6</ele>
        <time>2025-12-19T10:38:40Z</time>
      </trkpt>
      <trkpt lat="43.67982" lon="1.1755">
        <ele>201</ele>
        <time>2025-12-19T10:38:41Z</time>
      </trkpt>
      <trkpt lat="43.67977" lon="1.1756">
        <ele>200.6</ele>
        <time>2025-12-19T10:38:42Z</time>
      </trkpt>
      <trkpt lat="43.67972" lon="1.17571">
        <ele>200.2</ele>
        <time>2025-12-19T10:38:43Z</time>
      </trkpt>
      <trkpt lat="43.67966" lon="1.17582">
        <ele>199.6</ele>
        <time>2025-12-19T10:38:44Z</time>
      </trkpt>
      <trkpt lat="43.67961" lon="1.17593">
        <ele>199</ele>
        <time>2025-12-19T10:38:45Z</time>
      </trkpt>
      <trkpt lat="43.67955" lon="1.17603">
        <ele>198</ele>
        <time>2025-12-19T10:38:46Z</time>
      </trkpt>
      <trkpt lat="43.67948" lon="1.17614">
        <ele>197.4</ele>
        <time>2025-12-19T10:38:47Z</time>
      </trkpt>
      <trkpt lat="43.67942" lon="1.17625">
        <ele>197</ele>
        <time>2025-12-19T10:38:48Z</time>
      </trkpt>
      <trkpt lat="43.67936" lon="1.17635">
        <ele>196.4</ele>
        <time>2025-12-19T10:38:49Z</time>
      </trkpt>
      <trkpt lat="43.6793" lon="1.17647">
        <ele>195.6</ele>
        <time>2025-12-19T10:38:50Z</time>
      </trkpt>
      <trkpt lat="43.67923" lon="1.17657">
        <ele>195</ele>
        <time>2025-12-19T10:38:51Z</time>
      </trkpt>
      <trkpt lat="43.67917" lon="1.17668">
        <ele>194.4</ele>
        <time>2025-12-19T10:38:52Z</time>
      </trkpt>
      <trkpt lat="43.6791" lon="1.17678">
        <ele>193.8</ele>
        <time>2025-12-19T10:38:53Z</time>
      </trkpt>
      <trkpt lat="43.67904" lon="1.17689">
        <ele>193.2</ele>
        <time>2025-12-19T10:38:54Z</time>
      </trkpt>
      <trkpt lat="43.67898" lon="1.177">
        <ele>192.8</ele>
        <time>2025-12-19T10:38:55Z</time>
      </trkpt>
      <trkpt lat="43.67891" lon="1.17711">
        <ele>192.2</ele>
        <time>2025-12-19T10:38:56Z</time>
      </trkpt>
      <trkpt lat="43.67884" lon="1.17721">
        <ele>191.6</ele>
        <time>2025-12-19T10:38:57Z</time>
      </trkpt>
      <trkpt lat="43.67877" lon="1.17731">
        <ele>191</ele>
        <time>2025-12-19T10:38:58Z</time>
      </trkpt>
      <trkpt lat="43.67869" lon="1.17738">
        <ele>190.6</ele>
        <time>2025-12-19T10:38:59Z</time>
      </trkpt>
      <trkpt lat="43.6786" lon="1.17743">
        <ele>190.2</ele>
        <time>2025-12-19T10:39:00Z</time>
      </trkpt>
      <trkpt lat="43.6785" lon="1.17746">
        <ele>189.8</ele>
        <time>2025-12-19T10:39:01Z</time>
      </trkpt>
      <trkpt lat="43.67841" lon="1.17746">
        <ele>189.4</ele>
        <time>2025-12-19T10:39:02Z</time>
      </trkpt>
      <trkpt lat="43.67831" lon="1.17742">
        <ele>189.2</ele>
        <time>2025-12-19T10:39:03Z</time>
      </trkpt>
      <trkpt lat="43.67822" lon="1.17737">
        <ele>188.8</ele>
        <time>2025-12-19T10:39:04Z</time>
      </trkpt>
      <trkpt lat="43.67812" lon="1.17732">
        <ele>188.6</ele>
        <time>2025-12-19T10:39:05Z</time>
      </trkpt>
      <trkpt lat="43.67803" lon="1.17727">
        <ele>188.2</ele>
        <time>2025-12-19T10:39:06Z</time>
      </trkpt>
      <trkpt lat="43.67794" lon="1.17722">
        <ele>188</ele>
        <time>2025-12-19T10:39:07Z</time>
      </trkpt>
      <trkpt lat="43.67785" lon="1.17716">
        <ele>187.6</ele>
        <time>2025-12-19T10:39:08Z</time>
      </trkpt>
      <trkpt lat="43.67776" lon="1.17711">
        <ele>187.2</ele>
        <time>2025-12-19T10:39:09Z</time>
      </trkpt>
      <trkpt lat="43.67767" lon="1.17706">
        <ele>186.8</ele>
        <time>2025-12-19T10:39:10Z</time>
      </trkpt>
      <trkpt lat="43.67758" lon="1.177">
        <ele>186.4</ele>
        <time>2025-12-19T10:39:11Z</time>
      </trkpt>
      <trkpt lat="43.67748" lon="1.17696">
        <ele>185.8</ele>
        <time>2025-12-19T10:39:12Z</time>
      </trkpt>
      <trkpt lat="43.67738" lon="1.17695">
        <ele>185</ele>
        <time>2025-12-19T10:39:13Z</time>
      </trkpt>
      <trkpt lat="43.67727" lon="1.17697">
        <ele>184.4</ele>
        <time>2025-12-19T10:39:14Z</time>
      </trkpt>
      <trkpt lat="43.67717" lon="1.17703">
        <ele>183.8</ele>
        <time>2025-12-19T10:39:15Z</time>
      </trkpt>
      <trkpt lat="43.67708" lon="1.17712">
        <ele>183</ele>
        <time>2025-12-19T10:39:16Z</time>
      </trkpt>
      <trkpt lat="43.677" lon="1.17721">
        <ele>182.2</ele>
        <time>2025-12-19T10:39:17Z</time>
      </trkpt>
      <trkpt lat="43.67691" lon="1.17732">
        <ele>181.2</ele>
        <time>2025-12-19T10:39:18Z</time>
      </trkpt>
      <trkpt lat="43.67682" lon="1.17743">
        <ele>180</ele>
        <time>2025-12-19T10:39:19Z</time>
      </trkpt>
      <trkpt lat="43.67674" lon="1.17755">
        <ele>179.2</ele>
        <time>2025-12-19T10:39:20Z</time>
      </trkpt>
      <trkpt lat="43.67667" lon="1.17769">
        <ele>178.2</ele>
        <time>2025-12-19T10:39:21Z</time>
      </trkpt>
      <trkpt lat="43.67661" lon="1.17783">
        <ele>177</ele>
        <time>2025-12-19T10:39:22Z</time>
      </trkpt>
      <trkpt lat="43.67655" lon="1.17798">
        <ele>176.4</ele>
        <time>2025-12-19T10:39:23Z</time>
      </trkpt>
      <trkpt lat="43.6765" lon="1.17813">
        <ele>174.8</ele>
        <time>2025-12-19T10:39:24Z</time>
      </trkpt>
      <trkpt lat="43.67644" lon="1.17828">
        <ele>173.8</ele>
        <time>2025-12-19T10:39:25Z</time>
      </trkpt>
      <trkpt lat="43.67639" lon="1.17843">
        <ele>172.6</ele>
        <time>2025-12-19T10:39:26Z</time>
      </trkpt>
      <trkpt lat="43.67634" lon="1.17859">
        <ele>171.6</ele>
        <time>2025-12-19T10:39:27Z</time>
      </trkpt>
      <trkpt lat="43.67628" lon="1.17875">
        <ele>170.6</ele>
        <time>2025-12-19T10:39:28Z</time>
      </trkpt>
      <trkpt lat="43.67623" lon="1.17891">
        <ele>169.6</ele>
        <time>2025-12-19T10:39:29Z</time>
      </trkpt>
      <trkpt lat="43.67617" lon="1.17907">
        <ele>168.6</ele>
        <time>2025-12-19T10:39:30Z</time>
      </trkpt>
      <trkpt lat="43.67611" lon="1.17923">
        <ele>167.6</ele>
        <time>2025-12-19T10:39:31Z</time>
      </trkpt>
      <trkpt lat="43.67606" lon="1.17939">
        <ele>166.6</ele>
        <time>2025-12-19T10:39:32Z</time>
      </trkpt>
      <trkpt lat="43.676" lon="1.17956">
        <ele>165.4</ele>
        <time>2025-12-19T10:39:33Z</time>
      </trkpt>
      <trkpt lat="43.67594" lon="1.17972">
        <ele>164.4</ele>
        <time>2025-12-19T10:39:34Z</time>
      </trkpt>
      <trkpt lat="43.67587" lon="1.17988">
        <ele>162.8</ele>
        <time>2025-12-19T10:39:35Z</time>
      </trkpt>
      <trkpt lat="43.67581" lon="1.18004">
        <ele>162</ele>
        <time>2025-12-19T10:39:36Z</time>
      </trkpt>
      <trkpt lat="43.67574" lon="1.1802">
        <ele>161</ele>
        <time>2025-12-19T10:39:37Z</time>
      </trkpt>
      <trkpt lat="43.67567" lon="1.18034">
        <ele>160</ele>
        <time>2025-12-19T10:39:38Z</time>
      </trkpt>
      <trkpt lat="43.6756" lon="1.18049">
        <ele>159</ele>
        <time>2025-12-19T10:39:39Z</time>
      </trkpt>
      <trkpt lat="43.67553" lon="1.18064">
        <ele>157.8</ele>
        <time>2025-12-19T10:39:40Z</time>
      </trkpt>
      <trkpt lat="43.67548" lon="1.18079">
        <ele>157.2</ele>
        <time>2025-12-19T10:39:41Z</time>
      </trkpt>
      <trkpt lat="43.67543" lon="1.18094">
        <ele>156.6</ele>
        <time>2025-12-19T10:39:42Z</time>
      </trkpt>
      <trkpt lat="43.67538" lon="1.18109">
        <ele>156</ele>
        <time>2025-12-19T10:39:43Z</time>
      </trkpt>
      <trkpt lat="43.67534" lon="1.18124">
        <ele>155.4</ele>
        <time>2025-12-19T10:39:44Z</time>
      </trkpt>
      <trkpt lat="43.6753" lon="1.18139">
        <ele>154.8</ele>
        <time>2025-12-19T10:39:45Z</time>
      </trkpt>
      <trkpt lat="43.67527" lon="1.18155">
        <ele>153.8</ele>
        <time>2025-12-19T10:39:46Z</time>
      </trkpt>
      <trkpt lat="43.67523" lon="1.1817">
        <ele>153.2</ele>
        <time>2025-12-19T10:39:47Z</time>
      </trkpt>
      <trkpt lat="43.6752" lon="1.18185">
        <ele>153</ele>
        <time>2025-12-19T10:39:48Z</time>
      </trkpt>
      <trkpt lat="43.67515" lon="1.18201">
        <ele>152.4</ele>
        <time>2025-12-19T10:39:49Z</time>
      </trkpt>
      <trkpt lat="43.6751" lon="1.18215">
        <ele>151.4</ele>
        <time>2025-12-19T10:39:50Z</time>
      </trkpt>
      <trkpt lat="43.67503" lon="1.18229">
        <ele>150.2</ele>
        <time>2025-12-19T10:39:51Z</time>
      </trkpt>
      <trkpt lat="43.67497" lon="1.18242">
        <ele>149.4</ele>
        <time>2025-12-19T10:39:52Z</time>
      </trkpt>
      <trkpt lat="43.6749" lon="1.18255">
        <ele>148.6</ele>
        <time>2025-12-19T10:39:53Z</time>
      </trkpt>
      <trkpt lat="43.67483" lon="1.18268">
        <ele>148.2</ele>
        <time>2025-12-19T10:39:54Z</time>
      </trkpt>
      <trkpt lat="43.67476" lon="1.18281">
        <ele>147.4</ele>
        <time>2025-12-19T10:39:55Z</time>
      </trkpt>
      <trkpt lat="43.6747" lon="1.18295">
        <ele>146.8</ele>
        <time>2025-12-19T10:39:56Z</time>
      </trkpt>
      <trkpt lat="43.67465" lon="1.18308">
        <ele>146</ele>
        <time>2025-12-19T10:39:57Z</time>
      </trkpt>
      <trkpt lat="43.6746" lon="1.18322">
        <ele>145.4</ele>
        <time>2025-12-19T10:39:58Z</time>
      </trkpt>
      <trkpt lat="43.67455" lon="1.18336">
        <ele>144.6</ele>
        <time>2025-12-19T10:39:59Z</time>
      </trkpt>
      <trkpt lat="43.6745" lon="1.1835">
        <ele>144.2</ele>
        <time>2025-12-19T10:40:00Z</time>
      </trkpt>
      <trkpt lat="43.67446" lon="1.18364">
        <ele>143.6</ele>
        <time>2025-12-19T10:40:01Z</time>
      </trkpt>
      <trkpt lat="43.67443" lon="1.18379">
        <ele>143</ele>
        <time>2025-12-19T10:40:02Z</time>
      </trkpt>
      <trkpt lat="43.67439" lon="1.18393">
        <ele>142.6</ele>
        <time>2025-12-19T10:40:03Z</time>
      </trkpt>
      <trkpt lat="43.67436" lon="1.18407">
        <ele>142.2</ele>
        <time>2025-12-19T10:40:04Z</time>
      </trkpt>
      <trkpt lat="43.67433" lon="1.18421">
        <ele>141.8</ele>
        <time>2025-12-19T10:40:05Z</time>
      </trkpt>
      <trkpt lat="43.67431" lon="1.18436">
        <ele>141.2</ele>
        <time>2025-12-19T10:40:06Z</time>
      </trkpt>
      <trkpt lat="43.67428" lon="1.1845">
        <ele>140.8</ele>
        <time>2025-12-19T10:40:07Z</time>
      </trkpt>
      <trkpt lat="43.67426" lon="1.18464">
        <ele>140.4</ele>
        <time>2025-12-19T10:40:08Z</time>
      </trkpt>
      <trkpt lat="43.67424" lon="1.18478">
        <ele>139.8</ele>
        <time>2025-12-19T10:40:09Z</time>
      </trkpt>
      <trkpt lat="43.67422" lon="1.18492">
        <ele>139.6</ele>
        <time>2025-12-19T10:40:10Z</time>
      </trkpt>
      <trkpt lat="43.6742" lon="1.18506">
        <ele>139.2</ele>
        <time>2025-12-19T10:40:11Z</time>
      </trkpt>
      <trkpt lat="43.67417" lon="1.18521">
        <ele>138.6</ele>
        <time>2025-12-19T10:40:12Z</time>
      </trkpt>
      <trkpt lat="43.67415" lon="1.18535">
        <ele>138</ele>
        <time>2025-12-19T10:40:13Z</time>
      </trkpt>
      <trkpt lat="43.67412" lon="1.1855">
        <ele>137.6</ele>
        <time>2025-12-19T10:40:14Z</time>
      </trkpt>
      <trkpt lat="43.67409" lon="1.18564">
        <ele>137</ele>
        <time>2025-12-19T10:40:15Z</time>
      </trkpt>
      <trkpt lat="43.67405" lon="1.18577">
        <ele>136.6</ele>
        <time>2025-12-19T10:40:16Z</time>
      </trkpt>
      <trkpt lat="43.67401" lon="1.1859">
        <ele>136</ele>
        <time>2025-12-19T10:40:17Z</time>
      </trkpt>
      <trkpt lat="43.67397" lon="1.18603">
        <ele>135.6</ele>
        <time>2025-12-19T10:40:18Z</time>
      </trkpt>
      <trkpt lat="43.67392" lon="1.18616">
        <ele>135.2</ele>
        <time>2025-12-19T10:40:19Z</time>
      </trkpt>
      <trkpt lat="43.67388" lon="1.18628">
        <ele>135</ele>
        <time>2025-12-19T10:40:20Z</time>
      </trkpt>
      <trkpt lat="43.67383" lon="1.18639">
        <ele>134.6</ele>
        <time>2025-12-19T10:40:21Z</time>
      </trkpt>
      <trkpt lat="43.67379" lon="1.18651">
        <ele>134.4</ele>
        <time>2025-12-19T10:40:22Z</time>
      </trkpt>
      <trkpt lat="43.67374" lon="1.18663">
        <ele>134.2</ele>
        <time>2025-12-19T10:40:23Z</time>
      </trkpt>
      <trkpt lat="43.67369" lon="1.18674">
        <ele>134</ele>
        <time>2025-12-19T10:40:24Z</time>
      </trkpt>
      <trkpt lat="43.67364" lon="1.18684">
        <ele>133.8</ele>
        <time>2025-12-19T10:40:25Z</time>
      </trkpt>
      <trkpt lat="43.67359" lon="1.18694">
        <ele>133.8</ele>
        <time>2025-12-19T10:40:26Z</time>
      </trkpt>
      <trkpt lat="43.67354" lon="1.18704">
        <ele>133.6</ele>
        <time>2025-12-19T10:40:27Z</time>
      </trkpt>
      <trkpt lat="43.67349" lon="1.18714">
        <ele>133.4</ele>
        <time>2025-12-19T10:40:28Z</time>
      </trkpt>
      <trkpt lat="43.67343" lon="1.18723">
        <ele>133.2</ele>
        <time>2025-12-19T10:40:29Z</time>
      </trkpt>
      <trkpt lat="43.67337" lon="1.1873">
        <ele>133</ele>
        <time>2025-12-19T10:40:30Z</time>
      </trkpt>
      <trkpt lat="43.6733" lon="1.18736">
        <ele>133</ele>
        <time>2025-12-19T10:40:31Z</time>
      </trkpt>
      <trkpt lat="43.67323" lon="1.18742">
        <ele>132.8</ele>
        <time>2025-12-19T10:40:32Z</time>
      </trkpt>
      <trkpt lat="43.67317" lon="1.18749">
        <ele>132.6</ele>
        <time>2025-12-19T10:40:33Z</time>
      </trkpt>
      <trkpt lat="43.6731" lon="1.18756">
        <ele>132.4</ele>
        <time>2025-12-19T10:40:34Z</time>
      </trkpt>
      <trkpt lat="43.67304" lon="1.18764">
        <ele>132.2</ele>
        <time>2025-12-19T10:40:35Z</time>
      </trkpt>
      <trkpt lat="43.67298" lon="1.18773">
        <ele>132</ele>
        <time>2025-12-19T10:40:36Z</time>
      </trkpt>
      <trkpt lat="43.67291" lon="1.18781">
        <ele>131.6</ele>
        <time>2025-12-19T10:40:37Z</time>
      </trkpt>
      <trkpt lat="43.67285" lon="1.1879">
        <ele>131.4</ele>
        <time>2025-12-19T10:40:38Z</time>
      </trkpt>
      <trkpt lat="43.67279" lon="1.18798">
        <ele>131.2</ele>
        <time>2025-12-19T10:40:39Z</time>
      </trkpt>
      <trkpt lat="43.67273" lon="1.18806">
        <ele>131</ele>
        <time>2025-12-19T10:40:40Z</time>
      </trkpt>
      <trkpt lat="43.67267" lon="1.18815">
        <ele>130.6</ele>
        <time>2025-12-19T10:40:41Z</time>
      </trkpt>
      <trkpt lat="43.67261" lon="1.18823">
        <ele>130.4</ele>
        <time>2025-12-19T10:40:42Z</time>
      </trkpt>
      <trkpt lat="43.67255" lon="1.18831">
        <ele>130.2</ele>
        <time>2025-12-19T10:40:43Z</time>
      </trkpt>
      <trkpt lat="43.67248" lon="1.1884">
        <ele>130</ele>
        <time>2025-12-19T10:40:44Z</time>
      </trkpt>
      <trkpt lat="43.67241" lon="1.18847">
        <ele>129.8</ele>
        <time>2025-12-19T10:40:45Z</time>
      </trkpt>
      <trkpt lat="43.67234" lon="1.18855">
        <ele>129.8</ele>
        <time>2025-12-19T10:40:46Z</time>
      </trkpt>
      <trkpt lat="43.67227" lon="1.18861">
        <ele>129.6</ele>
        <time>2025-12-19T10:40:47Z</time>
      </trkpt>
      <trkpt lat="43.67219" lon="1.18867">
        <ele>129.4</ele>
        <time>2025-12-19T10:40:48Z</time>
      </trkpt>
      <trkpt lat="43.67211" lon="1.18871">
        <ele>129.4</ele>
        <time>2025-12-19T10:40:49Z</time>
      </trkpt>
      <trkpt lat="43.67204" lon="1.18875">
        <ele>129.2</ele>
        <time>2025-12-19T10:40:50Z</time>
      </trkpt>
      <trkpt lat="43.67196" lon="1.18878">
        <ele>129.2</ele>
        <time>2025-12-19T10:40:51Z</time>
      </trkpt>
      <trkpt lat="43.67188" lon="1.18881">
        <ele>129</ele>
        <time>2025-12-19T10:40:52Z</time>
      </trkpt>
      <trkpt lat="43.67179" lon="1.18885">
        <ele>129</ele>
        <time>2025-12-19T10:40:53Z</time>
      </trkpt>
      <trkpt lat="43.67171" lon="1.18888">
        <ele>128.8</ele>
        <time>2025-12-19T10:40:54Z</time>
      </trkpt>
      <trkpt lat="43.67163" lon="1.18892">
        <ele>128.8</ele>
        <time>2025-12-19T10:40:55Z</time>
      </trkpt>
      <trkpt lat="43.67155" lon="1.18895">
        <ele>128.8</ele>
        <time>2025-12-19T10:40:56Z</time>
      </trkpt>
      <trkpt lat="43.67147" lon="1.18898">
        <ele>128.6</ele>
        <time>2025-12-19T10:40:57Z</time>
      </trkpt>
      <trkpt lat="43.6714" lon="1.18902">
        <ele>128.6</ele>
        <time>2025-12-19T10:40:58Z</time>
      </trkpt>
      <trkpt lat="43.67132" lon="1.18905">
        <ele>128.6</ele>
        <time>2025-12-19T10:40:59Z</time>
      </trkpt>
      <trkpt lat="43.67124" lon="1.18908">
        <ele>128.6</ele>
        <time>2025-12-19T10:41:00Z</time>
      </trkpt>
      <trkpt lat="43.67116" lon="1.18911">
        <ele>128.6</ele>
        <time>2025-12-19T10:41:01Z</time>
      </trkpt>
      <trkpt lat="43.67109" lon="1.18914">
        <ele>128.6</ele>
        <time>2025-12-19T10:41:02Z</time>
      </trkpt>
      <trkpt lat="43.671" lon="1.18916">
        <ele>128.6</ele>
        <time>2025-12-19T10:41:03Z</time>
      </trkpt>
      <trkpt lat="43.67092" lon="1.18917">
        <ele>128.4</ele>
        <time>2025-12-19T10:41:04Z</time>
      </trkpt>
      <trkpt lat="43.67084" lon="1.18917">
        <ele>128.4</ele>
        <time>2025-12-19T10:41:05Z</time>
      </trkpt>
      <trkpt lat="43.67076" lon="1.18916">
        <ele>128.2</ele>
        <time>2025-12-19T10:41:06Z</time>
      </trkpt>
      <trkpt lat="43.67068" lon="1.18915">
        <ele>128.2</ele>
        <time>2025-12-19T10:41:07Z</time>
      </trkpt>
      <trkpt lat="43.6706" lon="1.18915">
        <ele>128.2</ele>
        <time>2025-12-19T10:41:08Z</time>
      </trkpt>
      <trkpt lat="43.67053" lon="1.18914">
        <ele>128.2</ele>
        <time>2025-12-19T10:41:09Z</time>
      </trkpt>
      <trkpt lat="43.67045" lon="1.18915">
        <ele>128.2</ele>
        <time>2025-12-19T10:41:10Z</time>
      </trkpt>
      <trkpt lat="43.67038" lon="1.18918">
        <ele>128.4</ele>
        <time>2025-12-19T10:41:11Z</time>
      </trkpt>
      <trkpt lat="43.67031" lon="1.18923">
        <ele>128.4</ele>
        <time>2025-12-19T10:41:12Z</time>
      </trkpt>
      <trkpt lat="43.67026" lon="1.1893">
        <ele>128.4</ele>
        <time>2025-12-19T10:41:13Z</time>
      </trkpt>
      <trkpt lat="43.67021" lon="1.18937">
        <ele>128.4</ele>
        <time>2025-12-19T10:41:14Z</time>
      </trkpt>
      <trkpt lat="43.67017" lon="1.18945">
        <ele>128.4</ele>
        <time>2025-12-19T10:41:15Z</time>
      </trkpt>
      <trkpt lat="43.67013" lon="1.18954">
        <ele>128.2</ele>
        <time>2025-12-19T10:41:16Z</time>
      </trkpt>
      <trkpt lat="43.67009" lon="1.18962">
        <ele>128.4</ele>
        <time>2025-12-19T10:41:17Z</time>
      </trkpt>
      <trkpt lat="43.67005" lon="1.18971">
        <ele>128.4</ele>
        <time>2025-12-19T10:41:18Z</time>
      </trkpt>
      <trkpt lat="43.67" lon="1.18978">
        <ele>128.4</ele>
        <time>2025-12-19T10:41:19Z</time>
      </trkpt>
      <trkpt lat="43.66994" lon="1.18984">
        <ele>128.4</ele>
        <time>2025-12-19T10:41:20Z</time>
      </trkpt>
      <trkpt lat="43.66987" lon="1.18988">
        <ele>128.4</ele>
        <time>2025-12-19T10:41:21Z</time>
      </trkpt>
      <trkpt lat="43.6698" lon="1.1899">
        <ele>128.4</ele>
        <time>2025-12-19T10:41:22Z</time>
      </trkpt>
      <trkpt lat="43.66973" lon="1.1899">
        <ele>128.2</ele>
        <time>2025-12-19T10:41:23Z</time>
      </trkpt>
      <trkpt lat="43.66966" lon="1.18989">
        <ele>128.2</ele>
        <time>2025-12-19T10:41:24Z</time>
      </trkpt>
      <trkpt lat="43.66959" lon="1.18988">
        <ele>128.2</ele>
        <time>2025-12-19T10:41:25Z</time>
      </trkpt>
      <trkpt lat="43.66952" lon="1.18987">
        <ele>128.2</ele>
        <time>2025-12-19T10:41:26Z</time>
      </trkpt>
      <trkpt lat="43.66945" lon="1.18988">
        <ele>128.4</ele>
        <time>2025-12-19T10:41:27Z</time>
      </trkpt>
      <trkpt lat="43.66939" lon="1.18989">
        <ele>128.4</ele>
        <time>2025-12-19T10:41:28Z</time>
      </trkpt>
      <trkpt lat="43.66932" lon="1.18991">
        <ele>128.4</ele>
        <time>2025-12-19T10:41:29Z</time>
      </trkpt>
      <trkpt lat="43.66926" lon="1.18993">
        <ele>128.4</ele>
        <time>2025-12-19T10:41:30Z</time>
      </trkpt>
      <trkpt lat="43.6692" lon="1.18995">
        <ele>128.4</ele>
        <time>2025-12-19T10:41:31Z</time>
      </trkpt>
      <trkpt lat="43.66915" lon="1.18998">
        <ele>128.4</ele>
        <time>2025-12-19T10:41:32Z</time>
      </trkpt>
      <trkpt lat="43.66909" lon="1.19001">
        <ele>128.6</ele>
        <time>2025-12-19T10:41:33Z</time>
      </trkpt>
      <trkpt lat="43.66903" lon="1.19004">
        <ele>128.6</ele>
        <time>2025-12-19T10:41:34Z</time>
      </trkpt>
      <trkpt lat="43.66897" lon="1.19007">
        <ele>128.6</ele>
        <time>2025-12-19T10:41:35Z</time>
      </trkpt>
      <trkpt lat="43.6689" lon="1.19009">
        <ele>128.6</ele>
        <time>2025-12-19T10:41:36Z</time>
      </trkpt>
      <trkpt lat="43.66884" lon="1.19009">
        <ele>128.6</ele>
        <time>2025-12-19T10:41:37Z</time>
      </trkpt>
      <trkpt lat="43.66877" lon="1.1901">
        <ele>128.6</ele>
        <time>2025-12-19T10:41:38Z</time>
      </trkpt>
      <trkpt lat="43.66871" lon="1.19013">
        <ele>128.6</ele>
        <time>2025-12-19T10:41:39Z</time>
      </trkpt>
      <trkpt lat="43.66867" lon="1.19019">
        <ele>128.6</ele>
        <time>2025-12-19T10:41:40Z</time>
      </trkpt>
      <trkpt lat="43.66865" lon="1.19027">
        <ele>128.6</ele>
        <time>2025-12-19T10:41:41Z</time>
      </trkpt>
      <trkpt lat="43.66865" lon="1.19033">
        <ele>128.6</ele>
        <time>2025-12-19T10:41:42Z</time>
      </trkpt>
      <trkpt lat="43.66865" lon="1.19041">
        <ele>128.8</ele>
        <time>2025-12-19T10:41:43Z</time>
      </trkpt>
      <trkpt lat="43.66863" lon="1.19048">
        <ele>128.8</ele>
        <time>2025-12-19T10:41:44Z</time>
      </trkpt>
      <trkpt lat="43.6686" lon="1.19055">
        <ele>128.8</ele>
        <time>2025-12-19T10:41:45Z</time>
      </trkpt>
      <trkpt lat="43.66857" lon="1.19062">
        <ele>129</ele>
        <time>2025-12-19T10:41:46Z</time>
      </trkpt>
      <trkpt lat="43.66854" lon="1.19068">
        <ele>129</ele>
        <time>2025-12-19T10:41:47Z</time>
      </trkpt>
      <trkpt lat="43.66851" lon="1.19075">
        <ele>129</ele>
        <time>2025-12-19T10:41:48Z</time>
      </trkpt>
      <trkpt lat="43.66848" lon="1.19081">
        <ele>129.2</ele>
        <time>2025-12-19T10:41:49Z</time>
      </trkpt>
      <trkpt lat="43.66845" lon="1.19087">
        <ele>129.2</ele>
        <time>2025-12-19T10:41:50Z</time>
      </trkpt>
      <trkpt lat="43.66842" lon="1.19095">
        <ele>129.2</ele>
        <time>2025-12-19T10:41:51Z</time>
      </trkpt>
      <trkpt lat="43.66838" lon="1.19101">
        <ele>129.4</ele>
        <time>2025-12-19T10:41:52Z</time>
      </trkpt>
      <trkpt lat="43.66834" lon="1.19106">
        <ele>129.4</ele>
        <time>2025-12-19T10:41:53Z</time>
      </trkpt>
      <trkpt lat="43.66829" lon="1.19111">
        <ele>129.2</ele>
        <time>2025-12-19T10:41:54Z</time>
      </trkpt>
      <trkpt lat="43.66824" lon="1.19115">
        <ele>129.4</ele>
        <time>2025-12-19T10:41:55Z</time>
      </trkpt>
      <trkpt lat="43.66819" lon="1.1912">
        <ele>129.2</ele>
        <time>2025-12-19T10:41:56Z</time>
      </trkpt>
      <trkpt lat="43.66814" lon="1.19125">
        <ele>129.2</ele>
        <time>2025-12-19T10:41:57Z</time>
      </trkpt>
      <trkpt lat="43.66809" lon="1.1913">
        <ele>129.2</ele>
        <time>2025-12-19T10:41:58Z</time>
      </trkpt>
      <trkpt lat="43.66804" lon="1.19134">
        <ele>129.2</ele>
        <time>2025-12-19T10:41:59Z</time>
      </trkpt>
      <trkpt lat="43.66799" lon="1.19139">
        <ele>129.2</ele>
        <time>2025-12-19T10:42:00Z</time>
      </trkpt>
      <trkpt lat="43.66794" lon="1.19144">
        <ele>129.4</ele>
        <time>2025-12-19T10:42:01Z</time>
      </trkpt>
      <trkpt lat="43.6679" lon="1.19148">
        <ele>129.4</ele>
        <time>2025-12-19T10:42:02Z</time>
      </trkpt>
      <trkpt lat="43.66785" lon="1.19152">
        <ele>129.6</ele>
        <time>2025-12-19T10:42:03Z</time>
      </trkpt>
      <trkpt lat="43.6678" lon="1.19156">
        <ele>129.6</ele>
        <time>2025-12-19T10:42:04Z</time>
      </trkpt>
      <trkpt lat="43.66775" lon="1.1916">
        <ele>129.6</ele>
        <time>2025-12-19T10:42:05Z</time>
      </trkpt>
      <trkpt lat="43.66769" lon="1.19165">
        <ele>129.6</ele>
        <time>2025-12-19T10:42:06Z</time>
      </trkpt>
      <trkpt lat="43.66764" lon="1.1917">
        <ele>129.4</ele>
        <time>2025-12-19T10:42:07Z</time>
      </trkpt>
      <trkpt lat="43.66758" lon="1.19175">
        <ele>129.4</ele>
        <time>2025-12-19T10:42:08Z</time>
      </trkpt>
      <trkpt lat="43.66753" lon="1.19181">
        <ele>129.4</ele>
        <time>2025-12-19T10:42:09Z</time>
      </trkpt>
      <trkpt lat="43.66748" lon="1.19186">
        <ele>129.4</ele>
        <time>2025-12-19T10:42:10Z</time>
      </trkpt>
      <trkpt lat="43.66743" lon="1.19192">
        <ele>129.4</ele>
        <time>2025-12-19T10:42:11Z</time>
      </trkpt>
      <trkpt lat="43.66738" lon="1.19198">
        <ele>129.2</ele>
        <time>2025-12-19T10:42:12Z</time>
      </trkpt>
      <trkpt lat="43.66733" lon="1.19204">
        <ele>129.2</ele>
        <time>2025-12-19T10:42:13Z</time>
      </trkpt>
      <trkpt lat="43.66728" lon="1.1921">
        <ele>129.2</ele>
        <time>2025-12-19T10:42:14Z</time>
      </trkpt>
      <trkpt lat="43.66723" lon="1.19215">
        <ele>129</ele>
        <time>2025-12-19T10:42:15Z</time>
      </trkpt>
      <trkpt lat="43.66718" lon="1.19222">
        <ele>129</ele>
        <time>2025-12-19T10:42:16Z</time>
      </trkpt>
      <trkpt lat="43.66714" lon="1.19228">
        <ele>129.2</ele>
        <time>2025-12-19T10:42:17Z</time>
      </trkpt>
      <trkpt lat="43.66709" lon="1.19234">
        <ele>129.2</ele>
        <time>2025-12-19T10:42:18Z</time>
      </trkpt>
      <trkpt lat="43.66705" lon="1.1924">
        <ele>129.2</ele>
        <time>2025-12-19T10:42:19Z</time>
      </trkpt>
      <trkpt lat="43.66701" lon="1.19247">
        <ele>129.4</ele>
        <time>2025-12-19T10:42:20Z</time>
      </trkpt>
      <trkpt lat="43.66697" lon="1.19253">
        <ele>129.6</ele>
        <time>2025-12-19T10:42:21Z</time>
      </trkpt>
      <trkpt lat="43.66693" lon="1.19259">
        <ele>129.6</ele>
        <time>2025-12-19T10:42:22Z</time>
      </trkpt>
      <trkpt lat="43.66689" lon="1.19265">
        <ele>129.8</ele>
        <time>2025-12-19T10:42:23Z</time>
      </trkpt>
      <trkpt lat="43.66685" lon="1.19271">
        <ele>130</ele>
        <time>2025-12-19T10:42:24Z</time>
      </trkpt>
      <trkpt lat="43.66681" lon="1.19277">
        <ele>130</ele>
        <time>2025-12-19T10:42:25Z</time>
      </trkpt>
      <trkpt lat="43.66677" lon="1.19283">
        <ele>130.2</ele>
        <time>2025-12-19T10:42:26Z</time>
      </trkpt>
      <trkpt lat="43.66673" lon="1.19289">
        <ele>130.2</ele>
        <time>2025-12-19T10:42:27Z</time>
      </trkpt>
      <trkpt lat="43.6667" lon="1.19294">
        <ele>130.4</ele>
        <time>2025-12-19T10:42:28Z</time>
      </trkpt>
      <trkpt lat="43.66666" lon="1.193">
        <ele>130.6</ele>
        <time>2025-12-19T10:42:29Z</time>
      </trkpt>
      <trkpt lat="43.66663" lon="1.19305">
        <ele>130.6</ele>
        <time>2025-12-19T10:42:30Z</time>
      </trkpt>
      <trkpt lat="43.66659" lon="1.1931">
        <ele>130.8</ele>
        <time>2025-12-19T10:42:31Z</time>
      </trkpt>
      <trkpt lat="43.66656" lon="1.19315">
        <ele>131</ele>
        <time>2025-12-19T10:42:32Z</time>
      </trkpt>
      <trkpt lat="43.66652" lon="1.1932">
        <ele>131.2</ele>
        <time>2025-12-19T10:42:33Z</time>
      </trkpt>
      <trkpt lat="43.66649" lon="1.19324">
        <ele>131.4</ele>
        <time>2025-12-19T10:42:34Z</time>
      </trkpt>
      <trkpt lat="43.66645" lon="1.19328">
        <ele>131.6</ele>
        <time>2025-12-19T10:42:35Z</time>
      </trkpt>
      <trkpt lat="43.66642" lon="1.19331">
        <ele>131.8</ele>
        <time>2025-12-19T10:42:36Z</time>
      </trkpt>
      <trkpt lat="43.66638" lon="1.19334">
        <ele>132</ele>
        <time>2025-12-19T10:42:37Z</time>
      </trkpt>
      <trkpt lat="43.66635" lon="1.19338">
        <ele>132.2</ele>
        <time>2025-12-19T10:42:38Z</time>
      </trkpt>
      <trkpt lat="43.66632" lon="1.19341">
        <ele>132.4</ele>
        <time>2025-12-19T10:42:39Z</time>
      </trkpt>
      <trkpt lat="43.66629" lon="1.19344">
        <ele>132.6</ele>
        <time>2025-12-19T10:42:40Z</time>
      </trkpt>
      <trkpt lat="43.66627" lon="1.19347">
        <ele>132.8</ele>
        <time>2025-12-19T10:42:41Z</time>
      </trkpt>
      <trkpt lat="43.66624" lon="1.19349">
        <ele>133.2</ele>
        <time>2025-12-19T10:42:42Z</time>
      </trkpt>
      <trkpt lat="43.66622" lon="1.19352">
        <ele>133.4</ele>
        <time>2025-12-19T10:42:43Z</time>
      </trkpt>
      <trkpt lat="43.6662" lon="1.19354">
        <ele>133.6</ele>
        <time>2025-12-19T10:42:44Z</time>
      </trkpt>
      <trkpt lat="43.66618" lon="1.19357">
        <ele>133.8</ele>
        <time>2025-12-19T10:42:45Z</time>
      </trkpt>
      <trkpt lat="43.66616" lon="1.19358">
        <ele>134</ele>
        <time>2025-12-19T10:42:46Z</time>
      </trkpt>
      <trkpt lat="43.66615" lon="1.1936">
        <ele>134.2</ele>
        <time>2025-12-19T10:42:47Z</time>
      </trkpt>
      <trkpt lat="43.66615" lon="1.19361">
        <ele>134.2</ele>
        <time>2025-12-19T10:42:48Z</time>
      </trkpt>
      <trkpt lat="43.66614" lon="1.19361">
        <ele>134.4</ele>
        <time>2025-12-19T10:42:49Z</time>
      </trkpt>
      <trkpt lat="43.66614" lon="1.19361">
        <ele>134.4</ele>
        <time>2025-12-19T10:42:50Z</time>
      </trkpt>
      <trkpt lat="43.66611" lon="1.19364">
        <ele>134.6</ele>
        <time>2025-12-19T10:43:42Z</time>
      </trkpt>
      <trkpt lat="43.6661" lon="1.19365">
        <ele>134.6</ele>
        <time>2025-12-19T10:43:43Z</time>
      </trkpt>
      <trkpt lat="43.66607" lon="1.19365">
        <ele>134.6</ele>
        <time>2025-12-19T10:43:44Z</time>
      </trkpt>
      <trkpt lat="43.66605" lon="1.19364">
        <ele>134.8</ele>
        <time>2025-12-19T10:43:45Z</time>
      </trkpt>
      <trkpt lat="43.66602" lon="1.19362">
        <ele>134.8</ele>
        <time>2025-12-19T10:43:46Z</time>
      </trkpt>
      <trkpt lat="43.666" lon="1.19359">
        <ele>135</ele>
        <time>2025-12-19T10:43:47Z</time>
      </trkpt>
      <trkpt lat="43.66597" lon="1.19357">
        <ele>135</ele>
        <time>2025-12-19T10:43:48Z</time>
      </trkpt>
      <trkpt lat="43.66594" lon="1.19356">
        <ele>135</ele>
        <time>2025-12-19T10:43:49Z</time>
      </trkpt>
      <trkpt lat="43.66591" lon="1.19357">
        <ele>135.2</ele>
        <time>2025-12-19T10:43:50Z</time>
      </trkpt>
      <trkpt lat="43.66587" lon="1.19358">
        <ele>135.2</ele>
        <time>2025-12-19T10:43:51Z</time>
      </trkpt>
      <trkpt lat="43.66584" lon="1.19361">
        <ele>135.4</ele>
        <time>2025-12-19T10:43:52Z</time>
      </trkpt>
      <trkpt lat="43.6658" lon="1.19363">
        <ele>135.4</ele>
        <time>2025-12-19T10:43:53Z</time>
      </trkpt>
      <trkpt lat="43.66577" lon="1.19366">
        <ele>135.6</ele>
        <time>2025-12-19T10:43:54Z</time>
      </trkpt>
      <trkpt lat="43.66573" lon="1.19368">
        <ele>135.6</ele>
        <time>2025-12-19T10:43:55Z</time>
      </trkpt>
      <trkpt lat="43.66569" lon="1.1937">
        <ele>135.6</ele>
        <time>2025-12-19T10:43:56Z</time>
      </trkpt>
      <trkpt lat="43.66565" lon="1.19372">
        <ele>135.8</ele>
        <time>2025-12-19T10:43:57Z</time>
      </trkpt>
      <trkpt lat="43.66561" lon="1.19373">
        <ele>135.8</ele>
        <time>2025-12-19T10:43:58Z</time>
      </trkpt>
      <trkpt lat="43.66557" lon="1.19375">
        <ele>136.2</ele>
        <time>2025-12-19T10:43:59Z</time>
      </trkpt>
      <trkpt lat="43.66553" lon="1.19377">
        <ele>136.2</ele>
        <time>2025-12-19T10:44:00Z</time>
      </trkpt>
      <trkpt lat="43.6655" lon="1.19378">
        <ele>136.4</ele>
        <time>2025-12-19T10:44:01Z</time>
      </trkpt>
      <trkpt lat="43.66545" lon="1.19379">
        <ele>136.6</ele>
        <time>2025-12-19T10:44:02Z</time>
      </trkpt>
      <trkpt lat="43.66541" lon="1.19381">
        <ele>136.8</ele>
        <time>2025-12-19T10:44:03Z</time>
      </trkpt>
      <trkpt lat="43.66537" lon="1.19383">
        <ele>137</ele>
        <time>2025-12-19T10:44:04Z</time>
      </trkpt>
      <trkpt lat="43.66533" lon="1.19384">
        <ele>137.2</ele>
        <time>2025-12-19T10:44:05Z</time>
      </trkpt>
      <trkpt lat="43.6653" lon="1.19386">
        <ele>137.4</ele>
        <time>2025-12-19T10:44:06Z</time>
      </trkpt>
      <trkpt lat="43.66526" lon="1.19388">
        <ele>137.6</ele>
        <time>2025-12-19T10:44:07Z</time>
      </trkpt>
      <trkpt lat="43.66522" lon="1.19389">
        <ele>137.8</ele>
        <time>2025-12-19T10:44:08Z</time>
      </trkpt>
      <trkpt lat="43.66518" lon="1.19391">
        <ele>138</ele>
        <time>2025-12-19T10:44:09Z</time>
      </trkpt>
      <trkpt lat="43.66514" lon="1.19393">
        <ele>138.4</ele>
        <time>2025-12-19T10:44:10Z</time>
      </trkpt>
      <trkpt lat="43.6651" lon="1.19395">
        <ele>138.4</ele>
        <time>2025-12-19T10:44:11Z</time>
      </trkpt>
      <trkpt lat="43.66506" lon="1.19396">
        <ele>138.6</ele>
        <time>2025-12-19T10:44:12Z</time>
      </trkpt>
      <trkpt lat="43.66501" lon="1.19397">
        <ele>138.8</ele>
        <time>2025-12-19T10:44:13Z</time>
      </trkpt>
      <trkpt lat="43.66497" lon="1.19397">
        <ele>139</ele>
        <time>2025-12-19T10:44:14Z</time>
      </trkpt>
      <trkpt lat="43.66493" lon="1.19397">
        <ele>139.2</ele>
        <time>2025-12-19T10:44:15Z</time>
      </trkpt>
      <trkpt lat="43.66488" lon="1.19395">
        <ele>139.4</ele>
        <time>2025-12-19T10:44:16Z</time>
      </trkpt>
      <trkpt lat="43.66484" lon="1.19393">
        <ele>139.4</ele>
        <time>2025-12-19T10:44:17Z</time>
      </trkpt>
      <trkpt lat="43.6648" lon="1.19391">
        <ele>139.6</ele>
        <time>2025-12-19T10:44:18Z</time>
      </trkpt>
      <trkpt lat="43.66476" lon="1.19388">
        <ele>139.8</ele>
        <time>2025-12-19T10:44:19Z</time>
      </trkpt>
      <trkpt lat="43.66473" lon="1.19385">
        <ele>139.8</ele>
        <time>2025-12-19T10:44:20Z</time>
      </trkpt>
      <trkpt lat="43.66469" lon="1.19381">
        <ele>140.2</ele>
        <time>2025-12-19T10:44:21Z</time>
      </trkpt>
      <trkpt lat="43.66465" lon="1.19377">
        <ele>140.2</ele>
        <time>2025-12-19T10:44:22Z</time>
      </trkpt>
      <trkpt lat="43.66461" lon="1.19374">
        <ele>140.4</ele>
        <time>2025-12-19T10:44:23Z</time>
      </trkpt>
      <trkpt lat="43.66457" lon="1.1937">
        <ele>140.4</ele>
        <time>2025-12-19T10:44:24Z</time>
      </trkpt>
      <trkpt lat="43.66454" lon="1.19366">
        <ele>140.6</ele>
        <time>2025-12-19T10:44:25Z</time>
      </trkpt>
      <trkpt lat="43.6645" lon="1.19362">
        <ele>140.8</ele>
        <time>2025-12-19T10:44:26Z</time>
      </trkpt>
      <trkpt lat="43.66446" lon="1.19359">
        <ele>141</ele>
        <time>2025-12-19T10:44:27Z</time>
      </trkpt>
      <trkpt lat="43.66443" lon="1.19355">
        <ele>141</ele>
        <time>2025-12-19T10:44:28Z</time>
      </trkpt>
      <trkpt lat="43.6644" lon="1.19351">
        <ele>141.2</ele>
        <time>2025-12-19T10:44:29Z</time>
      </trkpt>
      <trkpt lat="43.66436" lon="1.19347">
        <ele>141.4</ele>
        <time>2025-12-19T10:44:30Z</time>
      </trkpt>
      <trkpt lat="43.66433" lon="1.19344">
        <ele>141.6</ele>
        <time>2025-12-19T10:44:31Z</time>
      </trkpt>
      <trkpt lat="43.6643" lon="1.1934">
        <ele>141.8</ele>
        <time>2025-12-19T10:44:32Z</time>
      </trkpt>
      <trkpt lat="43.66426" lon="1.19337">
        <ele>142</ele>
        <time>2025-12-19T10:44:33Z</time>
      </trkpt>
      <trkpt lat="43.66423" lon="1.19333">
        <ele>142.2</ele>
        <time>2025-12-19T10:44:34Z</time>
      </trkpt>
      <trkpt lat="43.6642" lon="1.1933">
        <ele>142.4</ele>
        <time>2025-12-19T10:44:35Z</time>
      </trkpt>
      <trkpt lat="43.66417" lon="1.19326">
        <ele>142.6</ele>
        <time>2025-12-19T10:44:36Z</time>
      </trkpt>
      <trkpt lat="43.66413" lon="1.19323">
        <ele>143</ele>
        <time>2025-12-19T10:44:37Z</time>
      </trkpt>
      <trkpt lat="43.6641" lon="1.19319">
        <ele>143.2</ele>
        <time>2025-12-19T10:44:38Z</time>
      </trkpt>
      <trkpt lat="43.66407" lon="1.19316">
        <ele>143.4</ele>
        <time>2025-12-19T10:44:39Z</time>
      </trkpt>
      <trkpt lat="43.66404" lon="1.19313">
        <ele>143.6</ele>
        <time>2025-12-19T10:44:40Z</time>
      </trkpt>
      <trkpt lat="43.664" lon="1.19309">
        <ele>143.8</ele>
        <time>2025-12-19T10:44:41Z</time>
      </trkpt>
      <trkpt lat="43.66397" lon="1.19306">
        <ele>144.2</ele>
        <time>2025-12-19T10:44:42Z</time>
      </trkpt>
      <trkpt lat="43.66394" lon="1.19303">
        <ele>144.4</ele>
        <time>2025-12-19T10:44:43Z</time>
      </trkpt>
      <trkpt lat="43.66391" lon="1.193">
        <ele>144.8</ele>
        <time>2025-12-19T10:44:44Z</time>
      </trkpt>
      <trkpt lat="43.66387" lon="1.19296">
        <ele>145</ele>
        <time>2025-12-19T10:44:45Z</time>
      </trkpt>
      <trkpt lat="43.66384" lon="1.19293">
        <ele>145.2</ele>
        <time>2025-12-19T10:44:46Z</time>
      </trkpt>
      <trkpt lat="43.66381" lon="1.1929">
        <ele>145.6</ele>
        <time>2025-12-19T10:44:47Z</time>
      </trkpt>
      <trkpt lat="43.66377" lon="1.19287">
        <ele>145.8</ele>
        <time>2025-12-19T10:44:48Z</time>
      </trkpt>
      <trkpt lat="43.66374" lon="1.19284">
        <ele>146</ele>
        <time>2025-12-19T10:44:49Z</time>
      </trkpt>
      <trkpt lat="43.6637" lon="1.19282">
        <ele>146.2</ele>
        <time>2025-12-19T10:44:50Z</time>
      </trkpt>
      <trkpt lat="43.66367" lon="1.1928">
        <ele>146.4</ele>
        <time>2025-12-19T10:44:51Z</time>
      </trkpt>
      <trkpt lat="43.66363" lon="1.19278">
        <ele>146.4</ele>
        <time>2025-12-19T10:44:52Z</time>
      </trkpt>
      <trkpt lat="43.6636" lon="1.19276">
        <ele>146.6</ele>
        <time>2025-12-19T10:44:53Z</time>
      </trkpt>
      <trkpt lat="43.66356" lon="1.19275">
        <ele>146.6</ele>
        <time>2025-12-19T10:44:54Z</time>
      </trkpt>
      <trkpt lat="43.66352" lon="1.19273">
        <ele>146.8</ele>
        <time>2025-12-19T10:44:55Z</time>
      </trkpt>
      <trkpt lat="43.66349" lon="1.1927">
        <ele>147</ele>
        <time>2025-12-19T10:44:56Z</time>
      </trkpt>
      <trkpt lat="43.66346" lon="1.19267">
        <ele>147.2</ele>
        <time>2025-12-19T10:44:57Z</time>
      </trkpt>
      <trkpt lat="43.66342" lon="1.19263">
        <ele>147.2</ele>
        <time>2025-12-19T10:44:58Z</time>
      </trkpt>
      <trkpt lat="43.66337" lon="1.19261">
        <ele>147.2</ele>
        <time>2025-12-19T10:44:59Z</time>
      </trkpt>
      <trkpt lat="43.66332" lon="1.19259">
        <ele>147.2</ele>
        <time>2025-12-19T10:45:00Z</time>
      </trkpt>
      <trkpt lat="43.66327" lon="1.19257">
        <ele>147</ele>
        <time>2025-12-19T10:45:01Z</time>
      </trkpt>
      <trkpt lat="43.66322" lon="1.19255">
        <ele>146.8</ele>
        <time>2025-12-19T10:45:02Z</time>
      </trkpt>
      <trkpt lat="43.66316" lon="1.19254">
        <ele>146.6</ele>
        <time>2025-12-19T10:45:03Z</time>
      </trkpt>
      <trkpt lat="43.66311" lon="1.19253">
        <ele>146.4</ele>
        <time>2025-12-19T10:45:04Z</time>
      </trkpt>
      <trkpt lat="43.66306" lon="1.19252">
        <ele>146.4</ele>
        <time>2025-12-19T10:45:05Z</time>
      </trkpt>
      <trkpt lat="43.663" lon="1.19251">
        <ele>146.2</ele>
        <time>2025-12-19T10:45:06Z</time>
      </trkpt>
      <trkpt lat="43.66295" lon="1.19251">
        <ele>146.4</ele>
        <time>2025-12-19T10:45:07Z</time>
      </trkpt>
      <trkpt lat="43.66289" lon="1.1925">
        <ele>146.4</ele>
        <time>2025-12-19T10:45:08Z</time>
      </trkpt>
      <trkpt lat="43.66284" lon="1.19248">
        <ele>146.2</ele>
        <time>2025-12-19T10:45:09Z</time>
      </trkpt>
      <trkpt lat="43.66278" lon="1.19247">
        <ele>146.2</ele>
        <time>2025-12-19T10:45:10Z</time>
      </trkpt>
      <trkpt lat="43.66273" lon="1.19246">
        <ele>146.2</ele>
        <time>2025-12-19T10:45:11Z</time>
      </trkpt>
      <trkpt lat="43.66267" lon="1.19245">
        <ele>146.2</ele>
        <time>2025-12-19T10:45:12Z</time>
      </trkpt>
      <trkpt lat="43.66261" lon="1.19244">
        <ele>146.2</ele>
        <time>2025-12-19T10:45:13Z</time>
      </trkpt>
      <trkpt lat="43.66254" lon="1.19243">
        <ele>146</ele>
        <time>2025-12-19T10:45:14Z</time>
      </trkpt>
      <trkpt lat="43.66249" lon="1.19242">
        <ele>146</ele>
        <time>2025-12-19T10:45:15Z</time>
      </trkpt>
      <trkpt lat="43.66243" lon="1.19241">
        <ele>146</ele>
        <time>2025-12-19T10:45:16Z</time>
      </trkpt>
      <trkpt lat="43.66237" lon="1.1924">
        <ele>146.2</ele>
        <time>2025-12-19T10:45:17Z</time>
      </trkpt>
      <trkpt lat="43.66232" lon="1.1924">
        <ele>146</ele>
        <time>2025-12-19T10:45:18Z</time>
      </trkpt>
      <trkpt lat="43.66226" lon="1.19239">
        <ele>146.2</ele>
        <time>2025-12-19T10:45:19Z</time>
      </trkpt>
      <trkpt lat="43.6622" lon="1.19238">
        <ele>146.2</ele>
        <time>2025-12-19T10:45:20Z</time>
      </trkpt>
      <trkpt lat="43.66215" lon="1.19236">
        <ele>146.2</ele>
        <time>2025-12-19T10:45:21Z</time>
      </trkpt>
      <trkpt lat="43.66209" lon="1.19234">
        <ele>146.2</ele>
        <time>2025-12-19T10:45:22Z</time>
      </trkpt>
      <trkpt lat="43.66203" lon="1.19232">
        <ele>146.2</ele>
        <time>2025-12-19T10:45:23Z</time>
      </trkpt>
      <trkpt lat="43.66197" lon="1.19231">
        <ele>146.2</ele>
        <time>2025-12-19T10:45:24Z</time>
      </trkpt>
      <trkpt lat="43.66191" lon="1.1923">
        <ele>146.2</ele>
        <time>2025-12-19T10:45:25Z</time>
      </trkpt>
      <trkpt lat="43.66185" lon="1.19228">
        <ele>146.2</ele>
        <time>2025-12-19T10:45:26Z</time>
      </trkpt>
      <trkpt lat="43.66179" lon="1.19227">
        <ele>146.2</ele>
        <time>2025-12-19T10:45:27Z</time>
      </trkpt>
      <trkpt lat="43.66173" lon="1.19226">
        <ele>146.2</ele>
        <time>2025-12-19T10:45:28Z</time>
      </trkpt>
      <trkpt lat="43.66167" lon="1.19226">
        <ele>146.2</ele>
        <time>2025-12-19T10:45:29Z</time>
      </trkpt>
      <trkpt lat="43.66161" lon="1.19225">
        <ele>146.2</ele>
        <time>2025-12-19T10:45:30Z</time>
      </trkpt>
      <trkpt lat="43.66155" lon="1.19225">
        <ele>146.2</ele>
        <time>2025-12-19T10:45:31Z</time>
      </trkpt>
      <trkpt lat="43.66149" lon="1.19225">
        <ele>146.2</ele>
        <time>2025-12-19T10:45:32Z</time>
      </trkpt>
      <trkpt lat="43.66144" lon="1.19225">
        <ele>146.4</ele>
        <time>2025-12-19T10:45:33Z</time>
      </trkpt>
      <trkpt lat="43.66138" lon="1.19226">
        <ele>146.4</ele>
        <time>2025-12-19T10:45:34Z</time>
      </trkpt>
      <trkpt lat="43.66133" lon="1.19226">
        <ele>146.6</ele>
        <time>2025-12-19T10:45:35Z</time>
      </trkpt>
      <trkpt lat="43.66128" lon="1.19226">
        <ele>146.6</ele>
        <time>2025-12-19T10:45:36Z</time>
      </trkpt>
      <trkpt lat="43.66123" lon="1.19228">
        <ele>146.8</ele>
        <time>2025-12-19T10:45:37Z</time>
      </trkpt>
      <trkpt lat="43.66118" lon="1.19229">
        <ele>146.8</ele>
        <time>2025-12-19T10:45:38Z</time>
      </trkpt>
      <trkpt lat="43.66113" lon="1.1923">
        <ele>147</ele>
        <time>2025-12-19T10:45:39Z</time>
      </trkpt>
      <trkpt lat="43.66108" lon="1.19231">
        <ele>147</ele>
        <time>2025-12-19T10:45:40Z</time>
      </trkpt>
      <trkpt lat="43.66103" lon="1.19231">
        <ele>147.2</ele>
        <time>2025-12-19T10:45:41Z</time>
      </trkpt>
      <trkpt lat="43.66098" lon="1.19233">
        <ele>147.2</ele>
        <time>2025-12-19T10:45:42Z</time>
      </trkpt>
      <trkpt lat="43.66092" lon="1.19235">
        <ele>147.4</ele>
        <time>2025-12-19T10:45:43Z</time>
      </trkpt>
      <trkpt lat="43.66087" lon="1.19237">
        <ele>147.4</ele>
        <time>2025-12-19T10:45:44Z</time>
      </trkpt>
      <trkpt lat="43.66081" lon="1.19239">
        <ele>147.6</ele>
        <time>2025-12-19T10:45:45Z</time>
      </trkpt>
      <trkpt lat="43.66076" lon="1.19242">
        <ele>147.6</ele>
        <time>2025-12-19T10:45:46Z</time>
      </trkpt>
      <trkpt lat="43.6607" lon="1.19245">
        <ele>147.4</ele>
        <time>2025-12-19T10:45:47Z</time>
      </trkpt>
      <trkpt lat="43.66064" lon="1.19248">
        <ele>147.4</ele>
        <time>2025-12-19T10:45:48Z</time>
      </trkpt>
      <trkpt lat="43.66059" lon="1.19251">
        <ele>147.4</ele>
        <time>2025-12-19T10:45:49Z</time>
      </trkpt>
      <trkpt lat="43.66054" lon="1.19254">
        <ele>147.2</ele>
        <time>2025-12-19T10:45:50Z</time>
      </trkpt>
      <trkpt lat="43.66049" lon="1.19257">
        <ele>147.4</ele>
        <time>2025-12-19T10:45:51Z</time>
      </trkpt>
      <trkpt lat="43.66044" lon="1.19259">
        <ele>147.6</ele>
        <time>2025-12-19T10:45:52Z</time>
      </trkpt>
      <trkpt lat="43.66039" lon="1.1926">
        <ele>147.8</ele>
        <time>2025-12-19T10:45:53Z</time>
      </trkpt>
      <trkpt lat="43.66035" lon="1.19261">
        <ele>148</ele>
        <time>2025-12-19T10:45:54Z</time>
      </trkpt>
      <trkpt lat="43.66031" lon="1.19261">
        <ele>148.4</ele>
        <time>2025-12-19T10:45:55Z</time>
      </trkpt>
      <trkpt lat="43.66028" lon="1.19262">
        <ele>148.8</ele>
        <time>2025-12-19T10:45:56Z</time>
      </trkpt>
      <trkpt lat="43.66024" lon="1.19262">
        <ele>149</ele>
        <time>2025-12-19T10:45:57Z</time>
      </trkpt>
      <trkpt lat="43.6602" lon="1.19261">
        <ele>149.4</ele>
        <time>2025-12-19T10:45:58Z</time>
      </trkpt>
      <trkpt lat="43.66016" lon="1.1926">
        <ele>149.6</ele>
        <time>2025-12-19T10:45:59Z</time>
      </trkpt>
      <trkpt lat="43.66013" lon="1.1926">
        <ele>150</ele>
        <time>2025-12-19T10:46:00Z</time>
      </trkpt>
      <trkpt lat="43.6601" lon="1.19259">
        <ele>150.4</ele>
        <time>2025-12-19T10:46:01Z</time>
      </trkpt>
      <trkpt lat="43.66006" lon="1.19259">
        <ele>150.8</ele>
        <time>2025-12-19T10:46:02Z</time>
      </trkpt>
      <trkpt lat="43.66003" lon="1.19258">
        <ele>151.2</ele>
        <time>2025-12-19T10:46:03Z</time>
      </trkpt>
      <trkpt lat="43.66" lon="1.19257">
        <ele>151.4</ele>
        <time>2025-12-19T10:46:04Z</time>
      </trkpt>
      <trkpt lat="43.65997" lon="1.19257">
        <ele>151.6</ele>
        <time>2025-12-19T10:46:05Z</time>
      </trkpt>
      <trkpt lat="43.65994" lon="1.19256">
        <ele>152</ele>
        <time>2025-12-19T10:46:06Z</time>
      </trkpt>
      <trkpt lat="43.65991" lon="1.19256">
        <ele>152.2</ele>
        <time>2025-12-19T10:46:07Z</time>
      </trkpt>
      <trkpt lat="43.65988" lon="1.19256">
        <ele>152.4</ele>
        <time>2025-12-19T10:46:08Z</time>
      </trkpt>
      <trkpt lat="43.65985" lon="1.19255">
        <ele>152.8</ele>
        <time>2025-12-19T10:46:09Z</time>
      </trkpt>
      <trkpt lat="43.65982" lon="1.19255">
        <ele>153</ele>
        <time>2025-12-19T10:46:10Z</time>
      </trkpt>
      <trkpt lat="43.65979" lon="1.19254">
        <ele>153.2</ele>
        <time>2025-12-19T10:46:11Z</time>
      </trkpt>
      <trkpt lat="43.65976" lon="1.19254">
        <ele>153.4</ele>
        <time>2025-12-19T10:46:12Z</time>
      </trkpt>
      <trkpt lat="43.65973" lon="1.19254">
        <ele>153.6</ele>
        <time>2025-12-19T10:46:13Z</time>
      </trkpt>
      <trkpt lat="43.6597" lon="1.19253">
        <ele>153.8</ele>
        <time>2025-12-19T10:46:14Z</time>
      </trkpt>
      <trkpt lat="43.65967" lon="1.19252">
        <ele>154</ele>
        <time>2025-12-19T10:46:15Z</time>
      </trkpt>
      <trkpt lat="43.65964" lon="1.19251">
        <ele>154.4</ele>
        <time>2025-12-19T10:46:16Z</time>
      </trkpt>
      <trkpt lat="43.65961" lon="1.19251">
        <ele>154.6</ele>
        <time>2025-12-19T10:46:17Z</time>
      </trkpt>
      <trkpt lat="43.65958" lon="1.19251">
        <ele>154.8</ele>
        <time>2025-12-19T10:46:18Z</time>
      </trkpt>
      <trkpt lat="43.65955" lon="1.19251">
        <ele>155</ele>
        <time>2025-12-19T10:46:19Z</time>
      </trkpt>
      <trkpt lat="43.65952" lon="1.19251">
        <ele>155.2</ele>
        <time>2025-12-19T10:46:20Z</time>
      </trkpt>
      <trkpt lat="43.6595" lon="1.1925">
        <ele>155.4</ele>
        <time>2025-12-19T10:46:21Z</time>
      </trkpt>
      <trkpt lat="43.65947" lon="1.1925">
        <ele>155.6</ele>
        <time>2025-12-19T10:46:22Z</time>
      </trkpt>
      <trkpt lat="43.65944" lon="1.1925">
        <ele>156</ele>
        <time>2025-12-19T10:46:23Z</time>
      </trkpt>
      <trkpt lat="43.65941" lon="1.19249">
        <ele>156.2</ele>
        <time>2025-12-19T10:46:24Z</time>
      </trkpt>
      <trkpt lat="43.65938" lon="1.19248">
        <ele>156.4</ele>
        <time>2025-12-19T10:46:25Z</time>
      </trkpt>
      <trkpt lat="43.65935" lon="1.19248">
        <ele>156.6</ele>
        <time>2025-12-19T10:46:26Z</time>
      </trkpt>
      <trkpt lat="43.65932" lon="1.19248">
        <ele>156.8</ele>
        <time>2025-12-19T10:46:27Z</time>
      </trkpt>
      <trkpt lat="43.6593" lon="1.19248">
        <ele>157</ele>
        <time>2025-12-19T10:46:28Z</time>
      </trkpt>
      <trkpt lat="43.65927" lon="1.19247">
        <ele>157.4</ele>
        <time>2025-12-19T10:46:29Z</time>
      </trkpt>
      <trkpt lat="43.65924" lon="1.19246">
        <ele>157.6</ele>
        <time>2025-12-19T10:46:30Z</time>
      </trkpt>
      <trkpt lat="43.65921" lon="1.19246">
        <ele>157.8</ele>
        <time>2025-12-19T10:46:31Z</time>
      </trkpt>
      <trkpt lat="43.65918" lon="1.19245">
        <ele>158</ele>
        <time>2025-12-19T10:46:32Z</time>
      </trkpt>
      <trkpt lat="43.65916" lon="1.19244">
        <ele>158.4</ele>
        <time>2025-12-19T10:46:33Z</time>
      </trkpt>
      <trkpt lat="43.65913" lon="1.19243">
        <ele>158.6</ele>
        <time>2025-12-19T10:46:34Z</time>
      </trkpt>
      <trkpt lat="43.65911" lon="1.19242">
        <ele>158.8</ele>
        <time>2025-12-19T10:46:35Z</time>
      </trkpt>
      <trkpt lat="43.65908" lon="1.19241">
        <ele>159</ele>
        <time>2025-12-19T10:46:36Z</time>
      </trkpt>
      <trkpt lat="43.65906" lon="1.1924">
        <ele>159.2</ele>
        <time>2025-12-19T10:46:37Z</time>
      </trkpt>
      <trkpt lat="43.65903" lon="1.19239">
        <ele>159.6</ele>
        <time>2025-12-19T10:46:38Z</time>
      </trkpt>
      <trkpt lat="43.659" lon="1.19237">
        <ele>159.8</ele>
        <time>2025-12-19T10:46:39Z</time>
      </trkpt>
      <trkpt lat="43.65898" lon="1.19235">
        <ele>160</ele>
        <time>2025-12-19T10:46:40Z</time>
      </trkpt>
      <trkpt lat="43.65895" lon="1.19234">
        <ele>160.2</ele>
        <time>2025-12-19T10:46:41Z</time>
      </trkpt>
      <trkpt lat="43.65893" lon="1.19232">
        <ele>160.4</ele>
        <time>2025-12-19T10:46:42Z</time>
      </trkpt>
      <trkpt lat="43.65891" lon="1.1923">
        <ele>160.8</ele>
        <time>2025-12-19T10:46:43Z</time>
      </trkpt>
      <trkpt lat="43.65888" lon="1.19228">
        <ele>161</ele>
        <time>2025-12-19T10:46:44Z</time>
      </trkpt>
      <trkpt lat="43.65886" lon="1.19226">
        <ele>161.2</ele>
        <time>2025-12-19T10:46:45Z</time>
      </trkpt>
      <trkpt lat="43.65884" lon="1.19224">
        <ele>161.4</ele>
        <time>2025-12-19T10:46:46Z</time>
      </trkpt>
      <trkpt lat="43.65881" lon="1.19222">
        <ele>161.6</ele>
        <time>2025-12-19T10:46:47Z</time>
      </trkpt>
      <trkpt lat="43.65879" lon="1.1922">
        <ele>161.8</ele>
        <time>2025-12-19T10:46:48Z</time>
      </trkpt>
      <trkpt lat="43.65877" lon="1.19218">
        <ele>162</ele>
        <time>2025-12-19T10:46:49Z</time>
      </trkpt>
      <trkpt lat="43.65875" lon="1.19216">
        <ele>162.2</ele>
        <time>2025-12-19T10:46:50Z</time>
      </trkpt>
      <trkpt lat="43.65873" lon="1.19214">
        <ele>162.6</ele>
        <time>2025-12-19T10:46:51Z</time>
      </trkpt>
      <trkpt lat="43.6587" lon="1.19212">
        <ele>162.8</ele>
        <time>2025-12-19T10:46:52Z</time>
      </trkpt>
      <trkpt lat="43.65868" lon="1.1921">
        <ele>163</ele>
        <time>2025-12-19T10:46:53Z</time>
      </trkpt>
      <trkpt lat="43.65866" lon="1.19207">
        <ele>163.2</ele>
        <time>2025-12-19T10:46:54Z</time>
      </trkpt>
      <trkpt lat="43.65863" lon="1.19206">
        <ele>163.4</ele>
        <time>2025-12-19T10:46:55Z</time>
      </trkpt>
      <trkpt lat="43.6586" lon="1.19204">
        <ele>163.8</ele>
        <time>2025-12-19T10:46:56Z</time>
      </trkpt>
      <trkpt lat="43.65858" lon="1.19202">
        <ele>164</ele>
        <time>2025-12-19T10:46:57Z</time>
      </trkpt>
      <trkpt lat="43.65855" lon="1.19201">
        <ele>164.2</ele>
        <time>2025-12-19T10:46:58Z</time>
      </trkpt>
      <trkpt lat="43.65853" lon="1.192">
        <ele>164.4</ele>
        <time>2025-12-19T10:46:59Z</time>
      </trkpt>
      <trkpt lat="43.6585" lon="1.19199">
        <ele>164.6</ele>
        <time>2025-12-19T10:47:00Z</time>
      </trkpt>
      <trkpt lat="43.65848" lon="1.19199">
        <ele>164.8</ele>
        <time>2025-12-19T10:47:01Z</time>
      </trkpt>
      <trkpt lat="43.65845" lon="1.19199">
        <ele>165</ele>
        <time>2025-12-19T10:47:02Z</time>
      </trkpt>
      <trkpt lat="43.65842" lon="1.19198">
        <ele>165.4</ele>
        <time>2025-12-19T10:47:03Z</time>
      </trkpt>
      <trkpt lat="43.6584" lon="1.19198">
        <ele>165.6</ele>
        <time>2025-12-19T10:47:04Z</time>
      </trkpt>
      <trkpt lat="43.65837" lon="1.19198">
        <ele>165.8</ele>
        <time>2025-12-19T10:47:05Z</time>
      </trkpt>
      <trkpt lat="43.65834" lon="1.19199">
        <ele>166</ele>
        <time>2025-12-19T10:47:06Z</time>
      </trkpt>
      <trkpt lat="43.65832" lon="1.19199">
        <ele>166.2</ele>
        <time>2025-12-19T10:47:07Z</time>
      </trkpt>
      <trkpt lat="43.65829" lon="1.192">
        <ele>166.4</ele>
        <time>2025-12-19T10:47:08Z</time>
      </trkpt>
      <trkpt lat="43.65827" lon="1.192">
        <ele>166.6</ele>
        <time>2025-12-19T10:47:09Z</time>
      </trkpt>
      <trkpt lat="43.65824" lon="1.19201">
        <ele>167</ele>
        <time>2025-12-19T10:47:10Z</time>
      </trkpt>
      <trkpt lat="43.65822" lon="1.19202">
        <ele>167.2</ele>
        <time>2025-12-19T10:47:11Z</time>
      </trkpt>
      <trkpt lat="43.65819" lon="1.19203">
        <ele>167.4</ele>
        <time>2025-12-19T10:47:12Z</time>
      </trkpt>
      <trkpt lat="43.65817" lon="1.19204">
        <ele>167.4</ele>
        <time>2025-12-19T10:47:13Z</time>
      </trkpt>
      <trkpt lat="43.65814" lon="1.19204">
        <ele>167.6</ele>
        <time>2025-12-19T10:47:14Z</time>
      </trkpt>
      <trkpt lat="43.65811" lon="1.19204">
        <ele>167.8</ele>
        <time>2025-12-19T10:47:15Z</time>
      </trkpt>
      <trkpt lat="43.65808" lon="1.19203">
        <ele>168</ele>
        <time>2025-12-19T10:47:16Z</time>
      </trkpt>
      <trkpt lat="43.65805" lon="1.19203">
        <ele>168.2</ele>
        <time>2025-12-19T10:47:17Z</time>
      </trkpt>
      <trkpt lat="43.65802" lon="1.19202">
        <ele>168.4</ele>
        <time>2025-12-19T10:47:18Z</time>
      </trkpt>
      <trkpt lat="43.658" lon="1.19201">
        <ele>168.6</ele>
        <time>2025-12-19T10:47:19Z</time>
      </trkpt>
      <trkpt lat="43.65797" lon="1.192">
        <ele>168.8</ele>
        <time>2025-12-19T10:47:20Z</time>
      </trkpt>
      <trkpt lat="43.65795" lon="1.19199">
        <ele>169</ele>
        <time>2025-12-19T10:47:21Z</time>
      </trkpt>
      <trkpt lat="43.65793" lon="1.19198">
        <ele>169.2</ele>
        <time>2025-12-19T10:47:22Z</time>
      </trkpt>
      <trkpt lat="43.65791" lon="1.19196">
        <ele>169.4</ele>
        <time>2025-12-19T10:47:23Z</time>
      </trkpt>
      <trkpt lat="43.65789" lon="1.19195">
        <ele>169.6</ele>
        <time>2025-12-19T10:47:24Z</time>
      </trkpt>
      <trkpt lat="43.65787" lon="1.19194">
        <ele>170</ele>
        <time>2025-12-19T10:47:25Z</time>
      </trkpt>
      <trkpt lat="43.65784" lon="1.19193">
        <ele>170.2</ele>
        <time>2025-12-19T10:47:26Z</time>
      </trkpt>
      <trkpt lat="43.65782" lon="1.19192">
        <ele>170.4</ele>
        <time>2025-12-19T10:47:27Z</time>
      </trkpt>
      <trkpt lat="43.6578" lon="1.19191">
        <ele>170.8</ele>
        <time>2025-12-19T10:47:28Z</time>
      </trkpt>
      <trkpt lat="43.65778" lon="1.1919">
        <ele>171</ele>
        <time>2025-12-19T10:47:29Z</time>
      </trkpt>
      <trkpt lat="43.65776" lon="1.19188">
        <ele>171.2</ele>
        <time>2025-12-19T10:47:30Z</time>
      </trkpt>
      <trkpt lat="43.65773" lon="1.19187">
        <ele>171.4</ele>
        <time>2025-12-19T10:47:31Z</time>
      </trkpt>
      <trkpt lat="43.65771" lon="1.19185">
        <ele>171.8</ele>
        <time>2025-12-19T10:47:32Z</time>
      </trkpt>
      <trkpt lat="43.65769" lon="1.19184">
        <ele>172</ele>
        <time>2025-12-19T10:47:33Z</time>
      </trkpt>
      <trkpt lat="43.65767" lon="1.19183">
        <ele>172.2</ele>
        <time>2025-12-19T10:47:34Z</time>
      </trkpt>
      <trkpt lat="43.65765" lon="1.19181">
        <ele>172.4</ele>
        <time>2025-12-19T10:47:35Z</time>
      </trkpt>
      <trkpt lat="43.65763" lon="1.1918">
        <ele>172.8</ele>
        <time>2025-12-19T10:47:36Z</time>
      </trkpt>
      <trkpt lat="43.65761" lon="1.19179">
        <ele>173</ele>
        <time>2025-12-19T10:47:37Z</time>
      </trkpt>
      <trkpt lat="43.65759" lon="1.19178">
        <ele>173.2</ele>
        <time>2025-12-19T10:47:38Z</time>
      </trkpt>
      <trkpt lat="43.65757" lon="1.19177">
        <ele>173.4</ele>
        <time>2025-12-19T10:47:39Z</time>
      </trkpt>
      <trkpt lat="43.65755" lon="1.19175">
        <ele>173.6</ele>
        <time>2025-12-19T10:47:40Z</time>
      </trkpt>
      <trkpt lat="43.65753" lon="1.19175">
        <ele>174</ele>
        <time>2025-12-19T10:47:41Z</time>
      </trkpt>
      <trkpt lat="43.65751" lon="1.19174">
        <ele>174.2</ele>
        <time>2025-12-19T10:47:42Z</time>
      </trkpt>
      <trkpt lat="43.65749" lon="1.19172">
        <ele>174.4</ele>
        <time>2025-12-19T10:47:43Z</time>
      </trkpt>
      <trkpt lat="43.65747" lon="1.19171">
        <ele>174.6</ele>
        <time>2025-12-19T10:47:44Z</time>
      </trkpt>
      <trkpt lat="43.65745" lon="1.1917">
        <ele>175</ele>
        <time>2025-12-19T10:47:45Z</time>
      </trkpt>
      <trkpt lat="43.65743" lon="1.19169">
        <ele>175.2</ele>
        <time>2025-12-19T10:47:46Z</time>
      </trkpt>
      <trkpt lat="43.65741" lon="1.19168">
        <ele>175.4</ele>
        <time>2025-12-19T10:47:47Z</time>
      </trkpt>
      <trkpt lat="43.65739" lon="1.19167">
        <ele>175.6</ele>
        <time>2025-12-19T10:47:48Z</time>
      </trkpt>
      <trkpt lat="43.65736" lon="1.19167">
        <ele>175.8</ele>
        <time>2025-12-19T10:47:49Z</time>
      </trkpt>
      <trkpt lat="43.65734" lon="1.19166">
        <ele>176</ele>
        <time>2025-12-19T10:47:50Z</time>
      </trkpt>
      <trkpt lat="43.65732" lon="1.19165">
        <ele>176.2</ele>
        <time>2025-12-19T10:47:51Z</time>
      </trkpt>
      <trkpt lat="43.6573" lon="1.19164">
        <ele>176.4</ele>
        <time>2025-12-19T10:47:52Z</time>
      </trkpt>
      <trkpt lat="43.65728" lon="1.19162">
        <ele>176.8</ele>
        <time>2025-12-19T10:47:53Z</time>
      </trkpt>
      <trkpt lat="43.65726" lon="1.19161">
        <ele>177</ele>
        <time>2025-12-19T10:47:54Z</time>
      </trkpt>
      <trkpt lat="43.65725" lon="1.19161">
        <ele>177.2</ele>
        <time>2025-12-19T10:47:55Z</time>
      </trkpt>
      <trkpt lat="43.65722" lon="1.1916">
        <ele>177.4</ele>
        <time>2025-12-19T10:47:56Z</time>
      </trkpt>
      <trkpt lat="43.6572" lon="1.19159">
        <ele>177.6</ele>
        <time>2025-12-19T10:47:57Z</time>
      </trkpt>
      <trkpt lat="43.65718" lon="1.19158">
        <ele>178</ele>
        <time>2025-12-19T10:47:58Z</time>
      </trkpt>
      <trkpt lat="43.65716" lon="1.19157">
        <ele>178.2</ele>
        <time>2025-12-19T10:47:59Z</time>
      </trkpt>
      <trkpt lat="43.65714" lon="1.19156">
        <ele>178.4</ele>
        <time>2025-12-19T10:48:00Z</time>
      </trkpt>
      <trkpt lat="43.65712" lon="1.19155">
        <ele>178.6</ele>
        <time>2025-12-19T10:48:01Z</time>
      </trkpt>
      <trkpt lat="43.6571" lon="1.19153">
        <ele>178.8</ele>
        <time>2025-12-19T10:48:02Z</time>
      </trkpt>
      <trkpt lat="43.65707" lon="1.19152">
        <ele>179.2</ele>
        <time>2025-12-19T10:48:03Z</time>
      </trkpt>
      <trkpt lat="43.65705" lon="1.19151">
        <ele>179.4</ele>
        <time>2025-12-19T10:48:04Z</time>
      </trkpt>
      <trkpt lat="43.65703" lon="1.1915">
        <ele>179.6</ele>
        <time>2025-12-19T10:48:05Z</time>
      </trkpt>
      <trkpt lat="43.65701" lon="1.19149">
        <ele>179.8</ele>
        <time>2025-12-19T10:48:06Z</time>
      </trkpt>
      <trkpt lat="43.65699" lon="1.19148">
        <ele>180</ele>
        <time>2025-12-19T10:48:07Z</time>
      </trkpt>
      <trkpt lat="43.65697" lon="1.19147">
        <ele>180.4</ele>
        <time>2025-12-19T10:48:08Z</time>
      </trkpt>
      <trkpt lat="43.65695" lon="1.19145">
        <ele>180.6</ele>
        <time>2025-12-19T10:48:09Z</time>
      </trkpt>
      <trkpt lat="43.65692" lon="1.19144">
        <ele>180.8</ele>
        <time>2025-12-19T10:48:10Z</time>
      </trkpt>
      <trkpt lat="43.6569" lon="1.19143">
        <ele>181</ele>
        <time>2025-12-19T10:48:11Z</time>
      </trkpt>
      <trkpt lat="43.65688" lon="1.19142">
        <ele>181.2</ele>
        <time>2025-12-19T10:48:12Z</time>
      </trkpt>
      <trkpt lat="43.65686" lon="1.1914">
        <ele>181.4</ele>
        <time>2025-12-19T10:48:13Z</time>
      </trkpt>
      <trkpt lat="43.65683" lon="1.19139">
        <ele>181.6</ele>
        <time>2025-12-19T10:48:14Z</time>
      </trkpt>
      <trkpt lat="43.65681" lon="1.19137">
        <ele>181.8</ele>
        <time>2025-12-19T10:48:15Z</time>
      </trkpt>
      <trkpt lat="43.65679" lon="1.19136">
        <ele>182</ele>
        <time>2025-12-19T10:48:16Z</time>
      </trkpt>
      <trkpt lat="43.65676" lon="1.19135">
        <ele>182.2</ele>
        <time>2025-12-19T10:48:17Z</time>
      </trkpt>
      <trkpt lat="43.65674" lon="1.19134">
        <ele>182.4</ele>
        <time>2025-12-19T10:48:18Z</time>
      </trkpt>
      <trkpt lat="43.65672" lon="1.19133">
        <ele>182.6</ele>
        <time>2025-12-19T10:48:19Z</time>
      </trkpt>
      <trkpt lat="43.6567" lon="1.19132">
        <ele>182.8</ele>
        <time>2025-12-19T10:48:20Z</time>
      </trkpt>
      <trkpt lat="43.65668" lon="1.19131">
        <ele>182.8</ele>
        <time>2025-12-19T10:48:21Z</time>
      </trkpt>
      <trkpt lat="43.65665" lon="1.19129">
        <ele>183.2</ele>
        <time>2025-12-19T10:48:22Z</time>
      </trkpt>
      <trkpt lat="43.65663" lon="1.19128">
        <ele>183.4</ele>
        <time>2025-12-19T10:48:23Z</time>
      </trkpt>
      <trkpt lat="43.65661" lon="1.19127">
        <ele>183.6</ele>
        <time>2025-12-19T10:48:24Z</time>
      </trkpt>
      <trkpt lat="43.65658" lon="1.19126">
        <ele>183.8</ele>
        <time>2025-12-19T10:48:25Z</time>
      </trkpt>
      <trkpt lat="43.65656" lon="1.19125">
        <ele>183.8</ele>
        <time>2025-12-19T10:48:26Z</time>
      </trkpt>
      <trkpt lat="43.65654" lon="1.19124">
        <ele>184</ele>
        <time>2025-12-19T10:48:27Z</time>
      </trkpt>
      <trkpt lat="43.65651" lon="1.19122">
        <ele>184.2</ele>
        <time>2025-12-19T10:48:28Z</time>
      </trkpt>
      <trkpt lat="43.65649" lon="1.19121">
        <ele>184.4</ele>
        <time>2025-12-19T10:48:29Z</time>
      </trkpt>
      <trkpt lat="43.65646" lon="1.1912">
        <ele>184.6</ele>
        <time>2025-12-19T10:48:30Z</time>
      </trkpt>
      <trkpt lat="43.65644" lon="1.19119">
        <ele>184.6</ele>
        <time>2025-12-19T10:48:31Z</time>
      </trkpt>
      <trkpt lat="43.65642" lon="1.19118">
        <ele>184.8</ele>
        <time>2025-12-19T10:48:32Z</time>
      </trkpt>
      <trkpt lat="43.6564" lon="1.19117">
        <ele>185</ele>
        <time>2025-12-19T10:48:33Z</time>
      </trkpt>
      <trkpt lat="43.65637" lon="1.19115">
        <ele>185.2</ele>
        <time>2025-12-19T10:48:34Z</time>
      </trkpt>
      <trkpt lat="43.65635" lon="1.19114">
        <ele>185.4</ele>
        <time>2025-12-19T10:48:35Z</time>
      </trkpt>
      <trkpt lat="43.65632" lon="1.19113">
        <ele>185.6</ele>
        <time>2025-12-19T10:48:36Z</time>
      </trkpt>
      <trkpt lat="43.6563" lon="1.19112">
        <ele>185.8</ele>
        <time>2025-12-19T10:48:37Z</time>
      </trkpt>
      <trkpt lat="43.65627" lon="1.1911">
        <ele>186</ele>
        <time>2025-12-19T10:48:38Z</time>
      </trkpt>
      <trkpt lat="43.65625" lon="1.1911">
        <ele>186.2</ele>
        <time>2025-12-19T10:48:39Z</time>
      </trkpt>
      <trkpt lat="43.65623" lon="1.19109">
        <ele>186.4</ele>
        <time>2025-12-19T10:48:40Z</time>
      </trkpt>
      <trkpt lat="43.6562" lon="1.19107">
        <ele>186.6</ele>
        <time>2025-12-19T10:48:41Z</time>
      </trkpt>
      <trkpt lat="43.65618" lon="1.19106">
        <ele>186.8</ele>
        <time>2025-12-19T10:48:42Z</time>
      </trkpt>
      <trkpt lat="43.65616" lon="1.19105">
        <ele>187</ele>
        <time>2025-12-19T10:48:43Z</time>
      </trkpt>
      <trkpt lat="43.65613" lon="1.19104">
        <ele>187.2</ele>
        <time>2025-12-19T10:48:44Z</time>
      </trkpt>
      <trkpt lat="43.65611" lon="1.19103">
        <ele>187.4</ele>
        <time>2025-12-19T10:48:45Z</time>
      </trkpt>
      <trkpt lat="43.65608" lon="1.19103">
        <ele>187.6</ele>
        <time>2025-12-19T10:48:46Z</time>
      </trkpt>
      <trkpt lat="43.65606" lon="1.19102">
        <ele>187.8</ele>
        <time>2025-12-19T10:48:47Z</time>
      </trkpt>
      <trkpt lat="43.65604" lon="1.19101">
        <ele>188</ele>
        <time>2025-12-19T10:48:48Z</time>
      </trkpt>
      <trkpt lat="43.65601" lon="1.191">
        <ele>188.2</ele>
        <time>2025-12-19T10:48:49Z</time>
      </trkpt>
      <trkpt lat="43.65599" lon="1.19099">
        <ele>188.4</ele>
        <time>2025-12-19T10:48:50Z</time>
      </trkpt>
      <trkpt lat="43.65597" lon="1.19097">
        <ele>188.8</ele>
        <time>2025-12-19T10:48:51Z</time>
      </trkpt>
      <trkpt lat="43.65595" lon="1.19096">
        <ele>189</ele>
        <time>2025-12-19T10:48:52Z</time>
      </trkpt>
      <trkpt lat="43.65593" lon="1.19096">
        <ele>189.2</ele>
        <time>2025-12-19T10:48:53Z</time>
      </trkpt>
      <trkpt lat="43.65591" lon="1.19095">
        <ele>189.4</ele>
        <time>2025-12-19T10:48:54Z</time>
      </trkpt>
      <trkpt lat="43.65588" lon="1.19094">
        <ele>189.6</ele>
        <time>2025-12-19T10:48:55Z</time>
      </trkpt>
      <trkpt lat="43.65586" lon="1.19094">
        <ele>190</ele>
        <time>2025-12-19T10:48:56Z</time>
      </trkpt>
      <trkpt lat="43.65584" lon="1.19093">
        <ele>190.2</ele>
        <time>2025-12-19T10:48:57Z</time>
      </trkpt>
      <trkpt lat="43.65582" lon="1.19092">
        <ele>190.4</ele>
        <time>2025-12-19T10:48:58Z</time>
      </trkpt>
      <trkpt lat="43.6558" lon="1.19092">
        <ele>190.6</ele>
        <time>2025-12-19T10:48:59Z</time>
      </trkpt>
      <trkpt lat="43.65578" lon="1.19092">
        <ele>190.8</ele>
        <time>2025-12-19T10:49:00Z</time>
      </trkpt>
      <trkpt lat="43.65576" lon="1.19091">
        <ele>191</ele>
        <time>2025-12-19T10:49:01Z</time>
      </trkpt>
      <trkpt lat="43.65574" lon="1.1909">
        <ele>191.2</ele>
        <time>2025-12-19T10:49:02Z</time>
      </trkpt>
      <trkpt lat="43.65572" lon="1.1909">
        <ele>191.4</ele>
        <time>2025-12-19T10:49:03Z</time>
      </trkpt>
      <trkpt lat="43.65569" lon="1.19089">
        <ele>191.6</ele>
        <time>2025-12-19T10:49:04Z</time>
      </trkpt>
      <trkpt lat="43.65567" lon="1.19088">
        <ele>191.8</ele>
        <time>2025-12-19T10:49:05Z</time>
      </trkpt>
      <trkpt lat="43.65565" lon="1.19087">
        <ele>192</ele>
        <time>2025-12-19T10:49:06Z</time>
      </trkpt>
      <trkpt lat="43.65563" lon="1.19087">
        <ele>192.4</ele>
        <time>2025-12-19T10:49:07Z</time>
      </trkpt>
      <trkpt lat="43.65561" lon="1.19086">
        <ele>192.6</ele>
        <time>2025-12-19T10:49:08Z</time>
      </trkpt>
      <trkpt lat="43.65559" lon="1.19085">
        <ele>192.8</ele>
        <time>2025-12-19T10:49:09Z</time>
      </trkpt>
      <trkpt lat="43.65557" lon="1.19084">
        <ele>193</ele>
        <time>2025-12-19T10:49:10Z</time>
      </trkpt>
      <trkpt lat="43.65555" lon="1.19084">
        <ele>193.2</ele>
        <time>2025-12-19T10:49:11Z</time>
      </trkpt>
      <trkpt lat="43.65553" lon="1.19083">
        <ele>193.6</ele>
        <time>2025-12-19T10:49:12Z</time>
      </trkpt>
      <trkpt lat="43.6555" lon="1.19082">
        <ele>193.8</ele>
        <time>2025-12-19T10:49:13Z</time>
      </trkpt>
      <trkpt lat="43.65548" lon="1.19082">
        <ele>194</ele>
        <time>2025-12-19T10:49:14Z</time>
      </trkpt>
      <trkpt lat="43.65546" lon="1.19081">
        <ele>194.2</ele>
        <time>2025-12-19T10:49:15Z</time>
      </trkpt>
      <trkpt lat="43.65544" lon="1.1908">
        <ele>194.6</ele>
        <time>2025-12-19T10:49:16Z</time>
      </trkpt>
      <trkpt lat="43.65542" lon="1.19079">
        <ele>194.8</ele>
        <time>2025-12-19T10:49:17Z</time>
      </trkpt>
      <trkpt lat="43.6554" lon="1.19079">
        <ele>195</ele>
        <time>2025-12-19T10:49:18Z</time>
      </trkpt>
      <trkpt lat="43.65538" lon="1.19078">
        <ele>195.2</ele>
        <time>2025-12-19T10:49:19Z</time>
      </trkpt>
      <trkpt lat="43.65536" lon="1.19078">
        <ele>195.6</ele>
        <time>2025-12-19T10:49:20Z</time>
      </trkpt>
      <trkpt lat="43.65534" lon="1.19077">
        <ele>195.6</ele>
        <time>2025-12-19T10:49:21Z</time>
      </trkpt>
      <trkpt lat="43.65532" lon="1.19077">
        <ele>196</ele>
        <time>2025-12-19T10:49:22Z</time>
      </trkpt>
      <trkpt lat="43.65529" lon="1.19077">
        <ele>196.2</ele>
        <time>2025-12-19T10:49:23Z</time>
      </trkpt>
      <trkpt lat="43.65527" lon="1.19076">
        <ele>196.4</ele>
        <time>2025-12-19T10:49:24Z</time>
      </trkpt>
      <trkpt lat="43.65525" lon="1.19076">
        <ele>196.6</ele>
        <time>2025-12-19T10:49:25Z</time>
      </trkpt>
      <trkpt lat="43.65524" lon="1.19075">
        <ele>196.8</ele>
        <time>2025-12-19T10:49:26Z</time>
      </trkpt>
      <trkpt lat="43.65521" lon="1.19075">
        <ele>197</ele>
        <time>2025-12-19T10:49:27Z</time>
      </trkpt>
      <trkpt lat="43.65519" lon="1.19074">
        <ele>197.4</ele>
        <time>2025-12-19T10:49:28Z</time>
      </trkpt>
      <trkpt lat="43.65517" lon="1.19074">
        <ele>197.6</ele>
        <time>2025-12-19T10:49:29Z</time>
      </trkpt>
      <trkpt lat="43.65515" lon="1.19073">
        <ele>197.8</ele>
        <time>2025-12-19T10:49:30Z</time>
      </trkpt>
      <trkpt lat="43.65512" lon="1.19073">
        <ele>198</ele>
        <time>2025-12-19T10:49:31Z</time>
      </trkpt>
      <trkpt lat="43.6551" lon="1.19073">
        <ele>198.2</ele>
        <time>2025-12-19T10:49:32Z</time>
      </trkpt>
      <trkpt lat="43.65508" lon="1.19072">
        <ele>198.4</ele>
        <time>2025-12-19T10:49:33Z</time>
      </trkpt>
      <trkpt lat="43.65506" lon="1.19071">
        <ele>198.6</ele>
        <time>2025-12-19T10:49:34Z</time>
      </trkpt>
      <trkpt lat="43.65503" lon="1.1907">
        <ele>198.8</ele>
        <time>2025-12-19T10:49:35Z</time>
      </trkpt>
      <trkpt lat="43.65501" lon="1.19069">
        <ele>199</ele>
        <time>2025-12-19T10:49:36Z</time>
      </trkpt>
      <trkpt lat="43.65499" lon="1.19069">
        <ele>199.4</ele>
        <time>2025-12-19T10:49:37Z</time>
      </trkpt>
      <trkpt lat="43.65496" lon="1.19068">
        <ele>199.6</ele>
        <time>2025-12-19T10:49:38Z</time>
      </trkpt>
      <trkpt lat="43.65494" lon="1.19067">
        <ele>199.8</ele>
        <time>2025-12-19T10:49:39Z</time>
      </trkpt>
      <trkpt lat="43.65492" lon="1.19067">
        <ele>200</ele>
        <time>2025-12-19T10:49:40Z</time>
      </trkpt>
      <trkpt lat="43.6549" lon="1.19066">
        <ele>200.2</ele>
        <time>2025-12-19T10:49:41Z</time>
      </trkpt>
      <trkpt lat="43.65487" lon="1.19065">
        <ele>200.4</ele>
        <time>2025-12-19T10:49:42Z</time>
      </trkpt>
      <trkpt lat="43.65485" lon="1.19064">
        <ele>200.6</ele>
        <time>2025-12-19T10:49:43Z</time>
      </trkpt>
      <trkpt lat="43.65483" lon="1.19064">
        <ele>200.8</ele>
        <time>2025-12-19T10:49:44Z</time>
      </trkpt>
      <trkpt lat="43.65481" lon="1.19064">
        <ele>201</ele>
        <time>2025-12-19T10:49:45Z</time>
      </trkpt>
      <trkpt lat="43.65479" lon="1.19063">
        <ele>201.2</ele>
        <time>2025-12-19T10:49:46Z</time>
      </trkpt>
      <trkpt lat="43.65476" lon="1.19062">
        <ele>201.4</ele>
        <time>2025-12-19T10:49:47Z</time>
      </trkpt>
      <trkpt lat="43.65474" lon="1.19061">
        <ele>201.6</ele>
        <time>2025-12-19T10:49:48Z</time>
      </trkpt>
      <trkpt lat="43.65473" lon="1.19062">
        <ele>202</ele>
        <time>2025-12-19T10:49:49Z</time>
      </trkpt>
      <trkpt lat="43.65471" lon="1.19061">
        <ele>202.2</ele>
        <time>2025-12-19T10:49:50Z</time>
      </trkpt>
      <trkpt lat="43.65468" lon="1.1906">
        <ele>202.4</ele>
        <time>2025-12-19T10:49:51Z</time>
      </trkpt>
      <trkpt lat="43.65466" lon="1.19059">
        <ele>202.6</ele>
        <time>2025-12-19T10:49:52Z</time>
      </trkpt>
      <trkpt lat="43.65464" lon="1.19059">
        <ele>202.8</ele>
        <time>2025-12-19T10:49:53Z</time>
      </trkpt>
      <trkpt lat="43.65462" lon="1.19058">
        <ele>203</ele>
        <time>2025-12-19T10:49:54Z</time>
      </trkpt>
      <trkpt lat="43.6546" lon="1.19058">
        <ele>203.2</ele>
        <time>2025-12-19T10:49:55Z</time>
      </trkpt>
      <trkpt lat="43.65458" lon="1.19057">
        <ele>203.4</ele>
        <time>2025-12-19T10:49:56Z</time>
      </trkpt>
      <trkpt lat="43.65457" lon="1.19057">
        <ele>203.6</ele>
        <time>2025-12-19T10:49:57Z</time>
      </trkpt>
      <trkpt lat="43.65455" lon="1.19056">
        <ele>204</ele>
        <time>2025-12-19T10:49:58Z</time>
      </trkpt>
      <trkpt lat="43.65453" lon="1.19056">
        <ele>204.2</ele>
        <time>2025-12-19T10:49:59Z</time>
      </trkpt>
      <trkpt lat="43.6545" lon="1.19055">
        <ele>204.4</ele>
        <time>2025-12-19T10:50:00Z</time>
      </trkpt>
      <trkpt lat="43.65448" lon="1.19055">
        <ele>204.6</ele>
        <time>2025-12-19T10:50:01Z</time>
      </trkpt>
      <trkpt lat="43.65446" lon="1.19054">
        <ele>204.8</ele>
        <time>2025-12-19T10:50:02Z</time>
      </trkpt>
      <trkpt lat="43.65444" lon="1.19054">
        <ele>205</ele>
        <time>2025-12-19T10:50:03Z</time>
      </trkpt>
      <trkpt lat="43.65442" lon="1.19054">
        <ele>205.4</ele>
        <time>2025-12-19T10:50:04Z</time>
      </trkpt>
      <trkpt lat="43.6544" lon="1.19053">
        <ele>205.6</ele>
        <time>2025-12-19T10:50:05Z</time>
      </trkpt>
      <trkpt lat="43.65439" lon="1.19052">
        <ele>205.8</ele>
        <time>2025-12-19T10:50:06Z</time>
      </trkpt>
      <trkpt lat="43.65437" lon="1.19052">
        <ele>206.2</ele>
        <time>2025-12-19T10:50:07Z</time>
      </trkpt>
      <trkpt lat="43.65435" lon="1.19052">
        <ele>206.4</ele>
        <time>2025-12-19T10:50:08Z</time>
      </trkpt>
      <trkpt lat="43.65433" lon="1.19051">
        <ele>206.8</ele>
        <time>2025-12-19T10:50:09Z</time>
      </trkpt>
      <trkpt lat="43.65431" lon="1.1905">
        <ele>207</ele>
        <time>2025-12-19T10:50:10Z</time>
      </trkpt>
      <trkpt lat="43.65429" lon="1.19049">
        <ele>207.4</ele>
        <time>2025-12-19T10:50:11Z</time>
      </trkpt>
      <trkpt lat="43.65427" lon="1.19049">
        <ele>207.6</ele>
        <time>2025-12-19T10:50:12Z</time>
      </trkpt>
      <trkpt lat="43.65424" lon="1.19048">
        <ele>207.8</ele>
        <time>2025-12-19T10:50:13Z</time>
      </trkpt>
      <trkpt lat="43.65422" lon="1.19048">
        <ele>208.2</ele>
        <time>2025-12-19T10:50:14Z</time>
      </trkpt>
      <trkpt lat="43.6542" lon="1.19047">
        <ele>208.6</ele>
        <time>2025-12-19T10:50:15Z</time>
      </trkpt>
      <trkpt lat="43.65419" lon="1.19047">
        <ele>208.8</ele>
        <time>2025-12-19T10:50:16Z</time>
      </trkpt>
      <trkpt lat="43.65417" lon="1.19046">
        <ele>209</ele>
        <time>2025-12-19T10:50:17Z</time>
      </trkpt>
      <trkpt lat="43.65415" lon="1.19045">
        <ele>209.4</ele>
        <time>2025-12-19T10:50:18Z</time>
      </trkpt>
      <trkpt lat="43.65413" lon="1.19044">
        <ele>209.6</ele>
        <time>2025-12-19T10:50:19Z</time>
      </trkpt>
      <trkpt lat="43.6541" lon="1.19044">
        <ele>210</ele>
        <time>2025-12-19T10:50:20Z</time>
      </trkpt>
      <trkpt lat="43.65408" lon="1.19044">
        <ele>210.2</ele>
        <time>2025-12-19T10:50:21Z</time>
      </trkpt>
      <trkpt lat="43.65406" lon="1.19044">
        <ele>210.6</ele>
        <time>2025-12-19T10:50:22Z</time>
      </trkpt>
      <trkpt lat="43.65404" lon="1.19043">
        <ele>210.8</ele>
        <time>2025-12-19T10:50:23Z</time>
      </trkpt>
      <trkpt lat="43.65402" lon="1.19041">
        <ele>211.2</ele>
        <time>2025-12-19T10:50:24Z</time>
      </trkpt>
      <trkpt lat="43.654" lon="1.19041">
        <ele>211.4</ele>
        <time>2025-12-19T10:50:25Z</time>
      </trkpt>
      <trkpt lat="43.65398" lon="1.19041">
        <ele>211.8</ele>
        <time>2025-12-19T10:50:26Z</time>
      </trkpt>
      <trkpt lat="43.65396" lon="1.1904">
        <ele>212</ele>
        <time>2025-12-19T10:50:27Z</time>
      </trkpt>
      <trkpt lat="43.65395" lon="1.19039">
        <ele>212.4</ele>
        <time>2025-12-19T10:50:28Z</time>
      </trkpt>
      <trkpt lat="43.65392" lon="1.19038">
        <ele>212.6</ele>
        <time>2025-12-19T10:50:29Z</time>
      </trkpt>
      <trkpt lat="43.6539" lon="1.19037">
        <ele>213</ele>
        <time>2025-12-19T10:50:30Z</time>
      </trkpt>
      <trkpt lat="43.65388" lon="1.19037">
        <ele>213.2</ele>
        <time>2025-12-19T10:50:31Z</time>
      </trkpt>
      <trkpt lat="43.65386" lon="1.19035">
        <ele>213.6</ele>
        <time>2025-12-19T10:50:32Z</time>
      </trkpt>
      <trkpt lat="43.65384" lon="1.19035">
        <ele>213.8</ele>
        <time>2025-12-19T10:50:33Z</time>
      </trkpt>
      <trkpt lat="43.65382" lon="1.19034">
        <ele>214.2</ele>
        <time>2025-12-19T10:50:34Z</time>
      </trkpt>
      <trkpt lat="43.6538" lon="1.19033">
        <ele>214.4</ele>
        <time>2025-12-19T10:50:35Z</time>
      </trkpt>
      <trkpt lat="43.65378" lon="1.19033">
        <ele>214.8</ele>
        <time>2025-12-19T10:50:36Z</time>
      </trkpt>
      <trkpt lat="43.65376" lon="1.19032">
        <ele>215</ele>
        <time>2025-12-19T10:50:37Z</time>
      </trkpt>
      <trkpt lat="43.65374" lon="1.19031">
        <ele>215.4</ele>
        <time>2025-12-19T10:50:38Z</time>
      </trkpt>
      <trkpt lat="43.65373" lon="1.1903">
        <ele>215.6</ele>
        <time>2025-12-19T10:50:39Z</time>
      </trkpt>
      <trkpt lat="43.65371" lon="1.1903">
        <ele>216</ele>
        <time>2025-12-19T10:50:40Z</time>
      </trkpt>
      <trkpt lat="43.65369" lon="1.1903">
        <ele>216.2</ele>
        <time>2025-12-19T10:50:41Z</time>
      </trkpt>
      <trkpt lat="43.65367" lon="1.1903">
        <ele>216.6</ele>
        <time>2025-12-19T10:50:42Z</time>
      </trkpt>
      <trkpt lat="43.65365" lon="1.19029">
        <ele>216.8</ele>
        <time>2025-12-19T10:50:43Z</time>
      </trkpt>
      <trkpt lat="43.65364" lon="1.19029">
        <ele>217.2</ele>
        <time>2025-12-19T10:50:44Z</time>
      </trkpt>
      <trkpt lat="43.65362" lon="1.19027">
        <ele>217.4</ele>
        <time>2025-12-19T10:50:45Z</time>
      </trkpt>
      <trkpt lat="43.65361" lon="1.19027">
        <ele>217.6</ele>
        <time>2025-12-19T10:50:46Z</time>
      </trkpt>
      <trkpt lat="43.65359" lon="1.19026">
        <ele>218</ele>
        <time>2025-12-19T10:50:47Z</time>
      </trkpt>
      <trkpt lat="43.65358" lon="1.19026">
        <ele>218.2</ele>
        <time>2025-12-19T10:50:48Z</time>
      </trkpt>
      <trkpt lat="43.65356" lon="1.19026">
        <ele>218.4</ele>
        <time>2025-12-19T10:50:49Z</time>
      </trkpt>
      <trkpt lat="43.65354" lon="1.19025">
        <ele>218.8</ele>
        <time>2025-12-19T10:50:50Z</time>
      </trkpt>
      <trkpt lat="43.65352" lon="1.19024">
        <ele>219</ele>
        <time>2025-12-19T10:50:51Z</time>
      </trkpt>
      <trkpt lat="43.6535" lon="1.19024">
        <ele>219.4</ele>
        <time>2025-12-19T10:50:52Z</time>
      </trkpt>
      <trkpt lat="43.65349" lon="1.19023">
        <ele>219.6</ele>
        <time>2025-12-19T10:50:53Z</time>
      </trkpt>
      <trkpt lat="43.65346" lon="1.19023">
        <ele>219.8</ele>
        <time>2025-12-19T10:50:54Z</time>
      </trkpt>
      <trkpt lat="43.65345" lon="1.19023">
        <ele>220</ele>
        <time>2025-12-19T10:50:55Z</time>
      </trkpt>
      <trkpt lat="43.65343" lon="1.19022">
        <ele>220.2</ele>
        <time>2025-12-19T10:50:56Z</time>
      </trkpt>
      <trkpt lat="43.65341" lon="1.19022">
        <ele>220.6</ele>
        <time>2025-12-19T10:50:57Z</time>
      </trkpt>
      <trkpt lat="43.65339" lon="1.19021">
        <ele>220.8</ele>
        <time>2025-12-19T10:50:58Z</time>
      </trkpt>
      <trkpt lat="43.65337" lon="1.19021">
        <ele>221</ele>
        <time>2025-12-19T10:50:59Z</time>
      </trkpt>
      <trkpt lat="43.65335" lon="1.19021">
        <ele>221.2</ele>
        <time>2025-12-19T10:51:00Z</time>
      </trkpt>
      <trkpt lat="43.65333" lon="1.1902">
        <ele>221.4</ele>
        <time>2025-12-19T10:51:01Z</time>
      </trkpt>
      <trkpt lat="43.65331" lon="1.19019">
        <ele>221.6</ele>
        <time>2025-12-19T10:51:02Z</time>
      </trkpt>
      <trkpt lat="43.65328" lon="1.19019">
        <ele>221.8</ele>
        <time>2025-12-19T10:51:03Z</time>
      </trkpt>
      <trkpt lat="43.65326" lon="1.19019">
        <ele>222</ele>
        <time>2025-12-19T10:51:04Z</time>
      </trkpt>
      <trkpt lat="43.65325" lon="1.19019">
        <ele>222.2</ele>
        <time>2025-12-19T10:51:05Z</time>
      </trkpt>
      <trkpt lat="43.65323" lon="1.19018">
        <ele>222.4</ele>
        <time>2025-12-19T10:51:06Z</time>
      </trkpt>
      <trkpt lat="43.65321" lon="1.19017">
        <ele>222.6</ele>
        <time>2025-12-19T10:51:07Z</time>
      </trkpt>
      <trkpt lat="43.65319" lon="1.19017">
        <ele>223</ele>
        <time>2025-12-19T10:51:08Z</time>
      </trkpt>
      <trkpt lat="43.65316" lon="1.19017">
        <ele>223.2</ele>
        <time>2025-12-19T10:51:09Z</time>
      </trkpt>
      <trkpt lat="43.65314" lon="1.19016">
        <ele>223.4</ele>
        <time>2025-12-19T10:51:10Z</time>
      </trkpt>
      <trkpt lat="43.65312" lon="1.19016">
        <ele>223.4</ele>
        <time>2025-12-19T10:51:11Z</time>
      </trkpt>
      <trkpt lat="43.6531" lon="1.19015">
        <ele>223.6</ele>
        <time>2025-12-19T10:51:12Z</time>
      </trkpt>
      <trkpt lat="43.65308" lon="1.19015">
        <ele>224</ele>
        <time>2025-12-19T10:51:13Z</time>
      </trkpt>
      <trkpt lat="43.65307" lon="1.19015">
        <ele>224.2</ele>
        <time>2025-12-19T10:51:14Z</time>
      </trkpt>
      <trkpt lat="43.65305" lon="1.19015">
        <ele>224.2</ele>
        <time>2025-12-19T10:51:15Z</time>
      </trkpt>
      <trkpt lat="43.65303" lon="1.19014">
        <ele>224.6</ele>
        <time>2025-12-19T10:51:16Z</time>
      </trkpt>
      <trkpt lat="43.65301" lon="1.19014">
        <ele>224.8</ele>
        <time>2025-12-19T10:51:17Z</time>
      </trkpt>
      <trkpt lat="43.65299" lon="1.19013">
        <ele>225</ele>
        <time>2025-12-19T10:51:18Z</time>
      </trkpt>
      <trkpt lat="43.65297" lon="1.19012">
        <ele>225.2</ele>
        <time>2025-12-19T10:51:19Z</time>
      </trkpt>
      <trkpt lat="43.65295" lon="1.19012">
        <ele>225.4</ele>
        <time>2025-12-19T10:51:20Z</time>
      </trkpt>
      <trkpt lat="43.65293" lon="1.19011">
        <ele>225.4</ele>
        <time>2025-12-19T10:51:21Z</time>
      </trkpt>
      <trkpt lat="43.65291" lon="1.19011">
        <ele>225.6</ele>
        <time>2025-12-19T10:51:22Z</time>
      </trkpt>
      <trkpt lat="43.65289" lon="1.1901">
        <ele>225.8</ele>
        <time>2025-12-19T10:51:23Z</time>
      </trkpt>
      <trkpt lat="43.65287" lon="1.1901">
        <ele>226</ele>
        <time>2025-12-19T10:51:24Z</time>
      </trkpt>
      <trkpt lat="43.65285" lon="1.1901">
        <ele>226.2</ele>
        <time>2025-12-19T10:51:25Z</time>
      </trkpt>
      <trkpt lat="43.65283" lon="1.1901">
        <ele>226.4</ele>
        <time>2025-12-19T10:51:26Z</time>
      </trkpt>
      <trkpt lat="43.65281" lon="1.19009">
        <ele>226.6</ele>
        <time>2025-12-19T10:51:27Z</time>
      </trkpt>
      <trkpt lat="43.65279" lon="1.19008">
        <ele>226.8</ele>
        <time>2025-12-19T10:51:28Z</time>
      </trkpt>
      <trkpt lat="43.65277" lon="1.19008">
        <ele>227.2</ele>
        <time>2025-12-19T10:51:29Z</time>
      </trkpt>
      <trkpt lat="43.65274" lon="1.19008">
        <ele>227.4</ele>
        <time>2025-12-19T10:51:30Z</time>
      </trkpt>
      <trkpt lat="43.65272" lon="1.19008">
        <ele>227.6</ele>
        <time>2025-12-19T10:51:31Z</time>
      </trkpt>
      <trkpt lat="43.6527" lon="1.19008">
        <ele>227.6</ele>
        <time>2025-12-19T10:51:32Z</time>
      </trkpt>
      <trkpt lat="43.65268" lon="1.19008">
        <ele>227.8</ele>
        <time>2025-12-19T10:51:33Z</time>
      </trkpt>
      <trkpt lat="43.65265" lon="1.19007">
        <ele>228</ele>
        <time>2025-12-19T10:51:34Z</time>
      </trkpt>
      <trkpt lat="43.65263" lon="1.19008">
        <ele>228.2</ele>
        <time>2025-12-19T10:51:35Z</time>
      </trkpt>
      <trkpt lat="43.65261" lon="1.19008">
        <ele>228.4</ele>
        <time>2025-12-19T10:51:36Z</time>
      </trkpt>
      <trkpt lat="43.65258" lon="1.19007">
        <ele>228.4</ele>
        <time>2025-12-19T10:51:37Z</time>
      </trkpt>
      <trkpt lat="43.65256" lon="1.19007">
        <ele>228.6</ele>
        <time>2025-12-19T10:51:38Z</time>
      </trkpt>
      <trkpt lat="43.65253" lon="1.19007">
        <ele>228.8</ele>
        <time>2025-12-19T10:51:39Z</time>
      </trkpt>
      <trkpt lat="43.6525" lon="1.19008">
        <ele>229</ele>
        <time>2025-12-19T10:51:40Z</time>
      </trkpt>
      <trkpt lat="43.65248" lon="1.19008">
        <ele>229</ele>
        <time>2025-12-19T10:51:41Z</time>
      </trkpt>
      <trkpt lat="43.65245" lon="1.19008">
        <ele>229</ele>
        <time>2025-12-19T10:51:42Z</time>
      </trkpt>
      <trkpt lat="43.65243" lon="1.19008">
        <ele>229</ele>
        <time>2025-12-19T10:51:43Z</time>
      </trkpt>
      <trkpt lat="43.6524" lon="1.19008">
        <ele>229.2</ele>
        <time>2025-12-19T10:51:44Z</time>
      </trkpt>
      <trkpt lat="43.65237" lon="1.19008">
        <ele>229.2</ele>
        <time>2025-12-19T10:51:45Z</time>
      </trkpt>
      <trkpt lat="43.65234" lon="1.19008">
        <ele>229.4</ele>
        <time>2025-12-19T10:51:46Z</time>
      </trkpt>
      <trkpt lat="43.6523" lon="1.19008">
        <ele>229.4</ele>
        <time>2025-12-19T10:51:47Z</time>
      </trkpt>
      <trkpt lat="43.65227" lon="1.19007">
        <ele>229.4</ele>
        <time>2025-12-19T10:51:48Z</time>
      </trkpt>
      <trkpt lat="43.65223" lon="1.19006">
        <ele>229.4</ele>
        <time>2025-12-19T10:51:49Z</time>
      </trkpt>
      <trkpt lat="43.6522" lon="1.19006">
        <ele>229.6</ele>
        <time>2025-12-19T10:51:50Z</time>
      </trkpt>
      <trkpt lat="43.65216" lon="1.19005">
        <ele>229.6</ele>
        <time>2025-12-19T10:51:51Z</time>
      </trkpt>
      <trkpt lat="43.65212" lon="1.19004">
        <ele>229.8</ele>
        <time>2025-12-19T10:51:52Z</time>
      </trkpt>
      <trkpt lat="43.65209" lon="1.19003">
        <ele>229.8</ele>
        <time>2025-12-19T10:51:53Z</time>
      </trkpt>
      <trkpt lat="43.65205" lon="1.19002">
        <ele>230</ele>
        <time>2025-12-19T10:51:54Z</time>
      </trkpt>
      <trkpt lat="43.65201" lon="1.19">
        <ele>230</ele>
        <time>2025-12-19T10:51:55Z</time>
      </trkpt>
      <trkpt lat="43.65197" lon="1.18999">
        <ele>230</ele>
        <time>2025-12-19T10:51:56Z</time>
      </trkpt>
      <trkpt lat="43.65193" lon="1.18997">
        <ele>230</ele>
        <time>2025-12-19T10:51:57Z</time>
      </trkpt>
      <trkpt lat="43.65189" lon="1.18995">
        <ele>230</ele>
        <time>2025-12-19T10:51:58Z</time>
      </trkpt>
      <trkpt lat="43.65185" lon="1.18993">
        <ele>230</ele>
        <time>2025-12-19T10:51:59Z</time>
      </trkpt>
      <trkpt lat="43.65181" lon="1.18991">
        <ele>229.8</ele>
        <time>2025-12-19T10:52:00Z</time>
      </trkpt>
      <trkpt lat="43.65176" lon="1.18989">
        <ele>229.8</ele>
        <time>2025-12-19T10:52:01Z</time>
      </trkpt>
      <trkpt lat="43.65171" lon="1.18987">
        <ele>229.6</ele>
        <time>2025-12-19T10:52:02Z</time>
      </trkpt>
      <trkpt lat="43.65166" lon="1.18985">
        <ele>229.6</ele>
        <time>2025-12-19T10:52:03Z</time>
      </trkpt>
      <trkpt lat="43.65161" lon="1.18984">
        <ele>229.2</ele>
        <time>2025-12-19T10:52:04Z</time>
      </trkpt>
      <trkpt lat="43.65156" lon="1.18982">
        <ele>229.2</ele>
        <time>2025-12-19T10:52:05Z</time>
      </trkpt>
      <trkpt lat="43.6515" lon="1.1898">
        <ele>229</ele>
        <time>2025-12-19T10:52:06Z</time>
      </trkpt>
      <trkpt lat="43.65145" lon="1.18978">
        <ele>229</ele>
        <time>2025-12-19T10:52:07Z</time>
      </trkpt>
      <trkpt lat="43.65139" lon="1.18977">
        <ele>228.8</ele>
        <time>2025-12-19T10:52:08Z</time>
      </trkpt>
      <trkpt lat="43.65133" lon="1.18975">
        <ele>228.8</ele>
        <time>2025-12-19T10:52:09Z</time>
      </trkpt>
      <trkpt lat="43.65127" lon="1.18973">
        <ele>228.6</ele>
        <time>2025-12-19T10:52:10Z</time>
      </trkpt>
      <trkpt lat="43.65121" lon="1.18973">
        <ele>228.4</ele>
        <time>2025-12-19T10:52:11Z</time>
      </trkpt>
      <trkpt lat="43.65114" lon="1.18972">
        <ele>228.4</ele>
        <time>2025-12-19T10:52:12Z</time>
      </trkpt>
      <trkpt lat="43.65108" lon="1.18971">
        <ele>228.2</ele>
        <time>2025-12-19T10:52:13Z</time>
      </trkpt>
      <trkpt lat="43.65101" lon="1.18971">
        <ele>228.2</ele>
        <time>2025-12-19T10:52:14Z</time>
      </trkpt>
      <trkpt lat="43.65095" lon="1.1897">
        <ele>228</ele>
        <time>2025-12-19T10:52:15Z</time>
      </trkpt>
      <trkpt lat="43.65088" lon="1.1897">
        <ele>228</ele>
        <time>2025-12-19T10:52:16Z</time>
      </trkpt>
      <trkpt lat="43.65082" lon="1.1897">
        <ele>228</ele>
        <time>2025-12-19T10:52:17Z</time>
      </trkpt>
      <trkpt lat="43.65076" lon="1.1897">
        <ele>228</ele>
        <time>2025-12-19T10:52:18Z</time>
      </trkpt>
      <trkpt lat="43.65069" lon="1.1897">
        <ele>228</ele>
        <time>2025-12-19T10:52:19Z</time>
      </trkpt>
      <trkpt lat="43.65063" lon="1.1897">
        <ele>228</ele>
        <time>2025-12-19T10:52:20Z</time>
      </trkpt>
      <trkpt lat="43.65056" lon="1.1897">
        <ele>228</ele>
        <time>2025-12-19T10:52:21Z</time>
      </trkpt>
      <trkpt lat="43.65049" lon="1.1897">
        <ele>228</ele>
        <time>2025-12-19T10:52:22Z</time>
      </trkpt>
      <trkpt lat="43.65043" lon="1.1897">
        <ele>228</ele>
        <time>2025-12-19T10:52:23Z</time>
      </trkpt>
      <trkpt lat="43.65037" lon="1.1897">
        <ele>228.2</ele>
        <time>2025-12-19T10:52:24Z</time>
      </trkpt>
      <trkpt lat="43.6503" lon="1.1897">
        <ele>228.2</ele>
        <time>2025-12-19T10:52:25Z</time>
      </trkpt>
      <trkpt lat="43.65024" lon="1.18971">
        <ele>228.2</ele>
        <time>2025-12-19T10:52:26Z</time>
      </trkpt>
      <trkpt lat="43.65018" lon="1.18971">
        <ele>228.4</ele>
        <time>2025-12-19T10:52:27Z</time>
      </trkpt>
      <trkpt lat="43.65013" lon="1.18972">
        <ele>228.6</ele>
        <time>2025-12-19T10:52:28Z</time>
      </trkpt>
      <trkpt lat="43.65007" lon="1.18972">
        <ele>228.6</ele>
        <time>2025-12-19T10:52:29Z</time>
      </trkpt>
      <trkpt lat="43.65002" lon="1.18972">
        <ele>228.6</ele>
        <time>2025-12-19T10:52:30Z</time>
      </trkpt>
      <trkpt lat="43.64996" lon="1.18972">
        <ele>228.8</ele>
        <time>2025-12-19T10:52:31Z</time>
      </trkpt>
      <trkpt lat="43.64991" lon="1.18972">
        <ele>228.6</ele>
        <time>2025-12-19T10:52:32Z</time>
      </trkpt>
      <trkpt lat="43.64986" lon="1.18973">
        <ele>228.6</ele>
        <time>2025-12-19T10:52:33Z</time>
      </trkpt>
      <trkpt lat="43.6498" lon="1.18975">
        <ele>228.6</ele>
        <time>2025-12-19T10:52:34Z</time>
      </trkpt>
      <trkpt lat="43.64975" lon="1.18979">
        <ele>228.4</ele>
        <time>2025-12-19T10:52:35Z</time>
      </trkpt>
      <trkpt lat="43.6497" lon="1.18985">
        <ele>228.2</ele>
        <time>2025-12-19T10:52:36Z</time>
      </trkpt>
      <trkpt lat="43.64964" lon="1.1899">
        <ele>227.8</ele>
        <time>2025-12-19T10:52:37Z</time>
      </trkpt>
      <trkpt lat="43.64958" lon="1.18995">
        <ele>227.4</ele>
        <time>2025-12-19T10:52:38Z</time>
      </trkpt>
      <trkpt lat="43.64951" lon="1.18998">
        <ele>227</ele>
        <time>2025-12-19T10:52:39Z</time>
      </trkpt>
      <trkpt lat="43.64944" lon="1.18999">
        <ele>226.8</ele>
        <time>2025-12-19T10:52:40Z</time>
      </trkpt>
      <trkpt lat="43.64937" lon="1.18999">
        <ele>226.6</ele>
        <time>2025-12-19T10:52:41Z</time>
      </trkpt>
      <trkpt lat="43.64931" lon="1.18998">
        <ele>226.6</ele>
        <time>2025-12-19T10:52:42Z</time>
      </trkpt>
      <trkpt lat="43.64925" lon="1.18998">
        <ele>226.6</ele>
        <time>2025-12-19T10:52:43Z</time>
      </trkpt>
      <trkpt lat="43.64918" lon="1.18997">
        <ele>226.8</ele>
        <time>2025-12-19T10:52:44Z</time>
      </trkpt>
      <trkpt lat="43.64912" lon="1.18996">
        <ele>226.8</ele>
        <time>2025-12-19T10:52:45Z</time>
      </trkpt>
      <trkpt lat="43.64906" lon="1.18996">
        <ele>227</ele>
        <time>2025-12-19T10:52:46Z</time>
      </trkpt>
      <trkpt lat="43.649" lon="1.18995">
        <ele>227.2</ele>
        <time>2025-12-19T10:52:47Z</time>
      </trkpt>
      <trkpt lat="43.64895" lon="1.18994">
        <ele>227.4</ele>
        <time>2025-12-19T10:52:48Z</time>
      </trkpt>
      <trkpt lat="43.6489" lon="1.18994">
        <ele>227.8</ele>
        <time>2025-12-19T10:52:49Z</time>
      </trkpt>
      <trkpt lat="43.64885" lon="1.18994">
        <ele>228</ele>
        <time>2025-12-19T10:52:50Z</time>
      </trkpt>
      <trkpt lat="43.6488" lon="1.18994">
        <ele>228.2</ele>
        <time>2025-12-19T10:52:51Z</time>
      </trkpt>
      <trkpt lat="43.64876" lon="1.18994">
        <ele>228.6</ele>
        <time>2025-12-19T10:52:52Z</time>
      </trkpt>
      <trkpt lat="43.64871" lon="1.18994">
        <ele>229</ele>
        <time>2025-12-19T10:52:53Z</time>
      </trkpt>
      <trkpt lat="43.64866" lon="1.18995">
        <ele>229.2</ele>
        <time>2025-12-19T10:52:54Z</time>
      </trkpt>
      <trkpt lat="43.64861" lon="1.18996">
        <ele>229.6</ele>
        <time>2025-12-19T10:52:55Z</time>
      </trkpt>
      <trkpt lat="43.64857" lon="1.18997">
        <ele>229.8</ele>
        <time>2025-12-19T10:52:56Z</time>
      </trkpt>
      <trkpt lat="43.64852" lon="1.18998">
        <ele>230</ele>
        <time>2025-12-19T10:52:57Z</time>
      </trkpt>
      <trkpt lat="43.64847" lon="1.18999">
        <ele>230</ele>
        <time>2025-12-19T10:52:58Z</time>
      </trkpt>
      <trkpt lat="43.64842" lon="1.19">
        <ele>230.2</ele>
        <time>2025-12-19T10:52:59Z</time>
      </trkpt>
      <trkpt lat="43.64838" lon="1.19002">
        <ele>230.4</ele>
        <time>2025-12-19T10:53:00Z</time>
      </trkpt>
      <trkpt lat="43.64833" lon="1.19003">
        <ele>230.4</ele>
        <time>2025-12-19T10:53:01Z</time>
      </trkpt>
      <trkpt lat="43.64828" lon="1.19004">
        <ele>230.4</ele>
        <time>2025-12-19T10:53:02Z</time>
      </trkpt>
      <trkpt lat="43.64823" lon="1.19005">
        <ele>230.6</ele>
        <time>2025-12-19T10:53:03Z</time>
      </trkpt>
      <trkpt lat="43.64818" lon="1.19006">
        <ele>230.6</ele>
        <time>2025-12-19T10:53:04Z</time>
      </trkpt>
      <trkpt lat="43.64813" lon="1.19007">
        <ele>230.6</ele>
        <time>2025-12-19T10:53:05Z</time>
      </trkpt>
      <trkpt lat="43.64808" lon="1.19008">
        <ele>230.8</ele>
        <time>2025-12-19T10:53:06Z</time>
      </trkpt>
      <trkpt lat="43.64803" lon="1.1901">
        <ele>230.8</ele>
        <time>2025-12-19T10:53:07Z</time>
      </trkpt>
      <trkpt lat="43.64798" lon="1.19012">
        <ele>231</ele>
        <time>2025-12-19T10:53:08Z</time>
      </trkpt>
      <trkpt lat="43.64792" lon="1.19014">
        <ele>231</ele>
        <time>2025-12-19T10:53:09Z</time>
      </trkpt>
      <trkpt lat="43.64788" lon="1.19016">
        <ele>231.2</ele>
        <time>2025-12-19T10:53:10Z</time>
      </trkpt>
      <trkpt lat="43.64782" lon="1.19018">
        <ele>231.4</ele>
        <time>2025-12-19T10:53:11Z</time>
      </trkpt>
      <trkpt lat="43.64777" lon="1.1902">
        <ele>231.4</ele>
        <time>2025-12-19T10:53:12Z</time>
      </trkpt>
      <trkpt lat="43.64772" lon="1.19022">
        <ele>231.6</ele>
        <time>2025-12-19T10:53:13Z</time>
      </trkpt>
      <trkpt lat="43.64767" lon="1.19024">
        <ele>231.8</ele>
        <time>2025-12-19T10:53:14Z</time>
      </trkpt>
      <trkpt lat="43.64761" lon="1.19026">
        <ele>232</ele>
        <time>2025-12-19T10:53:15Z</time>
      </trkpt>
      <trkpt lat="43.64756" lon="1.19027">
        <ele>232</ele>
        <time>2025-12-19T10:53:16Z</time>
      </trkpt>
      <trkpt lat="43.64751" lon="1.19028">
        <ele>232</ele>
        <time>2025-12-19T10:53:17Z</time>
      </trkpt>
      <trkpt lat="43.64746" lon="1.19029">
        <ele>231.8</ele>
        <time>2025-12-19T10:53:18Z</time>
      </trkpt>
      <trkpt lat="43.6474" lon="1.19029">
        <ele>231.6</ele>
        <time>2025-12-19T10:53:19Z</time>
      </trkpt>
      <trkpt lat="43.64734" lon="1.19029">
        <ele>231.6</ele>
        <time>2025-12-19T10:53:20Z</time>
      </trkpt>
      <trkpt lat="43.64729" lon="1.1903">
        <ele>231.6</ele>
        <time>2025-12-19T10:53:21Z</time>
      </trkpt>
      <trkpt lat="43.64723" lon="1.1903">
        <ele>231.6</ele>
        <time>2025-12-19T10:53:22Z</time>
      </trkpt>
      <trkpt lat="43.64717" lon="1.1903">
        <ele>231.8</ele>
        <time>2025-12-19T10:53:23Z</time>
      </trkpt>
      <trkpt lat="43.64711" lon="1.1903">
        <ele>231.8</ele>
        <time>2025-12-19T10:53:24Z</time>
      </trkpt>
      <trkpt lat="43.64705" lon="1.1903">
        <ele>232</ele>
        <time>2025-12-19T10:53:25Z</time>
      </trkpt>
      <trkpt lat="43.64699" lon="1.19031">
        <ele>232</ele>
        <time>2025-12-19T10:53:26Z</time>
      </trkpt>
      <trkpt lat="43.64693" lon="1.19032">
        <ele>232</ele>
        <time>2025-12-19T10:53:27Z</time>
      </trkpt>
      <trkpt lat="43.64687" lon="1.19033">
        <ele>232</ele>
        <time>2025-12-19T10:53:28Z</time>
      </trkpt>
      <trkpt lat="43.64681" lon="1.19034">
        <ele>232</ele>
        <time>2025-12-19T10:53:29Z</time>
      </trkpt>
      <trkpt lat="43.64675" lon="1.19036">
        <ele>232</ele>
        <time>2025-12-19T10:53:30Z</time>
      </trkpt>
      <trkpt lat="43.64669" lon="1.19038">
        <ele>232.2</ele>
        <time>2025-12-19T10:53:31Z</time>
      </trkpt>
      <trkpt lat="43.64663" lon="1.1904">
        <ele>232.2</ele>
        <time>2025-12-19T10:53:32Z</time>
      </trkpt>
      <trkpt lat="43.64658" lon="1.19042">
        <ele>232.4</ele>
        <time>2025-12-19T10:53:33Z</time>
      </trkpt>
      <trkpt lat="43.64652" lon="1.19044">
        <ele>232.4</ele>
        <time>2025-12-19T10:53:34Z</time>
      </trkpt>
      <trkpt lat="43.64646" lon="1.19047">
        <ele>232.4</ele>
        <time>2025-12-19T10:53:35Z</time>
      </trkpt>
      <trkpt lat="43.6464" lon="1.19049">
        <ele>232.4</ele>
        <time>2025-12-19T10:53:36Z</time>
      </trkpt>
      <trkpt lat="43.64635" lon="1.19051">
        <ele>232.6</ele>
        <time>2025-12-19T10:53:37Z</time>
      </trkpt>
      <trkpt lat="43.64629" lon="1.19053">
        <ele>232.6</ele>
        <time>2025-12-19T10:53:38Z</time>
      </trkpt>
      <trkpt lat="43.64623" lon="1.19055">
        <ele>232.8</ele>
        <time>2025-12-19T10:53:39Z</time>
      </trkpt>
      <trkpt lat="43.64616" lon="1.19057">
        <ele>233</ele>
        <time>2025-12-19T10:53:40Z</time>
      </trkpt>
      <trkpt lat="43.6461" lon="1.19058">
        <ele>233</ele>
        <time>2025-12-19T10:53:41Z</time>
      </trkpt>
      <trkpt lat="43.64604" lon="1.1906">
        <ele>233</ele>
        <time>2025-12-19T10:53:42Z</time>
      </trkpt>
      <trkpt lat="43.64598" lon="1.19062">
        <ele>233.2</ele>
        <time>2025-12-19T10:53:43Z</time>
      </trkpt>
      <trkpt lat="43.64593" lon="1.19064">
        <ele>233.2</ele>
        <time>2025-12-19T10:53:44Z</time>
      </trkpt>
      <trkpt lat="43.64587" lon="1.19066">
        <ele>233.2</ele>
        <time>2025-12-19T10:53:45Z</time>
      </trkpt>
      <trkpt lat="43.64581" lon="1.19068">
        <ele>233.2</ele>
        <time>2025-12-19T10:53:46Z</time>
      </trkpt>
      <trkpt lat="43.64575" lon="1.1907">
        <ele>233.4</ele>
        <time>2025-12-19T10:53:47Z</time>
      </trkpt>
      <trkpt lat="43.64569" lon="1.19071">
        <ele>233.4</ele>
        <time>2025-12-19T10:53:48Z</time>
      </trkpt>
      <trkpt lat="43.64562" lon="1.19072">
        <ele>233.6</ele>
        <time>2025-12-19T10:53:49Z</time>
      </trkpt>
      <trkpt lat="43.64556" lon="1.19073">
        <ele>233.6</ele>
        <time>2025-12-19T10:53:50Z</time>
      </trkpt>
      <trkpt lat="43.64551" lon="1.19074">
        <ele>233.8</ele>
        <time>2025-12-19T10:53:51Z</time>
      </trkpt>
      <trkpt lat="43.64544" lon="1.19074">
        <ele>233.8</ele>
        <time>2025-12-19T10:53:52Z</time>
      </trkpt>
      <trkpt lat="43.64538" lon="1.19075">
        <ele>234</ele>
        <time>2025-12-19T10:53:53Z</time>
      </trkpt>
      <trkpt lat="43.64532" lon="1.19075">
        <ele>234</ele>
        <time>2025-12-19T10:53:54Z</time>
      </trkpt>
      <trkpt lat="43.64525" lon="1.19076">
        <ele>234.2</ele>
        <time>2025-12-19T10:53:55Z</time>
      </trkpt>
      <trkpt lat="43.64519" lon="1.19076">
        <ele>234.2</ele>
        <time>2025-12-19T10:53:56Z</time>
      </trkpt>
      <trkpt lat="43.64512" lon="1.19076">
        <ele>234.2</ele>
        <time>2025-12-19T10:53:57Z</time>
      </trkpt>
      <trkpt lat="43.64506" lon="1.19077">
        <ele>234.4</ele>
        <time>2025-12-19T10:53:58Z</time>
      </trkpt>
      <trkpt lat="43.64499" lon="1.19077">
        <ele>234.4</ele>
        <time>2025-12-19T10:53:59Z</time>
      </trkpt>
      <trkpt lat="43.64493" lon="1.19078">
        <ele>234.4</ele>
        <time>2025-12-19T10:54:00Z</time>
      </trkpt>
      <trkpt lat="43.64486" lon="1.19079">
        <ele>234.2</ele>
        <time>2025-12-19T10:54:01Z</time>
      </trkpt>
      <trkpt lat="43.6448" lon="1.1908">
        <ele>234.2</ele>
        <time>2025-12-19T10:54:02Z</time>
      </trkpt>
      <trkpt lat="43.64474" lon="1.19081">
        <ele>234</ele>
        <time>2025-12-19T10:54:03Z</time>
      </trkpt>
      <trkpt lat="43.64467" lon="1.19082">
        <ele>233.8</ele>
        <time>2025-12-19T10:54:04Z</time>
      </trkpt>
      <trkpt lat="43.64461" lon="1.19083">
        <ele>234</ele>
        <time>2025-12-19T10:54:05Z</time>
      </trkpt>
      <trkpt lat="43.64455" lon="1.19085">
        <ele>233.8</ele>
        <time>2025-12-19T10:54:06Z</time>
      </trkpt>
      <trkpt lat="43.64449" lon="1.19086">
        <ele>233.8</ele>
        <time>2025-12-19T10:54:07Z</time>
      </trkpt>
      <trkpt lat="43.64443" lon="1.19088">
        <ele>233.6</ele>
        <time>2025-12-19T10:54:08Z</time>
      </trkpt>
      <trkpt lat="43.64436" lon="1.1909">
        <ele>233.6</ele>
        <time>2025-12-19T10:54:09Z</time>
      </trkpt>
      <trkpt lat="43.6443" lon="1.19091">
        <ele>233.4</ele>
        <time>2025-12-19T10:54:10Z</time>
      </trkpt>
      <trkpt lat="43.64423" lon="1.19093">
        <ele>233.2</ele>
        <time>2025-12-19T10:54:11Z</time>
      </trkpt>
      <trkpt lat="43.64416" lon="1.19095">
        <ele>233.2</ele>
        <time>2025-12-19T10:54:12Z</time>
      </trkpt>
      <trkpt lat="43.64409" lon="1.19097">
        <ele>233</ele>
        <time>2025-12-19T10:54:13Z</time>
      </trkpt>
      <trkpt lat="43.64402" lon="1.19098">
        <ele>232.8</ele>
        <time>2025-12-19T10:54:14Z</time>
      </trkpt>
      <trkpt lat="43.64394" lon="1.191">
        <ele>232.8</ele>
        <time>2025-12-19T10:54:15Z</time>
      </trkpt>
      <trkpt lat="43.64387" lon="1.19101">
        <ele>232.6</ele>
        <time>2025-12-19T10:54:16Z</time>
      </trkpt>
      <trkpt lat="43.6438" lon="1.19102">
        <ele>232.4</ele>
        <time>2025-12-19T10:54:17Z</time>
      </trkpt>
      <trkpt lat="43.64372" lon="1.19104">
        <ele>232</ele>
        <time>2025-12-19T10:54:18Z</time>
      </trkpt>
      <trkpt lat="43.64365" lon="1.19104">
        <ele>231.8</ele>
        <time>2025-12-19T10:54:19Z</time>
      </trkpt>
      <trkpt lat="43.64357" lon="1.19106">
        <ele>231.4</ele>
        <time>2025-12-19T10:54:20Z</time>
      </trkpt>
      <trkpt lat="43.6435" lon="1.19107">
        <ele>231.2</ele>
        <time>2025-12-19T10:54:21Z</time>
      </trkpt>
      <trkpt lat="43.64341" lon="1.19108">
        <ele>231</ele>
        <time>2025-12-19T10:54:22Z</time>
      </trkpt>
      <trkpt lat="43.64333" lon="1.19108">
        <ele>230.8</ele>
        <time>2025-12-19T10:54:23Z</time>
      </trkpt>
      <trkpt lat="43.64325" lon="1.19107">
        <ele>230.4</ele>
        <time>2025-12-19T10:54:24Z</time>
      </trkpt>
      <trkpt lat="43.64318" lon="1.19106">
        <ele>230.2</ele>
        <time>2025-12-19T10:54:25Z</time>
      </trkpt>
      <trkpt lat="43.64311" lon="1.19106">
        <ele>230</ele>
        <time>2025-12-19T10:54:26Z</time>
      </trkpt>
      <trkpt lat="43.64303" lon="1.19106">
        <ele>230</ele>
        <time>2025-12-19T10:54:27Z</time>
      </trkpt>
      <trkpt lat="43.64296" lon="1.19105">
        <ele>229.8</ele>
        <time>2025-12-19T10:54:28Z</time>
      </trkpt>
      <trkpt lat="43.64289" lon="1.19104">
        <ele>229.8</ele>
        <time>2025-12-19T10:54:29Z</time>
      </trkpt>
      <trkpt lat="43.64282" lon="1.19103">
        <ele>229.8</ele>
        <time>2025-12-19T10:54:30Z</time>
      </trkpt>
      <trkpt lat="43.64275" lon="1.19103">
        <ele>229.8</ele>
        <time>2025-12-19T10:54:31Z</time>
      </trkpt>
      <trkpt lat="43.64268" lon="1.19103">
        <ele>229.8</ele>
        <time>2025-12-19T10:54:32Z</time>
      </trkpt>
      <trkpt lat="43.64261" lon="1.19104">
        <ele>229.8</ele>
        <time>2025-12-19T10:54:33Z</time>
      </trkpt>
      <trkpt lat="43.64254" lon="1.19105">
        <ele>230</ele>
        <time>2025-12-19T10:54:34Z</time>
      </trkpt>
      <trkpt lat="43.64248" lon="1.19104">
        <ele>230</ele>
        <time>2025-12-19T10:54:35Z</time>
      </trkpt>
      <trkpt lat="43.64241" lon="1.19102">
        <ele>230.2</ele>
        <time>2025-12-19T10:54:36Z</time>
      </trkpt>
      <trkpt lat="43.64235" lon="1.19097">
        <ele>230.4</ele>
        <time>2025-12-19T10:54:37Z</time>
      </trkpt>
      <trkpt lat="43.6423" lon="1.19091">
        <ele>230.4</ele>
        <time>2025-12-19T10:54:38Z</time>
      </trkpt>
      <trkpt lat="43.64224" lon="1.19085">
        <ele>230.4</ele>
        <time>2025-12-19T10:54:39Z</time>
      </trkpt>
      <trkpt lat="43.64219" lon="1.1908">
        <ele>230.4</ele>
        <time>2025-12-19T10:54:40Z</time>
      </trkpt>
      <trkpt lat="43.64212" lon="1.19076">
        <ele>230.4</ele>
        <time>2025-12-19T10:54:41Z</time>
      </trkpt>
      <trkpt lat="43.64206" lon="1.19074">
        <ele>230.2</ele>
        <time>2025-12-19T10:54:42Z</time>
      </trkpt>
      <trkpt lat="43.642" lon="1.19072">
        <ele>230.4</ele>
        <time>2025-12-19T10:54:43Z</time>
      </trkpt>
      <trkpt lat="43.64193" lon="1.1907">
        <ele>230.4</ele>
        <time>2025-12-19T10:54:44Z</time>
      </trkpt>
      <trkpt lat="43.64187" lon="1.19068">
        <ele>230.8</ele>
        <time>2025-12-19T10:54:45Z</time>
      </trkpt>
      <trkpt lat="43.64181" lon="1.19065">
        <ele>231</ele>
        <time>2025-12-19T10:54:46Z</time>
      </trkpt>
      <trkpt lat="43.64175" lon="1.19063">
        <ele>231.2</ele>
        <time>2025-12-19T10:54:47Z</time>
      </trkpt>
      <trkpt lat="43.64169" lon="1.1906">
        <ele>231.4</ele>
        <time>2025-12-19T10:54:48Z</time>
      </trkpt>
      <trkpt lat="43.64163" lon="1.19057">
        <ele>231.4</ele>
        <time>2025-12-19T10:54:49Z</time>
      </trkpt>
      <trkpt lat="43.64157" lon="1.19054">
        <ele>231.6</ele>
        <time>2025-12-19T10:54:50Z</time>
      </trkpt>
      <trkpt lat="43.64152" lon="1.19051">
        <ele>231.8</ele>
        <time>2025-12-19T10:54:51Z</time>
      </trkpt>
      <trkpt lat="43.64146" lon="1.19047">
        <ele>231.8</ele>
        <time>2025-12-19T10:54:52Z</time>
      </trkpt>
      <trkpt lat="43.6414" lon="1.19044">
        <ele>232</ele>
        <time>2025-12-19T10:54:53Z</time>
      </trkpt>
      <trkpt lat="43.64134" lon="1.1904">
        <ele>232</ele>
        <time>2025-12-19T10:54:54Z</time>
      </trkpt>
      <trkpt lat="43.64128" lon="1.19037">
        <ele>232.2</ele>
        <time>2025-12-19T10:54:55Z</time>
      </trkpt>
      <trkpt lat="43.64122" lon="1.19034">
        <ele>232.2</ele>
        <time>2025-12-19T10:54:56Z</time>
      </trkpt>
      <trkpt lat="43.64116" lon="1.19031">
        <ele>232.4</ele>
        <time>2025-12-19T10:54:57Z</time>
      </trkpt>
      <trkpt lat="43.6411" lon="1.19029">
        <ele>232.4</ele>
        <time>2025-12-19T10:54:58Z</time>
      </trkpt>
      <trkpt lat="43.64104" lon="1.19027">
        <ele>232.6</ele>
        <time>2025-12-19T10:54:59Z</time>
      </trkpt>
      <trkpt lat="43.64098" lon="1.19025">
        <ele>232.6</ele>
        <time>2025-12-19T10:55:00Z</time>
      </trkpt>
      <trkpt lat="43.64091" lon="1.19023">
        <ele>232.8</ele>
        <time>2025-12-19T10:55:01Z</time>
      </trkpt>
      <trkpt lat="43.64085" lon="1.19021">
        <ele>232.8</ele>
        <time>2025-12-19T10:55:02Z</time>
      </trkpt>
      <trkpt lat="43.64078" lon="1.19019">
        <ele>233</ele>
        <time>2025-12-19T10:55:03Z</time>
      </trkpt>
      <trkpt lat="43.64071" lon="1.19017">
        <ele>233</ele>
        <time>2025-12-19T10:55:04Z</time>
      </trkpt>
      <trkpt lat="43.64064" lon="1.19015">
        <ele>233</ele>
        <time>2025-12-19T10:55:05Z</time>
      </trkpt>
      <trkpt lat="43.64057" lon="1.19013">
        <ele>233</ele>
        <time>2025-12-19T10:55:06Z</time>
      </trkpt>
      <trkpt lat="43.64051" lon="1.19012">
        <ele>233</ele>
        <time>2025-12-19T10:55:07Z</time>
      </trkpt>
      <trkpt lat="43.64044" lon="1.1901">
        <ele>233.2</ele>
        <time>2025-12-19T10:55:08Z</time>
      </trkpt>
      <trkpt lat="43.64038" lon="1.19007">
        <ele>233.2</ele>
        <time>2025-12-19T10:55:09Z</time>
      </trkpt>
      <trkpt lat="43.64031" lon="1.19004">
        <ele>233.2</ele>
        <time>2025-12-19T10:55:10Z</time>
      </trkpt>
      <trkpt lat="43.64025" lon="1.19001">
        <ele>233.4</ele>
        <time>2025-12-19T10:55:11Z</time>
      </trkpt>
      <trkpt lat="43.64018" lon="1.18997">
        <ele>233.4</ele>
        <time>2025-12-19T10:55:12Z</time>
      </trkpt>
      <trkpt lat="43.64012" lon="1.18993">
        <ele>233.4</ele>
        <time>2025-12-19T10:55:13Z</time>
      </trkpt>
      <trkpt lat="43.64006" lon="1.18989">
        <ele>233.6</ele>
        <time>2025-12-19T10:55:14Z</time>
      </trkpt>
      <trkpt lat="43.64" lon="1.18985">
        <ele>233.6</ele>
        <time>2025-12-19T10:55:15Z</time>
      </trkpt>
      <trkpt lat="43.63993" lon="1.1898">
        <ele>233.8</ele>
        <time>2025-12-19T10:55:16Z</time>
      </trkpt>
      <trkpt lat="43.63988" lon="1.18976">
        <ele>233.8</ele>
        <time>2025-12-19T10:55:17Z</time>
      </trkpt>
      <trkpt lat="43.63982" lon="1.18972">
        <ele>233.8</ele>
        <time>2025-12-19T10:55:18Z</time>
      </trkpt>
      <trkpt lat="43.63976" lon="1.18967">
        <ele>234</ele>
        <time>2025-12-19T10:55:19Z</time>
      </trkpt>
      <trkpt lat="43.6397" lon="1.18963">
        <ele>234</ele>
        <time>2025-12-19T10:55:20Z</time>
      </trkpt>
      <trkpt lat="43.63964" lon="1.18959">
        <ele>234</ele>
        <time>2025-12-19T10:55:21Z</time>
      </trkpt>
      <trkpt lat="43.63958" lon="1.18955">
        <ele>234.2</ele>
        <time>2025-12-19T10:55:22Z</time>
      </trkpt>
      <trkpt lat="43.63951" lon="1.18952">
        <ele>234.2</ele>
        <time>2025-12-19T10:55:23Z</time>
      </trkpt>
      <trkpt lat="43.63945" lon="1.18948">
        <ele>234.2</ele>
        <time>2025-12-19T10:55:24Z</time>
      </trkpt>
      <trkpt lat="43.63939" lon="1.18944">
        <ele>234.4</ele>
        <time>2025-12-19T10:55:25Z</time>
      </trkpt>
      <trkpt lat="43.63932" lon="1.18939">
        <ele>234.2</ele>
        <time>2025-12-19T10:55:26Z</time>
      </trkpt>
      <trkpt lat="43.63925" lon="1.18935">
        <ele>234.2</ele>
        <time>2025-12-19T10:55:27Z</time>
      </trkpt>
      <trkpt lat="43.63919" lon="1.18932">
        <ele>234</ele>
        <time>2025-12-19T10:55:28Z</time>
      </trkpt>
      <trkpt lat="43.63912" lon="1.18927">
        <ele>234</ele>
        <time>2025-12-19T10:55:29Z</time>
      </trkpt>
      <trkpt lat="43.63906" lon="1.18923">
        <ele>233.8</ele>
        <time>2025-12-19T10:55:30Z</time>
      </trkpt>
      <trkpt lat="43.639" lon="1.18918">
        <ele>233.6</ele>
        <time>2025-12-19T10:55:31Z</time>
      </trkpt>
      <trkpt lat="43.63893" lon="1.18913">
        <ele>233.6</ele>
        <time>2025-12-19T10:55:32Z</time>
      </trkpt>
      <trkpt lat="43.63888" lon="1.18907">
        <ele>233.4</ele>
        <time>2025-12-19T10:55:33Z</time>
      </trkpt>
      <trkpt lat="43.63882" lon="1.18901">
        <ele>233.4</ele>
        <time>2025-12-19T10:55:34Z</time>
      </trkpt>
      <trkpt lat="43.63877" lon="1.18896">
        <ele>233.2</ele>
        <time>2025-12-19T10:55:35Z</time>
      </trkpt>
      <trkpt lat="43.63872" lon="1.1889">
        <ele>233.2</ele>
        <time>2025-12-19T10:55:36Z</time>
      </trkpt>
      <trkpt lat="43.63866" lon="1.18885">
        <ele>233.4</ele>
        <time>2025-12-19T10:55:37Z</time>
      </trkpt>
      <trkpt lat="43.63861" lon="1.18879">
        <ele>233.4</ele>
        <time>2025-12-19T10:55:38Z</time>
      </trkpt>
      <trkpt lat="43.63855" lon="1.18873">
        <ele>233.4</ele>
        <time>2025-12-19T10:55:39Z</time>
      </trkpt>
      <trkpt lat="43.6385" lon="1.18867">
        <ele>233.4</ele>
        <time>2025-12-19T10:55:40Z</time>
      </trkpt>
      <trkpt lat="43.63844" lon="1.1886">
        <ele>233.4</ele>
        <time>2025-12-19T10:55:41Z</time>
      </trkpt>
      <trkpt lat="43.63838" lon="1.18854">
        <ele>233.4</ele>
        <time>2025-12-19T10:55:42Z</time>
      </trkpt>
      <trkpt lat="43.63832" lon="1.18848">
        <ele>233.2</ele>
        <time>2025-12-19T10:55:43Z</time>
      </trkpt>
      <trkpt lat="43.63826" lon="1.18842">
        <ele>233.2</ele>
        <time>2025-12-19T10:55:44Z</time>
      </trkpt>
      <trkpt lat="43.6382" lon="1.18836">
        <ele>233.2</ele>
        <time>2025-12-19T10:55:45Z</time>
      </trkpt>
      <trkpt lat="43.63814" lon="1.18832">
        <ele>233.2</ele>
        <time>2025-12-19T10:55:46Z</time>
      </trkpt>
      <trkpt lat="43.63808" lon="1.18827">
        <ele>233.2</ele>
        <time>2025-12-19T10:55:47Z</time>
      </trkpt>
      <trkpt lat="43.63801" lon="1.18823">
        <ele>233.2</ele>
        <time>2025-12-19T10:55:48Z</time>
      </trkpt>
      <trkpt lat="43.63795" lon="1.18819">
        <ele>233.2</ele>
        <time>2025-12-19T10:55:49Z</time>
      </trkpt>
      <trkpt lat="43.63788" lon="1.18816">
        <ele>233.2</ele>
        <time>2025-12-19T10:55:50Z</time>
      </trkpt>
      <trkpt lat="43.63781" lon="1.18813">
        <ele>233.2</ele>
        <time>2025-12-19T10:55:51Z</time>
      </trkpt>
      <trkpt lat="43.63774" lon="1.1881">
        <ele>233.2</ele>
        <time>2025-12-19T10:55:52Z</time>
      </trkpt>
      <trkpt lat="43.63768" lon="1.18807">
        <ele>233.2</ele>
        <time>2025-12-19T10:55:53Z</time>
      </trkpt>
      <trkpt lat="43.63761" lon="1.18805">
        <ele>233.4</ele>
        <time>2025-12-19T10:55:54Z</time>
      </trkpt>
      <trkpt lat="43.63754" lon="1.18803">
        <ele>233.4</ele>
        <time>2025-12-19T10:55:55Z</time>
      </trkpt>
      <trkpt lat="43.63747" lon="1.18801">
        <ele>233.6</ele>
        <time>2025-12-19T10:55:56Z</time>
      </trkpt>
      <trkpt lat="43.6374" lon="1.18799">
        <ele>233.6</ele>
        <time>2025-12-19T10:55:57Z</time>
      </trkpt>
      <trkpt lat="43.63733" lon="1.18797">
        <ele>233.6</ele>
        <time>2025-12-19T10:55:58Z</time>
      </trkpt>
      <trkpt lat="43.63727" lon="1.18795">
        <ele>233.4</ele>
        <time>2025-12-19T10:55:59Z</time>
      </trkpt>
      <trkpt lat="43.6372" lon="1.18794">
        <ele>233.6</ele>
        <time>2025-12-19T10:56:00Z</time>
      </trkpt>
      <trkpt lat="43.63713" lon="1.18793">
        <ele>233.6</ele>
        <time>2025-12-19T10:56:01Z</time>
      </trkpt>
      <trkpt lat="43.63706" lon="1.18792">
        <ele>233.6</ele>
        <time>2025-12-19T10:56:02Z</time>
      </trkpt>
      <trkpt lat="43.63699" lon="1.18791">
        <ele>233.6</ele>
        <time>2025-12-19T10:56:03Z</time>
      </trkpt>
      <trkpt lat="43.63692" lon="1.1879">
        <ele>233.8</ele>
        <time>2025-12-19T10:56:04Z</time>
      </trkpt>
      <trkpt lat="43.63685" lon="1.18789">
        <ele>233.8</ele>
        <time>2025-12-19T10:56:05Z</time>
      </trkpt>
      <trkpt lat="43.63678" lon="1.18788">
        <ele>234</ele>
        <time>2025-12-19T10:56:06Z</time>
      </trkpt>
      <trkpt lat="43.63671" lon="1.18786">
        <ele>234</ele>
        <time>2025-12-19T10:56:07Z</time>
      </trkpt>
      <trkpt lat="43.63664" lon="1.18785">
        <ele>234</ele>
        <time>2025-12-19T10:56:08Z</time>
      </trkpt>
      <trkpt lat="43.63657" lon="1.18783">
        <ele>234</ele>
        <time>2025-12-19T10:56:09Z</time>
      </trkpt>
      <trkpt lat="43.6365" lon="1.18782">
        <ele>234</ele>
        <time>2025-12-19T10:56:10Z</time>
      </trkpt>
      <trkpt lat="43.63643" lon="1.18781">
        <ele>234.2</ele>
        <time>2025-12-19T10:56:11Z</time>
      </trkpt>
      <trkpt lat="43.63636" lon="1.18779">
        <ele>234</ele>
        <time>2025-12-19T10:56:12Z</time>
      </trkpt>
      <trkpt lat="43.63629" lon="1.18778">
        <ele>234</ele>
        <time>2025-12-19T10:56:13Z</time>
      </trkpt>
      <trkpt lat="43.63622" lon="1.18777">
        <ele>234</ele>
        <time>2025-12-19T10:56:14Z</time>
      </trkpt>
      <trkpt lat="43.63614" lon="1.18775">
        <ele>234</ele>
        <time>2025-12-19T10:56:15Z</time>
      </trkpt>
      <trkpt lat="43.63607" lon="1.18774">
        <ele>233.8</ele>
        <time>2025-12-19T10:56:16Z</time>
      </trkpt>
      <trkpt lat="43.63601" lon="1.18773">
        <ele>234</ele>
        <time>2025-12-19T10:56:17Z</time>
      </trkpt>
      <trkpt lat="43.63594" lon="1.18772">
        <ele>234</ele>
        <time>2025-12-19T10:56:18Z</time>
      </trkpt>
      <trkpt lat="43.63587" lon="1.1877">
        <ele>234</ele>
        <time>2025-12-19T10:56:19Z</time>
      </trkpt>
      <trkpt lat="43.6358" lon="1.18769">
        <ele>234</ele>
        <time>2025-12-19T10:56:20Z</time>
      </trkpt>
      <trkpt lat="43.63573" lon="1.18768">
        <ele>234</ele>
        <time>2025-12-19T10:56:21Z</time>
      </trkpt>
      <trkpt lat="43.63566" lon="1.18767">
        <ele>234</ele>
        <time>2025-12-19T10:56:22Z</time>
      </trkpt>
      <trkpt lat="43.63558" lon="1.18766">
        <ele>234</ele>
        <time>2025-12-19T10:56:23Z</time>
      </trkpt>
      <trkpt lat="43.63552" lon="1.18764">
        <ele>234</ele>
        <time>2025-12-19T10:56:24Z</time>
      </trkpt>
      <trkpt lat="43.63546" lon="1.1876">
        <ele>234.2</ele>
        <time>2025-12-19T10:56:25Z</time>
      </trkpt>
      <trkpt lat="43.63542" lon="1.18754">
        <ele>234.2</ele>
        <time>2025-12-19T10:56:26Z</time>
      </trkpt>
      <trkpt lat="43.6354" lon="1.18747">
        <ele>234.4</ele>
        <time>2025-12-19T10:56:27Z</time>
      </trkpt>
      <trkpt lat="43.63539" lon="1.18739">
        <ele>234.4</ele>
        <time>2025-12-19T10:56:28Z</time>
      </trkpt>
      <trkpt lat="43.63539" lon="1.1873">
        <ele>234.6</ele>
        <time>2025-12-19T10:56:29Z</time>
      </trkpt>
      <trkpt lat="43.63538" lon="1.18722">
        <ele>234.4</ele>
        <time>2025-12-19T10:56:30Z</time>
      </trkpt>
      <trkpt lat="43.63538" lon="1.18713">
        <ele>234.6</ele>
        <time>2025-12-19T10:56:31Z</time>
      </trkpt>
      <trkpt lat="43.63538" lon="1.18705">
        <ele>234.4</ele>
        <time>2025-12-19T10:56:32Z</time>
      </trkpt>
      <trkpt lat="43.63538" lon="1.18696">
        <ele>234.4</ele>
        <time>2025-12-19T10:56:33Z</time>
      </trkpt>
      <trkpt lat="43.63538" lon="1.18687">
        <ele>234.4</ele>
        <time>2025-12-19T10:56:34Z</time>
      </trkpt>
      <trkpt lat="43.63537" lon="1.18679">
        <ele>234.6</ele>
        <time>2025-12-19T10:56:35Z</time>
      </trkpt>
      <trkpt lat="43.63537" lon="1.1867">
        <ele>234.6</ele>
        <time>2025-12-19T10:56:36Z</time>
      </trkpt>
      <trkpt lat="43.63537" lon="1.18661">
        <ele>234.6</ele>
        <time>2025-12-19T10:56:37Z</time>
      </trkpt>
      <trkpt lat="43.63537" lon="1.18652">
        <ele>234.6</ele>
        <time>2025-12-19T10:56:38Z</time>
      </trkpt>
      <trkpt lat="43.63536" lon="1.18643">
        <ele>234.6</ele>
        <time>2025-12-19T10:56:39Z</time>
      </trkpt>
      <trkpt lat="43.63536" lon="1.18633">
        <ele>234.6</ele>
        <time>2025-12-19T10:56:40Z</time>
      </trkpt>
      <trkpt lat="43.63536" lon="1.18624">
        <ele>234.6</ele>
        <time>2025-12-19T10:56:41Z</time>
      </trkpt>
      <trkpt lat="43.63536" lon="1.18615">
        <ele>234.8</ele>
        <time>2025-12-19T10:56:42Z</time>
      </trkpt>
      <trkpt lat="43.63536" lon="1.18606">
        <ele>234.8</ele>
        <time>2025-12-19T10:56:43Z</time>
      </trkpt>
      <trkpt lat="43.63535" lon="1.18597">
        <ele>234.8</ele>
        <time>2025-12-19T10:56:44Z</time>
      </trkpt>
      <trkpt lat="43.63535" lon="1.18588">
        <ele>234.8</ele>
        <time>2025-12-19T10:56:45Z</time>
      </trkpt>
      <trkpt lat="43.63535" lon="1.18579">
        <ele>234.8</ele>
        <time>2025-12-19T10:56:46Z</time>
      </trkpt>
      <trkpt lat="43.63534" lon="1.18569">
        <ele>234.8</ele>
        <time>2025-12-19T10:56:47Z</time>
      </trkpt>
      <trkpt lat="43.63534" lon="1.1856">
        <ele>234.8</ele>
        <time>2025-12-19T10:56:48Z</time>
      </trkpt>
      <trkpt lat="43.63534" lon="1.18551">
        <ele>235</ele>
        <time>2025-12-19T10:56:49Z</time>
      </trkpt>
      <trkpt lat="43.63533" lon="1.18542">
        <ele>235</ele>
        <time>2025-12-19T10:56:50Z</time>
      </trkpt>
      <trkpt lat="43.63533" lon="1.18532">
        <ele>235.2</ele>
        <time>2025-12-19T10:56:51Z</time>
      </trkpt>
      <trkpt lat="43.63533" lon="1.18523">
        <ele>235.2</ele>
        <time>2025-12-19T10:56:52Z</time>
      </trkpt>
      <trkpt lat="43.63533" lon="1.18514">
        <ele>235.4</ele>
        <time>2025-12-19T10:56:53Z</time>
      </trkpt>
      <trkpt lat="43.63533" lon="1.18505">
        <ele>235.4</ele>
        <time>2025-12-19T10:56:54Z</time>
      </trkpt>
      <trkpt lat="43.63533" lon="1.18496">
        <ele>235.4</ele>
        <time>2025-12-19T10:56:55Z</time>
      </trkpt>
      <trkpt lat="43.63533" lon="1.18487">
        <ele>235.4</ele>
        <time>2025-12-19T10:56:56Z</time>
      </trkpt>
      <trkpt lat="43.63532" lon="1.18477">
        <ele>235.6</ele>
        <time>2025-12-19T10:56:57Z</time>
      </trkpt>
      <trkpt lat="43.63532" lon="1.18468">
        <ele>235.6</ele>
        <time>2025-12-19T10:56:58Z</time>
      </trkpt>
      <trkpt lat="43.63531" lon="1.1846">
        <ele>235.8</ele>
        <time>2025-12-19T10:56:59Z</time>
      </trkpt>
      <trkpt lat="43.63531" lon="1.18451">
        <ele>235.8</ele>
        <time>2025-12-19T10:57:00Z</time>
      </trkpt>
      <trkpt lat="43.63531" lon="1.18442">
        <ele>236</ele>
        <time>2025-12-19T10:57:01Z</time>
      </trkpt>
      <trkpt lat="43.63531" lon="1.18434">
        <ele>236.2</ele>
        <time>2025-12-19T10:57:02Z</time>
      </trkpt>
      <trkpt lat="43.63531" lon="1.18426">
        <ele>236.2</ele>
        <time>2025-12-19T10:57:03Z</time>
      </trkpt>
      <trkpt lat="43.6353" lon="1.18418">
        <ele>236.4</ele>
        <time>2025-12-19T10:57:04Z</time>
      </trkpt>
      <trkpt lat="43.6353" lon="1.1841">
        <ele>236.6</ele>
        <time>2025-12-19T10:57:05Z</time>
      </trkpt>
      <trkpt lat="43.6353" lon="1.18402">
        <ele>236.6</ele>
        <time>2025-12-19T10:57:06Z</time>
      </trkpt>
      <trkpt lat="43.6353" lon="1.18394">
        <ele>236.8</ele>
        <time>2025-12-19T10:57:07Z</time>
      </trkpt>
      <trkpt lat="43.6353" lon="1.18386">
        <ele>236.8</ele>
        <time>2025-12-19T10:57:08Z</time>
      </trkpt>
      <trkpt lat="43.63529" lon="1.18379">
        <ele>237</ele>
        <time>2025-12-19T10:57:09Z</time>
      </trkpt>
      <trkpt lat="43.63529" lon="1.18372">
        <ele>237.2</ele>
        <time>2025-12-19T10:57:10Z</time>
      </trkpt>
      <trkpt lat="43.63529" lon="1.18364">
        <ele>237.4</ele>
        <time>2025-12-19T10:57:11Z</time>
      </trkpt>
      <trkpt lat="43.63529" lon="1.18356">
        <ele>237.8</ele>
        <time>2025-12-19T10:57:12Z</time>
      </trkpt>
      <trkpt lat="43.63529" lon="1.18349">
        <ele>238</ele>
        <time>2025-12-19T10:57:13Z</time>
      </trkpt>
      <trkpt lat="43.63529" lon="1.18342">
        <ele>238.2</ele>
        <time>2025-12-19T10:57:14Z</time>
      </trkpt>
      <trkpt lat="43.63529" lon="1.18335">
        <ele>238.4</ele>
        <time>2025-12-19T10:57:15Z</time>
      </trkpt>
      <trkpt lat="43.63529" lon="1.18327">
        <ele>238.4</ele>
        <time>2025-12-19T10:57:16Z</time>
      </trkpt>
      <trkpt lat="43.63529" lon="1.1832">
        <ele>238.6</ele>
        <time>2025-12-19T10:57:17Z</time>
      </trkpt>
      <trkpt lat="43.63529" lon="1.18313">
        <ele>238.8</ele>
        <time>2025-12-19T10:57:18Z</time>
      </trkpt>
      <trkpt lat="43.63529" lon="1.18306">
        <ele>239</ele>
        <time>2025-12-19T10:57:19Z</time>
      </trkpt>
      <trkpt lat="43.63529" lon="1.18298">
        <ele>239.2</ele>
        <time>2025-12-19T10:57:20Z</time>
      </trkpt>
      <trkpt lat="43.6353" lon="1.18291">
        <ele>239.4</ele>
        <time>2025-12-19T10:57:21Z</time>
      </trkpt>
      <trkpt lat="43.6353" lon="1.18285">
        <ele>239.8</ele>
        <time>2025-12-19T10:57:22Z</time>
      </trkpt>
      <trkpt lat="43.6353" lon="1.18277">
        <ele>240</ele>
        <time>2025-12-19T10:57:23Z</time>
      </trkpt>
      <trkpt lat="43.6353" lon="1.18271">
        <ele>240.2</ele>
        <time>2025-12-19T10:57:24Z</time>
      </trkpt>
      <trkpt lat="43.6353" lon="1.18264">
        <ele>240.4</ele>
        <time>2025-12-19T10:57:25Z</time>
      </trkpt>
      <trkpt lat="43.63531" lon="1.18258">
        <ele>240.6</ele>
        <time>2025-12-19T10:57:26Z</time>
      </trkpt>
      <trkpt lat="43.63531" lon="1.18252">
        <ele>240.8</ele>
        <time>2025-12-19T10:57:27Z</time>
      </trkpt>
      <trkpt lat="43.63531" lon="1.18247">
        <ele>241.2</ele>
        <time>2025-12-19T10:57:28Z</time>
      </trkpt>
      <trkpt lat="43.63531" lon="1.18241">
        <ele>241.4</ele>
        <time>2025-12-19T10:57:29Z</time>
      </trkpt>
      <trkpt lat="43.63531" lon="1.18235">
        <ele>241.8</ele>
        <time>2025-12-19T10:57:30Z</time>
      </trkpt>
      <trkpt lat="43.6353" lon="1.18229">
        <ele>242</ele>
        <time>2025-12-19T10:57:31Z</time>
      </trkpt>
      <trkpt lat="43.6353" lon="1.18223">
        <ele>242.2</ele>
        <time>2025-12-19T10:57:32Z</time>
      </trkpt>
      <trkpt lat="43.63529" lon="1.18218">
        <ele>242.6</ele>
        <time>2025-12-19T10:57:33Z</time>
      </trkpt>
      <trkpt lat="43.63529" lon="1.18212">
        <ele>242.8</ele>
        <time>2025-12-19T10:57:34Z</time>
      </trkpt>
      <trkpt lat="43.63527" lon="1.18207">
        <ele>243.2</ele>
        <time>2025-12-19T10:57:35Z</time>
      </trkpt>
      <trkpt lat="43.63525" lon="1.18203">
        <ele>243.2</ele>
        <time>2025-12-19T10:57:36Z</time>
      </trkpt>
      <trkpt lat="43.63523" lon="1.18198">
        <ele>243.6</ele>
        <time>2025-12-19T10:57:37Z</time>
      </trkpt>
      <trkpt lat="43.63521" lon="1.18193">
        <ele>243.6</ele>
        <time>2025-12-19T10:57:38Z</time>
      </trkpt>
      <trkpt lat="43.63518" lon="1.1819">
        <ele>244</ele>
        <time>2025-12-19T10:57:39Z</time>
      </trkpt>
      <trkpt lat="43.63514" lon="1.18186">
        <ele>244</ele>
        <time>2025-12-19T10:57:40Z</time>
      </trkpt>
      <trkpt lat="43.6351" lon="1.18182">
        <ele>244.2</ele>
        <time>2025-12-19T10:57:41Z</time>
      </trkpt>
      <trkpt lat="43.63506" lon="1.1818">
        <ele>244.4</ele>
        <time>2025-12-19T10:57:42Z</time>
      </trkpt>
      <trkpt lat="43.63502" lon="1.18178">
        <ele>244.6</ele>
        <time>2025-12-19T10:57:43Z</time>
      </trkpt>
      <trkpt lat="43.63498" lon="1.18176">
        <ele>244.8</ele>
        <time>2025-12-19T10:57:44Z</time>
      </trkpt>
      <trkpt lat="43.63494" lon="1.18174">
        <ele>245</ele>
        <time>2025-12-19T10:57:45Z</time>
      </trkpt>
      <trkpt lat="43.6349" lon="1.18172">
        <ele>245.2</ele>
        <time>2025-12-19T10:57:46Z</time>
      </trkpt>
      <trkpt lat="43.63487" lon="1.18171">
        <ele>245.4</ele>
        <time>2025-12-19T10:57:47Z</time>
      </trkpt>
      <trkpt lat="43.63483" lon="1.18169">
        <ele>245.4</ele>
        <time>2025-12-19T10:57:48Z</time>
      </trkpt>
      <trkpt lat="43.63479" lon="1.18168">
        <ele>245.6</ele>
        <time>2025-12-19T10:57:49Z</time>
      </trkpt>
      <trkpt lat="43.63475" lon="1.18167">
        <ele>245.8</ele>
        <time>2025-12-19T10:57:50Z</time>
      </trkpt>
      <trkpt lat="43.63471" lon="1.18166">
        <ele>246</ele>
        <time>2025-12-19T10:57:51Z</time>
      </trkpt>
      <trkpt lat="43.63467" lon="1.18163">
        <ele>246.2</ele>
        <time>2025-12-19T10:57:52Z</time>
      </trkpt>
      <trkpt lat="43.63464" lon="1.18159">
        <ele>246.2</ele>
        <time>2025-12-19T10:57:53Z</time>
      </trkpt>
      <trkpt lat="43.63461" lon="1.18154">
        <ele>246.2</ele>
        <time>2025-12-19T10:57:54Z</time>
      </trkpt>
      <trkpt lat="43.63459" lon="1.18149">
        <ele>246.4</ele>
        <time>2025-12-19T10:57:55Z</time>
      </trkpt>
      <trkpt lat="43.63456" lon="1.18143">
        <ele>246.4</ele>
        <time>2025-12-19T10:57:56Z</time>
      </trkpt>
      <trkpt lat="43.63454" lon="1.18137">
        <ele>246.4</ele>
        <time>2025-12-19T10:57:57Z</time>
      </trkpt>
      <trkpt lat="43.63451" lon="1.18132">
        <ele>246.4</ele>
        <time>2025-12-19T10:57:58Z</time>
      </trkpt>
      <trkpt lat="43.63448" lon="1.18126">
        <ele>246.2</ele>
        <time>2025-12-19T10:57:59Z</time>
      </trkpt>
      <trkpt lat="43.63443" lon="1.18122">
        <ele>246.2</ele>
        <time>2025-12-19T10:58:00Z</time>
      </trkpt>
      <trkpt lat="43.63439" lon="1.18118">
        <ele>246</ele>
        <time>2025-12-19T10:58:01Z</time>
      </trkpt>
      <trkpt lat="43.63434" lon="1.18116">
        <ele>246</ele>
        <time>2025-12-19T10:58:02Z</time>
      </trkpt>
      <trkpt lat="43.63428" lon="1.18115">
        <ele>245.8</ele>
        <time>2025-12-19T10:58:03Z</time>
      </trkpt>
      <trkpt lat="43.63422" lon="1.18113">
        <ele>245.8</ele>
        <time>2025-12-19T10:58:04Z</time>
      </trkpt>
      <trkpt lat="43.63417" lon="1.18112">
        <ele>245.6</ele>
        <time>2025-12-19T10:58:05Z</time>
      </trkpt>
      <trkpt lat="43.6341" lon="1.1811">
        <ele>245.4</ele>
        <time>2025-12-19T10:58:06Z</time>
      </trkpt>
      <trkpt lat="43.63404" lon="1.18109">
        <ele>245.2</ele>
        <time>2025-12-19T10:58:07Z</time>
      </trkpt>
      <trkpt lat="43.63399" lon="1.18107">
        <ele>245.2</ele>
        <time>2025-12-19T10:58:08Z</time>
      </trkpt>
      <trkpt lat="43.63393" lon="1.18106">
        <ele>245</ele>
        <time>2025-12-19T10:58:09Z</time>
      </trkpt>
      <trkpt lat="43.63387" lon="1.18105">
        <ele>245</ele>
        <time>2025-12-19T10:58:10Z</time>
      </trkpt>
      <trkpt lat="43.63381" lon="1.18104">
        <ele>245</ele>
        <time>2025-12-19T10:58:11Z</time>
      </trkpt>
      <trkpt lat="43.63376" lon="1.18102">
        <ele>244.8</ele>
        <time>2025-12-19T10:58:12Z</time>
      </trkpt>
      <trkpt lat="43.6337" lon="1.18101">
        <ele>244.8</ele>
        <time>2025-12-19T10:58:13Z</time>
      </trkpt>
      <trkpt lat="43.63364" lon="1.181">
        <ele>244.8</ele>
        <time>2025-12-19T10:58:14Z</time>
      </trkpt>
      <trkpt lat="43.63358" lon="1.18098">
        <ele>244.6</ele>
        <time>2025-12-19T10:58:15Z</time>
      </trkpt>
      <trkpt lat="43.63352" lon="1.18096">
        <ele>244.6</ele>
        <time>2025-12-19T10:58:16Z</time>
      </trkpt>
      <trkpt lat="43.63346" lon="1.18094">
        <ele>244.4</ele>
        <time>2025-12-19T10:58:17Z</time>
      </trkpt>
      <trkpt lat="43.63341" lon="1.18092">
        <ele>244.4</ele>
        <time>2025-12-19T10:58:18Z</time>
      </trkpt>
      <trkpt lat="43.63336" lon="1.18091">
        <ele>244.4</ele>
        <time>2025-12-19T10:58:19Z</time>
      </trkpt>
      <trkpt lat="43.63331" lon="1.18088">
        <ele>244.6</ele>
        <time>2025-12-19T10:58:20Z</time>
      </trkpt>
      <trkpt lat="43.63327" lon="1.18084">
        <ele>244.4</ele>
        <time>2025-12-19T10:58:21Z</time>
      </trkpt>
      <trkpt lat="43.63323" lon="1.18079">
        <ele>244.4</ele>
        <time>2025-12-19T10:58:22Z</time>
      </trkpt>
      <trkpt lat="43.63318" lon="1.18075">
        <ele>244.4</ele>
        <time>2025-12-19T10:58:23Z</time>
      </trkpt>
      <trkpt lat="43.63312" lon="1.18073">
        <ele>244.4</ele>
        <time>2025-12-19T10:58:24Z</time>
      </trkpt>
      <trkpt lat="43.63308" lon="1.18072">
        <ele>244.4</ele>
        <time>2025-12-19T10:58:25Z</time>
      </trkpt>
      <trkpt lat="43.63303" lon="1.18073">
        <ele>244.4</ele>
        <time>2025-12-19T10:58:26Z</time>
      </trkpt>
      <trkpt lat="43.63299" lon="1.18074">
        <ele>244.4</ele>
        <time>2025-12-19T10:58:27Z</time>
      </trkpt>
      <trkpt lat="43.63295" lon="1.18075">
        <ele>244.6</ele>
        <time>2025-12-19T10:58:28Z</time>
      </trkpt>
      <trkpt lat="43.63291" lon="1.18075">
        <ele>244.8</ele>
        <time>2025-12-19T10:58:29Z</time>
      </trkpt>
      <trkpt lat="43.63286" lon="1.18076">
        <ele>245</ele>
        <time>2025-12-19T10:58:30Z</time>
      </trkpt>
      <trkpt lat="43.63282" lon="1.18077">
        <ele>245.2</ele>
        <time>2025-12-19T10:58:31Z</time>
      </trkpt>
      <trkpt lat="43.63277" lon="1.18078">
        <ele>245.4</ele>
        <time>2025-12-19T10:58:32Z</time>
      </trkpt>
      <trkpt lat="43.63273" lon="1.18079">
        <ele>245.6</ele>
        <time>2025-12-19T10:58:33Z</time>
      </trkpt>
      <trkpt lat="43.63268" lon="1.1808">
        <ele>245.8</ele>
        <time>2025-12-19T10:58:34Z</time>
      </trkpt>
      <trkpt lat="43.63264" lon="1.18082">
        <ele>246</ele>
        <time>2025-12-19T10:58:35Z</time>
      </trkpt>
      <trkpt lat="43.63259" lon="1.18084">
        <ele>246.4</ele>
        <time>2025-12-19T10:58:36Z</time>
      </trkpt>
      <trkpt lat="43.63254" lon="1.18085">
        <ele>246.4</ele>
        <time>2025-12-19T10:58:37Z</time>
      </trkpt>
      <trkpt lat="43.63249" lon="1.18085">
        <ele>246.6</ele>
        <time>2025-12-19T10:58:38Z</time>
      </trkpt>
      <trkpt lat="43.63244" lon="1.18086">
        <ele>246.6</ele>
        <time>2025-12-19T10:58:39Z</time>
      </trkpt>
      <trkpt lat="43.63239" lon="1.18087">
        <ele>246.8</ele>
        <time>2025-12-19T10:58:40Z</time>
      </trkpt>
      <trkpt lat="43.63233" lon="1.18089">
        <ele>246.8</ele>
        <time>2025-12-19T10:58:41Z</time>
      </trkpt>
      <trkpt lat="43.63228" lon="1.1809">
        <ele>247</ele>
        <time>2025-12-19T10:58:42Z</time>
      </trkpt>
      <trkpt lat="43.63222" lon="1.18092">
        <ele>247</ele>
        <time>2025-12-19T10:58:43Z</time>
      </trkpt>
      <trkpt lat="43.63217" lon="1.18093">
        <ele>247</ele>
        <time>2025-12-19T10:58:44Z</time>
      </trkpt>
      <trkpt lat="43.63212" lon="1.18095">
        <ele>247.2</ele>
        <time>2025-12-19T10:58:45Z</time>
      </trkpt>
      <trkpt lat="43.63206" lon="1.18096">
        <ele>247.2</ele>
        <time>2025-12-19T10:58:46Z</time>
      </trkpt>
      <trkpt lat="43.632" lon="1.18097">
        <ele>247.2</ele>
        <time>2025-12-19T10:58:47Z</time>
      </trkpt>
      <trkpt lat="43.63194" lon="1.18099">
        <ele>247</ele>
        <time>2025-12-19T10:58:48Z</time>
      </trkpt>
      <trkpt lat="43.63188" lon="1.181">
        <ele>247</ele>
        <time>2025-12-19T10:58:49Z</time>
      </trkpt>
      <trkpt lat="43.63183" lon="1.18102">
        <ele>247</ele>
        <time>2025-12-19T10:58:50Z</time>
      </trkpt>
      <trkpt lat="43.63177" lon="1.18103">
        <ele>247</ele>
        <time>2025-12-19T10:58:51Z</time>
      </trkpt>
      <trkpt lat="43.6317" lon="1.18105">
        <ele>247</ele>
        <time>2025-12-19T10:58:52Z</time>
      </trkpt>
      <trkpt lat="43.63164" lon="1.18107">
        <ele>247</ele>
        <time>2025-12-19T10:58:53Z</time>
      </trkpt>
      <trkpt lat="43.63157" lon="1.18108">
        <ele>247</ele>
        <time>2025-12-19T10:58:54Z</time>
      </trkpt>
      <trkpt lat="43.63151" lon="1.1811">
        <ele>247</ele>
        <time>2025-12-19T10:58:55Z</time>
      </trkpt>
      <trkpt lat="43.63145" lon="1.18112">
        <ele>247</ele>
        <time>2025-12-19T10:58:56Z</time>
      </trkpt>
      <trkpt lat="43.63139" lon="1.18114">
        <ele>246.8</ele>
        <time>2025-12-19T10:58:57Z</time>
      </trkpt>
      <trkpt lat="43.63133" lon="1.18115">
        <ele>247</ele>
        <time>2025-12-19T10:58:58Z</time>
      </trkpt>
      <trkpt lat="43.63126" lon="1.18117">
        <ele>247.2</ele>
        <time>2025-12-19T10:58:59Z</time>
      </trkpt>
      <trkpt lat="43.6312" lon="1.18118">
        <ele>247.2</ele>
        <time>2025-12-19T10:59:00Z</time>
      </trkpt>
      <trkpt lat="43.63113" lon="1.1812">
        <ele>247.2</ele>
        <time>2025-12-19T10:59:01Z</time>
      </trkpt>
      <trkpt lat="43.63107" lon="1.18122">
        <ele>247.2</ele>
        <time>2025-12-19T10:59:02Z</time>
      </trkpt>
      <trkpt lat="43.631" lon="1.18124">
        <ele>247.2</ele>
        <time>2025-12-19T10:59:03Z</time>
      </trkpt>
      <trkpt lat="43.63094" lon="1.18126">
        <ele>247.2</ele>
        <time>2025-12-19T10:59:04Z</time>
      </trkpt>
      <trkpt lat="43.63088" lon="1.18128">
        <ele>247.2</ele>
        <time>2025-12-19T10:59:05Z</time>
      </trkpt>
      <trkpt lat="43.63081" lon="1.18131">
        <ele>247.2</ele>
        <time>2025-12-19T10:59:06Z</time>
      </trkpt>
      <trkpt lat="43.63075" lon="1.18134">
        <ele>247</ele>
        <time>2025-12-19T10:59:07Z</time>
      </trkpt>
      <trkpt lat="43.63069" lon="1.18138">
        <ele>247</ele>
        <time>2025-12-19T10:59:08Z</time>
      </trkpt>
      <trkpt lat="43.63063" lon="1.18143">
        <ele>247</ele>
        <time>2025-12-19T10:59:09Z</time>
      </trkpt>
      <trkpt lat="43.63057" lon="1.18147">
        <ele>246.8</ele>
        <time>2025-12-19T10:59:10Z</time>
      </trkpt>
      <trkpt lat="43.6305" lon="1.18152">
        <ele>246.6</ele>
        <time>2025-12-19T10:59:11Z</time>
      </trkpt>
      <trkpt lat="43.63044" lon="1.18157">
        <ele>246.6</ele>
        <time>2025-12-19T10:59:12Z</time>
      </trkpt>
      <trkpt lat="43.63038" lon="1.18161">
        <ele>246.2</ele>
        <time>2025-12-19T10:59:13Z</time>
      </trkpt>
      <trkpt lat="43.63031" lon="1.18166">
        <ele>246.2</ele>
        <time>2025-12-19T10:59:14Z</time>
      </trkpt>
      <trkpt lat="43.63024" lon="1.18172">
        <ele>246</ele>
        <time>2025-12-19T10:59:15Z</time>
      </trkpt>
      <trkpt lat="43.63017" lon="1.18177">
        <ele>245.8</ele>
        <time>2025-12-19T10:59:16Z</time>
      </trkpt>
      <trkpt lat="43.63011" lon="1.18182">
        <ele>245.8</ele>
        <time>2025-12-19T10:59:17Z</time>
      </trkpt>
      <trkpt lat="43.63004" lon="1.18188">
        <ele>245.6</ele>
        <time>2025-12-19T10:59:18Z</time>
      </trkpt>
      <trkpt lat="43.62997" lon="1.18193">
        <ele>245.4</ele>
        <time>2025-12-19T10:59:19Z</time>
      </trkpt>
      <trkpt lat="43.62991" lon="1.18199">
        <ele>245.2</ele>
        <time>2025-12-19T10:59:20Z</time>
      </trkpt>
      <trkpt lat="43.62984" lon="1.18205">
        <ele>245</ele>
        <time>2025-12-19T10:59:21Z</time>
      </trkpt>
      <trkpt lat="43.62976" lon="1.1821">
        <ele>245</ele>
        <time>2025-12-19T10:59:22Z</time>
      </trkpt>
      <trkpt lat="43.62969" lon="1.18216">
        <ele>244.8</ele>
        <time>2025-12-19T10:59:23Z</time>
      </trkpt>
      <trkpt lat="43.62961" lon="1.18222">
        <ele>244.4</ele>
        <time>2025-12-19T10:59:24Z</time>
      </trkpt>
      <trkpt lat="43.62954" lon="1.18228">
        <ele>244.2</ele>
        <time>2025-12-19T10:59:25Z</time>
      </trkpt>
      <trkpt lat="43.62947" lon="1.18234">
        <ele>244</ele>
        <time>2025-12-19T10:59:26Z</time>
      </trkpt>
      <trkpt lat="43.62939" lon="1.1824">
        <ele>243.8</ele>
        <time>2025-12-19T10:59:27Z</time>
      </trkpt>
      <trkpt lat="43.62932" lon="1.18246">
        <ele>243.6</ele>
        <time>2025-12-19T10:59:28Z</time>
      </trkpt>
      <trkpt lat="43.62924" lon="1.18253">
        <ele>243.6</ele>
        <time>2025-12-19T10:59:29Z</time>
      </trkpt>
      <trkpt lat="43.62917" lon="1.18259">
        <ele>243.4</ele>
        <time>2025-12-19T10:59:30Z</time>
      </trkpt>
      <trkpt lat="43.62909" lon="1.18264">
        <ele>243.2</ele>
        <time>2025-12-19T10:59:31Z</time>
      </trkpt>
      <trkpt lat="43.62902" lon="1.18271">
        <ele>243</ele>
        <time>2025-12-19T10:59:32Z</time>
      </trkpt>
      <trkpt lat="43.62895" lon="1.18277">
        <ele>242.8</ele>
        <time>2025-12-19T10:59:33Z</time>
      </trkpt>
      <trkpt lat="43.62888" lon="1.18283">
        <ele>242.4</ele>
        <time>2025-12-19T10:59:34Z</time>
      </trkpt>
      <trkpt lat="43.62882" lon="1.18289">
        <ele>242.4</ele>
        <time>2025-12-19T10:59:35Z</time>
      </trkpt>
      <trkpt lat="43.62875" lon="1.18295">
        <ele>242.2</ele>
        <time>2025-12-19T10:59:36Z</time>
      </trkpt>
      <trkpt lat="43.62869" lon="1.18301">
        <ele>242.2</ele>
        <time>2025-12-19T10:59:37Z</time>
      </trkpt>
      <trkpt lat="43.62862" lon="1.18307">
        <ele>242.2</ele>
        <time>2025-12-19T10:59:38Z</time>
      </trkpt>
      <trkpt lat="43.62855" lon="1.18313">
        <ele>242.2</ele>
        <time>2025-12-19T10:59:39Z</time>
      </trkpt>
      <trkpt lat="43.62849" lon="1.1832">
        <ele>242.2</ele>
        <time>2025-12-19T10:59:40Z</time>
      </trkpt>
      <trkpt lat="43.62843" lon="1.18327">
        <ele>242.4</ele>
        <time>2025-12-19T10:59:41Z</time>
      </trkpt>
      <trkpt lat="43.62837" lon="1.18333">
        <ele>242.4</ele>
        <time>2025-12-19T10:59:42Z</time>
      </trkpt>
      <trkpt lat="43.62831" lon="1.18339">
        <ele>242.4</ele>
        <time>2025-12-19T10:59:43Z</time>
      </trkpt>
      <trkpt lat="43.62825" lon="1.18345">
        <ele>242.4</ele>
        <time>2025-12-19T10:59:44Z</time>
      </trkpt>
      <trkpt lat="43.62819" lon="1.1835">
        <ele>242.4</ele>
        <time>2025-12-19T10:59:45Z</time>
      </trkpt>
      <trkpt lat="43.62813" lon="1.18356">
        <ele>242.6</ele>
        <time>2025-12-19T10:59:46Z</time>
      </trkpt>
      <trkpt lat="43.62807" lon="1.18362">
        <ele>242.6</ele>
        <time>2025-12-19T10:59:47Z</time>
      </trkpt>
      <trkpt lat="43.62801" lon="1.18367">
        <ele>242.8</ele>
        <time>2025-12-19T10:59:48Z</time>
      </trkpt>
      <trkpt lat="43.62795" lon="1.18372">
        <ele>242.8</ele>
        <time>2025-12-19T10:59:49Z</time>
      </trkpt>
      <trkpt lat="43.62789" lon="1.18378">
        <ele>242.8</ele>
        <time>2025-12-19T10:59:50Z</time>
      </trkpt>
      <trkpt lat="43.62783" lon="1.18382">
        <ele>243</ele>
        <time>2025-12-19T10:59:51Z</time>
      </trkpt>
      <trkpt lat="43.62776" lon="1.18386">
        <ele>243</ele>
        <time>2025-12-19T10:59:52Z</time>
      </trkpt>
      <trkpt lat="43.6277" lon="1.1839">
        <ele>243.2</ele>
        <time>2025-12-19T10:59:53Z</time>
      </trkpt>
      <trkpt lat="43.62763" lon="1.18394">
        <ele>243.4</ele>
        <time>2025-12-19T10:59:54Z</time>
      </trkpt>
      <trkpt lat="43.62757" lon="1.18397">
        <ele>243.4</ele>
        <time>2025-12-19T10:59:55Z</time>
      </trkpt>
      <trkpt lat="43.62751" lon="1.184">
        <ele>243.6</ele>
        <time>2025-12-19T10:59:56Z</time>
      </trkpt>
      <trkpt lat="43.62744" lon="1.18403">
        <ele>243.8</ele>
        <time>2025-12-19T10:59:57Z</time>
      </trkpt>
      <trkpt lat="43.62738" lon="1.18406">
        <ele>243.8</ele>
        <time>2025-12-19T10:59:58Z</time>
      </trkpt>
      <trkpt lat="43.62732" lon="1.18409">
        <ele>244</ele>
        <time>2025-12-19T10:59:59Z</time>
      </trkpt>
      <trkpt lat="43.62726" lon="1.18411">
        <ele>244.2</ele>
        <time>2025-12-19T11:00:00Z</time>
      </trkpt>
      <trkpt lat="43.6272" lon="1.18414">
        <ele>244.6</ele>
        <time>2025-12-19T11:00:01Z</time>
      </trkpt>
      <trkpt lat="43.62714" lon="1.18417">
        <ele>244.8</ele>
        <time>2025-12-19T11:00:02Z</time>
      </trkpt>
      <trkpt lat="43.62708" lon="1.1842">
        <ele>244.8</ele>
        <time>2025-12-19T11:00:03Z</time>
      </trkpt>
      <trkpt lat="43.62702" lon="1.18422">
        <ele>245.2</ele>
        <time>2025-12-19T11:00:04Z</time>
      </trkpt>
      <trkpt lat="43.62696" lon="1.18425">
        <ele>245.2</ele>
        <time>2025-12-19T11:00:05Z</time>
      </trkpt>
      <trkpt lat="43.6269" lon="1.18428">
        <ele>245.4</ele>
        <time>2025-12-19T11:00:06Z</time>
      </trkpt>
      <trkpt lat="43.62685" lon="1.18431">
        <ele>245.6</ele>
        <time>2025-12-19T11:00:07Z</time>
      </trkpt>
      <trkpt lat="43.62679" lon="1.18434">
        <ele>245.8</ele>
        <time>2025-12-19T11:00:08Z</time>
      </trkpt>
      <trkpt lat="43.62673" lon="1.18437">
        <ele>246</ele>
        <time>2025-12-19T11:00:09Z</time>
      </trkpt>
      <trkpt lat="43.62668" lon="1.18441">
        <ele>246.2</ele>
        <time>2025-12-19T11:00:10Z</time>
      </trkpt>
      <trkpt lat="43.62662" lon="1.18444">
        <ele>246.6</ele>
        <time>2025-12-19T11:00:11Z</time>
      </trkpt>
      <trkpt lat="43.62657" lon="1.18448">
        <ele>246.8</ele>
        <time>2025-12-19T11:00:12Z</time>
      </trkpt>
      <trkpt lat="43.62652" lon="1.18451">
        <ele>247</ele>
        <time>2025-12-19T11:00:13Z</time>
      </trkpt>
      <trkpt lat="43.62647" lon="1.18455">
        <ele>247.2</ele>
        <time>2025-12-19T11:00:14Z</time>
      </trkpt>
      <trkpt lat="43.62641" lon="1.18459">
        <ele>247.4</ele>
        <time>2025-12-19T11:00:15Z</time>
      </trkpt>
      <trkpt lat="43.62636" lon="1.18462">
        <ele>247.6</ele>
        <time>2025-12-19T11:00:16Z</time>
      </trkpt>
      <trkpt lat="43.62631" lon="1.18466">
        <ele>247.8</ele>
        <time>2025-12-19T11:00:17Z</time>
      </trkpt>
      <trkpt lat="43.62626" lon="1.1847">
        <ele>248</ele>
        <time>2025-12-19T11:00:18Z</time>
      </trkpt>
      <trkpt lat="43.62621" lon="1.18474">
        <ele>248.2</ele>
        <time>2025-12-19T11:00:19Z</time>
      </trkpt>
      <trkpt lat="43.62616" lon="1.18478">
        <ele>248.4</ele>
        <time>2025-12-19T11:00:20Z</time>
      </trkpt>
      <trkpt lat="43.62611" lon="1.18483">
        <ele>248.6</ele>
        <time>2025-12-19T11:00:21Z</time>
      </trkpt>
      <trkpt lat="43.62607" lon="1.18487">
        <ele>248.8</ele>
        <time>2025-12-19T11:00:22Z</time>
      </trkpt>
      <trkpt lat="43.62602" lon="1.18491">
        <ele>249</ele>
        <time>2025-12-19T11:00:23Z</time>
      </trkpt>
      <trkpt lat="43.62597" lon="1.18496">
        <ele>249</ele>
        <time>2025-12-19T11:00:24Z</time>
      </trkpt>
      <trkpt lat="43.62593" lon="1.18502">
        <ele>249.2</ele>
        <time>2025-12-19T11:00:25Z</time>
      </trkpt>
      <trkpt lat="43.62588" lon="1.18507">
        <ele>249.4</ele>
        <time>2025-12-19T11:00:26Z</time>
      </trkpt>
      <trkpt lat="43.62584" lon="1.18511">
        <ele>249.6</ele>
        <time>2025-12-19T11:00:27Z</time>
      </trkpt>
      <trkpt lat="43.62579" lon="1.18516">
        <ele>249.6</ele>
        <time>2025-12-19T11:00:28Z</time>
      </trkpt>
      <trkpt lat="43.62575" lon="1.18521">
        <ele>249.8</ele>
        <time>2025-12-19T11:00:29Z</time>
      </trkpt>
      <trkpt lat="43.6257" lon="1.18527">
        <ele>249.8</ele>
        <time>2025-12-19T11:00:30Z</time>
      </trkpt>
      <trkpt lat="43.62566" lon="1.18532">
        <ele>250</ele>
        <time>2025-12-19T11:00:31Z</time>
      </trkpt>
      <trkpt lat="43.62561" lon="1.18537">
        <ele>249.8</ele>
        <time>2025-12-19T11:00:32Z</time>
      </trkpt>
      <trkpt lat="43.62557" lon="1.18542">
        <ele>249.8</ele>
        <time>2025-12-19T11:00:33Z</time>
      </trkpt>
      <trkpt lat="43.62552" lon="1.18548">
        <ele>249.8</ele>
        <time>2025-12-19T11:00:34Z</time>
      </trkpt>
      <trkpt lat="43.62548" lon="1.18554">
        <ele>250</ele>
        <time>2025-12-19T11:00:35Z</time>
      </trkpt>
      <trkpt lat="43.62543" lon="1.18559">
        <ele>250</ele>
        <time>2025-12-19T11:00:36Z</time>
      </trkpt>
      <trkpt lat="43.62539" lon="1.18565">
        <ele>250</ele>
        <time>2025-12-19T11:00:37Z</time>
      </trkpt>
      <trkpt lat="43.62534" lon="1.1857">
        <ele>250</ele>
        <time>2025-12-19T11:00:38Z</time>
      </trkpt>
      <trkpt lat="43.6253" lon="1.18576">
        <ele>250</ele>
        <time>2025-12-19T11:00:39Z</time>
      </trkpt>
      <trkpt lat="43.62525" lon="1.18581">
        <ele>250</ele>
        <time>2025-12-19T11:00:40Z</time>
      </trkpt>
      <trkpt lat="43.6252" lon="1.18586">
        <ele>250</ele>
        <time>2025-12-19T11:00:41Z</time>
      </trkpt>
      <trkpt lat="43.62516" lon="1.18592">
        <ele>250</ele>
        <time>2025-12-19T11:00:42Z</time>
      </trkpt>
      <trkpt lat="43.62511" lon="1.18597">
        <ele>250.2</ele>
        <time>2025-12-19T11:00:43Z</time>
      </trkpt>
      <trkpt lat="43.62506" lon="1.18603">
        <ele>250.2</ele>
        <time>2025-12-19T11:00:44Z</time>
      </trkpt>
      <trkpt lat="43.62501" lon="1.18608">
        <ele>250.4</ele>
        <time>2025-12-19T11:00:45Z</time>
      </trkpt>
      <trkpt lat="43.62496" lon="1.18613">
        <ele>250.4</ele>
        <time>2025-12-19T11:00:46Z</time>
      </trkpt>
      <trkpt lat="43.62491" lon="1.18618">
        <ele>250.4</ele>
        <time>2025-12-19T11:00:47Z</time>
      </trkpt>
      <trkpt lat="43.62486" lon="1.18622">
        <ele>250.4</ele>
        <time>2025-12-19T11:00:48Z</time>
      </trkpt>
      <trkpt lat="43.62481" lon="1.18627">
        <ele>250.6</ele>
        <time>2025-12-19T11:00:49Z</time>
      </trkpt>
      <trkpt lat="43.62475" lon="1.18631">
        <ele>250.6</ele>
        <time>2025-12-19T11:00:50Z</time>
      </trkpt>
      <trkpt lat="43.6247" lon="1.18636">
        <ele>250.6</ele>
        <time>2025-12-19T11:00:51Z</time>
      </trkpt>
      <trkpt lat="43.62465" lon="1.1864">
        <ele>250.6</ele>
        <time>2025-12-19T11:00:52Z</time>
      </trkpt>
      <trkpt lat="43.62459" lon="1.18644">
        <ele>250.8</ele>
        <time>2025-12-19T11:00:53Z</time>
      </trkpt>
      <trkpt lat="43.62454" lon="1.18649">
        <ele>250.8</ele>
        <time>2025-12-19T11:00:54Z</time>
      </trkpt>
      <trkpt lat="43.62449" lon="1.18653">
        <ele>251</ele>
        <time>2025-12-19T11:00:55Z</time>
      </trkpt>
      <trkpt lat="43.62444" lon="1.18657">
        <ele>251</ele>
        <time>2025-12-19T11:00:56Z</time>
      </trkpt>
      <trkpt lat="43.62438" lon="1.18661">
        <ele>251.2</ele>
        <time>2025-12-19T11:00:57Z</time>
      </trkpt>
      <trkpt lat="43.62433" lon="1.18665">
        <ele>251.2</ele>
        <time>2025-12-19T11:00:58Z</time>
      </trkpt>
      <trkpt lat="43.62428" lon="1.1867">
        <ele>251.2</ele>
        <time>2025-12-19T11:00:59Z</time>
      </trkpt>
      <trkpt lat="43.62422" lon="1.18674">
        <ele>251.2</ele>
        <time>2025-12-19T11:01:00Z</time>
      </trkpt>
      <trkpt lat="43.62417" lon="1.18679">
        <ele>251.2</ele>
        <time>2025-12-19T11:01:01Z</time>
      </trkpt>
      <trkpt lat="43.62411" lon="1.18684">
        <ele>251.2</ele>
        <time>2025-12-19T11:01:02Z</time>
      </trkpt>
      <trkpt lat="43.62405" lon="1.18689">
        <ele>251</ele>
        <time>2025-12-19T11:01:03Z</time>
      </trkpt>
      <trkpt lat="43.62399" lon="1.18694">
        <ele>251</ele>
        <time>2025-12-19T11:01:04Z</time>
      </trkpt>
      <trkpt lat="43.62393" lon="1.187">
        <ele>250.8</ele>
        <time>2025-12-19T11:01:05Z</time>
      </trkpt>
      <trkpt lat="43.62387" lon="1.18706">
        <ele>250.6</ele>
        <time>2025-12-19T11:01:06Z</time>
      </trkpt>
      <trkpt lat="43.62381" lon="1.18712">
        <ele>250.4</ele>
        <time>2025-12-19T11:01:07Z</time>
      </trkpt>
      <trkpt lat="43.62376" lon="1.18719">
        <ele>250.2</ele>
        <time>2025-12-19T11:01:08Z</time>
      </trkpt>
      <trkpt lat="43.62371" lon="1.18726">
        <ele>249.8</ele>
        <time>2025-12-19T11:01:09Z</time>
      </trkpt>
      <trkpt lat="43.62366" lon="1.18734">
        <ele>249.6</ele>
        <time>2025-12-19T11:01:10Z</time>
      </trkpt>
      <trkpt lat="43.62361" lon="1.18742">
        <ele>249.2</ele>
        <time>2025-12-19T11:01:11Z</time>
      </trkpt>
      <trkpt lat="43.62356" lon="1.1875">
        <ele>249</ele>
        <time>2025-12-19T11:01:12Z</time>
      </trkpt>
      <trkpt lat="43.62351" lon="1.18759">
        <ele>248.8</ele>
        <time>2025-12-19T11:01:13Z</time>
      </trkpt>
      <trkpt lat="43.62346" lon="1.18767">
        <ele>248.4</ele>
        <time>2025-12-19T11:01:14Z</time>
      </trkpt>
      <trkpt lat="43.62341" lon="1.18775">
        <ele>248</ele>
        <time>2025-12-19T11:01:15Z</time>
      </trkpt>
      <trkpt lat="43.62335" lon="1.18782">
        <ele>247.8</ele>
        <time>2025-12-19T11:01:16Z</time>
      </trkpt>
      <trkpt lat="43.62328" lon="1.1879">
        <ele>247.2</ele>
        <time>2025-12-19T11:01:17Z</time>
      </trkpt>
      <trkpt lat="43.62322" lon="1.18797">
        <ele>246.8</ele>
        <time>2025-12-19T11:01:18Z</time>
      </trkpt>
      <trkpt lat="43.62315" lon="1.18805">
        <ele>246.4</ele>
        <time>2025-12-19T11:01:19Z</time>
      </trkpt>
      <trkpt lat="43.62309" lon="1.18813">
        <ele>245.8</ele>
        <time>2025-12-19T11:01:20Z</time>
      </trkpt>
      <trkpt lat="43.62302" lon="1.18821">
        <ele>245.2</ele>
        <time>2025-12-19T11:01:21Z</time>
      </trkpt>
      <trkpt lat="43.62295" lon="1.1883">
        <ele>244.8</ele>
        <time>2025-12-19T11:01:22Z</time>
      </trkpt>
      <trkpt lat="43.62288" lon="1.18838">
        <ele>244.4</ele>
        <time>2025-12-19T11:01:23Z</time>
      </trkpt>
      <trkpt lat="43.62281" lon="1.18846">
        <ele>244</ele>
        <time>2025-12-19T11:01:24Z</time>
      </trkpt>
      <trkpt lat="43.62275" lon="1.18854">
        <ele>243.4</ele>
        <time>2025-12-19T11:01:25Z</time>
      </trkpt>
      <trkpt lat="43.62268" lon="1.18862">
        <ele>243.2</ele>
        <time>2025-12-19T11:01:26Z</time>
      </trkpt>
      <trkpt lat="43.62261" lon="1.1887">
        <ele>242.8</ele>
        <time>2025-12-19T11:01:27Z</time>
      </trkpt>
      <trkpt lat="43.62255" lon="1.18878">
        <ele>242.6</ele>
        <time>2025-12-19T11:01:28Z</time>
      </trkpt>
      <trkpt lat="43.62248" lon="1.18886">
        <ele>242.4</ele>
        <time>2025-12-19T11:01:29Z</time>
      </trkpt>
      <trkpt lat="43.62242" lon="1.18894">
        <ele>242</ele>
        <time>2025-12-19T11:01:30Z</time>
      </trkpt>
      <trkpt lat="43.62235" lon="1.18902">
        <ele>241.8</ele>
        <time>2025-12-19T11:01:31Z</time>
      </trkpt>
      <trkpt lat="43.62228" lon="1.18909">
        <ele>241.6</ele>
        <time>2025-12-19T11:01:32Z</time>
      </trkpt>
      <trkpt lat="43.62222" lon="1.18917">
        <ele>241.2</ele>
        <time>2025-12-19T11:01:33Z</time>
      </trkpt>
      <trkpt lat="43.62215" lon="1.18924">
        <ele>241</ele>
        <time>2025-12-19T11:01:34Z</time>
      </trkpt>
      <trkpt lat="43.62207" lon="1.1893">
        <ele>240.6</ele>
        <time>2025-12-19T11:01:35Z</time>
      </trkpt>
      <trkpt lat="43.622" lon="1.18936">
        <ele>240.4</ele>
        <time>2025-12-19T11:01:36Z</time>
      </trkpt>
      <trkpt lat="43.62193" lon="1.18942">
        <ele>240.2</ele>
        <time>2025-12-19T11:01:37Z</time>
      </trkpt>
      <trkpt lat="43.62185" lon="1.18947">
        <ele>240</ele>
        <time>2025-12-19T11:01:38Z</time>
      </trkpt>
      <trkpt lat="43.62177" lon="1.18952">
        <ele>240</ele>
        <time>2025-12-19T11:01:39Z</time>
      </trkpt>
      <trkpt lat="43.62169" lon="1.18957">
        <ele>239.8</ele>
        <time>2025-12-19T11:01:40Z</time>
      </trkpt>
      <trkpt lat="43.6216" lon="1.18962">
        <ele>239.6</ele>
        <time>2025-12-19T11:01:41Z</time>
      </trkpt>
      <trkpt lat="43.62152" lon="1.18967">
        <ele>239.2</ele>
        <time>2025-12-19T11:01:42Z</time>
      </trkpt>
      <trkpt lat="43.62144" lon="1.18972">
        <ele>239</ele>
        <time>2025-12-19T11:01:43Z</time>
      </trkpt>
      <trkpt lat="43.62135" lon="1.18976">
        <ele>238.8</ele>
        <time>2025-12-19T11:01:44Z</time>
      </trkpt>
      <trkpt lat="43.62127" lon="1.1898">
        <ele>238.6</ele>
        <time>2025-12-19T11:01:45Z</time>
      </trkpt>
      <trkpt lat="43.62118" lon="1.18983">
        <ele>238.4</ele>
        <time>2025-12-19T11:01:46Z</time>
      </trkpt>
      <trkpt lat="43.62109" lon="1.18986">
        <ele>238.2</ele>
        <time>2025-12-19T11:01:47Z</time>
      </trkpt>
      <trkpt lat="43.621" lon="1.18987">
        <ele>237.8</ele>
        <time>2025-12-19T11:01:48Z</time>
      </trkpt>
      <trkpt lat="43.62091" lon="1.18989">
        <ele>237.4</ele>
        <time>2025-12-19T11:01:49Z</time>
      </trkpt>
      <trkpt lat="43.62081" lon="1.18989">
        <ele>237.2</ele>
        <time>2025-12-19T11:01:50Z</time>
      </trkpt>
      <trkpt lat="43.62072" lon="1.18989">
        <ele>236.8</ele>
        <time>2025-12-19T11:01:51Z</time>
      </trkpt>
      <trkpt lat="43.62062" lon="1.18989">
        <ele>236.2</ele>
        <time>2025-12-19T11:01:52Z</time>
      </trkpt>
      <trkpt lat="43.62053" lon="1.18987">
        <ele>235.8</ele>
        <time>2025-12-19T11:01:53Z</time>
      </trkpt>
      <trkpt lat="43.62044" lon="1.18985">
        <ele>235.4</ele>
        <time>2025-12-19T11:01:54Z</time>
      </trkpt>
      <trkpt lat="43.62034" lon="1.18983">
        <ele>234.8</ele>
        <time>2025-12-19T11:01:55Z</time>
      </trkpt>
      <trkpt lat="43.62025" lon="1.18981">
        <ele>234.2</ele>
        <time>2025-12-19T11:01:56Z</time>
      </trkpt>
      <trkpt lat="43.62015" lon="1.1898">
        <ele>233.8</ele>
        <time>2025-12-19T11:01:57Z</time>
      </trkpt>
      <trkpt lat="43.62006" lon="1.1898">
        <ele>233.6</ele>
        <time>2025-12-19T11:01:58Z</time>
      </trkpt>
      <trkpt lat="43.61996" lon="1.18982">
        <ele>233.2</ele>
        <time>2025-12-19T11:01:59Z</time>
      </trkpt>
      <trkpt lat="43.61987" lon="1.18985">
        <ele>232.8</ele>
        <time>2025-12-19T11:02:00Z</time>
      </trkpt>
      <trkpt lat="43.61979" lon="1.1899">
        <ele>232.4</ele>
        <time>2025-12-19T11:02:01Z</time>
      </trkpt>
      <trkpt lat="43.6197" lon="1.18996">
        <ele>231.8</ele>
        <time>2025-12-19T11:02:02Z</time>
      </trkpt>
      <trkpt lat="43.61963" lon="1.19003">
        <ele>231.2</ele>
        <time>2025-12-19T11:02:03Z</time>
      </trkpt>
      <trkpt lat="43.61955" lon="1.19011">
        <ele>230.8</ele>
        <time>2025-12-19T11:02:04Z</time>
      </trkpt>
      <trkpt lat="43.61948" lon="1.19021">
        <ele>230.4</ele>
        <time>2025-12-19T11:02:05Z</time>
      </trkpt>
      <trkpt lat="43.61942" lon="1.19031">
        <ele>230</ele>
        <time>2025-12-19T11:02:06Z</time>
      </trkpt>
      <trkpt lat="43.61937" lon="1.19042">
        <ele>229.6</ele>
        <time>2025-12-19T11:02:07Z</time>
      </trkpt>
      <trkpt lat="43.61932" lon="1.19053">
        <ele>229.2</ele>
        <time>2025-12-19T11:02:08Z</time>
      </trkpt>
      <trkpt lat="43.61928" lon="1.19065">
        <ele>229</ele>
        <time>2025-12-19T11:02:09Z</time>
      </trkpt>
      <trkpt lat="43.61923" lon="1.19076">
        <ele>228.6</ele>
        <time>2025-12-19T11:02:10Z</time>
      </trkpt>
      <trkpt lat="43.61919" lon="1.19088">
        <ele>228.2</ele>
        <time>2025-12-19T11:02:11Z</time>
      </trkpt>
      <trkpt lat="43.61915" lon="1.19099">
        <ele>227.8</ele>
        <time>2025-12-19T11:02:12Z</time>
      </trkpt>
      <trkpt lat="43.61911" lon="1.19111">
        <ele>227.6</ele>
        <time>2025-12-19T11:02:13Z</time>
      </trkpt>
      <trkpt lat="43.61907" lon="1.19122">
        <ele>227.4</ele>
        <time>2025-12-19T11:02:14Z</time>
      </trkpt>
      <trkpt lat="43.61903" lon="1.19132">
        <ele>227.2</ele>
        <time>2025-12-19T11:02:15Z</time>
      </trkpt>
      <trkpt lat="43.61899" lon="1.19143">
        <ele>227</ele>
        <time>2025-12-19T11:02:16Z</time>
      </trkpt>
      <trkpt lat="43.61894" lon="1.19153">
        <ele>226.8</ele>
        <time>2025-12-19T11:02:17Z</time>
      </trkpt>
      <trkpt lat="43.61889" lon="1.19163">
        <ele>226.4</ele>
        <time>2025-12-19T11:02:18Z</time>
      </trkpt>
      <trkpt lat="43.61883" lon="1.19173">
        <ele>226.2</ele>
        <time>2025-12-19T11:02:19Z</time>
      </trkpt>
      <trkpt lat="43.61877" lon="1.19183">
        <ele>226</ele>
        <time>2025-12-19T11:02:20Z</time>
      </trkpt>
      <trkpt lat="43.61871" lon="1.19192">
        <ele>225.8</ele>
        <time>2025-12-19T11:02:21Z</time>
      </trkpt>
      <trkpt lat="43.61865" lon="1.19201">
        <ele>225.6</ele>
        <time>2025-12-19T11:02:22Z</time>
      </trkpt>
      <trkpt lat="43.61859" lon="1.1921">
        <ele>225.4</ele>
        <time>2025-12-19T11:02:23Z</time>
      </trkpt>
      <trkpt lat="43.61854" lon="1.19219">
        <ele>225.2</ele>
        <time>2025-12-19T11:02:24Z</time>
      </trkpt>
      <trkpt lat="43.61848" lon="1.19228">
        <ele>225.2</ele>
        <time>2025-12-19T11:02:25Z</time>
      </trkpt>
      <trkpt lat="43.61842" lon="1.19237">
        <ele>225.2</ele>
        <time>2025-12-19T11:02:26Z</time>
      </trkpt>
      <trkpt lat="43.61836" lon="1.19245">
        <ele>225.2</ele>
        <time>2025-12-19T11:02:27Z</time>
      </trkpt>
      <trkpt lat="43.6183" lon="1.19254">
        <ele>225.2</ele>
        <time>2025-12-19T11:02:28Z</time>
      </trkpt>
      <trkpt lat="43.61824" lon="1.19262">
        <ele>225</ele>
        <time>2025-12-19T11:02:29Z</time>
      </trkpt>
      <trkpt lat="43.61818" lon="1.19271">
        <ele>224.8</ele>
        <time>2025-12-19T11:02:30Z</time>
      </trkpt>
      <trkpt lat="43.61812" lon="1.1928">
        <ele>224.6</ele>
        <time>2025-12-19T11:02:31Z</time>
      </trkpt>
      <trkpt lat="43.61806" lon="1.19288">
        <ele>224.4</ele>
        <time>2025-12-19T11:02:32Z</time>
      </trkpt>
      <trkpt lat="43.61801" lon="1.19297">
        <ele>224</ele>
        <time>2025-12-19T11:02:33Z</time>
      </trkpt>
      <trkpt lat="43.61795" lon="1.19306">
        <ele>224</ele>
        <time>2025-12-19T11:02:34Z</time>
      </trkpt>
      <trkpt lat="43.61789" lon="1.19314">
        <ele>224</ele>
        <time>2025-12-19T11:02:35Z</time>
      </trkpt>
      <trkpt lat="43.61783" lon="1.19323">
        <ele>223.8</ele>
        <time>2025-12-19T11:02:36Z</time>
      </trkpt>
      <trkpt lat="43.61777" lon="1.19331">
        <ele>223.8</ele>
        <time>2025-12-19T11:02:37Z</time>
      </trkpt>
      <trkpt lat="43.61771" lon="1.1934">
        <ele>223.8</ele>
        <time>2025-12-19T11:02:38Z</time>
      </trkpt>
      <trkpt lat="43.61765" lon="1.19348">
        <ele>223.6</ele>
        <time>2025-12-19T11:02:39Z</time>
      </trkpt>
      <trkpt lat="43.61759" lon="1.19357">
        <ele>223.4</ele>
        <time>2025-12-19T11:02:40Z</time>
      </trkpt>
      <trkpt lat="43.61754" lon="1.19366">
        <ele>223.4</ele>
        <time>2025-12-19T11:02:41Z</time>
      </trkpt>
      <trkpt lat="43.61748" lon="1.19375">
        <ele>223.2</ele>
        <time>2025-12-19T11:02:42Z</time>
      </trkpt>
      <trkpt lat="43.61742" lon="1.19384">
        <ele>223</ele>
        <time>2025-12-19T11:02:43Z</time>
      </trkpt>
      <trkpt lat="43.61737" lon="1.19393">
        <ele>222.6</ele>
        <time>2025-12-19T11:02:44Z</time>
      </trkpt>
      <trkpt lat="43.61732" lon="1.19402">
        <ele>222.4</ele>
        <time>2025-12-19T11:02:45Z</time>
      </trkpt>
      <trkpt lat="43.61727" lon="1.19411">
        <ele>222.2</ele>
        <time>2025-12-19T11:02:46Z</time>
      </trkpt>
      <trkpt lat="43.61722" lon="1.1942">
        <ele>222</ele>
        <time>2025-12-19T11:02:47Z</time>
      </trkpt>
      <trkpt lat="43.61717" lon="1.19428">
        <ele>222</ele>
        <time>2025-12-19T11:02:48Z</time>
      </trkpt>
      <trkpt lat="43.61712" lon="1.19437">
        <ele>221.6</ele>
        <time>2025-12-19T11:02:49Z</time>
      </trkpt>
      <trkpt lat="43.61708" lon="1.19446">
        <ele>221.6</ele>
        <time>2025-12-19T11:02:50Z</time>
      </trkpt>
      <trkpt lat="43.61703" lon="1.19456">
        <ele>221.4</ele>
        <time>2025-12-19T11:02:51Z</time>
      </trkpt>
      <trkpt lat="43.61698" lon="1.19465">
        <ele>221.2</ele>
        <time>2025-12-19T11:02:52Z</time>
      </trkpt>
      <trkpt lat="43.61694" lon="1.19475">
        <ele>221</ele>
        <time>2025-12-19T11:02:53Z</time>
      </trkpt>
      <trkpt lat="43.61689" lon="1.19485">
        <ele>220.8</ele>
        <time>2025-12-19T11:02:54Z</time>
      </trkpt>
      <trkpt lat="43.61684" lon="1.19494">
        <ele>220.6</ele>
        <time>2025-12-19T11:02:55Z</time>
      </trkpt>
      <trkpt lat="43.61679" lon="1.19504">
        <ele>220.4</ele>
        <time>2025-12-19T11:02:56Z</time>
      </trkpt>
      <trkpt lat="43.61675" lon="1.19514">
        <ele>220.2</ele>
        <time>2025-12-19T11:02:57Z</time>
      </trkpt>
      <trkpt lat="43.6167" lon="1.19524">
        <ele>220</ele>
        <time>2025-12-19T11:02:58Z</time>
      </trkpt>
      <trkpt lat="43.61666" lon="1.19535">
        <ele>219.8</ele>
        <time>2025-12-19T11:02:59Z</time>
      </trkpt>
      <trkpt lat="43.61662" lon="1.19545">
        <ele>219.8</ele>
        <time>2025-12-19T11:03:00Z</time>
      </trkpt>
      <trkpt lat="43.61658" lon="1.19556">
        <ele>219.8</ele>
        <time>2025-12-19T11:03:01Z</time>
      </trkpt>
      <trkpt lat="43.61655" lon="1.19567">
        <ele>219.6</ele>
        <time>2025-12-19T11:03:02Z</time>
      </trkpt>
      <trkpt lat="43.61652" lon="1.19578">
        <ele>219.4</ele>
        <time>2025-12-19T11:03:03Z</time>
      </trkpt>
      <trkpt lat="43.61649" lon="1.1959">
        <ele>219.4</ele>
        <time>2025-12-19T11:03:04Z</time>
      </trkpt>
      <trkpt lat="43.61646" lon="1.19602">
        <ele>219.2</ele>
        <time>2025-12-19T11:03:05Z</time>
      </trkpt>
      <trkpt lat="43.61643" lon="1.19613">
        <ele>219</ele>
        <time>2025-12-19T11:03:06Z</time>
      </trkpt>
      <trkpt lat="43.6164" lon="1.19625">
        <ele>219</ele>
        <time>2025-12-19T11:03:07Z</time>
      </trkpt>
      <trkpt lat="43.61637" lon="1.19636">
        <ele>218.8</ele>
        <time>2025-12-19T11:03:08Z</time>
      </trkpt>
      <trkpt lat="43.61635" lon="1.19647">
        <ele>218.6</ele>
        <time>2025-12-19T11:03:09Z</time>
      </trkpt>
      <trkpt lat="43.61632" lon="1.19658">
        <ele>218.6</ele>
        <time>2025-12-19T11:03:10Z</time>
      </trkpt>
      <trkpt lat="43.61629" lon="1.19669">
        <ele>218.4</ele>
        <time>2025-12-19T11:03:11Z</time>
      </trkpt>
      <trkpt lat="43.61626" lon="1.19681">
        <ele>218.4</ele>
        <time>2025-12-19T11:03:12Z</time>
      </trkpt>
      <trkpt lat="43.61623" lon="1.19691">
        <ele>218.4</ele>
        <time>2025-12-19T11:03:13Z</time>
      </trkpt>
      <trkpt lat="43.61621" lon="1.19702">
        <ele>218.4</ele>
        <time>2025-12-19T11:03:14Z</time>
      </trkpt>
      <trkpt lat="43.61618" lon="1.19713">
        <ele>218.2</ele>
        <time>2025-12-19T11:03:15Z</time>
      </trkpt>
      <trkpt lat="43.61615" lon="1.19724">
        <ele>218</ele>
        <time>2025-12-19T11:03:16Z</time>
      </trkpt>
      <trkpt lat="43.61612" lon="1.19735">
        <ele>218</ele>
        <time>2025-12-19T11:03:17Z</time>
      </trkpt>
      <trkpt lat="43.61609" lon="1.19746">
        <ele>217.8</ele>
        <time>2025-12-19T11:03:18Z</time>
      </trkpt>
      <trkpt lat="43.61606" lon="1.19757">
        <ele>217.8</ele>
        <time>2025-12-19T11:03:19Z</time>
      </trkpt>
      <trkpt lat="43.61602" lon="1.19768">
        <ele>217.6</ele>
        <time>2025-12-19T11:03:20Z</time>
      </trkpt>
      <trkpt lat="43.61599" lon="1.19779">
        <ele>217.6</ele>
        <time>2025-12-19T11:03:21Z</time>
      </trkpt>
      <trkpt lat="43.61595" lon="1.19789">
        <ele>217.6</ele>
        <time>2025-12-19T11:03:22Z</time>
      </trkpt>
      <trkpt lat="43.61592" lon="1.198">
        <ele>217.4</ele>
        <time>2025-12-19T11:03:23Z</time>
      </trkpt>
      <trkpt lat="43.61588" lon="1.19811">
        <ele>217.2</ele>
        <time>2025-12-19T11:03:24Z</time>
      </trkpt>
      <trkpt lat="43.61585" lon="1.19822">
        <ele>217</ele>
        <time>2025-12-19T11:03:25Z</time>
      </trkpt>
      <trkpt lat="43.61581" lon="1.19833">
        <ele>216.8</ele>
        <time>2025-12-19T11:03:26Z</time>
      </trkpt>
      <trkpt lat="43.61578" lon="1.19843">
        <ele>216.6</ele>
        <time>2025-12-19T11:03:27Z</time>
      </trkpt>
      <trkpt lat="43.61574" lon="1.19853">
        <ele>216.4</ele>
        <time>2025-12-19T11:03:28Z</time>
      </trkpt>
      <trkpt lat="43.6157" lon="1.19864">
        <ele>216.2</ele>
        <time>2025-12-19T11:03:29Z</time>
      </trkpt>
      <trkpt lat="43.61567" lon="1.19874">
        <ele>215.8</ele>
        <time>2025-12-19T11:03:30Z</time>
      </trkpt>
      <trkpt lat="43.61563" lon="1.19884">
        <ele>215.8</ele>
        <time>2025-12-19T11:03:31Z</time>
      </trkpt>
      <trkpt lat="43.61559" lon="1.19895">
        <ele>215.6</ele>
        <time>2025-12-19T11:03:32Z</time>
      </trkpt>
      <trkpt lat="43.61556" lon="1.19905">
        <ele>215.6</ele>
        <time>2025-12-19T11:03:33Z</time>
      </trkpt>
      <trkpt lat="43.61552" lon="1.19915">
        <ele>215.6</ele>
        <time>2025-12-19T11:03:34Z</time>
      </trkpt>
      <trkpt lat="43.61548" lon="1.19925">
        <ele>215.4</ele>
        <time>2025-12-19T11:03:35Z</time>
      </trkpt>
      <trkpt lat="43.61544" lon="1.19936">
        <ele>215.4</ele>
        <time>2025-12-19T11:03:36Z</time>
      </trkpt>
      <trkpt lat="43.61541" lon="1.19945">
        <ele>215.2</ele>
        <time>2025-12-19T11:03:37Z</time>
      </trkpt>
      <trkpt lat="43.61537" lon="1.19955">
        <ele>215.2</ele>
        <time>2025-12-19T11:03:38Z</time>
      </trkpt>
      <trkpt lat="43.61534" lon="1.19965">
        <ele>215.2</ele>
        <time>2025-12-19T11:03:39Z</time>
      </trkpt>
      <trkpt lat="43.61531" lon="1.19975">
        <ele>215</ele>
        <time>2025-12-19T11:03:40Z</time>
      </trkpt>
      <trkpt lat="43.61528" lon="1.19985">
        <ele>215.2</ele>
        <time>2025-12-19T11:03:41Z</time>
      </trkpt>
      <trkpt lat="43.61525" lon="1.19994">
        <ele>215.2</ele>
        <time>2025-12-19T11:03:42Z</time>
      </trkpt>
      <trkpt lat="43.61522" lon="1.20004">
        <ele>215.2</ele>
        <time>2025-12-19T11:03:43Z</time>
      </trkpt>
      <trkpt lat="43.61518" lon="1.20013">
        <ele>215.2</ele>
        <time>2025-12-19T11:03:44Z</time>
      </trkpt>
      <trkpt lat="43.61515" lon="1.20023">
        <ele>215.2</ele>
        <time>2025-12-19T11:03:45Z</time>
      </trkpt>
      <trkpt lat="43.61512" lon="1.20033">
        <ele>215</ele>
        <time>2025-12-19T11:03:46Z</time>
      </trkpt>
      <trkpt lat="43.61509" lon="1.20044">
        <ele>214.8</ele>
        <time>2025-12-19T11:03:47Z</time>
      </trkpt>
      <trkpt lat="43.61505" lon="1.20054">
        <ele>214.4</ele>
        <time>2025-12-19T11:03:48Z</time>
      </trkpt>
      <trkpt lat="43.61501" lon="1.20064">
        <ele>214.2</ele>
        <time>2025-12-19T11:03:49Z</time>
      </trkpt>
      <trkpt lat="43.61497" lon="1.20075">
        <ele>213.8</ele>
        <time>2025-12-19T11:03:50Z</time>
      </trkpt>
      <trkpt lat="43.61493" lon="1.20085">
        <ele>213.8</ele>
        <time>2025-12-19T11:03:51Z</time>
      </trkpt>
      <trkpt lat="43.6149" lon="1.20095">
        <ele>213.6</ele>
        <time>2025-12-19T11:03:52Z</time>
      </trkpt>
      <trkpt lat="43.61486" lon="1.20106">
        <ele>213.4</ele>
        <time>2025-12-19T11:03:53Z</time>
      </trkpt>
      <trkpt lat="43.61483" lon="1.20116">
        <ele>213.4</ele>
        <time>2025-12-19T11:03:54Z</time>
      </trkpt>
      <trkpt lat="43.61479" lon="1.20127">
        <ele>213.2</ele>
        <time>2025-12-19T11:03:55Z</time>
      </trkpt>
      <trkpt lat="43.61475" lon="1.20137">
        <ele>213</ele>
        <time>2025-12-19T11:03:56Z</time>
      </trkpt>
      <trkpt lat="43.61471" lon="1.20147">
        <ele>212.6</ele>
        <time>2025-12-19T11:03:57Z</time>
      </trkpt>
      <trkpt lat="43.61467" lon="1.20158">
        <ele>212.4</ele>
        <time>2025-12-19T11:03:58Z</time>
      </trkpt>
      <trkpt lat="43.61464" lon="1.20169">
        <ele>212.2</ele>
        <time>2025-12-19T11:03:59Z</time>
      </trkpt>
      <trkpt lat="43.61461" lon="1.20179">
        <ele>212.2</ele>
        <time>2025-12-19T11:04:00Z</time>
      </trkpt>
      <trkpt lat="43.61457" lon="1.2019">
        <ele>212</ele>
        <time>2025-12-19T11:04:01Z</time>
      </trkpt>
      <trkpt lat="43.61454" lon="1.20201">
        <ele>211.8</ele>
        <time>2025-12-19T11:04:02Z</time>
      </trkpt>
      <trkpt lat="43.61451" lon="1.20211">
        <ele>211.6</ele>
        <time>2025-12-19T11:04:03Z</time>
      </trkpt>
      <trkpt lat="43.61447" lon="1.20222">
        <ele>211.4</ele>
        <time>2025-12-19T11:04:04Z</time>
      </trkpt>
      <trkpt lat="43.61444" lon="1.20233">
        <ele>211.4</ele>
        <time>2025-12-19T11:04:05Z</time>
      </trkpt>
      <trkpt lat="43.61441" lon="1.20244">
        <ele>211.2</ele>
        <time>2025-12-19T11:04:06Z</time>
      </trkpt>
      <trkpt lat="43.61438" lon="1.20255">
        <ele>211.4</ele>
        <time>2025-12-19T11:04:07Z</time>
      </trkpt>
      <trkpt lat="43.61435" lon="1.20266">
        <ele>211.2</ele>
        <time>2025-12-19T11:04:08Z</time>
      </trkpt>
      <trkpt lat="43.61432" lon="1.20277">
        <ele>211.2</ele>
        <time>2025-12-19T11:04:09Z</time>
      </trkpt>
      <trkpt lat="43.61429" lon="1.20288">
        <ele>211.2</ele>
        <time>2025-12-19T11:04:10Z</time>
      </trkpt>
      <trkpt lat="43.61426" lon="1.20299">
        <ele>211</ele>
        <time>2025-12-19T11:04:11Z</time>
      </trkpt>
      <trkpt lat="43.61423" lon="1.2031">
        <ele>211</ele>
        <time>2025-12-19T11:04:12Z</time>
      </trkpt>
      <trkpt lat="43.6142" lon="1.20322">
        <ele>211.2</ele>
        <time>2025-12-19T11:04:13Z</time>
      </trkpt>
      <trkpt lat="43.61417" lon="1.20333">
        <ele>211</ele>
        <time>2025-12-19T11:04:14Z</time>
      </trkpt>
      <trkpt lat="43.61415" lon="1.20343">
        <ele>210.8</ele>
        <time>2025-12-19T11:04:15Z</time>
      </trkpt>
      <trkpt lat="43.61412" lon="1.20353">
        <ele>210.8</ele>
        <time>2025-12-19T11:04:16Z</time>
      </trkpt>
      <trkpt lat="43.6141" lon="1.20364">
        <ele>210.4</ele>
        <time>2025-12-19T11:04:17Z</time>
      </trkpt>
      <trkpt lat="43.61407" lon="1.20374">
        <ele>210.2</ele>
        <time>2025-12-19T11:04:18Z</time>
      </trkpt>
      <trkpt lat="43.61404" lon="1.20385">
        <ele>210</ele>
        <time>2025-12-19T11:04:19Z</time>
      </trkpt>
      <trkpt lat="43.61401" lon="1.20396">
        <ele>210</ele>
        <time>2025-12-19T11:04:20Z</time>
      </trkpt>
      <trkpt lat="43.61398" lon="1.20407">
        <ele>209.8</ele>
        <time>2025-12-19T11:04:21Z</time>
      </trkpt>
      <trkpt lat="43.61395" lon="1.20418">
        <ele>210</ele>
        <time>2025-12-19T11:04:22Z</time>
      </trkpt>
      <trkpt lat="43.61392" lon="1.20429">
        <ele>210</ele>
        <time>2025-12-19T11:04:23Z</time>
      </trkpt>
      <trkpt lat="43.61389" lon="1.2044">
        <ele>210</ele>
        <time>2025-12-19T11:04:24Z</time>
      </trkpt>
      <trkpt lat="43.61385" lon="1.20452">
        <ele>209.8</ele>
        <time>2025-12-19T11:04:25Z</time>
      </trkpt>
      <trkpt lat="43.61382" lon="1.20463">
        <ele>209.6</ele>
        <time>2025-12-19T11:04:26Z</time>
      </trkpt>
      <trkpt lat="43.61378" lon="1.20474">
        <ele>209.4</ele>
        <time>2025-12-19T11:04:27Z</time>
      </trkpt>
      <trkpt lat="43.61374" lon="1.20484">
        <ele>209.2</ele>
        <time>2025-12-19T11:04:28Z</time>
      </trkpt>
      <trkpt lat="43.61369" lon="1.20495">
        <ele>209</ele>
        <time>2025-12-19T11:04:29Z</time>
      </trkpt>
      <trkpt lat="43.61365" lon="1.20505">
        <ele>208.6</ele>
        <time>2025-12-19T11:04:30Z</time>
      </trkpt>
      <trkpt lat="43.6136" lon="1.20516">
        <ele>208.4</ele>
        <time>2025-12-19T11:04:31Z</time>
      </trkpt>
      <trkpt lat="43.61355" lon="1.20526">
        <ele>208.2</ele>
        <time>2025-12-19T11:04:32Z</time>
      </trkpt>
      <trkpt lat="43.6135" lon="1.20537">
        <ele>208</ele>
        <time>2025-12-19T11:04:33Z</time>
      </trkpt>
      <trkpt lat="43.61345" lon="1.20547">
        <ele>207.8</ele>
        <time>2025-12-19T11:04:34Z</time>
      </trkpt>
      <trkpt lat="43.6134" lon="1.20558">
        <ele>207.6</ele>
        <time>2025-12-19T11:04:35Z</time>
      </trkpt>
      <trkpt lat="43.61334" lon="1.20567">
        <ele>207.4</ele>
        <time>2025-12-19T11:04:36Z</time>
      </trkpt>
      <trkpt lat="43.61328" lon="1.20576">
        <ele>207.2</ele>
        <time>2025-12-19T11:04:37Z</time>
      </trkpt>
      <trkpt lat="43.61322" lon="1.20585">
        <ele>207.2</ele>
        <time>2025-12-19T11:04:38Z</time>
      </trkpt>
      <trkpt lat="43.61316" lon="1.20593">
        <ele>207</ele>
        <time>2025-12-19T11:04:39Z</time>
      </trkpt>
      <trkpt lat="43.61309" lon="1.20601">
        <ele>207</ele>
        <time>2025-12-19T11:04:40Z</time>
      </trkpt>
      <trkpt lat="43.61303" lon="1.20609">
        <ele>206.8</ele>
        <time>2025-12-19T11:04:41Z</time>
      </trkpt>
      <trkpt lat="43.61296" lon="1.20617">
        <ele>206.6</ele>
        <time>2025-12-19T11:04:42Z</time>
      </trkpt>
      <trkpt lat="43.6129" lon="1.20624">
        <ele>206.4</ele>
        <time>2025-12-19T11:04:43Z</time>
      </trkpt>
      <trkpt lat="43.61283" lon="1.20633">
        <ele>206.4</ele>
        <time>2025-12-19T11:04:44Z</time>
      </trkpt>
      <trkpt lat="43.61276" lon="1.20641">
        <ele>206.2</ele>
        <time>2025-12-19T11:04:45Z</time>
      </trkpt>
      <trkpt lat="43.6127" lon="1.20649">
        <ele>206</ele>
        <time>2025-12-19T11:04:46Z</time>
      </trkpt>
      <trkpt lat="43.61263" lon="1.20657">
        <ele>206</ele>
        <time>2025-12-19T11:04:47Z</time>
      </trkpt>
      <trkpt lat="43.61256" lon="1.20665">
        <ele>205.8</ele>
        <time>2025-12-19T11:04:48Z</time>
      </trkpt>
      <trkpt lat="43.61249" lon="1.20673">
        <ele>205.6</ele>
        <time>2025-12-19T11:04:49Z</time>
      </trkpt>
      <trkpt lat="43.61242" lon="1.20681">
        <ele>205.4</ele>
        <time>2025-12-19T11:04:50Z</time>
      </trkpt>
      <trkpt lat="43.61236" lon="1.20689">
        <ele>205.2</ele>
        <time>2025-12-19T11:04:51Z</time>
      </trkpt>
      <trkpt lat="43.61229" lon="1.20697">
        <ele>205</ele>
        <time>2025-12-19T11:04:52Z</time>
      </trkpt>
      <trkpt lat="43.61222" lon="1.20705">
        <ele>204.8</ele>
        <time>2025-12-19T11:04:53Z</time>
      </trkpt>
      <trkpt lat="43.61216" lon="1.20713">
        <ele>204.6</ele>
        <time>2025-12-19T11:04:54Z</time>
      </trkpt>
      <trkpt lat="43.61209" lon="1.2072">
        <ele>204.6</ele>
        <time>2025-12-19T11:04:55Z</time>
      </trkpt>
      <trkpt lat="43.61202" lon="1.20728">
        <ele>204.4</ele>
        <time>2025-12-19T11:04:56Z</time>
      </trkpt>
      <trkpt lat="43.61195" lon="1.20736">
        <ele>204.2</ele>
        <time>2025-12-19T11:04:57Z</time>
      </trkpt>
      <trkpt lat="43.61189" lon="1.20743">
        <ele>204</ele>
        <time>2025-12-19T11:04:58Z</time>
      </trkpt>
      <trkpt lat="43.61182" lon="1.20751">
        <ele>204</ele>
        <time>2025-12-19T11:04:59Z</time>
      </trkpt>
      <trkpt lat="43.61175" lon="1.20758">
        <ele>203.6</ele>
        <time>2025-12-19T11:05:00Z</time>
      </trkpt>
      <trkpt lat="43.61169" lon="1.20765">
        <ele>203.6</ele>
        <time>2025-12-19T11:05:01Z</time>
      </trkpt>
      <trkpt lat="43.61163" lon="1.20773">
        <ele>203.6</ele>
        <time>2025-12-19T11:05:02Z</time>
      </trkpt>
      <trkpt lat="43.61156" lon="1.2078">
        <ele>203.6</ele>
        <time>2025-12-19T11:05:03Z</time>
      </trkpt>
      <trkpt lat="43.6115" lon="1.20787">
        <ele>203.4</ele>
        <time>2025-12-19T11:05:04Z</time>
      </trkpt>
      <trkpt lat="43.61144" lon="1.20795">
        <ele>203.4</ele>
        <time>2025-12-19T11:05:05Z</time>
      </trkpt>
      <trkpt lat="43.61137" lon="1.20802">
        <ele>203</ele>
        <time>2025-12-19T11:05:06Z</time>
      </trkpt>
      <trkpt lat="43.61131" lon="1.20808">
        <ele>202.8</ele>
        <time>2025-12-19T11:05:07Z</time>
      </trkpt>
      <trkpt lat="43.61125" lon="1.20815">
        <ele>202.6</ele>
        <time>2025-12-19T11:05:08Z</time>
      </trkpt>
      <trkpt lat="43.61119" lon="1.20822">
        <ele>202.6</ele>
        <time>2025-12-19T11:05:09Z</time>
      </trkpt>
      <trkpt lat="43.61112" lon="1.2083">
        <ele>202.6</ele>
        <time>2025-12-19T11:05:10Z</time>
      </trkpt>
      <trkpt lat="43.61106" lon="1.20837">
        <ele>202.6</ele>
        <time>2025-12-19T11:05:11Z</time>
      </trkpt>
      <trkpt lat="43.611" lon="1.20845">
        <ele>202.4</ele>
        <time>2025-12-19T11:05:12Z</time>
      </trkpt>
      <trkpt lat="43.61093" lon="1.20852">
        <ele>202.2</ele>
        <time>2025-12-19T11:05:13Z</time>
      </trkpt>
      <trkpt lat="43.61087" lon="1.2086">
        <ele>202.2</ele>
        <time>2025-12-19T11:05:14Z</time>
      </trkpt>
      <trkpt lat="43.61081" lon="1.20867">
        <ele>202</ele>
        <time>2025-12-19T11:05:15Z</time>
      </trkpt>
      <trkpt lat="43.61074" lon="1.20875">
        <ele>201.8</ele>
        <time>2025-12-19T11:05:16Z</time>
      </trkpt>
      <trkpt lat="43.61068" lon="1.20882">
        <ele>201.8</ele>
        <time>2025-12-19T11:05:17Z</time>
      </trkpt>
      <trkpt lat="43.61062" lon="1.20889">
        <ele>201.6</ele>
        <time>2025-12-19T11:05:18Z</time>
      </trkpt>
      <trkpt lat="43.61056" lon="1.20895">
        <ele>201.6</ele>
        <time>2025-12-19T11:05:19Z</time>
      </trkpt>
      <trkpt lat="43.6105" lon="1.20903">
        <ele>201.6</ele>
        <time>2025-12-19T11:05:20Z</time>
      </trkpt>
      <trkpt lat="43.61044" lon="1.2091">
        <ele>201.6</ele>
        <time>2025-12-19T11:05:21Z</time>
      </trkpt>
      <trkpt lat="43.61038" lon="1.20918">
        <ele>201.4</ele>
        <time>2025-12-19T11:05:22Z</time>
      </trkpt>
      <trkpt lat="43.61032" lon="1.20925">
        <ele>201.4</ele>
        <time>2025-12-19T11:05:23Z</time>
      </trkpt>
      <trkpt lat="43.61026" lon="1.20932">
        <ele>201.2</ele>
        <time>2025-12-19T11:05:24Z</time>
      </trkpt>
      <trkpt lat="43.6102" lon="1.2094">
        <ele>201.2</ele>
        <time>2025-12-19T11:05:25Z</time>
      </trkpt>
      <trkpt lat="43.61014" lon="1.20947">
        <ele>201</ele>
        <time>2025-12-19T11:05:26Z</time>
      </trkpt>
      <trkpt lat="43.61008" lon="1.20954">
        <ele>201</ele>
        <time>2025-12-19T11:05:27Z</time>
      </trkpt>
      <trkpt lat="43.61001" lon="1.20962">
        <ele>201</ele>
        <time>2025-12-19T11:05:28Z</time>
      </trkpt>
      <trkpt lat="43.60996" lon="1.20969">
        <ele>201</ele>
        <time>2025-12-19T11:05:29Z</time>
      </trkpt>
      <trkpt lat="43.6099" lon="1.20977">
        <ele>200.8</ele>
        <time>2025-12-19T11:05:30Z</time>
      </trkpt>
      <trkpt lat="43.60984" lon="1.20984">
        <ele>200.8</ele>
        <time>2025-12-19T11:05:31Z</time>
      </trkpt>
      <trkpt lat="43.60978" lon="1.20992">
        <ele>200.6</ele>
        <time>2025-12-19T11:05:32Z</time>
      </trkpt>
      <trkpt lat="43.60973" lon="1.21001">
        <ele>200.4</ele>
        <time>2025-12-19T11:05:33Z</time>
      </trkpt>
      <trkpt lat="43.60968" lon="1.2101">
        <ele>200.4</ele>
        <time>2025-12-19T11:05:34Z</time>
      </trkpt>
      <trkpt lat="43.60964" lon="1.21019">
        <ele>200.4</ele>
        <time>2025-12-19T11:05:35Z</time>
      </trkpt>
      <trkpt lat="43.60959" lon="1.21028">
        <ele>200.4</ele>
        <time>2025-12-19T11:05:36Z</time>
      </trkpt>
      <trkpt lat="43.60954" lon="1.21037">
        <ele>200.2</ele>
        <time>2025-12-19T11:05:37Z</time>
      </trkpt>
      <trkpt lat="43.60951" lon="1.21047">
        <ele>200.2</ele>
        <time>2025-12-19T11:05:38Z</time>
      </trkpt>
      <trkpt lat="43.60947" lon="1.21057">
        <ele>199.8</ele>
        <time>2025-12-19T11:05:39Z</time>
      </trkpt>
      <trkpt lat="43.60943" lon="1.21067">
        <ele>199.4</ele>
        <time>2025-12-19T11:05:40Z</time>
      </trkpt>
      <trkpt lat="43.60939" lon="1.21076">
        <ele>199.2</ele>
        <time>2025-12-19T11:05:41Z</time>
      </trkpt>
      <trkpt lat="43.60936" lon="1.21085">
        <ele>199.2</ele>
        <time>2025-12-19T11:05:42Z</time>
      </trkpt>
      <trkpt lat="43.60932" lon="1.21095">
        <ele>199</ele>
        <time>2025-12-19T11:05:43Z</time>
      </trkpt>
      <trkpt lat="43.60929" lon="1.21105">
        <ele>199</ele>
        <time>2025-12-19T11:05:44Z</time>
      </trkpt>
      <trkpt lat="43.60925" lon="1.21115">
        <ele>198.8</ele>
        <time>2025-12-19T11:05:45Z</time>
      </trkpt>
      <trkpt lat="43.60921" lon="1.21125">
        <ele>198.8</ele>
        <time>2025-12-19T11:05:46Z</time>
      </trkpt>
      <trkpt lat="43.60917" lon="1.21135">
        <ele>198.6</ele>
        <time>2025-12-19T11:05:47Z</time>
      </trkpt>
      <trkpt lat="43.60914" lon="1.21144">
        <ele>198.4</ele>
        <time>2025-12-19T11:05:48Z</time>
      </trkpt>
      <trkpt lat="43.6091" lon="1.21154">
        <ele>198.4</ele>
        <time>2025-12-19T11:05:49Z</time>
      </trkpt>
      <trkpt lat="43.60906" lon="1.21164">
        <ele>198.2</ele>
        <time>2025-12-19T11:05:50Z</time>
      </trkpt>
      <trkpt lat="43.60903" lon="1.21174">
        <ele>198</ele>
        <time>2025-12-19T11:05:51Z</time>
      </trkpt>
      <trkpt lat="43.60899" lon="1.21184">
        <ele>197.6</ele>
        <time>2025-12-19T11:05:52Z</time>
      </trkpt>
      <trkpt lat="43.60895" lon="1.21194">
        <ele>197.6</ele>
        <time>2025-12-19T11:05:53Z</time>
      </trkpt>
      <trkpt lat="43.60891" lon="1.21204">
        <ele>197.6</ele>
        <time>2025-12-19T11:05:54Z</time>
      </trkpt>
      <trkpt lat="43.60888" lon="1.21214">
        <ele>197.6</ele>
        <time>2025-12-19T11:05:55Z</time>
      </trkpt>
      <trkpt lat="43.60884" lon="1.21224">
        <ele>197.6</ele>
        <time>2025-12-19T11:05:56Z</time>
      </trkpt>
      <trkpt lat="43.60881" lon="1.21234">
        <ele>197.6</ele>
        <time>2025-12-19T11:05:57Z</time>
      </trkpt>
      <trkpt lat="43.60877" lon="1.21243">
        <ele>197.6</ele>
        <time>2025-12-19T11:05:58Z</time>
      </trkpt>
      <trkpt lat="43.60873" lon="1.21253">
        <ele>197.6</ele>
        <time>2025-12-19T11:05:59Z</time>
      </trkpt>
      <trkpt lat="43.6087" lon="1.21263">
        <ele>197.4</ele>
        <time>2025-12-19T11:06:00Z</time>
      </trkpt>
      <trkpt lat="43.60866" lon="1.21273">
        <ele>197.4</ele>
        <time>2025-12-19T11:06:01Z</time>
      </trkpt>
      <trkpt lat="43.60863" lon="1.21282">
        <ele>197.2</ele>
        <time>2025-12-19T11:06:02Z</time>
      </trkpt>
      <trkpt lat="43.60859" lon="1.21292">
        <ele>197</ele>
        <time>2025-12-19T11:06:03Z</time>
      </trkpt>
      <trkpt lat="43.60855" lon="1.21302">
        <ele>197</ele>
        <time>2025-12-19T11:06:04Z</time>
      </trkpt>
      <trkpt lat="43.60852" lon="1.21311">
        <ele>197</ele>
        <time>2025-12-19T11:06:05Z</time>
      </trkpt>
      <trkpt lat="43.60848" lon="1.21321">
        <ele>196.8</ele>
        <time>2025-12-19T11:06:06Z</time>
      </trkpt>
      <trkpt lat="43.60845" lon="1.21331">
        <ele>196.8</ele>
        <time>2025-12-19T11:06:07Z</time>
      </trkpt>
      <trkpt lat="43.60841" lon="1.21341">
        <ele>196.8</ele>
        <time>2025-12-19T11:06:08Z</time>
      </trkpt>
      <trkpt lat="43.60837" lon="1.2135">
        <ele>196.8</ele>
        <time>2025-12-19T11:06:09Z</time>
      </trkpt>
      <trkpt lat="43.60834" lon="1.2136">
        <ele>196.8</ele>
        <time>2025-12-19T11:06:10Z</time>
      </trkpt>
      <trkpt lat="43.6083" lon="1.2137">
        <ele>196.8</ele>
        <time>2025-12-19T11:06:11Z</time>
      </trkpt>
      <trkpt lat="43.60826" lon="1.2138">
        <ele>196.6</ele>
        <time>2025-12-19T11:06:12Z</time>
      </trkpt>
      <trkpt lat="43.60823" lon="1.2139">
        <ele>196.6</ele>
        <time>2025-12-19T11:06:13Z</time>
      </trkpt>
      <trkpt lat="43.60819" lon="1.214">
        <ele>196.6</ele>
        <time>2025-12-19T11:06:14Z</time>
      </trkpt>
      <trkpt lat="43.60815" lon="1.2141">
        <ele>196.4</ele>
        <time>2025-12-19T11:06:15Z</time>
      </trkpt>
      <trkpt lat="43.60812" lon="1.2142">
        <ele>196.4</ele>
        <time>2025-12-19T11:06:16Z</time>
      </trkpt>
      <trkpt lat="43.60808" lon="1.2143">
        <ele>196.2</ele>
        <time>2025-12-19T11:06:17Z</time>
      </trkpt>
      <trkpt lat="43.60804" lon="1.2144">
        <ele>196.2</ele>
        <time>2025-12-19T11:06:18Z</time>
      </trkpt>
      <trkpt lat="43.60801" lon="1.2145">
        <ele>196</ele>
        <time>2025-12-19T11:06:19Z</time>
      </trkpt>
      <trkpt lat="43.60797" lon="1.21459">
        <ele>196</ele>
        <time>2025-12-19T11:06:20Z</time>
      </trkpt>
      <trkpt lat="43.60793" lon="1.21469">
        <ele>195.8</ele>
        <time>2025-12-19T11:06:21Z</time>
      </trkpt>
      <trkpt lat="43.6079" lon="1.21478">
        <ele>195.8</ele>
        <time>2025-12-19T11:06:22Z</time>
      </trkpt>
      <trkpt lat="43.60786" lon="1.21488">
        <ele>195.6</ele>
        <time>2025-12-19T11:06:23Z</time>
      </trkpt>
      <trkpt lat="43.60783" lon="1.21498">
        <ele>195.6</ele>
        <time>2025-12-19T11:06:24Z</time>
      </trkpt>
      <trkpt lat="43.60779" lon="1.21507">
        <ele>195.6</ele>
        <time>2025-12-19T11:06:25Z</time>
      </trkpt>
      <trkpt lat="43.60775" lon="1.21516">
        <ele>195.4</ele>
        <time>2025-12-19T11:06:26Z</time>
      </trkpt>
      <trkpt lat="43.60772" lon="1.21526">
        <ele>195.4</ele>
        <time>2025-12-19T11:06:27Z</time>
      </trkpt>
      <trkpt lat="43.60769" lon="1.21535">
        <ele>195.2</ele>
        <time>2025-12-19T11:06:28Z</time>
      </trkpt>
      <trkpt lat="43.60765" lon="1.21545">
        <ele>195</ele>
        <time>2025-12-19T11:06:29Z</time>
      </trkpt>
      <trkpt lat="43.60762" lon="1.21554">
        <ele>195.2</ele>
        <time>2025-12-19T11:06:30Z</time>
      </trkpt>
      <trkpt lat="43.60758" lon="1.21564">
        <ele>195.2</ele>
        <time>2025-12-19T11:06:31Z</time>
      </trkpt>
      <trkpt lat="43.60755" lon="1.21573">
        <ele>195.2</ele>
        <time>2025-12-19T11:06:32Z</time>
      </trkpt>
      <trkpt lat="43.60751" lon="1.21582">
        <ele>195.2</ele>
        <time>2025-12-19T11:06:33Z</time>
      </trkpt>
      <trkpt lat="43.60748" lon="1.21592">
        <ele>195.2</ele>
        <time>2025-12-19T11:06:34Z</time>
      </trkpt>
      <trkpt lat="43.60745" lon="1.21601">
        <ele>195</ele>
        <time>2025-12-19T11:06:35Z</time>
      </trkpt>
      <trkpt lat="43.60741" lon="1.2161">
        <ele>195</ele>
        <time>2025-12-19T11:06:36Z</time>
      </trkpt>
      <trkpt lat="43.60738" lon="1.21619">
        <ele>195</ele>
        <time>2025-12-19T11:06:37Z</time>
      </trkpt>
      <trkpt lat="43.60735" lon="1.21628">
        <ele>195</ele>
        <time>2025-12-19T11:06:38Z</time>
      </trkpt>
      <trkpt lat="43.60731" lon="1.21637">
        <ele>195</ele>
        <time>2025-12-19T11:06:39Z</time>
      </trkpt>
      <trkpt lat="43.60728" lon="1.21646">
        <ele>194.8</ele>
        <time>2025-12-19T11:06:40Z</time>
      </trkpt>
      <trkpt lat="43.60724" lon="1.21656">
        <ele>194.8</ele>
        <time>2025-12-19T11:06:41Z</time>
      </trkpt>
      <trkpt lat="43.60721" lon="1.21665">
        <ele>194.8</ele>
        <time>2025-12-19T11:06:42Z</time>
      </trkpt>
      <trkpt lat="43.60717" lon="1.21675">
        <ele>194.6</ele>
        <time>2025-12-19T11:06:43Z</time>
      </trkpt>
      <trkpt lat="43.60713" lon="1.21684">
        <ele>194.6</ele>
        <time>2025-12-19T11:06:44Z</time>
      </trkpt>
      <trkpt lat="43.60709" lon="1.21693">
        <ele>194.8</ele>
        <time>2025-12-19T11:06:45Z</time>
      </trkpt>
      <trkpt lat="43.60706" lon="1.21702">
        <ele>194.8</ele>
        <time>2025-12-19T11:06:46Z</time>
      </trkpt>
      <trkpt lat="43.60702" lon="1.21711">
        <ele>194.8</ele>
        <time>2025-12-19T11:06:47Z</time>
      </trkpt>
      <trkpt lat="43.60699" lon="1.2172">
        <ele>194.6</ele>
        <time>2025-12-19T11:06:48Z</time>
      </trkpt>
      <trkpt lat="43.60695" lon="1.21729">
        <ele>194.6</ele>
        <time>2025-12-19T11:06:49Z</time>
      </trkpt>
      <trkpt lat="43.60691" lon="1.21738">
        <ele>194.6</ele>
        <time>2025-12-19T11:06:50Z</time>
      </trkpt>
      <trkpt lat="43.60688" lon="1.21747">
        <ele>194.4</ele>
        <time>2025-12-19T11:06:51Z</time>
      </trkpt>
      <trkpt lat="43.60685" lon="1.21756">
        <ele>194.4</ele>
        <time>2025-12-19T11:06:52Z</time>
      </trkpt>
      <trkpt lat="43.60681" lon="1.21765">
        <ele>194.4</ele>
        <time>2025-12-19T11:06:53Z</time>
      </trkpt>
      <trkpt lat="43.60677" lon="1.21774">
        <ele>194.4</ele>
        <time>2025-12-19T11:06:54Z</time>
      </trkpt>
      <trkpt lat="43.60674" lon="1.21783">
        <ele>194.4</ele>
        <time>2025-12-19T11:06:55Z</time>
      </trkpt>
      <trkpt lat="43.6067" lon="1.21792">
        <ele>194.6</ele>
        <time>2025-12-19T11:06:56Z</time>
      </trkpt>
      <trkpt lat="43.60666" lon="1.21801">
        <ele>194.6</ele>
        <time>2025-12-19T11:06:57Z</time>
      </trkpt>
      <trkpt lat="43.60663" lon="1.2181">
        <ele>194.4</ele>
        <time>2025-12-19T11:06:58Z</time>
      </trkpt>
      <trkpt lat="43.60659" lon="1.21818">
        <ele>194.4</ele>
        <time>2025-12-19T11:06:59Z</time>
      </trkpt>
      <trkpt lat="43.60656" lon="1.21827">
        <ele>194.4</ele>
        <time>2025-12-19T11:07:00Z</time>
      </trkpt>
      <trkpt lat="43.60652" lon="1.21836">
        <ele>194.4</ele>
        <time>2025-12-19T11:07:01Z</time>
      </trkpt>
      <trkpt lat="43.60648" lon="1.21845">
        <ele>194.4</ele>
        <time>2025-12-19T11:07:02Z</time>
      </trkpt>
      <trkpt lat="43.60644" lon="1.21854">
        <ele>194.4</ele>
        <time>2025-12-19T11:07:03Z</time>
      </trkpt>
      <trkpt lat="43.60641" lon="1.21863">
        <ele>194.4</ele>
        <time>2025-12-19T11:07:04Z</time>
      </trkpt>
      <trkpt lat="43.60637" lon="1.21872">
        <ele>194.4</ele>
        <time>2025-12-19T11:07:05Z</time>
      </trkpt>
      <trkpt lat="43.60634" lon="1.2188">
        <ele>194.2</ele>
        <time>2025-12-19T11:07:06Z</time>
      </trkpt>
      <trkpt lat="43.6063" lon="1.21889">
        <ele>194.2</ele>
        <time>2025-12-19T11:07:07Z</time>
      </trkpt>
      <trkpt lat="43.60626" lon="1.21897">
        <ele>194.2</ele>
        <time>2025-12-19T11:07:08Z</time>
      </trkpt>
      <trkpt lat="43.60623" lon="1.21906">
        <ele>194.2</ele>
        <time>2025-12-19T11:07:09Z</time>
      </trkpt>
      <trkpt lat="43.60619" lon="1.21914">
        <ele>194.2</ele>
        <time>2025-12-19T11:07:10Z</time>
      </trkpt>
      <trkpt lat="43.60616" lon="1.21923">
        <ele>194.2</ele>
        <time>2025-12-19T11:07:11Z</time>
      </trkpt>
      <trkpt lat="43.60612" lon="1.21932">
        <ele>194.2</ele>
        <time>2025-12-19T11:07:12Z</time>
      </trkpt>
      <trkpt lat="43.60608" lon="1.21941">
        <ele>194.2</ele>
        <time>2025-12-19T11:07:13Z</time>
      </trkpt>
      <trkpt lat="43.60605" lon="1.2195">
        <ele>194.2</ele>
        <time>2025-12-19T11:07:14Z</time>
      </trkpt>
      <trkpt lat="43.60601" lon="1.21958">
        <ele>194.2</ele>
        <time>2025-12-19T11:07:15Z</time>
      </trkpt>
      <trkpt lat="43.60598" lon="1.21967">
        <ele>194</ele>
        <time>2025-12-19T11:07:16Z</time>
      </trkpt>
      <trkpt lat="43.60594" lon="1.21975">
        <ele>194</ele>
        <time>2025-12-19T11:07:17Z</time>
      </trkpt>
      <trkpt lat="43.60591" lon="1.21984">
        <ele>194</ele>
        <time>2025-12-19T11:07:18Z</time>
      </trkpt>
      <trkpt lat="43.60587" lon="1.21993">
        <ele>194</ele>
        <time>2025-12-19T11:07:19Z</time>
      </trkpt>
      <trkpt lat="43.60583" lon="1.22002">
        <ele>194</ele>
        <time>2025-12-19T11:07:20Z</time>
      </trkpt>
      <trkpt lat="43.6058" lon="1.22011">
        <ele>194</ele>
        <time>2025-12-19T11:07:21Z</time>
      </trkpt>
      <trkpt lat="43.60576" lon="1.2202">
        <ele>194</ele>
        <time>2025-12-19T11:07:22Z</time>
      </trkpt>
      <trkpt lat="43.60572" lon="1.2203">
        <ele>194</ele>
        <time>2025-12-19T11:07:23Z</time>
      </trkpt>
      <trkpt lat="43.60569" lon="1.22039">
        <ele>194</ele>
        <time>2025-12-19T11:07:24Z</time>
      </trkpt>
      <trkpt lat="43.60566" lon="1.22048">
        <ele>194</ele>
        <time>2025-12-19T11:07:25Z</time>
      </trkpt>
      <trkpt lat="43.60563" lon="1.22057">
        <ele>194.2</ele>
        <time>2025-12-19T11:07:26Z</time>
      </trkpt>
      <trkpt lat="43.6056" lon="1.22067">
        <ele>194.2</ele>
        <time>2025-12-19T11:07:27Z</time>
      </trkpt>
      <trkpt lat="43.60557" lon="1.22076">
        <ele>194</ele>
        <time>2025-12-19T11:07:28Z</time>
      </trkpt>
      <trkpt lat="43.60554" lon="1.22086">
        <ele>194.2</ele>
        <time>2025-12-19T11:07:29Z</time>
      </trkpt>
      <trkpt lat="43.60551" lon="1.22096">
        <ele>194.2</ele>
        <time>2025-12-19T11:07:30Z</time>
      </trkpt>
      <trkpt lat="43.60548" lon="1.22106">
        <ele>194</ele>
        <time>2025-12-19T11:07:31Z</time>
      </trkpt>
      <trkpt lat="43.60545" lon="1.22115">
        <ele>194</ele>
        <time>2025-12-19T11:07:32Z</time>
      </trkpt>
      <trkpt lat="43.60541" lon="1.22125">
        <ele>194</ele>
        <time>2025-12-19T11:07:33Z</time>
      </trkpt>
      <trkpt lat="43.60538" lon="1.22135">
        <ele>194</ele>
        <time>2025-12-19T11:07:34Z</time>
      </trkpt>
      <trkpt lat="43.60534" lon="1.22145">
        <ele>193.8</ele>
        <time>2025-12-19T11:07:35Z</time>
      </trkpt>
      <trkpt lat="43.60531" lon="1.22155">
        <ele>193.8</ele>
        <time>2025-12-19T11:07:36Z</time>
      </trkpt>
      <trkpt lat="43.60527" lon="1.22164">
        <ele>193.6</ele>
        <time>2025-12-19T11:07:37Z</time>
      </trkpt>
      <trkpt lat="43.60523" lon="1.22173">
        <ele>193.6</ele>
        <time>2025-12-19T11:07:38Z</time>
      </trkpt>
      <trkpt lat="43.60519" lon="1.22183">
        <ele>193.8</ele>
        <time>2025-12-19T11:07:39Z</time>
      </trkpt>
      <trkpt lat="43.60515" lon="1.22192">
        <ele>194</ele>
        <time>2025-12-19T11:07:40Z</time>
      </trkpt>
      <trkpt lat="43.6051" lon="1.22201">
        <ele>194</ele>
        <time>2025-12-19T11:07:41Z</time>
      </trkpt>
      <trkpt lat="43.60506" lon="1.2221">
        <ele>194</ele>
        <time>2025-12-19T11:07:42Z</time>
      </trkpt>
      <trkpt lat="43.60501" lon="1.22219">
        <ele>194</ele>
        <time>2025-12-19T11:07:43Z</time>
      </trkpt>
      <trkpt lat="43.60496" lon="1.22227">
        <ele>193.8</ele>
        <time>2025-12-19T11:07:44Z</time>
      </trkpt>
      <trkpt lat="43.60492" lon="1.22236">
        <ele>193.8</ele>
        <time>2025-12-19T11:07:45Z</time>
      </trkpt>
      <trkpt lat="43.60487" lon="1.22245">
        <ele>193.6</ele>
        <time>2025-12-19T11:07:46Z</time>
      </trkpt>
      <trkpt lat="43.60483" lon="1.22253">
        <ele>193.6</ele>
        <time>2025-12-19T11:07:47Z</time>
      </trkpt>
      <trkpt lat="43.60478" lon="1.22262">
        <ele>193.8</ele>
        <time>2025-12-19T11:07:48Z</time>
      </trkpt>
      <trkpt lat="43.60473" lon="1.22271">
        <ele>193.6</ele>
        <time>2025-12-19T11:07:49Z</time>
      </trkpt>
      <trkpt lat="43.60469" lon="1.22279">
        <ele>193.6</ele>
        <time>2025-12-19T11:07:50Z</time>
      </trkpt>
      <trkpt lat="43.60464" lon="1.22288">
        <ele>193.6</ele>
        <time>2025-12-19T11:07:51Z</time>
      </trkpt>
      <trkpt lat="43.6046" lon="1.22296">
        <ele>193.6</ele>
        <time>2025-12-19T11:07:52Z</time>
      </trkpt>
      <trkpt lat="43.60455" lon="1.22305">
        <ele>193.6</ele>
        <time>2025-12-19T11:07:53Z</time>
      </trkpt>
      <trkpt lat="43.60451" lon="1.22313">
        <ele>193.6</ele>
        <time>2025-12-19T11:07:54Z</time>
      </trkpt>
      <trkpt lat="43.60447" lon="1.22322">
        <ele>193.6</ele>
        <time>2025-12-19T11:07:55Z</time>
      </trkpt>
      <trkpt lat="43.60442" lon="1.22331">
        <ele>193.6</ele>
        <time>2025-12-19T11:07:56Z</time>
      </trkpt>
      <trkpt lat="43.60437" lon="1.22339">
        <ele>193.8</ele>
        <time>2025-12-19T11:07:57Z</time>
      </trkpt>
      <trkpt lat="43.60432" lon="1.22347">
        <ele>193.6</ele>
        <time>2025-12-19T11:07:58Z</time>
      </trkpt>
      <trkpt lat="43.60427" lon="1.22355">
        <ele>193.6</ele>
        <time>2025-12-19T11:07:59Z</time>
      </trkpt>
      <trkpt lat="43.60422" lon="1.22363">
        <ele>193.6</ele>
        <time>2025-12-19T11:08:00Z</time>
      </trkpt>
      <trkpt lat="43.60416" lon="1.2237">
        <ele>193.6</ele>
        <time>2025-12-19T11:08:01Z</time>
      </trkpt>
      <trkpt lat="43.60411" lon="1.22377">
        <ele>193.8</ele>
        <time>2025-12-19T11:08:02Z</time>
      </trkpt>
      <trkpt lat="43.60405" lon="1.22384">
        <ele>194</ele>
        <time>2025-12-19T11:08:03Z</time>
      </trkpt>
      <trkpt lat="43.604" lon="1.22391">
        <ele>194</ele>
        <time>2025-12-19T11:08:04Z</time>
      </trkpt>
      <trkpt lat="43.60394" lon="1.22398">
        <ele>194</ele>
        <time>2025-12-19T11:08:05Z</time>
      </trkpt>
      <trkpt lat="43.60389" lon="1.22405">
        <ele>194</ele>
        <time>2025-12-19T11:08:06Z</time>
      </trkpt>
      <trkpt lat="43.60383" lon="1.22412">
        <ele>194</ele>
        <time>2025-12-19T11:08:07Z</time>
      </trkpt>
      <trkpt lat="43.60377" lon="1.22419">
        <ele>193.8</ele>
        <time>2025-12-19T11:08:08Z</time>
      </trkpt>
      <trkpt lat="43.60371" lon="1.22427">
        <ele>193.8</ele>
        <time>2025-12-19T11:08:09Z</time>
      </trkpt>
      <trkpt lat="43.60365" lon="1.22434">
        <ele>193.6</ele>
        <time>2025-12-19T11:08:10Z</time>
      </trkpt>
      <trkpt lat="43.60361" lon="1.22443">
        <ele>193.6</ele>
        <time>2025-12-19T11:08:11Z</time>
      </trkpt>
      <trkpt lat="43.60356" lon="1.22452">
        <ele>193.6</ele>
        <time>2025-12-19T11:08:12Z</time>
      </trkpt>
      <trkpt lat="43.60352" lon="1.22461">
        <ele>193.6</ele>
        <time>2025-12-19T11:08:13Z</time>
      </trkpt>
      <trkpt lat="43.60348" lon="1.22471">
        <ele>193.6</ele>
        <time>2025-12-19T11:08:14Z</time>
      </trkpt>
      <trkpt lat="43.60344" lon="1.2248">
        <ele>193.6</ele>
        <time>2025-12-19T11:08:15Z</time>
      </trkpt>
      <trkpt lat="43.6034" lon="1.22489">
        <ele>193.6</ele>
        <time>2025-12-19T11:08:16Z</time>
      </trkpt>
      <trkpt lat="43.60336" lon="1.22499">
        <ele>193.6</ele>
        <time>2025-12-19T11:08:17Z</time>
      </trkpt>
      <trkpt lat="43.60332" lon="1.22508">
        <ele>193.6</ele>
        <time>2025-12-19T11:08:18Z</time>
      </trkpt>
      <trkpt lat="43.60328" lon="1.22518">
        <ele>193.4</ele>
        <time>2025-12-19T11:08:19Z</time>
      </trkpt>
      <trkpt lat="43.60325" lon="1.22527">
        <ele>193.4</ele>
        <time>2025-12-19T11:08:20Z</time>
      </trkpt>
      <trkpt lat="43.60322" lon="1.22536">
        <ele>193.6</ele>
        <time>2025-12-19T11:08:21Z</time>
      </trkpt>
      <trkpt lat="43.60318" lon="1.22545">
        <ele>193.6</ele>
        <time>2025-12-19T11:08:22Z</time>
      </trkpt>
      <trkpt lat="43.60314" lon="1.22554">
        <ele>193.6</ele>
        <time>2025-12-19T11:08:23Z</time>
      </trkpt>
      <trkpt lat="43.60311" lon="1.22563">
        <ele>193.8</ele>
        <time>2025-12-19T11:08:24Z</time>
      </trkpt>
      <trkpt lat="43.60308" lon="1.22572">
        <ele>194</ele>
        <time>2025-12-19T11:08:25Z</time>
      </trkpt>
      <trkpt lat="43.60305" lon="1.22581">
        <ele>194</ele>
        <time>2025-12-19T11:08:26Z</time>
      </trkpt>
      <trkpt lat="43.60303" lon="1.22589">
        <ele>194.2</ele>
        <time>2025-12-19T11:08:27Z</time>
      </trkpt>
      <trkpt lat="43.603" lon="1.22596">
        <ele>194.4</ele>
        <time>2025-12-19T11:08:28Z</time>
      </trkpt>
      <trkpt lat="43.60295" lon="1.22602">
        <ele>194.4</ele>
        <time>2025-12-19T11:08:29Z</time>
      </trkpt>
      <trkpt lat="43.60291" lon="1.22607">
        <ele>194.6</ele>
        <time>2025-12-19T11:08:30Z</time>
      </trkpt>
      <trkpt lat="43.60286" lon="1.22612">
        <ele>194.8</ele>
        <time>2025-12-19T11:08:31Z</time>
      </trkpt>
      <trkpt lat="43.60282" lon="1.22619">
        <ele>195</ele>
        <time>2025-12-19T11:08:32Z</time>
      </trkpt>
      <trkpt lat="43.6028" lon="1.22626">
        <ele>195</ele>
        <time>2025-12-19T11:08:33Z</time>
      </trkpt>
      <trkpt lat="43.60279" lon="1.22634">
        <ele>195</ele>
        <time>2025-12-19T11:08:34Z</time>
      </trkpt>
      <trkpt lat="43.60279" lon="1.22643">
        <ele>195</ele>
        <time>2025-12-19T11:08:35Z</time>
      </trkpt>
      <trkpt lat="43.60277" lon="1.22652">
        <ele>195</ele>
        <time>2025-12-19T11:08:36Z</time>
      </trkpt>
      <trkpt lat="43.60274" lon="1.2266">
        <ele>195</ele>
        <time>2025-12-19T11:08:37Z</time>
      </trkpt>
      <trkpt lat="43.60271" lon="1.22669">
        <ele>195</ele>
        <time>2025-12-19T11:08:38Z</time>
      </trkpt>
      <trkpt lat="43.60268" lon="1.22677">
        <ele>194.8</ele>
        <time>2025-12-19T11:08:39Z</time>
      </trkpt>
      <trkpt lat="43.60264" lon="1.22686">
        <ele>194.8</ele>
        <time>2025-12-19T11:08:40Z</time>
      </trkpt>
      <trkpt lat="43.60261" lon="1.22694">
        <ele>194.6</ele>
        <time>2025-12-19T11:08:41Z</time>
      </trkpt>
      <trkpt lat="43.60258" lon="1.22703">
        <ele>194.6</ele>
        <time>2025-12-19T11:08:42Z</time>
      </trkpt>
      <trkpt lat="43.60254" lon="1.22712">
        <ele>194.4</ele>
        <time>2025-12-19T11:08:43Z</time>
      </trkpt>
      <trkpt lat="43.60251" lon="1.22721">
        <ele>194.4</ele>
        <time>2025-12-19T11:08:44Z</time>
      </trkpt>
      <trkpt lat="43.60247" lon="1.2273">
        <ele>194.2</ele>
        <time>2025-12-19T11:08:45Z</time>
      </trkpt>
      <trkpt lat="43.60244" lon="1.22739">
        <ele>194.2</ele>
        <time>2025-12-19T11:08:46Z</time>
      </trkpt>
      <trkpt lat="43.60241" lon="1.22748">
        <ele>194.2</ele>
        <time>2025-12-19T11:08:47Z</time>
      </trkpt>
      <trkpt lat="43.60237" lon="1.22757">
        <ele>194</ele>
        <time>2025-12-19T11:08:48Z</time>
      </trkpt>
      <trkpt lat="43.60234" lon="1.22766">
        <ele>194</ele>
        <time>2025-12-19T11:08:49Z</time>
      </trkpt>
      <trkpt lat="43.6023" lon="1.22775">
        <ele>194</ele>
        <time>2025-12-19T11:08:50Z</time>
      </trkpt>
      <trkpt lat="43.60227" lon="1.22784">
        <ele>193.8</ele>
        <time>2025-12-19T11:08:51Z</time>
      </trkpt>
      <trkpt lat="43.60223" lon="1.22793">
        <ele>193.8</ele>
        <time>2025-12-19T11:08:52Z</time>
      </trkpt>
      <trkpt lat="43.6022" lon="1.22802">
        <ele>193.8</ele>
        <time>2025-12-19T11:08:53Z</time>
      </trkpt>
      <trkpt lat="43.60217" lon="1.2281">
        <ele>193.8</ele>
        <time>2025-12-19T11:08:54Z</time>
      </trkpt>
      <trkpt lat="43.60213" lon="1.2282">
        <ele>193.8</ele>
        <time>2025-12-19T11:08:55Z</time>
      </trkpt>
      <trkpt lat="43.6021" lon="1.22828">
        <ele>193.8</ele>
        <time>2025-12-19T11:08:56Z</time>
      </trkpt>
      <trkpt lat="43.60206" lon="1.22837">
        <ele>193.6</ele>
        <time>2025-12-19T11:08:57Z</time>
      </trkpt>
      <trkpt lat="43.60203" lon="1.22847">
        <ele>193.6</ele>
        <time>2025-12-19T11:08:58Z</time>
      </trkpt>
      <trkpt lat="43.60199" lon="1.22856">
        <ele>193.6</ele>
        <time>2025-12-19T11:08:59Z</time>
      </trkpt>
      <trkpt lat="43.60195" lon="1.22864">
        <ele>193.6</ele>
        <time>2025-12-19T11:09:00Z</time>
      </trkpt>
      <trkpt lat="43.60192" lon="1.22873">
        <ele>193.6</ele>
        <time>2025-12-19T11:09:01Z</time>
      </trkpt>
      <trkpt lat="43.60189" lon="1.22882">
        <ele>193.4</ele>
        <time>2025-12-19T11:09:02Z</time>
      </trkpt>
      <trkpt lat="43.60185" lon="1.22891">
        <ele>193.4</ele>
        <time>2025-12-19T11:09:03Z</time>
      </trkpt>
      <trkpt lat="43.60182" lon="1.22899">
        <ele>193.4</ele>
        <time>2025-12-19T11:09:04Z</time>
      </trkpt>
      <trkpt lat="43.60178" lon="1.22908">
        <ele>193.2</ele>
        <time>2025-12-19T11:09:05Z</time>
      </trkpt>
      <trkpt lat="43.60175" lon="1.22918">
        <ele>193.2</ele>
        <time>2025-12-19T11:09:06Z</time>
      </trkpt>
      <trkpt lat="43.60171" lon="1.22927">
        <ele>193</ele>
        <time>2025-12-19T11:09:07Z</time>
      </trkpt>
      <trkpt lat="43.60168" lon="1.22937">
        <ele>192.8</ele>
        <time>2025-12-19T11:09:08Z</time>
      </trkpt>
      <trkpt lat="43.60164" lon="1.22946">
        <ele>192.6</ele>
        <time>2025-12-19T11:09:09Z</time>
      </trkpt>
      <trkpt lat="43.6016" lon="1.22956">
        <ele>192.2</ele>
        <time>2025-12-19T11:09:10Z</time>
      </trkpt>
      <trkpt lat="43.60156" lon="1.22966">
        <ele>192</ele>
        <time>2025-12-19T11:09:11Z</time>
      </trkpt>
      <trkpt lat="43.60152" lon="1.22976">
        <ele>191.6</ele>
        <time>2025-12-19T11:09:12Z</time>
      </trkpt>
      <trkpt lat="43.60148" lon="1.22987">
        <ele>191.2</ele>
        <time>2025-12-19T11:09:13Z</time>
      </trkpt>
      <trkpt lat="43.60144" lon="1.22998">
        <ele>190.8</ele>
        <time>2025-12-19T11:09:14Z</time>
      </trkpt>
      <trkpt lat="43.6014" lon="1.23009">
        <ele>190.4</ele>
        <time>2025-12-19T11:09:15Z</time>
      </trkpt>
      <trkpt lat="43.60135" lon="1.2302">
        <ele>189.8</ele>
        <time>2025-12-19T11:09:16Z</time>
      </trkpt>
      <trkpt lat="43.6013" lon="1.23032">
        <ele>189.2</ele>
        <time>2025-12-19T11:09:17Z</time>
      </trkpt>
      <trkpt lat="43.60126" lon="1.23044">
        <ele>188.6</ele>
        <time>2025-12-19T11:09:18Z</time>
      </trkpt>
      <trkpt lat="43.60121" lon="1.23057">
        <ele>188</ele>
        <time>2025-12-19T11:09:19Z</time>
      </trkpt>
      <trkpt lat="43.60117" lon="1.23069">
        <ele>187.4</ele>
        <time>2025-12-19T11:09:20Z</time>
      </trkpt>
      <trkpt lat="43.60112" lon="1.23081">
        <ele>186.8</ele>
        <time>2025-12-19T11:09:21Z</time>
      </trkpt>
      <trkpt lat="43.60107" lon="1.23093">
        <ele>186.2</ele>
        <time>2025-12-19T11:09:22Z</time>
      </trkpt>
      <trkpt lat="43.60101" lon="1.23105">
        <ele>185.6</ele>
        <time>2025-12-19T11:09:23Z</time>
      </trkpt>
      <trkpt lat="43.60095" lon="1.23116">
        <ele>185.2</ele>
        <time>2025-12-19T11:09:24Z</time>
      </trkpt>
      <trkpt lat="43.60089" lon="1.23127">
        <ele>184.8</ele>
        <time>2025-12-19T11:09:25Z</time>
      </trkpt>
      <trkpt lat="43.60083" lon="1.23136">
        <ele>184.6</ele>
        <time>2025-12-19T11:09:26Z</time>
      </trkpt>
      <trkpt lat="43.60078" lon="1.23146">
        <ele>184.4</ele>
        <time>2025-12-19T11:09:27Z</time>
      </trkpt>
      <trkpt lat="43.60072" lon="1.23154">
        <ele>184.4</ele>
        <time>2025-12-19T11:09:28Z</time>
      </trkpt>
      <trkpt lat="43.60067" lon="1.23162">
        <ele>184.4</ele>
        <time>2025-12-19T11:09:29Z</time>
      </trkpt>
      <trkpt lat="43.60061" lon="1.2317">
        <ele>184.6</ele>
        <time>2025-12-19T11:09:30Z</time>
      </trkpt>
      <trkpt lat="43.60056" lon="1.23177">
        <ele>184.8</ele>
        <time>2025-12-19T11:09:31Z</time>
      </trkpt>
      <trkpt lat="43.60051" lon="1.23184">
        <ele>185</ele>
        <time>2025-12-19T11:09:32Z</time>
      </trkpt>
      <trkpt lat="43.60046" lon="1.23189">
        <ele>185.4</ele>
        <time>2025-12-19T11:09:33Z</time>
      </trkpt>
      <trkpt lat="43.60041" lon="1.23193">
        <ele>185.8</ele>
        <time>2025-12-19T11:09:34Z</time>
      </trkpt>
      <trkpt lat="43.60036" lon="1.23197">
        <ele>186.2</ele>
        <time>2025-12-19T11:09:35Z</time>
      </trkpt>
      <trkpt lat="43.60032" lon="1.23202">
        <ele>186.6</ele>
        <time>2025-12-19T11:09:36Z</time>
      </trkpt>
      <trkpt lat="43.60029" lon="1.23209">
        <ele>186.8</ele>
        <time>2025-12-19T11:09:37Z</time>
      </trkpt>
      <trkpt lat="43.60026" lon="1.23215">
        <ele>187.4</ele>
        <time>2025-12-19T11:09:38Z</time>
      </trkpt>
      <trkpt lat="43.60021" lon="1.23219">
        <ele>187.8</ele>
        <time>2025-12-19T11:09:39Z</time>
      </trkpt>
      <trkpt lat="43.60017" lon="1.23223">
        <ele>188.2</ele>
        <time>2025-12-19T11:09:40Z</time>
      </trkpt>
      <trkpt lat="43.60013" lon="1.23227">
        <ele>188.4</ele>
        <time>2025-12-19T11:09:41Z</time>
      </trkpt>
      <trkpt lat="43.60009" lon="1.23231">
        <ele>188.8</ele>
        <time>2025-12-19T11:09:42Z</time>
      </trkpt>
      <trkpt lat="43.60005" lon="1.23234">
        <ele>189.4</ele>
        <time>2025-12-19T11:09:43Z</time>
      </trkpt>
      <trkpt lat="43.60001" lon="1.23238">
        <ele>189.8</ele>
        <time>2025-12-19T11:09:44Z</time>
      </trkpt>
      <trkpt lat="43.59998" lon="1.23241">
        <ele>190.2</ele>
        <time>2025-12-19T11:09:45Z</time>
      </trkpt>
      <trkpt lat="43.59994" lon="1.23245">
        <ele>190.6</ele>
        <time>2025-12-19T11:09:46Z</time>
      </trkpt>
      <trkpt lat="43.59991" lon="1.23248">
        <ele>191</ele>
        <time>2025-12-19T11:09:47Z</time>
      </trkpt>
      <trkpt lat="43.59987" lon="1.23251">
        <ele>191.2</ele>
        <time>2025-12-19T11:09:48Z</time>
      </trkpt>
      <trkpt lat="43.59984" lon="1.23254">
        <ele>191.8</ele>
        <time>2025-12-19T11:09:49Z</time>
      </trkpt>
      <trkpt lat="43.59981" lon="1.23256">
        <ele>192.2</ele>
        <time>2025-12-19T11:09:50Z</time>
      </trkpt>
      <trkpt lat="43.59978" lon="1.23258">
        <ele>192.6</ele>
        <time>2025-12-19T11:09:51Z</time>
      </trkpt>
      <trkpt lat="43.59976" lon="1.2326">
        <ele>192.8</ele>
        <time>2025-12-19T11:09:52Z</time>
      </trkpt>
      <trkpt lat="43.59973" lon="1.23263">
        <ele>193</ele>
        <time>2025-12-19T11:09:53Z</time>
      </trkpt>
      <trkpt lat="43.5997" lon="1.23266">
        <ele>193.2</ele>
        <time>2025-12-19T11:09:54Z</time>
      </trkpt>
      <trkpt lat="43.59965" lon="1.23269">
        <ele>193.4</ele>
        <time>2025-12-19T11:09:55Z</time>
      </trkpt>
      <trkpt lat="43.59961" lon="1.23271">
        <ele>193.4</ele>
        <time>2025-12-19T11:09:56Z</time>
      </trkpt>
      <trkpt lat="43.59957" lon="1.23274">
        <ele>193.4</ele>
        <time>2025-12-19T11:09:57Z</time>
      </trkpt>
      <trkpt lat="43.59953" lon="1.23277">
        <ele>193.4</ele>
        <time>2025-12-19T11:09:58Z</time>
      </trkpt>
      <trkpt lat="43.59949" lon="1.23281">
        <ele>193.4</ele>
        <time>2025-12-19T11:09:59Z</time>
      </trkpt>
      <trkpt lat="43.59947" lon="1.23285">
        <ele>193.6</ele>
        <time>2025-12-19T11:10:00Z</time>
      </trkpt>
      <trkpt lat="43.59948" lon="1.2329">
        <ele>193.6</ele>
        <time>2025-12-19T11:10:01Z</time>
      </trkpt>
      <trkpt lat="43.5995" lon="1.23295">
        <ele>193.6</ele>
        <time>2025-12-19T11:10:02Z</time>
      </trkpt>
      <trkpt lat="43.59953" lon="1.23301">
        <ele>193.8</ele>
        <time>2025-12-19T11:10:03Z</time>
      </trkpt>
      <trkpt lat="43.59956" lon="1.23307">
        <ele>193.8</ele>
        <time>2025-12-19T11:10:04Z</time>
      </trkpt>
      <trkpt lat="43.59958" lon="1.23313">
        <ele>193.8</ele>
        <time>2025-12-19T11:10:05Z</time>
      </trkpt>
      <trkpt lat="43.5996" lon="1.23319">
        <ele>193.6</ele>
        <time>2025-12-19T11:10:06Z</time>
      </trkpt>
      <trkpt lat="43.59963" lon="1.23326">
        <ele>193.6</ele>
        <time>2025-12-19T11:10:07Z</time>
      </trkpt>
      <trkpt lat="43.59966" lon="1.23332">
        <ele>193.4</ele>
        <time>2025-12-19T11:10:08Z</time>
      </trkpt>
      <trkpt lat="43.59969" lon="1.23339">
        <ele>193.2</ele>
        <time>2025-12-19T11:10:09Z</time>
      </trkpt>
      <trkpt lat="43.59971" lon="1.23345">
        <ele>193.2</ele>
        <time>2025-12-19T11:10:10Z</time>
      </trkpt>
      <trkpt lat="43.59974" lon="1.23351">
        <ele>193.2</ele>
        <time>2025-12-19T11:10:11Z</time>
      </trkpt>
      <trkpt lat="43.59975" lon="1.23357">
        <ele>193.4</ele>
        <time>2025-12-19T11:10:12Z</time>
      </trkpt>
      <trkpt lat="43.59977" lon="1.23364">
        <ele>193.2</ele>
        <time>2025-12-19T11:10:13Z</time>
      </trkpt>
      <trkpt lat="43.59978" lon="1.23371">
        <ele>193.2</ele>
        <time>2025-12-19T11:10:14Z</time>
      </trkpt>
      <trkpt lat="43.59976" lon="1.23377">
        <ele>193.2</ele>
        <time>2025-12-19T11:10:15Z</time>
      </trkpt>
      <trkpt lat="43.59971" lon="1.2338">
        <ele>193.4</ele>
        <time>2025-12-19T11:10:16Z</time>
      </trkpt>
      <trkpt lat="43.59967" lon="1.23382">
        <ele>193.4</ele>
        <time>2025-12-19T11:10:17Z</time>
      </trkpt>
      <trkpt lat="43.59962" lon="1.23385">
        <ele>193.4</ele>
        <time>2025-12-19T11:10:18Z</time>
      </trkpt>
      <trkpt lat="43.59957" lon="1.23386">
        <ele>193.4</ele>
        <time>2025-12-19T11:10:19Z</time>
      </trkpt>
      <trkpt lat="43.59952" lon="1.23387">
        <ele>193.4</ele>
        <time>2025-12-19T11:10:20Z</time>
      </trkpt>
      <trkpt lat="43.59948" lon="1.23388">
        <ele>193.4</ele>
        <time>2025-12-19T11:10:21Z</time>
      </trkpt>
      <trkpt lat="43.59944" lon="1.23389">
        <ele>193.4</ele>
        <time>2025-12-19T11:10:22Z</time>
      </trkpt>
      <trkpt lat="43.5994" lon="1.23389">
        <ele>193.4</ele>
        <time>2025-12-19T11:10:23Z</time>
      </trkpt>
      <trkpt lat="43.59937" lon="1.23392">
        <ele>193.4</ele>
        <time>2025-12-19T11:10:24Z</time>
      </trkpt>
      <trkpt lat="43.59935" lon="1.23395">
        <ele>193.4</ele>
        <time>2025-12-19T11:10:25Z</time>
      </trkpt>
      <trkpt lat="43.59936" lon="1.234">
        <ele>193.6</ele>
        <time>2025-12-19T11:10:26Z</time>
      </trkpt>
      <trkpt lat="43.59937" lon="1.23405">
        <ele>193.6</ele>
        <time>2025-12-19T11:10:27Z</time>
      </trkpt>
      <trkpt lat="43.59938" lon="1.2341">
        <ele>193.6</ele>
        <time>2025-12-19T11:10:28Z</time>
      </trkpt>
      <trkpt lat="43.59939" lon="1.23415">
        <ele>193.6</ele>
        <time>2025-12-19T11:10:29Z</time>
      </trkpt>
      <trkpt lat="43.59939" lon="1.23421">
        <ele>193.6</ele>
        <time>2025-12-19T11:10:30Z</time>
      </trkpt>
      <trkpt lat="43.5994" lon="1.23426">
        <ele>193.6</ele>
        <time>2025-12-19T11:10:31Z</time>
      </trkpt>
      <trkpt lat="43.59941" lon="1.23432">
        <ele>193.4</ele>
        <time>2025-12-19T11:10:32Z</time>
      </trkpt>
      <trkpt lat="43.59942" lon="1.23438">
        <ele>193.4</ele>
        <time>2025-12-19T11:10:33Z</time>
      </trkpt>
      <trkpt lat="43.59943" lon="1.23443">
        <ele>193.6</ele>
        <time>2025-12-19T11:10:34Z</time>
      </trkpt>
      <trkpt lat="43.59944" lon="1.23448">
        <ele>193.6</ele>
        <time>2025-12-19T11:10:35Z</time>
      </trkpt>
      <trkpt lat="43.59946" lon="1.23453">
        <ele>193.6</ele>
        <time>2025-12-19T11:10:36Z</time>
      </trkpt>
      <trkpt lat="43.59947" lon="1.23459">
        <ele>194</ele>
        <time>2025-12-19T11:10:37Z</time>
      </trkpt>
      <trkpt lat="43.59948" lon="1.23465">
        <ele>194</ele>
        <time>2025-12-19T11:10:38Z</time>
      </trkpt>
      <trkpt lat="43.59949" lon="1.23471">
        <ele>194</ele>
        <time>2025-12-19T11:10:39Z</time>
      </trkpt>
      <trkpt lat="43.5995" lon="1.23478">
        <ele>194</ele>
        <time>2025-12-19T11:10:40Z</time>
      </trkpt>
      <trkpt lat="43.59951" lon="1.23485">
        <ele>193.8</ele>
        <time>2025-12-19T11:10:41Z</time>
      </trkpt>
      <trkpt lat="43.59952" lon="1.23493">
        <ele>193.8</ele>
        <time>2025-12-19T11:10:42Z</time>
      </trkpt>
      <trkpt lat="43.59953" lon="1.235">
        <ele>193.8</ele>
        <time>2025-12-19T11:10:43Z</time>
      </trkpt>
      <trkpt lat="43.59953" lon="1.23508">
        <ele>193.8</ele>
        <time>2025-12-19T11:10:44Z</time>
      </trkpt>
      <trkpt lat="43.59954" lon="1.23516">
        <ele>194</ele>
        <time>2025-12-19T11:10:45Z</time>
      </trkpt>
      <trkpt lat="43.59955" lon="1.23525">
        <ele>194</ele>
        <time>2025-12-19T11:10:46Z</time>
      </trkpt>
      <trkpt lat="43.59956" lon="1.23533">
        <ele>193.8</ele>
        <time>2025-12-19T11:10:47Z</time>
      </trkpt>
      <trkpt lat="43.59957" lon="1.23542">
        <ele>193.8</ele>
        <time>2025-12-19T11:10:48Z</time>
      </trkpt>
      <trkpt lat="43.59958" lon="1.23551">
        <ele>193.8</ele>
        <time>2025-12-19T11:10:49Z</time>
      </trkpt>
      <trkpt lat="43.59959" lon="1.23559">
        <ele>193.6</ele>
        <time>2025-12-19T11:10:50Z</time>
      </trkpt>
      <trkpt lat="43.5996" lon="1.23569">
        <ele>193.4</ele>
        <time>2025-12-19T11:10:51Z</time>
      </trkpt>
      <trkpt lat="43.5996" lon="1.23578">
        <ele>193.2</ele>
        <time>2025-12-19T11:10:52Z</time>
      </trkpt>
      <trkpt lat="43.59961" lon="1.23587">
        <ele>193</ele>
        <time>2025-12-19T11:10:53Z</time>
      </trkpt>
      <trkpt lat="43.59962" lon="1.23595">
        <ele>192.8</ele>
        <time>2025-12-19T11:10:54Z</time>
      </trkpt>
      <trkpt lat="43.59963" lon="1.23602">
        <ele>192.6</ele>
        <time>2025-12-19T11:10:55Z</time>
      </trkpt>
      <trkpt lat="43.59964" lon="1.23609">
        <ele>192.4</ele>
        <time>2025-12-19T11:10:56Z</time>
      </trkpt>
      <trkpt lat="43.59964" lon="1.23615">
        <ele>192.2</ele>
        <time>2025-12-19T11:10:57Z</time>
      </trkpt>
      <trkpt lat="43.59963" lon="1.2362">
        <ele>192</ele>
        <time>2025-12-19T11:10:58Z</time>
      </trkpt>
      <trkpt lat="43.5996" lon="1.23624">
        <ele>191.8</ele>
        <time>2025-12-19T11:10:59Z</time>
      </trkpt>
      <trkpt lat="43.59955" lon="1.23625">
        <ele>191.6</ele>
        <time>2025-12-19T11:11:00Z</time>
      </trkpt>
      <trkpt lat="43.5995" lon="1.23626">
        <ele>191.4</ele>
        <time>2025-12-19T11:11:01Z</time>
      </trkpt>
      <trkpt lat="43.59945" lon="1.23627">
        <ele>191</ele>
        <time>2025-12-19T11:11:02Z</time>
      </trkpt>
      <trkpt lat="43.59939" lon="1.23629">
        <ele>190.6</ele>
        <time>2025-12-19T11:11:03Z</time>
      </trkpt>
      <trkpt lat="43.59932" lon="1.23632">
        <ele>190.2</ele>
        <time>2025-12-19T11:11:04Z</time>
      </trkpt>
      <trkpt lat="43.59926" lon="1.23636">
        <ele>189.8</ele>
        <time>2025-12-19T11:11:05Z</time>
      </trkpt>
      <trkpt lat="43.59919" lon="1.23641">
        <ele>189.2</ele>
        <time>2025-12-19T11:11:06Z</time>
      </trkpt>
      <trkpt lat="43.59911" lon="1.23647">
        <ele>188.4</ele>
        <time>2025-12-19T11:11:07Z</time>
      </trkpt>
      <trkpt lat="43.59903" lon="1.23654">
        <ele>187.4</ele>
        <time>2025-12-19T11:11:08Z</time>
      </trkpt>
      <trkpt lat="43.59896" lon="1.23663">
        <ele>186.4</ele>
        <time>2025-12-19T11:11:09Z</time>
      </trkpt>
      <trkpt lat="43.59888" lon="1.23672">
        <ele>186</ele>
        <time>2025-12-19T11:11:10Z</time>
      </trkpt>
      <trkpt lat="43.5988" lon="1.23681">
        <ele>184.8</ele>
        <time>2025-12-19T11:11:11Z</time>
      </trkpt>
      <trkpt lat="43.59873" lon="1.23689">
        <ele>184</ele>
        <time>2025-12-19T11:11:12Z</time>
      </trkpt>
      <trkpt lat="43.59865" lon="1.23696">
        <ele>183.4</ele>
        <time>2025-12-19T11:11:13Z</time>
      </trkpt>
      <trkpt lat="43.59858" lon="1.23702">
        <ele>183</ele>
        <time>2025-12-19T11:11:14Z</time>
      </trkpt>
      <trkpt lat="43.59851" lon="1.23708">
        <ele>182.8</ele>
        <time>2025-12-19T11:11:15Z</time>
      </trkpt>
      <trkpt lat="43.59844" lon="1.23713">
        <ele>182.8</ele>
        <time>2025-12-19T11:11:16Z</time>
      </trkpt>
      <trkpt lat="43.59837" lon="1.23718">
        <ele>182.8</ele>
        <time>2025-12-19T11:11:17Z</time>
      </trkpt>
      <trkpt lat="43.59831" lon="1.23723">
        <ele>183</ele>
        <time>2025-12-19T11:11:18Z</time>
      </trkpt>
      <trkpt lat="43.59824" lon="1.23728">
        <ele>183.2</ele>
        <time>2025-12-19T11:11:19Z</time>
      </trkpt>
      <trkpt lat="43.59818" lon="1.23733">
        <ele>183.4</ele>
        <time>2025-12-19T11:11:20Z</time>
      </trkpt>
      <trkpt lat="43.59812" lon="1.23737">
        <ele>183.8</ele>
        <time>2025-12-19T11:11:21Z</time>
      </trkpt>
      <trkpt lat="43.59807" lon="1.23741">
        <ele>184</ele>
        <time>2025-12-19T11:11:22Z</time>
      </trkpt>
      <trkpt lat="43.59802" lon="1.23745">
        <ele>184.2</ele>
        <time>2025-12-19T11:11:23Z</time>
      </trkpt>
      <trkpt lat="43.59796" lon="1.23749">
        <ele>184.8</ele>
        <time>2025-12-19T11:11:24Z</time>
      </trkpt>
      <trkpt lat="43.59791" lon="1.23752">
        <ele>185.2</ele>
        <time>2025-12-19T11:11:25Z</time>
      </trkpt>
      <trkpt lat="43.59786" lon="1.23756">
        <ele>185.4</ele>
        <time>2025-12-19T11:11:26Z</time>
      </trkpt>
      <trkpt lat="43.59781" lon="1.2376">
        <ele>185.8</ele>
        <time>2025-12-19T11:11:27Z</time>
      </trkpt>
      <trkpt lat="43.59776" lon="1.23763">
        <ele>186.2</ele>
        <time>2025-12-19T11:11:28Z</time>
      </trkpt>
      <trkpt lat="43.59771" lon="1.23766">
        <ele>186.8</ele>
        <time>2025-12-19T11:11:29Z</time>
      </trkpt>
      <trkpt lat="43.59767" lon="1.2377">
        <ele>187.2</ele>
        <time>2025-12-19T11:11:30Z</time>
      </trkpt>
      <trkpt lat="43.59763" lon="1.23773">
        <ele>187.6</ele>
        <time>2025-12-19T11:11:31Z</time>
      </trkpt>
      <trkpt lat="43.59758" lon="1.23777">
        <ele>188</ele>
        <time>2025-12-19T11:11:32Z</time>
      </trkpt>
      <trkpt lat="43.59754" lon="1.2378">
        <ele>188.4</ele>
        <time>2025-12-19T11:11:33Z</time>
      </trkpt>
      <trkpt lat="43.5975" lon="1.23783">
        <ele>188.8</ele>
        <time>2025-12-19T11:11:34Z</time>
      </trkpt>
      <trkpt lat="43.59745" lon="1.23785">
        <ele>189</ele>
        <time>2025-12-19T11:11:35Z</time>
      </trkpt>
      <trkpt lat="43.59741" lon="1.23788">
        <ele>189.4</ele>
        <time>2025-12-19T11:11:36Z</time>
      </trkpt>
      <trkpt lat="43.59737" lon="1.23792">
        <ele>189.8</ele>
        <time>2025-12-19T11:11:37Z</time>
      </trkpt>
      <trkpt lat="43.59733" lon="1.23796">
        <ele>190.2</ele>
        <time>2025-12-19T11:11:38Z</time>
      </trkpt>
      <trkpt lat="43.5973" lon="1.23799">
        <ele>190.6</ele>
        <time>2025-12-19T11:11:39Z</time>
      </trkpt>
      <trkpt lat="43.59726" lon="1.23802">
        <ele>191</ele>
        <time>2025-12-19T11:11:40Z</time>
      </trkpt>
      <trkpt lat="43.59721" lon="1.23806">
        <ele>191.2</ele>
        <time>2025-12-19T11:11:41Z</time>
      </trkpt>
      <trkpt lat="43.59717" lon="1.23808">
        <ele>191.6</ele>
        <time>2025-12-19T11:11:42Z</time>
      </trkpt>
      <trkpt lat="43.59713" lon="1.23811">
        <ele>191.8</ele>
        <time>2025-12-19T11:11:43Z</time>
      </trkpt>
      <trkpt lat="43.59709" lon="1.23813">
        <ele>192</ele>
        <time>2025-12-19T11:11:44Z</time>
      </trkpt>
      <trkpt lat="43.59705" lon="1.23814">
        <ele>192.4</ele>
        <time>2025-12-19T11:11:45Z</time>
      </trkpt>
      <trkpt lat="43.59701" lon="1.23814">
        <ele>192.6</ele>
        <time>2025-12-19T11:11:46Z</time>
      </trkpt>
      <trkpt lat="43.59697" lon="1.23815">
        <ele>193</ele>
        <time>2025-12-19T11:11:47Z</time>
      </trkpt>
      <trkpt lat="43.59693" lon="1.23816">
        <ele>193.2</ele>
        <time>2025-12-19T11:11:48Z</time>
      </trkpt>
      <trkpt lat="43.59689" lon="1.2382">
        <ele>193.4</ele>
        <time>2025-12-19T11:11:49Z</time>
      </trkpt>
      <trkpt lat="43.59688" lon="1.23826">
        <ele>193.6</ele>
        <time>2025-12-19T11:11:50Z</time>
      </trkpt>
      <trkpt lat="43.59689" lon="1.2383">
        <ele>193.6</ele>
        <time>2025-12-19T11:11:51Z</time>
      </trkpt>
      <trkpt lat="43.5969" lon="1.23834">
        <ele>193.8</ele>
        <time>2025-12-19T11:11:52Z</time>
      </trkpt>
      <trkpt lat="43.59691" lon="1.23838">
        <ele>194</ele>
        <time>2025-12-19T11:11:53Z</time>
      </trkpt>
      <trkpt lat="43.59692" lon="1.23842">
        <ele>194</ele>
        <time>2025-12-19T11:11:54Z</time>
      </trkpt>
      <trkpt lat="43.59693" lon="1.23845">
        <ele>194.2</ele>
        <time>2025-12-19T11:11:55Z</time>
      </trkpt>
      <trkpt lat="43.59695" lon="1.23848">
        <ele>194.2</ele>
        <time>2025-12-19T11:11:56Z</time>
      </trkpt>
      <trkpt lat="43.59696" lon="1.23852">
        <ele>194.2</ele>
        <time>2025-12-19T11:11:57Z</time>
      </trkpt>
      <trkpt lat="43.59697" lon="1.23855">
        <ele>194.2</ele>
        <time>2025-12-19T11:11:58Z</time>
      </trkpt>
      <trkpt lat="43.59698" lon="1.23858">
        <ele>194.4</ele>
        <time>2025-12-19T11:11:59Z</time>
      </trkpt>
      <trkpt lat="43.597" lon="1.23861">
        <ele>194.4</ele>
        <time>2025-12-19T11:12:00Z</time>
      </trkpt>
      <trkpt lat="43.59702" lon="1.23865">
        <ele>194.4</ele>
        <time>2025-12-19T11:12:01Z</time>
      </trkpt>
      <trkpt lat="43.59704" lon="1.2387">
        <ele>194.4</ele>
        <time>2025-12-19T11:12:02Z</time>
      </trkpt>
      <trkpt lat="43.59706" lon="1.23875">
        <ele>194.4</ele>
        <time>2025-12-19T11:12:03Z</time>
      </trkpt>
      <trkpt lat="43.59709" lon="1.2388">
        <ele>194.4</ele>
        <time>2025-12-19T11:12:04Z</time>
      </trkpt>
      <trkpt lat="43.59711" lon="1.23886">
        <ele>194.2</ele>
        <time>2025-12-19T11:12:05Z</time>
      </trkpt>
      <trkpt lat="43.59714" lon="1.23892">
        <ele>194.2</ele>
        <time>2025-12-19T11:12:06Z</time>
      </trkpt>
      <trkpt lat="43.59716" lon="1.23898">
        <ele>194.2</ele>
        <time>2025-12-19T11:12:07Z</time>
      </trkpt>
      <trkpt lat="43.59718" lon="1.23904">
        <ele>194.2</ele>
        <time>2025-12-19T11:12:08Z</time>
      </trkpt>
      <trkpt lat="43.5972" lon="1.23911">
        <ele>194.2</ele>
        <time>2025-12-19T11:12:09Z</time>
      </trkpt>
      <trkpt lat="43.59723" lon="1.23917">
        <ele>194.2</ele>
        <time>2025-12-19T11:12:10Z</time>
      </trkpt>
      <trkpt lat="43.59725" lon="1.23923">
        <ele>194.2</ele>
        <time>2025-12-19T11:12:11Z</time>
      </trkpt>
      <trkpt lat="43.59728" lon="1.2393">
        <ele>194.2</ele>
        <time>2025-12-19T11:12:12Z</time>
      </trkpt>
      <trkpt lat="43.59731" lon="1.23937">
        <ele>194.2</ele>
        <time>2025-12-19T11:12:13Z</time>
      </trkpt>
      <trkpt lat="43.59734" lon="1.23944">
        <ele>194.2</ele>
        <time>2025-12-19T11:12:14Z</time>
      </trkpt>
      <trkpt lat="43.59737" lon="1.23951">
        <ele>194.2</ele>
        <time>2025-12-19T11:12:15Z</time>
      </trkpt>
      <trkpt lat="43.5974" lon="1.23958">
        <ele>194.2</ele>
        <time>2025-12-19T11:12:16Z</time>
      </trkpt>
      <trkpt lat="43.59743" lon="1.23965">
        <ele>194</ele>
        <time>2025-12-19T11:12:17Z</time>
      </trkpt>
      <trkpt lat="43.59746" lon="1.23971">
        <ele>194</ele>
        <time>2025-12-19T11:12:18Z</time>
      </trkpt>
      <trkpt lat="43.59748" lon="1.23978">
        <ele>194</ele>
        <time>2025-12-19T11:12:19Z</time>
      </trkpt>
      <trkpt lat="43.59749" lon="1.23984">
        <ele>194</ele>
        <time>2025-12-19T11:12:20Z</time>
      </trkpt>
      <trkpt lat="43.59747" lon="1.23989">
        <ele>194</ele>
        <time>2025-12-19T11:12:21Z</time>
      </trkpt>
      <trkpt lat="43.59746" lon="1.23995">
        <ele>194</ele>
        <time>2025-12-19T11:12:22Z</time>
      </trkpt>
      <trkpt lat="43.59746" lon="1.24">
        <ele>194.2</ele>
        <time>2025-12-19T11:12:23Z</time>
      </trkpt>
      <trkpt lat="43.59747" lon="1.24006">
        <ele>194</ele>
        <time>2025-12-19T11:12:24Z</time>
      </trkpt>
      <trkpt lat="43.59749" lon="1.24012">
        <ele>194</ele>
        <time>2025-12-19T11:12:25Z</time>
      </trkpt>
      <trkpt lat="43.59751" lon="1.24019">
        <ele>194</ele>
        <time>2025-12-19T11:12:26Z</time>
      </trkpt>
      <trkpt lat="43.59753" lon="1.24026">
        <ele>193.8</ele>
        <time>2025-12-19T11:12:27Z</time>
      </trkpt>
      <trkpt lat="43.59756" lon="1.24033">
        <ele>193.8</ele>
        <time>2025-12-19T11:12:28Z</time>
      </trkpt>
      <trkpt lat="43.59759" lon="1.24041">
        <ele>193.8</ele>
        <time>2025-12-19T11:12:29Z</time>
      </trkpt>
      <trkpt lat="43.59761" lon="1.24049">
        <ele>193.6</ele>
        <time>2025-12-19T11:12:30Z</time>
      </trkpt>
      <trkpt lat="43.59762" lon="1.24057">
        <ele>193.6</ele>
        <time>2025-12-19T11:12:31Z</time>
      </trkpt>
      <trkpt lat="43.59765" lon="1.24065">
        <ele>193.4</ele>
        <time>2025-12-19T11:12:32Z</time>
      </trkpt>
      <trkpt lat="43.59767" lon="1.24073">
        <ele>193.4</ele>
        <time>2025-12-19T11:12:33Z</time>
      </trkpt>
      <trkpt lat="43.5977" lon="1.24081">
        <ele>193.4</ele>
        <time>2025-12-19T11:12:34Z</time>
      </trkpt>
      <trkpt lat="43.59773" lon="1.24089">
        <ele>193.4</ele>
        <time>2025-12-19T11:12:35Z</time>
      </trkpt>
      <trkpt lat="43.59776" lon="1.24098">
        <ele>193.2</ele>
        <time>2025-12-19T11:12:36Z</time>
      </trkpt>
      <trkpt lat="43.59779" lon="1.24106">
        <ele>193.2</ele>
        <time>2025-12-19T11:12:37Z</time>
      </trkpt>
      <trkpt lat="43.59781" lon="1.24115">
        <ele>193.2</ele>
        <time>2025-12-19T11:12:38Z</time>
      </trkpt>
      <trkpt lat="43.59783" lon="1.24124">
        <ele>193</ele>
        <time>2025-12-19T11:12:39Z</time>
      </trkpt>
      <trkpt lat="43.59785" lon="1.24133">
        <ele>193</ele>
        <time>2025-12-19T11:12:40Z</time>
      </trkpt>
      <trkpt lat="43.59787" lon="1.24143">
        <ele>192.8</ele>
        <time>2025-12-19T11:12:41Z</time>
      </trkpt>
      <trkpt lat="43.59787" lon="1.24153">
        <ele>192.6</ele>
        <time>2025-12-19T11:12:42Z</time>
      </trkpt>
      <trkpt lat="43.59786" lon="1.24164">
        <ele>192.4</ele>
        <time>2025-12-19T11:12:43Z</time>
      </trkpt>
      <trkpt lat="43.59784" lon="1.24173">
        <ele>192.4</ele>
        <time>2025-12-19T11:12:44Z</time>
      </trkpt>
      <trkpt lat="43.59782" lon="1.24183">
        <ele>192.2</ele>
        <time>2025-12-19T11:12:45Z</time>
      </trkpt>
      <trkpt lat="43.5978" lon="1.24193">
        <ele>192</ele>
        <time>2025-12-19T11:12:46Z</time>
      </trkpt>
      <trkpt lat="43.59779" lon="1.24203">
        <ele>192</ele>
        <time>2025-12-19T11:12:47Z</time>
      </trkpt>
      <trkpt lat="43.59779" lon="1.24212">
        <ele>192</ele>
        <time>2025-12-19T11:12:48Z</time>
      </trkpt>
      <trkpt lat="43.5978" lon="1.24222">
        <ele>191.8</ele>
        <time>2025-12-19T11:12:49Z</time>
      </trkpt>
      <trkpt lat="43.59782" lon="1.24231">
        <ele>191.8</ele>
        <time>2025-12-19T11:12:50Z</time>
      </trkpt>
      <trkpt lat="43.59784" lon="1.2424">
        <ele>191.8</ele>
        <time>2025-12-19T11:12:51Z</time>
      </trkpt>
      <trkpt lat="43.59787" lon="1.2425">
        <ele>191.8</ele>
        <time>2025-12-19T11:12:52Z</time>
      </trkpt>
      <trkpt lat="43.5979" lon="1.24259">
        <ele>191.8</ele>
        <time>2025-12-19T11:12:53Z</time>
      </trkpt>
      <trkpt lat="43.59793" lon="1.24268">
        <ele>192</ele>
        <time>2025-12-19T11:12:54Z</time>
      </trkpt>
      <trkpt lat="43.59796" lon="1.24276">
        <ele>192</ele>
        <time>2025-12-19T11:12:55Z</time>
      </trkpt>
      <trkpt lat="43.59799" lon="1.24285">
        <ele>192</ele>
        <time>2025-12-19T11:12:56Z</time>
      </trkpt>
      <trkpt lat="43.59802" lon="1.24294">
        <ele>192</ele>
        <time>2025-12-19T11:12:57Z</time>
      </trkpt>
      <trkpt lat="43.59805" lon="1.24303">
        <ele>192</ele>
        <time>2025-12-19T11:12:58Z</time>
      </trkpt>
      <trkpt lat="43.59808" lon="1.24311">
        <ele>192.2</ele>
        <time>2025-12-19T11:12:59Z</time>
      </trkpt>
      <trkpt lat="43.59811" lon="1.2432">
        <ele>192.2</ele>
        <time>2025-12-19T11:13:00Z</time>
      </trkpt>
      <trkpt lat="43.59814" lon="1.24328">
        <ele>192.2</ele>
        <time>2025-12-19T11:13:01Z</time>
      </trkpt>
      <trkpt lat="43.59817" lon="1.24337">
        <ele>192.4</ele>
        <time>2025-12-19T11:13:02Z</time>
      </trkpt>
      <trkpt lat="43.59819" lon="1.24346">
        <ele>192.4</ele>
        <time>2025-12-19T11:13:03Z</time>
      </trkpt>
      <trkpt lat="43.59822" lon="1.24354">
        <ele>192.6</ele>
        <time>2025-12-19T11:13:04Z</time>
      </trkpt>
      <trkpt lat="43.59825" lon="1.24362">
        <ele>192.6</ele>
        <time>2025-12-19T11:13:05Z</time>
      </trkpt>
      <trkpt lat="43.59827" lon="1.24369">
        <ele>192.6</ele>
        <time>2025-12-19T11:13:06Z</time>
      </trkpt>
      <trkpt lat="43.5983" lon="1.24376">
        <ele>192.8</ele>
        <time>2025-12-19T11:13:07Z</time>
      </trkpt>
      <trkpt lat="43.59832" lon="1.24384">
        <ele>192.8</ele>
        <time>2025-12-19T11:13:08Z</time>
      </trkpt>
      <trkpt lat="43.59834" lon="1.2439">
        <ele>192.8</ele>
        <time>2025-12-19T11:13:09Z</time>
      </trkpt>
      <trkpt lat="43.59833" lon="1.24398">
        <ele>192.8</ele>
        <time>2025-12-19T11:13:10Z</time>
      </trkpt>
      <trkpt lat="43.59831" lon="1.24404">
        <ele>193</ele>
        <time>2025-12-19T11:13:11Z</time>
      </trkpt>
      <trkpt lat="43.59827" lon="1.24409">
        <ele>193.2</ele>
        <time>2025-12-19T11:13:12Z</time>
      </trkpt>
      <trkpt lat="43.59823" lon="1.24414">
        <ele>193.4</ele>
        <time>2025-12-19T11:13:13Z</time>
      </trkpt>
      <trkpt lat="43.59819" lon="1.24419">
        <ele>193.4</ele>
        <time>2025-12-19T11:13:14Z</time>
      </trkpt>
      <trkpt lat="43.59814" lon="1.24425">
        <ele>193.4</ele>
        <time>2025-12-19T11:13:15Z</time>
      </trkpt>
      <trkpt lat="43.59809" lon="1.2443">
        <ele>193.4</ele>
        <time>2025-12-19T11:13:16Z</time>
      </trkpt>
      <trkpt lat="43.59804" lon="1.24436">
        <ele>193.4</ele>
        <time>2025-12-19T11:13:17Z</time>
      </trkpt>
      <trkpt lat="43.598" lon="1.24441">
        <ele>193.2</ele>
        <time>2025-12-19T11:13:18Z</time>
      </trkpt>
      <trkpt lat="43.59795" lon="1.24447">
        <ele>193.4</ele>
        <time>2025-12-19T11:13:19Z</time>
      </trkpt>
      <trkpt lat="43.5979" lon="1.24452">
        <ele>193.4</ele>
        <time>2025-12-19T11:13:20Z</time>
      </trkpt>
      <trkpt lat="43.59785" lon="1.24458">
        <ele>193.4</ele>
        <time>2025-12-19T11:13:21Z</time>
      </trkpt>
      <trkpt lat="43.5978" lon="1.24463">
        <ele>193.4</ele>
        <time>2025-12-19T11:13:22Z</time>
      </trkpt>
      <trkpt lat="43.59775" lon="1.24469">
        <ele>193.4</ele>
        <time>2025-12-19T11:13:23Z</time>
      </trkpt>
      <trkpt lat="43.5977" lon="1.24474">
        <ele>193.4</ele>
        <time>2025-12-19T11:13:24Z</time>
      </trkpt>
      <trkpt lat="43.59764" lon="1.24479">
        <ele>193.6</ele>
        <time>2025-12-19T11:13:25Z</time>
      </trkpt>
      <trkpt lat="43.59759" lon="1.24484">
        <ele>193.6</ele>
        <time>2025-12-19T11:13:26Z</time>
      </trkpt>
      <trkpt lat="43.59754" lon="1.2449">
        <ele>193.8</ele>
        <time>2025-12-19T11:13:27Z</time>
      </trkpt>
      <trkpt lat="43.59749" lon="1.24495">
        <ele>193.8</ele>
        <time>2025-12-19T11:13:28Z</time>
      </trkpt>
      <trkpt lat="43.59744" lon="1.245">
        <ele>194</ele>
        <time>2025-12-19T11:13:29Z</time>
      </trkpt>
      <trkpt lat="43.59739" lon="1.24506">
        <ele>194</ele>
        <time>2025-12-19T11:13:30Z</time>
      </trkpt>
      <trkpt lat="43.59734" lon="1.24511">
        <ele>194</ele>
        <time>2025-12-19T11:13:31Z</time>
      </trkpt>
      <trkpt lat="43.59729" lon="1.24517">
        <ele>194</ele>
        <time>2025-12-19T11:13:32Z</time>
      </trkpt>
      <trkpt lat="43.59723" lon="1.24522">
        <ele>194</ele>
        <time>2025-12-19T11:13:33Z</time>
      </trkpt>
      <trkpt lat="43.59718" lon="1.24528">
        <ele>194</ele>
        <time>2025-12-19T11:13:34Z</time>
      </trkpt>
      <trkpt lat="43.59713" lon="1.24533">
        <ele>194</ele>
        <time>2025-12-19T11:13:35Z</time>
      </trkpt>
      <trkpt lat="43.59707" lon="1.24539">
        <ele>194</ele>
        <time>2025-12-19T11:13:36Z</time>
      </trkpt>
      <trkpt lat="43.59702" lon="1.24544">
        <ele>194</ele>
        <time>2025-12-19T11:13:37Z</time>
      </trkpt>
      <trkpt lat="43.59696" lon="1.24549">
        <ele>194.2</ele>
        <time>2025-12-19T11:13:38Z</time>
      </trkpt>
      <trkpt lat="43.5969" lon="1.24555">
        <ele>194.2</ele>
        <time>2025-12-19T11:13:39Z</time>
      </trkpt>
      <trkpt lat="43.59684" lon="1.2456">
        <ele>194.2</ele>
        <time>2025-12-19T11:13:40Z</time>
      </trkpt>
      <trkpt lat="43.59679" lon="1.24566">
        <ele>194.2</ele>
        <time>2025-12-19T11:13:41Z</time>
      </trkpt>
      <trkpt lat="43.59673" lon="1.24571">
        <ele>194.2</ele>
        <time>2025-12-19T11:13:42Z</time>
      </trkpt>
      <trkpt lat="43.59667" lon="1.24575">
        <ele>194.2</ele>
        <time>2025-12-19T11:13:43Z</time>
      </trkpt>
      <trkpt lat="43.59661" lon="1.24578">
        <ele>194.2</ele>
        <time>2025-12-19T11:13:44Z</time>
      </trkpt>
      <trkpt lat="43.59656" lon="1.24582">
        <ele>194.2</ele>
        <time>2025-12-19T11:13:45Z</time>
      </trkpt>
      <trkpt lat="43.5965" lon="1.24587">
        <ele>194.2</ele>
        <time>2025-12-19T11:13:46Z</time>
      </trkpt>
      <trkpt lat="43.59644" lon="1.24593">
        <ele>194.4</ele>
        <time>2025-12-19T11:13:47Z</time>
      </trkpt>
      <trkpt lat="43.59638" lon="1.24598">
        <ele>194.4</ele>
        <time>2025-12-19T11:13:48Z</time>
      </trkpt>
      <trkpt lat="43.59632" lon="1.24603">
        <ele>194.2</ele>
        <time>2025-12-19T11:13:49Z</time>
      </trkpt>
      <trkpt lat="43.59626" lon="1.24608">
        <ele>194.2</ele>
        <time>2025-12-19T11:13:50Z</time>
      </trkpt>
      <trkpt lat="43.5962" lon="1.24613">
        <ele>194.4</ele>
        <time>2025-12-19T11:13:51Z</time>
      </trkpt>
      <trkpt lat="43.59614" lon="1.24617">
        <ele>194.2</ele>
        <time>2025-12-19T11:13:52Z</time>
      </trkpt>
      <trkpt lat="43.59608" lon="1.24622">
        <ele>194.2</ele>
        <time>2025-12-19T11:13:53Z</time>
      </trkpt>
      <trkpt lat="43.59602" lon="1.24626">
        <ele>194.2</ele>
        <time>2025-12-19T11:13:54Z</time>
      </trkpt>
      <trkpt lat="43.59595" lon="1.24631">
        <ele>194.2</ele>
        <time>2025-12-19T11:13:55Z</time>
      </trkpt>
      <trkpt lat="43.59589" lon="1.24636">
        <ele>194.2</ele>
        <time>2025-12-19T11:13:56Z</time>
      </trkpt>
      <trkpt lat="43.59583" lon="1.2464">
        <ele>194.4</ele>
        <time>2025-12-19T11:13:57Z</time>
      </trkpt>
      <trkpt lat="43.59576" lon="1.24645">
        <ele>194.4</ele>
        <time>2025-12-19T11:13:58Z</time>
      </trkpt>
      <trkpt lat="43.5957" lon="1.2465">
        <ele>194.4</ele>
        <time>2025-12-19T11:13:59Z</time>
      </trkpt>
      <trkpt lat="43.59564" lon="1.24655">
        <ele>194.6</ele>
        <time>2025-12-19T11:14:00Z</time>
      </trkpt>
      <trkpt lat="43.59557" lon="1.2466">
        <ele>194.6</ele>
        <time>2025-12-19T11:14:01Z</time>
      </trkpt>
      <trkpt lat="43.59551" lon="1.24664">
        <ele>194.6</ele>
        <time>2025-12-19T11:14:02Z</time>
      </trkpt>
      <trkpt lat="43.59544" lon="1.24668">
        <ele>194.6</ele>
        <time>2025-12-19T11:14:03Z</time>
      </trkpt>
      <trkpt lat="43.59538" lon="1.24673">
        <ele>194.6</ele>
        <time>2025-12-19T11:14:04Z</time>
      </trkpt>
      <trkpt lat="43.59532" lon="1.24677">
        <ele>194.6</ele>
        <time>2025-12-19T11:14:05Z</time>
      </trkpt>
      <trkpt lat="43.59525" lon="1.24681">
        <ele>194.6</ele>
        <time>2025-12-19T11:14:06Z</time>
      </trkpt>
      <trkpt lat="43.59519" lon="1.24685">
        <ele>194.8</ele>
        <time>2025-12-19T11:14:07Z</time>
      </trkpt>
      <trkpt lat="43.59513" lon="1.24688">
        <ele>194.8</ele>
        <time>2025-12-19T11:14:08Z</time>
      </trkpt>
      <trkpt lat="43.59506" lon="1.24692">
        <ele>194.8</ele>
        <time>2025-12-19T11:14:09Z</time>
      </trkpt>
      <trkpt lat="43.595" lon="1.24695">
        <ele>195</ele>
        <time>2025-12-19T11:14:10Z</time>
      </trkpt>
      <trkpt lat="43.59494" lon="1.24699">
        <ele>195</ele>
        <time>2025-12-19T11:14:11Z</time>
      </trkpt>
      <trkpt lat="43.59487" lon="1.24702">
        <ele>195.2</ele>
        <time>2025-12-19T11:14:12Z</time>
      </trkpt>
      <trkpt lat="43.5948" lon="1.24705">
        <ele>195.4</ele>
        <time>2025-12-19T11:14:13Z</time>
      </trkpt>
      <trkpt lat="43.59474" lon="1.24709">
        <ele>195.4</ele>
        <time>2025-12-19T11:14:14Z</time>
      </trkpt>
      <trkpt lat="43.59467" lon="1.24712">
        <ele>195.4</ele>
        <time>2025-12-19T11:14:15Z</time>
      </trkpt>
      <trkpt lat="43.59461" lon="1.24715">
        <ele>195.6</ele>
        <time>2025-12-19T11:14:16Z</time>
      </trkpt>
      <trkpt lat="43.59454" lon="1.24719">
        <ele>195.6</ele>
        <time>2025-12-19T11:14:17Z</time>
      </trkpt>
      <trkpt lat="43.59448" lon="1.24722">
        <ele>195.6</ele>
        <time>2025-12-19T11:14:18Z</time>
      </trkpt>
      <trkpt lat="43.59441" lon="1.24726">
        <ele>195.6</ele>
        <time>2025-12-19T11:14:19Z</time>
      </trkpt>
      <trkpt lat="43.59436" lon="1.2473">
        <ele>195.6</ele>
        <time>2025-12-19T11:14:20Z</time>
      </trkpt>
      <trkpt lat="43.5943" lon="1.24734">
        <ele>195.8</ele>
        <time>2025-12-19T11:14:21Z</time>
      </trkpt>
      <trkpt lat="43.59425" lon="1.24738">
        <ele>195.8</ele>
        <time>2025-12-19T11:14:22Z</time>
      </trkpt>
      <trkpt lat="43.59421" lon="1.24744">
        <ele>196</ele>
        <time>2025-12-19T11:14:23Z</time>
      </trkpt>
      <trkpt lat="43.59417" lon="1.2475">
        <ele>196</ele>
        <time>2025-12-19T11:14:24Z</time>
      </trkpt>
      <trkpt lat="43.59413" lon="1.24756">
        <ele>196</ele>
        <time>2025-12-19T11:14:25Z</time>
      </trkpt>
      <trkpt lat="43.59409" lon="1.24762">
        <ele>196</ele>
        <time>2025-12-19T11:14:26Z</time>
      </trkpt>
      <trkpt lat="43.59404" lon="1.24767">
        <ele>196</ele>
        <time>2025-12-19T11:14:27Z</time>
      </trkpt>
      <trkpt lat="43.59399" lon="1.24774">
        <ele>196</ele>
        <time>2025-12-19T11:14:28Z</time>
      </trkpt>
      <trkpt lat="43.59395" lon="1.2478">
        <ele>196.2</ele>
        <time>2025-12-19T11:14:29Z</time>
      </trkpt>
      <trkpt lat="43.59389" lon="1.24786">
        <ele>196.2</ele>
        <time>2025-12-19T11:14:30Z</time>
      </trkpt>
      <trkpt lat="43.59384" lon="1.24792">
        <ele>196.2</ele>
        <time>2025-12-19T11:14:31Z</time>
      </trkpt>
      <trkpt lat="43.59379" lon="1.24798">
        <ele>196</ele>
        <time>2025-12-19T11:14:32Z</time>
      </trkpt>
      <trkpt lat="43.59374" lon="1.24804">
        <ele>196</ele>
        <time>2025-12-19T11:14:33Z</time>
      </trkpt>
      <trkpt lat="43.59369" lon="1.24811">
        <ele>196.2</ele>
        <time>2025-12-19T11:14:34Z</time>
      </trkpt>
      <trkpt lat="43.59364" lon="1.24817">
        <ele>196.2</ele>
        <time>2025-12-19T11:14:35Z</time>
      </trkpt>
      <trkpt lat="43.59359" lon="1.24823">
        <ele>196</ele>
        <time>2025-12-19T11:14:36Z</time>
      </trkpt>
      <trkpt lat="43.59354" lon="1.2483">
        <ele>196.2</ele>
        <time>2025-12-19T11:14:37Z</time>
      </trkpt>
      <trkpt lat="43.59349" lon="1.24836">
        <ele>196.2</ele>
        <time>2025-12-19T11:14:38Z</time>
      </trkpt>
      <trkpt lat="43.59344" lon="1.24843">
        <ele>196.2</ele>
        <time>2025-12-19T11:14:39Z</time>
      </trkpt>
      <trkpt lat="43.59339" lon="1.2485">
        <ele>196.2</ele>
        <time>2025-12-19T11:14:40Z</time>
      </trkpt>
      <trkpt lat="43.59334" lon="1.24858">
        <ele>196.2</ele>
        <time>2025-12-19T11:14:41Z</time>
      </trkpt>
      <trkpt lat="43.59329" lon="1.24865">
        <ele>196.2</ele>
        <time>2025-12-19T11:14:42Z</time>
      </trkpt>
      <trkpt lat="43.59324" lon="1.24872">
        <ele>196.2</ele>
        <time>2025-12-19T11:14:43Z</time>
      </trkpt>
      <trkpt lat="43.59319" lon="1.2488">
        <ele>196.2</ele>
        <time>2025-12-19T11:14:44Z</time>
      </trkpt>
      <trkpt lat="43.59314" lon="1.24887">
        <ele>196.2</ele>
        <time>2025-12-19T11:14:45Z</time>
      </trkpt>
      <trkpt lat="43.59309" lon="1.24894">
        <ele>196</ele>
        <time>2025-12-19T11:14:46Z</time>
      </trkpt>
      <trkpt lat="43.59304" lon="1.24902">
        <ele>196</ele>
        <time>2025-12-19T11:14:47Z</time>
      </trkpt>
      <trkpt lat="43.59299" lon="1.24909">
        <ele>196</ele>
        <time>2025-12-19T11:14:48Z</time>
      </trkpt>
      <trkpt lat="43.59294" lon="1.24917">
        <ele>196</ele>
        <time>2025-12-19T11:14:49Z</time>
      </trkpt>
      <trkpt lat="43.59289" lon="1.24924">
        <ele>195.8</ele>
        <time>2025-12-19T11:14:50Z</time>
      </trkpt>
      <trkpt lat="43.59284" lon="1.24931">
        <ele>196</ele>
        <time>2025-12-19T11:14:51Z</time>
      </trkpt>
      <trkpt lat="43.59278" lon="1.24938">
        <ele>196</ele>
        <time>2025-12-19T11:14:52Z</time>
      </trkpt>
      <trkpt lat="43.59273" lon="1.24945">
        <ele>196</ele>
        <time>2025-12-19T11:14:53Z</time>
      </trkpt>
      <trkpt lat="43.59268" lon="1.24952">
        <ele>196</ele>
        <time>2025-12-19T11:14:54Z</time>
      </trkpt>
      <trkpt lat="43.59262" lon="1.2496">
        <ele>195.8</ele>
        <time>2025-12-19T11:14:55Z</time>
      </trkpt>
      <trkpt lat="43.59257" lon="1.24967">
        <ele>195.8</ele>
        <time>2025-12-19T11:14:56Z</time>
      </trkpt>
      <trkpt lat="43.59253" lon="1.24973">
        <ele>195.6</ele>
        <time>2025-12-19T11:14:57Z</time>
      </trkpt>
      <trkpt lat="43.59248" lon="1.2498">
        <ele>195.6</ele>
        <time>2025-12-19T11:14:58Z</time>
      </trkpt>
      <trkpt lat="43.59243" lon="1.24988">
        <ele>195.6</ele>
        <time>2025-12-19T11:14:59Z</time>
      </trkpt>
      <trkpt lat="43.59238" lon="1.24995">
        <ele>195.4</ele>
        <time>2025-12-19T11:15:00Z</time>
      </trkpt>
      <trkpt lat="43.59233" lon="1.25001">
        <ele>195.6</ele>
        <time>2025-12-19T11:15:01Z</time>
      </trkpt>
      <trkpt lat="43.59229" lon="1.25008">
        <ele>195.4</ele>
        <time>2025-12-19T11:15:02Z</time>
      </trkpt>
      <trkpt lat="43.59224" lon="1.25014">
        <ele>195.4</ele>
        <time>2025-12-19T11:15:03Z</time>
      </trkpt>
      <trkpt lat="43.59219" lon="1.25021">
        <ele>195.4</ele>
        <time>2025-12-19T11:15:04Z</time>
      </trkpt>
      <trkpt lat="43.59214" lon="1.25026">
        <ele>195.2</ele>
        <time>2025-12-19T11:15:05Z</time>
      </trkpt>
      <trkpt lat="43.59209" lon="1.25032">
        <ele>195.2</ele>
        <time>2025-12-19T11:15:06Z</time>
      </trkpt>
      <trkpt lat="43.59204" lon="1.25038">
        <ele>195.2</ele>
        <time>2025-12-19T11:15:07Z</time>
      </trkpt>
      <trkpt lat="43.592" lon="1.25044">
        <ele>195.2</ele>
        <time>2025-12-19T11:15:08Z</time>
      </trkpt>
      <trkpt lat="43.59196" lon="1.25049">
        <ele>195.2</ele>
        <time>2025-12-19T11:15:09Z</time>
      </trkpt>
      <trkpt lat="43.59191" lon="1.25055">
        <ele>195.4</ele>
        <time>2025-12-19T11:15:10Z</time>
      </trkpt>
      <trkpt lat="43.59186" lon="1.25059">
        <ele>195.4</ele>
        <time>2025-12-19T11:15:11Z</time>
      </trkpt>
      <trkpt lat="43.59182" lon="1.25064">
        <ele>195.4</ele>
        <time>2025-12-19T11:15:12Z</time>
      </trkpt>
      <trkpt lat="43.59179" lon="1.25068">
        <ele>195.4</ele>
        <time>2025-12-19T11:15:13Z</time>
      </trkpt>
      <trkpt lat="43.59177" lon="1.25071">
        <ele>195.6</ele>
        <time>2025-12-19T11:15:14Z</time>
      </trkpt>
      <trkpt lat="43.59174" lon="1.25074">
        <ele>195.6</ele>
        <time>2025-12-19T11:15:15Z</time>
      </trkpt>
      <trkpt lat="43.59173" lon="1.25077">
        <ele>195.8</ele>
        <time>2025-12-19T11:15:16Z</time>
      </trkpt>
      <trkpt lat="43.59174" lon="1.25081">
        <ele>195.8</ele>
        <time>2025-12-19T11:15:17Z</time>
      </trkpt>
      <trkpt lat="43.59175" lon="1.25085">
        <ele>196</ele>
        <time>2025-12-19T11:15:18Z</time>
      </trkpt>
      <trkpt lat="43.59174" lon="1.2509">
        <ele>196</ele>
        <time>2025-12-19T11:15:19Z</time>
      </trkpt>
      <trkpt lat="43.59173" lon="1.25095">
        <ele>196</ele>
        <time>2025-12-19T11:15:20Z</time>
      </trkpt>
      <trkpt lat="43.59174" lon="1.251">
        <ele>196</ele>
        <time>2025-12-19T11:15:21Z</time>
      </trkpt>
      <trkpt lat="43.59177" lon="1.25105">
        <ele>196</ele>
        <time>2025-12-19T11:15:22Z</time>
      </trkpt>
      <trkpt lat="43.59181" lon="1.25109">
        <ele>195.8</ele>
        <time>2025-12-19T11:15:23Z</time>
      </trkpt>
      <trkpt lat="43.59185" lon="1.25113">
        <ele>195.8</ele>
        <time>2025-12-19T11:15:24Z</time>
      </trkpt>
      <trkpt lat="43.59189" lon="1.25118">
        <ele>195.8</ele>
        <time>2025-12-19T11:15:25Z</time>
      </trkpt>
      <trkpt lat="43.59194" lon="1.25122">
        <ele>195.6</ele>
        <time>2025-12-19T11:15:26Z</time>
      </trkpt>
      <trkpt lat="43.59198" lon="1.25127">
        <ele>195.6</ele>
        <time>2025-12-19T11:15:27Z</time>
      </trkpt>
      <trkpt lat="43.59203" lon="1.25132">
        <ele>195.6</ele>
        <time>2025-12-19T11:15:28Z</time>
      </trkpt>
      <trkpt lat="43.59207" lon="1.25137">
        <ele>195.6</ele>
        <time>2025-12-19T11:15:29Z</time>
      </trkpt>
      <trkpt lat="43.59211" lon="1.25142">
        <ele>195.6</ele>
        <time>2025-12-19T11:15:30Z</time>
      </trkpt>
      <trkpt lat="43.59216" lon="1.25146">
        <ele>195.6</ele>
        <time>2025-12-19T11:15:31Z</time>
      </trkpt>
      <trkpt lat="43.59221" lon="1.25151">
        <ele>195.6</ele>
        <time>2025-12-19T11:15:32Z</time>
      </trkpt>
      <trkpt lat="43.59227" lon="1.25155">
        <ele>195.6</ele>
        <time>2025-12-19T11:15:33Z</time>
      </trkpt>
      <trkpt lat="43.59232" lon="1.2516">
        <ele>195.8</ele>
        <time>2025-12-19T11:15:34Z</time>
      </trkpt>
      <trkpt lat="43.59237" lon="1.25165">
        <ele>195.8</ele>
        <time>2025-12-19T11:15:35Z</time>
      </trkpt>
      <trkpt lat="43.59242" lon="1.2517">
        <ele>195.8</ele>
        <time>2025-12-19T11:15:36Z</time>
      </trkpt>
      <trkpt lat="43.59248" lon="1.25175">
        <ele>195.8</ele>
        <time>2025-12-19T11:15:37Z</time>
      </trkpt>
      <trkpt lat="43.59253" lon="1.2518">
        <ele>195.8</ele>
        <time>2025-12-19T11:15:38Z</time>
      </trkpt>
      <trkpt lat="43.59259" lon="1.25185">
        <ele>195.8</ele>
        <time>2025-12-19T11:15:39Z</time>
      </trkpt>
      <trkpt lat="43.59264" lon="1.2519">
        <ele>195.8</ele>
        <time>2025-12-19T11:15:40Z</time>
      </trkpt>
      <trkpt lat="43.5927" lon="1.25195">
        <ele>195.8</ele>
        <time>2025-12-19T11:15:41Z</time>
      </trkpt>
      <trkpt lat="43.59275" lon="1.252">
        <ele>195.8</ele>
        <time>2025-12-19T11:15:42Z</time>
      </trkpt>
      <trkpt lat="43.59281" lon="1.25205">
        <ele>195.6</ele>
        <time>2025-12-19T11:15:43Z</time>
      </trkpt>
      <trkpt lat="43.59288" lon="1.25209">
        <ele>195.6</ele>
        <time>2025-12-19T11:15:44Z</time>
      </trkpt>
      <trkpt lat="43.59294" lon="1.25214">
        <ele>195.6</ele>
        <time>2025-12-19T11:15:45Z</time>
      </trkpt>
      <trkpt lat="43.59299" lon="1.2522">
        <ele>195.4</ele>
        <time>2025-12-19T11:15:46Z</time>
      </trkpt>
      <trkpt lat="43.59304" lon="1.25226">
        <ele>195.4</ele>
        <time>2025-12-19T11:15:47Z</time>
      </trkpt>
      <trkpt lat="43.59309" lon="1.25233">
        <ele>195.4</ele>
        <time>2025-12-19T11:15:48Z</time>
      </trkpt>
      <trkpt lat="43.59315" lon="1.25239">
        <ele>195.4</ele>
        <time>2025-12-19T11:15:49Z</time>
      </trkpt>
      <trkpt lat="43.5932" lon="1.25245">
        <ele>195.4</ele>
        <time>2025-12-19T11:15:50Z</time>
      </trkpt>
      <trkpt lat="43.59326" lon="1.2525">
        <ele>195.4</ele>
        <time>2025-12-19T11:15:51Z</time>
      </trkpt>
      <trkpt lat="43.59332" lon="1.25256">
        <ele>195.4</ele>
        <time>2025-12-19T11:15:52Z</time>
      </trkpt>
      <trkpt lat="43.59338" lon="1.25261">
        <ele>195.2</ele>
        <time>2025-12-19T11:15:53Z</time>
      </trkpt>
      <trkpt lat="43.59344" lon="1.25266">
        <ele>195.2</ele>
        <time>2025-12-19T11:15:54Z</time>
      </trkpt>
      <trkpt lat="43.5935" lon="1.2527">
        <ele>195.2</ele>
        <time>2025-12-19T11:15:55Z</time>
      </trkpt>
      <trkpt lat="43.59357" lon="1.25273">
        <ele>195.2</ele>
        <time>2025-12-19T11:15:56Z</time>
      </trkpt>
      <trkpt lat="43.59364" lon="1.25277">
        <ele>195</ele>
        <time>2025-12-19T11:15:57Z</time>
      </trkpt>
      <trkpt lat="43.5937" lon="1.2528">
        <ele>195</ele>
        <time>2025-12-19T11:15:58Z</time>
      </trkpt>
      <trkpt lat="43.59377" lon="1.25283">
        <ele>194.8</ele>
        <time>2025-12-19T11:15:59Z</time>
      </trkpt>
      <trkpt lat="43.59384" lon="1.25286">
        <ele>194.8</ele>
        <time>2025-12-19T11:16:00Z</time>
      </trkpt>
      <trkpt lat="43.5939" lon="1.25288">
        <ele>194.8</ele>
        <time>2025-12-19T11:16:01Z</time>
      </trkpt>
      <trkpt lat="43.59397" lon="1.25291">
        <ele>194.8</ele>
        <time>2025-12-19T11:16:02Z</time>
      </trkpt>
      <trkpt lat="43.59404" lon="1.25293">
        <ele>194.8</ele>
        <time>2025-12-19T11:16:03Z</time>
      </trkpt>
      <trkpt lat="43.59411" lon="1.25295">
        <ele>194.8</ele>
        <time>2025-12-19T11:16:04Z</time>
      </trkpt>
      <trkpt lat="43.59417" lon="1.25297">
        <ele>194.8</ele>
        <time>2025-12-19T11:16:05Z</time>
      </trkpt>
      <trkpt lat="43.59424" lon="1.25299">
        <ele>194.6</ele>
        <time>2025-12-19T11:16:06Z</time>
      </trkpt>
      <trkpt lat="43.5943" lon="1.25301">
        <ele>194.6</ele>
        <time>2025-12-19T11:16:07Z</time>
      </trkpt>
      <trkpt lat="43.59437" lon="1.25304">
        <ele>194.6</ele>
        <time>2025-12-19T11:16:08Z</time>
      </trkpt>
      <trkpt lat="43.59443" lon="1.25306">
        <ele>194.6</ele>
        <time>2025-12-19T11:16:09Z</time>
      </trkpt>
      <trkpt lat="43.59449" lon="1.25308">
        <ele>194.6</ele>
        <time>2025-12-19T11:16:10Z</time>
      </trkpt>
      <trkpt lat="43.59455" lon="1.2531">
        <ele>194.6</ele>
        <time>2025-12-19T11:16:11Z</time>
      </trkpt>
      <trkpt lat="43.59461" lon="1.25313">
        <ele>194.8</ele>
        <time>2025-12-19T11:16:12Z</time>
      </trkpt>
      <trkpt lat="43.59468" lon="1.25314">
        <ele>194.8</ele>
        <time>2025-12-19T11:16:13Z</time>
      </trkpt>
      <trkpt lat="43.59474" lon="1.25316">
        <ele>195</ele>
        <time>2025-12-19T11:16:14Z</time>
      </trkpt>
      <trkpt lat="43.59481" lon="1.25316">
        <ele>195</ele>
        <time>2025-12-19T11:16:15Z</time>
      </trkpt>
      <trkpt lat="43.59487" lon="1.25317">
        <ele>195.2</ele>
        <time>2025-12-19T11:16:16Z</time>
      </trkpt>
      <trkpt lat="43.59493" lon="1.25319">
        <ele>195.2</ele>
        <time>2025-12-19T11:16:17Z</time>
      </trkpt>
      <trkpt lat="43.59499" lon="1.25322">
        <ele>195.2</ele>
        <time>2025-12-19T11:16:18Z</time>
      </trkpt>
      <trkpt lat="43.59505" lon="1.25326">
        <ele>195.4</ele>
        <time>2025-12-19T11:16:19Z</time>
      </trkpt>
      <trkpt lat="43.5951" lon="1.2533">
        <ele>195.6</ele>
        <time>2025-12-19T11:16:20Z</time>
      </trkpt>
      <trkpt lat="43.59515" lon="1.25336">
        <ele>195.6</ele>
        <time>2025-12-19T11:16:21Z</time>
      </trkpt>
      <trkpt lat="43.59519" lon="1.25342">
        <ele>195.6</ele>
        <time>2025-12-19T11:16:22Z</time>
      </trkpt>
      <trkpt lat="43.59524" lon="1.25348">
        <ele>195.8</ele>
        <time>2025-12-19T11:16:23Z</time>
      </trkpt>
      <trkpt lat="43.59528" lon="1.25355">
        <ele>195.8</ele>
        <time>2025-12-19T11:16:24Z</time>
      </trkpt>
      <trkpt lat="43.59532" lon="1.25361">
        <ele>195.8</ele>
        <time>2025-12-19T11:16:25Z</time>
      </trkpt>
      <trkpt lat="43.59536" lon="1.25368">
        <ele>195.8</ele>
        <time>2025-12-19T11:16:26Z</time>
      </trkpt>
      <trkpt lat="43.59541" lon="1.25374">
        <ele>195.8</ele>
        <time>2025-12-19T11:16:27Z</time>
      </trkpt>
      <trkpt lat="43.59546" lon="1.25379">
        <ele>195.8</ele>
        <time>2025-12-19T11:16:28Z</time>
      </trkpt>
      <trkpt lat="43.59551" lon="1.25384">
        <ele>195.8</ele>
        <time>2025-12-19T11:16:29Z</time>
      </trkpt>
      <trkpt lat="43.59557" lon="1.25389">
        <ele>195.8</ele>
        <time>2025-12-19T11:16:30Z</time>
      </trkpt>
      <trkpt lat="43.59562" lon="1.25395">
        <ele>195.6</ele>
        <time>2025-12-19T11:16:31Z</time>
      </trkpt>
      <trkpt lat="43.59567" lon="1.254">
        <ele>195.6</ele>
        <time>2025-12-19T11:16:32Z</time>
      </trkpt>
      <trkpt lat="43.59572" lon="1.25405">
        <ele>195.6</ele>
        <time>2025-12-19T11:16:33Z</time>
      </trkpt>
      <trkpt lat="43.59578" lon="1.25408">
        <ele>195.8</ele>
        <time>2025-12-19T11:16:34Z</time>
      </trkpt>
      <trkpt lat="43.59585" lon="1.25411">
        <ele>195.8</ele>
        <time>2025-12-19T11:16:35Z</time>
      </trkpt>
      <trkpt lat="43.59591" lon="1.25413">
        <ele>195.8</ele>
        <time>2025-12-19T11:16:36Z</time>
      </trkpt>
      <trkpt lat="43.59598" lon="1.25414">
        <ele>195.6</ele>
        <time>2025-12-19T11:16:37Z</time>
      </trkpt>
      <trkpt lat="43.59605" lon="1.25415">
        <ele>195.6</ele>
        <time>2025-12-19T11:16:38Z</time>
      </trkpt>
      <trkpt lat="43.59612" lon="1.25418">
        <ele>195.4</ele>
        <time>2025-12-19T11:16:39Z</time>
      </trkpt>
      <trkpt lat="43.59619" lon="1.2542">
        <ele>195.2</ele>
        <time>2025-12-19T11:16:40Z</time>
      </trkpt>
      <trkpt lat="43.59625" lon="1.25421">
        <ele>195.2</ele>
        <time>2025-12-19T11:16:41Z</time>
      </trkpt>
      <trkpt lat="43.59632" lon="1.25422">
        <ele>195</ele>
        <time>2025-12-19T11:16:42Z</time>
      </trkpt>
      <trkpt lat="43.59638" lon="1.25424">
        <ele>195</ele>
        <time>2025-12-19T11:16:43Z</time>
      </trkpt>
      <trkpt lat="43.59645" lon="1.25424">
        <ele>195</ele>
        <time>2025-12-19T11:16:44Z</time>
      </trkpt>
      <trkpt lat="43.59652" lon="1.25425">
        <ele>195</ele>
        <time>2025-12-19T11:16:45Z</time>
      </trkpt>
      <trkpt lat="43.59659" lon="1.25426">
        <ele>195</ele>
        <time>2025-12-19T11:16:46Z</time>
      </trkpt>
      <trkpt lat="43.59666" lon="1.25427">
        <ele>195</ele>
        <time>2025-12-19T11:16:47Z</time>
      </trkpt>
      <trkpt lat="43.59673" lon="1.25426">
        <ele>195</ele>
        <time>2025-12-19T11:16:48Z</time>
      </trkpt>
      <trkpt lat="43.5968" lon="1.25426">
        <ele>195</ele>
        <time>2025-12-19T11:16:49Z</time>
      </trkpt>
      <trkpt lat="43.59687" lon="1.25427">
        <ele>194.8</ele>
        <time>2025-12-19T11:16:50Z</time>
      </trkpt>
      <trkpt lat="43.59693" lon="1.25429">
        <ele>194.8</ele>
        <time>2025-12-19T11:16:51Z</time>
      </trkpt>
      <trkpt lat="43.59699" lon="1.25432">
        <ele>194.8</ele>
        <time>2025-12-19T11:16:52Z</time>
      </trkpt>
      <trkpt lat="43.59706" lon="1.25434">
        <ele>194.8</ele>
        <time>2025-12-19T11:16:53Z</time>
      </trkpt>
      <trkpt lat="43.59713" lon="1.25436">
        <ele>194.8</ele>
        <time>2025-12-19T11:16:54Z</time>
      </trkpt>
      <trkpt lat="43.59719" lon="1.25437">
        <ele>195</ele>
        <time>2025-12-19T11:16:55Z</time>
      </trkpt>
      <trkpt lat="43.59726" lon="1.25438">
        <ele>195</ele>
        <time>2025-12-19T11:16:56Z</time>
      </trkpt>
      <trkpt lat="43.59733" lon="1.25438">
        <ele>195</ele>
        <time>2025-12-19T11:16:57Z</time>
      </trkpt>
      <trkpt lat="43.59739" lon="1.25439">
        <ele>195</ele>
        <time>2025-12-19T11:16:58Z</time>
      </trkpt>
      <trkpt lat="43.59747" lon="1.2544">
        <ele>195</ele>
        <time>2025-12-19T11:16:59Z</time>
      </trkpt>
      <trkpt lat="43.59754" lon="1.25441">
        <ele>194.8</ele>
        <time>2025-12-19T11:17:00Z</time>
      </trkpt>
      <trkpt lat="43.59761" lon="1.25442">
        <ele>194.8</ele>
        <time>2025-12-19T11:17:01Z</time>
      </trkpt>
      <trkpt lat="43.59768" lon="1.25443">
        <ele>194.8</ele>
        <time>2025-12-19T11:17:02Z</time>
      </trkpt>
      <trkpt lat="43.59775" lon="1.25444">
        <ele>194.8</ele>
        <time>2025-12-19T11:17:03Z</time>
      </trkpt>
      <trkpt lat="43.59782" lon="1.25445">
        <ele>194.6</ele>
        <time>2025-12-19T11:17:04Z</time>
      </trkpt>
      <trkpt lat="43.59789" lon="1.25444">
        <ele>194.6</ele>
        <time>2025-12-19T11:17:05Z</time>
      </trkpt>
      <trkpt lat="43.59796" lon="1.25444">
        <ele>194.6</ele>
        <time>2025-12-19T11:17:06Z</time>
      </trkpt>
      <trkpt lat="43.59803" lon="1.25445">
        <ele>194.6</ele>
        <time>2025-12-19T11:17:07Z</time>
      </trkpt>
      <trkpt lat="43.5981" lon="1.25447">
        <ele>194.6</ele>
        <time>2025-12-19T11:17:08Z</time>
      </trkpt>
      <trkpt lat="43.59817" lon="1.2545">
        <ele>194.6</ele>
        <time>2025-12-19T11:17:09Z</time>
      </trkpt>
      <trkpt lat="43.59824" lon="1.25452">
        <ele>194.6</ele>
        <time>2025-12-19T11:17:10Z</time>
      </trkpt>
      <trkpt lat="43.59831" lon="1.25453">
        <ele>194.4</ele>
        <time>2025-12-19T11:17:11Z</time>
      </trkpt>
      <trkpt lat="43.59838" lon="1.25454">
        <ele>194.4</ele>
        <time>2025-12-19T11:17:12Z</time>
      </trkpt>
      <trkpt lat="43.59845" lon="1.25455">
        <ele>194.4</ele>
        <time>2025-12-19T11:17:13Z</time>
      </trkpt>
      <trkpt lat="43.59853" lon="1.25456">
        <ele>194.4</ele>
        <time>2025-12-19T11:17:14Z</time>
      </trkpt>
      <trkpt lat="43.5986" lon="1.25458">
        <ele>194.2</ele>
        <time>2025-12-19T11:17:15Z</time>
      </trkpt>
      <trkpt lat="43.59867" lon="1.25459">
        <ele>194.2</ele>
        <time>2025-12-19T11:17:16Z</time>
      </trkpt>
      <trkpt lat="43.59875" lon="1.2546">
        <ele>194.2</ele>
        <time>2025-12-19T11:17:17Z</time>
      </trkpt>
      <trkpt lat="43.59882" lon="1.25461">
        <ele>194.2</ele>
        <time>2025-12-19T11:17:18Z</time>
      </trkpt>
      <trkpt lat="43.59889" lon="1.25461">
        <ele>194</ele>
        <time>2025-12-19T11:17:19Z</time>
      </trkpt>
      <trkpt lat="43.59896" lon="1.25462">
        <ele>194</ele>
        <time>2025-12-19T11:17:20Z</time>
      </trkpt>
      <trkpt lat="43.59903" lon="1.25462">
        <ele>194</ele>
        <time>2025-12-19T11:17:21Z</time>
      </trkpt>
      <trkpt lat="43.5991" lon="1.25463">
        <ele>194</ele>
        <time>2025-12-19T11:17:22Z</time>
      </trkpt>
      <trkpt lat="43.59917" lon="1.25464">
        <ele>194</ele>
        <time>2025-12-19T11:17:23Z</time>
      </trkpt>
      <trkpt lat="43.59923" lon="1.25465">
        <ele>194.2</ele>
        <time>2025-12-19T11:17:24Z</time>
      </trkpt>
      <trkpt lat="43.5993" lon="1.25466">
        <ele>194.2</ele>
        <time>2025-12-19T11:17:25Z</time>
      </trkpt>
      <trkpt lat="43.59936" lon="1.25468">
        <ele>194.2</ele>
        <time>2025-12-19T11:17:26Z</time>
      </trkpt>
      <trkpt lat="43.59942" lon="1.2547">
        <ele>194.4</ele>
        <time>2025-12-19T11:17:27Z</time>
      </trkpt>
      <trkpt lat="43.59948" lon="1.25472">
        <ele>194.4</ele>
        <time>2025-12-19T11:17:28Z</time>
      </trkpt>
      <trkpt lat="43.59954" lon="1.25473">
        <ele>194.4</ele>
        <time>2025-12-19T11:17:29Z</time>
      </trkpt>
      <trkpt lat="43.5996" lon="1.25475">
        <ele>194.4</ele>
        <time>2025-12-19T11:17:30Z</time>
      </trkpt>
      <trkpt lat="43.59965" lon="1.25476">
        <ele>194.4</ele>
        <time>2025-12-19T11:17:31Z</time>
      </trkpt>
      <trkpt lat="43.59971" lon="1.25477">
        <ele>194.4</ele>
        <time>2025-12-19T11:17:32Z</time>
      </trkpt>
      <trkpt lat="43.59976" lon="1.25479">
        <ele>194.6</ele>
        <time>2025-12-19T11:17:33Z</time>
      </trkpt>
      <trkpt lat="43.59982" lon="1.2548">
        <ele>194.6</ele>
        <time>2025-12-19T11:17:34Z</time>
      </trkpt>
      <trkpt lat="43.59987" lon="1.2548">
        <ele>194.6</ele>
        <time>2025-12-19T11:17:35Z</time>
      </trkpt>
      <trkpt lat="43.59991" lon="1.25481">
        <ele>194.8</ele>
        <time>2025-12-19T11:17:36Z</time>
      </trkpt>
      <trkpt lat="43.59995" lon="1.25482">
        <ele>194.8</ele>
        <time>2025-12-19T11:17:37Z</time>
      </trkpt>
      <trkpt lat="43.59997" lon="1.25486">
        <ele>195</ele>
        <time>2025-12-19T11:17:38Z</time>
      </trkpt>
      <trkpt lat="43.59998" lon="1.25491">
        <ele>195.2</ele>
        <time>2025-12-19T11:17:39Z</time>
      </trkpt>
      <trkpt lat="43.59998" lon="1.25497">
        <ele>195.4</ele>
        <time>2025-12-19T11:17:40Z</time>
      </trkpt>
      <trkpt lat="43.59999" lon="1.25502">
        <ele>195.6</ele>
        <time>2025-12-19T11:17:41Z</time>
      </trkpt>
      <trkpt lat="43.59999" lon="1.2551">
        <ele>195.6</ele>
        <time>2025-12-19T11:17:42Z</time>
      </trkpt>
      <trkpt lat="43.6" lon="1.25518">
        <ele>195.6</ele>
        <time>2025-12-19T11:17:43Z</time>
      </trkpt>
      <trkpt lat="43.60001" lon="1.25525">
        <ele>195.6</ele>
        <time>2025-12-19T11:17:44Z</time>
      </trkpt>
      <trkpt lat="43.60002" lon="1.25534">
        <ele>195.6</ele>
        <time>2025-12-19T11:17:45Z</time>
      </trkpt>
      <trkpt lat="43.60002" lon="1.25542">
        <ele>195.4</ele>
        <time>2025-12-19T11:17:46Z</time>
      </trkpt>
      <trkpt lat="43.60002" lon="1.25551">
        <ele>195.4</ele>
        <time>2025-12-19T11:17:47Z</time>
      </trkpt>
      <trkpt lat="43.60002" lon="1.2556">
        <ele>195.2</ele>
        <time>2025-12-19T11:17:48Z</time>
      </trkpt>
      <trkpt lat="43.60002" lon="1.25569">
        <ele>195</ele>
        <time>2025-12-19T11:17:49Z</time>
      </trkpt>
      <trkpt lat="43.60001" lon="1.25579">
        <ele>194.8</ele>
        <time>2025-12-19T11:17:50Z</time>
      </trkpt>
      <trkpt lat="43.60001" lon="1.25588">
        <ele>194.6</ele>
        <time>2025-12-19T11:17:51Z</time>
      </trkpt>
      <trkpt lat="43.6" lon="1.25598">
        <ele>194.6</ele>
        <time>2025-12-19T11:17:52Z</time>
      </trkpt>
      <trkpt lat="43.59999" lon="1.25608">
        <ele>194.4</ele>
        <time>2025-12-19T11:17:53Z</time>
      </trkpt>
      <trkpt lat="43.59999" lon="1.25618">
        <ele>194.2</ele>
        <time>2025-12-19T11:17:54Z</time>
      </trkpt>
      <trkpt lat="43.59998" lon="1.25628">
        <ele>194</ele>
        <time>2025-12-19T11:17:55Z</time>
      </trkpt>
      <trkpt lat="43.59997" lon="1.25638">
        <ele>194</ele>
        <time>2025-12-19T11:17:56Z</time>
      </trkpt>
      <trkpt lat="43.59996" lon="1.25649">
        <ele>193.8</ele>
        <time>2025-12-19T11:17:57Z</time>
      </trkpt>
      <trkpt lat="43.59996" lon="1.25659">
        <ele>193.8</ele>
        <time>2025-12-19T11:17:58Z</time>
      </trkpt>
      <trkpt lat="43.59995" lon="1.25669">
        <ele>193.6</ele>
        <time>2025-12-19T11:17:59Z</time>
      </trkpt>
      <trkpt lat="43.59994" lon="1.25679">
        <ele>193.6</ele>
        <time>2025-12-19T11:18:00Z</time>
      </trkpt>
      <trkpt lat="43.59994" lon="1.25689">
        <ele>193.4</ele>
        <time>2025-12-19T11:18:01Z</time>
      </trkpt>
      <trkpt lat="43.59993" lon="1.257">
        <ele>193.2</ele>
        <time>2025-12-19T11:18:02Z</time>
      </trkpt>
      <trkpt lat="43.59992" lon="1.2571">
        <ele>193.2</ele>
        <time>2025-12-19T11:18:03Z</time>
      </trkpt>
      <trkpt lat="43.59991" lon="1.2572">
        <ele>193.2</ele>
        <time>2025-12-19T11:18:04Z</time>
      </trkpt>
      <trkpt lat="43.5999" lon="1.25731">
        <ele>193</ele>
        <time>2025-12-19T11:18:05Z</time>
      </trkpt>
      <trkpt lat="43.59989" lon="1.25741">
        <ele>193</ele>
        <time>2025-12-19T11:18:06Z</time>
      </trkpt>
      <trkpt lat="43.59988" lon="1.25751">
        <ele>193</ele>
        <time>2025-12-19T11:18:07Z</time>
      </trkpt>
      <trkpt lat="43.59987" lon="1.25761">
        <ele>193</ele>
        <time>2025-12-19T11:18:08Z</time>
      </trkpt>
      <trkpt lat="43.59986" lon="1.25771">
        <ele>193</ele>
        <time>2025-12-19T11:18:09Z</time>
      </trkpt>
      <trkpt lat="43.59986" lon="1.25781">
        <ele>193</ele>
        <time>2025-12-19T11:18:10Z</time>
      </trkpt>
      <trkpt lat="43.59985" lon="1.25792">
        <ele>193</ele>
        <time>2025-12-19T11:18:11Z</time>
      </trkpt>
      <trkpt lat="43.59984" lon="1.25802">
        <ele>193</ele>
        <time>2025-12-19T11:18:12Z</time>
      </trkpt>
      <trkpt lat="43.59983" lon="1.25811">
        <ele>193</ele>
        <time>2025-12-19T11:18:13Z</time>
      </trkpt>
      <trkpt lat="43.59982" lon="1.25821">
        <ele>193</ele>
        <time>2025-12-19T11:18:14Z</time>
      </trkpt>
      <trkpt lat="43.59981" lon="1.25831">
        <ele>193</ele>
        <time>2025-12-19T11:18:15Z</time>
      </trkpt>
      <trkpt lat="43.5998" lon="1.25841">
        <ele>193</ele>
        <time>2025-12-19T11:18:16Z</time>
      </trkpt>
      <trkpt lat="43.59978" lon="1.25851">
        <ele>193</ele>
        <time>2025-12-19T11:18:17Z</time>
      </trkpt>
      <trkpt lat="43.59977" lon="1.2586">
        <ele>193</ele>
        <time>2025-12-19T11:18:18Z</time>
      </trkpt>
      <trkpt lat="43.59976" lon="1.2587">
        <ele>193</ele>
        <time>2025-12-19T11:18:19Z</time>
      </trkpt>
      <trkpt lat="43.59975" lon="1.25879">
        <ele>193.2</ele>
        <time>2025-12-19T11:18:20Z</time>
      </trkpt>
      <trkpt lat="43.59973" lon="1.25889">
        <ele>193.2</ele>
        <time>2025-12-19T11:18:21Z</time>
      </trkpt>
      <trkpt lat="43.59972" lon="1.25899">
        <ele>193.4</ele>
        <time>2025-12-19T11:18:22Z</time>
      </trkpt>
      <trkpt lat="43.5997" lon="1.25909">
        <ele>193.4</ele>
        <time>2025-12-19T11:18:23Z</time>
      </trkpt>
      <trkpt lat="43.59969" lon="1.25919">
        <ele>193.2</ele>
        <time>2025-12-19T11:18:24Z</time>
      </trkpt>
      <trkpt lat="43.59967" lon="1.2593">
        <ele>193</ele>
        <time>2025-12-19T11:18:25Z</time>
      </trkpt>
      <trkpt lat="43.59966" lon="1.2594">
        <ele>193</ele>
        <time>2025-12-19T11:18:26Z</time>
      </trkpt>
      <trkpt lat="43.59964" lon="1.2595">
        <ele>192.8</ele>
        <time>2025-12-19T11:18:27Z</time>
      </trkpt>
      <trkpt lat="43.59962" lon="1.2596">
        <ele>192.8</ele>
        <time>2025-12-19T11:18:28Z</time>
      </trkpt>
      <trkpt lat="43.59961" lon="1.2597">
        <ele>192.6</ele>
        <time>2025-12-19T11:18:29Z</time>
      </trkpt>
      <trkpt lat="43.59959" lon="1.2598">
        <ele>192.6</ele>
        <time>2025-12-19T11:18:30Z</time>
      </trkpt>
      <trkpt lat="43.59958" lon="1.2599">
        <ele>192.6</ele>
        <time>2025-12-19T11:18:31Z</time>
      </trkpt>
      <trkpt lat="43.59956" lon="1.26">
        <ele>192.4</ele>
        <time>2025-12-19T11:18:32Z</time>
      </trkpt>
      <trkpt lat="43.59954" lon="1.2601">
        <ele>192.4</ele>
        <time>2025-12-19T11:18:33Z</time>
      </trkpt>
      <trkpt lat="43.59952" lon="1.26021">
        <ele>192.4</ele>
        <time>2025-12-19T11:18:34Z</time>
      </trkpt>
      <trkpt lat="43.5995" lon="1.2603">
        <ele>192.4</ele>
        <time>2025-12-19T11:18:35Z</time>
      </trkpt>
      <trkpt lat="43.59948" lon="1.2604">
        <ele>192.6</ele>
        <time>2025-12-19T11:18:36Z</time>
      </trkpt>
      <trkpt lat="43.59946" lon="1.2605">
        <ele>192.6</ele>
        <time>2025-12-19T11:18:37Z</time>
      </trkpt>
      <trkpt lat="43.59944" lon="1.26059">
        <ele>192.6</ele>
        <time>2025-12-19T11:18:38Z</time>
      </trkpt>
      <trkpt lat="43.59942" lon="1.2607">
        <ele>192.6</ele>
        <time>2025-12-19T11:18:39Z</time>
      </trkpt>
      <trkpt lat="43.5994" lon="1.2608">
        <ele>192.6</ele>
        <time>2025-12-19T11:18:40Z</time>
      </trkpt>
      <trkpt lat="43.59937" lon="1.2609">
        <ele>192.6</ele>
        <time>2025-12-19T11:18:41Z</time>
      </trkpt>
      <trkpt lat="43.59935" lon="1.261">
        <ele>192.6</ele>
        <time>2025-12-19T11:18:42Z</time>
      </trkpt>
      <trkpt lat="43.59932" lon="1.2611">
        <ele>192.6</ele>
        <time>2025-12-19T11:18:43Z</time>
      </trkpt>
      <trkpt lat="43.5993" lon="1.2612">
        <ele>192.6</ele>
        <time>2025-12-19T11:18:44Z</time>
      </trkpt>
      <trkpt lat="43.59927" lon="1.26131">
        <ele>192.6</ele>
        <time>2025-12-19T11:18:45Z</time>
      </trkpt>
      <trkpt lat="43.59925" lon="1.26141">
        <ele>192.6</ele>
        <time>2025-12-19T11:18:46Z</time>
      </trkpt>
      <trkpt lat="43.59923" lon="1.26152">
        <ele>192.4</ele>
        <time>2025-12-19T11:18:47Z</time>
      </trkpt>
      <trkpt lat="43.59921" lon="1.26163">
        <ele>192.4</ele>
        <time>2025-12-19T11:18:48Z</time>
      </trkpt>
      <trkpt lat="43.5992" lon="1.26174">
        <ele>192.2</ele>
        <time>2025-12-19T11:18:49Z</time>
      </trkpt>
      <trkpt lat="43.59918" lon="1.26184">
        <ele>192</ele>
        <time>2025-12-19T11:18:50Z</time>
      </trkpt>
      <trkpt lat="43.59917" lon="1.26194">
        <ele>192</ele>
        <time>2025-12-19T11:18:51Z</time>
      </trkpt>
      <trkpt lat="43.59915" lon="1.26205">
        <ele>191.8</ele>
        <time>2025-12-19T11:18:52Z</time>
      </trkpt>
      <trkpt lat="43.59914" lon="1.26215">
        <ele>191.8</ele>
        <time>2025-12-19T11:18:53Z</time>
      </trkpt>
      <trkpt lat="43.59912" lon="1.26225">
        <ele>191.6</ele>
        <time>2025-12-19T11:18:54Z</time>
      </trkpt>
      <trkpt lat="43.59909" lon="1.26234">
        <ele>191.6</ele>
        <time>2025-12-19T11:18:55Z</time>
      </trkpt>
      <trkpt lat="43.59906" lon="1.26242">
        <ele>191.6</ele>
        <time>2025-12-19T11:18:56Z</time>
      </trkpt>
      <trkpt lat="43.59905" lon="1.26251">
        <ele>191.6</ele>
        <time>2025-12-19T11:18:57Z</time>
      </trkpt>
      <trkpt lat="43.59906" lon="1.2626">
        <ele>191.6</ele>
        <time>2025-12-19T11:18:58Z</time>
      </trkpt>
      <trkpt lat="43.59908" lon="1.26269">
        <ele>191.6</ele>
        <time>2025-12-19T11:18:59Z</time>
      </trkpt>
      <trkpt lat="43.5991" lon="1.26278">
        <ele>191.6</ele>
        <time>2025-12-19T11:19:00Z</time>
      </trkpt>
      <trkpt lat="43.59911" lon="1.26288">
        <ele>191.6</ele>
        <time>2025-12-19T11:19:01Z</time>
      </trkpt>
      <trkpt lat="43.59911" lon="1.26298">
        <ele>191.4</ele>
        <time>2025-12-19T11:19:02Z</time>
      </trkpt>
      <trkpt lat="43.59911" lon="1.26308">
        <ele>191.4</ele>
        <time>2025-12-19T11:19:03Z</time>
      </trkpt>
      <trkpt lat="43.5991" lon="1.26319">
        <ele>191.2</ele>
        <time>2025-12-19T11:19:04Z</time>
      </trkpt>
      <trkpt lat="43.5991" lon="1.26329">
        <ele>191</ele>
        <time>2025-12-19T11:19:05Z</time>
      </trkpt>
      <trkpt lat="43.5991" lon="1.2634">
        <ele>190.8</ele>
        <time>2025-12-19T11:19:06Z</time>
      </trkpt>
      <trkpt lat="43.5991" lon="1.26351">
        <ele>190.8</ele>
        <time>2025-12-19T11:19:07Z</time>
      </trkpt>
      <trkpt lat="43.5991" lon="1.26361">
        <ele>190.6</ele>
        <time>2025-12-19T11:19:08Z</time>
      </trkpt>
      <trkpt lat="43.59909" lon="1.26372">
        <ele>190.4</ele>
        <time>2025-12-19T11:19:09Z</time>
      </trkpt>
      <trkpt lat="43.59909" lon="1.26383">
        <ele>190.2</ele>
        <time>2025-12-19T11:19:10Z</time>
      </trkpt>
      <trkpt lat="43.5991" lon="1.26393">
        <ele>190</ele>
        <time>2025-12-19T11:19:11Z</time>
      </trkpt>
      <trkpt lat="43.5991" lon="1.26404">
        <ele>189.8</ele>
        <time>2025-12-19T11:19:12Z</time>
      </trkpt>
      <trkpt lat="43.5991" lon="1.26415">
        <ele>189.6</ele>
        <time>2025-12-19T11:19:13Z</time>
      </trkpt>
      <trkpt lat="43.59911" lon="1.26426">
        <ele>189.6</ele>
        <time>2025-12-19T11:19:14Z</time>
      </trkpt>
      <trkpt lat="43.5991" lon="1.26436">
        <ele>189.4</ele>
        <time>2025-12-19T11:19:15Z</time>
      </trkpt>
      <trkpt lat="43.5991" lon="1.26446">
        <ele>189.4</ele>
        <time>2025-12-19T11:19:16Z</time>
      </trkpt>
      <trkpt lat="43.5991" lon="1.26457">
        <ele>189.2</ele>
        <time>2025-12-19T11:19:17Z</time>
      </trkpt>
      <trkpt lat="43.5991" lon="1.26467">
        <ele>189</ele>
        <time>2025-12-19T11:19:18Z</time>
      </trkpt>
      <trkpt lat="43.59909" lon="1.26478">
        <ele>189</ele>
        <time>2025-12-19T11:19:19Z</time>
      </trkpt>
      <trkpt lat="43.59908" lon="1.26488">
        <ele>188.6</ele>
        <time>2025-12-19T11:19:20Z</time>
      </trkpt>
      <trkpt lat="43.59908" lon="1.26499">
        <ele>188.6</ele>
        <time>2025-12-19T11:19:21Z</time>
      </trkpt>
      <trkpt lat="43.59907" lon="1.2651">
        <ele>188.4</ele>
        <time>2025-12-19T11:19:22Z</time>
      </trkpt>
      <trkpt lat="43.59906" lon="1.26521">
        <ele>188.2</ele>
        <time>2025-12-19T11:19:23Z</time>
      </trkpt>
      <trkpt lat="43.59906" lon="1.26531">
        <ele>188.2</ele>
        <time>2025-12-19T11:19:24Z</time>
      </trkpt>
      <trkpt lat="43.59905" lon="1.26542">
        <ele>188</ele>
        <time>2025-12-19T11:19:25Z</time>
      </trkpt>
      <trkpt lat="43.59904" lon="1.26553">
        <ele>188</ele>
        <time>2025-12-19T11:19:26Z</time>
      </trkpt>
      <trkpt lat="43.59904" lon="1.26564">
        <ele>188</ele>
        <time>2025-12-19T11:19:27Z</time>
      </trkpt>
      <trkpt lat="43.59904" lon="1.26575">
        <ele>188</ele>
        <time>2025-12-19T11:19:28Z</time>
      </trkpt>
      <trkpt lat="43.59903" lon="1.26586">
        <ele>188</ele>
        <time>2025-12-19T11:19:29Z</time>
      </trkpt>
      <trkpt lat="43.59903" lon="1.26596">
        <ele>187.8</ele>
        <time>2025-12-19T11:19:30Z</time>
      </trkpt>
      <trkpt lat="43.59904" lon="1.26607">
        <ele>187.8</ele>
        <time>2025-12-19T11:19:31Z</time>
      </trkpt>
      <trkpt lat="43.59904" lon="1.26618">
        <ele>187.8</ele>
        <time>2025-12-19T11:19:32Z</time>
      </trkpt>
      <trkpt lat="43.59905" lon="1.26629">
        <ele>187.8</ele>
        <time>2025-12-19T11:19:33Z</time>
      </trkpt>
      <trkpt lat="43.59905" lon="1.2664">
        <ele>187.8</ele>
        <time>2025-12-19T11:19:34Z</time>
      </trkpt>
      <trkpt lat="43.59906" lon="1.26651">
        <ele>187.8</ele>
        <time>2025-12-19T11:19:35Z</time>
      </trkpt>
      <trkpt lat="43.59907" lon="1.26663">
        <ele>187.6</ele>
        <time>2025-12-19T11:19:36Z</time>
      </trkpt>
      <trkpt lat="43.59907" lon="1.26674">
        <ele>187.6</ele>
        <time>2025-12-19T11:19:37Z</time>
      </trkpt>
      <trkpt lat="43.59908" lon="1.26685">
        <ele>187.6</ele>
        <time>2025-12-19T11:19:38Z</time>
      </trkpt>
      <trkpt lat="43.59908" lon="1.26697">
        <ele>187.6</ele>
        <time>2025-12-19T11:19:39Z</time>
      </trkpt>
      <trkpt lat="43.59909" lon="1.26708">
        <ele>187.6</ele>
        <time>2025-12-19T11:19:40Z</time>
      </trkpt>
      <trkpt lat="43.5991" lon="1.26719">
        <ele>187.6</ele>
        <time>2025-12-19T11:19:41Z</time>
      </trkpt>
      <trkpt lat="43.5991" lon="1.2673">
        <ele>187.6</ele>
        <time>2025-12-19T11:19:42Z</time>
      </trkpt>
      <trkpt lat="43.59911" lon="1.26741">
        <ele>187.4</ele>
        <time>2025-12-19T11:19:43Z</time>
      </trkpt>
      <trkpt lat="43.59911" lon="1.26753">
        <ele>187.4</ele>
        <time>2025-12-19T11:19:44Z</time>
      </trkpt>
      <trkpt lat="43.5991" lon="1.26764">
        <ele>187.4</ele>
        <time>2025-12-19T11:19:45Z</time>
      </trkpt>
      <trkpt lat="43.59909" lon="1.26776">
        <ele>187.2</ele>
        <time>2025-12-19T11:19:46Z</time>
      </trkpt>
      <trkpt lat="43.59907" lon="1.26787">
        <ele>187</ele>
        <time>2025-12-19T11:19:47Z</time>
      </trkpt>
      <trkpt lat="43.59905" lon="1.26798">
        <ele>187</ele>
        <time>2025-12-19T11:19:48Z</time>
      </trkpt>
      <trkpt lat="43.59903" lon="1.2681">
        <ele>186.8</ele>
        <time>2025-12-19T11:19:49Z</time>
      </trkpt>
      <trkpt lat="43.59901" lon="1.26821">
        <ele>186.6</ele>
        <time>2025-12-19T11:19:50Z</time>
      </trkpt>
      <trkpt lat="43.59898" lon="1.26832">
        <ele>186.4</ele>
        <time>2025-12-19T11:19:51Z</time>
      </trkpt>
      <trkpt lat="43.59896" lon="1.26843">
        <ele>186.2</ele>
        <time>2025-12-19T11:19:52Z</time>
      </trkpt>
      <trkpt lat="43.59894" lon="1.26854">
        <ele>186</ele>
        <time>2025-12-19T11:19:53Z</time>
      </trkpt>
      <trkpt lat="43.59892" lon="1.26865">
        <ele>186</ele>
        <time>2025-12-19T11:19:54Z</time>
      </trkpt>
      <trkpt lat="43.59889" lon="1.26876">
        <ele>185.8</ele>
        <time>2025-12-19T11:19:55Z</time>
      </trkpt>
      <trkpt lat="43.59887" lon="1.26887">
        <ele>185.6</ele>
        <time>2025-12-19T11:19:56Z</time>
      </trkpt>
      <trkpt lat="43.59884" lon="1.26898">
        <ele>185.6</ele>
        <time>2025-12-19T11:19:57Z</time>
      </trkpt>
      <trkpt lat="43.59881" lon="1.26909">
        <ele>185.6</ele>
        <time>2025-12-19T11:19:58Z</time>
      </trkpt>
      <trkpt lat="43.59878" lon="1.26919">
        <ele>185.6</ele>
        <time>2025-12-19T11:19:59Z</time>
      </trkpt>
      <trkpt lat="43.59875" lon="1.26929">
        <ele>185.8</ele>
        <time>2025-12-19T11:20:00Z</time>
      </trkpt>
      <trkpt lat="43.59872" lon="1.26938">
        <ele>186</ele>
        <time>2025-12-19T11:20:01Z</time>
      </trkpt>
      <trkpt lat="43.59868" lon="1.26948">
        <ele>186.2</ele>
        <time>2025-12-19T11:20:02Z</time>
      </trkpt>
      <trkpt lat="43.59865" lon="1.26956">
        <ele>186.6</ele>
        <time>2025-12-19T11:20:03Z</time>
      </trkpt>
      <trkpt lat="43.59861" lon="1.26965">
        <ele>186.8</ele>
        <time>2025-12-19T11:20:04Z</time>
      </trkpt>
      <trkpt lat="43.59858" lon="1.26973">
        <ele>187</ele>
        <time>2025-12-19T11:20:05Z</time>
      </trkpt>
      <trkpt lat="43.59855" lon="1.26982">
        <ele>187</ele>
        <time>2025-12-19T11:20:06Z</time>
      </trkpt>
      <trkpt lat="43.59852" lon="1.26991">
        <ele>187.2</ele>
        <time>2025-12-19T11:20:07Z</time>
      </trkpt>
      <trkpt lat="43.59849" lon="1.27001">
        <ele>187.2</ele>
        <time>2025-12-19T11:20:08Z</time>
      </trkpt>
      <trkpt lat="43.59845" lon="1.2701">
        <ele>187.2</ele>
        <time>2025-12-19T11:20:09Z</time>
      </trkpt>
      <trkpt lat="43.59842" lon="1.27018">
        <ele>187.2</ele>
        <time>2025-12-19T11:20:10Z</time>
      </trkpt>
      <trkpt lat="43.59839" lon="1.27028">
        <ele>187.2</ele>
        <time>2025-12-19T11:20:11Z</time>
      </trkpt>
      <trkpt lat="43.59836" lon="1.27037">
        <ele>187.2</ele>
        <time>2025-12-19T11:20:12Z</time>
      </trkpt>
      <trkpt lat="43.59833" lon="1.27047">
        <ele>187.2</ele>
        <time>2025-12-19T11:20:13Z</time>
      </trkpt>
      <trkpt lat="43.5983" lon="1.27056">
        <ele>187.2</ele>
        <time>2025-12-19T11:20:14Z</time>
      </trkpt>
      <trkpt lat="43.59828" lon="1.27065">
        <ele>187</ele>
        <time>2025-12-19T11:20:15Z</time>
      </trkpt>
      <trkpt lat="43.59826" lon="1.27075">
        <ele>186.8</ele>
        <time>2025-12-19T11:20:16Z</time>
      </trkpt>
      <trkpt lat="43.59824" lon="1.27085">
        <ele>186.6</ele>
        <time>2025-12-19T11:20:17Z</time>
      </trkpt>
      <trkpt lat="43.59823" lon="1.27096">
        <ele>186.2</ele>
        <time>2025-12-19T11:20:18Z</time>
      </trkpt>
      <trkpt lat="43.59822" lon="1.27107">
        <ele>185.8</ele>
        <time>2025-12-19T11:20:19Z</time>
      </trkpt>
      <trkpt lat="43.59821" lon="1.27118">
        <ele>185.4</ele>
        <time>2025-12-19T11:20:20Z</time>
      </trkpt>
      <trkpt lat="43.59821" lon="1.27129">
        <ele>185</ele>
        <time>2025-12-19T11:20:21Z</time>
      </trkpt>
      <trkpt lat="43.5982" lon="1.27142">
        <ele>184.4</ele>
        <time>2025-12-19T11:20:22Z</time>
      </trkpt>
      <trkpt lat="43.59819" lon="1.27155">
        <ele>183.8</ele>
        <time>2025-12-19T11:20:23Z</time>
      </trkpt>
      <trkpt lat="43.59818" lon="1.27169">
        <ele>183</ele>
        <time>2025-12-19T11:20:24Z</time>
      </trkpt>
      <trkpt lat="43.59816" lon="1.27184">
        <ele>182.2</ele>
        <time>2025-12-19T11:20:25Z</time>
      </trkpt>
      <trkpt lat="43.59814" lon="1.27199">
        <ele>181.4</ele>
        <time>2025-12-19T11:20:26Z</time>
      </trkpt>
      <trkpt lat="43.59811" lon="1.27214">
        <ele>180.2</ele>
        <time>2025-12-19T11:20:27Z</time>
      </trkpt>
      <trkpt lat="43.59807" lon="1.2723">
        <ele>178.8</ele>
        <time>2025-12-19T11:20:28Z</time>
      </trkpt>
      <trkpt lat="43.59803" lon="1.27245">
        <ele>177.4</ele>
        <time>2025-12-19T11:20:29Z</time>
      </trkpt>
      <trkpt lat="43.59798" lon="1.27261">
        <ele>176</ele>
        <time>2025-12-19T11:20:30Z</time>
      </trkpt>
      <trkpt lat="43.59793" lon="1.27276">
        <ele>174.8</ele>
        <time>2025-12-19T11:20:31Z</time>
      </trkpt>
      <trkpt lat="43.59787" lon="1.27292">
        <ele>173.6</ele>
        <time>2025-12-19T11:20:32Z</time>
      </trkpt>
      <trkpt lat="43.59782" lon="1.27307">
        <ele>172.6</ele>
        <time>2025-12-19T11:20:33Z</time>
      </trkpt>
      <trkpt lat="43.59777" lon="1.27323">
        <ele>171.6</ele>
        <time>2025-12-19T11:20:34Z</time>
      </trkpt>
      <trkpt lat="43.59772" lon="1.27338">
        <ele>171</ele>
        <time>2025-12-19T11:20:35Z</time>
      </trkpt>
      <trkpt lat="43.59767" lon="1.27353">
        <ele>170.4</ele>
        <time>2025-12-19T11:20:36Z</time>
      </trkpt>
      <trkpt lat="43.59762" lon="1.27368">
        <ele>169.8</ele>
        <time>2025-12-19T11:20:37Z</time>
      </trkpt>
      <trkpt lat="43.59757" lon="1.27382">
        <ele>169.4</ele>
        <time>2025-12-19T11:20:38Z</time>
      </trkpt>
      <trkpt lat="43.59752" lon="1.27396">
        <ele>169</ele>
        <time>2025-12-19T11:20:39Z</time>
      </trkpt>
      <trkpt lat="43.59747" lon="1.27409">
        <ele>168.8</ele>
        <time>2025-12-19T11:20:40Z</time>
      </trkpt>
      <trkpt lat="43.59743" lon="1.27423">
        <ele>168.6</ele>
        <time>2025-12-19T11:20:41Z</time>
      </trkpt>
      <trkpt lat="43.59738" lon="1.27436">
        <ele>168.4</ele>
        <time>2025-12-19T11:20:42Z</time>
      </trkpt>
      <trkpt lat="43.59734" lon="1.27449">
        <ele>168.2</ele>
        <time>2025-12-19T11:20:43Z</time>
      </trkpt>
      <trkpt lat="43.5973" lon="1.27462">
        <ele>168.2</ele>
        <time>2025-12-19T11:20:44Z</time>
      </trkpt>
      <trkpt lat="43.59725" lon="1.27474">
        <ele>168</ele>
        <time>2025-12-19T11:20:45Z</time>
      </trkpt>
      <trkpt lat="43.59721" lon="1.27486">
        <ele>167.8</ele>
        <time>2025-12-19T11:20:46Z</time>
      </trkpt>
      <trkpt lat="43.59717" lon="1.27498">
        <ele>167.8</ele>
        <time>2025-12-19T11:20:47Z</time>
      </trkpt>
      <trkpt lat="43.59713" lon="1.2751">
        <ele>167.6</ele>
        <time>2025-12-19T11:20:48Z</time>
      </trkpt>
      <trkpt lat="43.59709" lon="1.27521">
        <ele>167.4</ele>
        <time>2025-12-19T11:20:49Z</time>
      </trkpt>
      <trkpt lat="43.59705" lon="1.27532">
        <ele>167.4</ele>
        <time>2025-12-19T11:20:50Z</time>
      </trkpt>
      <trkpt lat="43.59701" lon="1.27543">
        <ele>167.4</ele>
        <time>2025-12-19T11:20:51Z</time>
      </trkpt>
      <trkpt lat="43.59698" lon="1.27553">
        <ele>167.4</ele>
        <time>2025-12-19T11:20:52Z</time>
      </trkpt>
      <trkpt lat="43.59694" lon="1.27564">
        <ele>167.4</ele>
        <time>2025-12-19T11:20:53Z</time>
      </trkpt>
      <trkpt lat="43.59691" lon="1.27574">
        <ele>167.4</ele>
        <time>2025-12-19T11:20:54Z</time>
      </trkpt>
      <trkpt lat="43.59688" lon="1.27584">
        <ele>167.4</ele>
        <time>2025-12-19T11:20:55Z</time>
      </trkpt>
      <trkpt lat="43.59685" lon="1.27594">
        <ele>167.4</ele>
        <time>2025-12-19T11:20:56Z</time>
      </trkpt>
      <trkpt lat="43.59683" lon="1.27604">
        <ele>167.4</ele>
        <time>2025-12-19T11:20:57Z</time>
      </trkpt>
      <trkpt lat="43.5968" lon="1.27614">
        <ele>167.4</ele>
        <time>2025-12-19T11:20:58Z</time>
      </trkpt>
      <trkpt lat="43.59677" lon="1.27623">
        <ele>167.4</ele>
        <time>2025-12-19T11:20:59Z</time>
      </trkpt>
      <trkpt lat="43.59675" lon="1.27632">
        <ele>167.2</ele>
        <time>2025-12-19T11:21:00Z</time>
      </trkpt>
      <trkpt lat="43.59673" lon="1.27641">
        <ele>167.2</ele>
        <time>2025-12-19T11:21:01Z</time>
      </trkpt>
      <trkpt lat="43.5967" lon="1.27649">
        <ele>167.2</ele>
        <time>2025-12-19T11:21:02Z</time>
      </trkpt>
      <trkpt lat="43.59668" lon="1.27657">
        <ele>167.4</ele>
        <time>2025-12-19T11:21:03Z</time>
      </trkpt>
      <trkpt lat="43.59666" lon="1.27665">
        <ele>167.4</ele>
        <time>2025-12-19T11:21:04Z</time>
      </trkpt>
      <trkpt lat="43.59663" lon="1.27672">
        <ele>167.4</ele>
        <time>2025-12-19T11:21:05Z</time>
      </trkpt>
      <trkpt lat="43.59658" lon="1.27677">
        <ele>167.4</ele>
        <time>2025-12-19T11:21:06Z</time>
      </trkpt>
      <trkpt lat="43.59653" lon="1.27678">
        <ele>167.4</ele>
        <time>2025-12-19T11:21:07Z</time>
      </trkpt>
      <trkpt lat="43.59647" lon="1.27677">
        <ele>167.4</ele>
        <time>2025-12-19T11:21:08Z</time>
      </trkpt>
      <trkpt lat="43.59641" lon="1.27675">
        <ele>167.6</ele>
        <time>2025-12-19T11:21:09Z</time>
      </trkpt>
      <trkpt lat="43.59635" lon="1.27673">
        <ele>167.6</ele>
        <time>2025-12-19T11:21:10Z</time>
      </trkpt>
      <trkpt lat="43.59629" lon="1.27671">
        <ele>167.8</ele>
        <time>2025-12-19T11:21:11Z</time>
      </trkpt>
      <trkpt lat="43.59622" lon="1.27671">
        <ele>167.8</ele>
        <time>2025-12-19T11:21:12Z</time>
      </trkpt>
      <trkpt lat="43.59615" lon="1.27673">
        <ele>167.8</ele>
        <time>2025-12-19T11:21:13Z</time>
      </trkpt>
      <trkpt lat="43.5961" lon="1.27677">
        <ele>167.8</ele>
        <time>2025-12-19T11:21:14Z</time>
      </trkpt>
      <trkpt lat="43.59607" lon="1.27685">
        <ele>167.8</ele>
        <time>2025-12-19T11:21:15Z</time>
      </trkpt>
      <trkpt lat="43.59604" lon="1.27694">
        <ele>167.6</ele>
        <time>2025-12-19T11:21:16Z</time>
      </trkpt>
      <trkpt lat="43.59601" lon="1.27704">
        <ele>167.4</ele>
        <time>2025-12-19T11:21:17Z</time>
      </trkpt>
      <trkpt lat="43.59598" lon="1.27713">
        <ele>167.2</ele>
        <time>2025-12-19T11:21:18Z</time>
      </trkpt>
      <trkpt lat="43.59595" lon="1.27723">
        <ele>167</ele>
        <time>2025-12-19T11:21:19Z</time>
      </trkpt>
      <trkpt lat="43.59592" lon="1.27732">
        <ele>166.8</ele>
        <time>2025-12-19T11:21:20Z</time>
      </trkpt>
      <trkpt lat="43.59589" lon="1.27743">
        <ele>166.4</ele>
        <time>2025-12-19T11:21:21Z</time>
      </trkpt>
      <trkpt lat="43.59585" lon="1.27753">
        <ele>166</ele>
        <time>2025-12-19T11:21:22Z</time>
      </trkpt>
      <trkpt lat="43.59581" lon="1.27763">
        <ele>165.8</ele>
        <time>2025-12-19T11:21:23Z</time>
      </trkpt>
      <trkpt lat="43.59578" lon="1.27774">
        <ele>165.4</ele>
        <time>2025-12-19T11:21:24Z</time>
      </trkpt>
      <trkpt lat="43.59574" lon="1.27784">
        <ele>165.2</ele>
        <time>2025-12-19T11:21:25Z</time>
      </trkpt>
      <trkpt lat="43.59571" lon="1.27793">
        <ele>165</ele>
        <time>2025-12-19T11:21:26Z</time>
      </trkpt>
      <trkpt lat="43.59567" lon="1.27804">
        <ele>164.6</ele>
        <time>2025-12-19T11:21:27Z</time>
      </trkpt>
      <trkpt lat="43.59563" lon="1.27815">
        <ele>164.2</ele>
        <time>2025-12-19T11:21:28Z</time>
      </trkpt>
      <trkpt lat="43.59559" lon="1.27826">
        <ele>164</ele>
        <time>2025-12-19T11:21:29Z</time>
      </trkpt>
      <trkpt lat="43.59554" lon="1.27837">
        <ele>163.8</ele>
        <time>2025-12-19T11:21:30Z</time>
      </trkpt>
      <trkpt lat="43.5955" lon="1.27847">
        <ele>163.6</ele>
        <time>2025-12-19T11:21:31Z</time>
      </trkpt>
      <trkpt lat="43.59546" lon="1.27857">
        <ele>163.4</ele>
        <time>2025-12-19T11:21:32Z</time>
      </trkpt>
      <trkpt lat="43.59541" lon="1.27867">
        <ele>163.2</ele>
        <time>2025-12-19T11:21:33Z</time>
      </trkpt>
      <trkpt lat="43.59537" lon="1.27877">
        <ele>163.2</ele>
        <time>2025-12-19T11:21:34Z</time>
      </trkpt>
      <trkpt lat="43.59533" lon="1.27886">
        <ele>163.2</ele>
        <time>2025-12-19T11:21:35Z</time>
      </trkpt>
      <trkpt lat="43.59528" lon="1.27895">
        <ele>163.2</ele>
        <time>2025-12-19T11:21:36Z</time>
      </trkpt>
      <trkpt lat="43.59524" lon="1.27904">
        <ele>163.2</ele>
        <time>2025-12-19T11:21:37Z</time>
      </trkpt>
      <trkpt lat="43.5952" lon="1.27912">
        <ele>163.4</ele>
        <time>2025-12-19T11:21:38Z</time>
      </trkpt>
      <trkpt lat="43.59516" lon="1.27921">
        <ele>163.4</ele>
        <time>2025-12-19T11:21:39Z</time>
      </trkpt>
      <trkpt lat="43.59512" lon="1.27929">
        <ele>163.6</ele>
        <time>2025-12-19T11:21:40Z</time>
      </trkpt>
      <trkpt lat="43.59507" lon="1.27938">
        <ele>163.6</ele>
        <time>2025-12-19T11:21:41Z</time>
      </trkpt>
      <trkpt lat="43.59503" lon="1.27946">
        <ele>163.8</ele>
        <time>2025-12-19T11:21:42Z</time>
      </trkpt>
      <trkpt lat="43.59501" lon="1.27955">
        <ele>164</ele>
        <time>2025-12-19T11:21:43Z</time>
      </trkpt>
      <trkpt lat="43.59498" lon="1.27964">
        <ele>164.2</ele>
        <time>2025-12-19T11:21:44Z</time>
      </trkpt>
      <trkpt lat="43.59496" lon="1.27972">
        <ele>164.2</ele>
        <time>2025-12-19T11:21:45Z</time>
      </trkpt>
      <trkpt lat="43.59494" lon="1.2798">
        <ele>164.4</ele>
        <time>2025-12-19T11:21:46Z</time>
      </trkpt>
      <trkpt lat="43.59492" lon="1.27989">
        <ele>164.4</ele>
        <time>2025-12-19T11:21:47Z</time>
      </trkpt>
      <trkpt lat="43.59491" lon="1.27998">
        <ele>164.4</ele>
        <time>2025-12-19T11:21:48Z</time>
      </trkpt>
      <trkpt lat="43.59489" lon="1.28007">
        <ele>164.6</ele>
        <time>2025-12-19T11:21:49Z</time>
      </trkpt>
      <trkpt lat="43.59488" lon="1.28017">
        <ele>164.6</ele>
        <time>2025-12-19T11:21:50Z</time>
      </trkpt>
      <trkpt lat="43.59487" lon="1.28026">
        <ele>164.4</ele>
        <time>2025-12-19T11:21:51Z</time>
      </trkpt>
      <trkpt lat="43.59486" lon="1.28035">
        <ele>164.6</ele>
        <time>2025-12-19T11:21:52Z</time>
      </trkpt>
      <trkpt lat="43.59486" lon="1.28044">
        <ele>164.6</ele>
        <time>2025-12-19T11:21:53Z</time>
      </trkpt>
      <trkpt lat="43.59485" lon="1.28053">
        <ele>164.6</ele>
        <time>2025-12-19T11:21:54Z</time>
      </trkpt>
      <trkpt lat="43.59484" lon="1.28063">
        <ele>164.6</ele>
        <time>2025-12-19T11:21:55Z</time>
      </trkpt>
      <trkpt lat="43.59483" lon="1.28072">
        <ele>164.6</ele>
        <time>2025-12-19T11:21:56Z</time>
      </trkpt>
      <trkpt lat="43.59482" lon="1.2808">
        <ele>164.6</ele>
        <time>2025-12-19T11:21:57Z</time>
      </trkpt>
      <trkpt lat="43.59481" lon="1.28089">
        <ele>164.8</ele>
        <time>2025-12-19T11:21:58Z</time>
      </trkpt>
      <trkpt lat="43.5948" lon="1.28097">
        <ele>164.8</ele>
        <time>2025-12-19T11:21:59Z</time>
      </trkpt>
      <trkpt lat="43.59479" lon="1.28105">
        <ele>164.8</ele>
        <time>2025-12-19T11:22:00Z</time>
      </trkpt>
      <trkpt lat="43.59477" lon="1.28113">
        <ele>165.2</ele>
        <time>2025-12-19T11:22:01Z</time>
      </trkpt>
      <trkpt lat="43.59476" lon="1.28121">
        <ele>165.2</ele>
        <time>2025-12-19T11:22:02Z</time>
      </trkpt>
      <trkpt lat="43.59475" lon="1.28129">
        <ele>165.6</ele>
        <time>2025-12-19T11:22:03Z</time>
      </trkpt>
      <trkpt lat="43.59474" lon="1.28136">
        <ele>165.8</ele>
        <time>2025-12-19T11:22:04Z</time>
      </trkpt>
      <trkpt lat="43.59472" lon="1.28143">
        <ele>166.2</ele>
        <time>2025-12-19T11:22:05Z</time>
      </trkpt>
      <trkpt lat="43.59471" lon="1.2815">
        <ele>166.6</ele>
        <time>2025-12-19T11:22:06Z</time>
      </trkpt>
      <trkpt lat="43.59469" lon="1.28157">
        <ele>166.8</ele>
        <time>2025-12-19T11:22:07Z</time>
      </trkpt>
      <trkpt lat="43.59468" lon="1.28163">
        <ele>167.2</ele>
        <time>2025-12-19T11:22:08Z</time>
      </trkpt>
      <trkpt lat="43.59467" lon="1.2817">
        <ele>167.4</ele>
        <time>2025-12-19T11:22:09Z</time>
      </trkpt>
      <trkpt lat="43.59465" lon="1.28177">
        <ele>167.8</ele>
        <time>2025-12-19T11:22:10Z</time>
      </trkpt>
      <trkpt lat="43.59464" lon="1.28183">
        <ele>168</ele>
        <time>2025-12-19T11:22:11Z</time>
      </trkpt>
      <trkpt lat="43.59462" lon="1.28189">
        <ele>168.2</ele>
        <time>2025-12-19T11:22:12Z</time>
      </trkpt>
      <trkpt lat="43.59461" lon="1.28196">
        <ele>168.6</ele>
        <time>2025-12-19T11:22:13Z</time>
      </trkpt>
      <trkpt lat="43.59459" lon="1.28202">
        <ele>168.8</ele>
        <time>2025-12-19T11:22:14Z</time>
      </trkpt>
      <trkpt lat="43.59457" lon="1.28208">
        <ele>169</ele>
        <time>2025-12-19T11:22:15Z</time>
      </trkpt>
      <trkpt lat="43.59455" lon="1.28214">
        <ele>169.4</ele>
        <time>2025-12-19T11:22:16Z</time>
      </trkpt>
      <trkpt lat="43.59453" lon="1.2822">
        <ele>169.6</ele>
        <time>2025-12-19T11:22:17Z</time>
      </trkpt>
      <trkpt lat="43.59451" lon="1.28226">
        <ele>169.8</ele>
        <time>2025-12-19T11:22:18Z</time>
      </trkpt>
      <trkpt lat="43.59449" lon="1.28232">
        <ele>170</ele>
        <time>2025-12-19T11:22:19Z</time>
      </trkpt>
      <trkpt lat="43.59447" lon="1.28238">
        <ele>170.4</ele>
        <time>2025-12-19T11:22:20Z</time>
      </trkpt>
      <trkpt lat="43.59444" lon="1.28243">
        <ele>170.6</ele>
        <time>2025-12-19T11:22:21Z</time>
      </trkpt>
      <trkpt lat="43.59442" lon="1.28249">
        <ele>171</ele>
        <time>2025-12-19T11:22:22Z</time>
      </trkpt>
      <trkpt lat="43.5944" lon="1.28254">
        <ele>171.2</ele>
        <time>2025-12-19T11:22:23Z</time>
      </trkpt>
      <trkpt lat="43.59438" lon="1.28259">
        <ele>171.4</ele>
        <time>2025-12-19T11:22:24Z</time>
      </trkpt>
      <trkpt lat="43.59436" lon="1.28263">
        <ele>171.6</ele>
        <time>2025-12-19T11:22:25Z</time>
      </trkpt>
      <trkpt lat="43.59433" lon="1.28268">
        <ele>172</ele>
        <time>2025-12-19T11:22:26Z</time>
      </trkpt>
      <trkpt lat="43.59431" lon="1.28273">
        <ele>172.2</ele>
        <time>2025-12-19T11:22:27Z</time>
      </trkpt>
      <trkpt lat="43.59428" lon="1.28278">
        <ele>172.4</ele>
        <time>2025-12-19T11:22:28Z</time>
      </trkpt>
      <trkpt lat="43.59426" lon="1.28282">
        <ele>172.8</ele>
        <time>2025-12-19T11:22:29Z</time>
      </trkpt>
      <trkpt lat="43.59423" lon="1.28287">
        <ele>173</ele>
        <time>2025-12-19T11:22:30Z</time>
      </trkpt>
      <trkpt lat="43.59421" lon="1.28291">
        <ele>173.2</ele>
        <time>2025-12-19T11:22:31Z</time>
      </trkpt>
      <trkpt lat="43.59418" lon="1.28295">
        <ele>173.6</ele>
        <time>2025-12-19T11:22:32Z</time>
      </trkpt>
      <trkpt lat="43.59415" lon="1.283">
        <ele>173.8</ele>
        <time>2025-12-19T11:22:33Z</time>
      </trkpt>
      <trkpt lat="43.59412" lon="1.28304">
        <ele>174</ele>
        <time>2025-12-19T11:22:34Z</time>
      </trkpt>
      <trkpt lat="43.59409" lon="1.28309">
        <ele>174.2</ele>
        <time>2025-12-19T11:22:35Z</time>
      </trkpt>
      <trkpt lat="43.59406" lon="1.28313">
        <ele>174.4</ele>
        <time>2025-12-19T11:22:36Z</time>
      </trkpt>
      <trkpt lat="43.59403" lon="1.28318">
        <ele>174.8</ele>
        <time>2025-12-19T11:22:37Z</time>
      </trkpt>
      <trkpt lat="43.594" lon="1.28322">
        <ele>175</ele>
        <time>2025-12-19T11:22:38Z</time>
      </trkpt>
      <trkpt lat="43.59397" lon="1.28326">
        <ele>175.2</ele>
        <time>2025-12-19T11:22:39Z</time>
      </trkpt>
      <trkpt lat="43.59393" lon="1.28331">
        <ele>175.4</ele>
        <time>2025-12-19T11:22:40Z</time>
      </trkpt>
      <trkpt lat="43.5939" lon="1.28335">
        <ele>175.6</ele>
        <time>2025-12-19T11:22:41Z</time>
      </trkpt>
      <trkpt lat="43.59387" lon="1.28339">
        <ele>176</ele>
        <time>2025-12-19T11:22:42Z</time>
      </trkpt>
      <trkpt lat="43.59384" lon="1.28343">
        <ele>176.2</ele>
        <time>2025-12-19T11:22:43Z</time>
      </trkpt>
      <trkpt lat="43.59381" lon="1.28347">
        <ele>176.4</ele>
        <time>2025-12-19T11:22:44Z</time>
      </trkpt>
      <trkpt lat="43.59378" lon="1.28352">
        <ele>176.6</ele>
        <time>2025-12-19T11:22:45Z</time>
      </trkpt>
      <trkpt lat="43.59375" lon="1.28356">
        <ele>176.8</ele>
        <time>2025-12-19T11:22:46Z</time>
      </trkpt>
      <trkpt lat="43.59372" lon="1.2836">
        <ele>177</ele>
        <time>2025-12-19T11:22:47Z</time>
      </trkpt>
      <trkpt lat="43.59368" lon="1.28365">
        <ele>177.2</ele>
        <time>2025-12-19T11:22:48Z</time>
      </trkpt>
      <trkpt lat="43.59365" lon="1.28369">
        <ele>177.4</ele>
        <time>2025-12-19T11:22:49Z</time>
      </trkpt>
      <trkpt lat="43.59362" lon="1.28373">
        <ele>177.4</ele>
        <time>2025-12-19T11:22:50Z</time>
      </trkpt>
      <trkpt lat="43.59359" lon="1.28377">
        <ele>177.6</ele>
        <time>2025-12-19T11:22:51Z</time>
      </trkpt>
      <trkpt lat="43.59356" lon="1.28381">
        <ele>177.8</ele>
        <time>2025-12-19T11:22:52Z</time>
      </trkpt>
      <trkpt lat="43.59353" lon="1.28386">
        <ele>178</ele>
        <time>2025-12-19T11:22:53Z</time>
      </trkpt>
      <trkpt lat="43.5935" lon="1.28391">
        <ele>178.2</ele>
        <time>2025-12-19T11:22:54Z</time>
      </trkpt>
      <trkpt lat="43.59347" lon="1.28395">
        <ele>178.4</ele>
        <time>2025-12-19T11:22:55Z</time>
      </trkpt>
      <trkpt lat="43.59344" lon="1.28399">
        <ele>178.8</ele>
        <time>2025-12-19T11:22:56Z</time>
      </trkpt>
      <trkpt lat="43.59341" lon="1.28404">
        <ele>179</ele>
        <time>2025-12-19T11:22:57Z</time>
      </trkpt>
      <trkpt lat="43.59337" lon="1.28408">
        <ele>179.2</ele>
        <time>2025-12-19T11:22:58Z</time>
      </trkpt>
      <trkpt lat="43.59334" lon="1.28413">
        <ele>179.4</ele>
        <time>2025-12-19T11:22:59Z</time>
      </trkpt>
      <trkpt lat="43.59331" lon="1.28417">
        <ele>179.6</ele>
        <time>2025-12-19T11:23:00Z</time>
      </trkpt>
      <trkpt lat="43.59328" lon="1.28422">
        <ele>179.8</ele>
        <time>2025-12-19T11:23:01Z</time>
      </trkpt>
      <trkpt lat="43.59324" lon="1.28426">
        <ele>180</ele>
        <time>2025-12-19T11:23:02Z</time>
      </trkpt>
      <trkpt lat="43.59321" lon="1.2843">
        <ele>180.2</ele>
        <time>2025-12-19T11:23:03Z</time>
      </trkpt>
      <trkpt lat="43.59318" lon="1.28435">
        <ele>180.4</ele>
        <time>2025-12-19T11:23:04Z</time>
      </trkpt>
      <trkpt lat="43.59315" lon="1.28439">
        <ele>180.6</ele>
        <time>2025-12-19T11:23:05Z</time>
      </trkpt>
      <trkpt lat="43.59311" lon="1.28442">
        <ele>181</ele>
        <time>2025-12-19T11:23:06Z</time>
      </trkpt>
      <trkpt lat="43.59308" lon="1.28446">
        <ele>181.2</ele>
        <time>2025-12-19T11:23:07Z</time>
      </trkpt>
      <trkpt lat="43.59305" lon="1.2845">
        <ele>181.4</ele>
        <time>2025-12-19T11:23:08Z</time>
      </trkpt>
      <trkpt lat="43.59301" lon="1.28453">
        <ele>181.6</ele>
        <time>2025-12-19T11:23:09Z</time>
      </trkpt>
      <trkpt lat="43.59298" lon="1.28457">
        <ele>181.8</ele>
        <time>2025-12-19T11:23:10Z</time>
      </trkpt>
      <trkpt lat="43.59294" lon="1.28461">
        <ele>182</ele>
        <time>2025-12-19T11:23:11Z</time>
      </trkpt>
      <trkpt lat="43.59291" lon="1.28464">
        <ele>182.4</ele>
        <time>2025-12-19T11:23:12Z</time>
      </trkpt>
      <trkpt lat="43.59288" lon="1.28467">
        <ele>182.6</ele>
        <time>2025-12-19T11:23:13Z</time>
      </trkpt>
      <trkpt lat="43.59285" lon="1.28471">
        <ele>182.8</ele>
        <time>2025-12-19T11:23:14Z</time>
      </trkpt>
      <trkpt lat="43.59281" lon="1.28474">
        <ele>183</ele>
        <time>2025-12-19T11:23:15Z</time>
      </trkpt>
      <trkpt lat="43.59278" lon="1.28478">
        <ele>183.4</ele>
        <time>2025-12-19T11:23:16Z</time>
      </trkpt>
      <trkpt lat="43.59275" lon="1.2848">
        <ele>183.6</ele>
        <time>2025-12-19T11:23:17Z</time>
      </trkpt>
      <trkpt lat="43.59272" lon="1.28484">
        <ele>183.8</ele>
        <time>2025-12-19T11:23:18Z</time>
      </trkpt>
      <trkpt lat="43.59269" lon="1.28487">
        <ele>184</ele>
        <time>2025-12-19T11:23:19Z</time>
      </trkpt>
      <trkpt lat="43.59266" lon="1.28489">
        <ele>184.4</ele>
        <time>2025-12-19T11:23:20Z</time>
      </trkpt>
      <trkpt lat="43.59263" lon="1.28492">
        <ele>184.6</ele>
        <time>2025-12-19T11:23:21Z</time>
      </trkpt>
      <trkpt lat="43.5926" lon="1.28495">
        <ele>184.8</ele>
        <time>2025-12-19T11:23:22Z</time>
      </trkpt>
      <trkpt lat="43.59257" lon="1.28498">
        <ele>185</ele>
        <time>2025-12-19T11:23:23Z</time>
      </trkpt>
      <trkpt lat="43.59253" lon="1.28501">
        <ele>185.2</ele>
        <time>2025-12-19T11:23:24Z</time>
      </trkpt>
      <trkpt lat="43.5925" lon="1.28505">
        <ele>185.4</ele>
        <time>2025-12-19T11:23:25Z</time>
      </trkpt>
      <trkpt lat="43.59247" lon="1.28508">
        <ele>185.6</ele>
        <time>2025-12-19T11:23:26Z</time>
      </trkpt>
      <trkpt lat="43.59245" lon="1.28512">
        <ele>185.8</ele>
        <time>2025-12-19T11:23:27Z</time>
      </trkpt>
      <trkpt lat="43.59242" lon="1.28516">
        <ele>186</ele>
        <time>2025-12-19T11:23:28Z</time>
      </trkpt>
      <trkpt lat="43.59239" lon="1.28519">
        <ele>186.2</ele>
        <time>2025-12-19T11:23:29Z</time>
      </trkpt>
      <trkpt lat="43.59235" lon="1.28521">
        <ele>186.4</ele>
        <time>2025-12-19T11:23:30Z</time>
      </trkpt>
      <trkpt lat="43.59232" lon="1.28523">
        <ele>186.6</ele>
        <time>2025-12-19T11:23:31Z</time>
      </trkpt>
      <trkpt lat="43.59228" lon="1.28525">
        <ele>186.8</ele>
        <time>2025-12-19T11:23:32Z</time>
      </trkpt>
      <trkpt lat="43.59224" lon="1.28528">
        <ele>187</ele>
        <time>2025-12-19T11:23:33Z</time>
      </trkpt>
      <trkpt lat="43.59221" lon="1.28531">
        <ele>187.2</ele>
        <time>2025-12-19T11:23:34Z</time>
      </trkpt>
      <trkpt lat="43.59218" lon="1.28535">
        <ele>187.2</ele>
        <time>2025-12-19T11:23:35Z</time>
      </trkpt>
      <trkpt lat="43.59215" lon="1.2854">
        <ele>187.4</ele>
        <time>2025-12-19T11:23:36Z</time>
      </trkpt>
      <trkpt lat="43.59214" lon="1.28545">
        <ele>187.6</ele>
        <time>2025-12-19T11:23:37Z</time>
      </trkpt>
      <trkpt lat="43.59213" lon="1.28551">
        <ele>187.8</ele>
        <time>2025-12-19T11:23:38Z</time>
      </trkpt>
      <trkpt lat="43.59214" lon="1.28557">
        <ele>188</ele>
        <time>2025-12-19T11:23:39Z</time>
      </trkpt>
      <trkpt lat="43.59215" lon="1.28562">
        <ele>188.2</ele>
        <time>2025-12-19T11:23:40Z</time>
      </trkpt>
      <trkpt lat="43.59218" lon="1.28568">
        <ele>188.2</ele>
        <time>2025-12-19T11:23:41Z</time>
      </trkpt>
      <trkpt lat="43.59221" lon="1.28572">
        <ele>188.2</ele>
        <time>2025-12-19T11:23:42Z</time>
      </trkpt>
      <trkpt lat="43.59226" lon="1.28574">
        <ele>188.2</ele>
        <time>2025-12-19T11:23:43Z</time>
      </trkpt>
      <trkpt lat="43.59231" lon="1.28575">
        <ele>188.2</ele>
        <time>2025-12-19T11:23:44Z</time>
      </trkpt>
      <trkpt lat="43.59236" lon="1.28573">
        <ele>188</ele>
        <time>2025-12-19T11:23:45Z</time>
      </trkpt>
      <trkpt lat="43.59241" lon="1.28571">
        <ele>188</ele>
        <time>2025-12-19T11:23:46Z</time>
      </trkpt>
      <trkpt lat="43.59247" lon="1.28569">
        <ele>188</ele>
        <time>2025-12-19T11:23:47Z</time>
      </trkpt>
      <trkpt lat="43.59252" lon="1.28569">
        <ele>188</ele>
        <time>2025-12-19T11:23:48Z</time>
      </trkpt>
      <trkpt lat="43.59257" lon="1.2857">
        <ele>187.8</ele>
        <time>2025-12-19T11:23:49Z</time>
      </trkpt>
      <trkpt lat="43.59263" lon="1.28571">
        <ele>187.8</ele>
        <time>2025-12-19T11:23:50Z</time>
      </trkpt>
      <trkpt lat="43.59268" lon="1.28572">
        <ele>187.8</ele>
        <time>2025-12-19T11:23:51Z</time>
      </trkpt>
      <trkpt lat="43.59273" lon="1.28574">
        <ele>187.8</ele>
        <time>2025-12-19T11:23:52Z</time>
      </trkpt>
      <trkpt lat="43.59278" lon="1.28575">
        <ele>187.8</ele>
        <time>2025-12-19T11:23:53Z</time>
      </trkpt>
      <trkpt lat="43.59284" lon="1.28577">
        <ele>187.8</ele>
        <time>2025-12-19T11:23:54Z</time>
      </trkpt>
      <trkpt lat="43.59289" lon="1.28578">
        <ele>188</ele>
        <time>2025-12-19T11:23:55Z</time>
      </trkpt>
      <trkpt lat="43.59294" lon="1.2858">
        <ele>187.8</ele>
        <time>2025-12-19T11:23:56Z</time>
      </trkpt>
      <trkpt lat="43.59299" lon="1.28582">
        <ele>187.8</ele>
        <time>2025-12-19T11:23:57Z</time>
      </trkpt>
      <trkpt lat="43.59305" lon="1.28583">
        <ele>187.8</ele>
        <time>2025-12-19T11:23:58Z</time>
      </trkpt>
      <trkpt lat="43.59311" lon="1.28585">
        <ele>188</ele>
        <time>2025-12-19T11:23:59Z</time>
      </trkpt>
      <trkpt lat="43.59316" lon="1.28587">
        <ele>188</ele>
        <time>2025-12-19T11:24:00Z</time>
      </trkpt>
      <trkpt lat="43.59322" lon="1.28589">
        <ele>188</ele>
        <time>2025-12-19T11:24:01Z</time>
      </trkpt>
      <trkpt lat="43.59328" lon="1.28591">
        <ele>188.2</ele>
        <time>2025-12-19T11:24:02Z</time>
      </trkpt>
      <trkpt lat="43.59334" lon="1.28592">
        <ele>188.2</ele>
        <time>2025-12-19T11:24:03Z</time>
      </trkpt>
      <trkpt lat="43.5934" lon="1.28594">
        <ele>188.2</ele>
        <time>2025-12-19T11:24:04Z</time>
      </trkpt>
      <trkpt lat="43.59346" lon="1.28597">
        <ele>188.2</ele>
        <time>2025-12-19T11:24:05Z</time>
      </trkpt>
      <trkpt lat="43.59351" lon="1.286">
        <ele>188.2</ele>
        <time>2025-12-19T11:24:06Z</time>
      </trkpt>
      <trkpt lat="43.59358" lon="1.28602">
        <ele>188.2</ele>
        <time>2025-12-19T11:24:07Z</time>
      </trkpt>
      <trkpt lat="43.59364" lon="1.28606">
        <ele>188.2</ele>
        <time>2025-12-19T11:24:08Z</time>
      </trkpt>
      <trkpt lat="43.5937" lon="1.28609">
        <ele>188.2</ele>
        <time>2025-12-19T11:24:09Z</time>
      </trkpt>
      <trkpt lat="43.59376" lon="1.28613">
        <ele>188</ele>
        <time>2025-12-19T11:24:10Z</time>
      </trkpt>
      <trkpt lat="43.59382" lon="1.28616">
        <ele>188</ele>
        <time>2025-12-19T11:24:11Z</time>
      </trkpt>
      <trkpt lat="43.59389" lon="1.2862">
        <ele>188</ele>
        <time>2025-12-19T11:24:12Z</time>
      </trkpt>
      <trkpt lat="43.59395" lon="1.28624">
        <ele>188</ele>
        <time>2025-12-19T11:24:13Z</time>
      </trkpt>
      <trkpt lat="43.59401" lon="1.28628">
        <ele>187.8</ele>
        <time>2025-12-19T11:24:14Z</time>
      </trkpt>
      <trkpt lat="43.59407" lon="1.28633">
        <ele>187.8</ele>
        <time>2025-12-19T11:24:15Z</time>
      </trkpt>
      <trkpt lat="43.59412" lon="1.28637">
        <ele>187.8</ele>
        <time>2025-12-19T11:24:16Z</time>
      </trkpt>
      <trkpt lat="43.59418" lon="1.28642">
        <ele>187.6</ele>
        <time>2025-12-19T11:24:17Z</time>
      </trkpt>
      <trkpt lat="43.59424" lon="1.28648">
        <ele>187.6</ele>
        <time>2025-12-19T11:24:18Z</time>
      </trkpt>
      <trkpt lat="43.5943" lon="1.28653">
        <ele>187.6</ele>
        <time>2025-12-19T11:24:19Z</time>
      </trkpt>
      <trkpt lat="43.59435" lon="1.28658">
        <ele>187.4</ele>
        <time>2025-12-19T11:24:20Z</time>
      </trkpt>
      <trkpt lat="43.59441" lon="1.28664">
        <ele>187.4</ele>
        <time>2025-12-19T11:24:21Z</time>
      </trkpt>
      <trkpt lat="43.59446" lon="1.28669">
        <ele>187.4</ele>
        <time>2025-12-19T11:24:22Z</time>
      </trkpt>
      <trkpt lat="43.59452" lon="1.28675">
        <ele>187.4</ele>
        <time>2025-12-19T11:24:23Z</time>
      </trkpt>
      <trkpt lat="43.59457" lon="1.28681">
        <ele>187.2</ele>
        <time>2025-12-19T11:24:24Z</time>
      </trkpt>
      <trkpt lat="43.59463" lon="1.28687">
        <ele>187.2</ele>
        <time>2025-12-19T11:24:25Z</time>
      </trkpt>
      <trkpt lat="43.59468" lon="1.28694">
        <ele>187</ele>
        <time>2025-12-19T11:24:26Z</time>
      </trkpt>
      <trkpt lat="43.59473" lon="1.287">
        <ele>187</ele>
        <time>2025-12-19T11:24:27Z</time>
      </trkpt>
      <trkpt lat="43.59478" lon="1.28707">
        <ele>186.8</ele>
        <time>2025-12-19T11:24:28Z</time>
      </trkpt>
      <trkpt lat="43.59483" lon="1.28714">
        <ele>186.8</ele>
        <time>2025-12-19T11:24:29Z</time>
      </trkpt>
      <trkpt lat="43.59488" lon="1.28721">
        <ele>186.8</ele>
        <time>2025-12-19T11:24:30Z</time>
      </trkpt>
      <trkpt lat="43.59493" lon="1.28728">
        <ele>186.8</ele>
        <time>2025-12-19T11:24:31Z</time>
      </trkpt>
      <trkpt lat="43.59498" lon="1.28734">
        <ele>187</ele>
        <time>2025-12-19T11:24:32Z</time>
      </trkpt>
      <trkpt lat="43.59502" lon="1.28742">
        <ele>187</ele>
        <time>2025-12-19T11:24:33Z</time>
      </trkpt>
      <trkpt lat="43.59507" lon="1.28749">
        <ele>187.2</ele>
        <time>2025-12-19T11:24:34Z</time>
      </trkpt>
      <trkpt lat="43.59511" lon="1.28756">
        <ele>187.2</ele>
        <time>2025-12-19T11:24:35Z</time>
      </trkpt>
      <trkpt lat="43.59515" lon="1.28764">
        <ele>187.4</ele>
        <time>2025-12-19T11:24:36Z</time>
      </trkpt>
      <trkpt lat="43.59519" lon="1.28771">
        <ele>187.4</ele>
        <time>2025-12-19T11:24:37Z</time>
      </trkpt>
      <trkpt lat="43.59523" lon="1.28778">
        <ele>187.6</ele>
        <time>2025-12-19T11:24:38Z</time>
      </trkpt>
      <trkpt lat="43.59527" lon="1.28786">
        <ele>187.6</ele>
        <time>2025-12-19T11:24:39Z</time>
      </trkpt>
      <trkpt lat="43.59531" lon="1.28793">
        <ele>187.6</ele>
        <time>2025-12-19T11:24:40Z</time>
      </trkpt>
      <trkpt lat="43.59535" lon="1.28801">
        <ele>187.8</ele>
        <time>2025-12-19T11:24:41Z</time>
      </trkpt>
      <trkpt lat="43.59539" lon="1.28809">
        <ele>187.8</ele>
        <time>2025-12-19T11:24:42Z</time>
      </trkpt>
      <trkpt lat="43.59543" lon="1.28816">
        <ele>187.8</ele>
        <time>2025-12-19T11:24:43Z</time>
      </trkpt>
      <trkpt lat="43.59547" lon="1.28823">
        <ele>187.8</ele>
        <time>2025-12-19T11:24:44Z</time>
      </trkpt>
      <trkpt lat="43.59551" lon="1.28831">
        <ele>188</ele>
        <time>2025-12-19T11:24:45Z</time>
      </trkpt>
      <trkpt lat="43.59556" lon="1.28839">
        <ele>187.8</ele>
        <time>2025-12-19T11:24:46Z</time>
      </trkpt>
      <trkpt lat="43.5956" lon="1.28846">
        <ele>187.8</ele>
        <time>2025-12-19T11:24:47Z</time>
      </trkpt>
      <trkpt lat="43.59565" lon="1.28854">
        <ele>187.8</ele>
        <time>2025-12-19T11:24:48Z</time>
      </trkpt>
      <trkpt lat="43.59569" lon="1.28862">
        <ele>187.6</ele>
        <time>2025-12-19T11:24:49Z</time>
      </trkpt>
      <trkpt lat="43.59574" lon="1.28869">
        <ele>187.6</ele>
        <time>2025-12-19T11:24:50Z</time>
      </trkpt>
      <trkpt lat="43.59579" lon="1.28877">
        <ele>187.4</ele>
        <time>2025-12-19T11:24:51Z</time>
      </trkpt>
      <trkpt lat="43.59584" lon="1.28884">
        <ele>187.2</ele>
        <time>2025-12-19T11:24:52Z</time>
      </trkpt>
      <trkpt lat="43.59588" lon="1.28891">
        <ele>187.2</ele>
        <time>2025-12-19T11:24:53Z</time>
      </trkpt>
      <trkpt lat="43.59593" lon="1.28898">
        <ele>187</ele>
        <time>2025-12-19T11:24:54Z</time>
      </trkpt>
      <trkpt lat="43.59598" lon="1.28905">
        <ele>187</ele>
        <time>2025-12-19T11:24:55Z</time>
      </trkpt>
      <trkpt lat="43.59603" lon="1.28913">
        <ele>187</ele>
        <time>2025-12-19T11:24:56Z</time>
      </trkpt>
      <trkpt lat="43.59608" lon="1.28919">
        <ele>186.8</ele>
        <time>2025-12-19T11:24:57Z</time>
      </trkpt>
      <trkpt lat="43.59613" lon="1.28926">
        <ele>186.8</ele>
        <time>2025-12-19T11:24:58Z</time>
      </trkpt>
      <trkpt lat="43.59618" lon="1.28933">
        <ele>186.6</ele>
        <time>2025-12-19T11:24:59Z</time>
      </trkpt>
      <trkpt lat="43.59623" lon="1.2894">
        <ele>186.6</ele>
        <time>2025-12-19T11:25:00Z</time>
      </trkpt>
      <trkpt lat="43.59628" lon="1.28946">
        <ele>186.6</ele>
        <time>2025-12-19T11:25:01Z</time>
      </trkpt>
      <trkpt lat="43.59633" lon="1.28953">
        <ele>186.6</ele>
        <time>2025-12-19T11:25:02Z</time>
      </trkpt>
      <trkpt lat="43.59637" lon="1.28959">
        <ele>186.6</ele>
        <time>2025-12-19T11:25:03Z</time>
      </trkpt>
      <trkpt lat="43.59642" lon="1.28965">
        <ele>186.6</ele>
        <time>2025-12-19T11:25:04Z</time>
      </trkpt>
      <trkpt lat="43.59647" lon="1.28971">
        <ele>186.6</ele>
        <time>2025-12-19T11:25:05Z</time>
      </trkpt>
      <trkpt lat="43.59651" lon="1.28977">
        <ele>186.6</ele>
        <time>2025-12-19T11:25:06Z</time>
      </trkpt>
      <trkpt lat="43.59655" lon="1.28982">
        <ele>186.6</ele>
        <time>2025-12-19T11:25:07Z</time>
      </trkpt>
      <trkpt lat="43.59658" lon="1.28988">
        <ele>186.6</ele>
        <time>2025-12-19T11:25:08Z</time>
      </trkpt>
      <trkpt lat="43.5966" lon="1.28994">
        <ele>186.8</ele>
        <time>2025-12-19T11:25:09Z</time>
      </trkpt>
      <trkpt lat="43.59662" lon="1.28999">
        <ele>187</ele>
        <time>2025-12-19T11:25:10Z</time>
      </trkpt>
      <trkpt lat="43.59665" lon="1.29004">
        <ele>187</ele>
        <time>2025-12-19T11:25:11Z</time>
      </trkpt>
      <trkpt lat="43.59668" lon="1.29008">
        <ele>187.2</ele>
        <time>2025-12-19T11:25:12Z</time>
      </trkpt>
      <trkpt lat="43.59671" lon="1.29014">
        <ele>187.2</ele>
        <time>2025-12-19T11:25:13Z</time>
      </trkpt>
      <trkpt lat="43.59674" lon="1.29021">
        <ele>187.2</ele>
        <time>2025-12-19T11:25:14Z</time>
      </trkpt>
      <trkpt lat="43.59675" lon="1.29028">
        <ele>187.2</ele>
        <time>2025-12-19T11:25:15Z</time>
      </trkpt>
      <trkpt lat="43.59675" lon="1.29035">
        <ele>187.4</ele>
        <time>2025-12-19T11:25:16Z</time>
      </trkpt>
      <trkpt lat="43.59676" lon="1.29043">
        <ele>187.4</ele>
        <time>2025-12-19T11:25:17Z</time>
      </trkpt>
      <trkpt lat="43.59678" lon="1.2905">
        <ele>187.4</ele>
        <time>2025-12-19T11:25:18Z</time>
      </trkpt>
      <trkpt lat="43.59678" lon="1.29058">
        <ele>187.4</ele>
        <time>2025-12-19T11:25:19Z</time>
      </trkpt>
      <trkpt lat="43.59677" lon="1.29066">
        <ele>187.4</ele>
        <time>2025-12-19T11:25:20Z</time>
      </trkpt>
      <trkpt lat="43.59674" lon="1.29074">
        <ele>187.2</ele>
        <time>2025-12-19T11:25:21Z</time>
      </trkpt>
      <trkpt lat="43.59672" lon="1.29083">
        <ele>187.2</ele>
        <time>2025-12-19T11:25:22Z</time>
      </trkpt>
      <trkpt lat="43.5967" lon="1.29091">
        <ele>187</ele>
        <time>2025-12-19T11:25:23Z</time>
      </trkpt>
      <trkpt lat="43.59667" lon="1.29099">
        <ele>186.8</ele>
        <time>2025-12-19T11:25:24Z</time>
      </trkpt>
      <trkpt lat="43.59663" lon="1.29107">
        <ele>186.8</ele>
        <time>2025-12-19T11:25:25Z</time>
      </trkpt>
      <trkpt lat="43.59659" lon="1.29115">
        <ele>186.6</ele>
        <time>2025-12-19T11:25:26Z</time>
      </trkpt>
      <trkpt lat="43.59656" lon="1.29123">
        <ele>186.4</ele>
        <time>2025-12-19T11:25:27Z</time>
      </trkpt>
      <trkpt lat="43.59652" lon="1.2913">
        <ele>186.2</ele>
        <time>2025-12-19T11:25:28Z</time>
      </trkpt>
      <trkpt lat="43.59649" lon="1.29138">
        <ele>186.2</ele>
        <time>2025-12-19T11:25:29Z</time>
      </trkpt>
      <trkpt lat="43.59645" lon="1.29146">
        <ele>186</ele>
        <time>2025-12-19T11:25:30Z</time>
      </trkpt>
      <trkpt lat="43.59642" lon="1.29154">
        <ele>186</ele>
        <time>2025-12-19T11:25:31Z</time>
      </trkpt>
      <trkpt lat="43.59639" lon="1.29162">
        <ele>185.8</ele>
        <time>2025-12-19T11:25:32Z</time>
      </trkpt>
      <trkpt lat="43.59635" lon="1.2917">
        <ele>185.8</ele>
        <time>2025-12-19T11:25:33Z</time>
      </trkpt>
      <trkpt lat="43.59632" lon="1.29177">
        <ele>185.6</ele>
        <time>2025-12-19T11:25:34Z</time>
      </trkpt>
      <trkpt lat="43.59628" lon="1.29185">
        <ele>185.6</ele>
        <time>2025-12-19T11:25:35Z</time>
      </trkpt>
      <trkpt lat="43.59625" lon="1.29193">
        <ele>185.6</ele>
        <time>2025-12-19T11:25:36Z</time>
      </trkpt>
      <trkpt lat="43.59621" lon="1.29201">
        <ele>185.6</ele>
        <time>2025-12-19T11:25:37Z</time>
      </trkpt>
      <trkpt lat="43.59618" lon="1.2921">
        <ele>185.8</ele>
        <time>2025-12-19T11:25:38Z</time>
      </trkpt>
      <trkpt lat="43.59614" lon="1.29218">
        <ele>185.8</ele>
        <time>2025-12-19T11:25:39Z</time>
      </trkpt>
      <trkpt lat="43.5961" lon="1.29227">
        <ele>185.8</ele>
        <time>2025-12-19T11:25:40Z</time>
      </trkpt>
      <trkpt lat="43.59607" lon="1.29235">
        <ele>185.8</ele>
        <time>2025-12-19T11:25:41Z</time>
      </trkpt>
      <trkpt lat="43.59603" lon="1.29243">
        <ele>185.6</ele>
        <time>2025-12-19T11:25:42Z</time>
      </trkpt>
      <trkpt lat="43.59599" lon="1.29252">
        <ele>185.6</ele>
        <time>2025-12-19T11:25:43Z</time>
      </trkpt>
      <trkpt lat="43.59595" lon="1.2926">
        <ele>185.6</ele>
        <time>2025-12-19T11:25:44Z</time>
      </trkpt>
      <trkpt lat="43.59592" lon="1.29268">
        <ele>185.6</ele>
        <time>2025-12-19T11:25:45Z</time>
      </trkpt>
      <trkpt lat="43.59588" lon="1.29276">
        <ele>185.8</ele>
        <time>2025-12-19T11:25:46Z</time>
      </trkpt>
      <trkpt lat="43.59584" lon="1.29283">
        <ele>185.8</ele>
        <time>2025-12-19T11:25:47Z</time>
      </trkpt>
      <trkpt lat="43.5958" lon="1.2929">
        <ele>185.8</ele>
        <time>2025-12-19T11:25:48Z</time>
      </trkpt>
      <trkpt lat="43.59576" lon="1.29297">
        <ele>185.8</ele>
        <time>2025-12-19T11:25:49Z</time>
      </trkpt>
      <trkpt lat="43.59572" lon="1.29304">
        <ele>185.8</ele>
        <time>2025-12-19T11:25:50Z</time>
      </trkpt>
      <trkpt lat="43.59568" lon="1.29311">
        <ele>185.8</ele>
        <time>2025-12-19T11:25:51Z</time>
      </trkpt>
      <trkpt lat="43.59564" lon="1.29317">
        <ele>185.8</ele>
        <time>2025-12-19T11:25:52Z</time>
      </trkpt>
      <trkpt lat="43.59559" lon="1.29324">
        <ele>186</ele>
        <time>2025-12-19T11:25:53Z</time>
      </trkpt>
      <trkpt lat="43.59554" lon="1.2933">
        <ele>186</ele>
        <time>2025-12-19T11:25:54Z</time>
      </trkpt>
      <trkpt lat="43.5955" lon="1.29337">
        <ele>186.2</ele>
        <time>2025-12-19T11:25:55Z</time>
      </trkpt>
      <trkpt lat="43.59544" lon="1.29343">
        <ele>186.2</ele>
        <time>2025-12-19T11:25:56Z</time>
      </trkpt>
      <trkpt lat="43.59539" lon="1.29348">
        <ele>186.4</ele>
        <time>2025-12-19T11:25:57Z</time>
      </trkpt>
      <trkpt lat="43.59533" lon="1.29354">
        <ele>186.6</ele>
        <time>2025-12-19T11:25:58Z</time>
      </trkpt>
      <trkpt lat="43.59528" lon="1.29359">
        <ele>186.6</ele>
        <time>2025-12-19T11:25:59Z</time>
      </trkpt>
      <trkpt lat="43.59522" lon="1.29364">
        <ele>186.8</ele>
        <time>2025-12-19T11:26:00Z</time>
      </trkpt>
      <trkpt lat="43.59517" lon="1.29369">
        <ele>186.8</ele>
        <time>2025-12-19T11:26:01Z</time>
      </trkpt>
      <trkpt lat="43.59511" lon="1.29374">
        <ele>186.8</ele>
        <time>2025-12-19T11:26:02Z</time>
      </trkpt>
      <trkpt lat="43.59506" lon="1.29379">
        <ele>186.6</ele>
        <time>2025-12-19T11:26:03Z</time>
      </trkpt>
      <trkpt lat="43.595" lon="1.29384">
        <ele>186.6</ele>
        <time>2025-12-19T11:26:04Z</time>
      </trkpt>
      <trkpt lat="43.59493" lon="1.29388">
        <ele>186.6</ele>
        <time>2025-12-19T11:26:05Z</time>
      </trkpt>
      <trkpt lat="43.59486" lon="1.29391">
        <ele>186.4</ele>
        <time>2025-12-19T11:26:06Z</time>
      </trkpt>
      <trkpt lat="43.59479" lon="1.29394">
        <ele>186.4</ele>
        <time>2025-12-19T11:26:07Z</time>
      </trkpt>
      <trkpt lat="43.59472" lon="1.29397">
        <ele>186.4</ele>
        <time>2025-12-19T11:26:08Z</time>
      </trkpt>
      <trkpt lat="43.59466" lon="1.29399">
        <ele>186.4</ele>
        <time>2025-12-19T11:26:09Z</time>
      </trkpt>
      <trkpt lat="43.59459" lon="1.294">
        <ele>186.4</ele>
        <time>2025-12-19T11:26:10Z</time>
      </trkpt>
      <trkpt lat="43.59452" lon="1.29401">
        <ele>186.4</ele>
        <time>2025-12-19T11:26:11Z</time>
      </trkpt>
      <trkpt lat="43.59444" lon="1.29402">
        <ele>186.4</ele>
        <time>2025-12-19T11:26:12Z</time>
      </trkpt>
      <trkpt lat="43.59437" lon="1.29401">
        <ele>186.4</ele>
        <time>2025-12-19T11:26:13Z</time>
      </trkpt>
      <trkpt lat="43.5943" lon="1.294">
        <ele>186.6</ele>
        <time>2025-12-19T11:26:14Z</time>
      </trkpt>
      <trkpt lat="43.59423" lon="1.29399">
        <ele>186.6</ele>
        <time>2025-12-19T11:26:15Z</time>
      </trkpt>
      <trkpt lat="43.59416" lon="1.29398">
        <ele>186.6</ele>
        <time>2025-12-19T11:26:16Z</time>
      </trkpt>
      <trkpt lat="43.59409" lon="1.29396">
        <ele>186.6</ele>
        <time>2025-12-19T11:26:17Z</time>
      </trkpt>
      <trkpt lat="43.59403" lon="1.29394">
        <ele>186.6</ele>
        <time>2025-12-19T11:26:18Z</time>
      </trkpt>
      <trkpt lat="43.59396" lon="1.29392">
        <ele>186.8</ele>
        <time>2025-12-19T11:26:19Z</time>
      </trkpt>
      <trkpt lat="43.59389" lon="1.2939">
        <ele>186.8</ele>
        <time>2025-12-19T11:26:20Z</time>
      </trkpt>
      <trkpt lat="43.59382" lon="1.29388">
        <ele>186.8</ele>
        <time>2025-12-19T11:26:21Z</time>
      </trkpt>
      <trkpt lat="43.59374" lon="1.29385">
        <ele>186.8</ele>
        <time>2025-12-19T11:26:22Z</time>
      </trkpt>
      <trkpt lat="43.59368" lon="1.29384">
        <ele>186.8</ele>
        <time>2025-12-19T11:26:23Z</time>
      </trkpt>
      <trkpt lat="43.59361" lon="1.29382">
        <ele>186.8</ele>
        <time>2025-12-19T11:26:24Z</time>
      </trkpt>
      <trkpt lat="43.59353" lon="1.2938">
        <ele>186.8</ele>
        <time>2025-12-19T11:26:25Z</time>
      </trkpt>
      <trkpt lat="43.59346" lon="1.29378">
        <ele>186.8</ele>
        <time>2025-12-19T11:26:26Z</time>
      </trkpt>
      <trkpt lat="43.59339" lon="1.29376">
        <ele>186.8</ele>
        <time>2025-12-19T11:26:27Z</time>
      </trkpt>
      <trkpt lat="43.59331" lon="1.29374">
        <ele>186.8</ele>
        <time>2025-12-19T11:26:28Z</time>
      </trkpt>
      <trkpt lat="43.59324" lon="1.29371">
        <ele>186.8</ele>
        <time>2025-12-19T11:26:29Z</time>
      </trkpt>
      <trkpt lat="43.59317" lon="1.29369">
        <ele>186.8</ele>
        <time>2025-12-19T11:26:30Z</time>
      </trkpt>
      <trkpt lat="43.5931" lon="1.29367">
        <ele>187</ele>
        <time>2025-12-19T11:26:31Z</time>
      </trkpt>
      <trkpt lat="43.59302" lon="1.29365">
        <ele>187</ele>
        <time>2025-12-19T11:26:32Z</time>
      </trkpt>
      <trkpt lat="43.59295" lon="1.29363">
        <ele>186.8</ele>
        <time>2025-12-19T11:26:33Z</time>
      </trkpt>
      <trkpt lat="43.59288" lon="1.29361">
        <ele>186.8</ele>
        <time>2025-12-19T11:26:34Z</time>
      </trkpt>
      <trkpt lat="43.59281" lon="1.2936">
        <ele>186.8</ele>
        <time>2025-12-19T11:26:35Z</time>
      </trkpt>
      <trkpt lat="43.59275" lon="1.29358">
        <ele>186.8</ele>
        <time>2025-12-19T11:26:36Z</time>
      </trkpt>
      <trkpt lat="43.59268" lon="1.29356">
        <ele>186.8</ele>
        <time>2025-12-19T11:26:37Z</time>
      </trkpt>
      <trkpt lat="43.59261" lon="1.29353">
        <ele>186.8</ele>
        <time>2025-12-19T11:26:38Z</time>
      </trkpt>
      <trkpt lat="43.59255" lon="1.2935">
        <ele>186.8</ele>
        <time>2025-12-19T11:26:39Z</time>
      </trkpt>
      <trkpt lat="43.59249" lon="1.29346">
        <ele>186.8</ele>
        <time>2025-12-19T11:26:40Z</time>
      </trkpt>
      <trkpt lat="43.59243" lon="1.29341">
        <ele>186.8</ele>
        <time>2025-12-19T11:26:41Z</time>
      </trkpt>
      <trkpt lat="43.59238" lon="1.29337">
        <ele>186.8</ele>
        <time>2025-12-19T11:26:42Z</time>
      </trkpt>
      <trkpt lat="43.59232" lon="1.29336">
        <ele>187</ele>
        <time>2025-12-19T11:26:43Z</time>
      </trkpt>
      <trkpt lat="43.59227" lon="1.29333">
        <ele>187</ele>
        <time>2025-12-19T11:26:44Z</time>
      </trkpt>
      <trkpt lat="43.59223" lon="1.29328">
        <ele>187</ele>
        <time>2025-12-19T11:26:45Z</time>
      </trkpt>
      <trkpt lat="43.59219" lon="1.29322">
        <ele>187.2</ele>
        <time>2025-12-19T11:26:46Z</time>
      </trkpt>
      <trkpt lat="43.59216" lon="1.29315">
        <ele>187.2</ele>
        <time>2025-12-19T11:26:47Z</time>
      </trkpt>
      <trkpt lat="43.59213" lon="1.29308">
        <ele>187.2</ele>
        <time>2025-12-19T11:26:48Z</time>
      </trkpt>
      <trkpt lat="43.59209" lon="1.29302">
        <ele>187.2</ele>
        <time>2025-12-19T11:26:49Z</time>
      </trkpt>
      <trkpt lat="43.59204" lon="1.29296">
        <ele>187.2</ele>
        <time>2025-12-19T11:26:50Z</time>
      </trkpt>
      <trkpt lat="43.59198" lon="1.29294">
        <ele>187.2</ele>
        <time>2025-12-19T11:26:51Z</time>
      </trkpt>
      <trkpt lat="43.59191" lon="1.29294">
        <ele>187.2</ele>
        <time>2025-12-19T11:26:52Z</time>
      </trkpt>
      <trkpt lat="43.59186" lon="1.29299">
        <ele>187.2</ele>
        <time>2025-12-19T11:26:53Z</time>
      </trkpt>
      <trkpt lat="43.59183" lon="1.29306">
        <ele>187.2</ele>
        <time>2025-12-19T11:26:54Z</time>
      </trkpt>
      <trkpt lat="43.59181" lon="1.29315">
        <ele>187.4</ele>
        <time>2025-12-19T11:26:55Z</time>
      </trkpt>
      <trkpt lat="43.59182" lon="1.29324">
        <ele>187.4</ele>
        <time>2025-12-19T11:26:56Z</time>
      </trkpt>
      <trkpt lat="43.59184" lon="1.29332">
        <ele>187.4</ele>
        <time>2025-12-19T11:26:57Z</time>
      </trkpt>
      <trkpt lat="43.59186" lon="1.2934">
        <ele>187.4</ele>
        <time>2025-12-19T11:26:58Z</time>
      </trkpt>
      <trkpt lat="43.59187" lon="1.29349">
        <ele>187.4</ele>
        <time>2025-12-19T11:26:59Z</time>
      </trkpt>
      <trkpt lat="43.59187" lon="1.29358">
        <ele>187.4</ele>
        <time>2025-12-19T11:27:00Z</time>
      </trkpt>
      <trkpt lat="43.59186" lon="1.29367">
        <ele>187.4</ele>
        <time>2025-12-19T11:27:01Z</time>
      </trkpt>
      <trkpt lat="43.59185" lon="1.29377">
        <ele>187.4</ele>
        <time>2025-12-19T11:27:02Z</time>
      </trkpt>
      <trkpt lat="43.59183" lon="1.29386">
        <ele>187.2</ele>
        <time>2025-12-19T11:27:03Z</time>
      </trkpt>
      <trkpt lat="43.59182" lon="1.29395">
        <ele>187.2</ele>
        <time>2025-12-19T11:27:04Z</time>
      </trkpt>
      <trkpt lat="43.5918" lon="1.29405">
        <ele>187</ele>
        <time>2025-12-19T11:27:05Z</time>
      </trkpt>
      <trkpt lat="43.59179" lon="1.29414">
        <ele>186.8</ele>
        <time>2025-12-19T11:27:06Z</time>
      </trkpt>
      <trkpt lat="43.59178" lon="1.29424">
        <ele>186.8</ele>
        <time>2025-12-19T11:27:07Z</time>
      </trkpt>
      <trkpt lat="43.59176" lon="1.29434">
        <ele>186.8</ele>
        <time>2025-12-19T11:27:08Z</time>
      </trkpt>
      <trkpt lat="43.59175" lon="1.29444">
        <ele>186.8</ele>
        <time>2025-12-19T11:27:09Z</time>
      </trkpt>
      <trkpt lat="43.59173" lon="1.29453">
        <ele>186.8</ele>
        <time>2025-12-19T11:27:10Z</time>
      </trkpt>
      <trkpt lat="43.59172" lon="1.29463">
        <ele>186.8</ele>
        <time>2025-12-19T11:27:11Z</time>
      </trkpt>
      <trkpt lat="43.59171" lon="1.29472">
        <ele>186.8</ele>
        <time>2025-12-19T11:27:12Z</time>
      </trkpt>
      <trkpt lat="43.59169" lon="1.29481">
        <ele>186.8</ele>
        <time>2025-12-19T11:27:13Z</time>
      </trkpt>
      <trkpt lat="43.59168" lon="1.2949">
        <ele>186.8</ele>
        <time>2025-12-19T11:27:14Z</time>
      </trkpt>
      <trkpt lat="43.59166" lon="1.29499">
        <ele>186.8</ele>
        <time>2025-12-19T11:27:15Z</time>
      </trkpt>
      <trkpt lat="43.59165" lon="1.29507">
        <ele>187</ele>
        <time>2025-12-19T11:27:16Z</time>
      </trkpt>
      <trkpt lat="43.59163" lon="1.29516">
        <ele>187</ele>
        <time>2025-12-19T11:27:17Z</time>
      </trkpt>
      <trkpt lat="43.59162" lon="1.29526">
        <ele>187</ele>
        <time>2025-12-19T11:27:18Z</time>
      </trkpt>
      <trkpt lat="43.5916" lon="1.29534">
        <ele>187</ele>
        <time>2025-12-19T11:27:19Z</time>
      </trkpt>
      <trkpt lat="43.59159" lon="1.29543">
        <ele>187</ele>
        <time>2025-12-19T11:27:20Z</time>
      </trkpt>
      <trkpt lat="43.59157" lon="1.29553">
        <ele>187</ele>
        <time>2025-12-19T11:27:21Z</time>
      </trkpt>
      <trkpt lat="43.59156" lon="1.29563">
        <ele>187</ele>
        <time>2025-12-19T11:27:22Z</time>
      </trkpt>
      <trkpt lat="43.59154" lon="1.29573">
        <ele>186.8</ele>
        <time>2025-12-19T11:27:23Z</time>
      </trkpt>
      <trkpt lat="43.59153" lon="1.29583">
        <ele>186.8</ele>
        <time>2025-12-19T11:27:24Z</time>
      </trkpt>
      <trkpt lat="43.59152" lon="1.29593">
        <ele>186.6</ele>
        <time>2025-12-19T11:27:25Z</time>
      </trkpt>
      <trkpt lat="43.5915" lon="1.29602">
        <ele>186.6</ele>
        <time>2025-12-19T11:27:26Z</time>
      </trkpt>
      <trkpt lat="43.59149" lon="1.29612">
        <ele>186.6</ele>
        <time>2025-12-19T11:27:27Z</time>
      </trkpt>
      <trkpt lat="43.59148" lon="1.29622">
        <ele>186.6</ele>
        <time>2025-12-19T11:27:28Z</time>
      </trkpt>
      <trkpt lat="43.59146" lon="1.29632">
        <ele>186.4</ele>
        <time>2025-12-19T11:27:29Z</time>
      </trkpt>
      <trkpt lat="43.59145" lon="1.29641">
        <ele>186.4</ele>
        <time>2025-12-19T11:27:30Z</time>
      </trkpt>
      <trkpt lat="43.59143" lon="1.29651">
        <ele>186.4</ele>
        <time>2025-12-19T11:27:31Z</time>
      </trkpt>
      <trkpt lat="43.59142" lon="1.29661">
        <ele>186.4</ele>
        <time>2025-12-19T11:27:32Z</time>
      </trkpt>
      <trkpt lat="43.59141" lon="1.29672">
        <ele>186.4</ele>
        <time>2025-12-19T11:27:33Z</time>
      </trkpt>
      <trkpt lat="43.59141" lon="1.29681">
        <ele>186.4</ele>
        <time>2025-12-19T11:27:34Z</time>
      </trkpt>
      <trkpt lat="43.5914" lon="1.29691">
        <ele>186.4</ele>
        <time>2025-12-19T11:27:35Z</time>
      </trkpt>
      <trkpt lat="43.5914" lon="1.297">
        <ele>186.6</ele>
        <time>2025-12-19T11:27:36Z</time>
      </trkpt>
      <trkpt lat="43.5914" lon="1.29709">
        <ele>186.8</ele>
        <time>2025-12-19T11:27:37Z</time>
      </trkpt>
      <trkpt lat="43.5914" lon="1.29717">
        <ele>186.8</ele>
        <time>2025-12-19T11:27:38Z</time>
      </trkpt>
      <trkpt lat="43.5914" lon="1.29726">
        <ele>186.8</ele>
        <time>2025-12-19T11:27:39Z</time>
      </trkpt>
      <trkpt lat="43.5914" lon="1.29735">
        <ele>186.8</ele>
        <time>2025-12-19T11:27:40Z</time>
      </trkpt>
      <trkpt lat="43.5914" lon="1.29743">
        <ele>186.8</ele>
        <time>2025-12-19T11:27:41Z</time>
      </trkpt>
      <trkpt lat="43.59139" lon="1.29751">
        <ele>187</ele>
        <time>2025-12-19T11:27:42Z</time>
      </trkpt>
      <trkpt lat="43.59138" lon="1.29759">
        <ele>187</ele>
        <time>2025-12-19T11:27:43Z</time>
      </trkpt>
      <trkpt lat="43.59137" lon="1.29767">
        <ele>187.2</ele>
        <time>2025-12-19T11:27:44Z</time>
      </trkpt>
      <trkpt lat="43.59136" lon="1.29774">
        <ele>187.2</ele>
        <time>2025-12-19T11:27:45Z</time>
      </trkpt>
      <trkpt lat="43.59137" lon="1.2978">
        <ele>187.2</ele>
        <time>2025-12-19T11:27:46Z</time>
      </trkpt>
      <trkpt lat="43.5914" lon="1.29783">
        <ele>187.4</ele>
        <time>2025-12-19T11:27:47Z</time>
      </trkpt>
      <trkpt lat="43.59144" lon="1.29784">
        <ele>187.4</ele>
        <time>2025-12-19T11:27:48Z</time>
      </trkpt>
      <trkpt lat="43.59148" lon="1.29783">
        <ele>187.4</ele>
        <time>2025-12-19T11:27:49Z</time>
      </trkpt>
      <trkpt lat="43.59152" lon="1.29783">
        <ele>187.4</ele>
        <time>2025-12-19T11:27:50Z</time>
      </trkpt>
      <trkpt lat="43.59156" lon="1.29783">
        <ele>187.4</ele>
        <time>2025-12-19T11:27:51Z</time>
      </trkpt>
      <trkpt lat="43.5916" lon="1.29784">
        <ele>187.4</ele>
        <time>2025-12-19T11:27:52Z</time>
      </trkpt>
      <trkpt lat="43.59164" lon="1.29785">
        <ele>187.4</ele>
        <time>2025-12-19T11:27:53Z</time>
      </trkpt>
      <trkpt lat="43.59168" lon="1.29786">
        <ele>187.4</ele>
        <time>2025-12-19T11:27:54Z</time>
      </trkpt>
      <trkpt lat="43.59171" lon="1.29787">
        <ele>187.4</ele>
        <time>2025-12-19T11:27:55Z</time>
      </trkpt>
      <trkpt lat="43.59175" lon="1.29789">
        <ele>187.4</ele>
        <time>2025-12-19T11:27:56Z</time>
      </trkpt>
      <trkpt lat="43.59177" lon="1.29792">
        <ele>187.6</ele>
        <time>2025-12-19T11:27:57Z</time>
      </trkpt>
      <trkpt lat="43.59178" lon="1.29796">
        <ele>187.6</ele>
        <time>2025-12-19T11:27:58Z</time>
      </trkpt>
      <trkpt lat="43.59179" lon="1.298">
        <ele>187.6</ele>
        <time>2025-12-19T11:27:59Z</time>
      </trkpt>
      <trkpt lat="43.5918" lon="1.29804">
        <ele>187.8</ele>
        <time>2025-12-19T11:28:00Z</time>
      </trkpt>
      <trkpt lat="43.59179" lon="1.29809">
        <ele>187.8</ele>
        <time>2025-12-19T11:28:01Z</time>
      </trkpt>
      <trkpt lat="43.59179" lon="1.29815">
        <ele>187.8</ele>
        <time>2025-12-19T11:28:02Z</time>
      </trkpt>
      <trkpt lat="43.59178" lon="1.29821">
        <ele>187.8</ele>
        <time>2025-12-19T11:28:03Z</time>
      </trkpt>
      <trkpt lat="43.59177" lon="1.29828">
        <ele>187.6</ele>
        <time>2025-12-19T11:28:04Z</time>
      </trkpt>
      <trkpt lat="43.59176" lon="1.29836">
        <ele>187.6</ele>
        <time>2025-12-19T11:28:05Z</time>
      </trkpt>
      <trkpt lat="43.59175" lon="1.29843">
        <ele>187.6</ele>
        <time>2025-12-19T11:28:06Z</time>
      </trkpt>
      <trkpt lat="43.59174" lon="1.29851">
        <ele>187.4</ele>
        <time>2025-12-19T11:28:07Z</time>
      </trkpt>
      <trkpt lat="43.59174" lon="1.29858">
        <ele>187.4</ele>
        <time>2025-12-19T11:28:08Z</time>
      </trkpt>
      <trkpt lat="43.59173" lon="1.29864">
        <ele>187.4</ele>
        <time>2025-12-19T11:28:09Z</time>
      </trkpt>
      <trkpt lat="43.59174" lon="1.29871">
        <ele>187.2</ele>
        <time>2025-12-19T11:28:10Z</time>
      </trkpt>
      <trkpt lat="43.59174" lon="1.29877">
        <ele>187.2</ele>
        <time>2025-12-19T11:28:11Z</time>
      </trkpt>
      <trkpt lat="43.59176" lon="1.29883">
        <ele>187.2</ele>
        <time>2025-12-19T11:28:12Z</time>
      </trkpt>
      <trkpt lat="43.59178" lon="1.29889">
        <ele>187.2</ele>
        <time>2025-12-19T11:28:13Z</time>
      </trkpt>
      <trkpt lat="43.59181" lon="1.29892">
        <ele>187.2</ele>
        <time>2025-12-19T11:28:14Z</time>
      </trkpt>
      <trkpt lat="43.59185" lon="1.29894">
        <ele>187.4</ele>
        <time>2025-12-19T11:28:15Z</time>
      </trkpt>
      <trkpt lat="43.59189" lon="1.29896">
        <ele>187.4</ele>
        <time>2025-12-19T11:28:16Z</time>
      </trkpt>
      <trkpt lat="43.59193" lon="1.29898">
        <ele>187.4</ele>
        <time>2025-12-19T11:28:17Z</time>
      </trkpt>
      <trkpt lat="43.59198" lon="1.29899">
        <ele>187.4</ele>
        <time>2025-12-19T11:28:18Z</time>
      </trkpt>
      <trkpt lat="43.59202" lon="1.29901">
        <ele>187.4</ele>
        <time>2025-12-19T11:28:19Z</time>
      </trkpt>
      <trkpt lat="43.59207" lon="1.29903">
        <ele>187.4</ele>
        <time>2025-12-19T11:28:20Z</time>
      </trkpt>
      <trkpt lat="43.59213" lon="1.29906">
        <ele>187.4</ele>
        <time>2025-12-19T11:28:21Z</time>
      </trkpt>
      <trkpt lat="43.59218" lon="1.29907">
        <ele>187.2</ele>
        <time>2025-12-19T11:28:22Z</time>
      </trkpt>
      <trkpt lat="43.59222" lon="1.29909">
        <ele>187.2</ele>
        <time>2025-12-19T11:28:23Z</time>
      </trkpt>
      <trkpt lat="43.59226" lon="1.29912">
        <ele>187.2</ele>
        <time>2025-12-19T11:28:24Z</time>
      </trkpt>
      <trkpt lat="43.59229" lon="1.29915">
        <ele>187.2</ele>
        <time>2025-12-19T11:28:25Z</time>
      </trkpt>
      <trkpt lat="43.59231" lon="1.29919">
        <ele>187.2</ele>
        <time>2025-12-19T11:28:26Z</time>
      </trkpt>
      <trkpt lat="43.59231" lon="1.29923">
        <ele>187.2</ele>
        <time>2025-12-19T11:28:27Z</time>
      </trkpt>
      <trkpt lat="43.59232" lon="1.29929">
        <ele>187.2</ele>
        <time>2025-12-19T11:28:28Z</time>
      </trkpt>
      <trkpt lat="43.59231" lon="1.29936">
        <ele>187.2</ele>
        <time>2025-12-19T11:28:29Z</time>
      </trkpt>
      <trkpt lat="43.5923" lon="1.29943">
        <ele>187.2</ele>
        <time>2025-12-19T11:28:30Z</time>
      </trkpt>
      <trkpt lat="43.59227" lon="1.29949">
        <ele>187.2</ele>
        <time>2025-12-19T11:28:31Z</time>
      </trkpt>
      <trkpt lat="43.59224" lon="1.29955">
        <ele>187.2</ele>
        <time>2025-12-19T11:28:32Z</time>
      </trkpt>
      <trkpt lat="43.59222" lon="1.29961">
        <ele>187.4</ele>
        <time>2025-12-19T11:28:33Z</time>
      </trkpt>
      <trkpt lat="43.5922" lon="1.29967">
        <ele>187.4</ele>
        <time>2025-12-19T11:28:34Z</time>
      </trkpt>
      <trkpt lat="43.5922" lon="1.29973">
        <ele>187.4</ele>
        <time>2025-12-19T11:28:35Z</time>
      </trkpt>
      <trkpt lat="43.5922" lon="1.2998">
        <ele>187.4</ele>
        <time>2025-12-19T11:28:36Z</time>
      </trkpt>
      <trkpt lat="43.59222" lon="1.29987">
        <ele>187.4</ele>
        <time>2025-12-19T11:28:37Z</time>
      </trkpt>
      <trkpt lat="43.59223" lon="1.29994">
        <ele>187.4</ele>
        <time>2025-12-19T11:28:38Z</time>
      </trkpt>
      <trkpt lat="43.59223" lon="1.30002">
        <ele>187.4</ele>
        <time>2025-12-19T11:28:39Z</time>
      </trkpt>
      <trkpt lat="43.59224" lon="1.3001">
        <ele>187.4</ele>
        <time>2025-12-19T11:28:40Z</time>
      </trkpt>
      <trkpt lat="43.59224" lon="1.30018">
        <ele>187.2</ele>
        <time>2025-12-19T11:28:41Z</time>
      </trkpt>
      <trkpt lat="43.59223" lon="1.30026">
        <ele>187.2</ele>
        <time>2025-12-19T11:28:42Z</time>
      </trkpt>
      <trkpt lat="43.59223" lon="1.30035">
        <ele>187.2</ele>
        <time>2025-12-19T11:28:43Z</time>
      </trkpt>
      <trkpt lat="43.59223" lon="1.30044">
        <ele>187</ele>
        <time>2025-12-19T11:28:44Z</time>
      </trkpt>
      <trkpt lat="43.59222" lon="1.30052">
        <ele>187</ele>
        <time>2025-12-19T11:28:45Z</time>
      </trkpt>
      <trkpt lat="43.59222" lon="1.30061">
        <ele>186.8</ele>
        <time>2025-12-19T11:28:46Z</time>
      </trkpt>
      <trkpt lat="43.59221" lon="1.3007">
        <ele>186.8</ele>
        <time>2025-12-19T11:28:47Z</time>
      </trkpt>
      <trkpt lat="43.59221" lon="1.30079">
        <ele>186.8</ele>
        <time>2025-12-19T11:28:48Z</time>
      </trkpt>
      <trkpt lat="43.59221" lon="1.30088">
        <ele>186.8</ele>
        <time>2025-12-19T11:28:49Z</time>
      </trkpt>
      <trkpt lat="43.59221" lon="1.30097">
        <ele>186.6</ele>
        <time>2025-12-19T11:28:50Z</time>
      </trkpt>
      <trkpt lat="43.59221" lon="1.30106">
        <ele>186.6</ele>
        <time>2025-12-19T11:28:51Z</time>
      </trkpt>
      <trkpt lat="43.59221" lon="1.30115">
        <ele>186.6</ele>
        <time>2025-12-19T11:28:52Z</time>
      </trkpt>
      <trkpt lat="43.59221" lon="1.30123">
        <ele>186.6</ele>
        <time>2025-12-19T11:28:53Z</time>
      </trkpt>
      <trkpt lat="43.59222" lon="1.30132">
        <ele>186.6</ele>
        <time>2025-12-19T11:28:54Z</time>
      </trkpt>
      <trkpt lat="43.59222" lon="1.30141">
        <ele>186.6</ele>
        <time>2025-12-19T11:28:55Z</time>
      </trkpt>
      <trkpt lat="43.59223" lon="1.30149">
        <ele>186.6</ele>
        <time>2025-12-19T11:28:56Z</time>
      </trkpt>
      <trkpt lat="43.59223" lon="1.30158">
        <ele>186.6</ele>
        <time>2025-12-19T11:28:57Z</time>
      </trkpt>
      <trkpt lat="43.59223" lon="1.30167">
        <ele>186.8</ele>
        <time>2025-12-19T11:28:58Z</time>
      </trkpt>
      <trkpt lat="43.59224" lon="1.30176">
        <ele>186.8</ele>
        <time>2025-12-19T11:28:59Z</time>
      </trkpt>
      <trkpt lat="43.59224" lon="1.30185">
        <ele>186.8</ele>
        <time>2025-12-19T11:29:00Z</time>
      </trkpt>
      <trkpt lat="43.59225" lon="1.30194">
        <ele>186.8</ele>
        <time>2025-12-19T11:29:01Z</time>
      </trkpt>
      <trkpt lat="43.59224" lon="1.30204">
        <ele>186.6</ele>
        <time>2025-12-19T11:29:02Z</time>
      </trkpt>
      <trkpt lat="43.59224" lon="1.30213">
        <ele>186.6</ele>
        <time>2025-12-19T11:29:03Z</time>
      </trkpt>
      <trkpt lat="43.59223" lon="1.30222">
        <ele>186.6</ele>
        <time>2025-12-19T11:29:04Z</time>
      </trkpt>
      <trkpt lat="43.59222" lon="1.30231">
        <ele>186.6</ele>
        <time>2025-12-19T11:29:05Z</time>
      </trkpt>
      <trkpt lat="43.59221" lon="1.3024">
        <ele>186.6</ele>
        <time>2025-12-19T11:29:06Z</time>
      </trkpt>
      <trkpt lat="43.59219" lon="1.30249">
        <ele>186.6</ele>
        <time>2025-12-19T11:29:07Z</time>
      </trkpt>
      <trkpt lat="43.59218" lon="1.30257">
        <ele>186.6</ele>
        <time>2025-12-19T11:29:08Z</time>
      </trkpt>
      <trkpt lat="43.59215" lon="1.30266">
        <ele>186.6</ele>
        <time>2025-12-19T11:29:09Z</time>
      </trkpt>
      <trkpt lat="43.59212" lon="1.30275">
        <ele>186.6</ele>
        <time>2025-12-19T11:29:10Z</time>
      </trkpt>
      <trkpt lat="43.59209" lon="1.30282">
        <ele>186.6</ele>
        <time>2025-12-19T11:29:11Z</time>
      </trkpt>
      <trkpt lat="43.59204" lon="1.30289">
        <ele>186.6</ele>
        <time>2025-12-19T11:29:12Z</time>
      </trkpt>
      <trkpt lat="43.592" lon="1.30296">
        <ele>186.6</ele>
        <time>2025-12-19T11:29:13Z</time>
      </trkpt>
      <trkpt lat="43.59194" lon="1.30302">
        <ele>186.6</ele>
        <time>2025-12-19T11:29:14Z</time>
      </trkpt>
      <trkpt lat="43.59189" lon="1.30307">
        <ele>186.8</ele>
        <time>2025-12-19T11:29:15Z</time>
      </trkpt>
      <trkpt lat="43.59183" lon="1.30311">
        <ele>186.8</ele>
        <time>2025-12-19T11:29:16Z</time>
      </trkpt>
      <trkpt lat="43.59177" lon="1.30316">
        <ele>186.8</ele>
        <time>2025-12-19T11:29:17Z</time>
      </trkpt>
      <trkpt lat="43.59171" lon="1.30321">
        <ele>186.8</ele>
        <time>2025-12-19T11:29:18Z</time>
      </trkpt>
      <trkpt lat="43.59165" lon="1.30326">
        <ele>186.8</ele>
        <time>2025-12-19T11:29:19Z</time>
      </trkpt>
      <trkpt lat="43.59159" lon="1.30331">
        <ele>186.8</ele>
        <time>2025-12-19T11:29:20Z</time>
      </trkpt>
      <trkpt lat="43.59153" lon="1.30336">
        <ele>186.8</ele>
        <time>2025-12-19T11:29:21Z</time>
      </trkpt>
      <trkpt lat="43.59147" lon="1.30341">
        <ele>186.8</ele>
        <time>2025-12-19T11:29:22Z</time>
      </trkpt>
      <trkpt lat="43.59141" lon="1.30346">
        <ele>187</ele>
        <time>2025-12-19T11:29:23Z</time>
      </trkpt>
      <trkpt lat="43.59135" lon="1.30351">
        <ele>187</ele>
        <time>2025-12-19T11:29:24Z</time>
      </trkpt>
      <trkpt lat="43.59128" lon="1.30356">
        <ele>187</ele>
        <time>2025-12-19T11:29:25Z</time>
      </trkpt>
      <trkpt lat="43.59122" lon="1.30361">
        <ele>187</ele>
        <time>2025-12-19T11:29:26Z</time>
      </trkpt>
      <trkpt lat="43.59116" lon="1.30366">
        <ele>187.2</ele>
        <time>2025-12-19T11:29:27Z</time>
      </trkpt>
      <trkpt lat="43.5911" lon="1.30371">
        <ele>187.2</ele>
        <time>2025-12-19T11:29:28Z</time>
      </trkpt>
      <trkpt lat="43.59103" lon="1.30377">
        <ele>187.2</ele>
        <time>2025-12-19T11:29:29Z</time>
      </trkpt>
      <trkpt lat="43.59097" lon="1.30382">
        <ele>187.2</ele>
        <time>2025-12-19T11:29:30Z</time>
      </trkpt>
      <trkpt lat="43.59091" lon="1.30387">
        <ele>187.4</ele>
        <time>2025-12-19T11:29:31Z</time>
      </trkpt>
      <trkpt lat="43.59085" lon="1.30392">
        <ele>187.4</ele>
        <time>2025-12-19T11:29:32Z</time>
      </trkpt>
      <trkpt lat="43.59078" lon="1.30397">
        <ele>187.6</ele>
        <time>2025-12-19T11:29:33Z</time>
      </trkpt>
      <trkpt lat="43.59072" lon="1.30403">
        <ele>187.6</ele>
        <time>2025-12-19T11:29:34Z</time>
      </trkpt>
      <trkpt lat="43.59066" lon="1.30409">
        <ele>187.6</ele>
        <time>2025-12-19T11:29:35Z</time>
      </trkpt>
      <trkpt lat="43.59061" lon="1.30417">
        <ele>187.6</ele>
        <time>2025-12-19T11:29:36Z</time>
      </trkpt>
      <trkpt lat="43.59057" lon="1.30425">
        <ele>187.6</ele>
        <time>2025-12-19T11:29:37Z</time>
      </trkpt>
      <trkpt lat="43.59053" lon="1.30434">
        <ele>187.4</ele>
        <time>2025-12-19T11:29:38Z</time>
      </trkpt>
      <trkpt lat="43.5905" lon="1.30443">
        <ele>187.4</ele>
        <time>2025-12-19T11:29:39Z</time>
      </trkpt>
      <trkpt lat="43.59048" lon="1.30453">
        <ele>187.4</ele>
        <time>2025-12-19T11:29:40Z</time>
      </trkpt>
      <trkpt lat="43.59046" lon="1.30463">
        <ele>187.2</ele>
        <time>2025-12-19T11:29:41Z</time>
      </trkpt>
      <trkpt lat="43.59046" lon="1.30474">
        <ele>187.2</ele>
        <time>2025-12-19T11:29:42Z</time>
      </trkpt>
      <trkpt lat="43.59045" lon="1.30485">
        <ele>187.2</ele>
        <time>2025-12-19T11:29:43Z</time>
      </trkpt>
      <trkpt lat="43.59045" lon="1.30495">
        <ele>187</ele>
        <time>2025-12-19T11:29:44Z</time>
      </trkpt>
      <trkpt lat="43.59044" lon="1.30505">
        <ele>187</ele>
        <time>2025-12-19T11:29:45Z</time>
      </trkpt>
      <trkpt lat="43.59044" lon="1.30515">
        <ele>187</ele>
        <time>2025-12-19T11:29:46Z</time>
      </trkpt>
      <trkpt lat="43.59043" lon="1.30525">
        <ele>187</ele>
        <time>2025-12-19T11:29:47Z</time>
      </trkpt>
      <trkpt lat="43.59043" lon="1.30536">
        <ele>187</ele>
        <time>2025-12-19T11:29:48Z</time>
      </trkpt>
      <trkpt lat="43.59042" lon="1.30546">
        <ele>187.2</ele>
        <time>2025-12-19T11:29:49Z</time>
      </trkpt>
      <trkpt lat="43.59043" lon="1.30556">
        <ele>187.2</ele>
        <time>2025-12-19T11:29:50Z</time>
      </trkpt>
      <trkpt lat="43.59044" lon="1.30566">
        <ele>187.2</ele>
        <time>2025-12-19T11:29:51Z</time>
      </trkpt>
      <trkpt lat="43.59045" lon="1.30576">
        <ele>187.2</ele>
        <time>2025-12-19T11:29:52Z</time>
      </trkpt>
      <trkpt lat="43.59046" lon="1.30586">
        <ele>187.2</ele>
        <time>2025-12-19T11:29:53Z</time>
      </trkpt>
      <trkpt lat="43.59048" lon="1.30596">
        <ele>187.2</ele>
        <time>2025-12-19T11:29:54Z</time>
      </trkpt>
      <trkpt lat="43.5905" lon="1.30606">
        <ele>187.2</ele>
        <time>2025-12-19T11:29:55Z</time>
      </trkpt>
      <trkpt lat="43.59051" lon="1.30616">
        <ele>187</ele>
        <time>2025-12-19T11:29:56Z</time>
      </trkpt>
      <trkpt lat="43.59053" lon="1.30626">
        <ele>187</ele>
        <time>2025-12-19T11:29:57Z</time>
      </trkpt>
      <trkpt lat="43.59054" lon="1.30636">
        <ele>187</ele>
        <time>2025-12-19T11:29:58Z</time>
      </trkpt>
      <trkpt lat="43.59056" lon="1.30646">
        <ele>186.8</ele>
        <time>2025-12-19T11:29:59Z</time>
      </trkpt>
      <trkpt lat="43.59057" lon="1.30657">
        <ele>186.8</ele>
        <time>2025-12-19T11:30:00Z</time>
      </trkpt>
      <trkpt lat="43.59058" lon="1.30667">
        <ele>186.6</ele>
        <time>2025-12-19T11:30:01Z</time>
      </trkpt>
      <trkpt lat="43.5906" lon="1.30677">
        <ele>186.6</ele>
        <time>2025-12-19T11:30:02Z</time>
      </trkpt>
      <trkpt lat="43.59061" lon="1.30687">
        <ele>186.6</ele>
        <time>2025-12-19T11:30:03Z</time>
      </trkpt>
      <trkpt lat="43.59063" lon="1.30697">
        <ele>186.6</ele>
        <time>2025-12-19T11:30:04Z</time>
      </trkpt>
      <trkpt lat="43.59065" lon="1.30707">
        <ele>186.6</ele>
        <time>2025-12-19T11:30:05Z</time>
      </trkpt>
      <trkpt lat="43.59066" lon="1.30717">
        <ele>186.8</ele>
        <time>2025-12-19T11:30:06Z</time>
      </trkpt>
      <trkpt lat="43.59068" lon="1.30727">
        <ele>186.8</ele>
        <time>2025-12-19T11:30:07Z</time>
      </trkpt>
      <trkpt lat="43.59069" lon="1.30737">
        <ele>186.8</ele>
        <time>2025-12-19T11:30:08Z</time>
      </trkpt>
      <trkpt lat="43.59071" lon="1.30747">
        <ele>186.8</ele>
        <time>2025-12-19T11:30:09Z</time>
      </trkpt>
      <trkpt lat="43.59073" lon="1.30757">
        <ele>186.8</ele>
        <time>2025-12-19T11:30:10Z</time>
      </trkpt>
      <trkpt lat="43.59076" lon="1.30766">
        <ele>186.8</ele>
        <time>2025-12-19T11:30:11Z</time>
      </trkpt>
      <trkpt lat="43.59079" lon="1.30776">
        <ele>186.6</ele>
        <time>2025-12-19T11:30:12Z</time>
      </trkpt>
      <trkpt lat="43.59081" lon="1.30786">
        <ele>186.6</ele>
        <time>2025-12-19T11:30:13Z</time>
      </trkpt>
      <trkpt lat="43.59084" lon="1.30796">
        <ele>186.4</ele>
        <time>2025-12-19T11:30:14Z</time>
      </trkpt>
      <trkpt lat="43.59086" lon="1.30805">
        <ele>186.4</ele>
        <time>2025-12-19T11:30:15Z</time>
      </trkpt>
      <trkpt lat="43.59088" lon="1.30814">
        <ele>186.4</ele>
        <time>2025-12-19T11:30:16Z</time>
      </trkpt>
      <trkpt lat="43.59091" lon="1.30824">
        <ele>186.4</ele>
        <time>2025-12-19T11:30:17Z</time>
      </trkpt>
      <trkpt lat="43.59094" lon="1.30834">
        <ele>186.4</ele>
        <time>2025-12-19T11:30:18Z</time>
      </trkpt>
      <trkpt lat="43.59098" lon="1.30843">
        <ele>186.2</ele>
        <time>2025-12-19T11:30:19Z</time>
      </trkpt>
      <trkpt lat="43.59102" lon="1.30851">
        <ele>186</ele>
        <time>2025-12-19T11:30:20Z</time>
      </trkpt>
      <trkpt lat="43.59106" lon="1.3086">
        <ele>186</ele>
        <time>2025-12-19T11:30:21Z</time>
      </trkpt>
      <trkpt lat="43.59111" lon="1.30867">
        <ele>186</ele>
        <time>2025-12-19T11:30:22Z</time>
      </trkpt>
      <trkpt lat="43.59116" lon="1.30873">
        <ele>186</ele>
        <time>2025-12-19T11:30:23Z</time>
      </trkpt>
      <trkpt lat="43.59121" lon="1.30879">
        <ele>186.2</ele>
        <time>2025-12-19T11:30:24Z</time>
      </trkpt>
      <trkpt lat="43.59127" lon="1.30885">
        <ele>186.2</ele>
        <time>2025-12-19T11:30:25Z</time>
      </trkpt>
      <trkpt lat="43.59132" lon="1.3089">
        <ele>186.2</ele>
        <time>2025-12-19T11:30:26Z</time>
      </trkpt>
      <trkpt lat="43.59137" lon="1.30895">
        <ele>186.2</ele>
        <time>2025-12-19T11:30:27Z</time>
      </trkpt>
      <trkpt lat="43.59143" lon="1.30901">
        <ele>186.2</ele>
        <time>2025-12-19T11:30:28Z</time>
      </trkpt>
      <trkpt lat="43.59148" lon="1.30906">
        <ele>186.2</ele>
        <time>2025-12-19T11:30:29Z</time>
      </trkpt>
      <trkpt lat="43.59154" lon="1.30911">
        <ele>186.2</ele>
        <time>2025-12-19T11:30:30Z</time>
      </trkpt>
      <trkpt lat="43.59159" lon="1.30916">
        <ele>186.2</ele>
        <time>2025-12-19T11:30:31Z</time>
      </trkpt>
      <trkpt lat="43.59165" lon="1.30921">
        <ele>186.4</ele>
        <time>2025-12-19T11:30:32Z</time>
      </trkpt>
      <trkpt lat="43.5917" lon="1.30927">
        <ele>186.4</ele>
        <time>2025-12-19T11:30:33Z</time>
      </trkpt>
      <trkpt lat="43.59173" lon="1.30934">
        <ele>186.4</ele>
        <time>2025-12-19T11:30:34Z</time>
      </trkpt>
      <trkpt lat="43.59175" lon="1.30942">
        <ele>186.6</ele>
        <time>2025-12-19T11:30:35Z</time>
      </trkpt>
      <trkpt lat="43.59176" lon="1.3095">
        <ele>186.6</ele>
        <time>2025-12-19T11:30:36Z</time>
      </trkpt>
      <trkpt lat="43.59177" lon="1.30959">
        <ele>186.8</ele>
        <time>2025-12-19T11:30:37Z</time>
      </trkpt>
      <trkpt lat="43.59177" lon="1.30968">
        <ele>186.8</ele>
        <time>2025-12-19T11:30:38Z</time>
      </trkpt>
      <trkpt lat="43.59174" lon="1.30976">
        <ele>186.8</ele>
        <time>2025-12-19T11:30:39Z</time>
      </trkpt>
      <trkpt lat="43.59171" lon="1.30983">
        <ele>187</ele>
        <time>2025-12-19T11:30:40Z</time>
      </trkpt>
      <trkpt lat="43.59167" lon="1.30991">
        <ele>186.8</ele>
        <time>2025-12-19T11:30:41Z</time>
      </trkpt>
      <trkpt lat="43.59163" lon="1.30998">
        <ele>186.8</ele>
        <time>2025-12-19T11:30:42Z</time>
      </trkpt>
      <trkpt lat="43.59159" lon="1.31006">
        <ele>186.8</ele>
        <time>2025-12-19T11:30:43Z</time>
      </trkpt>
      <trkpt lat="43.59155" lon="1.31015">
        <ele>186.8</ele>
        <time>2025-12-19T11:30:44Z</time>
      </trkpt>
      <trkpt lat="43.59151" lon="1.31023">
        <ele>186.8</ele>
        <time>2025-12-19T11:30:45Z</time>
      </trkpt>
      <trkpt lat="43.59148" lon="1.31032">
        <ele>186.6</ele>
        <time>2025-12-19T11:30:46Z</time>
      </trkpt>
      <trkpt lat="43.59146" lon="1.31041">
        <ele>186.6</ele>
        <time>2025-12-19T11:30:47Z</time>
      </trkpt>
      <trkpt lat="43.59143" lon="1.3105">
        <ele>186.4</ele>
        <time>2025-12-19T11:30:48Z</time>
      </trkpt>
      <trkpt lat="43.59139" lon="1.31058">
        <ele>186.4</ele>
        <time>2025-12-19T11:30:49Z</time>
      </trkpt>
      <trkpt lat="43.59136" lon="1.31066">
        <ele>186.4</ele>
        <time>2025-12-19T11:30:50Z</time>
      </trkpt>
      <trkpt lat="43.59132" lon="1.31075">
        <ele>186.2</ele>
        <time>2025-12-19T11:30:51Z</time>
      </trkpt>
      <trkpt lat="43.59127" lon="1.31083">
        <ele>186.2</ele>
        <time>2025-12-19T11:30:52Z</time>
      </trkpt>
      <trkpt lat="43.59123" lon="1.31092">
        <ele>186.2</ele>
        <time>2025-12-19T11:30:53Z</time>
      </trkpt>
      <trkpt lat="43.59119" lon="1.311">
        <ele>186.2</ele>
        <time>2025-12-19T11:30:54Z</time>
      </trkpt>
      <trkpt lat="43.59115" lon="1.31107">
        <ele>186.2</ele>
        <time>2025-12-19T11:30:55Z</time>
      </trkpt>
      <trkpt lat="43.5911" lon="1.31116">
        <ele>186.2</ele>
        <time>2025-12-19T11:30:56Z</time>
      </trkpt>
      <trkpt lat="43.59106" lon="1.31123">
        <ele>186.2</ele>
        <time>2025-12-19T11:30:57Z</time>
      </trkpt>
      <trkpt lat="43.59102" lon="1.3113">
        <ele>186.2</ele>
        <time>2025-12-19T11:30:58Z</time>
      </trkpt>
      <trkpt lat="43.59096" lon="1.31135">
        <ele>186.2</ele>
        <time>2025-12-19T11:30:59Z</time>
      </trkpt>
      <trkpt lat="43.5909" lon="1.31138">
        <ele>186.2</ele>
        <time>2025-12-19T11:31:00Z</time>
      </trkpt>
      <trkpt lat="43.59085" lon="1.31141">
        <ele>186.4</ele>
        <time>2025-12-19T11:31:01Z</time>
      </trkpt>
      <trkpt lat="43.5908" lon="1.31146">
        <ele>186.4</ele>
        <time>2025-12-19T11:31:02Z</time>
      </trkpt>
      <trkpt lat="43.59078" lon="1.31153">
        <ele>186.6</ele>
        <time>2025-12-19T11:31:03Z</time>
      </trkpt>
      <trkpt lat="43.59077" lon="1.31162">
        <ele>186.8</ele>
        <time>2025-12-19T11:31:04Z</time>
      </trkpt>
      <trkpt lat="43.59079" lon="1.3117">
        <ele>186.8</ele>
        <time>2025-12-19T11:31:05Z</time>
      </trkpt>
      <trkpt lat="43.59085" lon="1.31175">
        <ele>187</ele>
        <time>2025-12-19T11:31:06Z</time>
      </trkpt>
      <trkpt lat="43.5909" lon="1.31178">
        <ele>186.8</ele>
        <time>2025-12-19T11:31:07Z</time>
      </trkpt>
      <trkpt lat="43.59096" lon="1.3118">
        <ele>186.8</ele>
        <time>2025-12-19T11:31:08Z</time>
      </trkpt>
      <trkpt lat="43.59103" lon="1.3118">
        <ele>186.8</ele>
        <time>2025-12-19T11:31:09Z</time>
      </trkpt>
      <trkpt lat="43.59109" lon="1.31183">
        <ele>186.8</ele>
        <time>2025-12-19T11:31:10Z</time>
      </trkpt>
      <trkpt lat="43.59114" lon="1.31187">
        <ele>186.8</ele>
        <time>2025-12-19T11:31:11Z</time>
      </trkpt>
      <trkpt lat="43.59119" lon="1.31192">
        <ele>186.8</ele>
        <time>2025-12-19T11:31:12Z</time>
      </trkpt>
      <trkpt lat="43.59125" lon="1.31197">
        <ele>186.8</ele>
        <time>2025-12-19T11:31:13Z</time>
      </trkpt>
      <trkpt lat="43.5913" lon="1.31202">
        <ele>186.6</ele>
        <time>2025-12-19T11:31:14Z</time>
      </trkpt>
      <trkpt lat="43.59136" lon="1.31207">
        <ele>186.6</ele>
        <time>2025-12-19T11:31:15Z</time>
      </trkpt>
      <trkpt lat="43.59141" lon="1.31212">
        <ele>186.6</ele>
        <time>2025-12-19T11:31:16Z</time>
      </trkpt>
      <trkpt lat="43.59147" lon="1.31217">
        <ele>186.6</ele>
        <time>2025-12-19T11:31:17Z</time>
      </trkpt>
      <trkpt lat="43.59152" lon="1.31222">
        <ele>186.6</ele>
        <time>2025-12-19T11:31:18Z</time>
      </trkpt>
      <trkpt lat="43.59158" lon="1.31228">
        <ele>186.6</ele>
        <time>2025-12-19T11:31:19Z</time>
      </trkpt>
      <trkpt lat="43.59163" lon="1.31234">
        <ele>186.6</ele>
        <time>2025-12-19T11:31:20Z</time>
      </trkpt>
      <trkpt lat="43.59169" lon="1.31239">
        <ele>186.4</ele>
        <time>2025-12-19T11:31:21Z</time>
      </trkpt>
      <trkpt lat="43.59174" lon="1.31244">
        <ele>186.4</ele>
        <time>2025-12-19T11:31:22Z</time>
      </trkpt>
      <trkpt lat="43.5918" lon="1.31249">
        <ele>186.4</ele>
        <time>2025-12-19T11:31:23Z</time>
      </trkpt>
      <trkpt lat="43.59186" lon="1.31255">
        <ele>186.4</ele>
        <time>2025-12-19T11:31:24Z</time>
      </trkpt>
      <trkpt lat="43.59191" lon="1.31261">
        <ele>186.4</ele>
        <time>2025-12-19T11:31:25Z</time>
      </trkpt>
      <trkpt lat="43.59197" lon="1.31266">
        <ele>186.2</ele>
        <time>2025-12-19T11:31:26Z</time>
      </trkpt>
      <trkpt lat="43.59203" lon="1.31272">
        <ele>186.2</ele>
        <time>2025-12-19T11:31:27Z</time>
      </trkpt>
      <trkpt lat="43.59209" lon="1.31278">
        <ele>186.2</ele>
        <time>2025-12-19T11:31:28Z</time>
      </trkpt>
      <trkpt lat="43.59215" lon="1.31284">
        <ele>186.2</ele>
        <time>2025-12-19T11:31:29Z</time>
      </trkpt>
      <trkpt lat="43.59221" lon="1.31289">
        <ele>186</ele>
        <time>2025-12-19T11:31:30Z</time>
      </trkpt>
      <trkpt lat="43.59227" lon="1.31295">
        <ele>186</ele>
        <time>2025-12-19T11:31:31Z</time>
      </trkpt>
      <trkpt lat="43.59233" lon="1.313">
        <ele>186</ele>
        <time>2025-12-19T11:31:32Z</time>
      </trkpt>
      <trkpt lat="43.59239" lon="1.31306">
        <ele>185.8</ele>
        <time>2025-12-19T11:31:33Z</time>
      </trkpt>
      <trkpt lat="43.59245" lon="1.31311">
        <ele>185.8</ele>
        <time>2025-12-19T11:31:34Z</time>
      </trkpt>
      <trkpt lat="43.59251" lon="1.31317">
        <ele>185.8</ele>
        <time>2025-12-19T11:31:35Z</time>
      </trkpt>
      <trkpt lat="43.59257" lon="1.31323">
        <ele>185.8</ele>
        <time>2025-12-19T11:31:36Z</time>
      </trkpt>
      <trkpt lat="43.59263" lon="1.31328">
        <ele>185.8</ele>
        <time>2025-12-19T11:31:37Z</time>
      </trkpt>
      <trkpt lat="43.59268" lon="1.31334">
        <ele>185.8</ele>
        <time>2025-12-19T11:31:38Z</time>
      </trkpt>
      <trkpt lat="43.59274" lon="1.31339">
        <ele>185.8</ele>
        <time>2025-12-19T11:31:39Z</time>
      </trkpt>
      <trkpt lat="43.5928" lon="1.31345">
        <ele>186</ele>
        <time>2025-12-19T11:31:40Z</time>
      </trkpt>
      <trkpt lat="43.59285" lon="1.3135">
        <ele>186</ele>
        <time>2025-12-19T11:31:41Z</time>
      </trkpt>
      <trkpt lat="43.59291" lon="1.31355">
        <ele>186.2</ele>
        <time>2025-12-19T11:31:42Z</time>
      </trkpt>
      <trkpt lat="43.59295" lon="1.31362">
        <ele>186.2</ele>
        <time>2025-12-19T11:31:43Z</time>
      </trkpt>
      <trkpt lat="43.59298" lon="1.31371">
        <ele>186.2</ele>
        <time>2025-12-19T11:31:44Z</time>
      </trkpt>
      <trkpt lat="43.59301" lon="1.31379">
        <ele>186</ele>
        <time>2025-12-19T11:31:45Z</time>
      </trkpt>
      <trkpt lat="43.59304" lon="1.31388">
        <ele>186.2</ele>
        <time>2025-12-19T11:31:46Z</time>
      </trkpt>
      <trkpt lat="43.59306" lon="1.31396">
        <ele>186.2</ele>
        <time>2025-12-19T11:31:47Z</time>
      </trkpt>
      <trkpt lat="43.59308" lon="1.31406">
        <ele>186.2</ele>
        <time>2025-12-19T11:31:48Z</time>
      </trkpt>
      <trkpt lat="43.59309" lon="1.31416">
        <ele>186.2</ele>
        <time>2025-12-19T11:31:49Z</time>
      </trkpt>
      <trkpt lat="43.59309" lon="1.31425">
        <ele>186.2</ele>
        <time>2025-12-19T11:31:50Z</time>
      </trkpt>
      <trkpt lat="43.59308" lon="1.31435">
        <ele>186.2</ele>
        <time>2025-12-19T11:31:51Z</time>
      </trkpt>
      <trkpt lat="43.59306" lon="1.31444">
        <ele>186.2</ele>
        <time>2025-12-19T11:31:52Z</time>
      </trkpt>
      <trkpt lat="43.59304" lon="1.31453">
        <ele>186.2</ele>
        <time>2025-12-19T11:31:53Z</time>
      </trkpt>
      <trkpt lat="43.59301" lon="1.31463">
        <ele>186.2</ele>
        <time>2025-12-19T11:31:54Z</time>
      </trkpt>
      <trkpt lat="43.59299" lon="1.31473">
        <ele>186</ele>
        <time>2025-12-19T11:31:55Z</time>
      </trkpt>
      <trkpt lat="43.59297" lon="1.31482">
        <ele>186</ele>
        <time>2025-12-19T11:31:56Z</time>
      </trkpt>
      <trkpt lat="43.59294" lon="1.31492">
        <ele>185.8</ele>
        <time>2025-12-19T11:31:57Z</time>
      </trkpt>
      <trkpt lat="43.59294" lon="1.31502">
        <ele>185.8</ele>
        <time>2025-12-19T11:31:58Z</time>
      </trkpt>
      <trkpt lat="43.59295" lon="1.31511">
        <ele>185.8</ele>
        <time>2025-12-19T11:31:59Z</time>
      </trkpt>
      <trkpt lat="43.59295" lon="1.3152">
        <ele>185.6</ele>
        <time>2025-12-19T11:32:00Z</time>
      </trkpt>
      <trkpt lat="43.59292" lon="1.31529">
        <ele>185.6</ele>
        <time>2025-12-19T11:32:01Z</time>
      </trkpt>
      <trkpt lat="43.59287" lon="1.31534">
        <ele>185.6</ele>
        <time>2025-12-19T11:32:02Z</time>
      </trkpt>
      <trkpt lat="43.59282" lon="1.31537">
        <ele>185.6</ele>
        <time>2025-12-19T11:32:03Z</time>
      </trkpt>
      <trkpt lat="43.59275" lon="1.3154">
        <ele>185.6</ele>
        <time>2025-12-19T11:32:04Z</time>
      </trkpt>
      <trkpt lat="43.59269" lon="1.31543">
        <ele>185.8</ele>
        <time>2025-12-19T11:32:05Z</time>
      </trkpt>
      <trkpt lat="43.59263" lon="1.31546">
        <ele>185.8</ele>
        <time>2025-12-19T11:32:06Z</time>
      </trkpt>
      <trkpt lat="43.59256" lon="1.31549">
        <ele>185.6</ele>
        <time>2025-12-19T11:32:07Z</time>
      </trkpt>
      <trkpt lat="43.5925" lon="1.31552">
        <ele>185.6</ele>
        <time>2025-12-19T11:32:08Z</time>
      </trkpt>
      <trkpt lat="43.59243" lon="1.31556">
        <ele>185.6</ele>
        <time>2025-12-19T11:32:09Z</time>
      </trkpt>
      <trkpt lat="43.59236" lon="1.3156">
        <ele>185.6</ele>
        <time>2025-12-19T11:32:10Z</time>
      </trkpt>
      <trkpt lat="43.5923" lon="1.31564">
        <ele>185.6</ele>
        <time>2025-12-19T11:32:11Z</time>
      </trkpt>
      <trkpt lat="43.59223" lon="1.31567">
        <ele>185.6</ele>
        <time>2025-12-19T11:32:12Z</time>
      </trkpt>
      <trkpt lat="43.59216" lon="1.31571">
        <ele>185.4</ele>
        <time>2025-12-19T11:32:13Z</time>
      </trkpt>
      <trkpt lat="43.5921" lon="1.31574">
        <ele>185.4</ele>
        <time>2025-12-19T11:32:14Z</time>
      </trkpt>
      <trkpt lat="43.59203" lon="1.31578">
        <ele>185.2</ele>
        <time>2025-12-19T11:32:15Z</time>
      </trkpt>
      <trkpt lat="43.59196" lon="1.31582">
        <ele>185.4</ele>
        <time>2025-12-19T11:32:16Z</time>
      </trkpt>
      <trkpt lat="43.59189" lon="1.31586">
        <ele>185.4</ele>
        <time>2025-12-19T11:32:17Z</time>
      </trkpt>
      <trkpt lat="43.59182" lon="1.3159">
        <ele>185.4</ele>
        <time>2025-12-19T11:32:18Z</time>
      </trkpt>
      <trkpt lat="43.59175" lon="1.31594">
        <ele>185.4</ele>
        <time>2025-12-19T11:32:19Z</time>
      </trkpt>
      <trkpt lat="43.59168" lon="1.31599">
        <ele>185.2</ele>
        <time>2025-12-19T11:32:20Z</time>
      </trkpt>
      <trkpt lat="43.59161" lon="1.31603">
        <ele>185.2</ele>
        <time>2025-12-19T11:32:21Z</time>
      </trkpt>
      <trkpt lat="43.59154" lon="1.31606">
        <ele>185.2</ele>
        <time>2025-12-19T11:32:22Z</time>
      </trkpt>
      <trkpt lat="43.59148" lon="1.3161">
        <ele>185.2</ele>
        <time>2025-12-19T11:32:23Z</time>
      </trkpt>
      <trkpt lat="43.59142" lon="1.31613">
        <ele>185.2</ele>
        <time>2025-12-19T11:32:24Z</time>
      </trkpt>
      <trkpt lat="43.59136" lon="1.31617">
        <ele>185.2</ele>
        <time>2025-12-19T11:32:25Z</time>
      </trkpt>
      <trkpt lat="43.59129" lon="1.3162">
        <ele>185.2</ele>
        <time>2025-12-19T11:32:26Z</time>
      </trkpt>
      <trkpt lat="43.59123" lon="1.31624">
        <ele>185.2</ele>
        <time>2025-12-19T11:32:27Z</time>
      </trkpt>
      <trkpt lat="43.59117" lon="1.31627">
        <ele>185.4</ele>
        <time>2025-12-19T11:32:28Z</time>
      </trkpt>
      <trkpt lat="43.59111" lon="1.31631">
        <ele>185.6</ele>
        <time>2025-12-19T11:32:29Z</time>
      </trkpt>
      <trkpt lat="43.59104" lon="1.31634">
        <ele>185.6</ele>
        <time>2025-12-19T11:32:30Z</time>
      </trkpt>
      <trkpt lat="43.59098" lon="1.31638">
        <ele>185.6</ele>
        <time>2025-12-19T11:32:31Z</time>
      </trkpt>
      <trkpt lat="43.59091" lon="1.31641">
        <ele>185.6</ele>
        <time>2025-12-19T11:32:32Z</time>
      </trkpt>
      <trkpt lat="43.59084" lon="1.31645">
        <ele>185.4</ele>
        <time>2025-12-19T11:32:33Z</time>
      </trkpt>
      <trkpt lat="43.59077" lon="1.3165">
        <ele>185.4</ele>
        <time>2025-12-19T11:32:34Z</time>
      </trkpt>
      <trkpt lat="43.5907" lon="1.31654">
        <ele>185.4</ele>
        <time>2025-12-19T11:32:35Z</time>
      </trkpt>
      <trkpt lat="43.59063" lon="1.31657">
        <ele>185.4</ele>
        <time>2025-12-19T11:32:36Z</time>
      </trkpt>
      <trkpt lat="43.59057" lon="1.31661">
        <ele>185.4</ele>
        <time>2025-12-19T11:32:37Z</time>
      </trkpt>
      <trkpt lat="43.5905" lon="1.31665">
        <ele>185.6</ele>
        <time>2025-12-19T11:32:38Z</time>
      </trkpt>
      <trkpt lat="43.59043" lon="1.31669">
        <ele>185.6</ele>
        <time>2025-12-19T11:32:39Z</time>
      </trkpt>
      <trkpt lat="43.59037" lon="1.31672">
        <ele>185.6</ele>
        <time>2025-12-19T11:32:40Z</time>
      </trkpt>
      <trkpt lat="43.5903" lon="1.31675">
        <ele>185.6</ele>
        <time>2025-12-19T11:32:41Z</time>
      </trkpt>
      <trkpt lat="43.59023" lon="1.31679">
        <ele>185.6</ele>
        <time>2025-12-19T11:32:42Z</time>
      </trkpt>
      <trkpt lat="43.59017" lon="1.31683">
        <ele>185.8</ele>
        <time>2025-12-19T11:32:43Z</time>
      </trkpt>
      <trkpt lat="43.59011" lon="1.31686">
        <ele>185.8</ele>
        <time>2025-12-19T11:32:44Z</time>
      </trkpt>
      <trkpt lat="43.59005" lon="1.31689">
        <ele>186</ele>
        <time>2025-12-19T11:32:45Z</time>
      </trkpt>
      <trkpt lat="43.58998" lon="1.31693">
        <ele>186</ele>
        <time>2025-12-19T11:32:46Z</time>
      </trkpt>
      <trkpt lat="43.58992" lon="1.31697">
        <ele>186</ele>
        <time>2025-12-19T11:32:47Z</time>
      </trkpt>
      <trkpt lat="43.58986" lon="1.31701">
        <ele>186</ele>
        <time>2025-12-19T11:32:48Z</time>
      </trkpt>
      <trkpt lat="43.5898" lon="1.31704">
        <ele>186</ele>
        <time>2025-12-19T11:32:49Z</time>
      </trkpt>
      <trkpt lat="43.58973" lon="1.31708">
        <ele>186</ele>
        <time>2025-12-19T11:32:50Z</time>
      </trkpt>
      <trkpt lat="43.58967" lon="1.31711">
        <ele>186.2</ele>
        <time>2025-12-19T11:32:51Z</time>
      </trkpt>
      <trkpt lat="43.58961" lon="1.31715">
        <ele>186.2</ele>
        <time>2025-12-19T11:32:52Z</time>
      </trkpt>
      <trkpt lat="43.58954" lon="1.31718">
        <ele>186.2</ele>
        <time>2025-12-19T11:32:53Z</time>
      </trkpt>
      <trkpt lat="43.58947" lon="1.31722">
        <ele>186.2</ele>
        <time>2025-12-19T11:32:54Z</time>
      </trkpt>
      <trkpt lat="43.58941" lon="1.31725">
        <ele>186.2</ele>
        <time>2025-12-19T11:32:55Z</time>
      </trkpt>
      <trkpt lat="43.58934" lon="1.31729">
        <ele>186</ele>
        <time>2025-12-19T11:32:56Z</time>
      </trkpt>
      <trkpt lat="43.58928" lon="1.31732">
        <ele>186</ele>
        <time>2025-12-19T11:32:57Z</time>
      </trkpt>
      <trkpt lat="43.58921" lon="1.31736">
        <ele>186</ele>
        <time>2025-12-19T11:32:58Z</time>
      </trkpt>
      <trkpt lat="43.58915" lon="1.3174">
        <ele>186</ele>
        <time>2025-12-19T11:32:59Z</time>
      </trkpt>
      <trkpt lat="43.58908" lon="1.31744">
        <ele>185.8</ele>
        <time>2025-12-19T11:33:00Z</time>
      </trkpt>
      <trkpt lat="43.58902" lon="1.31747">
        <ele>185.8</ele>
        <time>2025-12-19T11:33:01Z</time>
      </trkpt>
      <trkpt lat="43.58896" lon="1.31751">
        <ele>185.8</ele>
        <time>2025-12-19T11:33:02Z</time>
      </trkpt>
      <trkpt lat="43.58891" lon="1.31753">
        <ele>186</ele>
        <time>2025-12-19T11:33:03Z</time>
      </trkpt>
      <trkpt lat="43.58887" lon="1.31755">
        <ele>186</ele>
        <time>2025-12-19T11:33:04Z</time>
      </trkpt>
      <trkpt lat="43.58882" lon="1.31758">
        <ele>186.2</ele>
        <time>2025-12-19T11:33:05Z</time>
      </trkpt>
      <trkpt lat="43.58878" lon="1.31759">
        <ele>186.2</ele>
        <time>2025-12-19T11:33:06Z</time>
      </trkpt>
      <trkpt lat="43.58873" lon="1.31759">
        <ele>186.4</ele>
        <time>2025-12-19T11:33:07Z</time>
      </trkpt>
      <trkpt lat="43.58868" lon="1.31756">
        <ele>186.4</ele>
        <time>2025-12-19T11:33:08Z</time>
      </trkpt>
      <trkpt lat="43.58864" lon="1.31752">
        <ele>186.2</ele>
        <time>2025-12-19T11:33:09Z</time>
      </trkpt>
      <trkpt lat="43.58859" lon="1.31747">
        <ele>186.2</ele>
        <time>2025-12-19T11:33:10Z</time>
      </trkpt>
      <trkpt lat="43.58855" lon="1.31741">
        <ele>186.2</ele>
        <time>2025-12-19T11:33:11Z</time>
      </trkpt>
      <trkpt lat="43.5885" lon="1.31736">
        <ele>186.2</ele>
        <time>2025-12-19T11:33:12Z</time>
      </trkpt>
      <trkpt lat="43.58845" lon="1.3173">
        <ele>186</ele>
        <time>2025-12-19T11:33:13Z</time>
      </trkpt>
      <trkpt lat="43.58841" lon="1.31724">
        <ele>186.2</ele>
        <time>2025-12-19T11:33:14Z</time>
      </trkpt>
      <trkpt lat="43.58836" lon="1.31718">
        <ele>186</ele>
        <time>2025-12-19T11:33:15Z</time>
      </trkpt>
      <trkpt lat="43.58831" lon="1.31712">
        <ele>186</ele>
        <time>2025-12-19T11:33:16Z</time>
      </trkpt>
      <trkpt lat="43.58826" lon="1.31706">
        <ele>186</ele>
        <time>2025-12-19T11:33:17Z</time>
      </trkpt>
      <trkpt lat="43.58822" lon="1.317">
        <ele>185.8</ele>
        <time>2025-12-19T11:33:18Z</time>
      </trkpt>
      <trkpt lat="43.58817" lon="1.31694">
        <ele>185.8</ele>
        <time>2025-12-19T11:33:19Z</time>
      </trkpt>
      <trkpt lat="43.58812" lon="1.31687">
        <ele>185.8</ele>
        <time>2025-12-19T11:33:20Z</time>
      </trkpt>
      <trkpt lat="43.58807" lon="1.31681">
        <ele>185.8</ele>
        <time>2025-12-19T11:33:21Z</time>
      </trkpt>
      <trkpt lat="43.58801" lon="1.31675">
        <ele>186</ele>
        <time>2025-12-19T11:33:22Z</time>
      </trkpt>
      <trkpt lat="43.58797" lon="1.31668">
        <ele>186</ele>
        <time>2025-12-19T11:33:23Z</time>
      </trkpt>
      <trkpt lat="43.58792" lon="1.31663">
        <ele>185.8</ele>
        <time>2025-12-19T11:33:24Z</time>
      </trkpt>
      <trkpt lat="43.58786" lon="1.31657">
        <ele>186</ele>
        <time>2025-12-19T11:33:25Z</time>
      </trkpt>
      <trkpt lat="43.58781" lon="1.31651">
        <ele>186</ele>
        <time>2025-12-19T11:33:26Z</time>
      </trkpt>
      <trkpt lat="43.58776" lon="1.31645">
        <ele>186</ele>
        <time>2025-12-19T11:33:27Z</time>
      </trkpt>
      <trkpt lat="43.58771" lon="1.31639">
        <ele>186</ele>
        <time>2025-12-19T11:33:28Z</time>
      </trkpt>
      <trkpt lat="43.58765" lon="1.31633">
        <ele>186</ele>
        <time>2025-12-19T11:33:29Z</time>
      </trkpt>
      <trkpt lat="43.5876" lon="1.31627">
        <ele>186</ele>
        <time>2025-12-19T11:33:30Z</time>
      </trkpt>
      <trkpt lat="43.58755" lon="1.31621">
        <ele>186</ele>
        <time>2025-12-19T11:33:31Z</time>
      </trkpt>
      <trkpt lat="43.58749" lon="1.31616">
        <ele>186</ele>
        <time>2025-12-19T11:33:32Z</time>
      </trkpt>
      <trkpt lat="43.58744" lon="1.3161">
        <ele>186</ele>
        <time>2025-12-19T11:33:33Z</time>
      </trkpt>
      <trkpt lat="43.58738" lon="1.31605">
        <ele>186</ele>
        <time>2025-12-19T11:33:34Z</time>
      </trkpt>
      <trkpt lat="43.58733" lon="1.31599">
        <ele>186</ele>
        <time>2025-12-19T11:33:35Z</time>
      </trkpt>
      <trkpt lat="43.58727" lon="1.31593">
        <ele>186</ele>
        <time>2025-12-19T11:33:36Z</time>
      </trkpt>
      <trkpt lat="43.58722" lon="1.31588">
        <ele>186</ele>
        <time>2025-12-19T11:33:37Z</time>
      </trkpt>
      <trkpt lat="43.58716" lon="1.31582">
        <ele>186.2</ele>
        <time>2025-12-19T11:33:38Z</time>
      </trkpt>
      <trkpt lat="43.58711" lon="1.31577">
        <ele>186.2</ele>
        <time>2025-12-19T11:33:39Z</time>
      </trkpt>
      <trkpt lat="43.58706" lon="1.31571">
        <ele>186.2</ele>
        <time>2025-12-19T11:33:40Z</time>
      </trkpt>
      <trkpt lat="43.58701" lon="1.31567">
        <ele>186.4</ele>
        <time>2025-12-19T11:33:41Z</time>
      </trkpt>
      <trkpt lat="43.58696" lon="1.31562">
        <ele>186.4</ele>
        <time>2025-12-19T11:33:42Z</time>
      </trkpt>
      <trkpt lat="43.58692" lon="1.31557">
        <ele>186.4</ele>
        <time>2025-12-19T11:33:43Z</time>
      </trkpt>
      <trkpt lat="43.58687" lon="1.31554">
        <ele>186.6</ele>
        <time>2025-12-19T11:33:44Z</time>
      </trkpt>
      <trkpt lat="43.58682" lon="1.31553">
        <ele>186.6</ele>
        <time>2025-12-19T11:33:45Z</time>
      </trkpt>
      <trkpt lat="43.58679" lon="1.31555">
        <ele>186.8</ele>
        <time>2025-12-19T11:33:46Z</time>
      </trkpt>
      <trkpt lat="43.58676" lon="1.31559">
        <ele>187</ele>
        <time>2025-12-19T11:33:47Z</time>
      </trkpt>
      <trkpt lat="43.58674" lon="1.31566">
        <ele>187.2</ele>
        <time>2025-12-19T11:33:48Z</time>
      </trkpt>
      <trkpt lat="43.58673" lon="1.31571">
        <ele>187.2</ele>
        <time>2025-12-19T11:33:49Z</time>
      </trkpt>
      <trkpt lat="43.58672" lon="1.31578">
        <ele>187.2</ele>
        <time>2025-12-19T11:33:50Z</time>
      </trkpt>
      <trkpt lat="43.58672" lon="1.31585">
        <ele>187.2</ele>
        <time>2025-12-19T11:33:51Z</time>
      </trkpt>
      <trkpt lat="43.58671" lon="1.31593">
        <ele>187.2</ele>
        <time>2025-12-19T11:33:52Z</time>
      </trkpt>
      <trkpt lat="43.5867" lon="1.316">
        <ele>187.2</ele>
        <time>2025-12-19T11:33:53Z</time>
      </trkpt>
      <trkpt lat="43.58668" lon="1.31608">
        <ele>187.2</ele>
        <time>2025-12-19T11:33:54Z</time>
      </trkpt>
      <trkpt lat="43.58667" lon="1.31615">
        <ele>187</ele>
        <time>2025-12-19T11:33:55Z</time>
      </trkpt>
      <trkpt lat="43.58666" lon="1.31623">
        <ele>187</ele>
        <time>2025-12-19T11:33:56Z</time>
      </trkpt>
      <trkpt lat="43.58664" lon="1.31631">
        <ele>186.8</ele>
        <time>2025-12-19T11:33:57Z</time>
      </trkpt>
      <trkpt lat="43.58663" lon="1.31639">
        <ele>186.8</ele>
        <time>2025-12-19T11:33:58Z</time>
      </trkpt>
      <trkpt lat="43.58662" lon="1.31647">
        <ele>186.8</ele>
        <time>2025-12-19T11:33:59Z</time>
      </trkpt>
      <trkpt lat="43.58661" lon="1.31655">
        <ele>186.8</ele>
        <time>2025-12-19T11:34:00Z</time>
      </trkpt>
      <trkpt lat="43.5866" lon="1.31663">
        <ele>186.8</ele>
        <time>2025-12-19T11:34:01Z</time>
      </trkpt>
      <trkpt lat="43.58659" lon="1.31671">
        <ele>186.6</ele>
        <time>2025-12-19T11:34:02Z</time>
      </trkpt>
      <trkpt lat="43.58657" lon="1.31678">
        <ele>186.6</ele>
        <time>2025-12-19T11:34:03Z</time>
      </trkpt>
      <trkpt lat="43.58654" lon="1.31682">
        <ele>186.8</ele>
        <time>2025-12-19T11:34:04Z</time>
      </trkpt>
      <trkpt lat="43.5865" lon="1.31684">
        <ele>186.8</ele>
        <time>2025-12-19T11:34:05Z</time>
      </trkpt>
      <trkpt lat="43.58646" lon="1.31685">
        <ele>186.8</ele>
        <time>2025-12-19T11:34:06Z</time>
      </trkpt>
      <trkpt lat="43.58643" lon="1.31686">
        <ele>187</ele>
        <time>2025-12-19T11:34:07Z</time>
      </trkpt>
      <trkpt lat="43.58641" lon="1.31685">
        <ele>187</ele>
        <time>2025-12-19T11:34:08Z</time>
      </trkpt>
      <trkpt lat="43.58641" lon="1.31682">
        <ele>187</ele>
        <time>2025-12-19T11:34:09Z</time>
      </trkpt>
      <trkpt lat="43.58641" lon="1.31678">
        <ele>187</ele>
        <time>2025-12-19T11:34:10Z</time>
      </trkpt>
      <trkpt lat="43.5864" lon="1.31673">
        <ele>187</ele>
        <time>2025-12-19T11:34:11Z</time>
      </trkpt>
      <trkpt lat="43.5864" lon="1.31667">
        <ele>187</ele>
        <time>2025-12-19T11:34:12Z</time>
      </trkpt>
      <trkpt lat="43.5864" lon="1.31661">
        <ele>187</ele>
        <time>2025-12-19T11:34:13Z</time>
      </trkpt>
      <trkpt lat="43.58639" lon="1.31654">
        <ele>186.8</ele>
        <time>2025-12-19T11:34:14Z</time>
      </trkpt>
      <trkpt lat="43.58638" lon="1.31647">
        <ele>186.8</ele>
        <time>2025-12-19T11:34:15Z</time>
      </trkpt>
      <trkpt lat="43.58637" lon="1.3164">
        <ele>186.8</ele>
        <time>2025-12-19T11:34:16Z</time>
      </trkpt>
      <trkpt lat="43.58636" lon="1.31631">
        <ele>186.8</ele>
        <time>2025-12-19T11:34:17Z</time>
      </trkpt>
      <trkpt lat="43.58636" lon="1.31624">
        <ele>186.6</ele>
        <time>2025-12-19T11:34:18Z</time>
      </trkpt>
      <trkpt lat="43.58635" lon="1.31616">
        <ele>186.6</ele>
        <time>2025-12-19T11:34:19Z</time>
      </trkpt>
      <trkpt lat="43.58635" lon="1.31609">
        <ele>186.6</ele>
        <time>2025-12-19T11:34:20Z</time>
      </trkpt>
      <trkpt lat="43.58632" lon="1.31603">
        <ele>186.8</ele>
        <time>2025-12-19T11:34:21Z</time>
      </trkpt>
      <trkpt lat="43.58629" lon="1.31597">
        <ele>186.8</ele>
        <time>2025-12-19T11:34:22Z</time>
      </trkpt>
      <trkpt lat="43.58624" lon="1.31594">
        <ele>186.8</ele>
        <time>2025-12-19T11:34:23Z</time>
      </trkpt>
      <trkpt lat="43.58619" lon="1.31595">
        <ele>187</ele>
        <time>2025-12-19T11:34:24Z</time>
      </trkpt>
      <trkpt lat="43.58615" lon="1.31598">
        <ele>187</ele>
        <time>2025-12-19T11:34:25Z</time>
      </trkpt>
      <trkpt lat="43.58611" lon="1.31603">
        <ele>187</ele>
        <time>2025-12-19T11:34:26Z</time>
      </trkpt>
      <trkpt lat="43.58607" lon="1.31609">
        <ele>187</ele>
        <time>2025-12-19T11:34:27Z</time>
      </trkpt>
      <trkpt lat="43.58603" lon="1.31614">
        <ele>187</ele>
        <time>2025-12-19T11:34:28Z</time>
      </trkpt>
      <trkpt lat="43.58599" lon="1.3162">
        <ele>186.8</ele>
        <time>2025-12-19T11:34:29Z</time>
      </trkpt>
      <trkpt lat="43.58596" lon="1.31627">
        <ele>186.6</ele>
        <time>2025-12-19T11:34:30Z</time>
      </trkpt>
      <trkpt lat="43.58592" lon="1.31633">
        <ele>186.6</ele>
        <time>2025-12-19T11:34:31Z</time>
      </trkpt>
      <trkpt lat="43.58587" lon="1.31639">
        <ele>186.6</ele>
        <time>2025-12-19T11:34:32Z</time>
      </trkpt>
      <trkpt lat="43.58583" lon="1.31645">
        <ele>186.6</ele>
        <time>2025-12-19T11:34:33Z</time>
      </trkpt>
      <trkpt lat="43.58578" lon="1.31652">
        <ele>186.6</ele>
        <time>2025-12-19T11:34:34Z</time>
      </trkpt>
      <trkpt lat="43.58574" lon="1.31659">
        <ele>186.6</ele>
        <time>2025-12-19T11:34:35Z</time>
      </trkpt>
      <trkpt lat="43.58569" lon="1.31666">
        <ele>186.6</ele>
        <time>2025-12-19T11:34:36Z</time>
      </trkpt>
      <trkpt lat="43.58564" lon="1.31673">
        <ele>186.6</ele>
        <time>2025-12-19T11:34:37Z</time>
      </trkpt>
      <trkpt lat="43.5856" lon="1.31681">
        <ele>186.6</ele>
        <time>2025-12-19T11:34:38Z</time>
      </trkpt>
      <trkpt lat="43.58555" lon="1.31688">
        <ele>186.6</ele>
        <time>2025-12-19T11:34:39Z</time>
      </trkpt>
      <trkpt lat="43.5855" lon="1.31695">
        <ele>186.6</ele>
        <time>2025-12-19T11:34:40Z</time>
      </trkpt>
      <trkpt lat="43.58546" lon="1.31701">
        <ele>186.6</ele>
        <time>2025-12-19T11:34:41Z</time>
      </trkpt>
      <trkpt lat="43.58541" lon="1.31708">
        <ele>186.6</ele>
        <time>2025-12-19T11:34:42Z</time>
      </trkpt>
      <trkpt lat="43.58536" lon="1.31714">
        <ele>186.6</ele>
        <time>2025-12-19T11:34:43Z</time>
      </trkpt>
      <trkpt lat="43.58531" lon="1.31719">
        <ele>186.6</ele>
        <time>2025-12-19T11:34:44Z</time>
      </trkpt>
      <trkpt lat="43.58525" lon="1.31721">
        <ele>186.6</ele>
        <time>2025-12-19T11:34:45Z</time>
      </trkpt>
      <trkpt lat="43.58519" lon="1.31718">
        <ele>186.6</ele>
        <time>2025-12-19T11:34:46Z</time>
      </trkpt>
      <trkpt lat="43.58514" lon="1.31715">
        <ele>186.6</ele>
        <time>2025-12-19T11:34:47Z</time>
      </trkpt>
      <trkpt lat="43.58508" lon="1.31714">
        <ele>186.6</ele>
        <time>2025-12-19T11:34:48Z</time>
      </trkpt>
      <trkpt lat="43.58503" lon="1.31716">
        <ele>186.8</ele>
        <time>2025-12-19T11:34:49Z</time>
      </trkpt>
      <trkpt lat="43.585" lon="1.31722">
        <ele>186.8</ele>
        <time>2025-12-19T11:34:50Z</time>
      </trkpt>
      <trkpt lat="43.58496" lon="1.31729">
        <ele>186.6</ele>
        <time>2025-12-19T11:34:51Z</time>
      </trkpt>
      <trkpt lat="43.58493" lon="1.31736">
        <ele>186.8</ele>
        <time>2025-12-19T11:34:52Z</time>
      </trkpt>
      <trkpt lat="43.58489" lon="1.31743">
        <ele>186.8</ele>
        <time>2025-12-19T11:34:53Z</time>
      </trkpt>
      <trkpt lat="43.58484" lon="1.31745">
        <ele>186.8</ele>
        <time>2025-12-19T11:34:54Z</time>
      </trkpt>
      <trkpt lat="43.58479" lon="1.31745">
        <ele>186.8</ele>
        <time>2025-12-19T11:34:55Z</time>
      </trkpt>
      <trkpt lat="43.58474" lon="1.3174">
        <ele>186.8</ele>
        <time>2025-12-19T11:34:56Z</time>
      </trkpt>
      <trkpt lat="43.5847" lon="1.31735">
        <ele>187</ele>
        <time>2025-12-19T11:34:57Z</time>
      </trkpt>
      <trkpt lat="43.58466" lon="1.3173">
        <ele>187</ele>
        <time>2025-12-19T11:34:58Z</time>
      </trkpt>
      <trkpt lat="43.58461" lon="1.31726">
        <ele>187.2</ele>
        <time>2025-12-19T11:34:59Z</time>
      </trkpt>
      <trkpt lat="43.58457" lon="1.3172">
        <ele>187.2</ele>
        <time>2025-12-19T11:35:00Z</time>
      </trkpt>
      <trkpt lat="43.58452" lon="1.31715">
        <ele>187.2</ele>
        <time>2025-12-19T11:35:01Z</time>
      </trkpt>
      <trkpt lat="43.58447" lon="1.31709">
        <ele>187.2</ele>
        <time>2025-12-19T11:35:02Z</time>
      </trkpt>
      <trkpt lat="43.58442" lon="1.31703">
        <ele>187</ele>
        <time>2025-12-19T11:35:03Z</time>
      </trkpt>
      <trkpt lat="43.58437" lon="1.31697">
        <ele>187</ele>
        <time>2025-12-19T11:35:04Z</time>
      </trkpt>
      <trkpt lat="43.58432" lon="1.31692">
        <ele>187</ele>
        <time>2025-12-19T11:35:05Z</time>
      </trkpt>
      <trkpt lat="43.58428" lon="1.31686">
        <ele>187</ele>
        <time>2025-12-19T11:35:06Z</time>
      </trkpt>
      <trkpt lat="43.58423" lon="1.3168">
        <ele>186.8</ele>
        <time>2025-12-19T11:35:07Z</time>
      </trkpt>
      <trkpt lat="43.58418" lon="1.31674">
        <ele>186.8</ele>
        <time>2025-12-19T11:35:08Z</time>
      </trkpt>
      <trkpt lat="43.58415" lon="1.31668">
        <ele>186.6</ele>
        <time>2025-12-19T11:35:09Z</time>
      </trkpt>
      <trkpt lat="43.58411" lon="1.31664">
        <ele>186.6</ele>
        <time>2025-12-19T11:35:10Z</time>
      </trkpt>
      <trkpt lat="43.58407" lon="1.3166">
        <ele>186.4</ele>
        <time>2025-12-19T11:35:11Z</time>
      </trkpt>
      <trkpt lat="43.58404" lon="1.31656">
        <ele>186.2</ele>
        <time>2025-12-19T11:35:12Z</time>
      </trkpt>
      <trkpt lat="43.58402" lon="1.31653">
        <ele>186.2</ele>
        <time>2025-12-19T11:35:13Z</time>
      </trkpt>
      <trkpt lat="43.584" lon="1.31654">
        <ele>186.2</ele>
        <time>2025-12-19T11:35:14Z</time>
      </trkpt>
      <trkpt lat="43.58398" lon="1.31653">
        <ele>186.2</ele>
        <time>2025-12-19T11:35:15Z</time>
      </trkpt>
      <trkpt lat="43.58396" lon="1.3165">
        <ele>186</ele>
        <time>2025-12-19T11:35:16Z</time>
      </trkpt>
      <trkpt lat="43.58393" lon="1.31647">
        <ele>186</ele>
        <time>2025-12-19T11:35:17Z</time>
      </trkpt>
      <trkpt lat="43.5839" lon="1.31644">
        <ele>185.8</ele>
        <time>2025-12-19T11:35:18Z</time>
      </trkpt>
      <trkpt lat="43.58387" lon="1.31641">
        <ele>185.6</ele>
        <time>2025-12-19T11:35:19Z</time>
      </trkpt>
      <trkpt lat="43.58382" lon="1.31637">
        <ele>185</ele>
        <time>2025-12-19T11:35:20Z</time>
      </trkpt>
      <trkpt lat="43.58378" lon="1.31632">
        <ele>184.6</ele>
        <time>2025-12-19T11:35:21Z</time>
      </trkpt>
      <trkpt lat="43.58373" lon="1.31627">
        <ele>184.2</ele>
        <time>2025-12-19T11:35:22Z</time>
      </trkpt>
      <trkpt lat="43.58367" lon="1.31621">
        <ele>183.6</ele>
        <time>2025-12-19T11:35:23Z</time>
      </trkpt>
      <trkpt lat="43.58362" lon="1.31615">
        <ele>182.8</ele>
        <time>2025-12-19T11:35:24Z</time>
      </trkpt>
      <trkpt lat="43.58356" lon="1.31609">
        <ele>182</ele>
        <time>2025-12-19T11:35:25Z</time>
      </trkpt>
      <trkpt lat="43.5835" lon="1.31603">
        <ele>181.2</ele>
        <time>2025-12-19T11:35:26Z</time>
      </trkpt>
      <trkpt lat="43.58344" lon="1.31597">
        <ele>180.2</ele>
        <time>2025-12-19T11:35:27Z</time>
      </trkpt>
      <trkpt lat="43.58338" lon="1.31592">
        <ele>179</ele>
        <time>2025-12-19T11:35:28Z</time>
      </trkpt>
      <trkpt lat="43.58332" lon="1.31587">
        <ele>178</ele>
        <time>2025-12-19T11:35:29Z</time>
      </trkpt>
      <trkpt lat="43.58327" lon="1.31582">
        <ele>176.8</ele>
        <time>2025-12-19T11:35:30Z</time>
      </trkpt>
      <trkpt lat="43.58323" lon="1.31577">
        <ele>176</ele>
        <time>2025-12-19T11:35:31Z</time>
      </trkpt>
      <trkpt lat="43.5832" lon="1.31574">
        <ele>175.2</ele>
        <time>2025-12-19T11:35:32Z</time>
      </trkpt>
      <trkpt lat="43.58317" lon="1.31572">
        <ele>174.4</ele>
        <time>2025-12-19T11:35:33Z</time>
      </trkpt>
      <trkpt lat="43.58314" lon="1.31573">
        <ele>173.8</ele>
        <time>2025-12-19T11:35:34Z</time>
      </trkpt>
      <trkpt lat="43.58311" lon="1.3157">
        <ele>173.2</ele>
        <time>2025-12-19T11:35:35Z</time>
      </trkpt>
      <trkpt lat="43.58307" lon="1.31566">
        <ele>173</ele>
        <time>2025-12-19T11:35:36Z</time>
      </trkpt>
      <trkpt lat="43.58303" lon="1.31561">
        <ele>172.4</ele>
        <time>2025-12-19T11:35:37Z</time>
      </trkpt>
      <trkpt lat="43.58298" lon="1.31556">
        <ele>172</ele>
        <time>2025-12-19T11:35:38Z</time>
      </trkpt>
      <trkpt lat="43.58292" lon="1.3155">
        <ele>171.8</ele>
        <time>2025-12-19T11:35:39Z</time>
      </trkpt>
      <trkpt lat="43.58287" lon="1.31545">
        <ele>171.2</ele>
        <time>2025-12-19T11:35:40Z</time>
      </trkpt>
      <trkpt lat="43.58281" lon="1.31539">
        <ele>170.8</ele>
        <time>2025-12-19T11:35:41Z</time>
      </trkpt>
      <trkpt lat="43.58276" lon="1.31534">
        <ele>170.4</ele>
        <time>2025-12-19T11:35:42Z</time>
      </trkpt>
      <trkpt lat="43.5827" lon="1.31528">
        <ele>169.8</ele>
        <time>2025-12-19T11:35:43Z</time>
      </trkpt>
      <trkpt lat="43.58263" lon="1.31524">
        <ele>169.2</ele>
        <time>2025-12-19T11:35:44Z</time>
      </trkpt>
      <trkpt lat="43.58257" lon="1.31519">
        <ele>168.8</ele>
        <time>2025-12-19T11:35:45Z</time>
      </trkpt>
      <trkpt lat="43.58252" lon="1.31513">
        <ele>168.4</ele>
        <time>2025-12-19T11:35:46Z</time>
      </trkpt>
      <trkpt lat="43.58247" lon="1.31507">
        <ele>168.2</ele>
        <time>2025-12-19T11:35:47Z</time>
      </trkpt>
      <trkpt lat="43.58241" lon="1.31503">
        <ele>168</ele>
        <time>2025-12-19T11:35:48Z</time>
      </trkpt>
      <trkpt lat="43.58234" lon="1.31502">
        <ele>167.8</ele>
        <time>2025-12-19T11:35:49Z</time>
      </trkpt>
      <trkpt lat="43.58228" lon="1.31506">
        <ele>167.6</ele>
        <time>2025-12-19T11:35:50Z</time>
      </trkpt>
      <trkpt lat="43.58222" lon="1.31511">
        <ele>167.2</ele>
        <time>2025-12-19T11:35:51Z</time>
      </trkpt>
      <trkpt lat="43.58217" lon="1.31519">
        <ele>166.8</ele>
        <time>2025-12-19T11:35:52Z</time>
      </trkpt>
      <trkpt lat="43.58212" lon="1.31526">
        <ele>166.6</ele>
        <time>2025-12-19T11:35:53Z</time>
      </trkpt>
      <trkpt lat="43.58207" lon="1.31533">
        <ele>166.2</ele>
        <time>2025-12-19T11:35:54Z</time>
      </trkpt>
      <trkpt lat="43.58202" lon="1.31541">
        <ele>166</ele>
        <time>2025-12-19T11:35:55Z</time>
      </trkpt>
      <trkpt lat="43.58199" lon="1.31551">
        <ele>165.6</ele>
        <time>2025-12-19T11:35:56Z</time>
      </trkpt>
      <trkpt lat="43.58199" lon="1.31561">
        <ele>165.4</ele>
        <time>2025-12-19T11:35:57Z</time>
      </trkpt>
      <trkpt lat="43.58202" lon="1.3157">
        <ele>165.2</ele>
        <time>2025-12-19T11:35:58Z</time>
      </trkpt>
      <trkpt lat="43.58207" lon="1.31578">
        <ele>165</ele>
        <time>2025-12-19T11:35:59Z</time>
      </trkpt>
      <trkpt lat="43.58211" lon="1.31585">
        <ele>165</ele>
        <time>2025-12-19T11:36:00Z</time>
      </trkpt>
      <trkpt lat="43.58216" lon="1.31594">
        <ele>165</ele>
        <time>2025-12-19T11:36:01Z</time>
      </trkpt>
      <trkpt lat="43.58219" lon="1.31602">
        <ele>165</ele>
        <time>2025-12-19T11:36:02Z</time>
      </trkpt>
      <trkpt lat="43.58223" lon="1.3161">
        <ele>165</ele>
        <time>2025-12-19T11:36:03Z</time>
      </trkpt>
      <trkpt lat="43.58228" lon="1.31619">
        <ele>165</ele>
        <time>2025-12-19T11:36:04Z</time>
      </trkpt>
      <trkpt lat="43.58232" lon="1.31627">
        <ele>165</ele>
        <time>2025-12-19T11:36:05Z</time>
      </trkpt>
      <trkpt lat="43.58235" lon="1.31635">
        <ele>165</ele>
        <time>2025-12-19T11:36:06Z</time>
      </trkpt>
      <trkpt lat="43.58239" lon="1.31644">
        <ele>165</ele>
        <time>2025-12-19T11:36:07Z</time>
      </trkpt>
      <trkpt lat="43.58243" lon="1.31652">
        <ele>165</ele>
        <time>2025-12-19T11:36:08Z</time>
      </trkpt>
      <trkpt lat="43.58247" lon="1.31661">
        <ele>165</ele>
        <time>2025-12-19T11:36:09Z</time>
      </trkpt>
      <trkpt lat="43.58252" lon="1.31669">
        <ele>165</ele>
        <time>2025-12-19T11:36:10Z</time>
      </trkpt>
      <trkpt lat="43.58257" lon="1.31677">
        <ele>165</ele>
        <time>2025-12-19T11:36:11Z</time>
      </trkpt>
      <trkpt lat="43.5826" lon="1.31686">
        <ele>165</ele>
        <time>2025-12-19T11:36:12Z</time>
      </trkpt>
      <trkpt lat="43.58263" lon="1.31696">
        <ele>165</ele>
        <time>2025-12-19T11:36:13Z</time>
      </trkpt>
      <trkpt lat="43.58264" lon="1.31707">
        <ele>165</ele>
        <time>2025-12-19T11:36:14Z</time>
      </trkpt>
      <trkpt lat="43.58263" lon="1.31717">
        <ele>164.8</ele>
        <time>2025-12-19T11:36:15Z</time>
      </trkpt>
      <trkpt lat="43.58259" lon="1.31726">
        <ele>164.8</ele>
        <time>2025-12-19T11:36:16Z</time>
      </trkpt>
      <trkpt lat="43.58254" lon="1.31735">
        <ele>164.6</ele>
        <time>2025-12-19T11:36:17Z</time>
      </trkpt>
      <trkpt lat="43.5825" lon="1.31744">
        <ele>164.4</ele>
        <time>2025-12-19T11:36:18Z</time>
      </trkpt>
      <trkpt lat="43.58245" lon="1.31754">
        <ele>164.2</ele>
        <time>2025-12-19T11:36:19Z</time>
      </trkpt>
      <trkpt lat="43.5824" lon="1.31761">
        <ele>164.2</ele>
        <time>2025-12-19T11:36:20Z</time>
      </trkpt>
      <trkpt lat="43.58234" lon="1.31767">
        <ele>164.2</ele>
        <time>2025-12-19T11:36:21Z</time>
      </trkpt>
      <trkpt lat="43.58231" lon="1.31776">
        <ele>164</ele>
        <time>2025-12-19T11:36:22Z</time>
      </trkpt>
      <trkpt lat="43.58232" lon="1.31785">
        <ele>164</ele>
        <time>2025-12-19T11:36:23Z</time>
      </trkpt>
      <trkpt lat="43.58236" lon="1.3179">
        <ele>164</ele>
        <time>2025-12-19T11:36:24Z</time>
      </trkpt>
      <trkpt lat="43.58242" lon="1.31792">
        <ele>164</ele>
        <time>2025-12-19T11:36:25Z</time>
      </trkpt>
      <trkpt lat="43.58247" lon="1.31797">
        <ele>164</ele>
        <time>2025-12-19T11:36:26Z</time>
      </trkpt>
      <trkpt lat="43.5825" lon="1.31802">
        <ele>163.8</ele>
        <time>2025-12-19T11:36:27Z</time>
      </trkpt>
      <trkpt lat="43.58255" lon="1.31808">
        <ele>163.8</ele>
        <time>2025-12-19T11:36:28Z</time>
      </trkpt>
      <trkpt lat="43.58259" lon="1.31815">
        <ele>163.8</ele>
        <time>2025-12-19T11:36:29Z</time>
      </trkpt>
      <trkpt lat="43.58264" lon="1.31821">
        <ele>163.8</ele>
        <time>2025-12-19T11:36:30Z</time>
      </trkpt>
      <trkpt lat="43.58268" lon="1.31829">
        <ele>163.8</ele>
        <time>2025-12-19T11:36:31Z</time>
      </trkpt>
      <trkpt lat="43.58272" lon="1.31836">
        <ele>163.8</ele>
        <time>2025-12-19T11:36:32Z</time>
      </trkpt>
      <trkpt lat="43.58277" lon="1.31842">
        <ele>163.8</ele>
        <time>2025-12-19T11:36:33Z</time>
      </trkpt>
      <trkpt lat="43.5828" lon="1.3185">
        <ele>164</ele>
        <time>2025-12-19T11:36:34Z</time>
      </trkpt>
      <trkpt lat="43.58283" lon="1.31858">
        <ele>163.8</ele>
        <time>2025-12-19T11:36:35Z</time>
      </trkpt>
      <trkpt lat="43.58287" lon="1.31866">
        <ele>163.8</ele>
        <time>2025-12-19T11:36:36Z</time>
      </trkpt>
      <trkpt lat="43.58291" lon="1.31874">
        <ele>164</ele>
        <time>2025-12-19T11:36:37Z</time>
      </trkpt>
      <trkpt lat="43.58293" lon="1.31883">
        <ele>164</ele>
        <time>2025-12-19T11:36:38Z</time>
      </trkpt>
      <trkpt lat="43.58297" lon="1.31891">
        <ele>164</ele>
        <time>2025-12-19T11:36:39Z</time>
      </trkpt>
      <trkpt lat="43.583" lon="1.31899">
        <ele>164</ele>
        <time>2025-12-19T11:36:40Z</time>
      </trkpt>
      <trkpt lat="43.58303" lon="1.31908">
        <ele>164</ele>
        <time>2025-12-19T11:36:41Z</time>
      </trkpt>
      <trkpt lat="43.58307" lon="1.31916">
        <ele>164</ele>
        <time>2025-12-19T11:36:42Z</time>
      </trkpt>
      <trkpt lat="43.5831" lon="1.31924">
        <ele>164</ele>
        <time>2025-12-19T11:36:43Z</time>
      </trkpt>
      <trkpt lat="43.58314" lon="1.31932">
        <ele>164.2</ele>
        <time>2025-12-19T11:36:44Z</time>
      </trkpt>
      <trkpt lat="43.58318" lon="1.3194">
        <ele>164.2</ele>
        <time>2025-12-19T11:36:45Z</time>
      </trkpt>
      <trkpt lat="43.58321" lon="1.31948">
        <ele>164.4</ele>
        <time>2025-12-19T11:36:46Z</time>
      </trkpt>
      <trkpt lat="43.58325" lon="1.31956">
        <ele>164.4</ele>
        <time>2025-12-19T11:36:47Z</time>
      </trkpt>
      <trkpt lat="43.58329" lon="1.31964">
        <ele>164.4</ele>
        <time>2025-12-19T11:36:48Z</time>
      </trkpt>
      <trkpt lat="43.58332" lon="1.31973">
        <ele>164.4</ele>
        <time>2025-12-19T11:36:49Z</time>
      </trkpt>
      <trkpt lat="43.58336" lon="1.31981">
        <ele>164.4</ele>
        <time>2025-12-19T11:36:50Z</time>
      </trkpt>
      <trkpt lat="43.58339" lon="1.31989">
        <ele>164.4</ele>
        <time>2025-12-19T11:36:51Z</time>
      </trkpt>
      <trkpt lat="43.58343" lon="1.31997">
        <ele>164.6</ele>
        <time>2025-12-19T11:36:52Z</time>
      </trkpt>
      <trkpt lat="43.58347" lon="1.32004">
        <ele>164.4</ele>
        <time>2025-12-19T11:36:53Z</time>
      </trkpt>
      <trkpt lat="43.58351" lon="1.32012">
        <ele>164.4</ele>
        <time>2025-12-19T11:36:54Z</time>
      </trkpt>
      <trkpt lat="43.58355" lon="1.3202">
        <ele>164.4</ele>
        <time>2025-12-19T11:36:55Z</time>
      </trkpt>
      <trkpt lat="43.58359" lon="1.32028">
        <ele>164.4</ele>
        <time>2025-12-19T11:36:56Z</time>
      </trkpt>
      <trkpt lat="43.58362" lon="1.32036">
        <ele>164.4</ele>
        <time>2025-12-19T11:36:57Z</time>
      </trkpt>
      <trkpt lat="43.58366" lon="1.32044">
        <ele>164.6</ele>
        <time>2025-12-19T11:36:58Z</time>
      </trkpt>
      <trkpt lat="43.58369" lon="1.32051">
        <ele>164.8</ele>
        <time>2025-12-19T11:36:59Z</time>
      </trkpt>
      <trkpt lat="43.58372" lon="1.3206">
        <ele>164.8</ele>
        <time>2025-12-19T11:37:00Z</time>
      </trkpt>
      <trkpt lat="43.58376" lon="1.32068">
        <ele>165</ele>
        <time>2025-12-19T11:37:01Z</time>
      </trkpt>
      <trkpt lat="43.58379" lon="1.32076">
        <ele>165.2</ele>
        <time>2025-12-19T11:37:02Z</time>
      </trkpt>
      <trkpt lat="43.58382" lon="1.32083">
        <ele>165.2</ele>
        <time>2025-12-19T11:37:03Z</time>
      </trkpt>
      <trkpt lat="43.58386" lon="1.32091">
        <ele>165.4</ele>
        <time>2025-12-19T11:37:04Z</time>
      </trkpt>
      <trkpt lat="43.58389" lon="1.32098">
        <ele>165.4</ele>
        <time>2025-12-19T11:37:05Z</time>
      </trkpt>
      <trkpt lat="43.58392" lon="1.32106">
        <ele>165.6</ele>
        <time>2025-12-19T11:37:06Z</time>
      </trkpt>
      <trkpt lat="43.58395" lon="1.32113">
        <ele>165.8</ele>
        <time>2025-12-19T11:37:07Z</time>
      </trkpt>
      <trkpt lat="43.58396" lon="1.3212">
        <ele>165.8</ele>
        <time>2025-12-19T11:37:08Z</time>
      </trkpt>
      <trkpt lat="43.58396" lon="1.32128">
        <ele>166.2</ele>
        <time>2025-12-19T11:37:09Z</time>
      </trkpt>
      <trkpt lat="43.58394" lon="1.32136">
        <ele>166.2</ele>
        <time>2025-12-19T11:37:10Z</time>
      </trkpt>
      <trkpt lat="43.58394" lon="1.32144">
        <ele>166.4</ele>
        <time>2025-12-19T11:37:11Z</time>
      </trkpt>
      <trkpt lat="43.58395" lon="1.32153">
        <ele>166.4</ele>
        <time>2025-12-19T11:37:12Z</time>
      </trkpt>
      <trkpt lat="43.58396" lon="1.32161">
        <ele>166.6</ele>
        <time>2025-12-19T11:37:13Z</time>
      </trkpt>
      <trkpt lat="43.58397" lon="1.32169">
        <ele>166.6</ele>
        <time>2025-12-19T11:37:14Z</time>
      </trkpt>
      <trkpt lat="43.58397" lon="1.32177">
        <ele>166.4</ele>
        <time>2025-12-19T11:37:15Z</time>
      </trkpt>
      <trkpt lat="43.58395" lon="1.32185">
        <ele>166.4</ele>
        <time>2025-12-19T11:37:16Z</time>
      </trkpt>
      <trkpt lat="43.58393" lon="1.32193">
        <ele>166.4</ele>
        <time>2025-12-19T11:37:17Z</time>
      </trkpt>
      <trkpt lat="43.5839" lon="1.32201">
        <ele>166.2</ele>
        <time>2025-12-19T11:37:18Z</time>
      </trkpt>
      <trkpt lat="43.58386" lon="1.32208">
        <ele>166.2</ele>
        <time>2025-12-19T11:37:19Z</time>
      </trkpt>
      <trkpt lat="43.58382" lon="1.32215">
        <ele>166</ele>
        <time>2025-12-19T11:37:20Z</time>
      </trkpt>
      <trkpt lat="43.58378" lon="1.32222">
        <ele>165.8</ele>
        <time>2025-12-19T11:37:21Z</time>
      </trkpt>
      <trkpt lat="43.58372" lon="1.32228">
        <ele>165.6</ele>
        <time>2025-12-19T11:37:22Z</time>
      </trkpt>
      <trkpt lat="43.58366" lon="1.32234">
        <ele>165.4</ele>
        <time>2025-12-19T11:37:23Z</time>
      </trkpt>
      <trkpt lat="43.58359" lon="1.3224">
        <ele>165</ele>
        <time>2025-12-19T11:37:24Z</time>
      </trkpt>
      <trkpt lat="43.58352" lon="1.32246">
        <ele>164.8</ele>
        <time>2025-12-19T11:37:25Z</time>
      </trkpt>
      <trkpt lat="43.58345" lon="1.32252">
        <ele>164.6</ele>
        <time>2025-12-19T11:37:26Z</time>
      </trkpt>
      <trkpt lat="43.58338" lon="1.32257">
        <ele>164.2</ele>
        <time>2025-12-19T11:37:27Z</time>
      </trkpt>
      <trkpt lat="43.58331" lon="1.32263">
        <ele>163.8</ele>
        <time>2025-12-19T11:37:28Z</time>
      </trkpt>
      <trkpt lat="43.58325" lon="1.32269">
        <ele>163.6</ele>
        <time>2025-12-19T11:37:29Z</time>
      </trkpt>
      <trkpt lat="43.58319" lon="1.32274">
        <ele>163.4</ele>
        <time>2025-12-19T11:37:30Z</time>
      </trkpt>
      <trkpt lat="43.58312" lon="1.3228">
        <ele>163.4</ele>
        <time>2025-12-19T11:37:31Z</time>
      </trkpt>
      <trkpt lat="43.58305" lon="1.32286">
        <ele>163.2</ele>
        <time>2025-12-19T11:37:32Z</time>
      </trkpt>
      <trkpt lat="43.583" lon="1.32293">
        <ele>163.2</ele>
        <time>2025-12-19T11:37:33Z</time>
      </trkpt>
      <trkpt lat="43.58296" lon="1.32301">
        <ele>163</ele>
        <time>2025-12-19T11:37:34Z</time>
      </trkpt>
      <trkpt lat="43.58292" lon="1.32311">
        <ele>162.8</ele>
        <time>2025-12-19T11:37:35Z</time>
      </trkpt>
      <trkpt lat="43.58291" lon="1.3232">
        <ele>162.8</ele>
        <time>2025-12-19T11:37:36Z</time>
      </trkpt>
      <trkpt lat="43.58291" lon="1.3233">
        <ele>162.6</ele>
        <time>2025-12-19T11:37:37Z</time>
      </trkpt>
      <trkpt lat="43.58293" lon="1.32339">
        <ele>162.4</ele>
        <time>2025-12-19T11:37:38Z</time>
      </trkpt>
      <trkpt lat="43.58295" lon="1.32348">
        <ele>162.4</ele>
        <time>2025-12-19T11:37:39Z</time>
      </trkpt>
      <trkpt lat="43.58297" lon="1.32357">
        <ele>162.4</ele>
        <time>2025-12-19T11:37:40Z</time>
      </trkpt>
      <trkpt lat="43.583" lon="1.32366">
        <ele>162.2</ele>
        <time>2025-12-19T11:37:41Z</time>
      </trkpt>
      <trkpt lat="43.58303" lon="1.32375">
        <ele>162.2</ele>
        <time>2025-12-19T11:37:42Z</time>
      </trkpt>
      <trkpt lat="43.58307" lon="1.32384">
        <ele>162.2</ele>
        <time>2025-12-19T11:37:43Z</time>
      </trkpt>
      <trkpt lat="43.5831" lon="1.32391">
        <ele>162.2</ele>
        <time>2025-12-19T11:37:44Z</time>
      </trkpt>
      <trkpt lat="43.58314" lon="1.32399">
        <ele>162.2</ele>
        <time>2025-12-19T11:37:45Z</time>
      </trkpt>
      <trkpt lat="43.58317" lon="1.32407">
        <ele>162.2</ele>
        <time>2025-12-19T11:37:46Z</time>
      </trkpt>
      <trkpt lat="43.5832" lon="1.32415">
        <ele>162.2</ele>
        <time>2025-12-19T11:37:47Z</time>
      </trkpt>
      <trkpt lat="43.58324" lon="1.32422">
        <ele>162.4</ele>
        <time>2025-12-19T11:37:48Z</time>
      </trkpt>
      <trkpt lat="43.58329" lon="1.32429">
        <ele>162.4</ele>
        <time>2025-12-19T11:37:49Z</time>
      </trkpt>
      <trkpt lat="43.58333" lon="1.32435">
        <ele>162.4</ele>
        <time>2025-12-19T11:37:50Z</time>
      </trkpt>
      <trkpt lat="43.58337" lon="1.32441">
        <ele>162.4</ele>
        <time>2025-12-19T11:37:51Z</time>
      </trkpt>
      <trkpt lat="43.58341" lon="1.32447">
        <ele>162.4</ele>
        <time>2025-12-19T11:37:52Z</time>
      </trkpt>
      <trkpt lat="43.58345" lon="1.32451">
        <ele>162.6</ele>
        <time>2025-12-19T11:37:53Z</time>
      </trkpt>
      <trkpt lat="43.58349" lon="1.32454">
        <ele>162.6</ele>
        <time>2025-12-19T11:37:54Z</time>
      </trkpt>
      <trkpt lat="43.58352" lon="1.32458">
        <ele>162.6</ele>
        <time>2025-12-19T11:37:55Z</time>
      </trkpt>
      <trkpt lat="43.58353" lon="1.32464">
        <ele>162.8</ele>
        <time>2025-12-19T11:37:56Z</time>
      </trkpt>
      <trkpt lat="43.58352" lon="1.32469">
        <ele>162.8</ele>
        <time>2025-12-19T11:37:57Z</time>
      </trkpt>
      <trkpt lat="43.58354" lon="1.32473">
        <ele>163</ele>
        <time>2025-12-19T11:37:58Z</time>
      </trkpt>
      <trkpt lat="43.58357" lon="1.32475">
        <ele>163.2</ele>
        <time>2025-12-19T11:37:59Z</time>
      </trkpt>
      <trkpt lat="43.58361" lon="1.32475">
        <ele>163.2</ele>
        <time>2025-12-19T11:38:00Z</time>
      </trkpt>
      <trkpt lat="43.58365" lon="1.32476">
        <ele>163.4</ele>
        <time>2025-12-19T11:38:01Z</time>
      </trkpt>
      <trkpt lat="43.58369" lon="1.32477">
        <ele>163.4</ele>
        <time>2025-12-19T11:38:02Z</time>
      </trkpt>
      <trkpt lat="43.58373" lon="1.32478">
        <ele>163.6</ele>
        <time>2025-12-19T11:38:03Z</time>
      </trkpt>
      <trkpt lat="43.58378" lon="1.32479">
        <ele>163.6</ele>
        <time>2025-12-19T11:38:04Z</time>
      </trkpt>
      <trkpt lat="43.58383" lon="1.3248">
        <ele>163.6</ele>
        <time>2025-12-19T11:38:05Z</time>
      </trkpt>
      <trkpt lat="43.58388" lon="1.32482">
        <ele>163.8</ele>
        <time>2025-12-19T11:38:06Z</time>
      </trkpt>
      <trkpt lat="43.58392" lon="1.32483">
        <ele>163.8</ele>
        <time>2025-12-19T11:38:07Z</time>
      </trkpt>
      <trkpt lat="43.58397" lon="1.32484">
        <ele>164</ele>
        <time>2025-12-19T11:38:08Z</time>
      </trkpt>
      <trkpt lat="43.58402" lon="1.32485">
        <ele>164.2</ele>
        <time>2025-12-19T11:38:09Z</time>
      </trkpt>
      <trkpt lat="43.58407" lon="1.32486">
        <ele>164.2</ele>
        <time>2025-12-19T11:38:10Z</time>
      </trkpt>
      <trkpt lat="43.58412" lon="1.32487">
        <ele>164.4</ele>
        <time>2025-12-19T11:38:11Z</time>
      </trkpt>
      <trkpt lat="43.58416" lon="1.32488">
        <ele>164.4</ele>
        <time>2025-12-19T11:38:12Z</time>
      </trkpt>
      <trkpt lat="43.58421" lon="1.32489">
        <ele>164.6</ele>
        <time>2025-12-19T11:38:13Z</time>
      </trkpt>
      <trkpt lat="43.58426" lon="1.3249">
        <ele>164.6</ele>
        <time>2025-12-19T11:38:14Z</time>
      </trkpt>
      <trkpt lat="43.58431" lon="1.32491">
        <ele>164.8</ele>
        <time>2025-12-19T11:38:15Z</time>
      </trkpt>
      <trkpt lat="43.58436" lon="1.32492">
        <ele>165</ele>
        <time>2025-12-19T11:38:16Z</time>
      </trkpt>
      <trkpt lat="43.5844" lon="1.32494">
        <ele>165</ele>
        <time>2025-12-19T11:38:17Z</time>
      </trkpt>
      <trkpt lat="43.58445" lon="1.32496">
        <ele>165.2</ele>
        <time>2025-12-19T11:38:18Z</time>
      </trkpt>
      <trkpt lat="43.5845" lon="1.32497">
        <ele>165.2</ele>
        <time>2025-12-19T11:38:19Z</time>
      </trkpt>
      <trkpt lat="43.58454" lon="1.32498">
        <ele>165.4</ele>
        <time>2025-12-19T11:38:20Z</time>
      </trkpt>
      <trkpt lat="43.58459" lon="1.32501">
        <ele>165.4</ele>
        <time>2025-12-19T11:38:21Z</time>
      </trkpt>
      <trkpt lat="43.58462" lon="1.32505">
        <ele>165.4</ele>
        <time>2025-12-19T11:38:22Z</time>
      </trkpt>
      <trkpt lat="43.58466" lon="1.32508">
        <ele>165.6</ele>
        <time>2025-12-19T11:38:23Z</time>
      </trkpt>
      <trkpt lat="43.5847" lon="1.32511">
        <ele>165.8</ele>
        <time>2025-12-19T11:38:24Z</time>
      </trkpt>
      <trkpt lat="43.58475" lon="1.32513">
        <ele>165.8</ele>
        <time>2025-12-19T11:38:25Z</time>
      </trkpt>
      <trkpt lat="43.58479" lon="1.32514">
        <ele>166</ele>
        <time>2025-12-19T11:38:26Z</time>
      </trkpt>
      <trkpt lat="43.58484" lon="1.32513">
        <ele>166</ele>
        <time>2025-12-19T11:38:27Z</time>
      </trkpt>
      <trkpt lat="43.58489" lon="1.32512">
        <ele>166.2</ele>
        <time>2025-12-19T11:38:28Z</time>
      </trkpt>
      <trkpt lat="43.58493" lon="1.32508">
        <ele>166.2</ele>
        <time>2025-12-19T11:38:29Z</time>
      </trkpt>
      <trkpt lat="43.58497" lon="1.32505">
        <ele>166.4</ele>
        <time>2025-12-19T11:38:30Z</time>
      </trkpt>
      <trkpt lat="43.585" lon="1.32501">
        <ele>166.6</ele>
        <time>2025-12-19T11:38:31Z</time>
      </trkpt>
      <trkpt lat="43.58503" lon="1.32497">
        <ele>166.8</ele>
        <time>2025-12-19T11:38:32Z</time>
      </trkpt>
      <trkpt lat="43.58507" lon="1.32492">
        <ele>166.8</ele>
        <time>2025-12-19T11:38:33Z</time>
      </trkpt>
      <trkpt lat="43.5851" lon="1.32488">
        <ele>167</ele>
        <time>2025-12-19T11:38:34Z</time>
      </trkpt>
      <trkpt lat="43.58513" lon="1.32483">
        <ele>167.2</ele>
        <time>2025-12-19T11:38:35Z</time>
      </trkpt>
      <trkpt lat="43.58516" lon="1.32479">
        <ele>167.4</ele>
        <time>2025-12-19T11:38:36Z</time>
      </trkpt>
      <trkpt lat="43.5852" lon="1.32475">
        <ele>167.6</ele>
        <time>2025-12-19T11:38:37Z</time>
      </trkpt>
      <trkpt lat="43.58522" lon="1.3247">
        <ele>167.8</ele>
        <time>2025-12-19T11:38:38Z</time>
      </trkpt>
      <trkpt lat="43.58525" lon="1.32466">
        <ele>168.2</ele>
        <time>2025-12-19T11:38:39Z</time>
      </trkpt>
      <trkpt lat="43.58529" lon="1.32462">
        <ele>168.4</ele>
        <time>2025-12-19T11:38:40Z</time>
      </trkpt>
      <trkpt lat="43.58532" lon="1.32458">
        <ele>168.6</ele>
        <time>2025-12-19T11:38:41Z</time>
      </trkpt>
      <trkpt lat="43.58535" lon="1.32454">
        <ele>168.8</ele>
        <time>2025-12-19T11:38:42Z</time>
      </trkpt>
      <trkpt lat="43.58538" lon="1.3245">
        <ele>169</ele>
        <time>2025-12-19T11:38:43Z</time>
      </trkpt>
      <trkpt lat="43.58542" lon="1.32446">
        <ele>169.2</ele>
        <time>2025-12-19T11:38:44Z</time>
      </trkpt>
      <trkpt lat="43.58545" lon="1.32442">
        <ele>169.4</ele>
        <time>2025-12-19T11:38:45Z</time>
      </trkpt>
      <trkpt lat="43.58548" lon="1.32438">
        <ele>169.6</ele>
        <time>2025-12-19T11:38:46Z</time>
      </trkpt>
      <trkpt lat="43.58551" lon="1.32434">
        <ele>169.8</ele>
        <time>2025-12-19T11:38:47Z</time>
      </trkpt>
      <trkpt lat="43.58555" lon="1.32431">
        <ele>170</ele>
        <time>2025-12-19T11:38:48Z</time>
      </trkpt>
      <trkpt lat="43.58558" lon="1.32427">
        <ele>170</ele>
        <time>2025-12-19T11:38:49Z</time>
      </trkpt>
      <trkpt lat="43.58561" lon="1.32423">
        <ele>170.2</ele>
        <time>2025-12-19T11:38:50Z</time>
      </trkpt>
      <trkpt lat="43.58564" lon="1.3242">
        <ele>170.6</ele>
        <time>2025-12-19T11:38:51Z</time>
      </trkpt>
      <trkpt lat="43.58567" lon="1.32416">
        <ele>170.8</ele>
        <time>2025-12-19T11:38:52Z</time>
      </trkpt>
      <trkpt lat="43.5857" lon="1.32412">
        <ele>171</ele>
        <time>2025-12-19T11:38:53Z</time>
      </trkpt>
      <trkpt lat="43.58573" lon="1.32408">
        <ele>171.2</ele>
        <time>2025-12-19T11:38:54Z</time>
      </trkpt>
      <trkpt lat="43.58576" lon="1.32405">
        <ele>171.4</ele>
        <time>2025-12-19T11:38:55Z</time>
      </trkpt>
      <trkpt lat="43.5858" lon="1.32401">
        <ele>171.6</ele>
        <time>2025-12-19T11:38:56Z</time>
      </trkpt>
      <trkpt lat="43.58583" lon="1.32397">
        <ele>171.8</ele>
        <time>2025-12-19T11:38:57Z</time>
      </trkpt>
      <trkpt lat="43.58586" lon="1.32394">
        <ele>172</ele>
        <time>2025-12-19T11:38:58Z</time>
      </trkpt>
      <trkpt lat="43.58589" lon="1.3239">
        <ele>172.4</ele>
        <time>2025-12-19T11:38:59Z</time>
      </trkpt>
      <trkpt lat="43.58592" lon="1.32386">
        <ele>172.6</ele>
        <time>2025-12-19T11:39:00Z</time>
      </trkpt>
      <trkpt lat="43.58595" lon="1.32383">
        <ele>172.8</ele>
        <time>2025-12-19T11:39:01Z</time>
      </trkpt>
      <trkpt lat="43.58598" lon="1.32379">
        <ele>173</ele>
        <time>2025-12-19T11:39:02Z</time>
      </trkpt>
      <trkpt lat="43.58601" lon="1.32376">
        <ele>173.4</ele>
        <time>2025-12-19T11:39:03Z</time>
      </trkpt>
      <trkpt lat="43.58605" lon="1.32372">
        <ele>173.6</ele>
        <time>2025-12-19T11:39:04Z</time>
      </trkpt>
      <trkpt lat="43.58608" lon="1.32368">
        <ele>173.8</ele>
        <time>2025-12-19T11:39:05Z</time>
      </trkpt>
      <trkpt lat="43.58611" lon="1.32365">
        <ele>174</ele>
        <time>2025-12-19T11:39:06Z</time>
      </trkpt>
      <trkpt lat="43.58615" lon="1.32361">
        <ele>174.4</ele>
        <time>2025-12-19T11:39:07Z</time>
      </trkpt>
      <trkpt lat="43.58618" lon="1.32358">
        <ele>174.6</ele>
        <time>2025-12-19T11:39:08Z</time>
      </trkpt>
      <trkpt lat="43.58621" lon="1.32354">
        <ele>174.8</ele>
        <time>2025-12-19T11:39:09Z</time>
      </trkpt>
      <trkpt lat="43.58625" lon="1.32351">
        <ele>175.2</ele>
        <time>2025-12-19T11:39:10Z</time>
      </trkpt>
      <trkpt lat="43.58628" lon="1.32347">
        <ele>175.4</ele>
        <time>2025-12-19T11:39:11Z</time>
      </trkpt>
      <trkpt lat="43.58631" lon="1.32343">
        <ele>175.8</ele>
        <time>2025-12-19T11:39:12Z</time>
      </trkpt>
      <trkpt lat="43.58635" lon="1.32339">
        <ele>176</ele>
        <time>2025-12-19T11:39:13Z</time>
      </trkpt>
      <trkpt lat="43.58637" lon="1.32336">
        <ele>176.4</ele>
        <time>2025-12-19T11:39:14Z</time>
      </trkpt>
      <trkpt lat="43.5864" lon="1.32332">
        <ele>176.6</ele>
        <time>2025-12-19T11:39:15Z</time>
      </trkpt>
      <trkpt lat="43.58644" lon="1.32329">
        <ele>177</ele>
        <time>2025-12-19T11:39:16Z</time>
      </trkpt>
      <trkpt lat="43.58646" lon="1.32326">
        <ele>177.2</ele>
        <time>2025-12-19T11:39:17Z</time>
      </trkpt>
      <trkpt lat="43.58648" lon="1.32323">
        <ele>177.6</ele>
        <time>2025-12-19T11:39:18Z</time>
      </trkpt>
      <trkpt lat="43.58651" lon="1.3232">
        <ele>178</ele>
        <time>2025-12-19T11:39:19Z</time>
      </trkpt>
      <trkpt lat="43.58654" lon="1.32317">
        <ele>178.2</ele>
        <time>2025-12-19T11:39:20Z</time>
      </trkpt>
      <trkpt lat="43.58656" lon="1.32314">
        <ele>178.6</ele>
        <time>2025-12-19T11:39:21Z</time>
      </trkpt>
      <trkpt lat="43.58659" lon="1.32311">
        <ele>178.8</ele>
        <time>2025-12-19T11:39:22Z</time>
      </trkpt>
      <trkpt lat="43.58661" lon="1.32308">
        <ele>179.2</ele>
        <time>2025-12-19T11:39:23Z</time>
      </trkpt>
      <trkpt lat="43.58664" lon="1.32305">
        <ele>179.6</ele>
        <time>2025-12-19T11:39:24Z</time>
      </trkpt>
      <trkpt lat="43.58667" lon="1.32303">
        <ele>179.8</ele>
        <time>2025-12-19T11:39:25Z</time>
      </trkpt>
      <trkpt lat="43.58669" lon="1.323">
        <ele>180</ele>
        <time>2025-12-19T11:39:26Z</time>
      </trkpt>
      <trkpt lat="43.5867" lon="1.32297">
        <ele>180.4</ele>
        <time>2025-12-19T11:39:27Z</time>
      </trkpt>
      <trkpt lat="43.58671" lon="1.32293">
        <ele>180.8</ele>
        <time>2025-12-19T11:39:28Z</time>
      </trkpt>
      <trkpt lat="43.58671" lon="1.32289">
        <ele>181</ele>
        <time>2025-12-19T11:39:29Z</time>
      </trkpt>
      <trkpt lat="43.58671" lon="1.32284">
        <ele>181.4</ele>
        <time>2025-12-19T11:39:30Z</time>
      </trkpt>
      <trkpt lat="43.58672" lon="1.3228">
        <ele>181.6</ele>
        <time>2025-12-19T11:39:31Z</time>
      </trkpt>
      <trkpt lat="43.58673" lon="1.32276">
        <ele>181.8</ele>
        <time>2025-12-19T11:39:32Z</time>
      </trkpt>
      <trkpt lat="43.58673" lon="1.32271">
        <ele>182</ele>
        <time>2025-12-19T11:39:33Z</time>
      </trkpt>
      <trkpt lat="43.58673" lon="1.32267">
        <ele>182.2</ele>
        <time>2025-12-19T11:39:34Z</time>
      </trkpt>
      <trkpt lat="43.58674" lon="1.32263">
        <ele>182.4</ele>
        <time>2025-12-19T11:39:35Z</time>
      </trkpt>
      <trkpt lat="43.58674" lon="1.32259">
        <ele>182.4</ele>
        <time>2025-12-19T11:39:36Z</time>
      </trkpt>
      <trkpt lat="43.58674" lon="1.32254">
        <ele>182.6</ele>
        <time>2025-12-19T11:39:37Z</time>
      </trkpt>
      <trkpt lat="43.58674" lon="1.3225">
        <ele>182.8</ele>
        <time>2025-12-19T11:39:38Z</time>
      </trkpt>
      <trkpt lat="43.58674" lon="1.32246">
        <ele>183</ele>
        <time>2025-12-19T11:39:39Z</time>
      </trkpt>
      <trkpt lat="43.58675" lon="1.32242">
        <ele>183</ele>
        <time>2025-12-19T11:39:40Z</time>
      </trkpt>
      <trkpt lat="43.58675" lon="1.3224">
        <ele>183.2</ele>
        <time>2025-12-19T11:39:41Z</time>
      </trkpt>
      <trkpt lat="43.58675" lon="1.32237">
        <ele>183.2</ele>
        <time>2025-12-19T11:39:42Z</time>
      </trkpt>
      <trkpt lat="43.58675" lon="1.32235">
        <ele>183.4</ele>
        <time>2025-12-19T11:39:43Z</time>
      </trkpt>
      <trkpt lat="43.58675" lon="1.32234">
        <ele>183.6</ele>
        <time>2025-12-19T11:39:44Z</time>
      </trkpt>
      <trkpt lat="43.58675" lon="1.32233">
        <ele>183.6</ele>
        <time>2025-12-19T11:39:45Z</time>
      </trkpt>
      <trkpt lat="43.58677" lon="1.32232">
        <ele>183.6</ele>
        <time>2025-12-19T11:39:46Z</time>
      </trkpt>
      <trkpt lat="43.58678" lon="1.32232">
        <ele>183.8</ele>
        <time>2025-12-19T11:39:47Z</time>
      </trkpt>
      <trkpt lat="43.5868" lon="1.32231">
        <ele>183.8</ele>
        <time>2025-12-19T11:39:48Z</time>
      </trkpt>
      <trkpt lat="43.5868" lon="1.3223">
        <ele>183.8</ele>
        <time>2025-12-19T11:39:49Z</time>
      </trkpt>
      <trkpt lat="43.5868" lon="1.3223">
        <ele>183.8</ele>
        <time>2025-12-19T11:39:50Z</time>
      </trkpt>
      <trkpt lat="43.5868" lon="1.3223">
        <ele>183.8</ele>
        <time>2025-12-19T11:39:51Z</time>
      </trkpt>
    </trkseg>
  </trk>
</gpx>